<?xml version='1.0' encoding='UTF-8'?><gpx version="1.1" creator="JPX - https://github.com/jenetics/jpx" xmlns="http://www.topografix.com/GPX/1/1"><trk><trkseg><trkpt lat="45.475167728826506" lon="10.468420380271835"><ele>164.0</ele><time>2026-03-28T08:56:18Z</time></trkpt><trkpt lat="45.47517647342808" lon="10.468275710521286"><ele>164.0</ele><time>2026-03-28T08:56:19Z</time></trkpt><trkpt lat="45.475164960189545" lon="10.468132912836326"><ele>164.0</ele><time>2026-03-28T08:56:20Z</time></trkpt><trkpt lat="45.47516144461282" lon="10.46796769068548"><ele>164.0</ele><time>2026-03-28T08:56:21Z</time></trkpt><trkpt lat="45.47516833471931" lon="10.467795060223875"><ele>164.0</ele><time>2026-03-28T08:56:22Z</time></trkpt><trkpt lat="45.47518391288895" lon="10.46761529563991"><ele>163.5</ele><time>2026-03-28T08:56:23Z</time></trkpt><trkpt lat="45.47519404179782" lon="10.467413978069974"><ele>163.0</ele><time>2026-03-28T08:56:24Z</time></trkpt><trkpt lat="45.47520636233916" lon="10.467199646357969"><ele>162.5</ele><time>2026-03-28T08:56:25Z</time></trkpt><trkpt lat="45.47521981969645" lon="10.466987224357146"><ele>162.0</ele><time>2026-03-28T08:56:26Z</time></trkpt><trkpt lat="45.475230167150706" lon="10.4667968850139"><ele>161.75</ele><time>2026-03-28T08:56:27Z</time></trkpt><trkpt lat="45.475248163935895" lon="10.46661217227195"><ele>161.5</ele><time>2026-03-28T08:56:28Z</time></trkpt><trkpt lat="45.475267312936964" lon="10.466408790246119"><ele>161.25</ele><time>2026-03-28T08:56:29Z</time></trkpt><trkpt lat="45.4752872486423" lon="10.46618453070473"><ele>161.0</ele><time>2026-03-28T08:56:30Z</time></trkpt><trkpt lat="45.47530769239844" lon="10.465945922912423"><ele>160.33333333333331</ele><time>2026-03-28T08:56:31Z</time></trkpt><trkpt lat="45.47532629063427" lon="10.465705230529037"><ele>159.66666666666666</ele><time>2026-03-28T08:56:32Z</time></trkpt><trkpt lat="45.47534498970109" lon="10.465464093337664"><ele>159.0</ele><time>2026-03-28T08:56:33Z</time></trkpt><trkpt lat="45.475359145424235" lon="10.465199083322377"><ele>158.66666666666666</ele><time>2026-03-28T08:56:34Z</time></trkpt><trkpt lat="45.47536994713481" lon="10.46492041929107"><ele>158.33333333333331</ele><time>2026-03-28T08:56:35Z</time></trkpt><trkpt lat="45.47537880925834" lon="10.46464014965602"><ele>158.0</ele><time>2026-03-28T08:56:36Z</time></trkpt><trkpt lat="45.47537756803682" lon="10.464348295832018"><ele>157.66666666666666</ele><time>2026-03-28T08:56:37Z</time></trkpt><trkpt lat="45.47536904972774" lon="10.464051109055816"><ele>157.33333333333334</ele><time>2026-03-28T08:56:38Z</time></trkpt><trkpt lat="45.47535563516321" lon="10.46376731502091"><ele>157.0</ele><time>2026-03-28T08:56:39Z</time></trkpt><trkpt lat="45.47533708500594" lon="10.463524474806622"><ele>156.75</ele><time>2026-03-28T08:56:40Z</time></trkpt><trkpt lat="45.475327763604845" lon="10.463307418097708"><ele>156.5</ele><time>2026-03-28T08:56:41Z</time></trkpt><trkpt lat="45.47533539116447" lon="10.463112441515745"><ele>156.25</ele><time>2026-03-28T08:56:42Z</time></trkpt><trkpt lat="45.4753732258881" lon="10.462935499727267"><ele>156.0</ele><time>2026-03-28T08:56:43Z</time></trkpt><trkpt lat="45.475416906091866" lon="10.462774162907605"><ele>155.5</ele><time>2026-03-28T08:56:44Z</time></trkpt><trkpt lat="45.47546839463164" lon="10.462603029998713"><ele>155.0</ele><time>2026-03-28T08:56:45Z</time></trkpt><trkpt lat="45.475560905762975" lon="10.462491218071058"><ele>154.5</ele><time>2026-03-28T08:56:46Z</time></trkpt><trkpt lat="45.47565553279491" lon="10.462346759573279"><ele>154.0</ele><time>2026-03-28T08:56:47Z</time></trkpt><trkpt lat="45.475781350037096" lon="10.462205089615857"><ele>154.0</ele><time>2026-03-28T08:56:48Z</time></trkpt><trkpt lat="45.47589077817474" lon="10.462047554199811"><ele>154.0</ele><time>2026-03-28T08:56:49Z</time></trkpt><trkpt lat="45.4759713841116" lon="10.461887238628703"><ele>154.0</ele><time>2026-03-28T08:56:50Z</time></trkpt><trkpt lat="45.476039505628705" lon="10.46171111662554"><ele>154.0</ele><time>2026-03-28T08:56:51Z</time></trkpt><trkpt lat="45.476107736786425" lon="10.461519000570393"><ele>154.0</ele><time>2026-03-28T08:56:52Z</time></trkpt><trkpt lat="45.47617011525898" lon="10.46132553835571"><ele>154.0</ele><time>2026-03-28T08:56:53Z</time></trkpt><trkpt lat="45.4762274481271" lon="10.461137137418051"><ele>154.0</ele><time>2026-03-28T08:56:54Z</time></trkpt><trkpt lat="45.47628283731258" lon="10.46094754032512"><ele>154.0</ele><time>2026-03-28T08:56:55Z</time></trkpt><trkpt lat="45.47633359838381" lon="10.460761295169556"><ele>154.33333333333334</ele><time>2026-03-28T08:56:56Z</time></trkpt><trkpt lat="45.47638424871791" lon="10.460556332517623"><ele>154.66666666666666</ele><time>2026-03-28T08:56:57Z</time></trkpt><trkpt lat="45.47643064640588" lon="10.46034680782959"><ele>155.0</ele><time>2026-03-28T08:56:58Z</time></trkpt><trkpt lat="45.47647985685241" lon="10.460141080598987"><ele>155.0</ele><time>2026-03-28T08:56:59Z</time></trkpt><trkpt lat="45.47651995057363" lon="10.459947138392769"><ele>155.0</ele><time>2026-03-28T08:57:00Z</time></trkpt><trkpt lat="45.47656710066387" lon="10.459781251928385"><ele>155.0</ele><time>2026-03-28T08:57:01Z</time></trkpt><trkpt lat="45.47660299796705" lon="10.459636664909054"><ele>155.0</ele><time>2026-03-28T08:57:02Z</time></trkpt><trkpt lat="45.476628670310056" lon="10.459538287202168"><ele>155.0</ele><time>2026-03-28T08:57:03Z</time></trkpt><trkpt lat="45.476653748967614" lon="10.459424316516477"><ele>155.0</ele><time>2026-03-28T08:57:05Z</time></trkpt><trkpt lat="45.476554854864176" lon="10.459422501355037"><ele>155.0</ele><time>2026-03-28T08:57:08Z</time></trkpt><trkpt lat="45.476488655941" lon="10.459463442682308"><ele>155.0</ele><time>2026-03-28T08:57:27Z</time></trkpt><trkpt lat="45.4764050941668" lon="10.459516100932472"><ele>155.0</ele><time>2026-03-28T08:57:28Z</time></trkpt><trkpt lat="45.476319498791625" lon="10.459581688831685"><ele>155.0</ele><time>2026-03-28T08:57:29Z</time></trkpt><trkpt lat="45.47622368267783" lon="10.459676499558904"><ele>155.0</ele><time>2026-03-28T08:57:30Z</time></trkpt><trkpt lat="45.476101760995036" lon="10.459754481791578"><ele>155.0</ele><time>2026-03-28T08:57:31Z</time></trkpt><trkpt lat="45.47598822776304" lon="10.459852150540272"><ele>155.0</ele><time>2026-03-28T08:57:32Z</time></trkpt><trkpt lat="45.47586778547317" lon="10.459943135332184"><ele>155.0</ele><time>2026-03-28T08:57:33Z</time></trkpt><trkpt lat="45.475745709773214" lon="10.460060200879289"><ele>155.0</ele><time>2026-03-28T08:57:34Z</time></trkpt><trkpt lat="45.475614716606195" lon="10.46016966441019"><ele>155.0</ele><time>2026-03-28T08:57:35Z</time></trkpt><trkpt lat="45.475480959876656" lon="10.460282207043837"><ele>155.0</ele><time>2026-03-28T08:57:36Z</time></trkpt><trkpt lat="45.4753369217516" lon="10.460390689427822"><ele>154.0</ele><time>2026-03-28T08:57:37Z</time></trkpt><trkpt lat="45.47518647578399" lon="10.460484923965607"><ele>153.0</ele><time>2026-03-28T08:57:38Z</time></trkpt><trkpt lat="45.47502327870797" lon="10.460571756661583"><ele>152.0</ele><time>2026-03-28T08:57:39Z</time></trkpt><trkpt lat="45.47485170537131" lon="10.46066371104514"><ele>152.0</ele><time>2026-03-28T08:57:40Z</time></trkpt><trkpt lat="45.47467956513063" lon="10.46077928226577"><ele>152.0</ele><time>2026-03-28T08:57:41Z</time></trkpt><trkpt lat="45.47451578572739" lon="10.460923273859109"><ele>152.0</ele><time>2026-03-28T08:57:42Z</time></trkpt><trkpt lat="45.474368717183516" lon="10.461056702003166"><ele>152.66666666666666</ele><time>2026-03-28T08:57:43Z</time></trkpt><trkpt lat="45.47421520561296" lon="10.461177942701523"><ele>153.33333333333334</ele><time>2026-03-28T08:57:44Z</time></trkpt><trkpt lat="45.47407596045695" lon="10.461362920995604"><ele>154.0</ele><time>2026-03-28T08:57:45Z</time></trkpt><trkpt lat="45.473948745902085" lon="10.46154292388587"><ele>154.0</ele><time>2026-03-28T08:57:46Z</time></trkpt><trkpt lat="45.47382792011056" lon="10.461713165424497"><ele>154.0</ele><time>2026-03-28T08:57:47Z</time></trkpt><trkpt lat="45.47368881493144" lon="10.46184453403495"><ele>154.0</ele><time>2026-03-28T08:57:48Z</time></trkpt><trkpt lat="45.47353590816307" lon="10.461980853642752"><ele>153.66666666666669</ele><time>2026-03-28T08:57:49Z</time></trkpt><trkpt lat="45.473377203288756" lon="10.462101788486576"><ele>153.33333333333334</ele><time>2026-03-28T08:57:50Z</time></trkpt><trkpt lat="45.47321483696894" lon="10.462247210034715"><ele>153.0</ele><time>2026-03-28T08:57:51Z</time></trkpt><trkpt lat="45.473046068867866" lon="10.462402222198367"><ele>152.66666666666666</ele><time>2026-03-28T08:57:52Z</time></trkpt><trkpt lat="45.47287978542522" lon="10.462598764695636"><ele>152.33333333333331</ele><time>2026-03-28T08:57:53Z</time></trkpt><trkpt lat="45.47268956118166" lon="10.462790971292398"><ele>152.0</ele><time>2026-03-28T08:57:54Z</time></trkpt><trkpt lat="45.4725062119014" lon="10.462976142671057"><ele>152.33333333333331</ele><time>2026-03-28T08:57:55Z</time></trkpt><trkpt lat="45.472328878076915" lon="10.463131057794513"><ele>152.66666666666666</ele><time>2026-03-28T08:57:56Z</time></trkpt><trkpt lat="45.47218191657732" lon="10.463301285966866"><ele>153.0</ele><time>2026-03-28T08:57:57Z</time></trkpt><trkpt lat="45.47205729678906" lon="10.463467025435753"><ele>153.0</ele><time>2026-03-28T08:57:58Z</time></trkpt><trkpt lat="45.47190594615423" lon="10.463575687112371"><ele>153.0</ele><time>2026-03-28T08:57:59Z</time></trkpt><trkpt lat="45.47174659422699" lon="10.46367308958416"><ele>153.0</ele><time>2026-03-28T08:58:00Z</time></trkpt><trkpt lat="45.47157866766541" lon="10.463766626721796"><ele>153.0</ele><time>2026-03-28T08:58:01Z</time></trkpt><trkpt lat="45.471417291711084" lon="10.463849196724928"><ele>153.0</ele><time>2026-03-28T08:58:02Z</time></trkpt><trkpt lat="45.47127017603149" lon="10.463934683408338"><ele>153.0</ele><time>2026-03-28T08:58:03Z</time></trkpt><trkpt lat="45.47113241679999" lon="10.464061680997036"><ele>152.66666666666666</ele><time>2026-03-28T08:58:04Z</time></trkpt><trkpt lat="45.47102216097776" lon="10.464239309057108"><ele>152.33333333333331</ele><time>2026-03-28T08:58:05Z</time></trkpt><trkpt lat="45.47089267506254" lon="10.464415064522091"><ele>152.0</ele><time>2026-03-28T08:58:06Z</time></trkpt><trkpt lat="45.47077023199741" lon="10.464624112334969"><ele>152.0</ele><time>2026-03-28T08:58:07Z</time></trkpt><trkpt lat="45.47063240459343" lon="10.464830830300047"><ele>152.0</ele><time>2026-03-28T08:58:08Z</time></trkpt><trkpt lat="45.470515888973445" lon="10.465028343764503"><ele>152.0</ele><time>2026-03-28T08:58:09Z</time></trkpt><trkpt lat="45.4704182689759" lon="10.46519008367463"><ele>152.0</ele><time>2026-03-28T08:58:10Z</time></trkpt><trkpt lat="45.47030331152593" lon="10.46535537235376"><ele>152.0</ele><time>2026-03-28T08:58:11Z</time></trkpt><trkpt lat="45.470168452258946" lon="10.465519342127706"><ele>152.0</ele><time>2026-03-28T08:58:12Z</time></trkpt><trkpt lat="45.47001367501006" lon="10.465693279131928"><ele>152.0</ele><time>2026-03-28T08:58:13Z</time></trkpt><trkpt lat="45.469869927037905" lon="10.465859831950233"><ele>152.0</ele><time>2026-03-28T08:58:14Z</time></trkpt><trkpt lat="45.469764441195885" lon="10.466010373362678"><ele>152.0</ele><time>2026-03-28T08:58:15Z</time></trkpt><trkpt lat="45.469705536447655" lon="10.46616685478467"><ele>152.5</ele><time>2026-03-28T08:58:16Z</time></trkpt><trkpt lat="45.46965541967188" lon="10.46632930123054"><ele>153.0</ele><time>2026-03-28T08:58:17Z</time></trkpt><trkpt lat="45.4696134856934" lon="10.46651984207261"><ele>153.5</ele><time>2026-03-28T08:58:18Z</time></trkpt><trkpt lat="45.46956622328178" lon="10.466732773972893"><ele>154.0</ele><time>2026-03-28T08:58:19Z</time></trkpt><trkpt lat="45.46951513692202" lon="10.46696247695606"><ele>154.0</ele><time>2026-03-28T08:58:20Z</time></trkpt><trkpt lat="45.469466825833315" lon="10.467196115780586"><ele>154.0</ele><time>2026-03-28T08:58:21Z</time></trkpt><trkpt lat="45.46942031263629" lon="10.467398380948703"><ele>154.0</ele><time>2026-03-28T08:58:22Z</time></trkpt><trkpt lat="45.469365362662984" lon="10.467579964920999"><ele>154.0</ele><time>2026-03-28T08:58:23Z</time></trkpt><trkpt lat="45.46927049186633" lon="10.467728414813498"><ele>154.0</ele><time>2026-03-28T08:58:24Z</time></trkpt><trkpt lat="45.46917161212913" lon="10.467870306457497"><ele>154.0</ele><time>2026-03-28T08:58:25Z</time></trkpt><trkpt lat="45.469056673388444" lon="10.467984116658661"><ele>154.0</ele><time>2026-03-28T08:58:26Z</time></trkpt><trkpt lat="45.46891758334206" lon="10.468077880723914"><ele>154.0</ele><time>2026-03-28T08:58:27Z</time></trkpt><trkpt lat="45.46876106019163" lon="10.468170020395691"><ele>154.0</ele><time>2026-03-28T08:58:28Z</time></trkpt><trkpt lat="45.46859774757463" lon="10.468269867607601"><ele>154.0</ele><time>2026-03-28T08:58:29Z</time></trkpt><trkpt lat="45.46843973876963" lon="10.46832960126945"><ele>154.0</ele><time>2026-03-28T08:58:30Z</time></trkpt><trkpt lat="45.46829652517184" lon="10.468347861880549"><ele>154.0</ele><time>2026-03-28T08:58:31Z</time></trkpt><trkpt lat="45.468167961613005" lon="10.468376226975568"><ele>154.0</ele><time>2026-03-28T08:58:32Z</time></trkpt><trkpt lat="45.468048854081154" lon="10.468415683299517"><ele>154.0</ele><time>2026-03-28T08:58:33Z</time></trkpt><trkpt lat="45.467953409378474" lon="10.468422144073195"><ele>154.0</ele><time>2026-03-28T08:58:34Z</time></trkpt><trkpt lat="45.46788425786283" lon="10.468432083529116"><ele>154.0</ele><time>2026-03-28T08:58:35Z</time></trkpt><trkpt lat="45.46779727790495" lon="10.468421363764252"><ele>154.0</ele><time>2026-03-28T08:58:37Z</time></trkpt><trkpt lat="45.467791855747414" lon="10.468688445063743"><ele>154.0</ele><time>2026-03-28T08:58:38Z</time></trkpt><trkpt lat="45.4677790025046" lon="10.468880929963237"><ele>153.33333333333334</ele><time>2026-03-28T08:58:39Z</time></trkpt><trkpt lat="45.46776076861892" lon="10.469127109903985"><ele>152.66666666666666</ele><time>2026-03-28T08:58:40Z</time></trkpt><trkpt lat="45.467730556499" lon="10.469400941479885"><ele>152.0</ele><time>2026-03-28T08:58:41Z</time></trkpt><trkpt lat="45.467695948563076" lon="10.469676762730476"><ele>152.0</ele><time>2026-03-28T08:58:42Z</time></trkpt><trkpt lat="45.46765596661423" lon="10.469958792608388"><ele>152.0</ele><time>2026-03-28T08:58:43Z</time></trkpt><trkpt lat="45.46758430703949" lon="10.470238865719812"><ele>152.0</ele><time>2026-03-28T08:58:44Z</time></trkpt><trkpt lat="45.46753420423761" lon="10.470530196945008"><ele>152.33333333333331</ele><time>2026-03-28T08:58:45Z</time></trkpt><trkpt lat="45.4674709821274" lon="10.47080354763796"><ele>152.66666666666666</ele><time>2026-03-28T08:58:46Z</time></trkpt><trkpt lat="45.46739380290128" lon="10.471080147919986"><ele>153.0</ele><time>2026-03-28T08:58:47Z</time></trkpt><trkpt lat="45.467361626195824" lon="10.471356428975628"><ele>153.25</ele><time>2026-03-28T08:58:48Z</time></trkpt><trkpt lat="45.46732052212781" lon="10.471594754958229"><ele>153.5</ele><time>2026-03-28T08:58:49Z</time></trkpt><trkpt lat="45.46728736171932" lon="10.47180056559368"><ele>153.75</ele><time>2026-03-28T08:58:50Z</time></trkpt><trkpt lat="45.4672591228884" lon="10.47195683979949"><ele>154.0</ele><time>2026-03-28T08:58:51Z</time></trkpt><trkpt lat="45.467231320404096" lon="10.472061398019838"><ele>154.75</ele><time>2026-03-28T08:58:52Z</time></trkpt><trkpt lat="45.46712598086087" lon="10.472134663831591"><ele>155.5</ele><time>2026-03-28T08:58:54Z</time></trkpt><trkpt lat="45.4670345865841" lon="10.472113876736577"><ele>156.25</ele><time>2026-03-28T08:58:55Z</time></trkpt><trkpt lat="45.46692479356106" lon="10.472037051976692"><ele>157.0</ele><time>2026-03-28T08:58:56Z</time></trkpt><trkpt lat="45.46680404599066" lon="10.471944698072722"><ele>157.2</ele><time>2026-03-28T08:58:57Z</time></trkpt><trkpt lat="45.466691640082736" lon="10.471869653219747"><ele>157.39999999999998</ele><time>2026-03-28T08:58:58Z</time></trkpt><trkpt lat="45.4665915618382" lon="10.47184230581798"><ele>157.60000000000002</ele><time>2026-03-28T08:58:59Z</time></trkpt><trkpt lat="45.466518407963726" lon="10.47181578967838"><ele>157.8</ele><time>2026-03-28T08:59:00Z</time></trkpt><trkpt lat="45.46642480775017" lon="10.47186666063767"><ele>158.0</ele><time>2026-03-28T08:59:02Z</time></trkpt><trkpt lat="45.46637271882232" lon="10.471956777193396"><ele>158.0</ele><time>2026-03-28T08:59:03Z</time></trkpt><trkpt lat="45.466282083904495" lon="10.472021800676071"><ele>158.0</ele><time>2026-03-28T08:59:04Z</time></trkpt><trkpt lat="45.466170579916756" lon="10.472057559116472"><ele>158.0</ele><time>2026-03-28T08:59:05Z</time></trkpt><trkpt lat="45.46602958026241" lon="10.472129453225566"><ele>158.0</ele><time>2026-03-28T08:59:06Z</time></trkpt><trkpt lat="45.46588634375043" lon="10.47222642118743"><ele>158.0</ele><time>2026-03-28T08:59:07Z</time></trkpt><trkpt lat="45.46571859191116" lon="10.472289792462416"><ele>158.0</ele><time>2026-03-28T08:59:08Z</time></trkpt><trkpt lat="45.46554110948266" lon="10.47237065283764"><ele>158.0</ele><time>2026-03-28T08:59:09Z</time></trkpt><trkpt lat="45.465365542203344" lon="10.472431274352672"><ele>158.0</ele><time>2026-03-28T08:59:10Z</time></trkpt><trkpt lat="45.46520325492107" lon="10.472477814396616"><ele>158.0</ele><time>2026-03-28T08:59:11Z</time></trkpt><trkpt lat="45.46504762868354" lon="10.472501847463088"><ele>158.0</ele><time>2026-03-28T08:59:12Z</time></trkpt><trkpt lat="45.46489389878195" lon="10.472485592006288"><ele>158.0</ele><time>2026-03-28T08:59:13Z</time></trkpt><trkpt lat="45.46473036584255" lon="10.472465123338814"><ele>158.0</ele><time>2026-03-28T08:59:14Z</time></trkpt><trkpt lat="45.46455695224871" lon="10.47243811140659"><ele>158.0</ele><time>2026-03-28T08:59:15Z</time></trkpt><trkpt lat="45.46438413611563" lon="10.47242535186632"><ele>158.20000000000002</ele><time>2026-03-28T08:59:16Z</time></trkpt><trkpt lat="45.46423882335902" lon="10.472403408218437"><ele>158.4</ele><time>2026-03-28T08:59:17Z</time></trkpt><trkpt lat="45.46411660762209" lon="10.472405423681026"><ele>158.60000000000002</ele><time>2026-03-28T08:59:18Z</time></trkpt><trkpt lat="45.464021849640694" lon="10.472397266998001"><ele>158.8</ele><time>2026-03-28T08:59:19Z</time></trkpt><trkpt lat="45.463949005711065" lon="10.472393222689494"><ele>159.0</ele><time>2026-03-28T08:59:20Z</time></trkpt><trkpt lat="45.46387454591319" lon="10.472392485691453"><ele>159.0</ele><time>2026-03-28T08:59:22Z</time></trkpt><trkpt lat="45.46381685039247" lon="10.472537733970636"><ele>159.0</ele><time>2026-03-28T08:59:24Z</time></trkpt><trkpt lat="45.4638003014309" lon="10.472701463662265"><ele>159.0</ele><time>2026-03-28T08:59:25Z</time></trkpt><trkpt lat="45.463786865001104" lon="10.472899414023676"><ele>159.0</ele><time>2026-03-28T08:59:26Z</time></trkpt><trkpt lat="45.46376850209657" lon="10.473129474925639"><ele>159.33333333333334</ele><time>2026-03-28T08:59:27Z</time></trkpt><trkpt lat="45.46374506407671" lon="10.473394484704514"><ele>159.66666666666669</ele><time>2026-03-28T08:59:28Z</time></trkpt><trkpt lat="45.4637234955588" lon="10.473662965026168"><ele>160.0</ele><time>2026-03-28T08:59:29Z</time></trkpt><trkpt lat="45.46370960485905" lon="10.473935761096122"><ele>160.66666666666669</ele><time>2026-03-28T08:59:30Z</time></trkpt><trkpt lat="45.46369074253606" lon="10.474195154476773"><ele>161.33333333333334</ele><time>2026-03-28T08:59:31Z</time></trkpt><trkpt lat="45.46366942263686" lon="10.47441194891698"><ele>162.0</ele><time>2026-03-28T08:59:32Z</time></trkpt><trkpt lat="45.463652823595694" lon="10.474578218401126"><ele>162.0</ele><time>2026-03-28T08:59:33Z</time></trkpt><trkpt lat="45.463647231356205" lon="10.474674930661495"><ele>162.0</ele><time>2026-03-28T08:59:34Z</time></trkpt><trkpt lat="45.46347514985384" lon="10.474578069011866"><ele>162.0</ele><time>2026-03-28T08:59:38Z</time></trkpt><trkpt lat="45.46336614877935" lon="10.474463542680912"><ele>162.0</ele><time>2026-03-28T08:59:39Z</time></trkpt><trkpt lat="45.46322640185745" lon="10.474345532741243"><ele>162.0</ele><time>2026-03-28T08:59:40Z</time></trkpt><trkpt lat="45.4631063404044" lon="10.474214753439906"><ele>162.0</ele><time>2026-03-28T08:59:41Z</time></trkpt><trkpt lat="45.46298747927173" lon="10.47410902044485"><ele>162.0</ele><time>2026-03-28T08:59:42Z</time></trkpt><trkpt lat="45.46289785945665" lon="10.474019620744633"><ele>162.0</ele><time>2026-03-28T08:59:43Z</time></trkpt><trkpt lat="45.46282144263489" lon="10.473950187686953"><ele>162.0</ele><time>2026-03-28T08:59:44Z</time></trkpt><trkpt lat="45.46276059854405" lon="10.473889078615075"><ele>162.0</ele><time>2026-03-28T08:59:45Z</time></trkpt><trkpt lat="45.462704291503" lon="10.473829475621923"><ele>162.0</ele><time>2026-03-28T08:59:48Z</time></trkpt><trkpt lat="45.46265245668226" lon="10.473751774808738"><ele>162.0</ele><time>2026-03-28T08:59:50Z</time></trkpt><trkpt lat="45.462589925229686" lon="10.47373057711517"><ele>162.0</ele><time>2026-03-28T08:59:51Z</time></trkpt><trkpt lat="45.462516616370436" lon="10.473766977120162"><ele>162.0</ele><time>2026-03-28T08:59:52Z</time></trkpt><trkpt lat="45.46243236673961" lon="10.473848280531058"><ele>162.0</ele><time>2026-03-28T08:59:53Z</time></trkpt><trkpt lat="45.46233867124465" lon="10.473965647509495"><ele>162.0</ele><time>2026-03-28T08:59:54Z</time></trkpt><trkpt lat="45.462241336065254" lon="10.474130250905565"><ele>162.0</ele><time>2026-03-28T08:59:55Z</time></trkpt><trkpt lat="45.46212560457009" lon="10.474310872857309"><ele>162.0</ele><time>2026-03-28T08:59:56Z</time></trkpt><trkpt lat="45.46199801904622" lon="10.474483778723442"><ele>160.66666666666666</ele><time>2026-03-28T08:59:57Z</time></trkpt><trkpt lat="45.46187812098358" lon="10.474662221090297"><ele>159.33333333333331</ele><time>2026-03-28T08:59:58Z</time></trkpt><trkpt lat="45.46177994690644" lon="10.47483782876991"><ele>158.0</ele><time>2026-03-28T08:59:59Z</time></trkpt><trkpt lat="45.46166764731007" lon="10.474975465654861"><ele>158.0</ele><time>2026-03-28T09:00:00Z</time></trkpt><trkpt lat="45.46157703662766" lon="10.475110022147632"><ele>158.0</ele><time>2026-03-28T09:00:01Z</time></trkpt><trkpt lat="45.461502675443846" lon="10.475220246478099"><ele>158.0</ele><time>2026-03-28T09:00:02Z</time></trkpt><trkpt lat="45.46144615199739" lon="10.475305379060055"><ele>158.0</ele><time>2026-03-28T09:00:03Z</time></trkpt><trkpt lat="45.46138810283287" lon="10.475394786860793"><ele>158.0</ele><time>2026-03-28T09:00:05Z</time></trkpt><trkpt lat="45.46132533737882" lon="10.475439979667918"><ele>157.66666666666666</ele><time>2026-03-28T09:00:07Z</time></trkpt><trkpt lat="45.46118607135105" lon="10.47533884138344"><ele>157.33333333333334</ele><time>2026-03-28T09:00:09Z</time></trkpt><trkpt lat="45.461061412227764" lon="10.475236929711713"><ele>157.0</ele><time>2026-03-28T09:00:10Z</time></trkpt><trkpt lat="45.4609103917344" lon="10.475139475067651"><ele>157.0</ele><time>2026-03-28T09:00:11Z</time></trkpt><trkpt lat="45.460780682795196" lon="10.47502969370924"><ele>157.0</ele><time>2026-03-28T09:00:12Z</time></trkpt><trkpt lat="45.460662632256096" lon="10.474938904297804"><ele>157.0</ele><time>2026-03-28T09:00:13Z</time></trkpt><trkpt lat="45.460570364632666" lon="10.47486327885117"><ele>157.0</ele><time>2026-03-28T09:00:14Z</time></trkpt><trkpt lat="45.460491780612585" lon="10.47479616016539"><ele>156.6</ele><time>2026-03-28T09:00:15Z</time></trkpt><trkpt lat="45.460423003615766" lon="10.474738375042023"><ele>156.2</ele><time>2026-03-28T09:00:16Z</time></trkpt><trkpt lat="45.46036713224803" lon="10.474688120609663"><ele>155.8</ele><time>2026-03-28T09:00:17Z</time></trkpt><trkpt lat="45.46027718045182" lon="10.474614534660217"><ele>155.4</ele><time>2026-03-28T09:00:19Z</time></trkpt><trkpt lat="45.46018591037063" lon="10.474710138306616"><ele>155.0</ele><time>2026-03-28T09:00:21Z</time></trkpt><trkpt lat="45.460124634867384" lon="10.47486741144003"><ele>155.0</ele><time>2026-03-28T09:00:22Z</time></trkpt><trkpt lat="45.46004234669014" lon="10.475034939682203"><ele>155.0</ele><time>2026-03-28T09:00:23Z</time></trkpt><trkpt lat="45.45997172712135" lon="10.475261141410993"><ele>155.0</ele><time>2026-03-28T09:00:24Z</time></trkpt><trkpt lat="45.45985928877291" lon="10.475520751341117"><ele>155.0</ele><time>2026-03-28T09:00:25Z</time></trkpt><trkpt lat="45.45973556022108" lon="10.475823603117377"><ele>155.0</ele><time>2026-03-28T09:00:26Z</time></trkpt><trkpt lat="45.45961454616424" lon="10.476119738403117"><ele>154.5</ele><time>2026-03-28T09:00:27Z</time></trkpt><trkpt lat="45.45949405370692" lon="10.476417232384621"><ele>154.0</ele><time>2026-03-28T09:00:28Z</time></trkpt><trkpt lat="45.45936874120736" lon="10.476728018084536"><ele>154.0</ele><time>2026-03-28T09:00:29Z</time></trkpt><trkpt lat="45.459244209269116" lon="10.477032768403351"><ele>154.0</ele><time>2026-03-28T09:00:30Z</time></trkpt><trkpt lat="45.45912600980113" lon="10.47733179297106"><ele>154.0</ele><time>2026-03-28T09:00:31Z</time></trkpt><trkpt lat="45.459012143435295" lon="10.477621474857639"><ele>154.0</ele><time>2026-03-28T09:00:32Z</time></trkpt><trkpt lat="45.45890429511693" lon="10.477900832812422"><ele>154.33333333333334</ele><time>2026-03-28T09:00:33Z</time></trkpt><trkpt lat="45.45880040625819" lon="10.478184506102282"><ele>154.66666666666666</ele><time>2026-03-28T09:00:34Z</time></trkpt><trkpt lat="45.45870309840795" lon="10.478451484114661"><ele>155.0</ele><time>2026-03-28T09:00:35Z</time></trkpt><trkpt lat="45.458617280616096" lon="10.478708867688715"><ele>156.0</ele><time>2026-03-28T09:00:36Z</time></trkpt><trkpt lat="45.45854384432627" lon="10.478982993088637"><ele>157.0</ele><time>2026-03-28T09:00:37Z</time></trkpt><trkpt lat="45.458477271794585" lon="10.479240071205924"><ele>158.0</ele><time>2026-03-28T09:00:38Z</time></trkpt><trkpt lat="45.458417316831664" lon="10.47944647263587"><ele>158.0</ele><time>2026-03-28T09:00:39Z</time></trkpt><trkpt lat="45.458349233212715" lon="10.479635168885975"><ele>158.0</ele><time>2026-03-28T09:00:40Z</time></trkpt><trkpt lat="45.458259785966554" lon="10.479835897384307"><ele>158.0</ele><time>2026-03-28T09:00:41Z</time></trkpt><trkpt lat="45.458151762240746" lon="10.480032762866163"><ele>158.0</ele><time>2026-03-28T09:00:42Z</time></trkpt><trkpt lat="45.458006614296636" lon="10.480205322477639"><ele>158.0</ele><time>2026-03-28T09:00:43Z</time></trkpt><trkpt lat="45.45786994550096" lon="10.48040462082943"><ele>158.0</ele><time>2026-03-28T09:00:44Z</time></trkpt><trkpt lat="45.45770945458237" lon="10.480590639120896"><ele>157.66666666666666</ele><time>2026-03-28T09:00:45Z</time></trkpt><trkpt lat="45.457562538262174" lon="10.480765308719725"><ele>157.33333333333334</ele><time>2026-03-28T09:00:46Z</time></trkpt><trkpt lat="45.457434566560806" lon="10.480921161824877"><ele>157.0</ele><time>2026-03-28T09:00:47Z</time></trkpt><trkpt lat="45.4573230690462" lon="10.481061173920649"><ele>157.0</ele><time>2026-03-28T09:00:48Z</time></trkpt><trkpt lat="45.45723223389762" lon="10.481206829098532"><ele>157.0</ele><time>2026-03-28T09:00:49Z</time></trkpt><trkpt lat="45.45717134793324" lon="10.481380543827527"><ele>157.0</ele><time>2026-03-28T09:00:50Z</time></trkpt><trkpt lat="45.4571390649169" lon="10.481580927477463"><ele>157.0</ele><time>2026-03-28T09:00:51Z</time></trkpt><trkpt lat="45.45711495300878" lon="10.481827635177325"><ele>156.66666666666669</ele><time>2026-03-28T09:00:52Z</time></trkpt><trkpt lat="45.45711007174574" lon="10.482101538335318"><ele>156.33333333333334</ele><time>2026-03-28T09:00:53Z</time></trkpt><trkpt lat="45.4570993388455" lon="10.482406653048695"><ele>156.0</ele><time>2026-03-28T09:00:54Z</time></trkpt><trkpt lat="45.457086153399004" lon="10.48273400627905"><ele>156.33333333333334</ele><time>2026-03-28T09:00:55Z</time></trkpt><trkpt lat="45.45708002521843" lon="10.48305800569218"><ele>156.66666666666669</ele><time>2026-03-28T09:00:56Z</time></trkpt><trkpt lat="45.45707276379026" lon="10.483354818998624"><ele>157.0</ele><time>2026-03-28T09:00:57Z</time></trkpt><trkpt lat="45.45707009012392" lon="10.483635012673735"><ele>156.66666666666669</ele><time>2026-03-28T09:00:58Z</time></trkpt><trkpt lat="45.45707740004163" lon="10.483889371811658"><ele>156.33333333333334</ele><time>2026-03-28T09:00:59Z</time></trkpt><trkpt lat="45.457084004862985" lon="10.484113572385738"><ele>156.0</ele><time>2026-03-28T09:01:00Z</time></trkpt><trkpt lat="45.457103311774866" lon="10.484304842885612"><ele>159.66666666666666</ele><time>2026-03-28T09:01:01Z</time></trkpt><trkpt lat="45.457145498881985" lon="10.484481167458192"><ele>163.33333333333331</ele><time>2026-03-28T09:01:02Z</time></trkpt><trkpt lat="45.45721978403002" lon="10.48468510016222"><ele>167.0</ele><time>2026-03-28T09:01:03Z</time></trkpt><trkpt lat="45.45729488310733" lon="10.484885652791347"><ele>167.0</ele><time>2026-03-28T09:01:04Z</time></trkpt><trkpt lat="45.45733231549119" lon="10.48507422212922"><ele>167.0</ele><time>2026-03-28T09:01:05Z</time></trkpt><trkpt lat="45.45735212549916" lon="10.48527382658662"><ele>167.0</ele><time>2026-03-28T09:01:06Z</time></trkpt><trkpt lat="45.45734554958323" lon="10.485501128264522"><ele>167.0</ele><time>2026-03-28T09:01:07Z</time></trkpt><trkpt lat="45.45734761852443" lon="10.485687689709092"><ele>167.0</ele><time>2026-03-28T09:01:08Z</time></trkpt><trkpt lat="45.457387355892465" lon="10.485865925292211"><ele>167.0</ele><time>2026-03-28T09:01:09Z</time></trkpt><trkpt lat="45.457462679397665" lon="10.486077476867257"><ele>167.0</ele><time>2026-03-28T09:01:10Z</time></trkpt><trkpt lat="45.45755805829371" lon="10.486274199890307"><ele>166.0</ele><time>2026-03-28T09:01:11Z</time></trkpt><trkpt lat="45.45764003990155" lon="10.486436022019022"><ele>165.0</ele><time>2026-03-28T09:01:12Z</time></trkpt><trkpt lat="45.4576899119834" lon="10.486576852649996"><ele>164.0</ele><time>2026-03-28T09:01:13Z</time></trkpt><trkpt lat="45.45771368613573" lon="10.48670301665025"><ele>163.0</ele><time>2026-03-28T09:01:14Z</time></trkpt><trkpt lat="45.457709597466284" lon="10.486840124249193"><ele>162.0</ele><time>2026-03-28T09:01:15Z</time></trkpt><trkpt lat="45.4576533008857" lon="10.486997330619348"><ele>160.75</ele><time>2026-03-28T09:01:16Z</time></trkpt><trkpt lat="45.457606852186274" lon="10.487204165998383"><ele>159.5</ele><time>2026-03-28T09:01:17Z</time></trkpt><trkpt lat="45.457584377812815" lon="10.487384611758076"><ele>158.25</ele><time>2026-03-28T09:01:18Z</time></trkpt><trkpt lat="45.457573445036935" lon="10.487528075877043"><ele>157.0</ele><time>2026-03-28T09:01:19Z</time></trkpt><trkpt lat="45.45759080553799" lon="10.487667590861246"><ele>157.0</ele><time>2026-03-28T09:01:20Z</time></trkpt><trkpt lat="45.45763341907745" lon="10.487803766689236"><ele>157.0</ele><time>2026-03-28T09:01:21Z</time></trkpt><trkpt lat="45.457662669067936" lon="10.487959667945297"><ele>157.0</ele><time>2026-03-28T09:01:22Z</time></trkpt><trkpt lat="45.457710007338086" lon="10.488110982791788"><ele>157.0</ele><time>2026-03-28T09:01:23Z</time></trkpt><trkpt lat="45.457757589408324" lon="10.488256090021144"><ele>157.0</ele><time>2026-03-28T09:01:24Z</time></trkpt><trkpt lat="45.45783007115829" lon="10.48844797525895"><ele>157.0</ele><time>2026-03-28T09:01:25Z</time></trkpt><trkpt lat="45.45792124264216" lon="10.488678316908898"><ele>157.0</ele><time>2026-03-28T09:01:26Z</time></trkpt><trkpt lat="45.45799121655936" lon="10.488868736811636"><ele>157.0</ele><time>2026-03-28T09:01:27Z</time></trkpt><trkpt lat="45.45804383073664" lon="10.489023056942246"><ele>157.8</ele><time>2026-03-28T09:01:28Z</time></trkpt><trkpt lat="45.458081255018236" lon="10.489158098800296"><ele>158.6</ele><time>2026-03-28T09:01:29Z</time></trkpt><trkpt lat="45.45807593831694" lon="10.489296994464194"><ele>159.4</ele><time>2026-03-28T09:01:30Z</time></trkpt><trkpt lat="45.458053136534915" lon="10.489382111718864"><ele>160.20000000000002</ele><time>2026-03-28T09:01:31Z</time></trkpt><trkpt lat="45.457932470772974" lon="10.489497178777398"><ele>161.0</ele><time>2026-03-28T09:01:33Z</time></trkpt><trkpt lat="45.45782040460857" lon="10.489557003534017"><ele>161.60000000000002</ele><time>2026-03-28T09:01:34Z</time></trkpt><trkpt lat="45.457702144187905" lon="10.489630553612674"><ele>162.2</ele><time>2026-03-28T09:01:35Z</time></trkpt><trkpt lat="45.45759646640923" lon="10.489692088890795"><ele>162.8</ele><time>2026-03-28T09:01:36Z</time></trkpt><trkpt lat="45.45750083139381" lon="10.489742525423036"><ele>163.39999999999998</ele><time>2026-03-28T09:01:37Z</time></trkpt><trkpt lat="45.45742584811269" lon="10.489778044409192"><ele>164.0</ele><time>2026-03-28T09:01:38Z</time></trkpt><trkpt lat="45.45735137231546" lon="10.489769492765781"><ele>164.0</ele><time>2026-03-28T09:01:39Z</time></trkpt><trkpt lat="45.45728833667512" lon="10.489758835230951"><ele>164.0</ele><time>2026-03-28T09:01:40Z</time></trkpt><trkpt lat="45.457208179469546" lon="10.48960712924628"><ele>164.0</ele><time>2026-03-28T09:01:41Z</time></trkpt><trkpt lat="45.45713775467865" lon="10.489505255823568"><ele>164.0</ele><time>2026-03-28T09:01:42Z</time></trkpt><trkpt lat="45.457061228192515" lon="10.489401430150059"><ele>164.0</ele><time>2026-03-28T09:01:43Z</time></trkpt><trkpt lat="45.45698498185696" lon="10.489293109702992"><ele>163.2</ele><time>2026-03-28T09:01:44Z</time></trkpt><trkpt lat="45.45690403015646" lon="10.489160386084901"><ele>162.39999999999998</ele><time>2026-03-28T09:01:45Z</time></trkpt><trkpt lat="45.456813203093766" lon="10.488999923264354"><ele>161.6</ele><time>2026-03-28T09:01:46Z</time></trkpt><trkpt lat="45.45676546570895" lon="10.488884892892905"><ele>160.8</ele><time>2026-03-28T09:01:47Z</time></trkpt><trkpt lat="45.45673843574359" lon="10.488795571492743"><ele>160.0</ele><time>2026-03-28T09:01:48Z</time></trkpt><trkpt lat="45.456716607401916" lon="10.488614673807477"><ele>159.8</ele><time>2026-03-28T09:01:50Z</time></trkpt><trkpt lat="45.4566891066769" lon="10.488519339480492"><ele>159.6</ele><time>2026-03-28T09:01:51Z</time></trkpt><trkpt lat="45.45663534899882" lon="10.488410977035016"><ele>159.4</ele><time>2026-03-28T09:01:52Z</time></trkpt><trkpt lat="45.456586809616674" lon="10.488265379748805"><ele>159.2</ele><time>2026-03-28T09:01:53Z</time></trkpt><trkpt lat="45.45651933732116" lon="10.488076391815508"><ele>159.0</ele><time>2026-03-28T09:01:54Z</time></trkpt><trkpt lat="45.45644234658148" lon="10.487869686158163"><ele>158.0</ele><time>2026-03-28T09:01:55Z</time></trkpt><trkpt lat="45.45635021829994" lon="10.487665075788101"><ele>157.0</ele><time>2026-03-28T09:01:56Z</time></trkpt><trkpt lat="45.456278618281466" lon="10.487482246240619"><ele>156.0</ele><time>2026-03-28T09:01:57Z</time></trkpt><trkpt lat="45.45622071762793" lon="10.487357553894162"><ele>155.0</ele><time>2026-03-28T09:01:58Z</time></trkpt><trkpt lat="45.456190570803926" lon="10.487271309378759"><ele>155.0</ele><time>2026-03-28T09:01:59Z</time></trkpt><trkpt lat="45.456148754865666" lon="10.48720143903942"><ele>155.0</ele><time>2026-03-28T09:02:02Z</time></trkpt><trkpt lat="45.45613409230018" lon="10.487348376417643"><ele>155.0</ele><time>2026-03-28T09:02:05Z</time></trkpt><trkpt lat="45.4562157083096" lon="10.487475983005462"><ele>155.0</ele><time>2026-03-28T09:02:06Z</time></trkpt><trkpt lat="45.45630693874241" lon="10.487618488419512"><ele>155.0</ele><time>2026-03-28T09:02:07Z</time></trkpt><trkpt lat="45.45638433982544" lon="10.487789745953929"><ele>156.0</ele><time>2026-03-28T09:02:08Z</time></trkpt><trkpt lat="45.45645243071698" lon="10.487973567790934"><ele>157.0</ele><time>2026-03-28T09:02:09Z</time></trkpt><trkpt lat="45.456508787671105" lon="10.48813245765524"><ele>158.0</ele><time>2026-03-28T09:02:10Z</time></trkpt><trkpt lat="45.45655849586897" lon="10.488268473811122"><ele>159.0</ele><time>2026-03-28T09:02:11Z</time></trkpt><trkpt lat="45.45658926125219" lon="10.488373414617657"><ele>159.0</ele><time>2026-03-28T09:02:12Z</time></trkpt><trkpt lat="45.45661750465288" lon="10.488471999712589"><ele>159.0</ele><time>2026-03-28T09:02:13Z</time></trkpt><trkpt lat="45.45661503181951" lon="10.488569042162577"><ele>159.0</ele><time>2026-03-28T09:02:14Z</time></trkpt><trkpt lat="45.4566058627966" lon="10.488665891548216"><ele>159.0</ele><time>2026-03-28T09:02:15Z</time></trkpt><trkpt lat="45.45669005614888" lon="10.488723848915285"><ele>159.0</ele><time>2026-03-28T09:02:17Z</time></trkpt><trkpt lat="45.45675576660815" lon="10.488541679610433"><ele>159.0</ele><time>2026-03-28T09:02:19Z</time></trkpt><trkpt lat="45.45675238669256" lon="10.488386507125025"><ele>159.0</ele><time>2026-03-28T09:02:20Z</time></trkpt><trkpt lat="45.45676233167739" lon="10.488147724625467"><ele>159.0</ele><time>2026-03-28T09:02:21Z</time></trkpt><trkpt lat="45.456797819841405" lon="10.48782488166581"><ele>159.0</ele><time>2026-03-28T09:02:22Z</time></trkpt><trkpt lat="45.45682386550435" lon="10.487543737500735"><ele>158.33333333333334</ele><time>2026-03-28T09:02:23Z</time></trkpt><trkpt lat="45.45683439391591" lon="10.487368637489666"><ele>157.66666666666666</ele><time>2026-03-28T09:02:24Z</time></trkpt><trkpt lat="45.45684108177704" lon="10.48725865072759"><ele>157.0</ele><time>2026-03-28T09:02:25Z</time></trkpt><trkpt lat="45.45684019342501" lon="10.487140446516593"><ele>156.33333333333331</ele><time>2026-03-28T09:02:27Z</time></trkpt><trkpt lat="45.456829104089444" lon="10.487051312842338"><ele>155.66666666666666</ele><time>2026-03-28T09:02:29Z</time></trkpt><trkpt lat="45.45683873209612" lon="10.4869100757444"><ele>155.0</ele><time>2026-03-28T09:02:30Z</time></trkpt><trkpt lat="45.45684206404416" lon="10.486748862179306"><ele>155.0</ele><time>2026-03-28T09:02:31Z</time></trkpt><trkpt lat="45.45684258764689" lon="10.486582876676517"><ele>155.0</ele><time>2026-03-28T09:02:32Z</time></trkpt><trkpt lat="45.4568452330081" lon="10.486407160640027"><ele>155.0</ele><time>2026-03-28T09:02:33Z</time></trkpt><trkpt lat="45.45685414910071" lon="10.486206377956613"><ele>155.0</ele><time>2026-03-28T09:02:34Z</time></trkpt><trkpt lat="45.456857936663866" lon="10.485969891158772"><ele>155.0</ele><time>2026-03-28T09:02:35Z</time></trkpt><trkpt lat="45.45685872885415" lon="10.485709688250768"><ele>155.0</ele><time>2026-03-28T09:02:36Z</time></trkpt><trkpt lat="45.456846501442" lon="10.485446597129776"><ele>155.0</ele><time>2026-03-28T09:02:37Z</time></trkpt><trkpt lat="45.456823196630445" lon="10.485183774467853"><ele>155.0</ele><time>2026-03-28T09:02:38Z</time></trkpt><trkpt lat="45.45679594089924" lon="10.484924225488479"><ele>155.0</ele><time>2026-03-28T09:02:39Z</time></trkpt><trkpt lat="45.45677245264785" lon="10.48467388811031"><ele>155.0</ele><time>2026-03-28T09:02:40Z</time></trkpt><trkpt lat="45.45674867535232" lon="10.484453360430818"><ele>155.25</ele><time>2026-03-28T09:02:41Z</time></trkpt><trkpt lat="45.45671489547979" lon="10.484239075392566"><ele>155.5</ele><time>2026-03-28T09:02:42Z</time></trkpt><trkpt lat="45.456679837380435" lon="10.484043910564797"><ele>155.75</ele><time>2026-03-28T09:02:43Z</time></trkpt><trkpt lat="45.45663860213462" lon="10.483877750319353"><ele>156.0</ele><time>2026-03-28T09:02:44Z</time></trkpt><trkpt lat="45.45657908417411" lon="10.48370810747226"><ele>156.33333333333334</ele><time>2026-03-28T09:02:45Z</time></trkpt><trkpt lat="45.45649957615668" lon="10.483535403533454"><ele>156.66666666666669</ele><time>2026-03-28T09:02:46Z</time></trkpt><trkpt lat="45.4564023714488" lon="10.483365136030274"><ele>157.0</ele><time>2026-03-28T09:02:47Z</time></trkpt><trkpt lat="45.456305173093824" lon="10.4832007633565"><ele>156.0</ele><time>2026-03-28T09:02:48Z</time></trkpt><trkpt lat="45.45620001692587" lon="10.483035206799448"><ele>155.0</ele><time>2026-03-28T09:02:49Z</time></trkpt><trkpt lat="45.45608395392135" lon="10.482867155965964"><ele>154.0</ele><time>2026-03-28T09:02:50Z</time></trkpt><trkpt lat="45.45596576364268" lon="10.482698708076189"><ele>153.66666666666669</ele><time>2026-03-28T09:02:51Z</time></trkpt><trkpt lat="45.45586161087249" lon="10.482531023322078"><ele>153.33333333333334</ele><time>2026-03-28T09:02:52Z</time></trkpt><trkpt lat="45.45575592547296" lon="10.482370316734947"><ele>153.0</ele><time>2026-03-28T09:02:53Z</time></trkpt><trkpt lat="45.45565754775403" lon="10.482212420284274"><ele>153.66666666666666</ele><time>2026-03-28T09:02:54Z</time></trkpt><trkpt lat="45.45555640293026" lon="10.482055807398595"><ele>154.33333333333331</ele><time>2026-03-28T09:02:55Z</time></trkpt><trkpt lat="45.455448964502494" lon="10.481897821751279"><ele>155.0</ele><time>2026-03-28T09:02:56Z</time></trkpt><trkpt lat="45.45533317735804" lon="10.481737546043595"><ele>153.66666666666666</ele><time>2026-03-28T09:02:57Z</time></trkpt><trkpt lat="45.45521497937117" lon="10.481578836496965"><ele>152.33333333333334</ele><time>2026-03-28T09:02:58Z</time></trkpt><trkpt lat="45.455102178856436" lon="10.481431211839217"><ele>151.0</ele><time>2026-03-28T09:02:59Z</time></trkpt><trkpt lat="45.45499264227394" lon="10.481284416409665"><ele>151.33333333333334</ele><time>2026-03-28T09:03:00Z</time></trkpt><trkpt lat="45.454883176695176" lon="10.481135588249087"><ele>151.66666666666666</ele><time>2026-03-28T09:03:01Z</time></trkpt><trkpt lat="45.454771995546714" lon="10.480990621983768"><ele>152.0</ele><time>2026-03-28T09:03:02Z</time></trkpt><trkpt lat="45.45466970874371" lon="10.480822951278055"><ele>151.33333333333331</ele><time>2026-03-28T09:03:03Z</time></trkpt><trkpt lat="45.45455632594321" lon="10.480657548916444"><ele>150.66666666666666</ele><time>2026-03-28T09:03:04Z</time></trkpt><trkpt lat="45.454440527366444" lon="10.480468926232549"><ele>150.0</ele><time>2026-03-28T09:03:05Z</time></trkpt><trkpt lat="45.45431304210191" lon="10.480234078728333"><ele>150.0</ele><time>2026-03-28T09:03:06Z</time></trkpt><trkpt lat="45.45418957007523" lon="10.479994889560063"><ele>150.0</ele><time>2026-03-28T09:03:07Z</time></trkpt><trkpt lat="45.45406931804286" lon="10.479763446198133"><ele>150.0</ele><time>2026-03-28T09:03:08Z</time></trkpt><trkpt lat="45.45394493204072" lon="10.479546364850725"><ele>150.66666666666666</ele><time>2026-03-28T09:03:09Z</time></trkpt><trkpt lat="45.45382499238033" lon="10.47930921205212"><ele>151.33333333333331</ele><time>2026-03-28T09:03:10Z</time></trkpt><trkpt lat="45.45369156660361" lon="10.479068791047803"><ele>152.0</ele><time>2026-03-28T09:03:11Z</time></trkpt><trkpt lat="45.45356116178731" lon="10.47881658834082"><ele>150.5</ele><time>2026-03-28T09:03:12Z</time></trkpt><trkpt lat="45.453429114205925" lon="10.478559778607597"><ele>149.0</ele><time>2026-03-28T09:03:13Z</time></trkpt><trkpt lat="45.45329558359425" lon="10.478291441717609"><ele>149.0</ele><time>2026-03-28T09:03:14Z</time></trkpt><trkpt lat="45.45315463212608" lon="10.478012793344295"><ele>149.0</ele><time>2026-03-28T09:03:15Z</time></trkpt><trkpt lat="45.4530023860532" lon="10.477733155869926"><ele>148.0</ele><time>2026-03-28T09:03:16Z</time></trkpt><trkpt lat="45.45284699438249" lon="10.477448467829928"><ele>147.0</ele><time>2026-03-28T09:03:17Z</time></trkpt><trkpt lat="45.452690390098944" lon="10.477165462930039"><ele>148.0</ele><time>2026-03-28T09:03:18Z</time></trkpt><trkpt lat="45.45252957207161" lon="10.476883611751543"><ele>149.0</ele><time>2026-03-28T09:03:19Z</time></trkpt><trkpt lat="45.452357684748875" lon="10.476605419301276"><ele>149.0</ele><time>2026-03-28T09:03:20Z</time></trkpt><trkpt lat="45.45219451828127" lon="10.476320236202483"><ele>149.0</ele><time>2026-03-28T09:03:21Z</time></trkpt><trkpt lat="45.45201046075573" lon="10.476054493441945"><ele>145.5</ele><time>2026-03-28T09:03:22Z</time></trkpt><trkpt lat="45.45182404891126" lon="10.475802778223175"><ele>142.0</ele><time>2026-03-28T09:03:23Z</time></trkpt><trkpt lat="45.451638192734926" lon="10.475568108211817"><ele>143.0</ele><time>2026-03-28T09:03:24Z</time></trkpt><trkpt lat="45.4514557429148" lon="10.475341228321536"><ele>144.0</ele><time>2026-03-28T09:03:25Z</time></trkpt><trkpt lat="45.451275579711385" lon="10.475141252336"><ele>143.0</ele><time>2026-03-28T09:03:26Z</time></trkpt><trkpt lat="45.451119563608174" lon="10.474933378921905"><ele>142.0</ele><time>2026-03-28T09:03:27Z</time></trkpt><trkpt lat="45.4509655800784" lon="10.474733117700586"><ele>141.0</ele><time>2026-03-28T09:03:28Z</time></trkpt><trkpt lat="45.450817800031686" lon="10.474534603576226"><ele>141.0</ele><time>2026-03-28T09:03:29Z</time></trkpt><trkpt lat="45.450683546937455" lon="10.474324272783909"><ele>141.0</ele><time>2026-03-28T09:03:30Z</time></trkpt><trkpt lat="45.450566698128526" lon="10.47411207518023"><ele>141.0</ele><time>2026-03-28T09:03:31Z</time></trkpt><trkpt lat="45.45045735495026" lon="10.473891495390163"><ele>140.0</ele><time>2026-03-28T09:03:32Z</time></trkpt><trkpt lat="45.450359960285475" lon="10.473671196902256"><ele>139.0</ele><time>2026-03-28T09:03:33Z</time></trkpt><trkpt lat="45.450281844118756" lon="10.473423835040967"><ele>138.0</ele><time>2026-03-28T09:03:34Z</time></trkpt><trkpt lat="45.45019463162372" lon="10.47318975681528"><ele>138.0</ele><time>2026-03-28T09:03:35Z</time></trkpt><trkpt lat="45.45010208452733" lon="10.472974880165463"><ele>138.0</ele><time>2026-03-28T09:03:36Z</time></trkpt><trkpt lat="45.4500232751867" lon="10.47274804994046"><ele>138.0</ele><time>2026-03-28T09:03:37Z</time></trkpt><trkpt lat="45.44993540657247" lon="10.472516858974767"><ele>138.66666666666666</ele><time>2026-03-28T09:03:38Z</time></trkpt><trkpt lat="45.449853545654065" lon="10.472294338585648"><ele>139.33333333333331</ele><time>2026-03-28T09:03:39Z</time></trkpt><trkpt lat="45.44978280386598" lon="10.47205321577758"><ele>140.0</ele><time>2026-03-28T09:03:40Z</time></trkpt><trkpt lat="45.44968538039375" lon="10.471836098524598"><ele>139.75</ele><time>2026-03-28T09:03:41Z</time></trkpt><trkpt lat="45.449611714921055" lon="10.471633623872334"><ele>139.5</ele><time>2026-03-28T09:03:42Z</time></trkpt><trkpt lat="45.44954564336337" lon="10.471455094633594"><ele>139.25</ele><time>2026-03-28T09:03:43Z</time></trkpt><trkpt lat="45.44948743191943" lon="10.47129338753453"><ele>139.0</ele><time>2026-03-28T09:03:44Z</time></trkpt><trkpt lat="45.449433302540974" lon="10.471140587652316"><ele>139.0</ele><time>2026-03-28T09:03:45Z</time></trkpt><trkpt lat="45.449384295990356" lon="10.47100183275399"><ele>139.0</ele><time>2026-03-28T09:03:46Z</time></trkpt><trkpt lat="45.44934037200676" lon="10.470867629184673"><ele>139.0</ele><time>2026-03-28T09:03:47Z</time></trkpt><trkpt lat="45.44928187556012" lon="10.470700904480749"><ele>139.0</ele><time>2026-03-28T09:03:48Z</time></trkpt><trkpt lat="45.44921127127566" lon="10.470510093494232"><ele>139.0</ele><time>2026-03-28T09:03:49Z</time></trkpt><trkpt lat="45.44913320864812" lon="10.470293221347129"><ele>139.0</ele><time>2026-03-28T09:03:50Z</time></trkpt><trkpt lat="45.44904632754016" lon="10.470054658746449"><ele>139.0</ele><time>2026-03-28T09:03:51Z</time></trkpt><trkpt lat="45.44896756746302" lon="10.469839514954117"><ele>139.0</ele><time>2026-03-28T09:03:52Z</time></trkpt><trkpt lat="45.44889492233254" lon="10.469651260053892"><ele>139.0</ele><time>2026-03-28T09:03:53Z</time></trkpt><trkpt lat="45.44882774684088" lon="10.469479741924522"><ele>139.0</ele><time>2026-03-28T09:03:54Z</time></trkpt><trkpt lat="45.44876570135838" lon="10.469320571518878"><ele>139.0</ele><time>2026-03-28T09:03:55Z</time></trkpt><trkpt lat="45.44871319645122" lon="10.469186990934732"><ele>138.83333333333334</ele><time>2026-03-28T09:03:56Z</time></trkpt><trkpt lat="45.44865064424022" lon="10.469097057566376"><ele>138.66666666666669</ele><time>2026-03-28T09:03:57Z</time></trkpt><trkpt lat="45.44855355295327" lon="10.469037687868314"><ele>138.5</ele><time>2026-03-28T09:03:58Z</time></trkpt><trkpt lat="45.44845823192627" lon="10.469018197573343"><ele>138.33333333333334</ele><time>2026-03-28T09:03:59Z</time></trkpt><trkpt lat="45.44839054032323" lon="10.469006352952144"><ele>138.16666666666666</ele><time>2026-03-28T09:04:00Z</time></trkpt><trkpt lat="45.4483082632223" lon="10.468975879047898"><ele>138.0</ele><time>2026-03-28T09:04:02Z</time></trkpt><trkpt lat="45.44822658147157" lon="10.468955671889802"><ele>138.0</ele><time>2026-03-28T09:04:39Z</time></trkpt><trkpt lat="45.448133171982434" lon="10.468926742975722"><ele>138.0</ele><time>2026-03-28T09:04:41Z</time></trkpt><trkpt lat="45.4480388279916" lon="10.468894099663594"><ele>138.0</ele><time>2026-03-28T09:04:42Z</time></trkpt><trkpt lat="45.447923236218756" lon="10.468859773680256"><ele>138.0</ele><time>2026-03-28T09:04:43Z</time></trkpt><trkpt lat="45.447790462569024" lon="10.46881627634023"><ele>138.0</ele><time>2026-03-28T09:04:44Z</time></trkpt><trkpt lat="45.447668327698395" lon="10.46876848209197"><ele>136.0</ele><time>2026-03-28T09:04:45Z</time></trkpt><trkpt lat="45.447361905274505" lon="10.46862663483571"><ele>134.0</ele><time>2026-03-28T09:04:47Z</time></trkpt><trkpt lat="45.44721403079994" lon="10.468550050835477"><ele>133.75</ele><time>2026-03-28T09:04:48Z</time></trkpt><trkpt lat="45.447084358821094" lon="10.468474754585475"><ele>133.5</ele><time>2026-03-28T09:04:49Z</time></trkpt><trkpt lat="45.44695065898371" lon="10.468415110824044"><ele>133.25</ele><time>2026-03-28T09:04:50Z</time></trkpt><trkpt lat="45.44680111649061" lon="10.468357959272243"><ele>133.0</ele><time>2026-03-28T09:04:51Z</time></trkpt><trkpt lat="45.446657143320614" lon="10.46834624105483"><ele>133.0</ele><time>2026-03-28T09:04:52Z</time></trkpt><trkpt lat="45.44649511186648" lon="10.468355253786617"><ele>133.0</ele><time>2026-03-28T09:04:53Z</time></trkpt><trkpt lat="45.446318604821364" lon="10.468330958915512"><ele>133.0</ele><time>2026-03-28T09:04:54Z</time></trkpt><trkpt lat="45.44612784585193" lon="10.4683062231984"><ele>133.0</ele><time>2026-03-28T09:04:55Z</time></trkpt><trkpt lat="45.44589898570753" lon="10.468276603293775"><ele>133.0</ele><time>2026-03-28T09:04:56Z</time></trkpt><trkpt lat="45.44568943303159" lon="10.468238972470935"><ele>133.0</ele><time>2026-03-28T09:04:57Z</time></trkpt><trkpt lat="45.445515193555735" lon="10.46817937757989"><ele>132.33333333333334</ele><time>2026-03-28T09:04:58Z</time></trkpt><trkpt lat="45.44534534369802" lon="10.468173471543857"><ele>131.66666666666666</ele><time>2026-03-28T09:04:59Z</time></trkpt><trkpt lat="45.44517049699217" lon="10.468144719379564"><ele>131.0</ele><time>2026-03-28T09:05:00Z</time></trkpt><trkpt lat="45.44495600678979" lon="10.468156649426708"><ele>131.0</ele><time>2026-03-28T09:05:01Z</time></trkpt><trkpt lat="45.44473672198608" lon="10.4681732392397"><ele>131.0</ele><time>2026-03-28T09:05:02Z</time></trkpt><trkpt lat="45.44455842676026" lon="10.46815692684475"><ele>131.0</ele><time>2026-03-28T09:05:03Z</time></trkpt><trkpt lat="45.44440086146876" lon="10.46816185311193"><ele>131.33333333333331</ele><time>2026-03-28T09:05:04Z</time></trkpt><trkpt lat="45.44424786959053" lon="10.468174586519586"><ele>131.66666666666666</ele><time>2026-03-28T09:05:05Z</time></trkpt><trkpt lat="45.44409941645491" lon="10.46816726332578"><ele>132.0</ele><time>2026-03-28T09:05:06Z</time></trkpt><trkpt lat="45.4439258915137" lon="10.468181740456806"><ele>132.0</ele><time>2026-03-28T09:05:07Z</time></trkpt><trkpt lat="45.44375565525877" lon="10.468192945944176"><ele>132.0</ele><time>2026-03-28T09:05:08Z</time></trkpt><trkpt lat="45.44361102184207" lon="10.468233376675865"><ele>132.0</ele><time>2026-03-28T09:05:09Z</time></trkpt><trkpt lat="45.44348019377138" lon="10.468272832775646"><ele>132.0</ele><time>2026-03-28T09:05:10Z</time></trkpt><trkpt lat="45.44336147474959" lon="10.468310027233406"><ele>132.0</ele><time>2026-03-28T09:05:11Z</time></trkpt><trkpt lat="45.44324200863855" lon="10.468331280033354"><ele>132.0</ele><time>2026-03-28T09:05:12Z</time></trkpt><trkpt lat="45.443132928973554" lon="10.468327066087122"><ele>132.0</ele><time>2026-03-28T09:05:13Z</time></trkpt><trkpt lat="45.44300125228168" lon="10.468313710490335"><ele>131.66666666666666</ele><time>2026-03-28T09:05:14Z</time></trkpt><trkpt lat="45.44285373454782" lon="10.468277000013591"><ele>131.33333333333331</ele><time>2026-03-28T09:05:15Z</time></trkpt><trkpt lat="45.44270373706212" lon="10.46824936300396"><ele>131.0</ele><time>2026-03-28T09:05:16Z</time></trkpt><trkpt lat="45.44255079428574" lon="10.468224873491614"><ele>131.0</ele><time>2026-03-28T09:05:17Z</time></trkpt><trkpt lat="45.442404218299316" lon="10.46820550464591"><ele>131.0</ele><time>2026-03-28T09:05:18Z</time></trkpt><trkpt lat="45.442268032215964" lon="10.468185153861722"><ele>131.0</ele><time>2026-03-28T09:05:19Z</time></trkpt><trkpt lat="45.44213079433317" lon="10.468166065060256"><ele>131.0</ele><time>2026-03-28T09:05:20Z</time></trkpt><trkpt lat="45.44198653548598" lon="10.46814284709789"><ele>130.8</ele><time>2026-03-28T09:05:21Z</time></trkpt><trkpt lat="45.44186068066896" lon="10.468108551717515"><ele>130.6</ele><time>2026-03-28T09:05:22Z</time></trkpt><trkpt lat="45.44176192224145" lon="10.468057095438633"><ele>130.4</ele><time>2026-03-28T09:05:23Z</time></trkpt><trkpt lat="45.4416946668837" lon="10.468017441771234"><ele>130.2</ele><time>2026-03-28T09:05:24Z</time></trkpt><trkpt lat="45.441564206137414" lon="10.467954025156427"><ele>130.0</ele><time>2026-03-28T09:05:25Z</time></trkpt><trkpt lat="45.44140062661689" lon="10.467815335365284"><ele>129.33333333333334</ele><time>2026-03-28T09:05:26Z</time></trkpt><trkpt lat="45.441250442284506" lon="10.467709674776126"><ele>128.66666666666666</ele><time>2026-03-28T09:05:27Z</time></trkpt><trkpt lat="45.44109934898423" lon="10.467625315036173"><ele>128.0</ele><time>2026-03-28T09:05:28Z</time></trkpt><trkpt lat="45.44097301385114" lon="10.467519880999248"><ele>128.0</ele><time>2026-03-28T09:05:29Z</time></trkpt><trkpt lat="45.44084924971694" lon="10.467421582434248"><ele>128.0</ele><time>2026-03-28T09:05:30Z</time></trkpt><trkpt lat="45.44071950739959" lon="10.46731040856782"><ele>128.0</ele><time>2026-03-28T09:05:31Z</time></trkpt><trkpt lat="45.44058299782127" lon="10.467202021919304"><ele>128.0</ele><time>2026-03-28T09:05:32Z</time></trkpt><trkpt lat="45.440448277061265" lon="10.467094251968392"><ele>127.5</ele><time>2026-03-28T09:05:33Z</time></trkpt><trkpt lat="45.44031539158601" lon="10.467000552006557"><ele>127.0</ele><time>2026-03-28T09:05:34Z</time></trkpt><trkpt lat="45.440195755484915" lon="10.46689537914256"><ele>126.5</ele><time>2026-03-28T09:05:35Z</time></trkpt><trkpt lat="45.440053049636916" lon="10.466812230425928"><ele>126.0</ele><time>2026-03-28T09:05:36Z</time></trkpt><trkpt lat="45.439912572479535" lon="10.466747138765491"><ele>126.0</ele><time>2026-03-28T09:05:37Z</time></trkpt><trkpt lat="45.43976072012788" lon="10.46668880370843"><ele>126.0</ele><time>2026-03-28T09:05:38Z</time></trkpt><trkpt lat="45.43959241272188" lon="10.466628765748425"><ele>126.0</ele><time>2026-03-28T09:05:39Z</time></trkpt><trkpt lat="45.4394079896125" lon="10.466591759271326"><ele>126.0</ele><time>2026-03-28T09:05:40Z</time></trkpt><trkpt lat="45.43922926550015" lon="10.466534925401112"><ele>126.0</ele><time>2026-03-28T09:05:41Z</time></trkpt><trkpt lat="45.43904521864542" lon="10.466480555585902"><ele>126.0</ele><time>2026-03-28T09:05:42Z</time></trkpt><trkpt lat="45.43888259158692" lon="10.466413991250318"><ele>126.0</ele><time>2026-03-28T09:05:43Z</time></trkpt><trkpt lat="45.438739844760114" lon="10.46637663580683"><ele>126.0</ele><time>2026-03-28T09:05:44Z</time></trkpt><trkpt lat="45.43860043407508" lon="10.466340339333838"><ele>126.0</ele><time>2026-03-28T09:05:45Z</time></trkpt><trkpt lat="45.43846499925519" lon="10.466290740668855"><ele>126.0</ele><time>2026-03-28T09:05:46Z</time></trkpt><trkpt lat="45.43834456986904" lon="10.4662250483963"><ele>126.25</ele><time>2026-03-28T09:05:47Z</time></trkpt><trkpt lat="45.438227283343664" lon="10.466126191478791"><ele>126.5</ele><time>2026-03-28T09:05:48Z</time></trkpt><trkpt lat="45.43809669192944" lon="10.466027773442592"><ele>126.75</ele><time>2026-03-28T09:05:49Z</time></trkpt><trkpt lat="45.437970286832964" lon="10.465926036269638"><ele>127.0</ele><time>2026-03-28T09:05:50Z</time></trkpt><trkpt lat="45.437844000439604" lon="10.465822701942843"><ele>126.0</ele><time>2026-03-28T09:05:51Z</time></trkpt><trkpt lat="45.437708752174046" lon="10.465708141989614"><ele>125.0</ele><time>2026-03-28T09:05:52Z</time></trkpt><trkpt lat="45.43758670971076" lon="10.465602701602604"><ele>124.0</ele><time>2026-03-28T09:05:53Z</time></trkpt><trkpt lat="45.43745773574266" lon="10.465489659685883"><ele>124.0</ele><time>2026-03-28T09:05:54Z</time></trkpt><trkpt lat="45.43733192708922" lon="10.465390731859326"><ele>124.0</ele><time>2026-03-28T09:05:55Z</time></trkpt><trkpt lat="45.43720526618081" lon="10.465307774634692"><ele>124.0</ele><time>2026-03-28T09:05:56Z</time></trkpt><trkpt lat="45.43707260091352" lon="10.46522881378577"><ele>124.0</ele><time>2026-03-28T09:05:57Z</time></trkpt><trkpt lat="45.436828228927226" lon="10.465122602562182"><ele>124.0</ele><time>2026-03-28T09:05:59Z</time></trkpt><trkpt lat="45.4367169083779" lon="10.465065992759184"><ele>124.0</ele><time>2026-03-28T09:06:00Z</time></trkpt><trkpt lat="45.43661753978745" lon="10.465014852106492"><ele>124.0</ele><time>2026-03-28T09:06:01Z</time></trkpt><trkpt lat="45.436552292882205" lon="10.46498982946688"><ele>124.0</ele><time>2026-03-28T09:06:02Z</time></trkpt><trkpt lat="45.436483927374546" lon="10.46493597456859"><ele>124.0</ele><time>2026-03-28T09:06:04Z</time></trkpt><trkpt lat="45.43638735901181" lon="10.465132399336854"><ele>124.0</ele><time>2026-03-28T09:06:06Z</time></trkpt><trkpt lat="45.436385109616474" lon="10.465262190297455"><ele>124.0</ele><time>2026-03-28T09:06:07Z</time></trkpt><trkpt lat="45.43636904867771" lon="10.46541922630646"><ele>124.0</ele><time>2026-03-28T09:06:08Z</time></trkpt><trkpt lat="45.43636469840488" lon="10.465615215934564"><ele>124.0</ele><time>2026-03-28T09:06:09Z</time></trkpt><trkpt lat="45.43633465886807" lon="10.465828748293209"><ele>124.25</ele><time>2026-03-28T09:06:10Z</time></trkpt><trkpt lat="45.43633017928091" lon="10.466047566335599"><ele>124.5</ele><time>2026-03-28T09:06:11Z</time></trkpt><trkpt lat="45.436349492179446" lon="10.46625696382992"><ele>124.75</ele><time>2026-03-28T09:06:12Z</time></trkpt><trkpt lat="45.436360689924186" lon="10.466445404950628"><ele>125.0</ele><time>2026-03-28T09:06:13Z</time></trkpt><trkpt lat="45.4363699819562" lon="10.466671787109759"><ele>125.0</ele><time>2026-03-28T09:06:14Z</time></trkpt><trkpt lat="45.436374010424075" lon="10.466924655251901"><ele>125.0</ele><time>2026-03-28T09:06:15Z</time></trkpt><trkpt lat="45.43635461444182" lon="10.467125909322016"><ele>125.0</ele><time>2026-03-28T09:06:16Z</time></trkpt><trkpt lat="45.43634910963512" lon="10.467310331518282"><ele>125.0</ele><time>2026-03-28T09:06:17Z</time></trkpt><trkpt lat="45.43635464188541" lon="10.46749073486511"><ele>125.0</ele><time>2026-03-28T09:06:18Z</time></trkpt><trkpt lat="45.43634882061614" lon="10.467709183187473"><ele>125.0</ele><time>2026-03-28T09:06:19Z</time></trkpt><trkpt lat="45.436342444113116" lon="10.467943521893147"><ele>125.0</ele><time>2026-03-28T09:06:20Z</time></trkpt><trkpt lat="45.436340649241615" lon="10.468192566121523"><ele>125.0</ele><time>2026-03-28T09:06:21Z</time></trkpt><trkpt lat="45.43633291284855" lon="10.468410204854344"><ele>125.0</ele><time>2026-03-28T09:06:22Z</time></trkpt><trkpt lat="45.436329254852836" lon="10.468629918522229"><ele>125.0</ele><time>2026-03-28T09:06:23Z</time></trkpt><trkpt lat="45.43632847331552" lon="10.468855957068634"><ele>125.33333333333333</ele><time>2026-03-28T09:06:24Z</time></trkpt><trkpt lat="45.43632734060352" lon="10.469092556315248"><ele>125.66666666666666</ele><time>2026-03-28T09:06:25Z</time></trkpt><trkpt lat="45.43632719629452" lon="10.469340137093514"><ele>126.0</ele><time>2026-03-28T09:06:26Z</time></trkpt><trkpt lat="45.43633130042569" lon="10.469564886061299"><ele>126.66666666666666</ele><time>2026-03-28T09:06:27Z</time></trkpt><trkpt lat="45.43633753620825" lon="10.469783859107768"><ele>127.33333333333333</ele><time>2026-03-28T09:06:28Z</time></trkpt><trkpt lat="45.436344051603925" lon="10.470009222371345"><ele>128.0</ele><time>2026-03-28T09:06:29Z</time></trkpt><trkpt lat="45.43635136195907" lon="10.470220156011969"><ele>127.66666666666666</ele><time>2026-03-28T09:06:30Z</time></trkpt><trkpt lat="45.43635759702521" lon="10.470465285649647"><ele>127.33333333333334</ele><time>2026-03-28T09:06:31Z</time></trkpt><trkpt lat="45.43635038667118" lon="10.470711674025695"><ele>127.0</ele><time>2026-03-28T09:06:32Z</time></trkpt><trkpt lat="45.43634481313117" lon="10.470965208244332"><ele>127.0</ele><time>2026-03-28T09:06:33Z</time></trkpt><trkpt lat="45.436342466068695" lon="10.47120555546775"><ele>127.0</ele><time>2026-03-28T09:06:34Z</time></trkpt><trkpt lat="45.43633880805662" lon="10.47142844532341"><ele>127.0</ele><time>2026-03-28T09:06:35Z</time></trkpt><trkpt lat="45.436333731904476" lon="10.471650616992227"><ele>127.0</ele><time>2026-03-28T09:06:36Z</time></trkpt><trkpt lat="45.43633501387891" lon="10.471884311862205"><ele>127.0</ele><time>2026-03-28T09:06:37Z</time></trkpt><trkpt lat="45.43633574739583" lon="10.472133150407691"><ele>127.0</ele><time>2026-03-28T09:06:38Z</time></trkpt><trkpt lat="45.436337632733476" lon="10.472387412301492"><ele>127.0</ele><time>2026-03-28T09:06:39Z</time></trkpt><trkpt lat="45.4363479201166" lon="10.472625733639584"><ele>127.0</ele><time>2026-03-28T09:06:40Z</time></trkpt><trkpt lat="45.43636285813539" lon="10.472845796967048"><ele>127.0</ele><time>2026-03-28T09:06:41Z</time></trkpt><trkpt lat="45.43637583356309" lon="10.473075570572483"><ele>127.0</ele><time>2026-03-28T09:06:42Z</time></trkpt><trkpt lat="45.43639650960619" lon="10.473316143071232"><ele>127.0</ele><time>2026-03-28T09:06:43Z</time></trkpt><trkpt lat="45.436423231536544" lon="10.47354814887971"><ele>127.0</ele><time>2026-03-28T09:06:44Z</time></trkpt><trkpt lat="45.436451458050904" lon="10.473794464864593"><ele>127.0</ele><time>2026-03-28T09:06:45Z</time></trkpt><trkpt lat="45.43647365432161" lon="10.47406937509118"><ele>127.0</ele><time>2026-03-28T09:06:46Z</time></trkpt><trkpt lat="45.436493344040834" lon="10.474298769227232"><ele>127.0</ele><time>2026-03-28T09:06:47Z</time></trkpt><trkpt lat="45.43651293483825" lon="10.47451519368769"><ele>127.33333333333334</ele><time>2026-03-28T09:06:48Z</time></trkpt><trkpt lat="45.43651798674066" lon="10.474734018647865"><ele>127.66666666666666</ele><time>2026-03-28T09:06:49Z</time></trkpt><trkpt lat="45.43654291247704" lon="10.474982046263133"><ele>128.0</ele><time>2026-03-28T09:06:50Z</time></trkpt><trkpt lat="45.43656861581318" lon="10.475237811545124"><ele>128.0</ele><time>2026-03-28T09:06:51Z</time></trkpt><trkpt lat="45.43659911272643" lon="10.475484523691764"><ele>128.0</ele><time>2026-03-28T09:06:52Z</time></trkpt><trkpt lat="45.43664481543441" lon="10.47572029607083"><ele>128.0</ele><time>2026-03-28T09:06:53Z</time></trkpt><trkpt lat="45.43666954597175" lon="10.475937628284216"><ele>128.0</ele><time>2026-03-28T09:06:54Z</time></trkpt><trkpt lat="45.436701063951254" lon="10.47616677141072"><ele>128.0</ele><time>2026-03-28T09:06:55Z</time></trkpt><trkpt lat="45.43673404400778" lon="10.476401306469189"><ele>128.0</ele><time>2026-03-28T09:06:56Z</time></trkpt><trkpt lat="45.436761237886955" lon="10.476624627877074"><ele>128.0</ele><time>2026-03-28T09:06:57Z</time></trkpt><trkpt lat="45.436785596252086" lon="10.47680119455916"><ele>128.0</ele><time>2026-03-28T09:06:58Z</time></trkpt><trkpt lat="45.43680703369635" lon="10.476975171894514"><ele>128.0</ele><time>2026-03-28T09:06:59Z</time></trkpt><trkpt lat="45.436814593584955" lon="10.477124470772718"><ele>128.0</ele><time>2026-03-28T09:07:00Z</time></trkpt><trkpt lat="45.436846490160114" lon="10.477264826905971"><ele>128.20000000000002</ele><time>2026-03-28T09:07:01Z</time></trkpt><trkpt lat="45.43683991835501" lon="10.477390120790025"><ele>128.4</ele><time>2026-03-28T09:07:02Z</time></trkpt><trkpt lat="45.436841526452085" lon="10.477480999226083"><ele>128.60000000000002</ele><time>2026-03-28T09:07:03Z</time></trkpt><trkpt lat="45.43696999220077" lon="10.477518124665746"><ele>128.8</ele><time>2026-03-28T09:07:06Z</time></trkpt><trkpt lat="45.43710243606733" lon="10.477523927039023"><ele>129.0</ele><time>2026-03-28T09:07:07Z</time></trkpt><trkpt lat="45.43727251963341" lon="10.477530296466297"><ele>129.0</ele><time>2026-03-28T09:07:08Z</time></trkpt><trkpt lat="45.43747601683044" lon="10.477582810720234"><ele>129.0</ele><time>2026-03-28T09:07:09Z</time></trkpt><trkpt lat="45.437727603866065" lon="10.477612712659239"><ele>129.5</ele><time>2026-03-28T09:07:10Z</time></trkpt><trkpt lat="45.43799694323048" lon="10.477639389928953"><ele>130.0</ele><time>2026-03-28T09:07:11Z</time></trkpt><trkpt lat="45.43823601517212" lon="10.477639698292679"><ele>130.0</ele><time>2026-03-28T09:07:12Z</time></trkpt><trkpt lat="45.438479783279746" lon="10.477666176702382"><ele>130.0</ele><time>2026-03-28T09:07:13Z</time></trkpt><trkpt lat="45.43872656690302" lon="10.477705739349105"><ele>130.0</ele><time>2026-03-28T09:07:14Z</time></trkpt><trkpt lat="45.4389762296076" lon="10.477766138350825"><ele>130.0</ele><time>2026-03-28T09:07:15Z</time></trkpt><trkpt lat="45.43923449211524" lon="10.477836706412553"><ele>130.0</ele><time>2026-03-28T09:07:16Z</time></trkpt><trkpt lat="45.43950023083624" lon="10.477920917196323"><ele>130.0</ele><time>2026-03-28T09:07:17Z</time></trkpt><trkpt lat="45.43974973543526" lon="10.478052355634205"><ele>130.5</ele><time>2026-03-28T09:07:18Z</time></trkpt><trkpt lat="45.440007178048326" lon="10.478159321369366"><ele>131.0</ele><time>2026-03-28T09:07:19Z</time></trkpt><trkpt lat="45.44026330267567" lon="10.478251211400641"><ele>131.5</ele><time>2026-03-28T09:07:20Z</time></trkpt><trkpt lat="45.44052390404789" lon="10.47831689752667"><ele>132.0</ele><time>2026-03-28T09:07:21Z</time></trkpt><trkpt lat="45.44075453138791" lon="10.478405708747573"><ele>132.0</ele><time>2026-03-28T09:07:22Z</time></trkpt><trkpt lat="45.440979217964504" lon="10.478482758260267"><ele>132.0</ele><time>2026-03-28T09:07:23Z</time></trkpt><trkpt lat="45.44119177639448" lon="10.47854453855181"><ele>132.0</ele><time>2026-03-28T09:07:24Z</time></trkpt><trkpt lat="45.441379809176254" lon="10.478598651793396"><ele>132.66666666666666</ele><time>2026-03-28T09:07:25Z</time></trkpt><trkpt lat="45.44155183236306" lon="10.478638648894123"><ele>133.33333333333331</ele><time>2026-03-28T09:07:26Z</time></trkpt><trkpt lat="45.44172952385645" lon="10.478657331031089"><ele>134.0</ele><time>2026-03-28T09:07:27Z</time></trkpt><trkpt lat="45.44193142597263" lon="10.47864159880422"><ele>134.0</ele><time>2026-03-28T09:07:28Z</time></trkpt><trkpt lat="45.442128060873195" lon="10.47859165880762"><ele>134.0</ele><time>2026-03-28T09:07:29Z</time></trkpt><trkpt lat="45.44232274299269" lon="10.478503444549851"><ele>134.0</ele><time>2026-03-28T09:07:30Z</time></trkpt><trkpt lat="45.442542477952166" lon="10.478371362963632"><ele>134.33333333333331</ele><time>2026-03-28T09:07:31Z</time></trkpt><trkpt lat="45.44273610183662" lon="10.478243877520322"><ele>134.66666666666666</ele><time>2026-03-28T09:07:32Z</time></trkpt><trkpt lat="45.44291407204552" lon="10.47813117398084"><ele>135.0</ele><time>2026-03-28T09:07:33Z</time></trkpt><trkpt lat="45.443098057817664" lon="10.478035171232095"><ele>135.0</ele><time>2026-03-28T09:07:34Z</time></trkpt><trkpt lat="45.443303960105126" lon="10.477975699773182"><ele>135.0</ele><time>2026-03-28T09:07:35Z</time></trkpt><trkpt lat="45.443520862597545" lon="10.477933923823016"><ele>135.0</ele><time>2026-03-28T09:07:36Z</time></trkpt><trkpt lat="45.44373242158093" lon="10.477960093804743"><ele>135.5</ele><time>2026-03-28T09:07:37Z</time></trkpt><trkpt lat="45.44395928707638" lon="10.477998859372185"><ele>136.0</ele><time>2026-03-28T09:07:38Z</time></trkpt><trkpt lat="45.44419625234808" lon="10.478068207704547"><ele>136.0</ele><time>2026-03-28T09:07:39Z</time></trkpt><trkpt lat="45.44443328960648" lon="10.478136584512391"><ele>136.0</ele><time>2026-03-28T09:07:40Z</time></trkpt><trkpt lat="45.444651791751376" lon="10.478199428326707"><ele>136.33333333333334</ele><time>2026-03-28T09:07:41Z</time></trkpt><trkpt lat="45.44484571207798" lon="10.478254942743293"><ele>136.66666666666666</ele><time>2026-03-28T09:07:42Z</time></trkpt><trkpt lat="45.4450033463454" lon="10.478299971017897"><ele>137.0</ele><time>2026-03-28T09:07:43Z</time></trkpt><trkpt lat="45.445150602482215" lon="10.478328495308855"><ele>137.0</ele><time>2026-03-28T09:07:44Z</time></trkpt><trkpt lat="45.445283782998835" lon="10.4783704212953"><ele>137.0</ele><time>2026-03-28T09:07:45Z</time></trkpt><trkpt lat="45.44542645711336" lon="10.478408342891957"><ele>137.0</ele><time>2026-03-28T09:07:46Z</time></trkpt><trkpt lat="45.44559011811546" lon="10.478507083774122"><ele>138.0</ele><time>2026-03-28T09:07:47Z</time></trkpt><trkpt lat="45.445791472463085" lon="10.478623138128672"><ele>139.0</ele><time>2026-03-28T09:07:48Z</time></trkpt><trkpt lat="45.44601778006883" lon="10.478784089960696"><ele>139.5</ele><time>2026-03-28T09:07:49Z</time></trkpt><trkpt lat="45.44625993168355" lon="10.478954424974589"><ele>140.0</ele><time>2026-03-28T09:07:50Z</time></trkpt><trkpt lat="45.446463057377485" lon="10.479121397913696"><ele>140.66666666666666</ele><time>2026-03-28T09:07:51Z</time></trkpt><trkpt lat="45.44664442025548" lon="10.479264193336528"><ele>141.33333333333334</ele><time>2026-03-28T09:07:52Z</time></trkpt><trkpt lat="45.44682909141742" lon="10.479418843904051"><ele>142.0</ele><time>2026-03-28T09:07:53Z</time></trkpt><trkpt lat="45.44702740188634" lon="10.479563649772132"><ele>141.0</ele><time>2026-03-28T09:07:54Z</time></trkpt><trkpt lat="45.44724812344966" lon="10.479693347745071"><ele>140.0</ele><time>2026-03-28T09:07:55Z</time></trkpt><trkpt lat="45.447476224346204" lon="10.479817222515935"><ele>140.0</ele><time>2026-03-28T09:07:56Z</time></trkpt><trkpt lat="45.44770984421318" lon="10.479930322154482"><ele>140.0</ele><time>2026-03-28T09:07:57Z</time></trkpt><trkpt lat="45.44793184843945" lon="10.480046165757772"><ele>140.0</ele><time>2026-03-28T09:07:58Z</time></trkpt><trkpt lat="45.44817080682942" lon="10.480184104428476"><ele>140.0</ele><time>2026-03-28T09:07:59Z</time></trkpt><trkpt lat="45.448411690156725" lon="10.480281992897401"><ele>140.0</ele><time>2026-03-28T09:08:00Z</time></trkpt><trkpt lat="45.448659007895465" lon="10.480348767555416"><ele>140.0</ele><time>2026-03-28T09:08:01Z</time></trkpt><trkpt lat="45.44890418475264" lon="10.480429557499257"><ele>140.0</ele><time>2026-03-28T09:08:02Z</time></trkpt><trkpt lat="45.44916928288806" lon="10.48050585280879"><ele>140.0</ele><time>2026-03-28T09:08:03Z</time></trkpt><trkpt lat="45.44946292031494" lon="10.48058949772785"><ele>141.5</ele><time>2026-03-28T09:08:04Z</time></trkpt><trkpt lat="45.44977195617091" lon="10.480672091422685"><ele>143.0</ele><time>2026-03-28T09:08:05Z</time></trkpt><trkpt lat="45.45008313408787" lon="10.480750053999223"><ele>143.0</ele><time>2026-03-28T09:08:06Z</time></trkpt><trkpt lat="45.450375717377035" lon="10.480820890014625"><ele>143.0</ele><time>2026-03-28T09:08:07Z</time></trkpt><trkpt lat="45.45063478820722" lon="10.4808860553265"><ele>143.5</ele><time>2026-03-28T09:08:08Z</time></trkpt><trkpt lat="45.45086506414848" lon="10.4809448415036"><ele>144.0</ele><time>2026-03-28T09:08:09Z</time></trkpt><trkpt lat="45.45108466208481" lon="10.480999613425539"><ele>143.5</ele><time>2026-03-28T09:08:10Z</time></trkpt><trkpt lat="45.45130442032753" lon="10.481053833535128"><ele>143.0</ele><time>2026-03-28T09:08:11Z</time></trkpt><trkpt lat="45.451530183358194" lon="10.481124010773808"><ele>143.0</ele><time>2026-03-28T09:08:12Z</time></trkpt><trkpt lat="45.45173298215752" lon="10.481200039775961"><ele>143.0</ele><time>2026-03-28T09:08:13Z</time></trkpt><trkpt lat="45.45191491663286" lon="10.481276091009939"><ele>143.0</ele><time>2026-03-28T09:08:14Z</time></trkpt><trkpt lat="45.45207317327034" lon="10.481349059625623"><ele>144.33333333333331</ele><time>2026-03-28T09:08:15Z</time></trkpt><trkpt lat="45.452208532917524" lon="10.481422678252304"><ele>145.66666666666666</ele><time>2026-03-28T09:08:16Z</time></trkpt><trkpt lat="45.452344794952445" lon="10.48152620995008"><ele>147.0</ele><time>2026-03-28T09:08:17Z</time></trkpt><trkpt lat="45.45246693149956" lon="10.48166508933565"><ele>147.0</ele><time>2026-03-28T09:08:18Z</time></trkpt><trkpt lat="45.452555563600285" lon="10.481824108363638"><ele>147.0</ele><time>2026-03-28T09:08:19Z</time></trkpt><trkpt lat="45.45262657286084" lon="10.482011294831407"><ele>147.0</ele><time>2026-03-28T09:08:20Z</time></trkpt><trkpt lat="45.452681873303625" lon="10.482235547907132"><ele>147.33333333333334</ele><time>2026-03-28T09:08:21Z</time></trkpt><trkpt lat="45.45270625843414" lon="10.482467385336971"><ele>147.66666666666669</ele><time>2026-03-28T09:08:22Z</time></trkpt><trkpt lat="45.45269858005531" lon="10.482689464944363"><ele>148.0</ele><time>2026-03-28T09:08:23Z</time></trkpt><trkpt lat="45.45267579475684" lon="10.48291545410245"><ele>148.66666666666669</ele><time>2026-03-28T09:08:24Z</time></trkpt><trkpt lat="45.45265101514991" lon="10.483177401006966"><ele>149.33333333333334</ele><time>2026-03-28T09:08:25Z</time></trkpt><trkpt lat="45.45263180705935" lon="10.48345538552356"><ele>150.0</ele><time>2026-03-28T09:08:26Z</time></trkpt><trkpt lat="45.45262039516194" lon="10.483698320969033"><ele>150.0</ele><time>2026-03-28T09:08:27Z</time></trkpt><trkpt lat="45.4526283438266" lon="10.483921470527626"><ele>150.0</ele><time>2026-03-28T09:08:28Z</time></trkpt><trkpt lat="45.45267145006448" lon="10.484137736224566"><ele>150.0</ele><time>2026-03-28T09:08:29Z</time></trkpt><trkpt lat="45.45273720862734" lon="10.484346770005088"><ele>150.0</ele><time>2026-03-28T09:08:30Z</time></trkpt><trkpt lat="45.45282392225643" lon="10.484516923316756"><ele>150.0</ele><time>2026-03-28T09:08:31Z</time></trkpt><trkpt lat="45.452905510963994" lon="10.484641189242765"><ele>150.0</ele><time>2026-03-28T09:08:32Z</time></trkpt><trkpt lat="45.45295677213667" lon="10.484730075613458"><ele>150.0</ele><time>2026-03-28T09:08:33Z</time></trkpt><trkpt lat="45.45299513277982" lon="10.484803621423897"><ele>150.0</ele><time>2026-03-28T09:08:35Z</time></trkpt><trkpt lat="45.45289434965079" lon="10.485003860450195"><ele>151.2</ele><time>2026-03-28T09:08:36Z</time></trkpt><trkpt lat="45.45282273089048" lon="10.48504427248779"><ele>152.4</ele><time>2026-03-28T09:08:37Z</time></trkpt><trkpt lat="45.45270059902412" lon="10.48508380971642"><ele>153.6</ele><time>2026-03-28T09:08:39Z</time></trkpt><trkpt lat="45.452597262261925" lon="10.485086388876459"><ele>154.8</ele><time>2026-03-28T09:08:40Z</time></trkpt><trkpt lat="45.452476281537066" lon="10.485084545240165"><ele>156.0</ele><time>2026-03-28T09:08:41Z</time></trkpt><trkpt lat="45.45233525275431" lon="10.485063325837004"><ele>156.0</ele><time>2026-03-28T09:08:42Z</time></trkpt><trkpt lat="45.45219724341936" lon="10.4850360175653"><ele>156.0</ele><time>2026-03-28T09:08:43Z</time></trkpt><trkpt lat="45.452067223378386" lon="10.485014721076642"><ele>156.0</ele><time>2026-03-28T09:08:44Z</time></trkpt><trkpt lat="45.45193244044147" lon="10.484983323881012"><ele>156.0</ele><time>2026-03-28T09:08:45Z</time></trkpt><trkpt lat="45.45179305389327" lon="10.484943560107995"><ele>156.0</ele><time>2026-03-28T09:08:46Z</time></trkpt><trkpt lat="45.451672644352946" lon="10.484900318146144"><ele>156.0</ele><time>2026-03-28T09:08:47Z</time></trkpt><trkpt lat="45.45154086594569" lon="10.4848352018976"><ele>156.0</ele><time>2026-03-28T09:08:48Z</time></trkpt><trkpt lat="45.45139556567864" lon="10.484762208952338"><ele>156.0</ele><time>2026-03-28T09:08:49Z</time></trkpt><trkpt lat="45.45124090115393" lon="10.484699593727484"><ele>156.5</ele><time>2026-03-28T09:08:50Z</time></trkpt><trkpt lat="45.45110885428422" lon="10.484657534031113"><ele>157.0</ele><time>2026-03-28T09:08:51Z</time></trkpt><trkpt lat="45.45096617760261" lon="10.48462121106486"><ele>157.5</ele><time>2026-03-28T09:08:52Z</time></trkpt><trkpt lat="45.450843194933704" lon="10.484604511073778"><ele>158.0</ele><time>2026-03-28T09:08:53Z</time></trkpt><trkpt lat="45.45072415963554" lon="10.484580223883665"><ele>156.20000000000002</ele><time>2026-03-28T09:08:54Z</time></trkpt><trkpt lat="45.4506112587123" lon="10.484521416209816"><ele>154.4</ele><time>2026-03-28T09:08:55Z</time></trkpt><trkpt lat="45.45050864340338" lon="10.484486015961636"><ele>152.60000000000002</ele><time>2026-03-28T09:08:56Z</time></trkpt><trkpt lat="45.450404432147735" lon="10.484469117728615"><ele>150.8</ele><time>2026-03-28T09:08:57Z</time></trkpt><trkpt lat="45.45030120190995" lon="10.484432602257938"><ele>149.0</ele><time>2026-03-28T09:08:58Z</time></trkpt><trkpt lat="45.450197434783384" lon="10.484408386270237"><ele>148.8</ele><time>2026-03-28T09:08:59Z</time></trkpt><trkpt lat="45.450092942759696" lon="10.484388128060402"><ele>148.60000000000002</ele><time>2026-03-28T09:09:00Z</time></trkpt><trkpt lat="45.449991172919255" lon="10.484371356738537"><ele>148.4</ele><time>2026-03-28T09:09:01Z</time></trkpt><trkpt lat="45.44988005002391" lon="10.484364409464336"><ele>148.20000000000002</ele><time>2026-03-28T09:09:02Z</time></trkpt><trkpt lat="45.4497575688261" lon="10.484369761452228"><ele>148.0</ele><time>2026-03-28T09:09:03Z</time></trkpt><trkpt lat="45.4496295457122" lon="10.484385122474096"><ele>147.33333333333334</ele><time>2026-03-28T09:09:04Z</time></trkpt><trkpt lat="45.44947783109296" lon="10.48440836025857"><ele>146.66666666666666</ele><time>2026-03-28T09:09:05Z</time></trkpt><trkpt lat="45.44930121061289" lon="10.484420755409166"><ele>146.0</ele><time>2026-03-28T09:09:06Z</time></trkpt><trkpt lat="45.449124756986706" lon="10.484426887652816"><ele>146.0</ele><time>2026-03-28T09:09:07Z</time></trkpt><trkpt lat="45.44897902383812" lon="10.484427774255396"><ele>146.0</ele><time>2026-03-28T09:09:08Z</time></trkpt><trkpt lat="45.44883370267926" lon="10.484401697237814"><ele>146.0</ele><time>2026-03-28T09:09:09Z</time></trkpt><trkpt lat="45.448704992227555" lon="10.484398653283883"><ele>146.0</ele><time>2026-03-28T09:09:10Z</time></trkpt><trkpt lat="45.44855455271001" lon="10.484392549680884"><ele>146.33333333333331</ele><time>2026-03-28T09:09:11Z</time></trkpt><trkpt lat="45.448391754137994" lon="10.4843841039458"><ele>146.66666666666666</ele><time>2026-03-28T09:09:12Z</time></trkpt><trkpt lat="45.44823355561137" lon="10.484372909583684"><ele>147.0</ele><time>2026-03-28T09:09:13Z</time></trkpt><trkpt lat="45.44809123483721" lon="10.484357888713742"><ele>147.0</ele><time>2026-03-28T09:09:14Z</time></trkpt><trkpt lat="45.447972988737185" lon="10.484339581482503"><ele>147.0</ele><time>2026-03-28T09:09:15Z</time></trkpt><trkpt lat="45.447881890529516" lon="10.484322568755507"><ele>147.0</ele><time>2026-03-28T09:09:16Z</time></trkpt><trkpt lat="45.44781287360835" lon="10.484296327743547"><ele>147.0</ele><time>2026-03-28T09:09:17Z</time></trkpt><trkpt lat="45.44774024990461" lon="10.484241916757242"><ele>147.0</ele><time>2026-03-28T09:09:19Z</time></trkpt><trkpt lat="45.44766417760441" lon="10.484166367056247"><ele>147.66666666666666</ele><time>2026-03-28T09:09:20Z</time></trkpt><trkpt lat="45.44759152899461" lon="10.48406589237569"><ele>148.33333333333334</ele><time>2026-03-28T09:09:21Z</time></trkpt><trkpt lat="45.44752280522947" lon="10.483979097915805"><ele>149.0</ele><time>2026-03-28T09:09:22Z</time></trkpt><trkpt lat="45.44747120134412" lon="10.483915776755596"><ele>149.66666666666669</ele><time>2026-03-28T09:09:23Z</time></trkpt><trkpt lat="45.447399792228126" lon="10.483885134354008"><ele>150.33333333333334</ele><time>2026-03-28T09:09:24Z</time></trkpt><trkpt lat="45.447324867107795" lon="10.483848090873918"><ele>151.0</ele><time>2026-03-28T09:09:25Z</time></trkpt><trkpt lat="45.447227510058696" lon="10.483810409216922"><ele>151.5</ele><time>2026-03-28T09:09:26Z</time></trkpt><trkpt lat="45.44711958571918" lon="10.483779275708335"><ele>152.0</ele><time>2026-03-28T09:09:27Z</time></trkpt><trkpt lat="45.44697981631138" lon="10.48374925430017"><ele>152.5</ele><time>2026-03-28T09:09:28Z</time></trkpt><trkpt lat="45.446832199344236" lon="10.483692341652144"><ele>153.0</ele><time>2026-03-28T09:09:29Z</time></trkpt><trkpt lat="45.44667738833586" lon="10.483653193108534"><ele>150.0</ele><time>2026-03-28T09:09:30Z</time></trkpt><trkpt lat="45.44650833696607" lon="10.483611832344176"><ele>147.0</ele><time>2026-03-28T09:09:31Z</time></trkpt><trkpt lat="45.44634424924176" lon="10.483574842929796"><ele>144.0</ele><time>2026-03-28T09:09:32Z</time></trkpt><trkpt lat="45.44617106217088" lon="10.483540219832406"><ele>143.66666666666666</ele><time>2026-03-28T09:09:33Z</time></trkpt><trkpt lat="45.44599441096572" lon="10.483506889432304"><ele>143.33333333333331</ele><time>2026-03-28T09:09:34Z</time></trkpt><trkpt lat="45.44581207117925" lon="10.483473949655618"><ele>143.0</ele><time>2026-03-28T09:09:35Z</time></trkpt><trkpt lat="45.445635885840005" lon="10.483442121673487"><ele>143.0</ele><time>2026-03-28T09:09:36Z</time></trkpt><trkpt lat="45.44546816330997" lon="10.483410760178941"><ele>143.0</ele><time>2026-03-28T09:09:37Z</time></trkpt><trkpt lat="45.44529545356297" lon="10.483377701152676"><ele>143.0</ele><time>2026-03-28T09:09:38Z</time></trkpt><trkpt lat="45.44512563888304" lon="10.483345196192618"><ele>143.33333333333331</ele><time>2026-03-28T09:09:39Z</time></trkpt><trkpt lat="45.44496416138687" lon="10.483314287099699"><ele>143.66666666666666</ele><time>2026-03-28T09:09:40Z</time></trkpt><trkpt lat="45.44479890666122" lon="10.48328265503524"><ele>144.0</ele><time>2026-03-28T09:09:41Z</time></trkpt><trkpt lat="45.44463565528265" lon="10.483278580840254"><ele>144.0</ele><time>2026-03-28T09:09:42Z</time></trkpt><trkpt lat="45.44446287273315" lon="10.48325136912158"><ele>144.0</ele><time>2026-03-28T09:09:43Z</time></trkpt><trkpt lat="45.444305337192134" lon="10.483207411104896"><ele>144.0</ele><time>2026-03-28T09:09:44Z</time></trkpt><trkpt lat="45.444154879759814" lon="10.483180695036921"><ele>144.0</ele><time>2026-03-28T09:09:45Z</time></trkpt><trkpt lat="45.443997396897686" lon="10.483145490107487"><ele>144.0</ele><time>2026-03-28T09:09:46Z</time></trkpt><trkpt lat="45.44382573442097" lon="10.483100373856109"><ele>144.0</ele><time>2026-03-28T09:09:47Z</time></trkpt><trkpt lat="45.44366547443359" lon="10.483056094270337"><ele>144.33333333333334</ele><time>2026-03-28T09:09:48Z</time></trkpt><trkpt lat="45.443498083702806" lon="10.483044321976926"><ele>144.66666666666669</ele><time>2026-03-28T09:09:49Z</time></trkpt><trkpt lat="45.443324245298975" lon="10.483008717940091"><ele>145.0</ele><time>2026-03-28T09:09:50Z</time></trkpt><trkpt lat="45.443161760278954" lon="10.482978475267512"><ele>145.0</ele><time>2026-03-28T09:09:51Z</time></trkpt><trkpt lat="45.44301980215755" lon="10.482946815899428"><ele>145.0</ele><time>2026-03-28T09:09:52Z</time></trkpt><trkpt lat="45.44289492765285" lon="10.482892972839387"><ele>145.0</ele><time>2026-03-28T09:09:53Z</time></trkpt><trkpt lat="45.442784422775766" lon="10.482843133351068"><ele>145.0</ele><time>2026-03-28T09:09:54Z</time></trkpt><trkpt lat="45.44266909699105" lon="10.482779098092609"><ele>144.0</ele><time>2026-03-28T09:09:55Z</time></trkpt><trkpt lat="45.44254813539249" lon="10.482697251457843"><ele>143.0</ele><time>2026-03-28T09:09:56Z</time></trkpt><trkpt lat="45.44241183569529" lon="10.482593170448371"><ele>142.0</ele><time>2026-03-28T09:09:57Z</time></trkpt><trkpt lat="45.44227772178783" lon="10.482488935894612"><ele>141.0</ele><time>2026-03-28T09:09:58Z</time></trkpt><trkpt lat="45.44212746035354" lon="10.4823759047018"><ele>141.0</ele><time>2026-03-28T09:09:59Z</time></trkpt><trkpt lat="45.44198317108961" lon="10.482274479894098"><ele>141.0</ele><time>2026-03-28T09:10:00Z</time></trkpt><trkpt lat="45.44183775738349" lon="10.482193443147686"><ele>141.0</ele><time>2026-03-28T09:10:01Z</time></trkpt><trkpt lat="45.4417043192906" lon="10.482083146254322"><ele>140.0</ele><time>2026-03-28T09:10:02Z</time></trkpt><trkpt lat="45.441576536609304" lon="10.481985003083715"><ele>139.0</ele><time>2026-03-28T09:10:03Z</time></trkpt><trkpt lat="45.44143724379702" lon="10.481877792429422"><ele>138.0</ele><time>2026-03-28T09:10:04Z</time></trkpt><trkpt lat="45.44128586564045" lon="10.481770426122313"><ele>138.0</ele><time>2026-03-28T09:10:05Z</time></trkpt><trkpt lat="45.4411312606907" lon="10.48166155130553"><ele>138.0</ele><time>2026-03-28T09:10:06Z</time></trkpt><trkpt lat="45.44098911096608" lon="10.481559368122408"><ele>138.0</ele><time>2026-03-28T09:10:07Z</time></trkpt><trkpt lat="45.44084776643779" lon="10.48146223838767"><ele>138.0</ele><time>2026-03-28T09:10:08Z</time></trkpt><trkpt lat="45.44071527700218" lon="10.481365683416568"><ele>138.0</ele><time>2026-03-28T09:10:09Z</time></trkpt><trkpt lat="45.44059877601318" lon="10.481253283922381"><ele>138.0</ele><time>2026-03-28T09:10:10Z</time></trkpt><trkpt lat="45.44050118863406" lon="10.481172508623569"><ele>138.0</ele><time>2026-03-28T09:10:11Z</time></trkpt><trkpt lat="45.44039592215953" lon="10.48110943227032"><ele>136.66666666666666</ele><time>2026-03-28T09:10:12Z</time></trkpt><trkpt lat="45.44026154185451" lon="10.481045133729637"><ele>135.33333333333331</ele><time>2026-03-28T09:10:13Z</time></trkpt><trkpt lat="45.44011111695861" lon="10.481005570574995"><ele>134.0</ele><time>2026-03-28T09:10:14Z</time></trkpt><trkpt lat="45.439962555987144" lon="10.480927507034965"><ele>134.0</ele><time>2026-03-28T09:10:15Z</time></trkpt><trkpt lat="45.439810644838396" lon="10.480906279240916"><ele>134.0</ele><time>2026-03-28T09:10:16Z</time></trkpt><trkpt lat="45.43967270550782" lon="10.480865096634469"><ele>134.0</ele><time>2026-03-28T09:10:17Z</time></trkpt><trkpt lat="45.43953437855884" lon="10.480826138854018"><ele>134.0</ele><time>2026-03-28T09:10:18Z</time></trkpt><trkpt lat="45.43938018417986" lon="10.480780744040388"><ele>134.33333333333331</ele><time>2026-03-28T09:10:19Z</time></trkpt><trkpt lat="45.439222797128565" lon="10.480744697241366"><ele>134.66666666666666</ele><time>2026-03-28T09:10:20Z</time></trkpt><trkpt lat="45.43906638433421" lon="10.480703673486765"><ele>135.0</ele><time>2026-03-28T09:10:21Z</time></trkpt><trkpt lat="45.4389086543769" lon="10.480659248619707"><ele>134.5</ele><time>2026-03-28T09:10:22Z</time></trkpt><trkpt lat="45.43875286362782" lon="10.480616638584296"><ele>134.0</ele><time>2026-03-28T09:10:23Z</time></trkpt><trkpt lat="45.43862303124994" lon="10.48058539471013"><ele>133.5</ele><time>2026-03-28T09:10:24Z</time></trkpt><trkpt lat="45.43851416481797" lon="10.48055673132039"><ele>133.0</ele><time>2026-03-28T09:10:25Z</time></trkpt><trkpt lat="45.43843023743063" lon="10.480528479192502"><ele>133.0</ele><time>2026-03-28T09:10:26Z</time></trkpt><trkpt lat="45.438352946026995" lon="10.480517430270854"><ele>133.0</ele><time>2026-03-28T09:10:27Z</time></trkpt><trkpt lat="45.43825745492294" lon="10.480488931990445"><ele>133.0</ele><time>2026-03-28T09:10:28Z</time></trkpt><trkpt lat="45.43812861432535" lon="10.480447864090412"><ele>133.0</ele><time>2026-03-28T09:10:29Z</time></trkpt><trkpt lat="45.437953079049485" lon="10.480415196322687"><ele>132.0</ele><time>2026-03-28T09:10:30Z</time></trkpt><trkpt lat="45.43775438981777" lon="10.480403086528648"><ele>131.0</ele><time>2026-03-28T09:10:31Z</time></trkpt><trkpt lat="45.43752148954666" lon="10.480406295377637"><ele>130.0</ele><time>2026-03-28T09:10:32Z</time></trkpt><trkpt lat="45.4373070009639" lon="10.480414350017229"><ele>129.66666666666669</ele><time>2026-03-28T09:10:33Z</time></trkpt><trkpt lat="45.437124601812066" lon="10.480400856315448"><ele>129.33333333333334</ele><time>2026-03-28T09:10:34Z</time></trkpt><trkpt lat="45.43696679749471" lon="10.48040123215058"><ele>129.0</ele><time>2026-03-28T09:10:35Z</time></trkpt><trkpt lat="45.4368157208442" lon="10.48042544146938"><ele>129.66666666666666</ele><time>2026-03-28T09:10:36Z</time></trkpt><trkpt lat="45.43664899526413" lon="10.480433072091637"><ele>130.33333333333331</ele><time>2026-03-28T09:10:37Z</time></trkpt><trkpt lat="45.43646302613146" lon="10.480444264558335"><ele>131.0</ele><time>2026-03-28T09:10:38Z</time></trkpt><trkpt lat="45.43625817463857" lon="10.480549880542448"><ele>131.0</ele><time>2026-03-28T09:10:39Z</time></trkpt><trkpt lat="45.43604032186383" lon="10.48066141223279"><ele>131.0</ele><time>2026-03-28T09:10:40Z</time></trkpt><trkpt lat="45.435826425472705" lon="10.480781344436599"><ele>131.0</ele><time>2026-03-28T09:10:41Z</time></trkpt><trkpt lat="45.43561277004976" lon="10.48086401934651"><ele>131.0</ele><time>2026-03-28T09:10:42Z</time></trkpt><trkpt lat="45.435433132856424" lon="10.480956269568747"><ele>131.0</ele><time>2026-03-28T09:10:43Z</time></trkpt><trkpt lat="45.43525969118121" lon="10.481051670819332"><ele>130.66666666666666</ele><time>2026-03-28T09:10:44Z</time></trkpt><trkpt lat="45.43509437062229" lon="10.48113187760381"><ele>130.33333333333334</ele><time>2026-03-28T09:10:45Z</time></trkpt><trkpt lat="45.43494262680793" lon="10.481196499236292"><ele>130.0</ele><time>2026-03-28T09:10:46Z</time></trkpt><trkpt lat="45.434779106066706" lon="10.481258511538615"><ele>130.33333333333334</ele><time>2026-03-28T09:10:47Z</time></trkpt><trkpt lat="45.43459795201339" lon="10.481306120958488"><ele>130.66666666666666</ele><time>2026-03-28T09:10:48Z</time></trkpt><trkpt lat="45.43440075847248" lon="10.48134317538212"><ele>131.0</ele><time>2026-03-28T09:10:49Z</time></trkpt><trkpt lat="45.434213909294556" lon="10.4813647923089"><ele>131.0</ele><time>2026-03-28T09:10:50Z</time></trkpt><trkpt lat="45.43404660471269" lon="10.481375554467864"><ele>131.0</ele><time>2026-03-28T09:10:51Z</time></trkpt><trkpt lat="45.433896755299244" lon="10.481373416029339"><ele>131.0</ele><time>2026-03-28T09:10:52Z</time></trkpt><trkpt lat="45.433743792285874" lon="10.481352463190607"><ele>131.0</ele><time>2026-03-28T09:10:53Z</time></trkpt><trkpt lat="45.43359130868891" lon="10.48131232924268"><ele>131.0</ele><time>2026-03-28T09:10:54Z</time></trkpt><trkpt lat="45.433436271659026" lon="10.481249842865909"><ele>131.0</ele><time>2026-03-28T09:10:55Z</time></trkpt><trkpt lat="45.43327936336836" lon="10.481170108524553"><ele>131.33333333333331</ele><time>2026-03-28T09:10:56Z</time></trkpt><trkpt lat="45.43312604353276" lon="10.481089296311872"><ele>131.66666666666666</ele><time>2026-03-28T09:10:57Z</time></trkpt><trkpt lat="45.43297760775935" lon="10.48100700090105"><ele>132.0</ele><time>2026-03-28T09:10:58Z</time></trkpt><trkpt lat="45.43284203837175" lon="10.480929330611781"><ele>132.0</ele><time>2026-03-28T09:10:59Z</time></trkpt><trkpt lat="45.43271332941708" lon="10.480858877064186"><ele>132.0</ele><time>2026-03-28T09:11:00Z</time></trkpt><trkpt lat="45.43258248442787" lon="10.480787254298223"><ele>132.0</ele><time>2026-03-28T09:11:01Z</time></trkpt><trkpt lat="45.43244759346076" lon="10.48071189566119"><ele>132.0</ele><time>2026-03-28T09:11:02Z</time></trkpt><trkpt lat="45.43230432009124" lon="10.480631456487238"><ele>132.0</ele><time>2026-03-28T09:11:03Z</time></trkpt><trkpt lat="45.43215758374064" lon="10.480555917537515"><ele>132.0</ele><time>2026-03-28T09:11:04Z</time></trkpt><trkpt lat="45.43199533346246" lon="10.480476747733308"><ele>132.0</ele><time>2026-03-28T09:11:05Z</time></trkpt><trkpt lat="45.43181408149978" lon="10.480396370149947"><ele>131.0</ele><time>2026-03-28T09:11:06Z</time></trkpt><trkpt lat="45.431625157717185" lon="10.480329738281696"><ele>130.0</ele><time>2026-03-28T09:11:07Z</time></trkpt><trkpt lat="45.43145377234715" lon="10.480279805136727"><ele>129.0</ele><time>2026-03-28T09:11:08Z</time></trkpt><trkpt lat="45.43127024721777" lon="10.480232677307027"><ele>129.0</ele><time>2026-03-28T09:11:09Z</time></trkpt><trkpt lat="45.43110142086632" lon="10.480190803135528"><ele>129.0</ele><time>2026-03-28T09:11:10Z</time></trkpt><trkpt lat="45.43095518652636" lon="10.480154532559972"><ele>129.0</ele><time>2026-03-28T09:11:11Z</time></trkpt><trkpt lat="45.430816739981125" lon="10.480129021536897"><ele>129.0</ele><time>2026-03-28T09:11:12Z</time></trkpt><trkpt lat="45.43067424892956" lon="10.480100862970447"><ele>129.0</ele><time>2026-03-28T09:11:13Z</time></trkpt><trkpt lat="45.430505109261425" lon="10.48003845940693"><ele>129.0</ele><time>2026-03-28T09:11:14Z</time></trkpt><trkpt lat="45.430297402537995" lon="10.48002904359623"><ele>130.0</ele><time>2026-03-28T09:11:15Z</time></trkpt><trkpt lat="45.43007156872941" lon="10.479978001584618"><ele>131.0</ele><time>2026-03-28T09:11:16Z</time></trkpt><trkpt lat="45.429849496767204" lon="10.479913964904732"><ele>131.0</ele><time>2026-03-28T09:11:17Z</time></trkpt><trkpt lat="45.42965228981727" lon="10.479841388255743"><ele>131.0</ele><time>2026-03-28T09:11:18Z</time></trkpt><trkpt lat="45.42946767512084" lon="10.479780932035363"><ele>131.0</ele><time>2026-03-28T09:11:19Z</time></trkpt><trkpt lat="45.42926816863539" lon="10.479736208100567"><ele>129.5</ele><time>2026-03-28T09:11:20Z</time></trkpt><trkpt lat="45.42903471418498" lon="10.479728583867898"><ele>128.0</ele><time>2026-03-28T09:11:21Z</time></trkpt><trkpt lat="45.42878403384236" lon="10.479714495948507"><ele>126.5</ele><time>2026-03-28T09:11:22Z</time></trkpt><trkpt lat="45.42852759015039" lon="10.479716532825245"><ele>125.0</ele><time>2026-03-28T09:11:23Z</time></trkpt><trkpt lat="45.428281670106195" lon="10.479721229920571"><ele>125.0</ele><time>2026-03-28T09:11:24Z</time></trkpt><trkpt lat="45.42805927207926" lon="10.479725384662041"><ele>125.0</ele><time>2026-03-28T09:11:25Z</time></trkpt><trkpt lat="45.42783859898146" lon="10.479727589755017"><ele>125.0</ele><time>2026-03-28T09:11:26Z</time></trkpt><trkpt lat="45.42765234138965" lon="10.479726686211407"><ele>125.33333333333333</ele><time>2026-03-28T09:11:27Z</time></trkpt><trkpt lat="45.42747512862194" lon="10.479723688756911"><ele>125.66666666666666</ele><time>2026-03-28T09:11:28Z</time></trkpt><trkpt lat="45.427315747604574" lon="10.479713087996686"><ele>126.0</ele><time>2026-03-28T09:11:29Z</time></trkpt><trkpt lat="45.42716875697226" lon="10.479693506189944"><ele>126.0</ele><time>2026-03-28T09:11:30Z</time></trkpt><trkpt lat="45.427023941967484" lon="10.479663272455285"><ele>126.0</ele><time>2026-03-28T09:11:31Z</time></trkpt><trkpt lat="45.42686684092507" lon="10.479624284221678"><ele>126.0</ele><time>2026-03-28T09:11:32Z</time></trkpt><trkpt lat="45.426710824323216" lon="10.479577769436665"><ele>125.33333333333334</ele><time>2026-03-28T09:11:33Z</time></trkpt><trkpt lat="45.4265569384807" lon="10.479529111908064"><ele>124.66666666666667</ele><time>2026-03-28T09:11:34Z</time></trkpt><trkpt lat="45.42640389099783" lon="10.479478134119844"><ele>124.0</ele><time>2026-03-28T09:11:35Z</time></trkpt><trkpt lat="45.42624167238918" lon="10.479424101653631"><ele>124.0</ele><time>2026-03-28T09:11:36Z</time></trkpt><trkpt lat="45.42605924585008" lon="10.479363337879912"><ele>124.0</ele><time>2026-03-28T09:11:37Z</time></trkpt><trkpt lat="45.42583908298475" lon="10.47928919141321"><ele>124.0</ele><time>2026-03-28T09:11:38Z</time></trkpt><trkpt lat="45.42561189722768" lon="10.479212750155499"><ele>124.5</ele><time>2026-03-28T09:11:39Z</time></trkpt><trkpt lat="45.425379889037536" lon="10.479129917773184"><ele>125.0</ele><time>2026-03-28T09:11:40Z</time></trkpt><trkpt lat="45.42514731753311" lon="10.47906763504802"><ele>125.0</ele><time>2026-03-28T09:11:41Z</time></trkpt><trkpt lat="45.424911320764" lon="10.478977142847643"><ele>125.0</ele><time>2026-03-28T09:11:42Z</time></trkpt><trkpt lat="45.4246953542204" lon="10.478901527394331"><ele>124.66666666666666</ele><time>2026-03-28T09:11:43Z</time></trkpt><trkpt lat="45.42449845046585" lon="10.478828031149884"><ele>124.33333333333334</ele><time>2026-03-28T09:11:44Z</time></trkpt><trkpt lat="45.424286688928724" lon="10.478744845725533"><ele>124.0</ele><time>2026-03-28T09:11:45Z</time></trkpt><trkpt lat="45.42409107182119" lon="10.478668672790123"><ele>123.66666666666667</ele><time>2026-03-28T09:11:46Z</time></trkpt><trkpt lat="45.4239050652543" lon="10.478597076417245"><ele>123.33333333333334</ele><time>2026-03-28T09:11:47Z</time></trkpt><trkpt lat="45.423714255437595" lon="10.47852871143609"><ele>123.0</ele><time>2026-03-28T09:11:48Z</time></trkpt><trkpt lat="45.42352081784423" lon="10.478450097928587"><ele>123.0</ele><time>2026-03-28T09:11:49Z</time></trkpt><trkpt lat="45.4233338261741" lon="10.478368198885299"><ele>123.0</ele><time>2026-03-28T09:11:50Z</time></trkpt><trkpt lat="45.42314714882087" lon="10.478250998819659"><ele>123.0</ele><time>2026-03-28T09:11:51Z</time></trkpt><trkpt lat="45.422959483392255" lon="10.478144299189468"><ele>124.0</ele><time>2026-03-28T09:11:52Z</time></trkpt><trkpt lat="45.42275098135239" lon="10.478024062560682"><ele>125.0</ele><time>2026-03-28T09:11:53Z</time></trkpt><trkpt lat="45.42253739678466" lon="10.477923852849885"><ele>123.0</ele><time>2026-03-28T09:11:54Z</time></trkpt><trkpt lat="45.42234261334314" lon="10.477820617179711"><ele>121.0</ele><time>2026-03-28T09:11:55Z</time></trkpt><trkpt lat="45.422171241234835" lon="10.477700291873589"><ele>119.0</ele><time>2026-03-28T09:11:56Z</time></trkpt><trkpt lat="45.42198672997383" lon="10.477615163623371"><ele>119.0</ele><time>2026-03-28T09:11:57Z</time></trkpt><trkpt lat="45.42179805340987" lon="10.477506335431752"><ele>119.0</ele><time>2026-03-28T09:11:58Z</time></trkpt><trkpt lat="45.42159944501348" lon="10.477402509295775"><ele>119.0</ele><time>2026-03-28T09:11:59Z</time></trkpt><trkpt lat="45.421387650006515" lon="10.47731899317759"><ele>120.0</ele><time>2026-03-28T09:12:00Z</time></trkpt><trkpt lat="45.421162079646436" lon="10.477248629342887"><ele>121.0</ele><time>2026-03-28T09:12:01Z</time></trkpt><trkpt lat="45.42093653473596" lon="10.477190402403554"><ele>121.0</ele><time>2026-03-28T09:12:02Z</time></trkpt><trkpt lat="45.42072654964281" lon="10.477111569649637"><ele>121.0</ele><time>2026-03-28T09:12:03Z</time></trkpt><trkpt lat="45.42052130136192" lon="10.477058478400886"><ele>121.0</ele><time>2026-03-28T09:12:04Z</time></trkpt><trkpt lat="45.42031699801963" lon="10.477005168337975"><ele>119.0</ele><time>2026-03-28T09:12:05Z</time></trkpt><trkpt lat="45.42011567391906" lon="10.4769515551077"><ele>117.0</ele><time>2026-03-28T09:12:06Z</time></trkpt><trkpt lat="45.41991848637341" lon="10.476899042907988"><ele>115.0</ele><time>2026-03-28T09:12:07Z</time></trkpt><trkpt lat="45.41972737620335" lon="10.476850584612553"><ele>115.66666666666667</ele><time>2026-03-28T09:12:08Z</time></trkpt><trkpt lat="45.4195432850577" lon="10.476803579908717"><ele>116.33333333333334</ele><time>2026-03-28T09:12:09Z</time></trkpt><trkpt lat="45.41937367214591" lon="10.476759812204063"><ele>117.0</ele><time>2026-03-28T09:12:10Z</time></trkpt><trkpt lat="45.41923127126874" lon="10.476723054975533"><ele>117.0</ele><time>2026-03-28T09:12:11Z</time></trkpt><trkpt lat="45.41910950063225" lon="10.47669280761907"><ele>116.99999999999999</ele><time>2026-03-28T09:12:12Z</time></trkpt><trkpt lat="45.41902209459845" lon="10.476692234615353"><ele>116.99999999999999</ele><time>2026-03-28T09:12:13Z</time></trkpt><trkpt lat="45.418946631730925" lon="10.476672291367088"><ele>117.0</ele><time>2026-03-28T09:12:14Z</time></trkpt><trkpt lat="45.418874449149364" lon="10.476656458140265"><ele>117.0</ele><time>2026-03-28T09:12:15Z</time></trkpt><trkpt lat="45.41876765437454" lon="10.4766198507317"><ele>116.66666666666667</ele><time>2026-03-28T09:12:17Z</time></trkpt><trkpt lat="45.41870324737718" lon="10.476604423805295"><ele>116.33333333333334</ele><time>2026-03-28T09:12:18Z</time></trkpt><trkpt lat="45.4186272416498" lon="10.476700552194199"><ele>116.0</ele><time>2026-03-28T09:12:20Z</time></trkpt><trkpt lat="45.41861652482406" lon="10.47679364233956"><ele>115.66666666666667</ele><time>2026-03-28T09:12:21Z</time></trkpt><trkpt lat="45.41863326169412" lon="10.476922708979718"><ele>115.33333333333334</ele><time>2026-03-28T09:12:22Z</time></trkpt><trkpt lat="45.41865208265078" lon="10.477037543424231"><ele>115.0</ele><time>2026-03-28T09:12:23Z</time></trkpt><trkpt lat="45.41863406082144" lon="10.477124108942489"><ele>116.0</ele><time>2026-03-28T09:12:24Z</time></trkpt><trkpt lat="45.41856229252467" lon="10.477201338800374"><ele>117.0</ele><time>2026-03-28T09:12:25Z</time></trkpt><trkpt lat="45.41850543253935" lon="10.477307392679787"><ele>118.0</ele><time>2026-03-28T09:12:26Z</time></trkpt><trkpt lat="45.41844270407653" lon="10.477419612981203"><ele>119.0</ele><time>2026-03-28T09:12:27Z</time></trkpt><trkpt lat="45.41837825305738" lon="10.477526799616305"><ele>120.0</ele><time>2026-03-28T09:12:28Z</time></trkpt><trkpt lat="45.41831359522567" lon="10.477621241529292"><ele>120.0</ele><time>2026-03-28T09:12:29Z</time></trkpt><trkpt lat="45.41824966643886" lon="10.47771749244317"><ele>120.0</ele><time>2026-03-28T09:12:30Z</time></trkpt><trkpt lat="45.41817789257856" lon="10.47782010956222"><ele>120.0</ele><time>2026-03-28T09:12:31Z</time></trkpt><trkpt lat="45.41812432810353" lon="10.47796068630896"><ele>120.0</ele><time>2026-03-28T09:12:32Z</time></trkpt><trkpt lat="45.41807934501896" lon="10.478127383060302"><ele>120.0</ele><time>2026-03-28T09:12:33Z</time></trkpt><trkpt lat="45.418028449510935" lon="10.4782953587959"><ele>119.5</ele><time>2026-03-28T09:12:34Z</time></trkpt><trkpt lat="45.41798738005674" lon="10.47848244232856"><ele>119.0</ele><time>2026-03-28T09:12:35Z</time></trkpt><trkpt lat="45.417931835044136" lon="10.478666480648481"><ele>118.5</ele><time>2026-03-28T09:12:36Z</time></trkpt><trkpt lat="45.417880643593676" lon="10.478866098695846"><ele>118.0</ele><time>2026-03-28T09:12:37Z</time></trkpt><trkpt lat="45.41783621263616" lon="10.47906346020482"><ele>119.0</ele><time>2026-03-28T09:12:38Z</time></trkpt><trkpt lat="45.41781341474917" lon="10.479238922047305"><ele>120.0</ele><time>2026-03-28T09:12:39Z</time></trkpt><trkpt lat="45.41782584132796" lon="10.479400573742634"><ele>121.0</ele><time>2026-03-28T09:12:40Z</time></trkpt><trkpt lat="45.41787505513061" lon="10.479566948272574"><ele>122.0</ele><time>2026-03-28T09:12:41Z</time></trkpt><trkpt lat="45.417966489110825" lon="10.479769294140757"><ele>123.66666666666666</ele><time>2026-03-28T09:12:42Z</time></trkpt><trkpt lat="45.418048721940806" lon="10.479998394935857"><ele>125.33333333333334</ele><time>2026-03-28T09:12:43Z</time></trkpt><trkpt lat="45.418126012546644" lon="10.480250529170403"><ele>127.0</ele><time>2026-03-28T09:12:44Z</time></trkpt><trkpt lat="45.41818847095492" lon="10.480474470985294"><ele>127.0</ele><time>2026-03-28T09:12:45Z</time></trkpt><trkpt lat="45.4182468677157" lon="10.480647441255831"><ele>127.0</ele><time>2026-03-28T09:12:46Z</time></trkpt><trkpt lat="45.41832922213696" lon="10.480774437375556"><ele>127.0</ele><time>2026-03-28T09:12:47Z</time></trkpt><trkpt lat="45.41844457675115" lon="10.480898243386827"><ele>127.0</ele><time>2026-03-28T09:12:48Z</time></trkpt><trkpt lat="45.418571706036744" lon="10.481020290243142"><ele>127.0</ele><time>2026-03-28T09:12:49Z</time></trkpt><trkpt lat="45.418672523205366" lon="10.481133744325904"><ele>126.99999999999999</ele><time>2026-03-28T09:12:50Z</time></trkpt><trkpt lat="45.418728125680666" lon="10.481231036688714"><ele>126.99999999999999</ele><time>2026-03-28T09:12:51Z</time></trkpt><trkpt lat="45.418743653070564" lon="10.481367865281301"><ele>127.0</ele><time>2026-03-28T09:12:52Z</time></trkpt><trkpt lat="45.418698479387494" lon="10.481507973892716"><ele>127.0</ele><time>2026-03-28T09:12:53Z</time></trkpt><trkpt lat="45.41865468127675" lon="10.481621974277815"><ele>127.0</ele><time>2026-03-28T09:12:54Z</time></trkpt><trkpt lat="45.4186474931318" lon="10.481713983288081"><ele>126.99999999999999</ele><time>2026-03-28T09:12:55Z</time></trkpt><trkpt lat="45.41858608982484" lon="10.481835833958225"><ele>126.99999999999999</ele><time>2026-03-28T09:12:57Z</time></trkpt><trkpt lat="45.418692219972485" lon="10.481976831429881"><ele>127.0</ele><time>2026-03-28T09:12:59Z</time></trkpt><trkpt lat="45.418747300225036" lon="10.482056925886008"><ele>127.0</ele><time>2026-03-28T09:13:00Z</time></trkpt><trkpt lat="45.4187672091698" lon="10.48215452612921"><ele>127.0</ele><time>2026-03-28T09:13:01Z</time></trkpt><trkpt lat="45.418771296927176" lon="10.482308271322644"><ele>126.99999999999999</ele><time>2026-03-28T09:13:02Z</time></trkpt><trkpt lat="45.41877658006992" lon="10.482481019496372"><ele>126.99999999999999</ele><time>2026-03-28T09:13:03Z</time></trkpt><trkpt lat="45.41878060827806" lon="10.482645198257124"><ele>127.0</ele><time>2026-03-28T09:13:04Z</time></trkpt><trkpt lat="45.418787568086486" lon="10.482782387271865"><ele>127.0</ele><time>2026-03-28T09:13:05Z</time></trkpt><trkpt lat="45.41879099882626" lon="10.4829291993426"><ele>127.39999999999999</ele><time>2026-03-28T09:13:06Z</time></trkpt><trkpt lat="45.41878884445152" lon="10.483048694133771"><ele>127.79999999999998</ele><time>2026-03-28T09:13:07Z</time></trkpt><trkpt lat="45.418896124960234" lon="10.483137914760864"><ele>128.2</ele><time>2026-03-28T09:13:08Z</time></trkpt><trkpt lat="45.418998709392675" lon="10.483212689200993"><ele>128.6</ele><time>2026-03-28T09:13:09Z</time></trkpt><trkpt lat="45.419071837397794" lon="10.483299953620264"><ele>129.0</ele><time>2026-03-28T09:13:10Z</time></trkpt><trkpt lat="45.41915503123833" lon="10.483381762568063"><ele>128.8</ele><time>2026-03-28T09:13:11Z</time></trkpt><trkpt lat="45.41923121532533" lon="10.483468184628567"><ele>128.60000000000002</ele><time>2026-03-28T09:13:12Z</time></trkpt><trkpt lat="45.41930409844876" lon="10.483560982298377"><ele>128.4</ele><time>2026-03-28T09:13:13Z</time></trkpt><trkpt lat="45.41934809005913" lon="10.483661754245007"><ele>128.20000000000002</ele><time>2026-03-28T09:13:14Z</time></trkpt><trkpt lat="45.41937323657153" lon="10.48385890145548"><ele>128.0</ele><time>2026-03-28T09:13:16Z</time></trkpt><trkpt lat="45.41935700659582" lon="10.483998839600401"><ele>128.0</ele><time>2026-03-28T09:13:17Z</time></trkpt><trkpt lat="45.41932878032412" lon="10.484152313508883"><ele>128.0</ele><time>2026-03-28T09:13:18Z</time></trkpt><trkpt lat="45.419313988312396" lon="10.484299884587417"><ele>128.0</ele><time>2026-03-28T09:13:19Z</time></trkpt><trkpt lat="45.41931280539588" lon="10.484439678401257"><ele>128.0</ele><time>2026-03-28T09:13:20Z</time></trkpt><trkpt lat="45.419339085208286" lon="10.484561224966294"><ele>128.0</ele><time>2026-03-28T09:13:21Z</time></trkpt><trkpt lat="45.419388479072765" lon="10.484662661162679"><ele>128.0</ele><time>2026-03-28T09:13:22Z</time></trkpt><trkpt lat="45.419443044568744" lon="10.48476016628287"><ele>128.0</ele><time>2026-03-28T09:13:23Z</time></trkpt><trkpt lat="45.419507062431144" lon="10.484842517355911"><ele>128.0</ele><time>2026-03-28T09:13:24Z</time></trkpt><trkpt lat="45.419587322728205" lon="10.484933552966995"><ele>128.0</ele><time>2026-03-28T09:13:25Z</time></trkpt><trkpt lat="45.41967936779326" lon="10.485032380543412"><ele>128.0</ele><time>2026-03-28T09:13:26Z</time></trkpt><trkpt lat="45.41977327484971" lon="10.485125165727965"><ele>128.0</ele><time>2026-03-28T09:13:27Z</time></trkpt><trkpt lat="45.41988654555155" lon="10.485210600846603"><ele>128.0</ele><time>2026-03-28T09:13:28Z</time></trkpt><trkpt lat="45.42000819157543" lon="10.485293817588452"><ele>128.0</ele><time>2026-03-28T09:13:29Z</time></trkpt><trkpt lat="45.42014077536032" lon="10.48537013558672"><ele>128.0</ele><time>2026-03-28T09:13:30Z</time></trkpt><trkpt lat="45.42026496991987" lon="10.485429265786953"><ele>130.75</ele><time>2026-03-28T09:13:31Z</time></trkpt><trkpt lat="45.4203855382143" lon="10.48547554463396"><ele>133.5</ele><time>2026-03-28T09:13:32Z</time></trkpt><trkpt lat="45.420494814468164" lon="10.485503079125888"><ele>136.25</ele><time>2026-03-28T09:13:33Z</time></trkpt><trkpt lat="45.420617255079755" lon="10.485512131923091"><ele>139.0</ele><time>2026-03-28T09:13:34Z</time></trkpt><trkpt lat="45.42075242030878" lon="10.485501353261991"><ele>139.0</ele><time>2026-03-28T09:13:35Z</time></trkpt><trkpt lat="45.420894442873525" lon="10.485520031596938"><ele>139.0</ele><time>2026-03-28T09:13:36Z</time></trkpt><trkpt lat="45.42105138743089" lon="10.485522597101829"><ele>139.0</ele><time>2026-03-28T09:13:37Z</time></trkpt><trkpt lat="45.42116659572152" lon="10.485526322246065"><ele>139.0</ele><time>2026-03-28T09:13:38Z</time></trkpt><trkpt lat="45.421284453471806" lon="10.485534422307758"><ele>139.25</ele><time>2026-03-28T09:13:39Z</time></trkpt><trkpt lat="45.421417495952184" lon="10.485554235788623"><ele>139.5</ele><time>2026-03-28T09:13:40Z</time></trkpt><trkpt lat="45.42154212529263" lon="10.485576110992211"><ele>139.75</ele><time>2026-03-28T09:13:41Z</time></trkpt><trkpt lat="45.421670465524" lon="10.485628237799071"><ele>140.0</ele><time>2026-03-28T09:13:42Z</time></trkpt><trkpt lat="45.421811208075994" lon="10.485675941201125"><ele>140.0</ele><time>2026-03-28T09:13:43Z</time></trkpt><trkpt lat="45.421939873009585" lon="10.485742721773594"><ele>140.0</ele><time>2026-03-28T09:13:44Z</time></trkpt><trkpt lat="45.42202550456778" lon="10.485801821976427"><ele>140.0</ele><time>2026-03-28T09:13:45Z</time></trkpt><trkpt lat="45.422091427011004" lon="10.48585727552599"><ele>140.0</ele><time>2026-03-28T09:13:46Z</time></trkpt><trkpt lat="45.42215351153981" lon="10.485924385581262"><ele>140.0</ele><time>2026-03-28T09:13:47Z</time></trkpt><trkpt lat="45.42223119952362" lon="10.486021058022494"><ele>140.4</ele><time>2026-03-28T09:13:48Z</time></trkpt><trkpt lat="45.42230843984329" lon="10.48612258802777"><ele>140.8</ele><time>2026-03-28T09:13:49Z</time></trkpt><trkpt lat="45.42236730853734" lon="10.486260016251848"><ele>141.2</ele><time>2026-03-28T09:13:50Z</time></trkpt><trkpt lat="45.42237968537633" lon="10.486398449142078"><ele>141.6</ele><time>2026-03-28T09:13:51Z</time></trkpt><trkpt lat="45.4223856650155" lon="10.486512620441806"><ele>142.0</ele><time>2026-03-28T09:13:52Z</time></trkpt><trkpt lat="45.422391414952514" lon="10.486657753992468"><ele>142.5</ele><time>2026-03-28T09:13:53Z</time></trkpt><trkpt lat="45.422394254687255" lon="10.486840481210582"><ele>143.0</ele><time>2026-03-28T09:13:54Z</time></trkpt><trkpt lat="45.42239735234418" lon="10.487046048054879"><ele>143.5</ele><time>2026-03-28T09:13:55Z</time></trkpt><trkpt lat="45.422384186901695" lon="10.487256367791383"><ele>144.0</ele><time>2026-03-28T09:13:56Z</time></trkpt><trkpt lat="45.422373827767" lon="10.487442999872952"><ele>144.75</ele><time>2026-03-28T09:13:57Z</time></trkpt><trkpt lat="45.42238175527804" lon="10.48760972714994"><ele>145.5</ele><time>2026-03-28T09:13:58Z</time></trkpt><trkpt lat="45.422412632445216" lon="10.487774826559466"><ele>146.25</ele><time>2026-03-28T09:13:59Z</time></trkpt><trkpt lat="45.42245614558146" lon="10.487941628135836"><ele>147.0</ele><time>2026-03-28T09:14:00Z</time></trkpt><trkpt lat="45.42250460978047" lon="10.488081927396836"><ele>147.6</ele><time>2026-03-28T09:14:01Z</time></trkpt><trkpt lat="45.42254960299291" lon="10.488176920502431"><ele>148.2</ele><time>2026-03-28T09:14:02Z</time></trkpt><trkpt lat="45.42261428198173" lon="10.488269614229681"><ele>148.8</ele><time>2026-03-28T09:14:03Z</time></trkpt><trkpt lat="45.42270547542744" lon="10.488362778405687"><ele>149.4</ele><time>2026-03-28T09:14:04Z</time></trkpt><trkpt lat="45.42281973021567" lon="10.488474318718682"><ele>150.0</ele><time>2026-03-28T09:14:05Z</time></trkpt><trkpt lat="45.422965183694885" lon="10.488584584889367"><ele>150.0</ele><time>2026-03-28T09:14:06Z</time></trkpt><trkpt lat="45.423099425058346" lon="10.48870640417914"><ele>150.0</ele><time>2026-03-28T09:14:07Z</time></trkpt><trkpt lat="45.4232586452649" lon="10.48882866875906"><ele>150.0</ele><time>2026-03-28T09:14:08Z</time></trkpt><trkpt lat="45.423414509775846" lon="10.488952727189222"><ele>150.75</ele><time>2026-03-28T09:14:09Z</time></trkpt><trkpt lat="45.423548146278684" lon="10.489056082722277"><ele>151.5</ele><time>2026-03-28T09:14:10Z</time></trkpt><trkpt lat="45.423645374906506" lon="10.489167751967422"><ele>152.25</ele><time>2026-03-28T09:14:11Z</time></trkpt><trkpt lat="45.42373431570243" lon="10.489257259964809"><ele>153.0</ele><time>2026-03-28T09:14:12Z</time></trkpt><trkpt lat="45.4238195715432" lon="10.489361540038292"><ele>153.0</ele><time>2026-03-28T09:14:13Z</time></trkpt><trkpt lat="45.42389639451383" lon="10.489460996115819"><ele>153.0</ele><time>2026-03-28T09:14:14Z</time></trkpt><trkpt lat="45.42399081309598" lon="10.489586444678489"><ele>153.0</ele><time>2026-03-28T09:14:15Z</time></trkpt><trkpt lat="45.42410340577457" lon="10.489708024026958"><ele>153.0</ele><time>2026-03-28T09:14:16Z</time></trkpt><trkpt lat="45.42420890512644" lon="10.489860659900515"><ele>152.75</ele><time>2026-03-28T09:14:17Z</time></trkpt><trkpt lat="45.42431492348307" lon="10.490008887978172"><ele>152.5</ele><time>2026-03-28T09:14:18Z</time></trkpt><trkpt lat="45.42442859286946" lon="10.490161328087066"><ele>152.25</ele><time>2026-03-28T09:14:19Z</time></trkpt><trkpt lat="45.42453658234231" lon="10.490296650943405"><ele>152.0</ele><time>2026-03-28T09:14:20Z</time></trkpt><trkpt lat="45.424651434934034" lon="10.490437784126469"><ele>153.25</ele><time>2026-03-28T09:14:21Z</time></trkpt><trkpt lat="45.42475719200597" lon="10.490573190772693"><ele>154.5</ele><time>2026-03-28T09:14:22Z</time></trkpt><trkpt lat="45.42484786975111" lon="10.49068999040891"><ele>155.75</ele><time>2026-03-28T09:14:23Z</time></trkpt><trkpt lat="45.42492983433452" lon="10.490802372546613"><ele>157.0</ele><time>2026-03-28T09:14:24Z</time></trkpt><trkpt lat="45.42496864115373" lon="10.490925943420008"><ele>157.0</ele><time>2026-03-28T09:14:25Z</time></trkpt><trkpt lat="45.42500113391474" lon="10.491035265022775"><ele>157.0</ele><time>2026-03-28T09:14:26Z</time></trkpt><trkpt lat="45.42502045337953" lon="10.49115748937493"><ele>157.0</ele><time>2026-03-28T09:14:27Z</time></trkpt><trkpt lat="45.425024457312674" lon="10.491265007730854"><ele>157.0</ele><time>2026-03-28T09:14:28Z</time></trkpt><trkpt lat="45.425021969283634" lon="10.491408804749769"><ele>157.0</ele><time>2026-03-28T09:14:29Z</time></trkpt><trkpt lat="45.4250188038752" lon="10.491539401966492"><ele>157.0</ele><time>2026-03-28T09:14:30Z</time></trkpt><trkpt lat="45.425008495553755" lon="10.49172607660828"><ele>156.0</ele><time>2026-03-28T09:14:31Z</time></trkpt><trkpt lat="45.424997904381286" lon="10.491942945868525"><ele>155.0</ele><time>2026-03-28T09:14:32Z</time></trkpt><trkpt lat="45.425006123863554" lon="10.49215764490778"><ele>154.0</ele><time>2026-03-28T09:14:33Z</time></trkpt><trkpt lat="45.42501968574577" lon="10.492333271917799"><ele>153.0</ele><time>2026-03-28T09:14:34Z</time></trkpt><trkpt lat="45.42502350184918" lon="10.492492531330445"><ele>152.16666666666666</ele><time>2026-03-28T09:14:35Z</time></trkpt><trkpt lat="45.42503751969076" lon="10.492600475254713"><ele>151.33333333333334</ele><time>2026-03-28T09:14:36Z</time></trkpt><trkpt lat="45.42506939341567" lon="10.492690158435945"><ele>150.5</ele><time>2026-03-28T09:14:37Z</time></trkpt><trkpt lat="45.425105669386646" lon="10.492767361381341"><ele>149.66666666666669</ele><time>2026-03-28T09:14:38Z</time></trkpt><trkpt lat="45.42516476727718" lon="10.492819805760584"><ele>148.83333333333334</ele><time>2026-03-28T09:14:39Z</time></trkpt><trkpt lat="45.4252525546458" lon="10.492885551897727"><ele>148.0</ele><time>2026-03-28T09:14:40Z</time></trkpt><trkpt lat="45.42536975586688" lon="10.492965311225865"><ele>147.0</ele><time>2026-03-28T09:14:41Z</time></trkpt><trkpt lat="45.4255170172491" lon="10.493051669814847"><ele>146.0</ele><time>2026-03-28T09:14:42Z</time></trkpt><trkpt lat="45.425665404423626" lon="10.49314720654641"><ele>145.0</ele><time>2026-03-28T09:14:43Z</time></trkpt><trkpt lat="45.42582099016878" lon="10.493246378149827"><ele>145.0</ele><time>2026-03-28T09:14:44Z</time></trkpt><trkpt lat="45.42599578526555" lon="10.493355668966462"><ele>145.0</ele><time>2026-03-28T09:14:45Z</time></trkpt><trkpt lat="45.42615025439962" lon="10.493449680512137"><ele>145.0</ele><time>2026-03-28T09:14:46Z</time></trkpt><trkpt lat="45.42631431954578" lon="10.493545250169255"><ele>144.0</ele><time>2026-03-28T09:14:47Z</time></trkpt><trkpt lat="45.426477280645145" lon="10.493650051364607"><ele>143.0</ele><time>2026-03-28T09:14:48Z</time></trkpt><trkpt lat="45.42661776954707" lon="10.493769064472064"><ele>142.0</ele><time>2026-03-28T09:14:49Z</time></trkpt><trkpt lat="45.42674453381095" lon="10.493878634574079"><ele>142.0</ele><time>2026-03-28T09:14:50Z</time></trkpt><trkpt lat="45.42686411748052" lon="10.493983719889375"><ele>142.0</ele><time>2026-03-28T09:14:51Z</time></trkpt><trkpt lat="45.42697539194325" lon="10.494067571858864"><ele>142.0</ele><time>2026-03-28T09:14:52Z</time></trkpt><trkpt lat="45.42706499094427" lon="10.494121580419712"><ele>142.0</ele><time>2026-03-28T09:14:53Z</time></trkpt><trkpt lat="45.42712547908441" lon="10.494151066929073"><ele>142.0</ele><time>2026-03-28T09:14:54Z</time></trkpt><trkpt lat="45.427212118215685" lon="10.494129560562266"><ele>142.6</ele><time>2026-03-28T09:14:57Z</time></trkpt><trkpt lat="45.427279614467544" lon="10.494122530538048"><ele>143.2</ele><time>2026-03-28T09:14:58Z</time></trkpt><trkpt lat="45.42737697752333" lon="10.494110775569537"><ele>143.8</ele><time>2026-03-28T09:14:59Z</time></trkpt><trkpt lat="45.42749757680613" lon="10.49410004713778"><ele>144.4</ele><time>2026-03-28T09:15:00Z</time></trkpt><trkpt lat="45.427634733754616" lon="10.494080049585659"><ele>145.0</ele><time>2026-03-28T09:15:01Z</time></trkpt><trkpt lat="45.427798855311046" lon="10.494064127919446"><ele>145.0</ele><time>2026-03-28T09:15:02Z</time></trkpt><trkpt lat="45.42795128795157" lon="10.494045297756603"><ele>145.0</ele><time>2026-03-28T09:15:03Z</time></trkpt><trkpt lat="45.42808285175345" lon="10.494041331238952"><ele>145.0</ele><time>2026-03-28T09:15:04Z</time></trkpt><trkpt lat="45.428209345718784" lon="10.494052582779545"><ele>145.0</ele><time>2026-03-28T09:15:05Z</time></trkpt><trkpt lat="45.428301163257615" lon="10.49407595262637"><ele>145.75</ele><time>2026-03-28T09:15:06Z</time></trkpt><trkpt lat="45.428398641684936" lon="10.49413048197479"><ele>146.5</ele><time>2026-03-28T09:15:07Z</time></trkpt><trkpt lat="45.42851922559346" lon="10.494215109004159"><ele>147.25</ele><time>2026-03-28T09:15:08Z</time></trkpt><trkpt lat="45.42866504569462" lon="10.494305441713799"><ele>148.0</ele><time>2026-03-28T09:15:09Z</time></trkpt><trkpt lat="45.42880836411518" lon="10.4943878819307"><ele>148.5</ele><time>2026-03-28T09:15:10Z</time></trkpt><trkpt lat="45.42894190844431" lon="10.494457913201453"><ele>149.0</ele><time>2026-03-28T09:15:11Z</time></trkpt><trkpt lat="45.42906866081521" lon="10.49451876687025"><ele>149.5</ele><time>2026-03-28T09:15:12Z</time></trkpt><trkpt lat="45.42916862167403" lon="10.494588738061752"><ele>150.0</ele><time>2026-03-28T09:15:13Z</time></trkpt><trkpt lat="45.4292851100048" lon="10.4946601423067"><ele>148.5</ele><time>2026-03-28T09:15:14Z</time></trkpt><trkpt lat="45.429411595841394" lon="10.494742938458035"><ele>147.0</ele><time>2026-03-28T09:15:15Z</time></trkpt><trkpt lat="45.42953754792282" lon="10.494833351194389"><ele>145.5</ele><time>2026-03-28T09:15:16Z</time></trkpt><trkpt lat="45.429655681503284" lon="10.494936166209332"><ele>144.0</ele><time>2026-03-28T09:15:17Z</time></trkpt><trkpt lat="45.429781226924874" lon="10.495070534226032"><ele>145.5</ele><time>2026-03-28T09:15:18Z</time></trkpt><trkpt lat="45.42988885793938" lon="10.495196977559285"><ele>147.0</ele><time>2026-03-28T09:15:19Z</time></trkpt><trkpt lat="45.42999131874274" lon="10.49531906645383"><ele>148.5</ele><time>2026-03-28T09:15:20Z</time></trkpt><trkpt lat="45.43007667149448" lon="10.495428824622538"><ele>150.0</ele><time>2026-03-28T09:15:21Z</time></trkpt><trkpt lat="45.430147803804545" lon="10.495542683379007"><ele>150.0</ele><time>2026-03-28T09:15:22Z</time></trkpt><trkpt lat="45.430216994509856" lon="10.495689978306022"><ele>150.0</ele><time>2026-03-28T09:15:23Z</time></trkpt><trkpt lat="45.4302740981117" lon="10.495866176309319"><ele>150.0</ele><time>2026-03-28T09:15:24Z</time></trkpt><trkpt lat="45.430336274129225" lon="10.496015527879445"><ele>150.0</ele><time>2026-03-28T09:15:25Z</time></trkpt><trkpt lat="45.430419180876775" lon="10.496176585803347"><ele>152.0</ele><time>2026-03-28T09:15:26Z</time></trkpt><trkpt lat="45.43049397788707" lon="10.496306732657379"><ele>154.0</ele><time>2026-03-28T09:15:27Z</time></trkpt><trkpt lat="45.43056806229884" lon="10.49642105417693"><ele>156.0</ele><time>2026-03-28T09:15:28Z</time></trkpt><trkpt lat="45.430668508456776" lon="10.49654356825832"><ele>158.0</ele><time>2026-03-28T09:15:29Z</time></trkpt><trkpt lat="45.43078204001606" lon="10.496672718370421"><ele>158.0</ele><time>2026-03-28T09:15:30Z</time></trkpt><trkpt lat="45.430911756211515" lon="10.496794233466888"><ele>158.0</ele><time>2026-03-28T09:15:31Z</time></trkpt><trkpt lat="45.4310392257642" lon="10.496895207801124"><ele>158.0</ele><time>2026-03-28T09:15:32Z</time></trkpt><trkpt lat="45.43115610583761" lon="10.496992019339695"><ele>158.0</ele><time>2026-03-28T09:15:33Z</time></trkpt><trkpt lat="45.431240080318624" lon="10.497067812255365"><ele>157.6</ele><time>2026-03-28T09:15:34Z</time></trkpt><trkpt lat="45.431299562771315" lon="10.497129628092337"><ele>157.20000000000002</ele><time>2026-03-28T09:15:35Z</time></trkpt><trkpt lat="45.43135121720204" lon="10.49721020019591"><ele>156.8</ele><time>2026-03-28T09:15:36Z</time></trkpt><trkpt lat="45.43138897788581" lon="10.497361345675863"><ele>156.4</ele><time>2026-03-28T09:15:37Z</time></trkpt><trkpt lat="45.43146856839374" lon="10.497524016872385"><ele>156.0</ele><time>2026-03-28T09:15:38Z</time></trkpt><trkpt lat="45.43154284513297" lon="10.497756610051594"><ele>154.5</ele><time>2026-03-28T09:15:39Z</time></trkpt><trkpt lat="45.43162022869455" lon="10.497979591285295"><ele>153.0</ele><time>2026-03-28T09:15:40Z</time></trkpt><trkpt lat="45.43167779148074" lon="10.49815663441735"><ele>151.5</ele><time>2026-03-28T09:15:41Z</time></trkpt><trkpt lat="45.4317208022491" lon="10.498308121026534"><ele>150.0</ele><time>2026-03-28T09:15:42Z</time></trkpt><trkpt lat="45.431753136751176" lon="10.498472656585607"><ele>150.0</ele><time>2026-03-28T09:15:43Z</time></trkpt><trkpt lat="45.43175757291025" lon="10.49864351723095"><ele>150.0</ele><time>2026-03-28T09:15:44Z</time></trkpt><trkpt lat="45.43174666877828" lon="10.498846626508032"><ele>150.0</ele><time>2026-03-28T09:15:45Z</time></trkpt><trkpt lat="45.43172244166157" lon="10.499078672891882"><ele>150.0</ele><time>2026-03-28T09:15:46Z</time></trkpt><trkpt lat="45.43169362022876" lon="10.49930558267874"><ele>150.0</ele><time>2026-03-28T09:15:47Z</time></trkpt><trkpt lat="45.4316448361157" lon="10.499483700395425"><ele>150.0</ele><time>2026-03-28T09:15:48Z</time></trkpt><trkpt lat="45.43161860639018" lon="10.499651263229095"><ele>150.0</ele><time>2026-03-28T09:15:49Z</time></trkpt><trkpt lat="45.43158767666011" lon="10.499818805958803"><ele>150.0</ele><time>2026-03-28T09:15:50Z</time></trkpt><trkpt lat="45.43158287056955" lon="10.499982126764742"><ele>150.0</ele><time>2026-03-28T09:15:51Z</time></trkpt><trkpt lat="45.43155049643635" lon="10.50014484120106"><ele>150.0</ele><time>2026-03-28T09:15:52Z</time></trkpt><trkpt lat="45.43151481398913" lon="10.500349786002594"><ele>150.0</ele><time>2026-03-28T09:15:53Z</time></trkpt><trkpt lat="45.4314780689966" lon="10.50055030780039"><ele>150.0</ele><time>2026-03-28T09:15:54Z</time></trkpt><trkpt lat="45.43142423140566" lon="10.500741083731295"><ele>149.33333333333334</ele><time>2026-03-28T09:15:55Z</time></trkpt><trkpt lat="45.431377501150486" lon="10.501001008140893"><ele>148.66666666666669</ele><time>2026-03-28T09:15:56Z</time></trkpt><trkpt lat="45.431328922141546" lon="10.50129022276427"><ele>148.0</ele><time>2026-03-28T09:15:57Z</time></trkpt><trkpt lat="45.43129799434031" lon="10.50154298282671"><ele>147.8</ele><time>2026-03-28T09:15:58Z</time></trkpt><trkpt lat="45.431258611601336" lon="10.50173498429698"><ele>147.60000000000002</ele><time>2026-03-28T09:15:59Z</time></trkpt><trkpt lat="45.431231829453914" lon="10.501874468075174"><ele>147.39999999999998</ele><time>2026-03-28T09:16:00Z</time></trkpt><trkpt lat="45.43121011899876" lon="10.501973275680202"><ele>147.2</ele><time>2026-03-28T09:16:01Z</time></trkpt><trkpt lat="45.43115444525407" lon="10.502052416980616"><ele>147.0</ele><time>2026-03-28T09:16:03Z</time></trkpt><trkpt lat="45.4310513960123" lon="10.501976965692108"><ele>147.0</ele><time>2026-03-28T09:16:05Z</time></trkpt><trkpt lat="45.4309881691816" lon="10.501858044612208"><ele>147.0</ele><time>2026-03-28T09:16:06Z</time></trkpt><trkpt lat="45.43089291841334" lon="10.501751270386896"><ele>147.0</ele><time>2026-03-28T09:16:07Z</time></trkpt><trkpt lat="45.43077821897515" lon="10.50165111783433"><ele>147.0</ele><time>2026-03-28T09:16:08Z</time></trkpt><trkpt lat="45.43065120728617" lon="10.5015350309653"><ele>147.0</ele><time>2026-03-28T09:16:09Z</time></trkpt><trkpt lat="45.43052291890556" lon="10.501382159497181"><ele>147.0</ele><time>2026-03-28T09:16:10Z</time></trkpt><trkpt lat="45.43037774783736" lon="10.501233288844587"><ele>147.0</ele><time>2026-03-28T09:16:11Z</time></trkpt><trkpt lat="45.43011603671529" lon="10.500977542459996"><ele>146.6</ele><time>2026-03-28T09:16:13Z</time></trkpt><trkpt lat="45.430004984450214" lon="10.500880700128276"><ele>146.2</ele><time>2026-03-28T09:16:14Z</time></trkpt><trkpt lat="45.42992069820947" lon="10.500803375365884"><ele>145.8</ele><time>2026-03-28T09:16:15Z</time></trkpt><trkpt lat="45.429862524683756" lon="10.500745914831615"><ele>145.4</ele><time>2026-03-28T09:16:16Z</time></trkpt><trkpt lat="45.42980329515354" lon="10.500681035256235"><ele>145.0</ele><time>2026-03-28T09:16:19Z</time></trkpt><trkpt lat="45.429696212823856" lon="10.500803630347042"><ele>145.0</ele><time>2026-03-28T09:16:20Z</time></trkpt><trkpt lat="45.42965918506356" lon="10.500902686056982"><ele>145.0</ele><time>2026-03-28T09:16:21Z</time></trkpt><trkpt lat="45.42961127845085" lon="10.501009960538424"><ele>145.0</ele><time>2026-03-28T09:16:22Z</time></trkpt><trkpt lat="45.42955694684917" lon="10.50111096419724"><ele>145.0</ele><time>2026-03-28T09:16:23Z</time></trkpt><trkpt lat="45.429479352631" lon="10.5012264111346"><ele>145.0</ele><time>2026-03-28T09:16:24Z</time></trkpt><trkpt lat="45.429413000022706" lon="10.50132673823582"><ele>146.0</ele><time>2026-03-28T09:16:25Z</time></trkpt><trkpt lat="45.42934308822724" lon="10.501430499362453"><ele>147.0</ele><time>2026-03-28T09:16:26Z</time></trkpt><trkpt lat="45.42927086402463" lon="10.501534276894589"><ele>148.0</ele><time>2026-03-28T09:16:27Z</time></trkpt><trkpt lat="45.429211232243084" lon="10.501647546249114"><ele>149.0</ele><time>2026-03-28T09:16:28Z</time></trkpt><trkpt lat="45.429160311219746" lon="10.501713504442057"><ele>150.0</ele><time>2026-03-28T09:16:29Z</time></trkpt><trkpt lat="45.429118102377416" lon="10.50178092326899"><ele>151.0</ele><time>2026-03-28T09:16:30Z</time></trkpt><trkpt lat="45.42905167410676" lon="10.501908594086197"><ele>151.0</ele><time>2026-03-28T09:16:32Z</time></trkpt><trkpt lat="45.429007223281644" lon="10.50204572113339"><ele>151.0</ele><time>2026-03-28T09:16:33Z</time></trkpt><trkpt lat="45.428976697924696" lon="10.502195121831416"><ele>151.0</ele><time>2026-03-28T09:16:34Z</time></trkpt><trkpt lat="45.42893262082646" lon="10.502347804833402"><ele>151.0</ele><time>2026-03-28T09:16:35Z</time></trkpt><trkpt lat="45.42889523248662" lon="10.50245856403436"><ele>151.0</ele><time>2026-03-28T09:16:36Z</time></trkpt><trkpt lat="45.42884380989982" lon="10.502571673902711"><ele>151.16666666666669</ele><time>2026-03-28T09:16:37Z</time></trkpt><trkpt lat="45.42880775320064" lon="10.502680274246542"><ele>151.33333333333334</ele><time>2026-03-28T09:16:38Z</time></trkpt><trkpt lat="45.42878371199158" lon="10.50278681384272"><ele>151.5</ele><time>2026-03-28T09:16:39Z</time></trkpt><trkpt lat="45.42873867782712" lon="10.502885963164735"><ele>151.66666666666666</ele><time>2026-03-28T09:16:40Z</time></trkpt><trkpt lat="45.42869138286505" lon="10.50297762406626"><ele>151.83333333333331</ele><time>2026-03-28T09:16:41Z</time></trkpt><trkpt lat="45.428594914584345" lon="10.503070077917762"><ele>152.0</ele><time>2026-03-28T09:16:43Z</time></trkpt><trkpt lat="45.428528971597714" lon="10.503112196772452"><ele>151.6</ele><time>2026-03-28T09:16:44Z</time></trkpt><trkpt lat="45.42845610847772" lon="10.503144824499325"><ele>151.2</ele><time>2026-03-28T09:16:45Z</time></trkpt><trkpt lat="45.42831694930304" lon="10.50322884283206"><ele>150.8</ele><time>2026-03-28T09:16:47Z</time></trkpt><trkpt lat="45.42821410415085" lon="10.503352705010979"><ele>150.4</ele><time>2026-03-28T09:16:49Z</time></trkpt><trkpt lat="45.42816721579975" lon="10.503448877804422"><ele>150.0</ele><time>2026-03-28T09:16:50Z</time></trkpt><trkpt lat="45.4281174593984" lon="10.503569231203702"><ele>150.0</ele><time>2026-03-28T09:16:51Z</time></trkpt><trkpt lat="45.42807265071805" lon="10.503666469558237"><ele>150.0</ele><time>2026-03-28T09:16:52Z</time></trkpt><trkpt lat="45.42797431558941" lon="10.503780909155692"><ele>150.0</ele><time>2026-03-28T09:16:54Z</time></trkpt><trkpt lat="45.42782721980882" lon="10.503805741139514"><ele>150.0</ele><time>2026-03-28T09:16:56Z</time></trkpt><trkpt lat="45.42773835600255" lon="10.503851913199002"><ele>148.16666666666666</ele><time>2026-03-28T09:16:57Z</time></trkpt><trkpt lat="45.427655882641034" lon="10.503912682761909"><ele>146.33333333333334</ele><time>2026-03-28T09:16:58Z</time></trkpt><trkpt lat="45.42756950306493" lon="10.503990814924148"><ele>144.5</ele><time>2026-03-28T09:16:59Z</time></trkpt><trkpt lat="45.42751377146713" lon="10.504046911899797"><ele>142.66666666666669</ele><time>2026-03-28T09:17:00Z</time></trkpt><trkpt lat="45.427460146565096" lon="10.504107065374722"><ele>140.83333333333334</ele><time>2026-03-28T09:17:01Z</time></trkpt><trkpt lat="45.427387475013155" lon="10.504107882025659"><ele>139.0</ele><time>2026-03-28T09:17:03Z</time></trkpt><trkpt lat="45.42726679132141" lon="10.50416509470056"><ele>139.0</ele><time>2026-03-28T09:17:06Z</time></trkpt><trkpt lat="45.427180715002194" lon="10.504160055335712"><ele>139.0</ele><time>2026-03-28T09:17:07Z</time></trkpt><trkpt lat="45.42710201020046" lon="10.504143655945777"><ele>139.0</ele><time>2026-03-28T09:17:08Z</time></trkpt><trkpt lat="45.427033850556214" lon="10.504133655918999"><ele>139.0</ele><time>2026-03-28T09:17:09Z</time></trkpt><trkpt lat="45.42691856048016" lon="10.504132342272785"><ele>139.0</ele><time>2026-03-28T09:17:11Z</time></trkpt><trkpt lat="45.42681887166325" lon="10.504107391258344"><ele>139.16666666666669</ele><time>2026-03-28T09:17:13Z</time></trkpt><trkpt lat="45.42673557266046" lon="10.50410542474202"><ele>139.33333333333334</ele><time>2026-03-28T09:17:14Z</time></trkpt><trkpt lat="45.42664260062986" lon="10.504115392447712"><ele>139.5</ele><time>2026-03-28T09:17:15Z</time></trkpt><trkpt lat="45.42656787681249" lon="10.504130166679863"><ele>139.66666666666666</ele><time>2026-03-28T09:17:16Z</time></trkpt><trkpt lat="45.426503065788665" lon="10.504166111687562"><ele>139.83333333333331</ele><time>2026-03-28T09:17:17Z</time></trkpt><trkpt lat="45.42640616905085" lon="10.504231689583872"><ele>140.0</ele><time>2026-03-28T09:17:18Z</time></trkpt><trkpt lat="45.426294674674764" lon="10.504329785480634"><ele>139.5</ele><time>2026-03-28T09:17:19Z</time></trkpt><trkpt lat="45.42619197700154" lon="10.50444000906099"><ele>139.0</ele><time>2026-03-28T09:17:20Z</time></trkpt><trkpt lat="45.42609250890926" lon="10.504540389821138"><ele>138.5</ele><time>2026-03-28T09:17:21Z</time></trkpt><trkpt lat="45.42599312838666" lon="10.50460751153079"><ele>138.0</ele><time>2026-03-28T09:17:22Z</time></trkpt><trkpt lat="45.42590803606268" lon="10.504683926502379"><ele>136.20000000000002</ele><time>2026-03-28T09:17:23Z</time></trkpt><trkpt lat="45.425827258356186" lon="10.504745928051257"><ele>134.4</ele><time>2026-03-28T09:17:24Z</time></trkpt><trkpt lat="45.425754098962834" lon="10.504829129628659"><ele>132.60000000000002</ele><time>2026-03-28T09:17:25Z</time></trkpt><trkpt lat="45.4256676797351" lon="10.504896192713545"><ele>130.8</ele><time>2026-03-28T09:17:26Z</time></trkpt><trkpt lat="45.4255939555307" lon="10.504962383255231"><ele>129.0</ele><time>2026-03-28T09:17:27Z</time></trkpt><trkpt lat="45.42551717351757" lon="10.50510214824002"><ele>129.0</ele><time>2026-03-28T09:17:29Z</time></trkpt><trkpt lat="45.425371269856676" lon="10.504985025911408"><ele>129.0</ele><time>2026-03-28T09:17:30Z</time></trkpt><trkpt lat="45.42523074423599" lon="10.504957582224167"><ele>129.0</ele><time>2026-03-28T09:17:31Z</time></trkpt><trkpt lat="45.42507396059653" lon="10.504951253807869"><ele>129.0</ele><time>2026-03-28T09:17:32Z</time></trkpt><trkpt lat="45.42491387115617" lon="10.504931408601239"><ele>129.0</ele><time>2026-03-28T09:17:33Z</time></trkpt><trkpt lat="45.42474367105924" lon="10.50493866859821"><ele>129.0</ele><time>2026-03-28T09:17:34Z</time></trkpt><trkpt lat="45.42458957795284" lon="10.504933585133202"><ele>129.0</ele><time>2026-03-28T09:17:35Z</time></trkpt><trkpt lat="45.42443029684408" lon="10.504929454943918"><ele>129.0</ele><time>2026-03-28T09:17:36Z</time></trkpt><trkpt lat="45.4242876681888" lon="10.504886331761226"><ele>129.0</ele><time>2026-03-28T09:17:37Z</time></trkpt><trkpt lat="45.4241206058806" lon="10.50483942797642"><ele>129.0</ele><time>2026-03-28T09:17:38Z</time></trkpt><trkpt lat="45.42394967198717" lon="10.50478057843619"><ele>129.0</ele><time>2026-03-28T09:17:39Z</time></trkpt><trkpt lat="45.4238144926604" lon="10.50471575938658"><ele>129.0</ele><time>2026-03-28T09:17:40Z</time></trkpt><trkpt lat="45.42368574804599" lon="10.504619550903913"><ele>128.33333333333334</ele><time>2026-03-28T09:17:41Z</time></trkpt><trkpt lat="45.42353863266816" lon="10.504490126003557"><ele>127.66666666666667</ele><time>2026-03-28T09:17:42Z</time></trkpt><trkpt lat="45.42337082122609" lon="10.504329988699967"><ele>127.0</ele><time>2026-03-28T09:17:43Z</time></trkpt><trkpt lat="45.423198191115006" lon="10.504177906722486"><ele>127.0</ele><time>2026-03-28T09:17:44Z</time></trkpt><trkpt lat="45.4230025243794" lon="10.504058170273042"><ele>127.0</ele><time>2026-03-28T09:17:45Z</time></trkpt><trkpt lat="45.42280432797159" lon="10.503941138972388"><ele>127.0</ele><time>2026-03-28T09:17:46Z</time></trkpt><trkpt lat="45.42260600612701" lon="10.503826097502943"><ele>127.0</ele><time>2026-03-28T09:17:47Z</time></trkpt><trkpt lat="45.42240928571295" lon="10.503727879929327"><ele>127.0</ele><time>2026-03-28T09:17:48Z</time></trkpt><trkpt lat="45.42222601570196" lon="10.503655383383188"><ele>127.0</ele><time>2026-03-28T09:17:49Z</time></trkpt><trkpt lat="45.422064881187374" lon="10.503591329214629"><ele>126.25</ele><time>2026-03-28T09:17:50Z</time></trkpt><trkpt lat="45.42191981003393" lon="10.503538134305265"><ele>125.5</ele><time>2026-03-28T09:17:51Z</time></trkpt><trkpt lat="45.421814852526246" lon="10.503495778351592"><ele>124.75</ele><time>2026-03-28T09:17:52Z</time></trkpt><trkpt lat="45.42172925422429" lon="10.503445017310845"><ele>124.0</ele><time>2026-03-28T09:17:53Z</time></trkpt><trkpt lat="45.42164724590652" lon="10.503358942416716"><ele>124.0</ele><time>2026-03-28T09:17:54Z</time></trkpt><trkpt lat="45.42154638739932" lon="10.503236466796494"><ele>124.0</ele><time>2026-03-28T09:17:55Z</time></trkpt><trkpt lat="45.421453935558134" lon="10.503123358660039"><ele>124.0</ele><time>2026-03-28T09:17:56Z</time></trkpt><trkpt lat="45.421384265583995" lon="10.50304659184835"><ele>124.0</ele><time>2026-03-28T09:17:57Z</time></trkpt><trkpt lat="45.42126788471918" lon="10.502996331994463"><ele>124.25</ele><time>2026-03-28T09:17:59Z</time></trkpt><trkpt lat="45.42119866061583" lon="10.503106921287436"><ele>124.5</ele><time>2026-03-28T09:18:00Z</time></trkpt><trkpt lat="45.42115897051148" lon="10.503294212684397"><ele>124.75</ele><time>2026-03-28T09:18:01Z</time></trkpt><trkpt lat="45.42111474565974" lon="10.503511470974734"><ele>125.0</ele><time>2026-03-28T09:18:02Z</time></trkpt><trkpt lat="45.4210707048682" lon="10.503736555831182"><ele>124.66666666666666</ele><time>2026-03-28T09:18:03Z</time></trkpt><trkpt lat="45.42097811484088" lon="10.503918862542132"><ele>124.33333333333334</ele><time>2026-03-28T09:18:04Z</time></trkpt><trkpt lat="45.420876173677655" lon="10.504090282247907"><ele>124.0</ele><time>2026-03-28T09:18:05Z</time></trkpt><trkpt lat="45.420796524799464" lon="10.504276483609098"><ele>124.0</ele><time>2026-03-28T09:18:06Z</time></trkpt><trkpt lat="45.42073314722015" lon="10.504437352299023"><ele>124.0</ele><time>2026-03-28T09:18:07Z</time></trkpt><trkpt lat="45.420697160257184" lon="10.504638654186824"><ele>124.0</ele><time>2026-03-28T09:18:08Z</time></trkpt><trkpt lat="45.420679366570056" lon="10.504896364024107"><ele>122.5</ele><time>2026-03-28T09:18:09Z</time></trkpt><trkpt lat="45.420646732027976" lon="10.505223976512642"><ele>121.0</ele><time>2026-03-28T09:18:10Z</time></trkpt><trkpt lat="45.42059446120803" lon="10.505569147255061"><ele>121.0</ele><time>2026-03-28T09:18:11Z</time></trkpt><trkpt lat="45.42054741730558" lon="10.50589667937981"><ele>121.0</ele><time>2026-03-28T09:18:12Z</time></trkpt><trkpt lat="45.42050942337794" lon="10.506180382666978"><ele>121.0</ele><time>2026-03-28T09:18:13Z</time></trkpt><trkpt lat="45.42047293516067" lon="10.506474468174549"><ele>120.66666666666667</ele><time>2026-03-28T09:18:14Z</time></trkpt><trkpt lat="45.42044466804017" lon="10.50674904180198"><ele>120.33333333333334</ele><time>2026-03-28T09:18:15Z</time></trkpt><trkpt lat="45.420416722881434" lon="10.507017840949926"><ele>120.0</ele><time>2026-03-28T09:18:16Z</time></trkpt><trkpt lat="45.420394613615436" lon="10.507262366160349"><ele>119.8</ele><time>2026-03-28T09:18:17Z</time></trkpt><trkpt lat="45.42037340937366" lon="10.5074774455325"><ele>119.6</ele><time>2026-03-28T09:18:18Z</time></trkpt><trkpt lat="45.42036236160039" lon="10.507633892554445"><ele>119.4</ele><time>2026-03-28T09:18:19Z</time></trkpt><trkpt lat="45.42035176424536" lon="10.507738918717333"><ele>119.2</ele><time>2026-03-28T09:18:20Z</time></trkpt><trkpt lat="45.420335398535315" lon="10.507884791938062"><ele>119.0</ele><time>2026-03-28T09:18:22Z</time></trkpt><trkpt lat="45.42037754216457" lon="10.507997350703604"><ele>118.66666666666666</ele><time>2026-03-28T09:18:23Z</time></trkpt><trkpt lat="45.420439586772666" lon="10.508169734181946"><ele>118.33333333333334</ele><time>2026-03-28T09:18:24Z</time></trkpt><trkpt lat="45.42051603664325" lon="10.50839248134574"><ele>118.0</ele><time>2026-03-28T09:18:25Z</time></trkpt><trkpt lat="45.42059551059993" lon="10.508647042272795"><ele>117.0</ele><time>2026-03-28T09:18:26Z</time></trkpt><trkpt lat="45.420666962943756" lon="10.508905753781448"><ele>116.0</ele><time>2026-03-28T09:18:27Z</time></trkpt><trkpt lat="45.42072344649186" lon="10.509144858030483"><ele>115.0</ele><time>2026-03-28T09:18:28Z</time></trkpt><trkpt lat="45.42076782175915" lon="10.50935813967127"><ele>115.0</ele><time>2026-03-28T09:18:29Z</time></trkpt><trkpt lat="45.420818763457945" lon="10.50954235213321"><ele>115.0</ele><time>2026-03-28T09:18:30Z</time></trkpt><trkpt lat="45.42089727602559" lon="10.50969720552675"><ele>115.0</ele><time>2026-03-28T09:18:31Z</time></trkpt><trkpt lat="45.42101116227672" lon="10.509845950631975"><ele>115.0</ele><time>2026-03-28T09:18:32Z</time></trkpt><trkpt lat="45.42113554317183" lon="10.509984740075778"><ele>115.50000000000001</ele><time>2026-03-28T09:18:33Z</time></trkpt><trkpt lat="45.421246295326355" lon="10.51007999267366"><ele>116.0</ele><time>2026-03-28T09:18:34Z</time></trkpt><trkpt lat="45.42132432544878" lon="10.510173961935944"><ele>116.5</ele><time>2026-03-28T09:18:35Z</time></trkpt><trkpt lat="45.42136839896604" lon="10.510271573066401"><ele>117.0</ele><time>2026-03-28T09:18:36Z</time></trkpt><trkpt lat="45.421355047254394" lon="10.51036359493736"><ele>117.50000000000001</ele><time>2026-03-28T09:18:37Z</time></trkpt><trkpt lat="45.421317471331314" lon="10.51043658556333"><ele>118.0</ele><time>2026-03-28T09:18:38Z</time></trkpt><trkpt lat="45.42125197429805" lon="10.510472552416989"><ele>119.0</ele><time>2026-03-28T09:18:39Z</time></trkpt><trkpt lat="45.42115233729048" lon="10.510494271639272"><ele>120.0</ele><time>2026-03-28T09:18:40Z</time></trkpt><trkpt lat="45.42102604504143" lon="10.510502940707866"><ele>121.0</ele><time>2026-03-28T09:18:41Z</time></trkpt><trkpt lat="45.42089187928738" lon="10.510533503428624"><ele>122.0</ele><time>2026-03-28T09:18:42Z</time></trkpt><trkpt lat="45.42077807141086" lon="10.510614544845938"><ele>122.0</ele><time>2026-03-28T09:18:43Z</time></trkpt><trkpt lat="45.42069965051671" lon="10.51074338191109"><ele>122.0</ele><time>2026-03-28T09:18:44Z</time></trkpt><trkpt lat="45.42063341912612" lon="10.510919659848547"><ele>122.0</ele><time>2026-03-28T09:18:45Z</time></trkpt><trkpt lat="45.42058207834453" lon="10.511111696944964"><ele>122.0</ele><time>2026-03-28T09:18:46Z</time></trkpt><trkpt lat="45.420575437000494" lon="10.511303076216457"><ele>121.8</ele><time>2026-03-28T09:18:47Z</time></trkpt><trkpt lat="45.42058764890763" lon="10.511443193872115"><ele>121.6</ele><time>2026-03-28T09:18:48Z</time></trkpt><trkpt lat="45.42059600248705" lon="10.511580098827169"><ele>121.39999999999999</ele><time>2026-03-28T09:18:50Z</time></trkpt><trkpt lat="45.420680398672026" lon="10.511709019817792"><ele>121.19999999999999</ele><time>2026-03-28T09:18:54Z</time></trkpt><trkpt lat="45.42074849387568" lon="10.511824346622998"><ele>121.0</ele><time>2026-03-28T09:18:55Z</time></trkpt><trkpt lat="45.420820008185174" lon="10.51190352553793"><ele>121.0</ele><time>2026-03-28T09:18:56Z</time></trkpt><trkpt lat="45.420829234669576" lon="10.51203000701139"><ele>121.0</ele><time>2026-03-28T09:18:57Z</time></trkpt><trkpt lat="45.420845470882426" lon="10.512142505392998"><ele>121.0</ele><time>2026-03-28T09:18:58Z</time></trkpt><trkpt lat="45.420745811052804" lon="10.51226705297355"><ele>121.0</ele><time>2026-03-28T09:19:00Z</time></trkpt><trkpt lat="45.420574436051865" lon="10.51223479831755"><ele>121.0</ele><time>2026-03-28T09:19:02Z</time></trkpt><trkpt lat="45.42044953013702" lon="10.512296467302251"><ele>121.0</ele><time>2026-03-28T09:19:03Z</time></trkpt><trkpt lat="45.42029324454389" lon="10.51237421663889"><ele>121.0</ele><time>2026-03-28T09:19:04Z</time></trkpt><trkpt lat="45.42012346692173" lon="10.512472401646365"><ele>121.0</ele><time>2026-03-28T09:19:05Z</time></trkpt><trkpt lat="45.41993534916568" lon="10.512542404693002"><ele>121.0</ele><time>2026-03-28T09:19:06Z</time></trkpt><trkpt lat="45.419767092073975" lon="10.512610991781383"><ele>121.0</ele><time>2026-03-28T09:19:07Z</time></trkpt><trkpt lat="45.419591130514085" lon="10.512665375231373"><ele>121.33333333333334</ele><time>2026-03-28T09:19:08Z</time></trkpt><trkpt lat="45.41937659716997" lon="10.512704879585783"><ele>121.66666666666666</ele><time>2026-03-28T09:19:09Z</time></trkpt><trkpt lat="45.419146126809785" lon="10.512724344023571"><ele>122.0</ele><time>2026-03-28T09:19:10Z</time></trkpt><trkpt lat="45.41889670802831" lon="10.512741153950646"><ele>119.5</ele><time>2026-03-28T09:19:11Z</time></trkpt><trkpt lat="45.41861116223827" lon="10.512757542465806"><ele>117.0</ele><time>2026-03-28T09:19:12Z</time></trkpt><trkpt lat="45.41830240800069" lon="10.512776903941035"><ele>117.0</ele><time>2026-03-28T09:19:13Z</time></trkpt><trkpt lat="45.41800266768034" lon="10.512797529543572"><ele>117.0</ele><time>2026-03-28T09:19:14Z</time></trkpt><trkpt lat="45.41772451045448" lon="10.512844288662812"><ele>116.0</ele><time>2026-03-28T09:19:15Z</time></trkpt><trkpt lat="45.41745353400488" lon="10.512867487624717"><ele>115.0</ele><time>2026-03-28T09:19:16Z</time></trkpt><trkpt lat="45.417187053046106" lon="10.512863834648554"><ele>115.5</ele><time>2026-03-28T09:19:17Z</time></trkpt><trkpt lat="45.41692709422373" lon="10.512882484094229"><ele>116.0</ele><time>2026-03-28T09:19:18Z</time></trkpt><trkpt lat="45.41666484610177" lon="10.512921856589283"><ele>116.0</ele><time>2026-03-28T09:19:19Z</time></trkpt><trkpt lat="45.41642179038813" lon="10.512935965404594"><ele>116.0</ele><time>2026-03-28T09:19:20Z</time></trkpt><trkpt lat="45.41619949208" lon="10.512954046923422"><ele>116.0</ele><time>2026-03-28T09:19:21Z</time></trkpt><trkpt lat="45.415978861132416" lon="10.51297561858076"><ele>116.0</ele><time>2026-03-28T09:19:22Z</time></trkpt><trkpt lat="45.415772419047116" lon="10.512990437635922"><ele>116.0</ele><time>2026-03-28T09:19:23Z</time></trkpt><trkpt lat="45.41558215257242" lon="10.512987985801052"><ele>116.33333333333333</ele><time>2026-03-28T09:19:24Z</time></trkpt><trkpt lat="45.41539840387331" lon="10.512933606906453"><ele>116.66666666666666</ele><time>2026-03-28T09:19:25Z</time></trkpt><trkpt lat="45.41523844549901" lon="10.51289762810274"><ele>117.0</ele><time>2026-03-28T09:19:26Z</time></trkpt><trkpt lat="45.4151152165883" lon="10.512867599680087"><ele>117.0</ele><time>2026-03-28T09:19:27Z</time></trkpt><trkpt lat="45.41502845648328" lon="10.512869361551092"><ele>116.99999999999999</ele><time>2026-03-28T09:19:28Z</time></trkpt><trkpt lat="45.41496976431476" lon="10.512901940066097"><ele>116.99999999999999</ele><time>2026-03-28T09:19:30Z</time></trkpt><trkpt lat="45.41496119182418" lon="10.513061070298221"><ele>117.0</ele><time>2026-03-28T09:19:32Z</time></trkpt><trkpt lat="45.41494461948242" lon="10.513194019046274"><ele>117.0</ele><time>2026-03-28T09:19:33Z</time></trkpt><trkpt lat="45.414930204806986" lon="10.513358216268959"><ele>117.0</ele><time>2026-03-28T09:19:34Z</time></trkpt><trkpt lat="45.41492282547331" lon="10.513527851007433"><ele>116.99999999999999</ele><time>2026-03-28T09:19:35Z</time></trkpt><trkpt lat="45.41492216973009" lon="10.513675459467647"><ele>116.99999999999999</ele><time>2026-03-28T09:19:36Z</time></trkpt><trkpt lat="45.414925891089034" lon="10.513810761840503"><ele>117.0</ele><time>2026-03-28T09:19:37Z</time></trkpt><trkpt lat="45.41489880541429" lon="10.513903975507535"><ele>117.0</ele><time>2026-03-28T09:19:38Z</time></trkpt><trkpt lat="45.414827083777176" lon="10.513988938890982"><ele>116.75</ele><time>2026-03-28T09:19:40Z</time></trkpt><trkpt lat="45.41474537026675" lon="10.51397491158546"><ele>116.5</ele><time>2026-03-28T09:19:41Z</time></trkpt><trkpt lat="45.414647530233786" lon="10.513967008722117"><ele>116.25</ele><time>2026-03-28T09:19:42Z</time></trkpt><trkpt lat="45.41451116497413" lon="10.513958422190482"><ele>116.0</ele><time>2026-03-28T09:19:43Z</time></trkpt><trkpt lat="45.414372098911585" lon="10.51395999317123"><ele>116.0</ele><time>2026-03-28T09:19:44Z</time></trkpt><trkpt lat="45.41425239414647" lon="10.51398542178097"><ele>116.0</ele><time>2026-03-28T09:19:45Z</time></trkpt><trkpt lat="45.4141533168706" lon="10.514047160782651"><ele>116.0</ele><time>2026-03-28T09:19:46Z</time></trkpt><trkpt lat="45.41406089433886" lon="10.514110883171055"><ele>116.0</ele><time>2026-03-28T09:19:47Z</time></trkpt><trkpt lat="45.41395784600575" lon="10.514176978711767"><ele>116.0</ele><time>2026-03-28T09:19:48Z</time></trkpt><trkpt lat="45.41384769466044" lon="10.514213070174272"><ele>116.4</ele><time>2026-03-28T09:19:49Z</time></trkpt><trkpt lat="45.41372300297745" lon="10.514250894538995"><ele>116.8</ele><time>2026-03-28T09:19:50Z</time></trkpt><trkpt lat="45.41359840385499" lon="10.51429519284635"><ele>117.20000000000002</ele><time>2026-03-28T09:19:51Z</time></trkpt><trkpt lat="45.413516135932454" lon="10.514360927588147"><ele>117.60000000000001</ele><time>2026-03-28T09:19:52Z</time></trkpt><trkpt lat="45.41346101982719" lon="10.514413454977124"><ele>118.0</ele><time>2026-03-28T09:19:53Z</time></trkpt><trkpt lat="45.41341654539165" lon="10.514492864978994"><ele>117.5</ele><time>2026-03-28T09:19:54Z</time></trkpt><trkpt lat="45.41338214469398" lon="10.514602745300015"><ele>117.0</ele><time>2026-03-28T09:19:55Z</time></trkpt><trkpt lat="45.41334820167574" lon="10.5147489006333"><ele>116.5</ele><time>2026-03-28T09:19:56Z</time></trkpt><trkpt lat="45.413309689868896" lon="10.514933549982805"><ele>116.0</ele><time>2026-03-28T09:19:57Z</time></trkpt><trkpt lat="45.41326668627954" lon="10.51514386785465"><ele>116.0</ele><time>2026-03-28T09:19:58Z</time></trkpt><trkpt lat="45.4132168186721" lon="10.515386494435004"><ele>116.0</ele><time>2026-03-28T09:19:59Z</time></trkpt><trkpt lat="45.41315802429834" lon="10.515608746628551"><ele>116.0</ele><time>2026-03-28T09:20:00Z</time></trkpt><trkpt lat="45.41308614775005" lon="10.515837856682586"><ele>116.0</ele><time>2026-03-28T09:20:01Z</time></trkpt><trkpt lat="45.41302375419914" lon="10.516018972875388"><ele>116.0</ele><time>2026-03-28T09:20:02Z</time></trkpt><trkpt lat="45.4129374942802" lon="10.5162548014546"><ele>116.0</ele><time>2026-03-28T09:20:03Z</time></trkpt><trkpt lat="45.41285857796016" lon="10.516454115216192"><ele>115.33333333333333</ele><time>2026-03-28T09:20:04Z</time></trkpt><trkpt lat="45.41278416537395" lon="10.516674709235698"><ele>114.66666666666666</ele><time>2026-03-28T09:20:05Z</time></trkpt><trkpt lat="45.41271490839601" lon="10.516894616032241"><ele>114.0</ele><time>2026-03-28T09:20:06Z</time></trkpt><trkpt lat="45.41265245742675" lon="10.517094501154663"><ele>114.0</ele><time>2026-03-28T09:20:07Z</time></trkpt><trkpt lat="45.4126002315293" lon="10.517261494041865"><ele>114.0</ele><time>2026-03-28T09:20:08Z</time></trkpt><trkpt lat="45.41254286908466" lon="10.517409102207418"><ele>114.0</ele><time>2026-03-28T09:20:09Z</time></trkpt><trkpt lat="45.4124658720166" lon="10.517554986658725"><ele>114.0</ele><time>2026-03-28T09:20:10Z</time></trkpt><trkpt lat="45.41236401536476" lon="10.517684090527323"><ele>114.0</ele><time>2026-03-28T09:20:11Z</time></trkpt><trkpt lat="45.41225192589917" lon="10.517816226365822"><ele>114.0</ele><time>2026-03-28T09:20:12Z</time></trkpt><trkpt lat="45.412139607907214" lon="10.517932864784862"><ele>114.0</ele><time>2026-03-28T09:20:13Z</time></trkpt><trkpt lat="45.41203723817605" lon="10.518055315040083"><ele>114.0</ele><time>2026-03-28T09:20:14Z</time></trkpt><trkpt lat="45.411949179738016" lon="10.518155410601747"><ele>115.25</ele><time>2026-03-28T09:20:15Z</time></trkpt><trkpt lat="45.41188456592566" lon="10.518251873316201"><ele>116.5</ele><time>2026-03-28T09:20:16Z</time></trkpt><trkpt lat="45.41182160206721" lon="10.518374141239805"><ele>117.75</ele><time>2026-03-28T09:20:17Z</time></trkpt><trkpt lat="45.411755947918586" lon="10.518542822567635"><ele>119.0</ele><time>2026-03-28T09:20:18Z</time></trkpt><trkpt lat="45.4116621685726" lon="10.518694189275555"><ele>119.0</ele><time>2026-03-28T09:20:19Z</time></trkpt><trkpt lat="45.41156956921813" lon="10.518845870572259"><ele>119.0</ele><time>2026-03-28T09:20:20Z</time></trkpt><trkpt lat="45.41147674355657" lon="10.518992494811114"><ele>119.0</ele><time>2026-03-28T09:20:21Z</time></trkpt><trkpt lat="45.41141150217772" lon="10.519102893525332"><ele>119.0</ele><time>2026-03-28T09:20:22Z</time></trkpt><trkpt lat="45.41137772792453" lon="10.519212760148415"><ele>118.99999999999999</ele><time>2026-03-28T09:20:23Z</time></trkpt><trkpt lat="45.41134295702252" lon="10.519287743260625"><ele>119.0</ele><time>2026-03-28T09:20:24Z</time></trkpt><trkpt lat="45.4113542859962" lon="10.51940457155243"><ele>119.0</ele><time>2026-03-28T09:20:26Z</time></trkpt><trkpt lat="45.41146245633423" lon="10.51949492163143"><ele>119.0</ele><time>2026-03-28T09:20:28Z</time></trkpt><trkpt lat="45.411519802625016" lon="10.519569880693204"><ele>118.99999999999999</ele><time>2026-03-28T09:20:29Z</time></trkpt><trkpt lat="45.41156158152205" lon="10.519686101191722"><ele>119.0</ele><time>2026-03-28T09:20:30Z</time></trkpt><trkpt lat="45.41158197855959" lon="10.519826068768728"><ele>118.5</ele><time>2026-03-28T09:20:31Z</time></trkpt><trkpt lat="45.41158062996654" lon="10.52000199704231"><ele>118.0</ele><time>2026-03-28T09:20:32Z</time></trkpt><trkpt lat="45.411562059914864" lon="10.520212565313399"><ele>117.5</ele><time>2026-03-28T09:20:33Z</time></trkpt><trkpt lat="45.4115499860588" lon="10.520424622066024"><ele>117.0</ele><time>2026-03-28T09:20:34Z</time></trkpt><trkpt lat="45.41154532144146" lon="10.520596817268483"><ele>116.8</ele><time>2026-03-28T09:20:35Z</time></trkpt><trkpt lat="45.411548700982244" lon="10.520725046531021"><ele>116.6</ele><time>2026-03-28T09:20:36Z</time></trkpt><trkpt lat="45.411565252748986" lon="10.520843155178449"><ele>116.39999999999999</ele><time>2026-03-28T09:20:37Z</time></trkpt><trkpt lat="45.41160985865227" lon="10.520932633006037"><ele>116.19999999999999</ele><time>2026-03-28T09:20:38Z</time></trkpt><trkpt lat="45.41168301342928" lon="10.521014618895345"><ele>116.0</ele><time>2026-03-28T09:20:39Z</time></trkpt><trkpt lat="45.41178615989485" lon="10.521086715687659"><ele>116.0</ele><time>2026-03-28T09:20:40Z</time></trkpt><trkpt lat="45.41189512196388" lon="10.521149467381834"><ele>116.0</ele><time>2026-03-28T09:20:41Z</time></trkpt><trkpt lat="45.41201276753752" lon="10.521211053693076"><ele>116.0</ele><time>2026-03-28T09:20:42Z</time></trkpt><trkpt lat="45.41208758464316" lon="10.521268447610467"><ele>116.0</ele><time>2026-03-28T09:20:43Z</time></trkpt><trkpt lat="45.41213071176233" lon="10.521345056732176"><ele>116.0</ele><time>2026-03-28T09:20:44Z</time></trkpt><trkpt lat="45.41216252601228" lon="10.521451667126115"><ele>116.19999999999999</ele><time>2026-03-28T09:20:45Z</time></trkpt><trkpt lat="45.41217690015152" lon="10.521597804822482"><ele>116.39999999999999</ele><time>2026-03-28T09:20:46Z</time></trkpt><trkpt lat="45.41215891960456" lon="10.521739361559634"><ele>116.6</ele><time>2026-03-28T09:20:47Z</time></trkpt><trkpt lat="45.41212011404526" lon="10.521892139697211"><ele>116.8</ele><time>2026-03-28T09:20:48Z</time></trkpt><trkpt lat="45.412074550376424" lon="10.522046801339485"><ele>117.0</ele><time>2026-03-28T09:20:49Z</time></trkpt><trkpt lat="45.412030545190866" lon="10.522125626660712"><ele>117.75</ele><time>2026-03-28T09:20:50Z</time></trkpt><trkpt lat="45.412163805954236" lon="10.52230757735442"><ele>118.5</ele><time>2026-03-28T09:20:54Z</time></trkpt><trkpt lat="45.41225394373181" lon="10.522362894808069"><ele>119.25</ele><time>2026-03-28T09:20:55Z</time></trkpt><trkpt lat="45.41237196882802" lon="10.522428715930738"><ele>120.0</ele><time>2026-03-28T09:20:56Z</time></trkpt><trkpt lat="45.41250459058079" lon="10.522500880022077"><ele>120.0</ele><time>2026-03-28T09:20:57Z</time></trkpt><trkpt lat="45.412648707854984" lon="10.522567228290495"><ele>120.0</ele><time>2026-03-28T09:20:58Z</time></trkpt><trkpt lat="45.4127991288589" lon="10.522633254085354"><ele>120.0</ele><time>2026-03-28T09:20:59Z</time></trkpt><trkpt lat="45.41292983249295" lon="10.52269740483175"><ele>120.0</ele><time>2026-03-28T09:21:00Z</time></trkpt><trkpt lat="45.41305468748445" lon="10.52276756168024"><ele>120.0</ele><time>2026-03-28T09:21:01Z</time></trkpt><trkpt lat="45.41319362371236" lon="10.522843526025657"><ele>120.0</ele><time>2026-03-28T09:21:02Z</time></trkpt><trkpt lat="45.41331775697678" lon="10.522902536961217"><ele>120.0</ele><time>2026-03-28T09:21:03Z</time></trkpt><trkpt lat="45.41343816392763" lon="10.522949097202185"><ele>120.0</ele><time>2026-03-28T09:21:04Z</time></trkpt><trkpt lat="45.41356562640221" lon="10.522995132990978"><ele>119.5</ele><time>2026-03-28T09:21:05Z</time></trkpt><trkpt lat="45.413692979017846" lon="10.523030828786998"><ele>119.0</ele><time>2026-03-28T09:21:06Z</time></trkpt><trkpt lat="45.413829921219246" lon="10.52304804856185"><ele>118.5</ele><time>2026-03-28T09:21:07Z</time></trkpt><trkpt lat="45.41396099059987" lon="10.523058906075013"><ele>118.0</ele><time>2026-03-28T09:21:08Z</time></trkpt><trkpt lat="45.414063499516956" lon="10.523070666689547"><ele>117.4</ele><time>2026-03-28T09:21:09Z</time></trkpt><trkpt lat="45.41413378887756" lon="10.523081825883926"><ele>116.80000000000001</ele><time>2026-03-28T09:21:10Z</time></trkpt><trkpt lat="45.4142145366732" lon="10.5231560565474"><ele>116.2</ele><time>2026-03-28T09:21:12Z</time></trkpt><trkpt lat="45.414202604865224" lon="10.523349486700834"><ele>115.6</ele><time>2026-03-28T09:21:14Z</time></trkpt><trkpt lat="45.414174449743385" lon="10.523494336136775"><ele>115.0</ele><time>2026-03-28T09:21:15Z</time></trkpt><trkpt lat="45.414133448820536" lon="10.523667523487015"><ele>115.0</ele><time>2026-03-28T09:21:16Z</time></trkpt><trkpt lat="45.414083862084524" lon="10.523866844366635"><ele>115.0</ele><time>2026-03-28T09:21:17Z</time></trkpt><trkpt lat="45.41405155352082" lon="10.524022115617885"><ele>115.0</ele><time>2026-03-28T09:21:18Z</time></trkpt><trkpt lat="45.41403447577829" lon="10.524178596786328"><ele>115.0</ele><time>2026-03-28T09:21:20Z</time></trkpt><trkpt lat="45.41408715966132" lon="10.52427994125513"><ele>115.0</ele><time>2026-03-28T09:21:22Z</time></trkpt><trkpt lat="45.41415097207243" lon="10.524318005566053"><ele>115.0</ele><time>2026-03-28T09:21:23Z</time></trkpt><trkpt lat="45.414229353900495" lon="10.5243661715907"><ele>115.0</ele><time>2026-03-28T09:21:24Z</time></trkpt><trkpt lat="45.41432428201807" lon="10.524435895326905"><ele>115.0</ele><time>2026-03-28T09:21:25Z</time></trkpt><trkpt lat="45.414431815430355" lon="10.524511411628486"><ele>115.0</ele><time>2026-03-28T09:21:26Z</time></trkpt><trkpt lat="45.414552357476055" lon="10.524606755417802"><ele>115.25</ele><time>2026-03-28T09:21:27Z</time></trkpt><trkpt lat="45.414674159338425" lon="10.524697917492848"><ele>115.5</ele><time>2026-03-28T09:21:28Z</time></trkpt><trkpt lat="45.41479731345764" lon="10.524803402061904"><ele>115.75</ele><time>2026-03-28T09:21:29Z</time></trkpt><trkpt lat="45.41492064343316" lon="10.524916580236388"><ele>116.0</ele><time>2026-03-28T09:21:30Z</time></trkpt><trkpt lat="45.41504523085093" lon="10.525034625785349"><ele>116.0</ele><time>2026-03-28T09:21:31Z</time></trkpt><trkpt lat="45.41516710300328" lon="10.525148591989813"><ele>116.0</ele><time>2026-03-28T09:21:32Z</time></trkpt><trkpt lat="45.41530099744491" lon="10.525274407827865"><ele>116.0</ele><time>2026-03-28T09:21:33Z</time></trkpt><trkpt lat="45.41542702476779" lon="10.525396486235376"><ele>115.75</ele><time>2026-03-28T09:21:34Z</time></trkpt><trkpt lat="45.41554237110263" lon="10.525513113866138"><ele>115.5</ele><time>2026-03-28T09:21:35Z</time></trkpt><trkpt lat="45.41566670138247" lon="10.525632501823072"><ele>115.25</ele><time>2026-03-28T09:21:36Z</time></trkpt><trkpt lat="45.41578552222438" lon="10.525745972744652"><ele>115.0</ele><time>2026-03-28T09:21:37Z</time></trkpt><trkpt lat="45.415904654151866" lon="10.525853687685759"><ele>115.0</ele><time>2026-03-28T09:21:38Z</time></trkpt><trkpt lat="45.41603096348068" lon="10.525964340629862"><ele>115.0</ele><time>2026-03-28T09:21:39Z</time></trkpt><trkpt lat="45.41615949792703" lon="10.526077368362552"><ele>115.0</ele><time>2026-03-28T09:21:40Z</time></trkpt><trkpt lat="45.416292551489796" lon="10.526197143940674"><ele>114.5</ele><time>2026-03-28T09:21:41Z</time></trkpt><trkpt lat="45.41642635825282" lon="10.526303176275068"><ele>114.0</ele><time>2026-03-28T09:21:42Z</time></trkpt><trkpt lat="45.416550385129256" lon="10.526400437187554"><ele>113.5</ele><time>2026-03-28T09:21:43Z</time></trkpt><trkpt lat="45.41667513891282" lon="10.526494299928085"><ele>113.0</ele><time>2026-03-28T09:21:44Z</time></trkpt><trkpt lat="45.41682435322619" lon="10.526601127332754"><ele>113.0</ele><time>2026-03-28T09:21:45Z</time></trkpt><trkpt lat="45.416977327668285" lon="10.526710045530644"><ele>113.0</ele><time>2026-03-28T09:21:46Z</time></trkpt><trkpt lat="45.41712558775823" lon="10.526819997613854"><ele>113.0</ele><time>2026-03-28T09:21:47Z</time></trkpt><trkpt lat="45.41728071654151" lon="10.526919245018712"><ele>113.66666666666666</ele><time>2026-03-28T09:21:48Z</time></trkpt><trkpt lat="45.41742465421312" lon="10.527003803323"><ele>114.33333333333334</ele><time>2026-03-28T09:21:49Z</time></trkpt><trkpt lat="45.41758843764899" lon="10.527094207350366"><ele>115.0</ele><time>2026-03-28T09:21:50Z</time></trkpt><trkpt lat="45.417756097368375" lon="10.527201853662248"><ele>115.0</ele><time>2026-03-28T09:21:51Z</time></trkpt><trkpt lat="45.417915932553946" lon="10.527298480885529"><ele>115.0</ele><time>2026-03-28T09:21:52Z</time></trkpt><trkpt lat="45.41807063919064" lon="10.527393122385392"><ele>115.0</ele><time>2026-03-28T09:21:53Z</time></trkpt><trkpt lat="45.41823705996282" lon="10.527498426160145"><ele>116.0</ele><time>2026-03-28T09:21:54Z</time></trkpt><trkpt lat="45.41840020281956" lon="10.527609637900026"><ele>117.0</ele><time>2026-03-28T09:21:55Z</time></trkpt><trkpt lat="45.41856301770974" lon="10.527710209196178"><ele>118.0</ele><time>2026-03-28T09:21:56Z</time></trkpt><trkpt lat="45.41870326765916" lon="10.52779021053985"><ele>118.0</ele><time>2026-03-28T09:21:57Z</time></trkpt><trkpt lat="45.41882928329509" lon="10.527872998593844"><ele>118.0</ele><time>2026-03-28T09:21:58Z</time></trkpt><trkpt lat="45.41896039830997" lon="10.527956179367353"><ele>118.0</ele><time>2026-03-28T09:21:59Z</time></trkpt><trkpt lat="45.419068407149034" lon="10.528039182677086"><ele>118.0</ele><time>2026-03-28T09:22:00Z</time></trkpt><trkpt lat="45.41914885571595" lon="10.528116606122184"><ele>118.0</ele><time>2026-03-28T09:22:01Z</time></trkpt><trkpt lat="45.41923865671247" lon="10.528233258646665"><ele>118.00000000000001</ele><time>2026-03-28T09:22:02Z</time></trkpt><trkpt lat="45.419314222213586" lon="10.528355536672851"><ele>118.00000000000001</ele><time>2026-03-28T09:22:03Z</time></trkpt><trkpt lat="45.41939320743233" lon="10.528457483436082"><ele>118.0</ele><time>2026-03-28T09:22:04Z</time></trkpt><trkpt lat="45.41948137031827" lon="10.528517045429266"><ele>118.0</ele><time>2026-03-28T09:22:05Z</time></trkpt><trkpt lat="45.41958210114397" lon="10.52858228530096"><ele>118.5</ele><time>2026-03-28T09:22:06Z</time></trkpt><trkpt lat="45.41970548181051" lon="10.528650274001105"><ele>119.0</ele><time>2026-03-28T09:22:07Z</time></trkpt><trkpt lat="45.41981898101547" lon="10.528732545551168"><ele>119.5</ele><time>2026-03-28T09:22:08Z</time></trkpt><trkpt lat="45.41992277357291" lon="10.528821983253268"><ele>120.0</ele><time>2026-03-28T09:22:09Z</time></trkpt><trkpt lat="45.42001844726187" lon="10.52892082656122"><ele>120.2</ele><time>2026-03-28T09:22:10Z</time></trkpt><trkpt lat="45.42009874943163" lon="10.529029451761792"><ele>120.4</ele><time>2026-03-28T09:22:11Z</time></trkpt><trkpt lat="45.42016824987156" lon="10.52913956345794"><ele>120.6</ele><time>2026-03-28T09:22:12Z</time></trkpt><trkpt lat="45.42023100762298" lon="10.52924301623005"><ele>120.8</ele><time>2026-03-28T09:22:13Z</time></trkpt><trkpt lat="45.42029232297031" lon="10.529344470938314"><ele>121.0</ele><time>2026-03-28T09:22:14Z</time></trkpt><trkpt lat="45.42037255596338" lon="10.5294673071354"><ele>121.25</ele><time>2026-03-28T09:22:15Z</time></trkpt><trkpt lat="45.420454887829806" lon="10.529604204500698"><ele>121.5</ele><time>2026-03-28T09:22:16Z</time></trkpt><trkpt lat="45.42054058479436" lon="10.529763727074483"><ele>121.75</ele><time>2026-03-28T09:22:17Z</time></trkpt><trkpt lat="45.420623950585494" lon="10.529911375192041"><ele>122.0</ele><time>2026-03-28T09:22:18Z</time></trkpt><trkpt lat="45.42071027337802" lon="10.530042276953784"><ele>122.0</ele><time>2026-03-28T09:22:19Z</time></trkpt><trkpt lat="45.42080398961211" lon="10.530161574303179"><ele>122.0</ele><time>2026-03-28T09:22:20Z</time></trkpt><trkpt lat="45.42089521222732" lon="10.530260675501774"><ele>122.0</ele><time>2026-03-28T09:22:21Z</time></trkpt><trkpt lat="45.42098849617175" lon="10.530329216274387"><ele>122.0</ele><time>2026-03-28T09:22:22Z</time></trkpt><trkpt lat="45.421093142487926" lon="10.530386165174535"><ele>122.25</ele><time>2026-03-28T09:22:23Z</time></trkpt><trkpt lat="45.42121591016912" lon="10.530431763578768"><ele>122.5</ele><time>2026-03-28T09:22:24Z</time></trkpt><trkpt lat="45.42137199372235" lon="10.53044211545032"><ele>122.75</ele><time>2026-03-28T09:22:25Z</time></trkpt><trkpt lat="45.42152785095245" lon="10.53043829583916"><ele>123.0</ele><time>2026-03-28T09:22:26Z</time></trkpt><trkpt lat="45.42164593241909" lon="10.530450705562858"><ele>124.25</ele><time>2026-03-28T09:22:27Z</time></trkpt><trkpt lat="45.4217624144699" lon="10.530497356556003"><ele>125.5</ele><time>2026-03-28T09:22:28Z</time></trkpt><trkpt lat="45.421849231800834" lon="10.5306239421222"><ele>126.75</ele><time>2026-03-28T09:22:29Z</time></trkpt><trkpt lat="45.42193720805677" lon="10.530753356973367"><ele>128.0</ele><time>2026-03-28T09:22:30Z</time></trkpt><trkpt lat="45.42202432981701" lon="10.530916628836223"><ele>128.0</ele><time>2026-03-28T09:22:31Z</time></trkpt><trkpt lat="45.42205290229737" lon="10.531139873063216"><ele>128.0</ele><time>2026-03-28T09:22:32Z</time></trkpt><trkpt lat="45.422057260147774" lon="10.531349592837854"><ele>128.0</ele><time>2026-03-28T09:22:33Z</time></trkpt><trkpt lat="45.42206916793128" lon="10.531505335027422"><ele>128.0</ele><time>2026-03-28T09:22:34Z</time></trkpt><trkpt lat="45.42209561942525" lon="10.531615768271006"><ele>129.66666666666666</ele><time>2026-03-28T09:22:35Z</time></trkpt><trkpt lat="45.42201142744354" lon="10.531892585278472"><ele>131.33333333333334</ele><time>2026-03-28T09:22:37Z</time></trkpt><trkpt lat="45.421947185324754" lon="10.532082127969467"><ele>133.0</ele><time>2026-03-28T09:22:38Z</time></trkpt><trkpt lat="45.421854102156075" lon="10.532293982162097"><ele>134.0</ele><time>2026-03-28T09:22:39Z</time></trkpt><trkpt lat="45.42176144184188" lon="10.532456008291492"><ele>135.0</ele><time>2026-03-28T09:22:40Z</time></trkpt><trkpt lat="45.421674750770514" lon="10.532583897765553"><ele>136.0</ele><time>2026-03-28T09:22:41Z</time></trkpt><trkpt lat="45.42157432020125" lon="10.532703256468407"><ele>137.0</ele><time>2026-03-28T09:22:42Z</time></trkpt><trkpt lat="45.4214470920643" lon="10.532771761923101"><ele>137.33333333333331</ele><time>2026-03-28T09:22:43Z</time></trkpt><trkpt lat="45.42129332551657" lon="10.532851086201028"><ele>137.66666666666666</ele><time>2026-03-28T09:22:44Z</time></trkpt><trkpt lat="45.42109474693437" lon="10.532930222389826"><ele>138.0</ele><time>2026-03-28T09:22:45Z</time></trkpt><trkpt lat="45.420863087443855" lon="10.533051924067346"><ele>138.0</ele><time>2026-03-28T09:22:46Z</time></trkpt><trkpt lat="45.42063746037276" lon="10.533161482568477"><ele>138.0</ele><time>2026-03-28T09:22:47Z</time></trkpt><trkpt lat="45.42042432483546" lon="10.533297175937237"><ele>134.0</ele><time>2026-03-28T09:22:48Z</time></trkpt><trkpt lat="45.4202181081579" lon="10.533444196268915"><ele>130.0</ele><time>2026-03-28T09:22:49Z</time></trkpt><trkpt lat="45.420011398658446" lon="10.533608297330638"><ele>131.0</ele><time>2026-03-28T09:22:50Z</time></trkpt><trkpt lat="45.41980101677587" lon="10.533795250590334"><ele>132.0</ele><time>2026-03-28T09:22:51Z</time></trkpt><trkpt lat="45.41957276932708" lon="10.533961531719502"><ele>132.0</ele><time>2026-03-28T09:22:52Z</time></trkpt><trkpt lat="45.41935185582531" lon="10.534159594348235"><ele>132.0</ele><time>2026-03-28T09:22:53Z</time></trkpt><trkpt lat="45.41915385276877" lon="10.534366264151645"><ele>132.0</ele><time>2026-03-28T09:22:54Z</time></trkpt><trkpt lat="45.41896182469417" lon="10.534499279856687"><ele>132.0</ele><time>2026-03-28T09:22:55Z</time></trkpt><trkpt lat="45.418764945258744" lon="10.534623646057769"><ele>132.0</ele><time>2026-03-28T09:22:56Z</time></trkpt><trkpt lat="45.41855686240548" lon="10.53471624265936"><ele>131.0</ele><time>2026-03-28T09:22:57Z</time></trkpt><trkpt lat="45.41834948595055" lon="10.534794298525384"><ele>130.0</ele><time>2026-03-28T09:22:58Z</time></trkpt><trkpt lat="45.41815023526999" lon="10.534869062249824"><ele>129.0</ele><time>2026-03-28T09:22:59Z</time></trkpt><trkpt lat="45.41797478104221" lon="10.53496710433679"><ele>128.0</ele><time>2026-03-28T09:23:00Z</time></trkpt><trkpt lat="45.41780811292977" lon="10.535065065701122"><ele>127.0</ele><time>2026-03-28T09:23:01Z</time></trkpt><trkpt lat="45.41765139298712" lon="10.535210125574988"><ele>126.0</ele><time>2026-03-28T09:23:02Z</time></trkpt><trkpt lat="45.41750454999691" lon="10.53537569155934"><ele>126.0</ele><time>2026-03-28T09:23:03Z</time></trkpt><trkpt lat="45.41738864964461" lon="10.535514812044928"><ele>126.0</ele><time>2026-03-28T09:23:04Z</time></trkpt><trkpt lat="45.41728261254291" lon="10.535623635972158"><ele>126.0</ele><time>2026-03-28T09:23:05Z</time></trkpt><trkpt lat="45.417141703479444" lon="10.535701150562744"><ele>126.0</ele><time>2026-03-28T09:23:06Z</time></trkpt><trkpt lat="45.41696264092921" lon="10.535704574734899"><ele>126.0</ele><time>2026-03-28T09:23:07Z</time></trkpt><trkpt lat="45.41676354343298" lon="10.53577599762157"><ele>126.0</ele><time>2026-03-28T09:23:08Z</time></trkpt><trkpt lat="45.41655465189773" lon="10.53581085791738"><ele>126.0</ele><time>2026-03-28T09:23:09Z</time></trkpt><trkpt lat="45.41637043832387" lon="10.535865518581327"><ele>124.66666666666666</ele><time>2026-03-28T09:23:10Z</time></trkpt><trkpt lat="45.41622412909953" lon="10.53593886623445"><ele>123.33333333333333</ele><time>2026-03-28T09:23:11Z</time></trkpt><trkpt lat="45.4160971868694" lon="10.536058104457249"><ele>122.0</ele><time>2026-03-28T09:23:12Z</time></trkpt><trkpt lat="45.41597571290504" lon="10.536184830606905"><ele>123.66666666666666</ele><time>2026-03-28T09:23:13Z</time></trkpt><trkpt lat="45.41586055204254" lon="10.536311863922931"><ele>125.33333333333334</ele><time>2026-03-28T09:23:14Z</time></trkpt><trkpt lat="45.415744881292895" lon="10.536460109737366"><ele>127.0</ele><time>2026-03-28T09:23:15Z</time></trkpt><trkpt lat="45.41560363605115" lon="10.53665999200217"><ele>126.66666666666667</ele><time>2026-03-28T09:23:16Z</time></trkpt><trkpt lat="45.415465508533174" lon="10.536884219763957"><ele>126.33333333333334</ele><time>2026-03-28T09:23:17Z</time></trkpt><trkpt lat="45.41533566527809" lon="10.53716248328001"><ele>126.0</ele><time>2026-03-28T09:23:18Z</time></trkpt><trkpt lat="45.4152177625133" lon="10.537460575347673"><ele>126.0</ele><time>2026-03-28T09:23:19Z</time></trkpt><trkpt lat="45.41511750854908" lon="10.537710646920186"><ele>126.0</ele><time>2026-03-28T09:23:20Z</time></trkpt><trkpt lat="45.41498462104108" lon="10.53794732690235"><ele>126.0</ele><time>2026-03-28T09:23:21Z</time></trkpt><trkpt lat="45.41479811406259" lon="10.538144770000095"><ele>125.5</ele><time>2026-03-28T09:23:22Z</time></trkpt><trkpt lat="45.414589203638776" lon="10.53836528464078"><ele>125.0</ele><time>2026-03-28T09:23:23Z</time></trkpt><trkpt lat="45.414360276255884" lon="10.538588543161579"><ele>129.5</ele><time>2026-03-28T09:23:24Z</time></trkpt><trkpt lat="45.41411880356671" lon="10.53881865735773"><ele>134.0</ele><time>2026-03-28T09:23:25Z</time></trkpt><trkpt lat="45.41386672590177" lon="10.539061748486565"><ele>129.5</ele><time>2026-03-28T09:23:26Z</time></trkpt><trkpt lat="45.41362168622977" lon="10.539286025505659"><ele>125.0</ele><time>2026-03-28T09:23:27Z</time></trkpt><trkpt lat="45.41338600915225" lon="10.539470281812132"><ele>125.33333333333333</ele><time>2026-03-28T09:23:28Z</time></trkpt><trkpt lat="45.41317091546088" lon="10.539624109133811"><ele>125.66666666666666</ele><time>2026-03-28T09:23:29Z</time></trkpt><trkpt lat="45.41299048780995" lon="10.539757761266458"><ele>126.0</ele><time>2026-03-28T09:23:30Z</time></trkpt><trkpt lat="45.41284532212242" lon="10.539902061379479"><ele>126.0</ele><time>2026-03-28T09:23:31Z</time></trkpt><trkpt lat="45.41274497091083" lon="10.540021591839569"><ele>126.0</ele><time>2026-03-28T09:23:32Z</time></trkpt><trkpt lat="45.412640426589256" lon="10.54018796469623"><ele>126.0</ele><time>2026-03-28T09:23:33Z</time></trkpt><trkpt lat="45.41254346263016" lon="10.540441281107444"><ele>127.5</ele><time>2026-03-28T09:23:34Z</time></trkpt><trkpt lat="45.412418647293784" lon="10.540724408502202"><ele>129.0</ele><time>2026-03-28T09:23:35Z</time></trkpt><trkpt lat="45.41229258295311" lon="10.541032469107973"><ele>128.0</ele><time>2026-03-28T09:23:36Z</time></trkpt><trkpt lat="45.41214037826026" lon="10.541318194993282"><ele>127.0</ele><time>2026-03-28T09:23:37Z</time></trkpt><trkpt lat="45.411966493349894" lon="10.541605474860628"><ele>127.0</ele><time>2026-03-28T09:23:38Z</time></trkpt><trkpt lat="45.41179533123167" lon="10.541901615380473"><ele>127.0</ele><time>2026-03-28T09:23:39Z</time></trkpt><trkpt lat="45.411653538198635" lon="10.542210714065966"><ele>126.5</ele><time>2026-03-28T09:23:40Z</time></trkpt><trkpt lat="45.41149976148026" lon="10.542543319429225"><ele>126.0</ele><time>2026-03-28T09:23:41Z</time></trkpt><trkpt lat="45.41136068121102" lon="10.54285337276245"><ele>124.0</ele><time>2026-03-28T09:23:42Z</time></trkpt><trkpt lat="45.41124319563595" lon="10.543069961499997"><ele>122.0</ele><time>2026-03-28T09:23:43Z</time></trkpt><trkpt lat="45.41115717624019" lon="10.543302749321525"><ele>120.0</ele><time>2026-03-28T09:23:44Z</time></trkpt><trkpt lat="45.4110944738987" lon="10.543567681477448"><ele>120.66666666666666</ele><time>2026-03-28T09:23:45Z</time></trkpt><trkpt lat="45.41103786107873" lon="10.543807715824828"><ele>121.33333333333333</ele><time>2026-03-28T09:23:46Z</time></trkpt><trkpt lat="45.410957389497185" lon="10.544005776791591"><ele>122.0</ele><time>2026-03-28T09:23:47Z</time></trkpt><trkpt lat="45.41085328895018" lon="10.544237711981776"><ele>122.0</ele><time>2026-03-28T09:23:48Z</time></trkpt><trkpt lat="45.41067774622269" lon="10.544452406183654"><ele>122.0</ele><time>2026-03-28T09:23:49Z</time></trkpt><trkpt lat="45.41054332381442" lon="10.544736467049535"><ele>121.5</ele><time>2026-03-28T09:23:50Z</time></trkpt><trkpt lat="45.41026623811209" lon="10.54489988059825"><ele>121.0</ele><time>2026-03-28T09:23:51Z</time></trkpt><trkpt lat="45.410075654130075" lon="10.545116741490654"><ele>121.0</ele><time>2026-03-28T09:23:52Z</time></trkpt><trkpt lat="45.409888497010634" lon="10.545329845501374"><ele>121.0</ele><time>2026-03-28T09:23:53Z</time></trkpt><trkpt lat="45.40973354275828" lon="10.545511531580013"><ele>121.0</ele><time>2026-03-28T09:23:54Z</time></trkpt><trkpt lat="45.40960219275557" lon="10.545658789968346"><ele>119.25</ele><time>2026-03-28T09:23:55Z</time></trkpt><trkpt lat="45.409476865823166" lon="10.54577139083419"><ele>117.5</ele><time>2026-03-28T09:23:56Z</time></trkpt><trkpt lat="45.40934683573043" lon="10.545842617289736"><ele>115.75</ele><time>2026-03-28T09:23:57Z</time></trkpt><trkpt lat="45.409217142179614" lon="10.545881370572376"><ele>114.0</ele><time>2026-03-28T09:23:58Z</time></trkpt><trkpt lat="45.40909021674522" lon="10.545907423240562"><ele>114.0</ele><time>2026-03-28T09:23:59Z</time></trkpt><trkpt lat="45.408967699546864" lon="10.545915784365999"><ele>114.0</ele><time>2026-03-28T09:24:00Z</time></trkpt><trkpt lat="45.40884871573127" lon="10.545902344503597"><ele>114.0</ele><time>2026-03-28T09:24:01Z</time></trkpt><trkpt lat="45.40871301323717" lon="10.54587625328516"><ele>114.0</ele><time>2026-03-28T09:24:02Z</time></trkpt><trkpt lat="45.408564485149" lon="10.545841349798502"><ele>113.5</ele><time>2026-03-28T09:24:03Z</time></trkpt><trkpt lat="45.40841857128716" lon="10.545821112822427"><ele>113.0</ele><time>2026-03-28T09:24:04Z</time></trkpt><trkpt lat="45.40829631574765" lon="10.54580293010281"><ele>112.5</ele><time>2026-03-28T09:24:05Z</time></trkpt><trkpt lat="45.408189229335086" lon="10.545789068602877"><ele>112.0</ele><time>2026-03-28T09:24:06Z</time></trkpt><trkpt lat="45.40809062082766" lon="10.545789533068332"><ele>112.0</ele><time>2026-03-28T09:24:07Z</time></trkpt><trkpt lat="45.40799940808151" lon="10.54580436675221"><ele>112.0</ele><time>2026-03-28T09:24:08Z</time></trkpt><trkpt lat="45.40789479632875" lon="10.545836573149181"><ele>112.0</ele><time>2026-03-28T09:24:09Z</time></trkpt><trkpt lat="45.40776166905724" lon="10.545886626800849"><ele>112.0</ele><time>2026-03-28T09:24:10Z</time></trkpt><trkpt lat="45.40762142167636" lon="10.54592522658595"><ele>112.0</ele><time>2026-03-28T09:24:11Z</time></trkpt><trkpt lat="45.40750049461049" lon="10.545947276482625"><ele>111.99999999999999</ele><time>2026-03-28T09:24:12Z</time></trkpt><trkpt lat="45.40739330333412" lon="10.545972915470108"><ele>111.99999999999999</ele><time>2026-03-28T09:24:13Z</time></trkpt><trkpt lat="45.40729250150863" lon="10.545997607012412"><ele>112.0</ele><time>2026-03-28T09:24:14Z</time></trkpt><trkpt lat="45.40721068219181" lon="10.546031482175785"><ele>112.0</ele><time>2026-03-28T09:24:15Z</time></trkpt><trkpt lat="45.4071240923613" lon="10.54610113913604"><ele>112.5</ele><time>2026-03-28T09:24:16Z</time></trkpt><trkpt lat="45.40703136992988" lon="10.546187833462279"><ele>113.0</ele><time>2026-03-28T09:24:17Z</time></trkpt><trkpt lat="45.40693554250337" lon="10.54629570340067"><ele>113.5</ele><time>2026-03-28T09:24:18Z</time></trkpt><trkpt lat="45.40684038036423" lon="10.54642308963427"><ele>114.0</ele><time>2026-03-28T09:24:19Z</time></trkpt><trkpt lat="45.406747041310766" lon="10.54655916300332"><ele>114.5</ele><time>2026-03-28T09:24:20Z</time></trkpt><trkpt lat="45.40664978423458" lon="10.546688914139523"><ele>115.0</ele><time>2026-03-28T09:24:21Z</time></trkpt><trkpt lat="45.40655335561788" lon="10.546810113939234"><ele>115.5</ele><time>2026-03-28T09:24:22Z</time></trkpt><trkpt lat="45.406447201194794" lon="10.546936564918813"><ele>116.0</ele><time>2026-03-28T09:24:23Z</time></trkpt><trkpt lat="45.406334245459306" lon="10.54705786419824"><ele>117.5</ele><time>2026-03-28T09:24:24Z</time></trkpt><trkpt lat="45.40622674628999" lon="10.54714982015056"><ele>119.0</ele><time>2026-03-28T09:24:25Z</time></trkpt><trkpt lat="45.40609876882097" lon="10.547223977110077"><ele>120.5</ele><time>2026-03-28T09:24:26Z</time></trkpt><trkpt lat="45.40595579680171" lon="10.547289091583771"><ele>122.0</ele><time>2026-03-28T09:24:27Z</time></trkpt><trkpt lat="45.405813296830885" lon="10.5473452535321"><ele>122.0</ele><time>2026-03-28T09:24:28Z</time></trkpt><trkpt lat="45.40567752499759" lon="10.547400305136218"><ele>122.0</ele><time>2026-03-28T09:24:29Z</time></trkpt><trkpt lat="45.40555071293215" lon="10.54746068923259"><ele>122.0</ele><time>2026-03-28T09:24:30Z</time></trkpt><trkpt lat="45.4054616516589" lon="10.547511129829518"><ele>122.0</ele><time>2026-03-28T09:24:31Z</time></trkpt><trkpt lat="45.40537527633915" lon="10.547560504338119"><ele>122.25</ele><time>2026-03-28T09:24:32Z</time></trkpt><trkpt lat="45.40527149192621" lon="10.547639172115783"><ele>122.5</ele><time>2026-03-28T09:24:33Z</time></trkpt><trkpt lat="45.40516244644858" lon="10.54772837680754"><ele>122.75</ele><time>2026-03-28T09:24:34Z</time></trkpt><trkpt lat="45.40503904945607" lon="10.547831972215292"><ele>123.0</ele><time>2026-03-28T09:24:35Z</time></trkpt><trkpt lat="45.404908208237366" lon="10.547942285507697"><ele>123.0</ele><time>2026-03-28T09:24:36Z</time></trkpt><trkpt lat="45.404778999878324" lon="10.548053963434501"><ele>123.0</ele><time>2026-03-28T09:24:37Z</time></trkpt><trkpt lat="45.4046432665914" lon="10.548169551715871"><ele>123.0</ele><time>2026-03-28T09:24:38Z</time></trkpt><trkpt lat="45.40450635620581" lon="10.548282814747866"><ele>121.75</ele><time>2026-03-28T09:24:39Z</time></trkpt><trkpt lat="45.404376464001615" lon="10.548392105183183"><ele>120.5</ele><time>2026-03-28T09:24:40Z</time></trkpt><trkpt lat="45.404263162219" lon="10.548491057809326"><ele>119.25</ele><time>2026-03-28T09:24:41Z</time></trkpt><trkpt lat="45.40416364557696" lon="10.548579930221837"><ele>118.0</ele><time>2026-03-28T09:24:42Z</time></trkpt><trkpt lat="45.40407300602195" lon="10.54866595731131"><ele>117.75</ele><time>2026-03-28T09:24:43Z</time></trkpt><trkpt lat="45.40398814997513" lon="10.548752250547313"><ele>117.5</ele><time>2026-03-28T09:24:44Z</time></trkpt><trkpt lat="45.40390619652404" lon="10.548853962940072"><ele>117.25</ele><time>2026-03-28T09:24:45Z</time></trkpt><trkpt lat="45.40381593297717" lon="10.548975041974634"><ele>117.0</ele><time>2026-03-28T09:24:46Z</time></trkpt><trkpt lat="45.40371641250511" lon="10.549118087452193"><ele>117.0</ele><time>2026-03-28T09:24:47Z</time></trkpt><trkpt lat="45.4036119469336" lon="10.549249179831035"><ele>117.0</ele><time>2026-03-28T09:24:48Z</time></trkpt><trkpt lat="45.40351788380749" lon="10.54933716591729"><ele>117.0</ele><time>2026-03-28T09:24:49Z</time></trkpt><trkpt lat="45.403393207899704" lon="10.549408843905725"><ele>117.0</ele><time>2026-03-28T09:24:50Z</time></trkpt><trkpt lat="45.40326614985012" lon="10.549473043234485"><ele>117.0</ele><time>2026-03-28T09:24:51Z</time></trkpt><trkpt lat="45.40313969816998" lon="10.54951644244597"><ele>117.0</ele><time>2026-03-28T09:24:52Z</time></trkpt><trkpt lat="45.40301361646033" lon="10.549530130315139"><ele>117.0</ele><time>2026-03-28T09:24:53Z</time></trkpt><trkpt lat="45.402903907583955" lon="10.549499426744271"><ele>117.0</ele><time>2026-03-28T09:24:54Z</time></trkpt><trkpt lat="45.40279148133501" lon="10.549457471567285"><ele>117.19999999999999</ele><time>2026-03-28T09:24:55Z</time></trkpt><trkpt lat="45.40269593162069" lon="10.549438464174347"><ele>117.39999999999999</ele><time>2026-03-28T09:24:56Z</time></trkpt><trkpt lat="45.402610772090384" lon="10.549443366731095"><ele>117.60000000000001</ele><time>2026-03-28T09:24:57Z</time></trkpt><trkpt lat="45.40253249659334" lon="10.549476314114361"><ele>117.80000000000001</ele><time>2026-03-28T09:24:58Z</time></trkpt><trkpt lat="45.402444658815966" lon="10.549524474874968"><ele>118.0</ele><time>2026-03-28T09:24:59Z</time></trkpt><trkpt lat="45.402358663925156" lon="10.549591690541568"><ele>118.0</ele><time>2026-03-28T09:25:00Z</time></trkpt><trkpt lat="45.402265900669235" lon="10.54968944364715"><ele>118.0</ele><time>2026-03-28T09:25:01Z</time></trkpt><trkpt lat="45.40216509282616" lon="10.549819144938654"><ele>118.0</ele><time>2026-03-28T09:25:02Z</time></trkpt><trkpt lat="45.40205952766857" lon="10.549963364894401"><ele>118.0</ele><time>2026-03-28T09:25:03Z</time></trkpt><trkpt lat="45.40195608850823" lon="10.550109349095786"><ele>117.75</ele><time>2026-03-28T09:25:04Z</time></trkpt><trkpt lat="45.40185256202858" lon="10.550254907443755"><ele>117.5</ele><time>2026-03-28T09:25:05Z</time></trkpt><trkpt lat="45.401751166552906" lon="10.550396289052399"><ele>117.25</ele><time>2026-03-28T09:25:06Z</time></trkpt><trkpt lat="45.40164643119484" lon="10.550531340666105"><ele>117.0</ele><time>2026-03-28T09:25:07Z</time></trkpt><trkpt lat="45.401531113533295" lon="10.55067700759157"><ele>117.0</ele><time>2026-03-28T09:25:08Z</time></trkpt><trkpt lat="45.401431634214795" lon="10.550811261723872"><ele>117.0</ele><time>2026-03-28T09:25:09Z</time></trkpt><trkpt lat="45.401335759403" lon="10.550928250764636"><ele>117.0</ele><time>2026-03-28T09:25:10Z</time></trkpt><trkpt lat="45.40124470208355" lon="10.551020276835263"><ele>117.0</ele><time>2026-03-28T09:25:11Z</time></trkpt><trkpt lat="45.40115171439631" lon="10.551036396149943"><ele>116.25</ele><time>2026-03-28T09:25:12Z</time></trkpt><trkpt lat="45.40104120661765" lon="10.55104053608204"><ele>115.5</ele><time>2026-03-28T09:25:13Z</time></trkpt><trkpt lat="45.40092042055638" lon="10.55105601587375"><ele>114.75</ele><time>2026-03-28T09:25:14Z</time></trkpt><trkpt lat="45.40079789272152" lon="10.551070373918018"><ele>114.0</ele><time>2026-03-28T09:25:15Z</time></trkpt><trkpt lat="45.40069001979826" lon="10.5510736396664"><ele>114.0</ele><time>2026-03-28T09:25:16Z</time></trkpt><trkpt lat="45.40057736848839" lon="10.55108799200508"><ele>114.0</ele><time>2026-03-28T09:25:17Z</time></trkpt><trkpt lat="45.40048624814597" lon="10.551096321344298"><ele>114.0</ele><time>2026-03-28T09:25:18Z</time></trkpt><trkpt lat="45.40037794676916" lon="10.551124329565724"><ele>114.0</ele><time>2026-03-28T09:25:19Z</time></trkpt><trkpt lat="45.400253896166795" lon="10.551174979479255"><ele>114.0</ele><time>2026-03-28T09:25:20Z</time></trkpt><trkpt lat="45.40013073078082" lon="10.551249877568246"><ele>114.25</ele><time>2026-03-28T09:25:21Z</time></trkpt><trkpt lat="45.40000496137169" lon="10.551365787126691"><ele>114.5</ele><time>2026-03-28T09:25:22Z</time></trkpt><trkpt lat="45.39988590449911" lon="10.551480290681605"><ele>114.75</ele><time>2026-03-28T09:25:23Z</time></trkpt><trkpt lat="45.39976789893432" lon="10.551512845953859"><ele>115.0</ele><time>2026-03-28T09:25:24Z</time></trkpt><trkpt lat="45.399663107660906" lon="10.551527950764878"><ele>115.0</ele><time>2026-03-28T09:25:25Z</time></trkpt><trkpt lat="45.399558430912485" lon="10.551535198753996"><ele>115.0</ele><time>2026-03-28T09:25:26Z</time></trkpt><trkpt lat="45.39942304053648" lon="10.551556526066243"><ele>115.0</ele><time>2026-03-28T09:25:27Z</time></trkpt><trkpt lat="45.39927400424863" lon="10.551567781055006"><ele>115.0</ele><time>2026-03-28T09:25:28Z</time></trkpt><trkpt lat="45.39913732513729" lon="10.551564007348965"><ele>115.0</ele><time>2026-03-28T09:25:29Z</time></trkpt><trkpt lat="45.39901636034342" lon="10.551552336842041"><ele>115.0</ele><time>2026-03-28T09:25:30Z</time></trkpt><trkpt lat="45.398908307975304" lon="10.551561537744735"><ele>115.0</ele><time>2026-03-28T09:25:31Z</time></trkpt><trkpt lat="45.39879152752423" lon="10.551591412730724"><ele>115.0</ele><time>2026-03-28T09:25:32Z</time></trkpt><trkpt lat="45.39867086790056" lon="10.551666012946395"><ele>117.0</ele><time>2026-03-28T09:25:33Z</time></trkpt><trkpt lat="45.39853577440404" lon="10.551755100736054"><ele>119.0</ele><time>2026-03-28T09:25:34Z</time></trkpt><trkpt lat="45.3984010822986" lon="10.551833400746027"><ele>121.0</ele><time>2026-03-28T09:25:35Z</time></trkpt><trkpt lat="45.398283518688224" lon="10.551883178231407"><ele>123.0</ele><time>2026-03-28T09:25:36Z</time></trkpt><trkpt lat="45.39816154070736" lon="10.551890831252535"><ele>123.0</ele><time>2026-03-28T09:25:37Z</time></trkpt><trkpt lat="45.3980344785832" lon="10.551916796876707"><ele>123.0</ele><time>2026-03-28T09:25:38Z</time></trkpt><trkpt lat="45.39790246584937" lon="10.551876239132861"><ele>123.0</ele><time>2026-03-28T09:25:39Z</time></trkpt><trkpt lat="45.39774750226582" lon="10.551847370400493"><ele>123.0</ele><time>2026-03-28T09:25:40Z</time></trkpt><trkpt lat="45.397567820757175" lon="10.55183086900725"><ele>122.66666666666666</ele><time>2026-03-28T09:25:41Z</time></trkpt><trkpt lat="45.39737921046128" lon="10.551788083794523"><ele>122.33333333333333</ele><time>2026-03-28T09:25:42Z</time></trkpt><trkpt lat="45.39720844371112" lon="10.551750585983427"><ele>122.0</ele><time>2026-03-28T09:25:43Z</time></trkpt><trkpt lat="45.397081358974766" lon="10.55172383734179"><ele>121.8</ele><time>2026-03-28T09:25:44Z</time></trkpt><trkpt lat="45.39698666802904" lon="10.55170951958641"><ele>121.6</ele><time>2026-03-28T09:25:45Z</time></trkpt><trkpt lat="45.39692356142139" lon="10.551719651729051"><ele>121.39999999999999</ele><time>2026-03-28T09:25:46Z</time></trkpt><trkpt lat="45.39687541639319" lon="10.551910413515536"><ele>121.19999999999999</ele><time>2026-03-28T09:25:49Z</time></trkpt><trkpt lat="45.396873163212554" lon="10.552037510863837"><ele>121.0</ele><time>2026-03-28T09:25:50Z</time></trkpt><trkpt lat="45.396879963030706" lon="10.552206482586268"><ele>123.25</ele><time>2026-03-28T09:25:51Z</time></trkpt><trkpt lat="45.39690615626382" lon="10.552377031564987"><ele>125.5</ele><time>2026-03-28T09:25:52Z</time></trkpt><trkpt lat="45.39696369634474" lon="10.552552020991298"><ele>127.75</ele><time>2026-03-28T09:25:53Z</time></trkpt><trkpt lat="45.39703532149254" lon="10.55273385102778"><ele>130.0</ele><time>2026-03-28T09:25:54Z</time></trkpt><trkpt lat="45.39709533939149" lon="10.552891955212448"><ele>130.0</ele><time>2026-03-28T09:25:55Z</time></trkpt><trkpt lat="45.39713443067451" lon="10.553099787219912"><ele>130.0</ele><time>2026-03-28T09:25:56Z</time></trkpt><trkpt lat="45.397184743980404" lon="10.553332946368315"><ele>130.0</ele><time>2026-03-28T09:25:57Z</time></trkpt><trkpt lat="45.397258270089885" lon="10.55354606694204"><ele>125.75</ele><time>2026-03-28T09:25:58Z</time></trkpt><trkpt lat="45.39732764049397" lon="10.55374843172107"><ele>121.5</ele><time>2026-03-28T09:25:59Z</time></trkpt><trkpt lat="45.39738812267854" lon="10.553916105928312"><ele>117.25</ele><time>2026-03-28T09:26:00Z</time></trkpt><trkpt lat="45.397447086342666" lon="10.554089487606383"><ele>113.0</ele><time>2026-03-28T09:26:01Z</time></trkpt><trkpt lat="45.39750533542116" lon="10.554255986850864"><ele>113.0</ele><time>2026-03-28T09:26:02Z</time></trkpt><trkpt lat="45.39755496776825" lon="10.554436539850432"><ele>113.0</ele><time>2026-03-28T09:26:03Z</time></trkpt><trkpt lat="45.39758234733578" lon="10.5546299730707"><ele>113.0</ele><time>2026-03-28T09:26:04Z</time></trkpt><trkpt lat="45.3975907410064" lon="10.55484027404925"><ele>113.0</ele><time>2026-03-28T09:26:05Z</time></trkpt><trkpt lat="45.39754693532909" lon="10.555041819156784"><ele>112.0</ele><time>2026-03-28T09:26:06Z</time></trkpt><trkpt lat="45.39748673300565" lon="10.555258936307263"><ele>111.0</ele><time>2026-03-28T09:26:07Z</time></trkpt><trkpt lat="45.39741428906521" lon="10.555521001927278"><ele>110.0</ele><time>2026-03-28T09:26:08Z</time></trkpt><trkpt lat="45.3973476371954" lon="10.555836527182915"><ele>108.0</ele><time>2026-03-28T09:26:09Z</time></trkpt><trkpt lat="45.39728722713233" lon="10.556158612318587"><ele>106.0</ele><time>2026-03-28T09:26:10Z</time></trkpt><trkpt lat="45.39725222316626" lon="10.556472438961123"><ele>106.0</ele><time>2026-03-28T09:26:11Z</time></trkpt><trkpt lat="45.39723217317041" lon="10.55672526435499"><ele>106.0</ele><time>2026-03-28T09:26:12Z</time></trkpt><trkpt lat="45.397208015733774" lon="10.55695863224767"><ele>106.0</ele><time>2026-03-28T09:26:13Z</time></trkpt><trkpt lat="45.397173177395196" lon="10.557145564001502"><ele>106.75</ele><time>2026-03-28T09:26:14Z</time></trkpt><trkpt lat="45.39713171721836" lon="10.557295072105198"><ele>107.5</ele><time>2026-03-28T09:26:15Z</time></trkpt><trkpt lat="45.3970515481809" lon="10.557417729102859"><ele>108.25</ele><time>2026-03-28T09:26:16Z</time></trkpt><trkpt lat="45.396961142872165" lon="10.557582036028165"><ele>109.0</ele><time>2026-03-28T09:26:17Z</time></trkpt><trkpt lat="45.39685427699351" lon="10.557758647348606"><ele>107.33333333333334</ele><time>2026-03-28T09:26:18Z</time></trkpt><trkpt lat="45.39677025394874" lon="10.557991573052062"><ele>105.66666666666666</ele><time>2026-03-28T09:26:19Z</time></trkpt><trkpt lat="45.3967249190735" lon="10.558259266121954"><ele>104.0</ele><time>2026-03-28T09:26:20Z</time></trkpt><trkpt lat="45.39670100952035" lon="10.558535742240968"><ele>103.33333333333333</ele><time>2026-03-28T09:26:21Z</time></trkpt><trkpt lat="45.396716868054654" lon="10.558834347132603"><ele>102.66666666666666</ele><time>2026-03-28T09:26:22Z</time></trkpt><trkpt lat="45.396746831644876" lon="10.559165584588817"><ele>102.0</ele><time>2026-03-28T09:26:23Z</time></trkpt><trkpt lat="45.3967809899142" lon="10.55950886046692"><ele>102.66666666666666</ele><time>2026-03-28T09:26:24Z</time></trkpt><trkpt lat="45.39680232834771" lon="10.559822597482759"><ele>103.33333333333333</ele><time>2026-03-28T09:26:25Z</time></trkpt><trkpt lat="45.39681895978442" lon="10.560135302280008"><ele>104.0</ele><time>2026-03-28T09:26:26Z</time></trkpt><trkpt lat="45.396828360996395" lon="10.56043242426255"><ele>104.0</ele><time>2026-03-28T09:26:27Z</time></trkpt><trkpt lat="45.39683526917842" lon="10.560704331828061"><ele>104.0</ele><time>2026-03-28T09:26:28Z</time></trkpt><trkpt lat="45.39683090350623" lon="10.56094621458299"><ele>104.0</ele><time>2026-03-28T09:26:29Z</time></trkpt><trkpt lat="45.39680661806548" lon="10.561203693309363"><ele>104.0</ele><time>2026-03-28T09:26:30Z</time></trkpt><trkpt lat="45.396756982907604" lon="10.561466517520062"><ele>104.0</ele><time>2026-03-28T09:26:31Z</time></trkpt><trkpt lat="45.396686241279646" lon="10.561758077055408"><ele>104.0</ele><time>2026-03-28T09:26:32Z</time></trkpt><trkpt lat="45.39660747169192" lon="10.562070255605764"><ele>102.5</ele><time>2026-03-28T09:26:33Z</time></trkpt><trkpt lat="45.39652682329763" lon="10.562378830506363"><ele>101.0</ele><time>2026-03-28T09:26:34Z</time></trkpt><trkpt lat="45.39644438652674" lon="10.56266889178648"><ele>101.0</ele><time>2026-03-28T09:26:35Z</time></trkpt><trkpt lat="45.396351969599046" lon="10.562931967357082"><ele>101.0</ele><time>2026-03-28T09:26:36Z</time></trkpt><trkpt lat="45.39619608353956" lon="10.563333200991822"><ele>101.0</ele><time>2026-03-28T09:26:38Z</time></trkpt><trkpt lat="45.396142870626115" lon="10.56346543205844"><ele>101.0</ele><time>2026-03-28T09:26:39Z</time></trkpt><trkpt lat="45.39610736869502" lon="10.563566970405137"><ele>101.0</ele><time>2026-03-28T09:26:40Z</time></trkpt><trkpt lat="45.39605416581251" lon="10.563680693203404"><ele>101.0</ele><time>2026-03-28T09:26:42Z</time></trkpt><trkpt lat="45.39620993169672" lon="10.563847407783854"><ele>101.0</ele><time>2026-03-28T09:26:43Z</time></trkpt><trkpt lat="45.3963359506122" lon="10.56399631396392"><ele>101.0</ele><time>2026-03-28T09:26:44Z</time></trkpt><trkpt lat="45.39649121763441" lon="10.564198009161228"><ele>101.0</ele><time>2026-03-28T09:26:45Z</time></trkpt><trkpt lat="45.39666731434792" lon="10.564437907718853"><ele>101.5</ele><time>2026-03-28T09:26:46Z</time></trkpt><trkpt lat="45.39685710438794" lon="10.564719731745209"><ele>102.0</ele><time>2026-03-28T09:26:47Z</time></trkpt><trkpt lat="45.397039034329175" lon="10.56493253437002"><ele>102.0</ele><time>2026-03-28T09:26:48Z</time></trkpt><trkpt lat="45.397179822048074" lon="10.565126340246264"><ele>102.0</ele><time>2026-03-28T09:26:49Z</time></trkpt><trkpt lat="45.397289041813806" lon="10.56529143910862"><ele>102.0</ele><time>2026-03-28T09:26:50Z</time></trkpt><trkpt lat="45.39737743243333" lon="10.56545564453609"><ele>102.0</ele><time>2026-03-28T09:26:51Z</time></trkpt><trkpt lat="45.397443834932396" lon="10.56563992390086"><ele>102.0</ele><time>2026-03-28T09:26:52Z</time></trkpt><trkpt lat="45.39747020168156" lon="10.56586830276206"><ele>102.0</ele><time>2026-03-28T09:26:53Z</time></trkpt><trkpt lat="45.39755990903962" lon="10.56608122123302"><ele>102.0</ele><time>2026-03-28T09:26:54Z</time></trkpt><trkpt lat="45.39767602379577" lon="10.566309484197701"><ele>102.0</ele><time>2026-03-28T09:26:55Z</time></trkpt><trkpt lat="45.39783498590336" lon="10.566544172556968"><ele>102.0</ele><time>2026-03-28T09:26:56Z</time></trkpt><trkpt lat="45.39802373456944" lon="10.566789897490072"><ele>103.5</ele><time>2026-03-28T09:26:57Z</time></trkpt><trkpt lat="45.3982262650354" lon="10.567071892642137"><ele>105.0</ele><time>2026-03-28T09:26:58Z</time></trkpt><trkpt lat="45.398448523313064" lon="10.56733904884068"><ele>105.0</ele><time>2026-03-28T09:26:59Z</time></trkpt><trkpt lat="45.398653867804605" lon="10.56754801210123"><ele>105.0</ele><time>2026-03-28T09:27:00Z</time></trkpt><trkpt lat="45.398837128881866" lon="10.567770608415307"><ele>107.0</ele><time>2026-03-28T09:27:01Z</time></trkpt><trkpt lat="45.39901476983632" lon="10.568001737999822"><ele>109.0</ele><time>2026-03-28T09:27:02Z</time></trkpt><trkpt lat="45.3991776523153" lon="10.568220704385398"><ele>109.0</ele><time>2026-03-28T09:27:03Z</time></trkpt><trkpt lat="45.399317026180235" lon="10.568405898624619"><ele>109.0</ele><time>2026-03-28T09:27:04Z</time></trkpt><trkpt lat="45.39943406186101" lon="10.56855626838018"><ele>109.0</ele><time>2026-03-28T09:27:05Z</time></trkpt><trkpt lat="45.3995292480427" lon="10.56867820215531"><ele>110.0</ele><time>2026-03-28T09:27:06Z</time></trkpt><trkpt lat="45.39958951720602" lon="10.568758201796532"><ele>111.0</ele><time>2026-03-28T09:27:07Z</time></trkpt><trkpt lat="45.39961620839244" lon="10.568855661205992"><ele>112.0</ele><time>2026-03-28T09:27:11Z</time></trkpt><trkpt lat="45.39955739787906" lon="10.568921621417786"><ele>113.0</ele><time>2026-03-28T09:27:12Z</time></trkpt><trkpt lat="45.39946584625961" lon="10.569078912510168"><ele>114.0</ele><time>2026-03-28T09:27:13Z</time></trkpt><trkpt lat="45.39934809003596" lon="10.569191789289986"><ele>114.0</ele><time>2026-03-28T09:27:14Z</time></trkpt><trkpt lat="45.39926225703632" lon="10.569302440205272"><ele>114.0</ele><time>2026-03-28T09:27:15Z</time></trkpt><trkpt lat="45.3991863096861" lon="10.569418154884884"><ele>114.0</ele><time>2026-03-28T09:27:16Z</time></trkpt><trkpt lat="45.399104701127634" lon="10.569545539881053"><ele>114.0</ele><time>2026-03-28T09:27:17Z</time></trkpt><trkpt lat="45.399023209390585" lon="10.569665407139903"><ele>114.6</ele><time>2026-03-28T09:27:18Z</time></trkpt><trkpt lat="45.39895653287856" lon="10.569774150184081"><ele>115.2</ele><time>2026-03-28T09:27:19Z</time></trkpt><trkpt lat="45.39889302985024" lon="10.569864292804947"><ele>115.79999999999998</ele><time>2026-03-28T09:27:20Z</time></trkpt><trkpt lat="45.398817067040135" lon="10.569974524104111"><ele>116.39999999999999</ele><time>2026-03-28T09:27:21Z</time></trkpt><trkpt lat="45.398726067878194" lon="10.570104847860152"><ele>117.0</ele><time>2026-03-28T09:27:22Z</time></trkpt><trkpt lat="45.39863390314754" lon="10.570228727078513"><ele>117.5</ele><time>2026-03-28T09:27:23Z</time></trkpt><trkpt lat="45.39853672463299" lon="10.570332549022014"><ele>118.0</ele><time>2026-03-28T09:27:24Z</time></trkpt><trkpt lat="45.398439082661035" lon="10.57047902090408"><ele>118.5</ele><time>2026-03-28T09:27:25Z</time></trkpt><trkpt lat="45.398320739224076" lon="10.570616008417717"><ele>119.0</ele><time>2026-03-28T09:27:26Z</time></trkpt><trkpt lat="45.398180950293245" lon="10.57077216457496"><ele>119.0</ele><time>2026-03-28T09:27:27Z</time></trkpt><trkpt lat="45.398013589070125" lon="10.570918497777964"><ele>119.0</ele><time>2026-03-28T09:27:28Z</time></trkpt><trkpt lat="45.39782728102136" lon="10.571124905349466"><ele>119.0</ele><time>2026-03-28T09:27:29Z</time></trkpt><trkpt lat="45.39760603291395" lon="10.571378408287227"><ele>118.5</ele><time>2026-03-28T09:27:30Z</time></trkpt><trkpt lat="45.39738363035471" lon="10.57164150497516"><ele>118.0</ele><time>2026-03-28T09:27:31Z</time></trkpt><trkpt lat="45.397214070065964" lon="10.571844176420047"><ele>117.66666666666667</ele><time>2026-03-28T09:27:32Z</time></trkpt><trkpt lat="45.397087448685106" lon="10.57202374288302"><ele>117.33333333333334</ele><time>2026-03-28T09:27:33Z</time></trkpt><trkpt lat="45.39696801232835" lon="10.572161406313239"><ele>117.0</ele><time>2026-03-28T09:27:34Z</time></trkpt><trkpt lat="45.39684681598809" lon="10.572299332410626"><ele>117.0</ele><time>2026-03-28T09:27:35Z</time></trkpt><trkpt lat="45.396736459789935" lon="10.572426365773406"><ele>117.0</ele><time>2026-03-28T09:27:36Z</time></trkpt><trkpt lat="45.39664691773926" lon="10.572541077338858"><ele>117.0</ele><time>2026-03-28T09:27:37Z</time></trkpt><trkpt lat="45.39653882885825" lon="10.57268119586947"><ele>117.0</ele><time>2026-03-28T09:27:38Z</time></trkpt><trkpt lat="45.3964017605685" lon="10.572776998081789"><ele>117.66666666666666</ele><time>2026-03-28T09:27:39Z</time></trkpt><trkpt lat="45.39625433130985" lon="10.572888784992594"><ele>118.33333333333333</ele><time>2026-03-28T09:27:40Z</time></trkpt><trkpt lat="45.39606850583189" lon="10.572997876004125"><ele>119.0</ele><time>2026-03-28T09:27:41Z</time></trkpt><trkpt lat="45.395871974809864" lon="10.573102982032395"><ele>119.0</ele><time>2026-03-28T09:27:42Z</time></trkpt><trkpt lat="45.39570766315167" lon="10.573193756104235"><ele>119.0</ele><time>2026-03-28T09:27:43Z</time></trkpt><trkpt lat="45.39556621222841" lon="10.573318865143486"><ele>119.0</ele><time>2026-03-28T09:27:44Z</time></trkpt><trkpt lat="45.395410828935816" lon="10.57347166714372"><ele>119.0</ele><time>2026-03-28T09:27:45Z</time></trkpt><trkpt lat="45.395218845560194" lon="10.573689920997575"><ele>119.0</ele><time>2026-03-28T09:27:46Z</time></trkpt><trkpt lat="45.395004904267864" lon="10.57392297413075"><ele>119.0</ele><time>2026-03-28T09:27:47Z</time></trkpt><trkpt lat="45.394796814164295" lon="10.574143747945234"><ele>119.0</ele><time>2026-03-28T09:27:48Z</time></trkpt><trkpt lat="45.39459141854765" lon="10.57436670394054"><ele>119.0</ele><time>2026-03-28T09:27:49Z</time></trkpt><trkpt lat="45.39439714033603" lon="10.574588005704546"><ele>119.0</ele><time>2026-03-28T09:27:50Z</time></trkpt><trkpt lat="45.39421999429957" lon="10.574796120252882"><ele>119.0</ele><time>2026-03-28T09:27:51Z</time></trkpt><trkpt lat="45.39404696341406" lon="10.575019645123845"><ele>119.0</ele><time>2026-03-28T09:27:52Z</time></trkpt><trkpt lat="45.3938778828915" lon="10.575242494295036"><ele>118.66666666666666</ele><time>2026-03-28T09:27:53Z</time></trkpt><trkpt lat="45.39372071437118" lon="10.57544315934239"><ele>118.33333333333334</ele><time>2026-03-28T09:27:54Z</time></trkpt><trkpt lat="45.393578966650516" lon="10.575635269026106"><ele>118.0</ele><time>2026-03-28T09:27:55Z</time></trkpt><trkpt lat="45.393448857739" lon="10.575860257617016"><ele>118.0</ele><time>2026-03-28T09:27:56Z</time></trkpt><trkpt lat="45.393326345809" lon="10.576119517787582"><ele>118.0</ele><time>2026-03-28T09:27:57Z</time></trkpt><trkpt lat="45.393197105483424" lon="10.57639304686137"><ele>118.0</ele><time>2026-03-28T09:27:58Z</time></trkpt><trkpt lat="45.393069631324025" lon="10.576649707643117"><ele>118.0</ele><time>2026-03-28T09:27:59Z</time></trkpt><trkpt lat="45.39294850852047" lon="10.576895835157327"><ele>118.0</ele><time>2026-03-28T09:28:00Z</time></trkpt><trkpt lat="45.39283877572082" lon="10.577122719971818"><ele>118.0</ele><time>2026-03-28T09:28:01Z</time></trkpt><trkpt lat="45.39272885974094" lon="10.5773371427668"><ele>118.0</ele><time>2026-03-28T09:28:02Z</time></trkpt><trkpt lat="45.39260849361207" lon="10.577546506854771"><ele>118.0</ele><time>2026-03-28T09:28:03Z</time></trkpt><trkpt lat="45.39248204912903" lon="10.577753510953452"><ele>117.66666666666667</ele><time>2026-03-28T09:28:04Z</time></trkpt><trkpt lat="45.392344053465074" lon="10.577972843317545"><ele>117.33333333333334</ele><time>2026-03-28T09:28:05Z</time></trkpt><trkpt lat="45.39220250612765" lon="10.578188693005155"><ele>117.0</ele><time>2026-03-28T09:28:06Z</time></trkpt><trkpt lat="45.392067296337395" lon="10.578388492979698"><ele>117.0</ele><time>2026-03-28T09:28:07Z</time></trkpt><trkpt lat="45.39193646739217" lon="10.57857222511373"><ele>117.0</ele><time>2026-03-28T09:28:08Z</time></trkpt><trkpt lat="45.39181297023298" lon="10.578747162206335"><ele>117.0</ele><time>2026-03-28T09:28:09Z</time></trkpt><trkpt lat="45.39169342149905" lon="10.578915224636184"><ele>117.0</ele><time>2026-03-28T09:28:10Z</time></trkpt><trkpt lat="45.39157560451102" lon="10.579055897743464"><ele>117.0</ele><time>2026-03-28T09:28:11Z</time></trkpt><trkpt lat="45.39144950027671" lon="10.57918208075989"><ele>117.0</ele><time>2026-03-28T09:28:12Z</time></trkpt><trkpt lat="45.39132155248802" lon="10.57931108795427"><ele>117.25</ele><time>2026-03-28T09:28:13Z</time></trkpt><trkpt lat="45.391204023208914" lon="10.579432350967885"><ele>117.5</ele><time>2026-03-28T09:28:14Z</time></trkpt><trkpt lat="45.39110826417378" lon="10.579565372988682"><ele>117.75</ele><time>2026-03-28T09:28:15Z</time></trkpt><trkpt lat="45.391041087340135" lon="10.57972159612066"><ele>118.0</ele><time>2026-03-28T09:28:16Z</time></trkpt><trkpt lat="45.390998014639635" lon="10.579850310391631"><ele>118.80000000000001</ele><time>2026-03-28T09:28:17Z</time></trkpt><trkpt lat="45.390973720602034" lon="10.57993575361841"><ele>119.60000000000001</ele><time>2026-03-28T09:28:18Z</time></trkpt><trkpt lat="45.390933577427674" lon="10.580076524755652"><ele>120.39999999999999</ele><time>2026-03-28T09:28:20Z</time></trkpt><trkpt lat="45.39091100970451" lon="10.580177002055729"><ele>121.19999999999999</ele><time>2026-03-28T09:28:22Z</time></trkpt><trkpt lat="45.3909648465418" lon="10.580248433493729"><ele>122.0</ele><time>2026-03-28T09:28:25Z</time></trkpt><trkpt lat="45.39109012900785" lon="10.580316739611192"><ele>122.0</ele><time>2026-03-28T09:28:27Z</time></trkpt><trkpt lat="45.39112231795065" lon="10.58043639436136"><ele>122.0</ele><time>2026-03-28T09:28:29Z</time></trkpt><trkpt lat="45.39109107939465" lon="10.58055544474786"><ele>122.0</ele><time>2026-03-28T09:28:30Z</time></trkpt><trkpt lat="45.39102499180494" lon="10.580735172641509"><ele>122.0</ele><time>2026-03-28T09:28:31Z</time></trkpt><trkpt lat="45.39094418965985" lon="10.580952956711853"><ele>122.0</ele><time>2026-03-28T09:28:32Z</time></trkpt><trkpt lat="45.3908751197537" lon="10.581130467838435"><ele>121.99999999999999</ele><time>2026-03-28T09:28:33Z</time></trkpt><trkpt lat="45.39082065129182" lon="10.58128581713996"><ele>121.99999999999999</ele><time>2026-03-28T09:28:34Z</time></trkpt><trkpt lat="45.39077640652197" lon="10.581397687447826"><ele>122.0</ele><time>2026-03-28T09:28:35Z</time></trkpt><trkpt lat="45.39072786228755" lon="10.581478587754601"><ele>122.0</ele><time>2026-03-28T09:28:36Z</time></trkpt><trkpt lat="45.39067549361066" lon="10.581531168615268"><ele>121.19999999999999</ele><time>2026-03-28T09:28:37Z</time></trkpt><trkpt lat="45.39061710133921" lon="10.581627298253503"><ele>120.39999999999999</ele><time>2026-03-28T09:28:38Z</time></trkpt><trkpt lat="45.39056256039961" lon="10.581769095548871"><ele>119.60000000000001</ele><time>2026-03-28T09:28:39Z</time></trkpt><trkpt lat="45.39051150768665" lon="10.581927450853478"><ele>118.80000000000001</ele><time>2026-03-28T09:28:40Z</time></trkpt><trkpt lat="45.39046760948572" lon="10.582061723491941"><ele>118.0</ele><time>2026-03-28T09:28:41Z</time></trkpt><trkpt lat="45.39041937078414" lon="10.582199763138817"><ele>118.0</ele><time>2026-03-28T09:28:42Z</time></trkpt><trkpt lat="45.39037272621871" lon="10.582329298111723"><ele>118.0</ele><time>2026-03-28T09:28:43Z</time></trkpt><trkpt lat="45.390315009009335" lon="10.582467534111814"><ele>118.0</ele><time>2026-03-28T09:28:44Z</time></trkpt><trkpt lat="45.39024641260023" lon="10.582607713321652"><ele>118.0</ele><time>2026-03-28T09:28:45Z</time></trkpt><trkpt lat="45.39017312425074" lon="10.582749100808789"><ele>118.4</ele><time>2026-03-28T09:28:46Z</time></trkpt><trkpt lat="45.39010674667687" lon="10.582888954568613"><ele>118.80000000000001</ele><time>2026-03-28T09:28:47Z</time></trkpt><trkpt lat="45.3900513052397" lon="10.583007453305802"><ele>119.2</ele><time>2026-03-28T09:28:48Z</time></trkpt><trkpt lat="45.3899965873606" lon="10.583130530415495"><ele>119.6</ele><time>2026-03-28T09:28:49Z</time></trkpt><trkpt lat="45.38993373841881" lon="10.583257817509445"><ele>120.0</ele><time>2026-03-28T09:28:50Z</time></trkpt><trkpt lat="45.38989044803648" lon="10.583344266690418"><ele>120.0</ele><time>2026-03-28T09:28:51Z</time></trkpt><trkpt lat="45.38982597152872" lon="10.583477804203277"><ele>120.0</ele><time>2026-03-28T09:28:53Z</time></trkpt><trkpt lat="45.389855074139774" lon="10.583614029700234"><ele>120.0</ele><time>2026-03-28T09:28:54Z</time></trkpt><trkpt lat="45.38987029033872" lon="10.583709324564618"><ele>120.0</ele><time>2026-03-28T09:28:55Z</time></trkpt><trkpt lat="45.389897492848135" lon="10.583796205791991"><ele>120.0</ele><time>2026-03-28T09:28:56Z</time></trkpt><trkpt lat="45.389945870655986" lon="10.583864548880005"><ele>120.0</ele><time>2026-03-28T09:28:57Z</time></trkpt><trkpt lat="45.39001866361703" lon="10.583921266430954"><ele>119.8</ele><time>2026-03-28T09:28:58Z</time></trkpt><trkpt lat="45.3901005112795" lon="10.583948953844068"><ele>119.6</ele><time>2026-03-28T09:28:59Z</time></trkpt><trkpt lat="45.39021042883669" lon="10.58396525760133"><ele>119.4</ele><time>2026-03-28T09:29:00Z</time></trkpt><trkpt lat="45.39031849413427" lon="10.583970076215918"><ele>119.2</ele><time>2026-03-28T09:29:01Z</time></trkpt><trkpt lat="45.390443837625654" lon="10.583957431719362"><ele>119.0</ele><time>2026-03-28T09:29:02Z</time></trkpt><trkpt lat="45.39058450624332" lon="10.583933789823924"><ele>119.0</ele><time>2026-03-28T09:29:03Z</time></trkpt><trkpt lat="45.39070953807883" lon="10.583921604112435"><ele>119.0</ele><time>2026-03-28T09:29:04Z</time></trkpt><trkpt lat="45.39081688499455" lon="10.58393475387639"><ele>119.0</ele><time>2026-03-28T09:29:05Z</time></trkpt><trkpt lat="45.390932533719706" lon="10.583936236030805"><ele>119.0</ele><time>2026-03-28T09:29:06Z</time></trkpt><trkpt lat="45.39103107554125" lon="10.583934165930422"><ele>119.0</ele><time>2026-03-28T09:29:07Z</time></trkpt><trkpt lat="45.39112121348821" lon="10.583976369365079"><ele>119.0</ele><time>2026-03-28T09:29:08Z</time></trkpt><trkpt lat="45.39119269490143" lon="10.584074552537237"><ele>119.0</ele><time>2026-03-28T09:29:09Z</time></trkpt><trkpt lat="45.39129850545422" lon="10.584166041255283"><ele>119.0</ele><time>2026-03-28T09:29:10Z</time></trkpt><trkpt lat="45.391408035816106" lon="10.584283169621008"><ele>119.0</ele><time>2026-03-28T09:29:11Z</time></trkpt><trkpt lat="45.39151282513617" lon="10.584386467171765"><ele>118.2</ele><time>2026-03-28T09:29:12Z</time></trkpt><trkpt lat="45.39159588385314" lon="10.58451200736027"><ele>117.4</ele><time>2026-03-28T09:29:13Z</time></trkpt><trkpt lat="45.391658740590216" lon="10.584611813923816"><ele>116.6</ele><time>2026-03-28T09:29:14Z</time></trkpt><trkpt lat="45.391708209072924" lon="10.584704134006191"><ele>115.8</ele><time>2026-03-28T09:29:15Z</time></trkpt><trkpt lat="45.39175214125997" lon="10.584812982644708"><ele>115.0</ele><time>2026-03-28T09:29:16Z</time></trkpt><trkpt lat="45.39176662378415" lon="10.584931662148701"><ele>115.0</ele><time>2026-03-28T09:29:17Z</time></trkpt><trkpt lat="45.39175589696416" lon="10.58504445792094"><ele>115.0</ele><time>2026-03-28T09:29:18Z</time></trkpt><trkpt lat="45.39173343113314" lon="10.58517270340834"><ele>115.0</ele><time>2026-03-28T09:29:19Z</time></trkpt><trkpt lat="45.39171992084099" lon="10.585345536642588"><ele>115.0</ele><time>2026-03-28T09:29:20Z</time></trkpt><trkpt lat="45.391684116189836" lon="10.585552757354712"><ele>115.0</ele><time>2026-03-28T09:29:21Z</time></trkpt><trkpt lat="45.391672058785694" lon="10.585750495073759"><ele>115.0</ele><time>2026-03-28T09:29:22Z</time></trkpt><trkpt lat="45.39165011734281" lon="10.585955841807472"><ele>115.0</ele><time>2026-03-28T09:29:23Z</time></trkpt><trkpt lat="45.39159805238726" lon="10.58612108846168"><ele>115.0</ele><time>2026-03-28T09:29:24Z</time></trkpt><trkpt lat="45.39156507768211" lon="10.586299382111475"><ele>115.0</ele><time>2026-03-28T09:29:25Z</time></trkpt><trkpt lat="45.3914847217112" lon="10.586465944037291"><ele>115.0</ele><time>2026-03-28T09:29:26Z</time></trkpt><trkpt lat="45.391415332528105" lon="10.586650942486786"><ele>115.0</ele><time>2026-03-28T09:29:27Z</time></trkpt><trkpt lat="45.391352117055085" lon="10.586787509738759"><ele>115.0</ele><time>2026-03-28T09:29:28Z</time></trkpt><trkpt lat="45.39132269163329" lon="10.586920114102233"><ele>115.0</ele><time>2026-03-28T09:29:29Z</time></trkpt><trkpt lat="45.39128723673695" lon="10.587086208134334"><ele>115.00000000000001</ele><time>2026-03-28T09:29:30Z</time></trkpt><trkpt lat="45.391288948217465" lon="10.587207168367023"><ele>115.0</ele><time>2026-03-28T09:29:31Z</time></trkpt><trkpt lat="45.39129379365384" lon="10.587316597067824"><ele>115.0</ele><time>2026-03-28T09:29:32Z</time></trkpt><trkpt lat="45.39127107689588" lon="10.58743385312679"><ele>115.0</ele><time>2026-03-28T09:29:34Z</time></trkpt><trkpt lat="45.39119018648693" lon="10.587426883968462"><ele>115.00000000000001</ele><time>2026-03-28T09:29:35Z</time></trkpt><trkpt lat="45.39114102558927" lon="10.58750111894202"><ele>115.0</ele><time>2026-03-28T09:29:36Z</time></trkpt><trkpt lat="45.39109431065735" lon="10.587597490733808"><ele>115.0</ele><time>2026-03-28T09:29:37Z</time></trkpt><trkpt lat="45.39107740827143" lon="10.587766805659314"><ele>115.0</ele><time>2026-03-28T09:29:38Z</time></trkpt><trkpt lat="45.39105304425242" lon="10.587934685001612"><ele>115.0</ele><time>2026-03-28T09:29:39Z</time></trkpt><trkpt lat="45.39103903212272" lon="10.588113236037051"><ele>115.0</ele><time>2026-03-28T09:29:40Z</time></trkpt><trkpt lat="45.39101473885727" lon="10.588307781858711"><ele>114.5</ele><time>2026-03-28T09:29:41Z</time></trkpt><trkpt lat="45.39098713147704" lon="10.588499695201985"><ele>114.0</ele><time>2026-03-28T09:29:42Z</time></trkpt><trkpt lat="45.39094006533487" lon="10.588683322914491"><ele>113.5</ele><time>2026-03-28T09:29:43Z</time></trkpt><trkpt lat="45.390899288672024" lon="10.58884433916629"><ele>113.0</ele><time>2026-03-28T09:29:44Z</time></trkpt><trkpt lat="45.39086942143274" lon="10.589001760140228"><ele>113.0</ele><time>2026-03-28T09:29:45Z</time></trkpt><trkpt lat="45.39084504176849" lon="10.58913897629755"><ele>113.0</ele><time>2026-03-28T09:29:46Z</time></trkpt><trkpt lat="45.390826730185104" lon="10.589236131255868"><ele>113.0</ele><time>2026-03-28T09:29:47Z</time></trkpt><trkpt lat="45.39080223414521" lon="10.589338240886946"><ele>113.0</ele><time>2026-03-28T09:29:49Z</time></trkpt><trkpt lat="45.39076622797232" lon="10.589671741759116"><ele>113.0</ele><time>2026-03-28T09:29:53Z</time></trkpt><trkpt lat="45.3908517686648" lon="10.589205716772227"><ele>113.0</ele><time>2026-03-28T09:29:56Z</time></trkpt><trkpt lat="45.39085057605373" lon="10.589050847260342"><ele>113.0</ele><time>2026-03-28T09:29:57Z</time></trkpt><trkpt lat="45.390872938559795" lon="10.588908163468384"><ele>113.0</ele><time>2026-03-28T09:29:58Z</time></trkpt><trkpt lat="45.390913794669316" lon="10.588762393927546"><ele>113.0</ele><time>2026-03-28T09:29:59Z</time></trkpt><trkpt lat="45.390959326190085" lon="10.588600952096417"><ele>113.0</ele><time>2026-03-28T09:30:00Z</time></trkpt><trkpt lat="45.39099518223222" lon="10.58840333253074"><ele>113.0</ele><time>2026-03-28T09:30:01Z</time></trkpt><trkpt lat="45.39101778647764" lon="10.58819047539062"><ele>112.80000000000001</ele><time>2026-03-28T09:30:02Z</time></trkpt><trkpt lat="45.39104108696407" lon="10.588003372865348"><ele>112.60000000000001</ele><time>2026-03-28T09:30:03Z</time></trkpt><trkpt lat="45.39105917313053" lon="10.587841765714318"><ele>112.39999999999999</ele><time>2026-03-28T09:30:04Z</time></trkpt><trkpt lat="45.39111941934874" lon="10.587713136214548"><ele>112.19999999999999</ele><time>2026-03-28T09:30:05Z</time></trkpt><trkpt lat="45.39113969333701" lon="10.587607510175697"><ele>112.0</ele><time>2026-03-28T09:30:06Z</time></trkpt><trkpt lat="45.39120041123677" lon="10.587480435871285"><ele>112.6</ele><time>2026-03-28T09:30:08Z</time></trkpt><trkpt lat="45.391274701480704" lon="10.587412064129158"><ele>113.19999999999999</ele><time>2026-03-28T09:30:10Z</time></trkpt><trkpt lat="45.391377207866476" lon="10.587544265062048"><ele>113.8</ele><time>2026-03-28T09:30:15Z</time></trkpt><trkpt lat="45.39144987398435" lon="10.587638329109403"><ele>114.4</ele><time>2026-03-28T09:30:16Z</time></trkpt><trkpt lat="45.39154515780161" lon="10.587735755681564"><ele>115.0</ele><time>2026-03-28T09:30:17Z</time></trkpt><trkpt lat="45.39162915987912" lon="10.587821596376742"><ele>115.75</ele><time>2026-03-28T09:30:18Z</time></trkpt><trkpt lat="45.3917050290441" lon="10.587933721369772"><ele>116.5</ele><time>2026-03-28T09:30:19Z</time></trkpt><trkpt lat="45.39176859913775" lon="10.588089855533648"><ele>117.25</ele><time>2026-03-28T09:30:20Z</time></trkpt><trkpt lat="45.391833723400275" lon="10.588273549917988"><ele>118.0</ele><time>2026-03-28T09:30:21Z</time></trkpt><trkpt lat="45.3918818627345" lon="10.58845757468094"><ele>118.0</ele><time>2026-03-28T09:30:22Z</time></trkpt><trkpt lat="45.39193714919025" lon="10.588629402438402"><ele>118.0</ele><time>2026-03-28T09:30:23Z</time></trkpt><trkpt lat="45.39196600326201" lon="10.588805122096383"><ele>118.0</ele><time>2026-03-28T09:30:24Z</time></trkpt><trkpt lat="45.391985236860826" lon="10.588983266908956"><ele>118.0</ele><time>2026-03-28T09:30:25Z</time></trkpt><trkpt lat="45.391989261636276" lon="10.589181184718552"><ele>118.0</ele><time>2026-03-28T09:30:26Z</time></trkpt><trkpt lat="45.392007045812264" lon="10.589402941882362"><ele>118.0</ele><time>2026-03-28T09:30:27Z</time></trkpt><trkpt lat="45.39202691779172" lon="10.589600899422166"><ele>118.0</ele><time>2026-03-28T09:30:28Z</time></trkpt><trkpt lat="45.392016257961274" lon="10.589789630880448"><ele>118.0</ele><time>2026-03-28T09:30:29Z</time></trkpt><trkpt lat="45.39201640806205" lon="10.59001921588594"><ele>117.75</ele><time>2026-03-28T09:30:30Z</time></trkpt><trkpt lat="45.392018487089" lon="10.590237363018662"><ele>117.5</ele><time>2026-03-28T09:30:31Z</time></trkpt><trkpt lat="45.39202110557359" lon="10.590433965243127"><ele>117.25</ele><time>2026-03-28T09:30:32Z</time></trkpt><trkpt lat="45.392048666992956" lon="10.590599044570276"><ele>117.0</ele><time>2026-03-28T09:30:33Z</time></trkpt><trkpt lat="45.39206292813376" lon="10.590753377910092"><ele>116.8</ele><time>2026-03-28T09:30:34Z</time></trkpt><trkpt lat="45.392078084221524" lon="10.590872748022644"><ele>116.6</ele><time>2026-03-28T09:30:35Z</time></trkpt><trkpt lat="45.392094882306885" lon="10.591004638527293"><ele>116.39999999999999</ele><time>2026-03-28T09:30:36Z</time></trkpt><trkpt lat="45.39215103940357" lon="10.591130714656277"><ele>116.19999999999999</ele><time>2026-03-28T09:30:37Z</time></trkpt><trkpt lat="45.39222452836719" lon="10.591252390745682"><ele>116.0</ele><time>2026-03-28T09:30:38Z</time></trkpt><trkpt lat="45.39231272122649" lon="10.59138697989679"><ele>117.25</ele><time>2026-03-28T09:30:39Z</time></trkpt><trkpt lat="45.39240528548928" lon="10.59153379857039"><ele>118.5</ele><time>2026-03-28T09:30:40Z</time></trkpt><trkpt lat="45.3924799870366" lon="10.591684849991108"><ele>119.75</ele><time>2026-03-28T09:30:41Z</time></trkpt><trkpt lat="45.39253618577946" lon="10.591838851292367"><ele>121.0</ele><time>2026-03-28T09:30:42Z</time></trkpt><trkpt lat="45.39257199359257" lon="10.591987554162408"><ele>120.8</ele><time>2026-03-28T09:30:43Z</time></trkpt><trkpt lat="45.39258944083085" lon="10.59211161111764"><ele>120.6</ele><time>2026-03-28T09:30:44Z</time></trkpt><trkpt lat="45.39258991165672" lon="10.592238895716745"><ele>120.4</ele><time>2026-03-28T09:30:45Z</time></trkpt><trkpt lat="45.39257534839747" lon="10.592386298909357"><ele>120.2</ele><time>2026-03-28T09:30:46Z</time></trkpt><trkpt lat="45.3925620388438" lon="10.592544827547176"><ele>120.0</ele><time>2026-03-28T09:30:47Z</time></trkpt><trkpt lat="45.39253911739695" lon="10.592682303639238"><ele>120.0</ele><time>2026-03-28T09:30:48Z</time></trkpt><trkpt lat="45.392531525649765" lon="10.592784036454782"><ele>120.0</ele><time>2026-03-28T09:30:49Z</time></trkpt><trkpt lat="45.39256241714861" lon="10.592950721807016"><ele>120.0</ele><time>2026-03-28T09:30:51Z</time></trkpt><trkpt lat="45.392613988556" lon="10.59301891967411"><ele>120.0</ele><time>2026-03-28T09:30:52Z</time></trkpt><trkpt lat="45.392684052330736" lon="10.593079487544426"><ele>120.0</ele><time>2026-03-28T09:30:53Z</time></trkpt><trkpt lat="45.39278003575049" lon="10.593127259301271"><ele>120.0</ele><time>2026-03-28T09:30:54Z</time></trkpt><trkpt lat="45.39289571159915" lon="10.593178353846785"><ele>119.0</ele><time>2026-03-28T09:30:55Z</time></trkpt><trkpt lat="45.39301576852755" lon="10.593215809701926"><ele>118.0</ele><time>2026-03-28T09:30:56Z</time></trkpt><trkpt lat="45.39313048617391" lon="10.593276683015896"><ele>117.0</ele><time>2026-03-28T09:30:57Z</time></trkpt><trkpt lat="45.39322452420337" lon="10.59333709795593"><ele>116.0</ele><time>2026-03-28T09:30:58Z</time></trkpt><trkpt lat="45.393325840745774" lon="10.59342362247281"><ele>116.0</ele><time>2026-03-28T09:30:59Z</time></trkpt><trkpt lat="45.39342999993022" lon="10.59349534002996"><ele>116.0</ele><time>2026-03-28T09:31:00Z</time></trkpt><trkpt lat="45.39353183830143" lon="10.593585470086117"><ele>116.0</ele><time>2026-03-28T09:31:01Z</time></trkpt><trkpt lat="45.39364202154395" lon="10.593661438664359"><ele>116.0</ele><time>2026-03-28T09:31:02Z</time></trkpt><trkpt lat="45.393746641174424" lon="10.593743323299796"><ele>115.99999999999999</ele><time>2026-03-28T09:31:03Z</time></trkpt><trkpt lat="45.393818360880594" lon="10.593799397857493"><ele>116.0</ele><time>2026-03-28T09:31:04Z</time></trkpt><trkpt lat="45.39386897093802" lon="10.593868955748658"><ele>116.0</ele><time>2026-03-28T09:31:05Z</time></trkpt><trkpt lat="45.3939010610849" lon="10.593961227403693"><ele>116.0</ele><time>2026-03-28T09:31:06Z</time></trkpt><trkpt lat="45.393915999347875" lon="10.594074227036181"><ele>115.99999999999999</ele><time>2026-03-28T09:31:07Z</time></trkpt><trkpt lat="45.39391486629269" lon="10.59420968897862"><ele>116.0</ele><time>2026-03-28T09:31:08Z</time></trkpt><trkpt lat="45.39391295658262" lon="10.594372566958704"><ele>115.25</ele><time>2026-03-28T09:31:09Z</time></trkpt><trkpt lat="45.39390695532734" lon="10.594583027479718"><ele>114.5</ele><time>2026-03-28T09:31:10Z</time></trkpt><trkpt lat="45.39389294455756" lon="10.594777730096169"><ele>113.75</ele><time>2026-03-28T09:31:11Z</time></trkpt><trkpt lat="45.39389168070363" lon="10.594927926104882"><ele>113.0</ele><time>2026-03-28T09:31:12Z</time></trkpt><trkpt lat="45.393875177118645" lon="10.595090791714592"><ele>113.0</ele><time>2026-03-28T09:31:13Z</time></trkpt><trkpt lat="45.39385608739305" lon="10.595280555804669"><ele>113.00000000000001</ele><time>2026-03-28T09:31:14Z</time></trkpt><trkpt lat="45.39384229548644" lon="10.595425057749056"><ele>113.00000000000001</ele><time>2026-03-28T09:31:15Z</time></trkpt><trkpt lat="45.39382720886965" lon="10.595521604132038"><ele>113.0</ele><time>2026-03-28T09:31:16Z</time></trkpt><trkpt lat="45.39385453634671" lon="10.595704636867001"><ele>113.0</ele><time>2026-03-28T09:31:18Z</time></trkpt><trkpt lat="45.393901692636156" lon="10.595799544217291"><ele>113.60000000000001</ele><time>2026-03-28T09:31:19Z</time></trkpt><trkpt lat="45.393963660076935" lon="10.595857144671806"><ele>114.20000000000002</ele><time>2026-03-28T09:31:20Z</time></trkpt><trkpt lat="45.39404361079206" lon="10.595909388548469"><ele>114.8</ele><time>2026-03-28T09:31:21Z</time></trkpt><trkpt lat="45.394145880149274" lon="10.595948256357993"><ele>115.4</ele><time>2026-03-28T09:31:22Z</time></trkpt><trkpt lat="45.394267259395555" lon="10.595996594395915"><ele>116.0</ele><time>2026-03-28T09:31:23Z</time></trkpt><trkpt lat="45.39437595998217" lon="10.596040260121127"><ele>116.0</ele><time>2026-03-28T09:31:24Z</time></trkpt><trkpt lat="45.394470182032215" lon="10.596091514864744"><ele>116.0</ele><time>2026-03-28T09:31:25Z</time></trkpt><trkpt lat="45.39456053824045" lon="10.596119639387853"><ele>116.0</ele><time>2026-03-28T09:31:26Z</time></trkpt><trkpt lat="45.39465675636622" lon="10.59615177461089"><ele>116.0</ele><time>2026-03-28T09:31:27Z</time></trkpt><trkpt lat="45.39477257888719" lon="10.596176433135359"><ele>116.0</ele><time>2026-03-28T09:31:28Z</time></trkpt><trkpt lat="45.394911386379" lon="10.596214233271766"><ele>115.0</ele><time>2026-03-28T09:31:29Z</time></trkpt><trkpt lat="45.39506210186401" lon="10.596272123273431"><ele>114.0</ele><time>2026-03-28T09:31:30Z</time></trkpt><trkpt lat="45.39517943641878" lon="10.596317143797073"><ele>113.0</ele><time>2026-03-28T09:31:31Z</time></trkpt><trkpt lat="45.39526628481127" lon="10.59636920299336"><ele>112.0</ele><time>2026-03-28T09:31:32Z</time></trkpt><trkpt lat="45.39533023429425" lon="10.596440429662831"><ele>112.0</ele><time>2026-03-28T09:31:33Z</time></trkpt><trkpt lat="45.39540773946488" lon="10.59655723069737"><ele>112.0</ele><time>2026-03-28T09:31:34Z</time></trkpt><trkpt lat="45.39549357162343" lon="10.596707934684906"><ele>112.0</ele><time>2026-03-28T09:31:35Z</time></trkpt><trkpt lat="45.395565633439034" lon="10.596847171330626"><ele>112.0</ele><time>2026-03-28T09:31:36Z</time></trkpt><trkpt lat="45.3956140963584" lon="10.596939997116225"><ele>111.19999999999999</ele><time>2026-03-28T09:31:37Z</time></trkpt><trkpt lat="45.39570153534069" lon="10.597019649616998"><ele>110.39999999999999</ele><time>2026-03-28T09:31:39Z</time></trkpt><trkpt lat="45.39577523879873" lon="10.597064146319147"><ele>109.60000000000001</ele><time>2026-03-28T09:31:40Z</time></trkpt><trkpt lat="45.395876438732415" lon="10.59710609954399"><ele>108.80000000000001</ele><time>2026-03-28T09:31:41Z</time></trkpt><trkpt lat="45.39599542602327" lon="10.597145050342547"><ele>108.0</ele><time>2026-03-28T09:31:42Z</time></trkpt><trkpt lat="45.39612502904316" lon="10.597169701575078"><ele>108.0</ele><time>2026-03-28T09:31:43Z</time></trkpt><trkpt lat="45.396237137698954" lon="10.59721503236733"><ele>108.00000000000001</ele><time>2026-03-28T09:31:44Z</time></trkpt><trkpt lat="45.3963321839556" lon="10.597244905920775"><ele>108.00000000000001</ele><time>2026-03-28T09:31:45Z</time></trkpt><trkpt lat="45.39639021023186" lon="10.597287374532948"><ele>108.0</ele><time>2026-03-28T09:31:46Z</time></trkpt><trkpt lat="45.39649304865914" lon="10.597293017947607"><ele>108.0</ele><time>2026-03-28T09:31:48Z</time></trkpt><trkpt lat="45.39656491832554" lon="10.597259613193343"><ele>106.75</ele><time>2026-03-28T09:31:49Z</time></trkpt><trkpt lat="45.3966851901084" lon="10.597221273182939"><ele>105.5</ele><time>2026-03-28T09:31:50Z</time></trkpt><trkpt lat="45.396815159436784" lon="10.597120477121035"><ele>104.25</ele><time>2026-03-28T09:31:51Z</time></trkpt><trkpt lat="45.39694300244958" lon="10.597084414335832"><ele>103.0</ele><time>2026-03-28T09:31:52Z</time></trkpt><trkpt lat="45.39706550407581" lon="10.597076230129979"><ele>103.16666666666667</ele><time>2026-03-28T09:31:53Z</time></trkpt><trkpt lat="45.39717040038041" lon="10.597087486958857"><ele>103.33333333333334</ele><time>2026-03-28T09:31:54Z</time></trkpt><trkpt lat="45.397235490610086" lon="10.597095787461447"><ele>103.5</ele><time>2026-03-28T09:31:55Z</time></trkpt><trkpt lat="45.397265585889635" lon="10.59723262539803"><ele>103.66666666666666</ele><time>2026-03-28T09:31:59Z</time></trkpt><trkpt lat="45.397247840301134" lon="10.597321582106117"><ele>103.83333333333333</ele><time>2026-03-28T09:32:00Z</time></trkpt><trkpt lat="45.39724759641769" lon="10.597447480650121"><ele>104.0</ele><time>2026-03-28T09:32:01Z</time></trkpt><trkpt lat="45.39723325697951" lon="10.597602367473536"><ele>104.0</ele><time>2026-03-28T09:32:02Z</time></trkpt><trkpt lat="45.39720690429947" lon="10.597785503681862"><ele>104.0</ele><time>2026-03-28T09:32:03Z</time></trkpt><trkpt lat="45.39719205781872" lon="10.597966375329197"><ele>104.0</ele><time>2026-03-28T09:32:04Z</time></trkpt><trkpt lat="45.39716302414345" lon="10.598108454578677"><ele>104.0</ele><time>2026-03-28T09:32:05Z</time></trkpt><trkpt lat="45.39712773767056" lon="10.59826414148657"><ele>103.80000000000001</ele><time>2026-03-28T09:32:06Z</time></trkpt><trkpt lat="45.39708562775887" lon="10.598399130048703"><ele>103.60000000000001</ele><time>2026-03-28T09:32:07Z</time></trkpt><trkpt lat="45.39704639114762" lon="10.598521283157405"><ele>103.4</ele><time>2026-03-28T09:32:08Z</time></trkpt><trkpt lat="45.39701459024312" lon="10.598612846462713"><ele>103.2</ele><time>2026-03-28T09:32:09Z</time></trkpt><trkpt lat="45.39697353218186" lon="10.598794114657194"><ele>103.0</ele><time>2026-03-28T09:32:11Z</time></trkpt><trkpt lat="45.39694564720692" lon="10.598917118388437"><ele>103.0</ele><time>2026-03-28T09:32:12Z</time></trkpt><trkpt lat="45.39691104910455" lon="10.599062895110238"><ele>103.0</ele><time>2026-03-28T09:32:13Z</time></trkpt><trkpt lat="45.39687654700103" lon="10.599214292547808"><ele>103.0</ele><time>2026-03-28T09:32:14Z</time></trkpt><trkpt lat="45.39688125452425" lon="10.599356791545864"><ele>103.0</ele><time>2026-03-28T09:32:15Z</time></trkpt><trkpt lat="45.39688125452021" lon="10.599505689811746"><ele>103.0</ele><time>2026-03-28T09:32:16Z</time></trkpt><trkpt lat="45.396933126818865" lon="10.599594747635777"><ele>103.0</ele><time>2026-03-28T09:32:17Z</time></trkpt><trkpt lat="45.396923136643586" lon="10.599732560661616"><ele>103.0</ele><time>2026-03-28T09:32:18Z</time></trkpt><trkpt lat="45.396924554247576" lon="10.599958603437468"><ele>103.0</ele><time>2026-03-28T09:32:20Z</time></trkpt><trkpt lat="45.3965611576106" lon="10.60014462890001"><ele>103.0</ele><time>2026-03-28T09:32:21Z</time></trkpt><trkpt lat="45.39651500891525" lon="10.600289964839666"><ele>103.0</ele><time>2026-03-28T09:32:22Z</time></trkpt><trkpt lat="45.396468967499914" lon="10.60044070412891"><ele>103.0</ele><time>2026-03-28T09:32:23Z</time></trkpt><trkpt lat="45.396430199759564" lon="10.600569149383807"><ele>103.0</ele><time>2026-03-28T09:32:24Z</time></trkpt><trkpt lat="45.396391729997326" lon="10.600677172380443"><ele>103.0</ele><time>2026-03-28T09:32:25Z</time></trkpt><trkpt lat="45.39636029457571" lon="10.600783842187036"><ele>102.60000000000001</ele><time>2026-03-28T09:32:26Z</time></trkpt><trkpt lat="45.3963301154735" lon="10.600882075217346"><ele>102.2</ele><time>2026-03-28T09:32:27Z</time></trkpt><trkpt lat="45.3963017761517" lon="10.600969432115779"><ele>101.8</ele><time>2026-03-28T09:32:28Z</time></trkpt><trkpt lat="45.396238544612665" lon="10.601168566392438"><ele>101.4</ele><time>2026-03-28T09:32:30Z</time></trkpt><trkpt lat="45.39620802097427" lon="10.601273961303026"><ele>101.0</ele><time>2026-03-28T09:32:31Z</time></trkpt><trkpt lat="45.396180428720115" lon="10.601373221508148"><ele>100.99999999999999</ele><time>2026-03-28T09:32:32Z</time></trkpt><trkpt lat="45.3961556662753" lon="10.601474140826621"><ele>101.0</ele><time>2026-03-28T09:32:33Z</time></trkpt><trkpt lat="45.39613297986926" lon="10.601560124958686"><ele>101.0</ele><time>2026-03-28T09:32:34Z</time></trkpt><trkpt lat="45.39610181033441" lon="10.601671416252708"><ele>101.0</ele><time>2026-03-28T09:32:35Z</time></trkpt><trkpt lat="45.396066676085255" lon="10.601816268409255"><ele>100.99999999999999</ele><time>2026-03-28T09:32:36Z</time></trkpt><trkpt lat="45.39602878715283" lon="10.60196035274616"><ele>101.0</ele><time>2026-03-28T09:32:37Z</time></trkpt><trkpt lat="45.39598608432977" lon="10.60210044911662"><ele>101.19999999999999</ele><time>2026-03-28T09:32:38Z</time></trkpt><trkpt lat="45.39593973453075" lon="10.602245289637423"><ele>101.39999999999999</ele><time>2026-03-28T09:32:39Z</time></trkpt><trkpt lat="45.39589595445568" lon="10.602375414621443"><ele>101.6</ele><time>2026-03-28T09:32:40Z</time></trkpt><trkpt lat="45.395845938789996" lon="10.602514912225882"><ele>101.8</ele><time>2026-03-28T09:32:41Z</time></trkpt><trkpt lat="45.395803310688166" lon="10.602660751446749"><ele>102.0</ele><time>2026-03-28T09:32:42Z</time></trkpt><trkpt lat="45.39576347876225" lon="10.602788292870065"><ele>102.6</ele><time>2026-03-28T09:32:43Z</time></trkpt><trkpt lat="45.39572639475116" lon="10.602923266443502"><ele>103.19999999999999</ele><time>2026-03-28T09:32:44Z</time></trkpt><trkpt lat="45.39568831150456" lon="10.603052531527904"><ele>103.8</ele><time>2026-03-28T09:32:45Z</time></trkpt><trkpt lat="45.39564579222812" lon="10.603186203059813"><ele>104.4</ele><time>2026-03-28T09:32:46Z</time></trkpt><trkpt lat="45.39560135873553" lon="10.603317185906642"><ele>105.0</ele><time>2026-03-28T09:32:47Z</time></trkpt><trkpt lat="45.39556439399742" lon="10.603431875115655"><ele>105.0</ele><time>2026-03-28T09:32:48Z</time></trkpt><trkpt lat="45.395521115688844" lon="10.603550656067686"><ele>105.0</ele><time>2026-03-28T09:32:49Z</time></trkpt><trkpt lat="45.39548074130887" lon="10.60367362839552"><ele>105.0</ele><time>2026-03-28T09:32:50Z</time></trkpt><trkpt lat="45.39544858677032" lon="10.603777784895973"><ele>105.0</ele><time>2026-03-28T09:32:51Z</time></trkpt><trkpt lat="45.39541627524833" lon="10.60387593744921"><ele>105.0</ele><time>2026-03-28T09:32:52Z</time></trkpt><trkpt lat="45.3953775744615" lon="10.603984832824132"><ele>105.0</ele><time>2026-03-28T09:32:53Z</time></trkpt><trkpt lat="45.39534259040109" lon="10.604091954416756"><ele>104.16666666666667</ele><time>2026-03-28T09:32:54Z</time></trkpt><trkpt lat="45.3953032633107" lon="10.604222285413135"><ele>103.33333333333334</ele><time>2026-03-28T09:32:55Z</time></trkpt><trkpt lat="45.39526995716086" lon="10.604333570470649"><ele>102.5</ele><time>2026-03-28T09:32:56Z</time></trkpt><trkpt lat="45.39523885221162" lon="10.604424932798192"><ele>101.66666666666667</ele><time>2026-03-28T09:32:57Z</time></trkpt><trkpt lat="45.39520548382449" lon="10.604529119329062"><ele>100.83333333333334</ele><time>2026-03-28T09:32:58Z</time></trkpt><trkpt lat="45.395174658527765" lon="10.60463771243997"><ele>100.0</ele><time>2026-03-28T09:32:59Z</time></trkpt><trkpt lat="45.39515851189637" lon="10.604730772430633"><ele>100.00000000000001</ele><time>2026-03-28T09:33:00Z</time></trkpt><trkpt lat="45.39514289858599" lon="10.604821855715928"><ele>100.0</ele><time>2026-03-28T09:33:01Z</time></trkpt><trkpt lat="45.39511988962661" lon="10.60492807631803"><ele>100.0</ele><time>2026-03-28T09:33:02Z</time></trkpt><trkpt lat="45.39510028334359" lon="10.605026636318705"><ele>100.0</ele><time>2026-03-28T09:33:03Z</time></trkpt><trkpt lat="45.39508199706587" lon="10.605120750462033"><ele>100.00000000000001</ele><time>2026-03-28T09:33:04Z</time></trkpt><trkpt lat="45.39504959998335" lon="10.60531918341942"><ele>100.0</ele><time>2026-03-28T09:33:06Z</time></trkpt><trkpt lat="45.39502520844557" lon="10.605452454411651"><ele>100.6</ele><time>2026-03-28T09:33:07Z</time></trkpt><trkpt lat="45.395002572735194" lon="10.605577439361225"><ele>101.2</ele><time>2026-03-28T09:33:08Z</time></trkpt><trkpt lat="45.39498944759868" lon="10.605666619596125"><ele>101.80000000000001</ele><time>2026-03-28T09:33:09Z</time></trkpt><trkpt lat="45.39497049030088" lon="10.605758343538426"><ele>102.4</ele><time>2026-03-28T09:33:10Z</time></trkpt><trkpt lat="45.394945018370215" lon="10.605898629251548"><ele>103.0</ele><time>2026-03-28T09:33:11Z</time></trkpt><trkpt lat="45.39491425950447" lon="10.606079202312321"><ele>102.80000000000001</ele><time>2026-03-28T09:33:12Z</time></trkpt><trkpt lat="45.394865292883615" lon="10.606253089064563"><ele>102.6</ele><time>2026-03-28T09:33:13Z</time></trkpt><trkpt lat="45.3948363824702" lon="10.606407528206416"><ele>102.4</ele><time>2026-03-28T09:33:14Z</time></trkpt><trkpt lat="45.394824065265325" lon="10.606537142144925"><ele>102.19999999999999</ele><time>2026-03-28T09:33:15Z</time></trkpt><trkpt lat="45.394807447832996" lon="10.606676876509963"><ele>102.0</ele><time>2026-03-28T09:33:16Z</time></trkpt><trkpt lat="45.39479237327489" lon="10.606853716099643"><ele>102.5</ele><time>2026-03-28T09:33:17Z</time></trkpt><trkpt lat="45.394787894535995" lon="10.60702886600359"><ele>103.0</ele><time>2026-03-28T09:33:18Z</time></trkpt><trkpt lat="45.394785440199016" lon="10.6072056900927"><ele>103.5</ele><time>2026-03-28T09:33:19Z</time></trkpt><trkpt lat="45.39476845814224" lon="10.607384304423435"><ele>104.0</ele><time>2026-03-28T09:33:20Z</time></trkpt><trkpt lat="45.39476442599628" lon="10.607544633169855"><ele>104.0</ele><time>2026-03-28T09:33:21Z</time></trkpt><trkpt lat="45.394776149854025" lon="10.607729649664101"><ele>104.0</ele><time>2026-03-28T09:33:22Z</time></trkpt><trkpt lat="45.394767984141666" lon="10.60793144157028"><ele>104.0</ele><time>2026-03-28T09:33:23Z</time></trkpt><trkpt lat="45.39475874624375" lon="10.608139334931895"><ele>104.0</ele><time>2026-03-28T09:33:24Z</time></trkpt><trkpt lat="45.3947494906012" lon="10.60832603271743"><ele>104.0</ele><time>2026-03-28T09:33:25Z</time></trkpt><trkpt lat="45.39472227053779" lon="10.608502912023116"><ele>104.0</ele><time>2026-03-28T09:33:26Z</time></trkpt><trkpt lat="45.39469777994537" lon="10.608688848729686"><ele>104.0</ele><time>2026-03-28T09:33:27Z</time></trkpt><trkpt lat="45.39467049716949" lon="10.608852229953248"><ele>104.0</ele><time>2026-03-28T09:33:28Z</time></trkpt><trkpt lat="45.39465295210591" lon="10.6090295964999"><ele>102.5</ele><time>2026-03-28T09:33:29Z</time></trkpt><trkpt lat="45.394600394486105" lon="10.609167715299606"><ele>101.0</ele><time>2026-03-28T09:33:30Z</time></trkpt><trkpt lat="45.394549374329905" lon="10.609321268294996"><ele>99.5</ele><time>2026-03-28T09:33:31Z</time></trkpt><trkpt lat="45.39449786859136" lon="10.609455500325838"><ele>98.0</ele><time>2026-03-28T09:33:32Z</time></trkpt><trkpt lat="45.394433823664656" lon="10.609606525662734"><ele>98.0</ele><time>2026-03-28T09:33:33Z</time></trkpt><trkpt lat="45.39437666016901" lon="10.609738585001029"><ele>98.0</ele><time>2026-03-28T09:33:34Z</time></trkpt><trkpt lat="45.39432591764239" lon="10.609884423196004"><ele>98.0</ele><time>2026-03-28T09:33:35Z</time></trkpt><trkpt lat="45.39430247286548" lon="10.6100328460224"><ele>98.0</ele><time>2026-03-28T09:33:36Z</time></trkpt><trkpt lat="45.39426447078658" lon="10.610131597611522"><ele>98.0</ele><time>2026-03-28T09:33:37Z</time></trkpt><trkpt lat="45.394246223463966" lon="10.61027243225881"><ele>98.4</ele><time>2026-03-28T09:33:38Z</time></trkpt><trkpt lat="45.394251586138395" lon="10.610435090112292"><ele>98.80000000000001</ele><time>2026-03-28T09:33:39Z</time></trkpt><trkpt lat="45.39424738961912" lon="10.61057796769588"><ele>99.2</ele><time>2026-03-28T09:33:40Z</time></trkpt><trkpt lat="45.394232754517816" lon="10.610729044705648"><ele>99.6</ele><time>2026-03-28T09:33:41Z</time></trkpt><trkpt lat="45.394251988897565" lon="10.610862221030246"><ele>100.0</ele><time>2026-03-28T09:33:42Z</time></trkpt><trkpt lat="45.39424180434965" lon="10.610962191960471"><ele>100.0</ele><time>2026-03-28T09:33:43Z</time></trkpt><trkpt lat="45.394268783537406" lon="10.611121054287883"><ele>100.0</ele><time>2026-03-28T09:33:45Z</time></trkpt><trkpt lat="45.394266299273596" lon="10.611217143173025"><ele>100.0</ele><time>2026-03-28T09:33:48Z</time></trkpt><trkpt lat="45.39444645466076" lon="10.611228888820035"><ele>100.0</ele><time>2026-03-28T09:35:32Z</time></trkpt><trkpt lat="45.39453323762981" lon="10.611179153675321"><ele>100.0</ele><time>2026-03-28T09:35:33Z</time></trkpt><trkpt lat="45.39462273993003" lon="10.61112728581625"><ele>100.0</ele><time>2026-03-28T09:35:34Z</time></trkpt><trkpt lat="45.39472926150855" lon="10.61104039956987"><ele>100.0</ele><time>2026-03-28T09:35:35Z</time></trkpt><trkpt lat="45.39484825609934" lon="10.610992884998975"><ele>100.0</ele><time>2026-03-28T09:35:36Z</time></trkpt><trkpt lat="45.39498454775704" lon="10.610911659232148"><ele>102.0</ele><time>2026-03-28T09:35:37Z</time></trkpt><trkpt lat="45.39509496196681" lon="10.610847162882717"><ele>104.0</ele><time>2026-03-28T09:35:38Z</time></trkpt><trkpt lat="45.39518094345154" lon="10.610796940910646"><ele>106.0</ele><time>2026-03-28T09:35:39Z</time></trkpt><trkpt lat="45.3952520413671" lon="10.610767604706663"><ele>108.0</ele><time>2026-03-28T09:35:40Z</time></trkpt><trkpt lat="45.39534395730726" lon="10.610739499088067"><ele>110.0</ele><time>2026-03-28T09:35:41Z</time></trkpt><trkpt lat="45.39545288086536" lon="10.610702935469458"><ele>111.0</ele><time>2026-03-28T09:35:42Z</time></trkpt><trkpt lat="45.39556115620678" lon="10.61064953219452"><ele>112.0</ele><time>2026-03-28T09:35:43Z</time></trkpt><trkpt lat="45.3956614159578" lon="10.610620285127967"><ele>113.0</ele><time>2026-03-28T09:35:44Z</time></trkpt><trkpt lat="45.395765285048824" lon="10.610579120263296"><ele>114.0</ele><time>2026-03-28T09:35:45Z</time></trkpt><trkpt lat="45.3958443024153" lon="10.610529365425379"><ele>115.0</ele><time>2026-03-28T09:35:46Z</time></trkpt><trkpt lat="45.3959145617936" lon="10.610440990670273"><ele>115.0</ele><time>2026-03-28T09:35:47Z</time></trkpt><trkpt lat="45.39596159744158" lon="10.610347684450018"><ele>115.0</ele><time>2026-03-28T09:35:48Z</time></trkpt><trkpt lat="45.39601671326912" lon="10.610215501171751"><ele>115.0</ele><time>2026-03-28T09:35:49Z</time></trkpt><trkpt lat="45.39609636226495" lon="10.610078907468752"><ele>115.0</ele><time>2026-03-28T09:35:50Z</time></trkpt><trkpt lat="45.396166878059766" lon="10.609946314613623"><ele>115.0</ele><time>2026-03-28T09:35:51Z</time></trkpt><trkpt lat="45.39624777551521" lon="10.609828817159503"><ele>115.2</ele><time>2026-03-28T09:35:52Z</time></trkpt><trkpt lat="45.39629338808673" lon="10.609710079912528"><ele>115.4</ele><time>2026-03-28T09:35:53Z</time></trkpt><trkpt lat="45.39633717983907" lon="10.609582990982677"><ele>115.6</ele><time>2026-03-28T09:35:54Z</time></trkpt><trkpt lat="45.396372779434934" lon="10.609430269995158"><ele>115.8</ele><time>2026-03-28T09:35:55Z</time></trkpt><trkpt lat="45.3964287850784" lon="10.60930580708716"><ele>116.0</ele><time>2026-03-28T09:35:56Z</time></trkpt><trkpt lat="45.396453950400485" lon="10.609183493411855"><ele>116.8</ele><time>2026-03-28T09:35:57Z</time></trkpt><trkpt lat="45.39649339169482" lon="10.609112092049388"><ele>117.6</ele><time>2026-03-28T09:35:58Z</time></trkpt><trkpt lat="45.396604235926866" lon="10.609049782009363"><ele>118.4</ele><time>2026-03-28T09:36:00Z</time></trkpt><trkpt lat="45.396694957803824" lon="10.609065971091532"><ele>119.2</ele><time>2026-03-28T09:36:01Z</time></trkpt><trkpt lat="45.39681924453882" lon="10.609074375645694"><ele>120.0</ele><time>2026-03-28T09:36:02Z</time></trkpt><trkpt lat="45.396964991295796" lon="10.60909647405676"><ele>120.0</ele><time>2026-03-28T09:36:03Z</time></trkpt><trkpt lat="45.397114282172915" lon="10.609105143524916"><ele>120.0</ele><time>2026-03-28T09:36:04Z</time></trkpt><trkpt lat="45.397283111876845" lon="10.60910473417434"><ele>120.0</ele><time>2026-03-28T09:36:05Z</time></trkpt><trkpt lat="45.39745756402048" lon="10.60910678430528"><ele>120.66666666666666</ele><time>2026-03-28T09:36:06Z</time></trkpt><trkpt lat="45.39761543131484" lon="10.609099975525487"><ele>121.33333333333333</ele><time>2026-03-28T09:36:07Z</time></trkpt><trkpt lat="45.397773857634434" lon="10.609051046758594"><ele>122.0</ele><time>2026-03-28T09:36:08Z</time></trkpt><trkpt lat="45.39793325520394" lon="10.609004086358452"><ele>122.0</ele><time>2026-03-28T09:36:09Z</time></trkpt><trkpt lat="45.39807417632678" lon="10.608965661831041"><ele>121.99999999999999</ele><time>2026-03-28T09:36:10Z</time></trkpt><trkpt lat="45.398191417225654" lon="10.608940838775151"><ele>121.99999999999999</ele><time>2026-03-28T09:36:11Z</time></trkpt><trkpt lat="45.398273159592605" lon="10.608901986967464"><ele>122.0</ele><time>2026-03-28T09:36:12Z</time></trkpt><trkpt lat="45.39834202420396" lon="10.608894286521016"><ele>122.0</ele><time>2026-03-28T09:36:13Z</time></trkpt><trkpt lat="45.39840665067419" lon="10.608919230932592"><ele>122.0</ele><time>2026-03-28T09:36:15Z</time></trkpt><trkpt lat="45.39836624160991" lon="10.609087221543136"><ele>122.0</ele><time>2026-03-28T09:36:17Z</time></trkpt><trkpt lat="45.39832693433005" lon="10.609295127826652"><ele>122.0</ele><time>2026-03-28T09:36:18Z</time></trkpt><trkpt lat="45.3983010859735" lon="10.609564364495265"><ele>123.5</ele><time>2026-03-28T09:36:19Z</time></trkpt><trkpt lat="45.39825153933838" lon="10.609887593955113"><ele>125.0</ele><time>2026-03-28T09:36:20Z</time></trkpt><trkpt lat="45.398205495425344" lon="10.610253480292391"><ele>125.0</ele><time>2026-03-28T09:36:21Z</time></trkpt><trkpt lat="45.39814986822246" lon="10.610620405052336"><ele>125.0</ele><time>2026-03-28T09:36:22Z</time></trkpt><trkpt lat="45.3980879760829" lon="10.610943180483494"><ele>126.0</ele><time>2026-03-28T09:36:23Z</time></trkpt><trkpt lat="45.398004880484066" lon="10.611267916190203"><ele>127.0</ele><time>2026-03-28T09:36:24Z</time></trkpt><trkpt lat="45.3979019737648" lon="10.61154175956321"><ele>124.0</ele><time>2026-03-28T09:36:25Z</time></trkpt><trkpt lat="45.39781783344113" lon="10.611775618128512"><ele>121.0</ele><time>2026-03-28T09:36:26Z</time></trkpt><trkpt lat="45.397744036828044" lon="10.611981554062393"><ele>118.0</ele><time>2026-03-28T09:36:27Z</time></trkpt><trkpt lat="45.397682819804835" lon="10.612157057196208"><ele>118.0</ele><time>2026-03-28T09:36:28Z</time></trkpt><trkpt lat="45.397633516140644" lon="10.612308949990588"><ele>118.0</ele><time>2026-03-28T09:36:29Z</time></trkpt><trkpt lat="45.39760139966068" lon="10.612484576185564"><ele>118.0</ele><time>2026-03-28T09:36:30Z</time></trkpt><trkpt lat="45.3975533555831" lon="10.612692123549206"><ele>118.0</ele><time>2026-03-28T09:36:31Z</time></trkpt><trkpt lat="45.3975323842943" lon="10.612925181100506"><ele>118.0</ele><time>2026-03-28T09:36:32Z</time></trkpt><trkpt lat="45.397537916137324" lon="10.61316741147541"><ele>118.0</ele><time>2026-03-28T09:36:33Z</time></trkpt><trkpt lat="45.397552466171106" lon="10.613437518030533"><ele>118.0</ele><time>2026-03-28T09:36:34Z</time></trkpt><trkpt lat="45.397567312583256" lon="10.613700581477765"><ele>118.0</ele><time>2026-03-28T09:36:35Z</time></trkpt><trkpt lat="45.39756330182413" lon="10.613977804487266"><ele>118.0</ele><time>2026-03-28T09:36:36Z</time></trkpt><trkpt lat="45.39757395846671" lon="10.614293132217046"><ele>118.0</ele><time>2026-03-28T09:36:37Z</time></trkpt><trkpt lat="45.39758062210769" lon="10.614661684554585"><ele>118.0</ele><time>2026-03-28T09:36:38Z</time></trkpt><trkpt lat="45.397583794478784" lon="10.615000765879795"><ele>118.0</ele><time>2026-03-28T09:36:39Z</time></trkpt><trkpt lat="45.39757883134697" lon="10.6153082846352"><ele>118.0</ele><time>2026-03-28T09:36:40Z</time></trkpt><trkpt lat="45.39757118951216" lon="10.615605152526113"><ele>118.0</ele><time>2026-03-28T09:36:41Z</time></trkpt><trkpt lat="45.39755742408287" lon="10.615922232215592"><ele>118.0</ele><time>2026-03-28T09:36:42Z</time></trkpt><trkpt lat="45.39754114053426" lon="10.616228987708787"><ele>117.33333333333334</ele><time>2026-03-28T09:36:43Z</time></trkpt><trkpt lat="45.39752481271287" lon="10.616535041259791"><ele>116.66666666666666</ele><time>2026-03-28T09:36:44Z</time></trkpt><trkpt lat="45.39750839749184" lon="10.616838252620793"><ele>116.0</ele><time>2026-03-28T09:36:45Z</time></trkpt><trkpt lat="45.39749065183748" lon="10.617160564730884"><ele>115.0</ele><time>2026-03-28T09:36:46Z</time></trkpt><trkpt lat="45.39747220542991" lon="10.617495604482164"><ele>114.0</ele><time>2026-03-28T09:36:47Z</time></trkpt><trkpt lat="45.39745474286486" lon="10.617841292890008"><ele>113.0</ele><time>2026-03-28T09:36:48Z</time></trkpt><trkpt lat="45.39744020799754" lon="10.618153742813583"><ele>112.0</ele><time>2026-03-28T09:36:49Z</time></trkpt><trkpt lat="45.397426331871316" lon="10.618431884401007"><ele>111.0</ele><time>2026-03-28T09:36:50Z</time></trkpt><trkpt lat="45.397426804225894" lon="10.618683218013574"><ele>108.66666666666666</ele><time>2026-03-28T09:36:51Z</time></trkpt><trkpt lat="45.39739977400883" lon="10.618946347179525"><ele>106.33333333333333</ele><time>2026-03-28T09:36:52Z</time></trkpt><trkpt lat="45.39733058905607" lon="10.61921245226959"><ele>104.0</ele><time>2026-03-28T09:36:53Z</time></trkpt><trkpt lat="45.39726271982458" lon="10.619461074671856"><ele>102.66666666666666</ele><time>2026-03-28T09:36:54Z</time></trkpt><trkpt lat="45.39717763381481" lon="10.61969378103367"><ele>101.33333333333334</ele><time>2026-03-28T09:36:55Z</time></trkpt><trkpt lat="45.39706375970075" lon="10.61989731716332"><ele>100.0</ele><time>2026-03-28T09:36:56Z</time></trkpt><trkpt lat="45.39692578217156" lon="10.620099400764996"><ele>100.0</ele><time>2026-03-28T09:36:57Z</time></trkpt><trkpt lat="45.39674708434065" lon="10.62031009007401"><ele>100.0</ele><time>2026-03-28T09:36:58Z</time></trkpt><trkpt lat="45.39655017271908" lon="10.620535179217564"><ele>99.0</ele><time>2026-03-28T09:36:59Z</time></trkpt><trkpt lat="45.39638751534672" lon="10.620749989521958"><ele>98.0</ele><time>2026-03-28T09:37:00Z</time></trkpt><trkpt lat="45.396238850178015" lon="10.620920960850873"><ele>97.0</ele><time>2026-03-28T09:37:01Z</time></trkpt><trkpt lat="45.39610361757962" lon="10.621046111388656"><ele>95.8</ele><time>2026-03-28T09:37:02Z</time></trkpt><trkpt lat="45.39600448802255" lon="10.621160795220337"><ele>94.6</ele><time>2026-03-28T09:37:03Z</time></trkpt><trkpt lat="45.39592996430636" lon="10.621275938277755"><ele>93.39999999999999</ele><time>2026-03-28T09:37:04Z</time></trkpt><trkpt lat="45.39587019233888" lon="10.621338893119608"><ele>92.19999999999999</ele><time>2026-03-28T09:37:05Z</time></trkpt><trkpt lat="45.39578719786802" lon="10.621365645023547"><ele>91.0</ele><time>2026-03-28T09:37:07Z</time></trkpt><trkpt lat="45.39572416342006" lon="10.621335582359825"><ele>91.66666666666666</ele><time>2026-03-28T09:37:09Z</time></trkpt><trkpt lat="45.395742365358664" lon="10.621081067933849"><ele>92.33333333333333</ele><time>2026-03-28T09:37:10Z</time></trkpt><trkpt lat="45.39574246650031" lon="10.620849539612752"><ele>93.0</ele><time>2026-03-28T09:37:11Z</time></trkpt><trkpt lat="45.395736375635046" lon="10.620650338907444"><ele>93.0</ele><time>2026-03-28T09:37:12Z</time></trkpt><trkpt lat="45.395709061589045" lon="10.620475731645016"><ele>93.0</ele><time>2026-03-28T09:37:13Z</time></trkpt><trkpt lat="45.395682868755515" lon="10.62025072291139"><ele>93.0</ele><time>2026-03-28T09:37:14Z</time></trkpt><trkpt lat="45.3956289874167" lon="10.620013446195331"><ele>93.5</ele><time>2026-03-28T09:37:15Z</time></trkpt><trkpt lat="45.39554410403874" lon="10.619735037405874"><ele>94.0</ele><time>2026-03-28T09:37:16Z</time></trkpt><trkpt lat="45.395435650060804" lon="10.619424058064316"><ele>94.0</ele><time>2026-03-28T09:37:17Z</time></trkpt><trkpt lat="45.39532898905704" lon="10.619131815714423"><ele>94.0</ele><time>2026-03-28T09:37:18Z</time></trkpt><trkpt lat="45.39522374953253" lon="10.618844379369735"><ele>95.0</ele><time>2026-03-28T09:37:19Z</time></trkpt><trkpt lat="45.39512969656804" lon="10.618569353669344"><ele>96.0</ele><time>2026-03-28T09:37:20Z</time></trkpt><trkpt lat="45.39504477860663" lon="10.618324451341364"><ele>97.0</ele><time>2026-03-28T09:37:21Z</time></trkpt><trkpt lat="45.39495111930003" lon="10.618067929633906"><ele>96.0</ele><time>2026-03-28T09:37:22Z</time></trkpt><trkpt lat="45.39484643840033" lon="10.617798872444721"><ele>95.0</ele><time>2026-03-28T09:37:23Z</time></trkpt><trkpt lat="45.394727900806025" lon="10.617512859123064"><ele>94.0</ele><time>2026-03-28T09:37:24Z</time></trkpt><trkpt lat="45.39459594008784" lon="10.617219456705987"><ele>97.0</ele><time>2026-03-28T09:37:25Z</time></trkpt><trkpt lat="45.39445242674231" lon="10.616925512328473"><ele>100.0</ele><time>2026-03-28T09:37:26Z</time></trkpt><trkpt lat="45.39431057948858" lon="10.616644292819954"><ele>100.0</ele><time>2026-03-28T09:37:27Z</time></trkpt><trkpt lat="45.394168168785086" lon="10.616370487850205"><ele>100.0</ele><time>2026-03-28T09:37:28Z</time></trkpt><trkpt lat="45.39404307460227" lon="10.616113811755026"><ele>101.0</ele><time>2026-03-28T09:37:29Z</time></trkpt><trkpt lat="45.393940890664865" lon="10.615827056517032"><ele>102.0</ele><time>2026-03-28T09:37:30Z</time></trkpt><trkpt lat="45.39382935344357" lon="10.615532842398562"><ele>99.0</ele><time>2026-03-28T09:37:31Z</time></trkpt><trkpt lat="45.39371467615641" lon="10.615228097693857"><ele>96.0</ele><time>2026-03-28T09:37:32Z</time></trkpt><trkpt lat="45.39358866061707" lon="10.614934759147564"><ele>96.0</ele><time>2026-03-28T09:37:33Z</time></trkpt><trkpt lat="45.39348259716714" lon="10.614641214461148"><ele>96.0</ele><time>2026-03-28T09:37:34Z</time></trkpt><trkpt lat="45.39337875175713" lon="10.614369414095576"><ele>96.0</ele><time>2026-03-28T09:37:35Z</time></trkpt><trkpt lat="45.39327654146865" lon="10.614102346560273"><ele>97.0</ele><time>2026-03-28T09:37:36Z</time></trkpt><trkpt lat="45.39319266249868" lon="10.613879116866896"><ele>98.0</ele><time>2026-03-28T09:37:37Z</time></trkpt><trkpt lat="45.39310141661525" lon="10.613638285628266"><ele>99.0</ele><time>2026-03-28T09:37:39Z</time></trkpt><trkpt lat="45.39304972448494" lon="10.613511239452317"><ele>97.5</ele><time>2026-03-28T09:37:40Z</time></trkpt><trkpt lat="45.392975093420354" lon="10.613346341412191"><ele>96.0</ele><time>2026-03-28T09:37:41Z</time></trkpt><trkpt lat="45.39289185146853" lon="10.613182752361752"><ele>94.5</ele><time>2026-03-28T09:37:42Z</time></trkpt><trkpt lat="45.39280011335471" lon="10.613044595450532"><ele>93.0</ele><time>2026-03-28T09:37:43Z</time></trkpt><trkpt lat="45.39269288600297" lon="10.612884249177585"><ele>93.0</ele><time>2026-03-28T09:37:44Z</time></trkpt><trkpt lat="45.39257689183123" lon="10.61270157132983"><ele>93.0</ele><time>2026-03-28T09:37:45Z</time></trkpt><trkpt lat="45.39246944766182" lon="10.61255434295961"><ele>93.0</ele><time>2026-03-28T09:37:46Z</time></trkpt><trkpt lat="45.39237451782092" lon="10.612418831073548"><ele>93.0</ele><time>2026-03-28T09:37:47Z</time></trkpt><trkpt lat="45.39228819598" lon="10.612277694973383"><ele>93.0</ele><time>2026-03-28T09:37:48Z</time></trkpt><trkpt lat="45.392218440417416" lon="10.612161516255036"><ele>93.0</ele><time>2026-03-28T09:37:49Z</time></trkpt><trkpt lat="45.39216437839337" lon="10.612059442920026"><ele>93.0</ele><time>2026-03-28T09:37:50Z</time></trkpt><trkpt lat="45.392119571179336" lon="10.611991743407051"><ele>93.0</ele><time>2026-03-28T09:37:51Z</time></trkpt><trkpt lat="45.39195660790618" lon="10.61208546355492"><ele>93.66666666666667</ele><time>2026-03-28T09:37:52Z</time></trkpt><trkpt lat="45.391802182681076" lon="10.612129486150973"><ele>94.33333333333334</ele><time>2026-03-28T09:37:53Z</time></trkpt><trkpt lat="45.391614795541514" lon="10.612156874789797"><ele>95.0</ele><time>2026-03-28T09:37:54Z</time></trkpt><trkpt lat="45.391453264400674" lon="10.612197880935694"><ele>95.66666666666667</ele><time>2026-03-28T09:37:55Z</time></trkpt><trkpt lat="45.39128606466584" lon="10.612232921860423"><ele>96.33333333333334</ele><time>2026-03-28T09:37:56Z</time></trkpt><trkpt lat="45.391117961805556" lon="10.612274395228708"><ele>97.0</ele><time>2026-03-28T09:37:57Z</time></trkpt><trkpt lat="45.39094815821808" lon="10.612237342348935"><ele>97.0</ele><time>2026-03-28T09:37:58Z</time></trkpt><trkpt lat="45.39078661432987" lon="10.612179813138496"><ele>97.0</ele><time>2026-03-28T09:37:59Z</time></trkpt><trkpt lat="45.3906137351368" lon="10.612081792750153"><ele>97.0</ele><time>2026-03-28T09:38:00Z</time></trkpt><trkpt lat="45.3904047978476" lon="10.61196915772893"><ele>97.5</ele><time>2026-03-28T09:38:01Z</time></trkpt><trkpt lat="45.39017645375727" lon="10.611841159963943"><ele>98.0</ele><time>2026-03-28T09:38:02Z</time></trkpt><trkpt lat="45.389952194287694" lon="10.611713426082346"><ele>98.0</ele><time>2026-03-28T09:38:03Z</time></trkpt><trkpt lat="45.389764154146455" lon="10.611607848555087"><ele>98.0</ele><time>2026-03-28T09:38:04Z</time></trkpt><trkpt lat="45.38959174395202" lon="10.611518030452938"><ele>98.0</ele><time>2026-03-28T09:38:05Z</time></trkpt><trkpt lat="45.38941106046711" lon="10.611430029360609"><ele>98.33333333333333</ele><time>2026-03-28T09:38:06Z</time></trkpt><trkpt lat="45.38922282809542" lon="10.611346400537919"><ele>98.66666666666666</ele><time>2026-03-28T09:38:07Z</time></trkpt><trkpt lat="45.38899966219703" lon="10.611312159460535"><ele>99.0</ele><time>2026-03-28T09:38:08Z</time></trkpt><trkpt lat="45.38873599897557" lon="10.611276239920226"><ele>99.0</ele><time>2026-03-28T09:38:09Z</time></trkpt><trkpt lat="45.3884532498929" lon="10.61121748550378"><ele>99.0</ele><time>2026-03-28T09:38:10Z</time></trkpt><trkpt lat="45.38820591280572" lon="10.611185493258107"><ele>99.0</ele><time>2026-03-28T09:38:11Z</time></trkpt><trkpt lat="45.387963849378366" lon="10.61115607934472"><ele>99.0</ele><time>2026-03-28T09:38:12Z</time></trkpt><trkpt lat="45.38772000381012" lon="10.611149934969633"><ele>99.0</ele><time>2026-03-28T09:38:13Z</time></trkpt><trkpt lat="45.38749240381268" lon="10.611095668252814"><ele>99.0</ele><time>2026-03-28T09:38:14Z</time></trkpt><trkpt lat="45.387288316880195" lon="10.611069057551633"><ele>99.0</ele><time>2026-03-28T09:38:15Z</time></trkpt><trkpt lat="45.387084837275324" lon="10.611042652938115"><ele>99.33333333333334</ele><time>2026-03-28T09:38:16Z</time></trkpt><trkpt lat="45.38688711181832" lon="10.611016995020309"><ele>99.66666666666667</ele><time>2026-03-28T09:38:17Z</time></trkpt><trkpt lat="45.38668679198331" lon="10.611013509942163"><ele>100.0</ele><time>2026-03-28T09:38:18Z</time></trkpt><trkpt lat="45.386484240297044" lon="10.61095959876509"><ele>100.33333333333334</ele><time>2026-03-28T09:38:19Z</time></trkpt><trkpt lat="45.38629328899786" lon="10.610935110126851"><ele>100.66666666666666</ele><time>2026-03-28T09:38:20Z</time></trkpt><trkpt lat="45.386135499605" lon="10.61091564628825"><ele>101.0</ele><time>2026-03-28T09:38:21Z</time></trkpt><trkpt lat="45.385985665420996" lon="10.610912252890207"><ele>101.0</ele><time>2026-03-28T09:38:22Z</time></trkpt><trkpt lat="45.38582991698034" lon="10.610968945187809"><ele>101.0</ele><time>2026-03-28T09:38:23Z</time></trkpt><trkpt lat="45.385655354130826" lon="10.611119506359614"><ele>101.0</ele><time>2026-03-28T09:38:24Z</time></trkpt><trkpt lat="45.38546583617937" lon="10.611290550936586"><ele>101.66666666666666</ele><time>2026-03-28T09:38:25Z</time></trkpt><trkpt lat="45.3852936128395" lon="10.611497608584486"><ele>102.33333333333334</ele><time>2026-03-28T09:38:26Z</time></trkpt><trkpt lat="45.38512759626752" lon="10.611670596127592"><ele>103.0</ele><time>2026-03-28T09:38:27Z</time></trkpt><trkpt lat="45.38492595970842" lon="10.611790969306801"><ele>103.0</ele><time>2026-03-28T09:38:28Z</time></trkpt><trkpt lat="45.38468507121906" lon="10.611919259351883"><ele>103.0</ele><time>2026-03-28T09:38:29Z</time></trkpt><trkpt lat="45.38441124069331" lon="10.612057094911142"><ele>104.0</ele><time>2026-03-28T09:38:30Z</time></trkpt><trkpt lat="45.38414503172761" lon="10.612194699794566"><ele>105.0</ele><time>2026-03-28T09:38:31Z</time></trkpt><trkpt lat="45.38392264208831" lon="10.61233455434425"><ele>104.33333333333334</ele><time>2026-03-28T09:38:32Z</time></trkpt><trkpt lat="45.383721175165824" lon="10.61241397172785"><ele>103.66666666666667</ele><time>2026-03-28T09:38:33Z</time></trkpt><trkpt lat="45.38354493012932" lon="10.61251577679095"><ele>103.0</ele><time>2026-03-28T09:38:34Z</time></trkpt><trkpt lat="45.38337494905358" lon="10.612638821729258"><ele>103.0</ele><time>2026-03-28T09:38:35Z</time></trkpt><trkpt lat="45.38319629739456" lon="10.61279987118118"><ele>103.0</ele><time>2026-03-28T09:38:36Z</time></trkpt><trkpt lat="45.38299874750782" lon="10.613003047731377"><ele>103.0</ele><time>2026-03-28T09:38:37Z</time></trkpt><trkpt lat="45.3828110458926" lon="10.61321800820036"><ele>103.0</ele><time>2026-03-28T09:38:38Z</time></trkpt><trkpt lat="45.38249423191942" lon="10.613662613738834"><ele>103.0</ele><time>2026-03-28T09:38:40Z</time></trkpt><trkpt lat="45.38233964562722" lon="10.613880019272647"><ele>103.0</ele><time>2026-03-28T09:38:41Z</time></trkpt><trkpt lat="45.38220106867199" lon="10.61406560524106"><ele>103.0</ele><time>2026-03-28T09:38:42Z</time></trkpt><trkpt lat="45.382083173099375" lon="10.614216759728459"><ele>103.0</ele><time>2026-03-28T09:38:43Z</time></trkpt><trkpt lat="45.382001655959925" lon="10.614326078383725"><ele>103.0</ele><time>2026-03-28T09:38:44Z</time></trkpt><trkpt lat="45.38193920325251" lon="10.614417429458907"><ele>103.0</ele><time>2026-03-28T09:38:45Z</time></trkpt><trkpt lat="45.38186469527424" lon="10.614493819285999"><ele>103.0</ele><time>2026-03-28T09:38:47Z</time></trkpt><trkpt lat="45.38177118580476" lon="10.614648506490907"><ele>103.0</ele><time>2026-03-28T09:38:49Z</time></trkpt><trkpt lat="45.38195748741589" lon="10.615112299652258"><ele>103.0</ele><time>2026-03-28T09:38:50Z</time></trkpt><trkpt lat="45.38195084778634" lon="10.615310473802177"><ele>103.0</ele><time>2026-03-28T09:38:51Z</time></trkpt><trkpt lat="45.3819454713883" lon="10.615520464093809"><ele>103.0</ele><time>2026-03-28T09:38:52Z</time></trkpt><trkpt lat="45.38194144047246" lon="10.615749007435227"><ele>103.0</ele><time>2026-03-28T09:38:53Z</time></trkpt><trkpt lat="45.381931977918704" lon="10.615987020077037"><ele>103.0</ele><time>2026-03-28T09:38:54Z</time></trkpt><trkpt lat="45.38192291505376" lon="10.616222743444958"><ele>103.0</ele><time>2026-03-28T09:38:55Z</time></trkpt><trkpt lat="45.381914465239305" lon="10.616463415606196"><ele>103.0</ele><time>2026-03-28T09:38:56Z</time></trkpt><trkpt lat="45.381912356365696" lon="10.616713002762953"><ele>103.0</ele><time>2026-03-28T09:38:57Z</time></trkpt><trkpt lat="45.38190675971188" lon="10.616952021994676"><ele>103.0</ele><time>2026-03-28T09:38:58Z</time></trkpt><trkpt lat="45.38190045031711" lon="10.617170722967812"><ele>103.0</ele><time>2026-03-28T09:38:59Z</time></trkpt><trkpt lat="45.38189806618447" lon="10.617381296476148"><ele>102.75</ele><time>2026-03-28T09:39:00Z</time></trkpt><trkpt lat="45.38189764365361" lon="10.617568445730965"><ele>102.5</ele><time>2026-03-28T09:39:01Z</time></trkpt><trkpt lat="45.3819059050372" lon="10.61773118682403"><ele>102.25</ele><time>2026-03-28T09:39:02Z</time></trkpt><trkpt lat="45.38192303446389" lon="10.617887387597209"><ele>102.0</ele><time>2026-03-28T09:39:03Z</time></trkpt><trkpt lat="45.38194772291778" lon="10.618044072407793"><ele>102.0</ele><time>2026-03-28T09:39:04Z</time></trkpt><trkpt lat="45.3819878629755" lon="10.618213632510095"><ele>102.0</ele><time>2026-03-28T09:39:05Z</time></trkpt><trkpt lat="45.38200743476815" lon="10.618383552716452"><ele>102.0</ele><time>2026-03-28T09:39:06Z</time></trkpt><trkpt lat="45.38201225368167" lon="10.618538339417881"><ele>102.0</ele><time>2026-03-28T09:39:07Z</time></trkpt><trkpt lat="45.382024268131026" lon="10.618688320573572"><ele>102.6</ele><time>2026-03-28T09:39:08Z</time></trkpt><trkpt lat="45.382050192767245" lon="10.618834943431432"><ele>103.19999999999999</ele><time>2026-03-28T09:39:09Z</time></trkpt><trkpt lat="45.38208133003231" lon="10.618979532613919"><ele>103.8</ele><time>2026-03-28T09:39:10Z</time></trkpt><trkpt lat="45.382110827894735" lon="10.619158077792642"><ele>104.4</ele><time>2026-03-28T09:39:11Z</time></trkpt><trkpt lat="45.38211751927349" lon="10.619292460081702"><ele>105.0</ele><time>2026-03-28T09:39:12Z</time></trkpt><trkpt lat="45.38210350139567" lon="10.61940463745309"><ele>104.75</ele><time>2026-03-28T09:39:13Z</time></trkpt><trkpt lat="45.38207732452258" lon="10.619551201757336"><ele>104.5</ele><time>2026-03-28T09:39:14Z</time></trkpt><trkpt lat="45.38203256740204" lon="10.619702875014353"><ele>104.25</ele><time>2026-03-28T09:39:15Z</time></trkpt><trkpt lat="45.381982675450494" lon="10.619877153869393"><ele>104.0</ele><time>2026-03-28T09:39:16Z</time></trkpt><trkpt lat="45.38192843689111" lon="10.620056675893194"><ele>104.0</ele><time>2026-03-28T09:39:17Z</time></trkpt><trkpt lat="45.381877376026196" lon="10.620223534443694"><ele>104.0</ele><time>2026-03-28T09:39:18Z</time></trkpt><trkpt lat="45.3818246383501" lon="10.620377721596231"><ele>104.0</ele><time>2026-03-28T09:39:19Z</time></trkpt><trkpt lat="45.38177978407891" lon="10.620506026335825"><ele>104.0</ele><time>2026-03-28T09:39:20Z</time></trkpt><trkpt lat="45.38174635860763" lon="10.620629754692528"><ele>104.0</ele><time>2026-03-28T09:39:21Z</time></trkpt><trkpt lat="45.38174080255753" lon="10.620730428284778"><ele>103.25</ele><time>2026-03-28T09:39:22Z</time></trkpt><trkpt lat="45.38173880353953" lon="10.62087859730479"><ele>102.5</ele><time>2026-03-28T09:39:23Z</time></trkpt><trkpt lat="45.381733270134625" lon="10.621064467385452"><ele>101.75</ele><time>2026-03-28T09:39:24Z</time></trkpt><trkpt lat="45.381730726875176" lon="10.621273344460949"><ele>101.0</ele><time>2026-03-28T09:39:25Z</time></trkpt><trkpt lat="45.38172985042955" lon="10.621457750172503"><ele>100.75</ele><time>2026-03-28T09:39:26Z</time></trkpt><trkpt lat="45.381736583600556" lon="10.621607690165504"><ele>100.5</ele><time>2026-03-28T09:39:27Z</time></trkpt><trkpt lat="45.38173689356387" lon="10.621791086633193"><ele>100.25</ele><time>2026-03-28T09:39:28Z</time></trkpt><trkpt lat="45.38172572962811" lon="10.621985019052989"><ele>100.0</ele><time>2026-03-28T09:39:29Z</time></trkpt><trkpt lat="45.38171527944211" lon="10.622168497396999"><ele>100.0</ele><time>2026-03-28T09:39:30Z</time></trkpt><trkpt lat="45.381699879048284" lon="10.622317035322672"><ele>100.0</ele><time>2026-03-28T09:39:31Z</time></trkpt><trkpt lat="45.38169138324407" lon="10.622436132485005"><ele>100.0</ele><time>2026-03-28T09:39:32Z</time></trkpt><trkpt lat="45.381683994298356" lon="10.62259145148839"><ele>100.0</ele><time>2026-03-28T09:39:33Z</time></trkpt><trkpt lat="45.381663306650964" lon="10.622784147911823"><ele>100.0</ele><time>2026-03-28T09:39:34Z</time></trkpt><trkpt lat="45.381642538414106" lon="10.622973520808387"><ele>100.0</ele><time>2026-03-28T09:39:35Z</time></trkpt><trkpt lat="45.381625277910864" lon="10.62312850701963"><ele>100.0</ele><time>2026-03-28T09:39:36Z</time></trkpt><trkpt lat="45.38162403220092" lon="10.623253046767335"><ele>100.0</ele><time>2026-03-28T09:39:37Z</time></trkpt><trkpt lat="45.3816505203728" lon="10.623386573443645"><ele>100.0</ele><time>2026-03-28T09:39:38Z</time></trkpt><trkpt lat="45.3816808859052" lon="10.623522983964882"><ele>100.0</ele><time>2026-03-28T09:39:39Z</time></trkpt><trkpt lat="45.38167505991972" lon="10.623663280356373"><ele>100.33333333333334</ele><time>2026-03-28T09:39:40Z</time></trkpt><trkpt lat="45.38166050366583" lon="10.623858440294962"><ele>100.66666666666666</ele><time>2026-03-28T09:39:41Z</time></trkpt><trkpt lat="45.38163678657499" lon="10.624083478915171"><ele>101.0</ele><time>2026-03-28T09:39:42Z</time></trkpt><trkpt lat="45.38161713472776" lon="10.62430406562271"><ele>100.5</ele><time>2026-03-28T09:39:43Z</time></trkpt><trkpt lat="45.381603708902446" lon="10.624500299858497"><ele>100.0</ele><time>2026-03-28T09:39:44Z</time></trkpt><trkpt lat="45.38159110254181" lon="10.624704468286913"><ele>99.5</ele><time>2026-03-28T09:39:45Z</time></trkpt><trkpt lat="45.381589549262394" lon="10.624906432386977"><ele>99.0</ele><time>2026-03-28T09:39:46Z</time></trkpt><trkpt lat="45.38158273098404" lon="10.625099855419734"><ele>99.0</ele><time>2026-03-28T09:39:47Z</time></trkpt><trkpt lat="45.381559248143" lon="10.625306985127091"><ele>99.0</ele><time>2026-03-28T09:39:48Z</time></trkpt><trkpt lat="45.3815287403623" lon="10.62551294698747"><ele>99.0</ele><time>2026-03-28T09:39:49Z</time></trkpt><trkpt lat="45.38150093871761" lon="10.625718703116325"><ele>99.0</ele><time>2026-03-28T09:39:50Z</time></trkpt><trkpt lat="45.38147552547413" lon="10.625931322102321"><ele>99.33333333333334</ele><time>2026-03-28T09:39:51Z</time></trkpt><trkpt lat="45.38145036150026" lon="10.626131838122266"><ele>99.66666666666667</ele><time>2026-03-28T09:39:52Z</time></trkpt><trkpt lat="45.38141752375399" lon="10.62634854079076"><ele>100.0</ele><time>2026-03-28T09:39:53Z</time></trkpt><trkpt lat="45.381386055249365" lon="10.6265666727803"><ele>100.25</ele><time>2026-03-28T09:39:54Z</time></trkpt><trkpt lat="45.38135331924139" lon="10.6267926261344"><ele>100.5</ele><time>2026-03-28T09:39:55Z</time></trkpt><trkpt lat="45.381320964892396" lon="10.627013990511898"><ele>100.75</ele><time>2026-03-28T09:39:56Z</time></trkpt><trkpt lat="45.381291394362506" lon="10.627190096310608"><ele>101.0</ele><time>2026-03-28T09:39:57Z</time></trkpt><trkpt lat="45.3812713609146" lon="10.62735294777517"><ele>100.8</ele><time>2026-03-28T09:39:58Z</time></trkpt><trkpt lat="45.381255911539995" lon="10.627501537620272"><ele>100.6</ele><time>2026-03-28T09:39:59Z</time></trkpt><trkpt lat="45.38123718426409" lon="10.627634822584351"><ele>100.4</ele><time>2026-03-28T09:40:00Z</time></trkpt><trkpt lat="45.381200103356775" lon="10.62772658956737"><ele>100.2</ele><time>2026-03-28T09:40:01Z</time></trkpt><trkpt lat="45.38115190155954" lon="10.627796067666521"><ele>100.0</ele><time>2026-03-28T09:40:03Z</time></trkpt><trkpt lat="45.38103373053639" lon="10.627882058253956"><ele>100.0</ele><time>2026-03-28T09:40:05Z</time></trkpt><trkpt lat="45.38091166481725" lon="10.627947934467898"><ele>100.0</ele><time>2026-03-28T09:40:06Z</time></trkpt><trkpt lat="45.38075790967323" lon="10.62797918783466"><ele>100.0</ele><time>2026-03-28T09:40:07Z</time></trkpt><trkpt lat="45.38063245649889" lon="10.62804422273794"><ele>100.0</ele><time>2026-03-28T09:40:08Z</time></trkpt><trkpt lat="45.38051283389341" lon="10.628097108382448"><ele>101.6</ele><time>2026-03-28T09:40:09Z</time></trkpt><trkpt lat="45.38042040801221" lon="10.628167977457602"><ele>103.2</ele><time>2026-03-28T09:40:10Z</time></trkpt><trkpt lat="45.380336241735115" lon="10.628232959451505"><ele>104.80000000000001</ele><time>2026-03-28T09:40:11Z</time></trkpt><trkpt lat="45.38022758797903" lon="10.628295447592475"><ele>106.4</ele><time>2026-03-28T09:40:12Z</time></trkpt><trkpt lat="45.38013676773679" lon="10.628370585711785"><ele>108.0</ele><time>2026-03-28T09:40:13Z</time></trkpt><trkpt lat="45.380052340357764" lon="10.628437979638708"><ele>108.0</ele><time>2026-03-28T09:40:14Z</time></trkpt><trkpt lat="45.37997588340445" lon="10.628489194012795"><ele>108.00000000000001</ele><time>2026-03-28T09:40:15Z</time></trkpt><trkpt lat="45.37988237171482" lon="10.62852497782325"><ele>108.00000000000001</ele><time>2026-03-28T09:40:16Z</time></trkpt><trkpt lat="45.37978432153853" lon="10.62852816968611"><ele>108.0</ele><time>2026-03-28T09:40:17Z</time></trkpt><trkpt lat="45.37967467197598" lon="10.628495230259785"><ele>108.0</ele><time>2026-03-28T09:40:18Z</time></trkpt><trkpt lat="45.379550950799356" lon="10.628450952939314"><ele>108.4</ele><time>2026-03-28T09:40:19Z</time></trkpt><trkpt lat="45.379446350937634" lon="10.628399373785827"><ele>108.80000000000001</ele><time>2026-03-28T09:40:20Z</time></trkpt><trkpt lat="45.379352002700934" lon="10.628351399828379"><ele>109.2</ele><time>2026-03-28T09:40:21Z</time></trkpt><trkpt lat="45.37926810570196" lon="10.628305579071496"><ele>109.6</ele><time>2026-03-28T09:40:22Z</time></trkpt><trkpt lat="45.379159743732274" lon="10.628343928902611"><ele>110.0</ele><time>2026-03-28T09:40:23Z</time></trkpt><trkpt lat="45.379052207196345" lon="10.628371071351642"><ele>110.0</ele><time>2026-03-28T09:40:24Z</time></trkpt><trkpt lat="45.378913875930714" lon="10.628420046629167"><ele>110.0</ele><time>2026-03-28T09:40:25Z</time></trkpt><trkpt lat="45.37878467541317" lon="10.628469767116913"><ele>110.0</ele><time>2026-03-28T09:40:26Z</time></trkpt><trkpt lat="45.378673148018734" lon="10.628551409998288"><ele>110.0</ele><time>2026-03-28T09:40:27Z</time></trkpt><trkpt lat="45.37854839468202" lon="10.628605992860425"><ele>108.33333333333333</ele><time>2026-03-28T09:40:28Z</time></trkpt><trkpt lat="45.37841817600761" lon="10.62869943667467"><ele>106.66666666666666</ele><time>2026-03-28T09:40:29Z</time></trkpt><trkpt lat="45.378285608869604" lon="10.628838075943882"><ele>105.0</ele><time>2026-03-28T09:40:30Z</time></trkpt><trkpt lat="45.37815889702895" lon="10.628964087398677"><ele>109.0</ele><time>2026-03-28T09:40:31Z</time></trkpt><trkpt lat="45.378016343164234" lon="10.629102761376894"><ele>113.0</ele><time>2026-03-28T09:40:32Z</time></trkpt><trkpt lat="45.37788773976365" lon="10.629230404755923"><ele>117.0</ele><time>2026-03-28T09:40:33Z</time></trkpt><trkpt lat="45.37777488124676" lon="10.629345450644685"><ele>117.0</ele><time>2026-03-28T09:40:34Z</time></trkpt><trkpt lat="45.37769240207063" lon="10.629472985719094"><ele>117.0</ele><time>2026-03-28T09:40:35Z</time></trkpt><trkpt lat="45.377612607544684" lon="10.629602394911128"><ele>117.0</ele><time>2026-03-28T09:40:36Z</time></trkpt><trkpt lat="45.377531050606414" lon="10.629737440577937"><ele>117.0</ele><time>2026-03-28T09:40:37Z</time></trkpt><trkpt lat="45.37747373513868" lon="10.629836916392351"><ele>117.8</ele><time>2026-03-28T09:40:38Z</time></trkpt><trkpt lat="45.37741450756543" lon="10.62995776622157"><ele>118.6</ele><time>2026-03-28T09:40:39Z</time></trkpt><trkpt lat="45.37734473718269" lon="10.630050021463205"><ele>119.39999999999999</ele><time>2026-03-28T09:40:40Z</time></trkpt><trkpt lat="45.377269322486086" lon="10.630136831580447"><ele>120.19999999999999</ele><time>2026-03-28T09:40:41Z</time></trkpt><trkpt lat="45.37719149849101" lon="10.630217823149692"><ele>121.0</ele><time>2026-03-28T09:40:42Z</time></trkpt><trkpt lat="45.37709930031441" lon="10.630237411317703"><ele>121.0</ele><time>2026-03-28T09:40:43Z</time></trkpt><trkpt lat="45.377000284072544" lon="10.630257326328364"><ele>121.0</ele><time>2026-03-28T09:40:44Z</time></trkpt><trkpt lat="45.376868503812595" lon="10.63029006451516"><ele>121.0</ele><time>2026-03-28T09:40:45Z</time></trkpt><trkpt lat="45.376769003522355" lon="10.6303228241941"><ele>121.0</ele><time>2026-03-28T09:40:46Z</time></trkpt><trkpt lat="45.376699889718765" lon="10.630350435628028"><ele>121.0</ele><time>2026-03-28T09:40:47Z</time></trkpt><trkpt lat="45.37661617109563" lon="10.630421141651404"><ele>119.19999999999999</ele><time>2026-03-28T09:40:49Z</time></trkpt><trkpt lat="45.37656745855574" lon="10.630515589165833"><ele>117.39999999999999</ele><time>2026-03-28T09:41:32Z</time></trkpt><trkpt lat="45.37651382665148" lon="10.630613641412785"><ele>115.6</ele><time>2026-03-28T09:41:33Z</time></trkpt><trkpt lat="45.37645857296169" lon="10.630731965706788"><ele>113.8</ele><time>2026-03-28T09:41:34Z</time></trkpt><trkpt lat="45.376398786753334" lon="10.630881698845632"><ele>112.0</ele><time>2026-03-28T09:41:35Z</time></trkpt><trkpt lat="45.37631452490612" lon="10.631072455898943"><ele>117.33333333333334</ele><time>2026-03-28T09:41:36Z</time></trkpt><trkpt lat="45.3762486523141" lon="10.631283079622882"><ele>122.66666666666666</ele><time>2026-03-28T09:41:37Z</time></trkpt><trkpt lat="45.3762034620329" lon="10.631521341987805"><ele>128.0</ele><time>2026-03-28T09:41:38Z</time></trkpt><trkpt lat="45.3761450761469" lon="10.631770066908317"><ele>125.33333333333333</ele><time>2026-03-28T09:41:39Z</time></trkpt><trkpt lat="45.376089389640846" lon="10.63199842688761"><ele>122.66666666666666</ele><time>2026-03-28T09:41:40Z</time></trkpt><trkpt lat="45.37603069808081" lon="10.632235680587751"><ele>120.0</ele><time>2026-03-28T09:41:41Z</time></trkpt><trkpt lat="45.37598269020281" lon="10.632469224434292"><ele>120.0</ele><time>2026-03-28T09:41:42Z</time></trkpt><trkpt lat="45.37595102727441" lon="10.632682882511366"><ele>120.0</ele><time>2026-03-28T09:41:43Z</time></trkpt><trkpt lat="45.37593263079761" lon="10.632904230447915"><ele>120.0</ele><time>2026-03-28T09:41:44Z</time></trkpt><trkpt lat="45.37591879308169" lon="10.633101475098638"><ele>120.0</ele><time>2026-03-28T09:41:45Z</time></trkpt><trkpt lat="45.37590037941893" lon="10.633234154920983"><ele>118.2</ele><time>2026-03-28T09:41:46Z</time></trkpt><trkpt lat="45.37589252104221" lon="10.633381505020528"><ele>116.4</ele><time>2026-03-28T09:41:47Z</time></trkpt><trkpt lat="45.37586272112204" lon="10.63353627573749"><ele>114.6</ele><time>2026-03-28T09:41:48Z</time></trkpt><trkpt lat="45.375837363244884" lon="10.633676427320898"><ele>112.8</ele><time>2026-03-28T09:41:49Z</time></trkpt><trkpt lat="45.37582699659093" lon="10.633770851025488"><ele>111.0</ele><time>2026-03-28T09:41:50Z</time></trkpt><trkpt lat="45.375884449124655" lon="10.633876665055976"><ele>110.4</ele><time>2026-03-28T09:41:52Z</time></trkpt><trkpt lat="45.375918769977616" lon="10.633968291566536"><ele>109.8</ele><time>2026-03-28T09:41:53Z</time></trkpt><trkpt lat="45.37600380181737" lon="10.634084473074996"><ele>109.20000000000002</ele><time>2026-03-28T09:41:54Z</time></trkpt><trkpt lat="45.3760848118038" lon="10.634205440846893"><ele>108.60000000000001</ele><time>2026-03-28T09:41:55Z</time></trkpt><trkpt lat="45.37620241099277" lon="10.634299699165963"><ele>108.0</ele><time>2026-03-28T09:41:56Z</time></trkpt><trkpt lat="45.376283880352474" lon="10.634404896382636"><ele>107.60000000000001</ele><time>2026-03-28T09:41:57Z</time></trkpt><trkpt lat="45.37635412189516" lon="10.634492191482135"><ele>107.20000000000002</ele><time>2026-03-28T09:41:58Z</time></trkpt><trkpt lat="45.376395116433045" lon="10.634588497781268"><ele>106.8</ele><time>2026-03-28T09:41:59Z</time></trkpt><trkpt lat="45.37643733231267" lon="10.634728102089452"><ele>106.4</ele><time>2026-03-28T09:42:00Z</time></trkpt><trkpt lat="45.376465356084616" lon="10.634879099313421"><ele>106.0</ele><time>2026-03-28T09:42:01Z</time></trkpt><trkpt lat="45.376526463712516" lon="10.6350422110878"><ele>106.0</ele><time>2026-03-28T09:42:02Z</time></trkpt><trkpt lat="45.37656578731283" lon="10.635175359096731"><ele>106.0</ele><time>2026-03-28T09:42:03Z</time></trkpt><trkpt lat="45.37657590431451" lon="10.63528220215654"><ele>106.0</ele><time>2026-03-28T09:42:04Z</time></trkpt><trkpt lat="45.37656457100663" lon="10.635373472867682"><ele>106.0</ele><time>2026-03-28T09:42:05Z</time></trkpt><trkpt lat="45.37651376601429" lon="10.635499846922327"><ele>106.0</ele><time>2026-03-28T09:42:07Z</time></trkpt><trkpt lat="45.37647086143364" lon="10.635636490169324"><ele>107.6</ele><time>2026-03-28T09:42:08Z</time></trkpt><trkpt lat="45.376429041099726" lon="10.635766545902872"><ele>109.19999999999999</ele><time>2026-03-28T09:42:09Z</time></trkpt><trkpt lat="45.37638969092832" lon="10.635888920263033"><ele>110.80000000000001</ele><time>2026-03-28T09:42:12Z</time></trkpt><trkpt lat="45.37647828000626" lon="10.635959453691624"><ele>112.4</ele><time>2026-03-28T09:42:13Z</time></trkpt><trkpt lat="45.37655224841328" lon="10.636012388735633"><ele>114.0</ele><time>2026-03-28T09:42:14Z</time></trkpt><trkpt lat="45.37666563808067" lon="10.63607916587002"><ele>114.0</ele><time>2026-03-28T09:42:15Z</time></trkpt><trkpt lat="45.37674566710051" lon="10.636137336773631"><ele>114.0</ele><time>2026-03-28T09:42:16Z</time></trkpt><trkpt lat="45.376628885448895" lon="10.636041186452122"><ele>114.0</ele><time>2026-03-28T09:42:27Z</time></trkpt><trkpt lat="45.376500832584824" lon="10.63595202389567"><ele>114.0</ele><time>2026-03-28T09:42:28Z</time></trkpt><trkpt lat="45.376377710516756" lon="10.635865371557705"><ele>114.66666666666666</ele><time>2026-03-28T09:42:29Z</time></trkpt><trkpt lat="45.3762377828625" lon="10.6357579143551"><ele>115.33333333333333</ele><time>2026-03-28T09:42:30Z</time></trkpt><trkpt lat="45.37609536358925" lon="10.635636306776727"><ele>116.0</ele><time>2026-03-28T09:42:31Z</time></trkpt><trkpt lat="45.37597329856712" lon="10.635528315953103"><ele>116.0</ele><time>2026-03-28T09:42:32Z</time></trkpt><trkpt lat="45.375858932983334" lon="10.635444574972524"><ele>116.0</ele><time>2026-03-28T09:42:33Z</time></trkpt><trkpt lat="45.37575304881079" lon="10.635383130188462"><ele>116.0</ele><time>2026-03-28T09:42:34Z</time></trkpt><trkpt lat="45.37563555990281" lon="10.635348284867675"><ele>116.0</ele><time>2026-03-28T09:42:35Z</time></trkpt><trkpt lat="45.37552748745385" lon="10.635332474313728"><ele>115.19999999999999</ele><time>2026-03-28T09:42:36Z</time></trkpt><trkpt lat="45.37543284277246" lon="10.635350170550764"><ele>114.39999999999999</ele><time>2026-03-28T09:42:37Z</time></trkpt><trkpt lat="45.375344506842566" lon="10.635410398733297"><ele>113.6</ele><time>2026-03-28T09:42:38Z</time></trkpt><trkpt lat="45.375254859525434" lon="10.635506262515785"><ele>112.8</ele><time>2026-03-28T09:42:39Z</time></trkpt><trkpt lat="45.37516806804163" lon="10.635611304940673"><ele>112.0</ele><time>2026-03-28T09:42:40Z</time></trkpt><trkpt lat="45.375100886738714" lon="10.635707823830721"><ele>112.0</ele><time>2026-03-28T09:42:41Z</time></trkpt><trkpt lat="45.37504585218415" lon="10.635795812703217"><ele>111.99999999999999</ele><time>2026-03-28T09:42:42Z</time></trkpt><trkpt lat="45.37498055180143" lon="10.635891589829582"><ele>111.99999999999999</ele><time>2026-03-28T09:42:43Z</time></trkpt><trkpt lat="45.37489294068843" lon="10.636018926225347"><ele>112.0</ele><time>2026-03-28T09:42:44Z</time></trkpt><trkpt lat="45.3748009260236" lon="10.636137985949722"><ele>112.0</ele><time>2026-03-28T09:42:45Z</time></trkpt><trkpt lat="45.37461672147266" lon="10.636256457737806"><ele>111.19999999999999</ele><time>2026-03-28T09:42:47Z</time></trkpt><trkpt lat="45.37454298517984" lon="10.636327809457535"><ele>110.39999999999999</ele><time>2026-03-28T09:42:48Z</time></trkpt><trkpt lat="45.37448341547395" lon="10.636404253320906"><ele>109.60000000000001</ele><time>2026-03-28T09:42:49Z</time></trkpt><trkpt lat="45.37443037058008" lon="10.636467699683365"><ele>108.80000000000001</ele><time>2026-03-28T09:42:50Z</time></trkpt><trkpt lat="45.374351450002706" lon="10.636533778166095"><ele>108.0</ele><time>2026-03-28T09:42:52Z</time></trkpt><trkpt lat="45.37442889906604" lon="10.636688857106416"><ele>108.0</ele><time>2026-03-28T09:42:53Z</time></trkpt><trkpt lat="45.3744755403409" lon="10.636794584255503"><ele>108.0</ele><time>2026-03-28T09:42:54Z</time></trkpt><trkpt lat="45.37454076868354" lon="10.63694454183025"><ele>108.0</ele><time>2026-03-28T09:42:55Z</time></trkpt><trkpt lat="45.37458676183472" lon="10.637129791104963"><ele>108.0</ele><time>2026-03-28T09:42:56Z</time></trkpt><trkpt lat="45.37460446011582" lon="10.63731925170244"><ele>108.5</ele><time>2026-03-28T09:42:57Z</time></trkpt><trkpt lat="45.374599973464164" lon="10.637519485109781"><ele>109.0</ele><time>2026-03-28T09:42:58Z</time></trkpt><trkpt lat="45.37459271187193" lon="10.637722604716394"><ele>109.5</ele><time>2026-03-28T09:42:59Z</time></trkpt><trkpt lat="45.37460373715487" lon="10.637922150526952"><ele>110.0</ele><time>2026-03-28T09:43:00Z</time></trkpt><trkpt lat="45.37464772311961" lon="10.638128591537514"><ele>111.75</ele><time>2026-03-28T09:43:01Z</time></trkpt><trkpt lat="45.374696591831785" lon="10.638333608869074"><ele>113.5</ele><time>2026-03-28T09:43:02Z</time></trkpt><trkpt lat="45.37473851658805" lon="10.638524312201648"><ele>115.25</ele><time>2026-03-28T09:43:03Z</time></trkpt><trkpt lat="45.37477399368064" lon="10.638698805377933"><ele>117.0</ele><time>2026-03-28T09:43:04Z</time></trkpt><trkpt lat="45.37477936083149" lon="10.638888162056947"><ele>117.25</ele><time>2026-03-28T09:43:05Z</time></trkpt><trkpt lat="45.37481109783966" lon="10.639084107016098"><ele>117.5</ele><time>2026-03-28T09:43:06Z</time></trkpt><trkpt lat="45.374798227269835" lon="10.63928764434028"><ele>117.75</ele><time>2026-03-28T09:43:07Z</time></trkpt><trkpt lat="45.374818384527934" lon="10.639469519854721"><ele>118.0</ele><time>2026-03-28T09:43:08Z</time></trkpt><trkpt lat="45.37484082028561" lon="10.639643438326052"><ele>118.0</ele><time>2026-03-28T09:43:09Z</time></trkpt><trkpt lat="45.374882414196016" lon="10.639811156949367"><ele>118.0</ele><time>2026-03-28T09:43:10Z</time></trkpt><trkpt lat="45.374933313862684" lon="10.639949501858277"><ele>118.0</ele><time>2026-03-28T09:43:11Z</time></trkpt><trkpt lat="45.37500104509116" lon="10.640093223732785"><ele>118.0</ele><time>2026-03-28T09:43:12Z</time></trkpt><trkpt lat="45.37508351697543" lon="10.640239505302914"><ele>116.75</ele><time>2026-03-28T09:43:13Z</time></trkpt><trkpt lat="45.37516264217515" lon="10.640382419389029"><ele>115.5</ele><time>2026-03-28T09:43:14Z</time></trkpt><trkpt lat="45.375226241331625" lon="10.64050779862823"><ele>114.25</ele><time>2026-03-28T09:43:15Z</time></trkpt><trkpt lat="45.375302726957315" lon="10.64076414997908"><ele>113.0</ele><time>2026-03-28T09:43:17Z</time></trkpt><trkpt lat="45.375379374905734" lon="10.640847792653917"><ele>113.0</ele><time>2026-03-28T09:43:18Z</time></trkpt><trkpt lat="45.37541007368435" lon="10.640944498637943"><ele>113.0</ele><time>2026-03-28T09:43:19Z</time></trkpt><trkpt lat="45.3751968574301" lon="10.641074182476938"><ele>113.0</ele><time>2026-03-28T09:43:20Z</time></trkpt><trkpt lat="45.375143864980465" lon="10.641126752922116"><ele>113.0</ele><time>2026-03-28T09:43:21Z</time></trkpt><trkpt lat="45.37502213138847" lon="10.641139528076318"><ele>112.0</ele><time>2026-03-28T09:43:22Z</time></trkpt><trkpt lat="45.3748500475033" lon="10.64119950673102"><ele>111.0</ele><time>2026-03-28T09:43:23Z</time></trkpt><trkpt lat="45.37463281187248" lon="10.641207697223072"><ele>110.0</ele><time>2026-03-28T09:43:24Z</time></trkpt><trkpt lat="45.3743976515484" lon="10.64120075503374"><ele>109.66666666666666</ele><time>2026-03-28T09:43:25Z</time></trkpt><trkpt lat="45.37419071733374" lon="10.641192820319045"><ele>109.33333333333334</ele><time>2026-03-28T09:43:26Z</time></trkpt><trkpt lat="45.374014090715086" lon="10.641197829049558"><ele>109.0</ele><time>2026-03-28T09:43:27Z</time></trkpt><trkpt lat="45.37385395544553" lon="10.641223387714408"><ele>108.0</ele><time>2026-03-28T09:43:28Z</time></trkpt><trkpt lat="45.3737046621463" lon="10.64129577419709"><ele>107.0</ele><time>2026-03-28T09:43:29Z</time></trkpt><trkpt lat="45.37354489466278" lon="10.641417669509162"><ele>106.0</ele><time>2026-03-28T09:43:30Z</time></trkpt><trkpt lat="45.37340898414453" lon="10.641563836124508"><ele>106.0</ele><time>2026-03-28T09:43:31Z</time></trkpt><trkpt lat="45.37330948420258" lon="10.641672395846676"><ele>106.0</ele><time>2026-03-28T09:43:32Z</time></trkpt><trkpt lat="45.37322512148482" lon="10.641751253292794"><ele>106.0</ele><time>2026-03-28T09:43:33Z</time></trkpt><trkpt lat="45.373165067008365" lon="10.641793447325297"><ele>106.0</ele><time>2026-03-28T09:43:34Z</time></trkpt><trkpt lat="45.37311383994426" lon="10.641846041912252"><ele>106.0</ele><time>2026-03-28T09:43:49Z</time></trkpt><trkpt lat="45.37322722023575" lon="10.641741610745976"><ele>106.0</ele><time>2026-03-28T09:43:51Z</time></trkpt><trkpt lat="45.373323079499734" lon="10.641706815666602"><ele>106.0</ele><time>2026-03-28T09:43:52Z</time></trkpt><trkpt lat="45.373415742842504" lon="10.641613340393718"><ele>106.0</ele><time>2026-03-28T09:43:53Z</time></trkpt><trkpt lat="45.37354201624202" lon="10.64150006999795"><ele>106.0</ele><time>2026-03-28T09:43:54Z</time></trkpt><trkpt lat="45.373703036831905" lon="10.641360727038885"><ele>106.0</ele><time>2026-03-28T09:43:55Z</time></trkpt><trkpt lat="45.3738485313208" lon="10.641266406987322"><ele>106.0</ele><time>2026-03-28T09:43:56Z</time></trkpt><trkpt lat="45.37400414390365" lon="10.641219723592915"><ele>106.0</ele><time>2026-03-28T09:43:57Z</time></trkpt><trkpt lat="45.3741735044353" lon="10.641217308530042"><ele>107.0</ele><time>2026-03-28T09:43:58Z</time></trkpt><trkpt lat="45.37434217890183" lon="10.641232574787816"><ele>108.0</ele><time>2026-03-28T09:43:59Z</time></trkpt><trkpt lat="45.3745347151148" lon="10.641238502478421"><ele>109.0</ele><time>2026-03-28T09:44:00Z</time></trkpt><trkpt lat="45.37473257130534" lon="10.641236431510782"><ele>109.25</ele><time>2026-03-28T09:44:01Z</time></trkpt><trkpt lat="45.37489662427831" lon="10.641221979289881"><ele>109.5</ele><time>2026-03-28T09:44:02Z</time></trkpt><trkpt lat="45.37503927025296" lon="10.64120191279468"><ele>109.75</ele><time>2026-03-28T09:44:03Z</time></trkpt><trkpt lat="45.37514789674435" lon="10.641172299643012"><ele>110.0</ele><time>2026-03-28T09:44:04Z</time></trkpt><trkpt lat="45.375219861141616" lon="10.641133177493224"><ele>110.75</ele><time>2026-03-28T09:44:05Z</time></trkpt><trkpt lat="45.37528475611342" lon="10.641120966243559"><ele>111.5</ele><time>2026-03-28T09:44:07Z</time></trkpt><trkpt lat="45.37532683099486" lon="10.64078957760802"><ele>112.25</ele><time>2026-03-28T09:44:09Z</time></trkpt><trkpt lat="45.375279428055734" lon="10.640607971368954"><ele>113.0</ele><time>2026-03-28T09:44:12Z</time></trkpt><trkpt lat="45.37523835288703" lon="10.640466964576765"><ele>113.0</ele><time>2026-03-28T09:44:13Z</time></trkpt><trkpt lat="45.375165531842484" lon="10.640315349935296"><ele>113.0</ele><time>2026-03-28T09:44:14Z</time></trkpt><trkpt lat="45.37508009329463" lon="10.640154359513152"><ele>113.0</ele><time>2026-03-28T09:44:15Z</time></trkpt><trkpt lat="45.375002564113124" lon="10.64000320114096"><ele>113.0</ele><time>2026-03-28T09:44:16Z</time></trkpt><trkpt lat="45.37494608252104" lon="10.639876032351664"><ele>114.0</ele><time>2026-03-28T09:44:17Z</time></trkpt><trkpt lat="45.37490384171534" lon="10.639746666690597"><ele>115.00000000000001</ele><time>2026-03-28T09:44:18Z</time></trkpt><trkpt lat="45.374868286095776" lon="10.639604320582466"><ele>116.00000000000001</ele><time>2026-03-28T09:44:19Z</time></trkpt><trkpt lat="45.3748379068896" lon="10.639452531089104"><ele>117.0</ele><time>2026-03-28T09:44:20Z</time></trkpt><trkpt lat="45.374832505856595" lon="10.639299771642658"><ele>118.0</ele><time>2026-03-28T09:44:21Z</time></trkpt><trkpt lat="45.37482420449238" lon="10.639136389707692"><ele>118.25</ele><time>2026-03-28T09:44:22Z</time></trkpt><trkpt lat="45.374819318850825" lon="10.638957193254317"><ele>118.5</ele><time>2026-03-28T09:44:23Z</time></trkpt><trkpt lat="45.37478653106676" lon="10.638773941072685"><ele>118.75</ele><time>2026-03-28T09:44:24Z</time></trkpt><trkpt lat="45.374772474728545" lon="10.638573348425954"><ele>119.0</ele><time>2026-03-28T09:44:25Z</time></trkpt><trkpt lat="45.37473263006795" lon="10.638385647094957"><ele>118.5</ele><time>2026-03-28T09:44:26Z</time></trkpt><trkpt lat="45.3746932943725" lon="10.638207667923337"><ele>118.0</ele><time>2026-03-28T09:44:27Z</time></trkpt><trkpt lat="45.37466109171301" lon="10.63805714854517"><ele>117.5</ele><time>2026-03-28T09:44:28Z</time></trkpt><trkpt lat="45.37461618215644" lon="10.637883740845517"><ele>117.0</ele><time>2026-03-28T09:44:29Z</time></trkpt><trkpt lat="45.374614549834334" lon="10.637685171563717"><ele>115.25</ele><time>2026-03-28T09:44:30Z</time></trkpt><trkpt lat="45.37462372289603" lon="10.637475643357076"><ele>113.5</ele><time>2026-03-28T09:44:31Z</time></trkpt><trkpt lat="45.374627677888085" lon="10.637286225445418"><ele>111.75</ele><time>2026-03-28T09:44:32Z</time></trkpt><trkpt lat="45.374596118715964" lon="10.637120639672201"><ele>110.0</ele><time>2026-03-28T09:44:33Z</time></trkpt><trkpt lat="45.37456565133017" lon="10.636958255660351"><ele>109.6</ele><time>2026-03-28T09:44:34Z</time></trkpt><trkpt lat="45.374517214865705" lon="10.63681939452254"><ele>109.2</ele><time>2026-03-28T09:44:35Z</time></trkpt><trkpt lat="45.374471036715526" lon="10.636693705386152"><ele>108.80000000000001</ele><time>2026-03-28T09:44:36Z</time></trkpt><trkpt lat="45.37443939774385" lon="10.636598964747641"><ele>108.4</ele><time>2026-03-28T09:44:37Z</time></trkpt><trkpt lat="45.37443428488966" lon="10.636488496106947"><ele>108.0</ele><time>2026-03-28T09:44:39Z</time></trkpt><trkpt lat="45.37452673452988" lon="10.636397307046012"><ele>108.0</ele><time>2026-03-28T09:44:41Z</time></trkpt><trkpt lat="45.37459676361627" lon="10.636319378033878"><ele>108.0</ele><time>2026-03-28T09:44:42Z</time></trkpt><trkpt lat="45.37466662724049" lon="10.636255984289365"><ele>108.0</ele><time>2026-03-28T09:44:43Z</time></trkpt><trkpt lat="45.37471988242448" lon="10.6362027648324"><ele>108.0</ele><time>2026-03-28T09:44:44Z</time></trkpt><trkpt lat="45.37476941703506" lon="10.636142231763724"><ele>108.0</ele><time>2026-03-28T09:44:45Z</time></trkpt><trkpt lat="45.37483572588562" lon="10.63609783034619"><ele>108.0</ele><time>2026-03-28T09:44:46Z</time></trkpt><trkpt lat="45.374890668429295" lon="10.635995947500856"><ele>108.80000000000001</ele><time>2026-03-28T09:44:47Z</time></trkpt><trkpt lat="45.374965944562554" lon="10.63591477380059"><ele>109.60000000000001</ele><time>2026-03-28T09:44:48Z</time></trkpt><trkpt lat="45.37504384885493" lon="10.635820206244261"><ele>110.39999999999999</ele><time>2026-03-28T09:44:49Z</time></trkpt><trkpt lat="45.375129129538216" lon="10.635727130520072"><ele>111.19999999999999</ele><time>2026-03-28T09:44:50Z</time></trkpt><trkpt lat="45.375209297336916" lon="10.635626867972425"><ele>112.0</ele><time>2026-03-28T09:44:51Z</time></trkpt><trkpt lat="45.375285759928055" lon="10.635531239287763"><ele>112.0</ele><time>2026-03-28T09:44:52Z</time></trkpt><trkpt lat="45.375359549781955" lon="10.635433067244213"><ele>111.99999999999999</ele><time>2026-03-28T09:44:53Z</time></trkpt><trkpt lat="45.37544723425189" lon="10.635380944785696"><ele>111.99999999999999</ele><time>2026-03-28T09:44:54Z</time></trkpt><trkpt lat="45.37553950391756" lon="10.635356506951432"><ele>112.0</ele><time>2026-03-28T09:44:55Z</time></trkpt><trkpt lat="45.37564532868517" lon="10.635351879178074"><ele>112.0</ele><time>2026-03-28T09:44:56Z</time></trkpt><trkpt lat="45.37574221794412" lon="10.635390385312911"><ele>112.8</ele><time>2026-03-28T09:44:57Z</time></trkpt><trkpt lat="45.37584857056937" lon="10.63544216241859"><ele>113.6</ele><time>2026-03-28T09:44:58Z</time></trkpt><trkpt lat="45.37594373060162" lon="10.63550492425937"><ele>114.39999999999999</ele><time>2026-03-28T09:44:59Z</time></trkpt><trkpt lat="45.376017410090235" lon="10.63556751114128"><ele>115.19999999999999</ele><time>2026-03-28T09:45:00Z</time></trkpt><trkpt lat="45.376089138980156" lon="10.635643431096067"><ele>116.0</ele><time>2026-03-28T09:45:01Z</time></trkpt><trkpt lat="45.3761683861233" lon="10.635717913865435"><ele>115.99999999999999</ele><time>2026-03-28T09:45:02Z</time></trkpt><trkpt lat="45.37624541749711" lon="10.63577968201551"><ele>116.0</ele><time>2026-03-28T09:45:03Z</time></trkpt><trkpt lat="45.37630804499652" lon="10.63582922161972"><ele>116.0</ele><time>2026-03-28T09:45:04Z</time></trkpt><trkpt lat="45.3763866251573" lon="10.635874097625273"><ele>116.0</ele><time>2026-03-28T09:45:06Z</time></trkpt><trkpt lat="45.376470361580964" lon="10.6357518419984"><ele>115.99999999999999</ele><time>2026-03-28T09:45:09Z</time></trkpt><trkpt lat="45.37649656582026" lon="10.635670350192235"><ele>116.0</ele><time>2026-03-28T09:45:10Z</time></trkpt><trkpt lat="45.376543193847475" lon="10.635522723758402"><ele>115.5</ele><time>2026-03-28T09:45:12Z</time></trkpt><trkpt lat="45.37657918576091" lon="10.635384100083625"><ele>115.0</ele><time>2026-03-28T09:45:14Z</time></trkpt><trkpt lat="45.376608977911445" lon="10.635265181413338"><ele>114.5</ele><time>2026-03-28T09:45:16Z</time></trkpt><trkpt lat="45.37654438714288" lon="10.635017540140884"><ele>114.0</ele><time>2026-03-28T09:45:18Z</time></trkpt><trkpt lat="45.376502613623266" lon="10.634884468053269"><ele>113.0</ele><time>2026-03-28T09:45:19Z</time></trkpt><trkpt lat="45.37646851350479" lon="10.63476137057977"><ele>112.0</ele><time>2026-03-28T09:45:20Z</time></trkpt><trkpt lat="45.37643579333566" lon="10.634649607145965"><ele>111.0</ele><time>2026-03-28T09:45:21Z</time></trkpt><trkpt lat="45.3764038153121" lon="10.634554374878586"><ele>110.0</ele><time>2026-03-28T09:45:22Z</time></trkpt><trkpt lat="45.37633866657751" lon="10.634412375526992"><ele>109.0</ele><time>2026-03-28T09:45:24Z</time></trkpt><trkpt lat="45.37628561933701" lon="10.634342746498183"><ele>108.0</ele><time>2026-03-28T09:45:25Z</time></trkpt><trkpt lat="45.37621307456585" lon="10.634267856536185"><ele>108.0</ele><time>2026-03-28T09:45:26Z</time></trkpt><trkpt lat="45.37613510977907" lon="10.634178722155582"><ele>108.0</ele><time>2026-03-28T09:45:27Z</time></trkpt><trkpt lat="45.37606632018959" lon="10.634082664879887"><ele>108.0</ele><time>2026-03-28T09:45:28Z</time></trkpt><trkpt lat="45.37600485375881" lon="10.63399454303142"><ele>108.0</ele><time>2026-03-28T09:45:29Z</time></trkpt><trkpt lat="45.375952069320476" lon="10.633916426593196"><ele>108.0</ele><time>2026-03-28T09:45:30Z</time></trkpt><trkpt lat="45.37591220214261" lon="10.633846508733882"><ele>108.0</ele><time>2026-03-28T09:45:31Z</time></trkpt><trkpt lat="45.37586806700878" lon="10.6337130492285"><ele>108.75</ele><time>2026-03-28T09:45:33Z</time></trkpt><trkpt lat="45.37588171275574" lon="10.633556580773254"><ele>109.5</ele><time>2026-03-28T09:45:35Z</time></trkpt><trkpt lat="45.375909754796346" lon="10.633401164279801"><ele>110.25</ele><time>2026-03-28T09:45:36Z</time></trkpt><trkpt lat="45.375921921033736" lon="10.633219675150858"><ele>111.0</ele><time>2026-03-28T09:45:37Z</time></trkpt><trkpt lat="45.375947435667555" lon="10.633041054809953"><ele>111.0</ele><time>2026-03-28T09:45:38Z</time></trkpt><trkpt lat="45.3759672969425" lon="10.632885766400644"><ele>111.0</ele><time>2026-03-28T09:45:39Z</time></trkpt><trkpt lat="45.375990148688416" lon="10.632713864168434"><ele>111.0</ele><time>2026-03-28T09:45:40Z</time></trkpt><trkpt lat="45.37601949673575" lon="10.63251525940807"><ele>111.0</ele><time>2026-03-28T09:45:41Z</time></trkpt><trkpt lat="45.37605325210413" lon="10.632320026316293"><ele>113.25</ele><time>2026-03-28T09:45:42Z</time></trkpt><trkpt lat="45.37608960784913" lon="10.632131495060207"><ele>115.5</ele><time>2026-03-28T09:45:43Z</time></trkpt><trkpt lat="45.37613103275741" lon="10.631937414133128"><ele>117.75</ele><time>2026-03-28T09:45:44Z</time></trkpt><trkpt lat="45.37617317603477" lon="10.631732950919954"><ele>120.0</ele><time>2026-03-28T09:45:45Z</time></trkpt><trkpt lat="45.37623118046694" lon="10.631534725380051"><ele>122.0</ele><time>2026-03-28T09:45:46Z</time></trkpt><trkpt lat="45.37627900998218" lon="10.631352294737258"><ele>124.0</ele><time>2026-03-28T09:45:47Z</time></trkpt><trkpt lat="45.37632470327976" lon="10.63117545560721"><ele>126.0</ele><time>2026-03-28T09:45:48Z</time></trkpt><trkpt lat="45.37638089691456" lon="10.631005340243055"><ele>128.0</ele><time>2026-03-28T09:45:49Z</time></trkpt><trkpt lat="45.376431894212494" lon="10.630857422179496"><ele>112.0</ele><time>2026-03-28T09:45:50Z</time></trkpt><trkpt lat="45.37647535625654" lon="10.630739319399131"><ele>112.0</ele><time>2026-03-28T09:45:51Z</time></trkpt><trkpt lat="45.37652066635666" lon="10.630642155807793"><ele>112.0</ele><time>2026-03-28T09:45:52Z</time></trkpt><trkpt lat="45.37656863025841" lon="10.630549447507175"><ele>112.0</ele><time>2026-03-28T09:45:53Z</time></trkpt><trkpt lat="45.376615092177715" lon="10.630473831937845"><ele>112.0</ele><time>2026-03-28T09:45:54Z</time></trkpt><trkpt lat="45.376676583903105" lon="10.63042279272518"><ele>112.0</ele><time>2026-03-28T09:45:56Z</time></trkpt></trkseg><trkseg><trkpt lat="45.376580468415824" lon="10.630521771799547"><ele>112.0</ele><time>2026-03-28T10:16:10Z</time></trkpt><trkpt lat="45.37652999858798" lon="10.630616775863215"><ele>111.99999999999999</ele><time>2026-03-28T10:16:11Z</time></trkpt><trkpt lat="45.37645741780623" lon="10.630736793576862"><ele>111.99999999999999</ele><time>2026-03-28T10:16:12Z</time></trkpt><trkpt lat="45.376400295117136" lon="10.63087555527332"><ele>112.0</ele><time>2026-03-28T10:16:13Z</time></trkpt><trkpt lat="45.376332731303414" lon="10.631017666308324"><ele>112.0</ele><time>2026-03-28T10:16:14Z</time></trkpt><trkpt lat="45.376267295450056" lon="10.63121597661633"><ele>117.33333333333334</ele><time>2026-03-28T10:16:15Z</time></trkpt><trkpt lat="45.37620850857182" lon="10.631472023335553"><ele>122.66666666666666</ele><time>2026-03-28T10:16:16Z</time></trkpt><trkpt lat="45.37614138621309" lon="10.631736447226645"><ele>128.0</ele><time>2026-03-28T10:16:17Z</time></trkpt><trkpt lat="45.37608702516723" lon="10.631959673252695"><ele>125.33333333333333</ele><time>2026-03-28T10:16:18Z</time></trkpt><trkpt lat="45.376038211551524" lon="10.632172613822783"><ele>122.66666666666666</ele><time>2026-03-28T10:16:19Z</time></trkpt><trkpt lat="45.376006473572595" lon="10.632389097426074"><ele>120.0</ele><time>2026-03-28T10:16:20Z</time></trkpt><trkpt lat="45.37596082659181" lon="10.632601626128611"><ele>117.75</ele><time>2026-03-28T10:16:21Z</time></trkpt><trkpt lat="45.3759318727343" lon="10.63283552224364"><ele>115.5</ele><time>2026-03-28T10:16:22Z</time></trkpt><trkpt lat="45.37591139507886" lon="10.63304170556098"><ele>113.25</ele><time>2026-03-28T10:16:23Z</time></trkpt><trkpt lat="45.37589929349012" lon="10.633190842566238"><ele>111.0</ele><time>2026-03-28T10:16:24Z</time></trkpt><trkpt lat="45.37588558722143" lon="10.633345144841286"><ele>111.0</ele><time>2026-03-28T10:16:25Z</time></trkpt><trkpt lat="45.37587161826753" lon="10.633517147029867"><ele>111.0</ele><time>2026-03-28T10:16:26Z</time></trkpt><trkpt lat="45.37584407070357" lon="10.633643394919622"><ele>111.0</ele><time>2026-03-28T10:16:27Z</time></trkpt><trkpt lat="45.375835249892006" lon="10.633739516352394"><ele>111.0</ele><time>2026-03-28T10:16:28Z</time></trkpt><trkpt lat="45.375859622402075" lon="10.633860212156087"><ele>111.0</ele><time>2026-03-28T10:16:30Z</time></trkpt><trkpt lat="45.37596688771784" lon="10.634035109249334"><ele>110.4</ele><time>2026-03-28T10:16:32Z</time></trkpt><trkpt lat="45.37605569205414" lon="10.634134207485037"><ele>109.8</ele><time>2026-03-28T10:16:33Z</time></trkpt><trkpt lat="45.37615654769625" lon="10.634244291068008"><ele>109.20000000000002</ele><time>2026-03-28T10:16:34Z</time></trkpt><trkpt lat="45.37623228739977" lon="10.634338702111409"><ele>108.60000000000001</ele><time>2026-03-28T10:16:35Z</time></trkpt><trkpt lat="45.37630682772316" lon="10.634419391949288"><ele>108.0</ele><time>2026-03-28T10:16:36Z</time></trkpt><trkpt lat="45.37637540298852" lon="10.634527089858922"><ele>107.60000000000001</ele><time>2026-03-28T10:16:37Z</time></trkpt><trkpt lat="45.376395623036586" lon="10.63463821668146"><ele>107.20000000000002</ele><time>2026-03-28T10:16:38Z</time></trkpt><trkpt lat="45.376442477614724" lon="10.634749856671462"><ele>106.8</ele><time>2026-03-28T10:16:39Z</time></trkpt><trkpt lat="45.37648702449192" lon="10.634912706597733"><ele>106.4</ele><time>2026-03-28T10:16:40Z</time></trkpt><trkpt lat="45.3765375030164" lon="10.635095217227144"><ele>106.0</ele><time>2026-03-28T10:16:41Z</time></trkpt><trkpt lat="45.376556405885374" lon="10.635205045378756"><ele>107.6</ele><time>2026-03-28T10:16:42Z</time></trkpt><trkpt lat="45.37655416619264" lon="10.635366647458918"><ele>109.19999999999999</ele><time>2026-03-28T10:16:44Z</time></trkpt><trkpt lat="45.37651985162989" lon="10.635479906284283"><ele>110.80000000000001</ele><time>2026-03-28T10:16:46Z</time></trkpt><trkpt lat="45.37650055328632" lon="10.635594732783373"><ele>112.4</ele><time>2026-03-28T10:16:47Z</time></trkpt><trkpt lat="45.37644591393312" lon="10.635714074350625"><ele>114.0</ele><time>2026-03-28T10:16:48Z</time></trkpt><trkpt lat="45.37643285643547" lon="10.635811050137523"><ele>114.0</ele><time>2026-03-28T10:16:49Z</time></trkpt><trkpt lat="45.37639146871846" lon="10.635883392732431"><ele>114.0</ele><time>2026-03-28T10:16:51Z</time></trkpt><trkpt lat="45.37650634980049" lon="10.63599132906006"><ele>114.0</ele><time>2026-03-28T10:16:52Z</time></trkpt><trkpt lat="45.37659960157855" lon="10.636062439251523"><ele>114.0</ele><time>2026-03-28T10:16:53Z</time></trkpt><trkpt lat="45.3767202375979" lon="10.636149581434914"><ele>114.0</ele><time>2026-03-28T10:16:54Z</time></trkpt><trkpt lat="45.37684765508006" lon="10.636240300321836"><ele>114.6</ele><time>2026-03-28T10:16:55Z</time></trkpt><trkpt lat="45.37696126638766" lon="10.636321662741302"><ele>115.2</ele><time>2026-03-28T10:16:56Z</time></trkpt><trkpt lat="45.3770399761727" lon="10.636399756477408"><ele>115.79999999999998</ele><time>2026-03-28T10:16:57Z</time></trkpt><trkpt lat="45.37712185963604" lon="10.636505755968876"><ele>116.39999999999999</ele><time>2026-03-28T10:16:58Z</time></trkpt><trkpt lat="45.37718557010706" lon="10.636615368176953"><ele>117.0</ele><time>2026-03-28T10:16:59Z</time></trkpt><trkpt lat="45.377248435611314" lon="10.63675944861881"><ele>117.0</ele><time>2026-03-28T10:17:00Z</time></trkpt><trkpt lat="45.37731332114925" lon="10.636932344227452"><ele>117.0</ele><time>2026-03-28T10:17:01Z</time></trkpt><trkpt lat="45.3773880634599" lon="10.637126162857124"><ele>117.0</ele><time>2026-03-28T10:17:02Z</time></trkpt><trkpt lat="45.377473105329656" lon="10.637328120411876"><ele>116.66666666666666</ele><time>2026-03-28T10:17:03Z</time></trkpt><trkpt lat="45.37756284462357" lon="10.637517989537288"><ele>116.33333333333333</ele><time>2026-03-28T10:17:04Z</time></trkpt><trkpt lat="45.37765464252689" lon="10.637710807160603"><ele>116.0</ele><time>2026-03-28T10:17:05Z</time></trkpt><trkpt lat="45.37774974307594" lon="10.637904386400123"><ele>116.0</ele><time>2026-03-28T10:17:06Z</time></trkpt><trkpt lat="45.37783785866089" lon="10.63807639209213"><ele>116.0</ele><time>2026-03-28T10:17:07Z</time></trkpt><trkpt lat="45.377932359193686" lon="10.638226804431929"><ele>116.0</ele><time>2026-03-28T10:17:08Z</time></trkpt><trkpt lat="45.378022318945476" lon="10.638373662886695"><ele>116.0</ele><time>2026-03-28T10:17:09Z</time></trkpt><trkpt lat="45.37810798913074" lon="10.63851486594388"><ele>114.6</ele><time>2026-03-28T10:17:10Z</time></trkpt><trkpt lat="45.37818269232503" lon="10.638638967307653"><ele>113.19999999999999</ele><time>2026-03-28T10:17:11Z</time></trkpt><trkpt lat="45.37825033947495" lon="10.638740023162608"><ele>111.80000000000001</ele><time>2026-03-28T10:17:12Z</time></trkpt><trkpt lat="45.37831785083019" lon="10.63883048710713"><ele>110.4</ele><time>2026-03-28T10:17:13Z</time></trkpt><trkpt lat="45.37838727974757" lon="10.63890614717843"><ele>109.0</ele><time>2026-03-28T10:17:14Z</time></trkpt><trkpt lat="45.37847107038302" lon="10.638964158479537"><ele>109.0</ele><time>2026-03-28T10:17:15Z</time></trkpt><trkpt lat="45.378582592542706" lon="10.639021027897792"><ele>109.0</ele><time>2026-03-28T10:17:16Z</time></trkpt><trkpt lat="45.3786964755333" lon="10.63905953102595"><ele>109.0</ele><time>2026-03-28T10:17:17Z</time></trkpt><trkpt lat="45.378800579600814" lon="10.639093598986094"><ele>109.0</ele><time>2026-03-28T10:17:18Z</time></trkpt><trkpt lat="45.378894809569225" lon="10.639126134394827"><ele>109.0</ele><time>2026-03-28T10:17:19Z</time></trkpt><trkpt lat="45.37899261323155" lon="10.639158087230813"><ele>108.2</ele><time>2026-03-28T10:17:20Z</time></trkpt><trkpt lat="45.37909901199028" lon="10.639175189598989"><ele>107.4</ele><time>2026-03-28T10:17:21Z</time></trkpt><trkpt lat="45.37920551340891" lon="10.639147409638673"><ele>106.6</ele><time>2026-03-28T10:17:22Z</time></trkpt><trkpt lat="45.37930735559098" lon="10.63907880882087"><ele>105.8</ele><time>2026-03-28T10:17:23Z</time></trkpt><trkpt lat="45.3793912139909" lon="10.638973561424066"><ele>105.0</ele><time>2026-03-28T10:17:24Z</time></trkpt><trkpt lat="45.37948454868364" lon="10.638834263806572"><ele>105.0</ele><time>2026-03-28T10:17:25Z</time></trkpt><trkpt lat="45.37958478895259" lon="10.638657282986635"><ele>105.0</ele><time>2026-03-28T10:17:26Z</time></trkpt><trkpt lat="45.37969693559649" lon="10.638463969063858"><ele>105.0</ele><time>2026-03-28T10:17:27Z</time></trkpt><trkpt lat="45.37981457140473" lon="10.638268303306235"><ele>103.0</ele><time>2026-03-28T10:17:28Z</time></trkpt><trkpt lat="45.37993122309919" lon="10.638084040645126"><ele>101.0</ele><time>2026-03-28T10:17:29Z</time></trkpt><trkpt lat="45.380038064359304" lon="10.637927888535057"><ele>99.0</ele><time>2026-03-28T10:17:30Z</time></trkpt><trkpt lat="45.38013801879898" lon="10.63781727613189"><ele>99.5</ele><time>2026-03-28T10:17:31Z</time></trkpt><trkpt lat="45.38025205099972" lon="10.637737201738767"><ele>100.0</ele><time>2026-03-28T10:17:32Z</time></trkpt><trkpt lat="45.38038500985853" lon="10.637668257972322"><ele>100.5</ele><time>2026-03-28T10:17:33Z</time></trkpt><trkpt lat="45.380549727363" lon="10.637636251472431"><ele>101.0</ele><time>2026-03-28T10:17:34Z</time></trkpt><trkpt lat="45.380696227904" lon="10.637635799176048"><ele>101.5</ele><time>2026-03-28T10:17:35Z</time></trkpt><trkpt lat="45.38082134645822" lon="10.637684483377022"><ele>102.0</ele><time>2026-03-28T10:17:36Z</time></trkpt><trkpt lat="45.38094202745918" lon="10.637768131921412"><ele>102.5</ele><time>2026-03-28T10:17:37Z</time></trkpt><trkpt lat="45.38107721868019" lon="10.637910904611655"><ele>103.0</ele><time>2026-03-28T10:17:38Z</time></trkpt><trkpt lat="45.38122697492605" lon="10.638118289571109"><ele>103.5</ele><time>2026-03-28T10:17:39Z</time></trkpt><trkpt lat="45.38140265639883" lon="10.638363475247168"><ele>104.0</ele><time>2026-03-28T10:17:40Z</time></trkpt><trkpt lat="45.381578954896085" lon="10.638624168656976"><ele>103.0</ele><time>2026-03-28T10:17:41Z</time></trkpt><trkpt lat="45.381744279111224" lon="10.63887673758284"><ele>102.0</ele><time>2026-03-28T10:17:42Z</time></trkpt><trkpt lat="45.3818831870887" lon="10.63910724834175"><ele>102.0</ele><time>2026-03-28T10:17:43Z</time></trkpt><trkpt lat="45.382017804580144" lon="10.639329078680614"><ele>102.0</ele><time>2026-03-28T10:17:44Z</time></trkpt><trkpt lat="45.38217057992803" lon="10.639554959727967"><ele>102.0</ele><time>2026-03-28T10:17:45Z</time></trkpt><trkpt lat="45.382324827766254" lon="10.63976123347376"><ele>103.0</ele><time>2026-03-28T10:17:46Z</time></trkpt><trkpt lat="45.382485485444526" lon="10.6399650487856"><ele>104.0</ele><time>2026-03-28T10:17:47Z</time></trkpt><trkpt lat="45.38266613967871" lon="10.640145940776945"><ele>105.0</ele><time>2026-03-28T10:17:48Z</time></trkpt><trkpt lat="45.382870962396495" lon="10.640316898092085"><ele>106.0</ele><time>2026-03-28T10:17:49Z</time></trkpt><trkpt lat="45.383094302506215" lon="10.64048134490804"><ele>107.0</ele><time>2026-03-28T10:17:50Z</time></trkpt><trkpt lat="45.383319578865766" lon="10.640634568947894"><ele>107.0</ele><time>2026-03-28T10:17:51Z</time></trkpt><trkpt lat="45.38352840304859" lon="10.640791075685856"><ele>107.0</ele><time>2026-03-28T10:17:52Z</time></trkpt><trkpt lat="45.383732873327354" lon="10.640926436760987"><ele>106.0</ele><time>2026-03-28T10:17:53Z</time></trkpt><trkpt lat="45.38395560937048" lon="10.641057282401759"><ele>105.0</ele><time>2026-03-28T10:17:54Z</time></trkpt><trkpt lat="45.3841883622542" lon="10.641184806506304"><ele>105.0</ele><time>2026-03-28T10:17:55Z</time></trkpt><trkpt lat="45.38443194373528" lon="10.641316249450025"><ele>105.0</ele><time>2026-03-28T10:17:56Z</time></trkpt><trkpt lat="45.38468331055184" lon="10.641449597358402"><ele>106.5</ele><time>2026-03-28T10:17:57Z</time></trkpt><trkpt lat="45.38494016693784" lon="10.641592469940887"><ele>108.0</ele><time>2026-03-28T10:17:58Z</time></trkpt><trkpt lat="45.38519898743684" lon="10.641743889774881"><ele>108.0</ele><time>2026-03-28T10:17:59Z</time></trkpt><trkpt lat="45.38546699477843" lon="10.641885673655134"><ele>108.0</ele><time>2026-03-28T10:18:00Z</time></trkpt><trkpt lat="45.385737769836624" lon="10.642025098352217"><ele>106.5</ele><time>2026-03-28T10:18:01Z</time></trkpt><trkpt lat="45.38601182432306" lon="10.64217064157555"><ele>105.0</ele><time>2026-03-28T10:18:02Z</time></trkpt><trkpt lat="45.38627998105702" lon="10.642312909931364"><ele>105.5</ele><time>2026-03-28T10:18:03Z</time></trkpt><trkpt lat="45.38653846665662" lon="10.642455021408546"><ele>106.0</ele><time>2026-03-28T10:18:04Z</time></trkpt><trkpt lat="45.386793405694526" lon="10.642585415284215"><ele>106.0</ele><time>2026-03-28T10:18:05Z</time></trkpt><trkpt lat="45.38703152499702" lon="10.642706540086884"><ele>106.0</ele><time>2026-03-28T10:18:06Z</time></trkpt><trkpt lat="45.387265540085956" lon="10.64282174837958"><ele>104.5</ele><time>2026-03-28T10:18:07Z</time></trkpt><trkpt lat="45.387487582907994" lon="10.642937302410157"><ele>103.0</ele><time>2026-03-28T10:18:08Z</time></trkpt><trkpt lat="45.38770299036355" lon="10.643052673973175"><ele>103.0</ele><time>2026-03-28T10:18:09Z</time></trkpt><trkpt lat="45.38792204095136" lon="10.64316961643159"><ele>103.0</ele><time>2026-03-28T10:18:10Z</time></trkpt><trkpt lat="45.38813760423339" lon="10.643276554599723"><ele>104.5</ele><time>2026-03-28T10:18:11Z</time></trkpt><trkpt lat="45.388353481977724" lon="10.64337838641223"><ele>106.0</ele><time>2026-03-28T10:18:12Z</time></trkpt><trkpt lat="45.38857090176743" lon="10.643468583750856"><ele>106.0</ele><time>2026-03-28T10:18:13Z</time></trkpt><trkpt lat="45.388792202976795" lon="10.643554506563666"><ele>106.0</ele><time>2026-03-28T10:18:14Z</time></trkpt><trkpt lat="45.3890139533696" lon="10.643635276422202"><ele>105.33333333333334</ele><time>2026-03-28T10:18:15Z</time></trkpt><trkpt lat="45.389214312011276" lon="10.643704558804542"><ele>104.66666666666666</ele><time>2026-03-28T10:18:16Z</time></trkpt><trkpt lat="45.38939353610386" lon="10.643769042285651"><ele>104.0</ele><time>2026-03-28T10:18:17Z</time></trkpt><trkpt lat="45.389545090866555" lon="10.643827608028081"><ele>104.0</ele><time>2026-03-28T10:18:18Z</time></trkpt><trkpt lat="45.38969788642217" lon="10.643881266097944"><ele>104.0</ele><time>2026-03-28T10:18:19Z</time></trkpt><trkpt lat="45.389846098036536" lon="10.643928601272927"><ele>104.0</ele><time>2026-03-28T10:18:20Z</time></trkpt><trkpt lat="45.3899794014163" lon="10.643960342989182"><ele>104.0</ele><time>2026-03-28T10:18:21Z</time></trkpt><trkpt lat="45.39008456039182" lon="10.643949798792493"><ele>104.0</ele><time>2026-03-28T10:18:22Z</time></trkpt><trkpt lat="45.39017952816309" lon="10.643887384952176"><ele>104.0</ele><time>2026-03-28T10:18:23Z</time></trkpt><trkpt lat="45.39026899904672" lon="10.643773067540543"><ele>104.0</ele><time>2026-03-28T10:18:24Z</time></trkpt><trkpt lat="45.390350845133455" lon="10.64361433178253"><ele>104.0</ele><time>2026-03-28T10:18:25Z</time></trkpt><trkpt lat="45.390424022679134" lon="10.643403311014056"><ele>105.66666666666666</ele><time>2026-03-28T10:18:26Z</time></trkpt><trkpt lat="45.39050286840892" lon="10.643170575045502"><ele>107.33333333333334</ele><time>2026-03-28T10:18:27Z</time></trkpt><trkpt lat="45.39058633573362" lon="10.642933979862809"><ele>109.0</ele><time>2026-03-28T10:18:28Z</time></trkpt><trkpt lat="45.390662713373075" lon="10.64273290553657"><ele>110.75</ele><time>2026-03-28T10:18:29Z</time></trkpt><trkpt lat="45.390736389221985" lon="10.642556156937719"><ele>112.5</ele><time>2026-03-28T10:18:30Z</time></trkpt><trkpt lat="45.39080349287202" lon="10.642423739467958"><ele>114.25</ele><time>2026-03-28T10:18:31Z</time></trkpt><trkpt lat="45.39085505127917" lon="10.642332462597333"><ele>116.0</ele><time>2026-03-28T10:18:32Z</time></trkpt><trkpt lat="45.390959273655085" lon="10.642255657214811"><ele>116.0</ele><time>2026-03-28T10:18:33Z</time></trkpt><trkpt lat="45.39109257578592" lon="10.64221047762474"><ele>116.0</ele><time>2026-03-28T10:18:34Z</time></trkpt><trkpt lat="45.391253901592194" lon="10.642198383663679"><ele>116.0</ele><time>2026-03-28T10:18:35Z</time></trkpt><trkpt lat="45.3914339653817" lon="10.642223462438512"><ele>115.66666666666666</ele><time>2026-03-28T10:18:36Z</time></trkpt><trkpt lat="45.391591078676704" lon="10.642236977319678"><ele>115.33333333333334</ele><time>2026-03-28T10:18:37Z</time></trkpt><trkpt lat="45.39175513366101" lon="10.642192129862387"><ele>115.0</ele><time>2026-03-28T10:18:38Z</time></trkpt><trkpt lat="45.39192986339487" lon="10.642078525239352"><ele>115.0</ele><time>2026-03-28T10:18:39Z</time></trkpt><trkpt lat="45.39209172376084" lon="10.641965162803409"><ele>115.0</ele><time>2026-03-28T10:18:40Z</time></trkpt><trkpt lat="45.392236019736636" lon="10.641867957600113"><ele>115.0</ele><time>2026-03-28T10:18:41Z</time></trkpt><trkpt lat="45.39237796164213" lon="10.641781384554502"><ele>112.5</ele><time>2026-03-28T10:18:42Z</time></trkpt><trkpt lat="45.39250292876754" lon="10.6417120766838"><ele>110.0</ele><time>2026-03-28T10:18:43Z</time></trkpt><trkpt lat="45.39262788040022" lon="10.641631207252953"><ele>107.5</ele><time>2026-03-28T10:18:44Z</time></trkpt><trkpt lat="45.39275193646526" lon="10.64155734064743"><ele>105.0</ele><time>2026-03-28T10:18:45Z</time></trkpt><trkpt lat="45.3928689979471" lon="10.641506841612241"><ele>105.0</ele><time>2026-03-28T10:18:46Z</time></trkpt><trkpt lat="45.39299357437865" lon="10.64149375419286"><ele>105.0</ele><time>2026-03-28T10:18:47Z</time></trkpt><trkpt lat="45.3931242662275" lon="10.641525753915507"><ele>105.0</ele><time>2026-03-28T10:18:48Z</time></trkpt><trkpt lat="45.39326845402394" lon="10.641602836560281"><ele>105.0</ele><time>2026-03-28T10:18:49Z</time></trkpt><trkpt lat="45.3934131201523" lon="10.64169878304018"><ele>104.33333333333334</ele><time>2026-03-28T10:18:50Z</time></trkpt><trkpt lat="45.393568388333954" lon="10.641793546109682"><ele>103.66666666666667</ele><time>2026-03-28T10:18:51Z</time></trkpt><trkpt lat="45.393734321943136" lon="10.641887927993622"><ele>103.0</ele><time>2026-03-28T10:18:52Z</time></trkpt><trkpt lat="45.39390437872559" lon="10.641989732118288"><ele>104.66666666666667</ele><time>2026-03-28T10:18:53Z</time></trkpt><trkpt lat="45.39407727311285" lon="10.642081382260683"><ele>106.33333333333334</ele><time>2026-03-28T10:18:54Z</time></trkpt><trkpt lat="45.39425262177308" lon="10.642169671868384"><ele>108.0</ele><time>2026-03-28T10:18:55Z</time></trkpt><trkpt lat="45.394429602452206" lon="10.642261543962675"><ele>108.0</ele><time>2026-03-28T10:18:56Z</time></trkpt><trkpt lat="45.39461079486368" lon="10.642360644771863"><ele>108.0</ele><time>2026-03-28T10:18:57Z</time></trkpt><trkpt lat="45.394793541427966" lon="10.642459593178693"><ele>108.0</ele><time>2026-03-28T10:18:58Z</time></trkpt><trkpt lat="45.394978301176394" lon="10.642555893838528"><ele>105.0</ele><time>2026-03-28T10:18:59Z</time></trkpt><trkpt lat="45.39516418928793" lon="10.642651436235685"><ele>102.0</ele><time>2026-03-28T10:19:00Z</time></trkpt><trkpt lat="45.395347259144536" lon="10.642743631685027"><ele>99.0</ele><time>2026-03-28T10:19:01Z</time></trkpt><trkpt lat="45.39551770806768" lon="10.642824321390087"><ele>99.0</ele><time>2026-03-28T10:19:02Z</time></trkpt><trkpt lat="45.39567926573061" lon="10.64289792662393"><ele>99.0</ele><time>2026-03-28T10:19:03Z</time></trkpt><trkpt lat="45.39583185483265" lon="10.642966294698704"><ele>99.0</ele><time>2026-03-28T10:19:04Z</time></trkpt><trkpt lat="45.395976638415284" lon="10.643032185800315"><ele>99.0</ele><time>2026-03-28T10:19:05Z</time></trkpt><trkpt lat="45.396111362613986" lon="10.643092512529027"><ele>99.0</ele><time>2026-03-28T10:19:06Z</time></trkpt><trkpt lat="45.39623569355038" lon="10.643153882998073"><ele>99.0</ele><time>2026-03-28T10:19:07Z</time></trkpt><trkpt lat="45.39635670913394" lon="10.64321187338477"><ele>99.0</ele><time>2026-03-28T10:19:08Z</time></trkpt><trkpt lat="45.396476373692224" lon="10.643271549604778"><ele>97.0</ele><time>2026-03-28T10:19:09Z</time></trkpt><trkpt lat="45.396611937161445" lon="10.643334860805636"><ele>95.0</ele><time>2026-03-28T10:19:10Z</time></trkpt><trkpt lat="45.396761965043346" lon="10.643405695742443"><ele>93.0</ele><time>2026-03-28T10:19:11Z</time></trkpt><trkpt lat="45.396917062793975" lon="10.64347472387314"><ele>93.0</ele><time>2026-03-28T10:19:12Z</time></trkpt><trkpt lat="45.39706020844685" lon="10.643546884905888"><ele>93.0</ele><time>2026-03-28T10:19:13Z</time></trkpt><trkpt lat="45.39718441376565" lon="10.643596023674819"><ele>93.0</ele><time>2026-03-28T10:19:14Z</time></trkpt><trkpt lat="45.39730282416836" lon="10.643616767601076"><ele>93.0</ele><time>2026-03-28T10:19:15Z</time></trkpt><trkpt lat="45.39741003446752" lon="10.643593891410909"><ele>92.5</ele><time>2026-03-28T10:19:16Z</time></trkpt><trkpt lat="45.3975225424524" lon="10.643548324099395"><ele>92.0</ele><time>2026-03-28T10:19:17Z</time></trkpt><trkpt lat="45.39761847422121" lon="10.643452811331292"><ele>91.5</ele><time>2026-03-28T10:19:18Z</time></trkpt><trkpt lat="45.397721789020736" lon="10.643317730991091"><ele>91.0</ele><time>2026-03-28T10:19:19Z</time></trkpt><trkpt lat="45.39782797414245" lon="10.643153859787763"><ele>91.0</ele><time>2026-03-28T10:19:20Z</time></trkpt><trkpt lat="45.39797178579941" lon="10.64300059217438"><ele>91.0</ele><time>2026-03-28T10:19:21Z</time></trkpt><trkpt lat="45.39810650240469" lon="10.642820828840875"><ele>91.0</ele><time>2026-03-28T10:19:22Z</time></trkpt><trkpt lat="45.39823430171458" lon="10.642622831686625"><ele>90.0</ele><time>2026-03-28T10:19:23Z</time></trkpt><trkpt lat="45.39835926858509" lon="10.64246539506167"><ele>89.0</ele><time>2026-03-28T10:19:24Z</time></trkpt><trkpt lat="45.39847346045306" lon="10.642297995557751"><ele>88.0</ele><time>2026-03-28T10:19:25Z</time></trkpt><trkpt lat="45.39859176649446" lon="10.642108545455248"><ele>88.33333333333333</ele><time>2026-03-28T10:19:26Z</time></trkpt><trkpt lat="45.398666147043826" lon="10.641858264684084"><ele>88.66666666666667</ele><time>2026-03-28T10:19:27Z</time></trkpt><trkpt lat="45.398716835555085" lon="10.641592140253517"><ele>89.0</ele><time>2026-03-28T10:19:28Z</time></trkpt><trkpt lat="45.398755804195886" lon="10.641327428216359"><ele>89.66666666666667</ele><time>2026-03-28T10:19:29Z</time></trkpt><trkpt lat="45.39877286906353" lon="10.641062668639137"><ele>90.33333333333333</ele><time>2026-03-28T10:19:30Z</time></trkpt><trkpt lat="45.39876270527171" lon="10.640807631948496"><ele>91.0</ele><time>2026-03-28T10:19:31Z</time></trkpt><trkpt lat="45.39874724375936" lon="10.640565597536378"><ele>91.0</ele><time>2026-03-28T10:19:32Z</time></trkpt><trkpt lat="45.398730163634575" lon="10.640310031450552"><ele>91.0</ele><time>2026-03-28T10:19:33Z</time></trkpt><trkpt lat="45.39871361487107" lon="10.640043050590416"><ele>91.0</ele><time>2026-03-28T10:19:34Z</time></trkpt><trkpt lat="45.39870198038605" lon="10.639777046752362"><ele>91.33333333333333</ele><time>2026-03-28T10:19:35Z</time></trkpt><trkpt lat="45.398690965296595" lon="10.639497263350247"><ele>91.66666666666667</ele><time>2026-03-28T10:19:36Z</time></trkpt><trkpt lat="45.39868032624666" lon="10.63922703165101"><ele>92.0</ele><time>2026-03-28T10:19:37Z</time></trkpt><trkpt lat="45.39867006836908" lon="10.6389664814978"><ele>92.0</ele><time>2026-03-28T10:19:38Z</time></trkpt><trkpt lat="45.39866027782465" lon="10.63869078563158"><ele>92.0</ele><time>2026-03-28T10:19:39Z</time></trkpt><trkpt lat="45.398651514317415" lon="10.638411392130179"><ele>92.0</ele><time>2026-03-28T10:19:40Z</time></trkpt><trkpt lat="45.39864419581473" lon="10.638153359651563"><ele>91.66666666666667</ele><time>2026-03-28T10:19:41Z</time></trkpt><trkpt lat="45.39863743524063" lon="10.637890480708911"><ele>91.33333333333333</ele><time>2026-03-28T10:19:42Z</time></trkpt><trkpt lat="45.39863114979166" lon="10.637628563696731"><ele>91.0</ele><time>2026-03-28T10:19:43Z</time></trkpt><trkpt lat="45.39862779177696" lon="10.637364838601307"><ele>91.0</ele><time>2026-03-28T10:19:44Z</time></trkpt><trkpt lat="45.39863323469037" lon="10.63712371166458"><ele>91.0</ele><time>2026-03-28T10:19:45Z</time></trkpt><trkpt lat="45.398653881148086" lon="10.636880124950137"><ele>91.0</ele><time>2026-03-28T10:19:46Z</time></trkpt><trkpt lat="45.39870770193731" lon="10.636649592942666"><ele>91.0</ele><time>2026-03-28T10:19:47Z</time></trkpt><trkpt lat="45.398778374566504" lon="10.636413577633325"><ele>91.0</ele><time>2026-03-28T10:19:48Z</time></trkpt><trkpt lat="45.39885863641311" lon="10.636167309301939"><ele>91.0</ele><time>2026-03-28T10:19:49Z</time></trkpt><trkpt lat="45.3989329291607" lon="10.635912630009377"><ele>91.0</ele><time>2026-03-28T10:19:50Z</time></trkpt><trkpt lat="45.39904416215381" lon="10.635697452683045"><ele>91.0</ele><time>2026-03-28T10:19:51Z</time></trkpt><trkpt lat="45.39912230916879" lon="10.635489564598384"><ele>91.0</ele><time>2026-03-28T10:19:52Z</time></trkpt><trkpt lat="45.39920249919035" lon="10.635322188018602"><ele>91.4</ele><time>2026-03-28T10:19:53Z</time></trkpt><trkpt lat="45.39928387582994" lon="10.635197087791868"><ele>91.8</ele><time>2026-03-28T10:19:54Z</time></trkpt><trkpt lat="45.39935424946763" lon="10.635056942560148"><ele>92.2</ele><time>2026-03-28T10:19:55Z</time></trkpt><trkpt lat="45.39940770584937" lon="10.634950487040426"><ele>92.60000000000001</ele><time>2026-03-28T10:19:56Z</time></trkpt><trkpt lat="45.3994477578534" lon="10.63486222892982"><ele>93.0</ele><time>2026-03-28T10:19:57Z</time></trkpt><trkpt lat="45.39952445786564" lon="10.63480454004836"><ele>93.0</ele><time>2026-03-28T10:19:58Z</time></trkpt><trkpt lat="45.399624497052365" lon="10.63475916075256"><ele>93.0</ele><time>2026-03-28T10:19:59Z</time></trkpt><trkpt lat="45.39974060773727" lon="10.634751170360337"><ele>93.0</ele><time>2026-03-28T10:20:00Z</time></trkpt><trkpt lat="45.39985629060967" lon="10.634796553159873"><ele>93.0</ele><time>2026-03-28T10:20:01Z</time></trkpt><trkpt lat="45.39998818759296" lon="10.634888159413823"><ele>92.0</ele><time>2026-03-28T10:20:02Z</time></trkpt><trkpt lat="45.400142413222724" lon="10.635024992507768"><ele>91.0</ele><time>2026-03-28T10:20:03Z</time></trkpt><trkpt lat="45.40030199408104" lon="10.635186555361052"><ele>90.0</ele><time>2026-03-28T10:20:04Z</time></trkpt><trkpt lat="45.40046762106468" lon="10.635348501444984"><ele>89.33333333333333</ele><time>2026-03-28T10:20:05Z</time></trkpt><trkpt lat="45.40064815848572" lon="10.63551331450356"><ele>88.66666666666666</ele><time>2026-03-28T10:20:06Z</time></trkpt><trkpt lat="45.40083146838044" lon="10.63567386843027"><ele>88.0</ele><time>2026-03-28T10:20:07Z</time></trkpt><trkpt lat="45.40100775928952" lon="10.635818025408561"><ele>88.0</ele><time>2026-03-28T10:20:08Z</time></trkpt><trkpt lat="45.40118375208035" lon="10.635967675377469"><ele>88.0</ele><time>2026-03-28T10:20:09Z</time></trkpt><trkpt lat="45.401363405531896" lon="10.636120938280136"><ele>88.0</ele><time>2026-03-28T10:20:10Z</time></trkpt><trkpt lat="45.40153925454855" lon="10.636270853903014"><ele>87.66666666666666</ele><time>2026-03-28T10:20:11Z</time></trkpt><trkpt lat="45.40171269378807" lon="10.63641757236964"><ele>87.33333333333333</ele><time>2026-03-28T10:20:12Z</time></trkpt><trkpt lat="45.401884092695525" lon="10.636556792010099"><ele>87.0</ele><time>2026-03-28T10:20:13Z</time></trkpt><trkpt lat="45.402048659079824" lon="10.636697531922938"><ele>87.33333333333333</ele><time>2026-03-28T10:20:14Z</time></trkpt><trkpt lat="45.40219796087667" lon="10.636838203151635"><ele>87.66666666666666</ele><time>2026-03-28T10:20:15Z</time></trkpt><trkpt lat="45.40234269963339" lon="10.636966018195457"><ele>88.0</ele><time>2026-03-28T10:20:16Z</time></trkpt><trkpt lat="45.402483437141335" lon="10.637084293315318"><ele>87.5</ele><time>2026-03-28T10:20:17Z</time></trkpt><trkpt lat="45.4026006771143" lon="10.637189539299177"><ele>87.0</ele><time>2026-03-28T10:20:18Z</time></trkpt><trkpt lat="45.40270251910564" lon="10.637283608748357"><ele>86.5</ele><time>2026-03-28T10:20:19Z</time></trkpt><trkpt lat="45.402790075083544" lon="10.637362922453908"><ele>86.0</ele><time>2026-03-28T10:20:20Z</time></trkpt><trkpt lat="45.40286672078582" lon="10.637429808887127"><ele>86.0</ele><time>2026-03-28T10:20:21Z</time></trkpt><trkpt lat="45.40293048117134" lon="10.637485971103436"><ele>86.0</ele><time>2026-03-28T10:20:22Z</time></trkpt><trkpt lat="45.40298817748181" lon="10.637541617046878"><ele>86.0</ele><time>2026-03-28T10:20:24Z</time></trkpt><trkpt lat="45.403083734283584" lon="10.637597267116234"><ele>86.0</ele><time>2026-03-28T10:20:47Z</time></trkpt><trkpt lat="45.403199968348936" lon="10.637684607190081"><ele>86.0</ele><time>2026-03-28T10:20:48Z</time></trkpt><trkpt lat="45.403363903218874" lon="10.637821616389974"><ele>87.0</ele><time>2026-03-28T10:20:49Z</time></trkpt><trkpt lat="45.403525740692686" lon="10.637963814088264"><ele>88.0</ele><time>2026-03-28T10:20:50Z</time></trkpt><trkpt lat="45.40369514349316" lon="10.638117576232087"><ele>89.0</ele><time>2026-03-28T10:20:51Z</time></trkpt><trkpt lat="45.40390276854875" lon="10.638307023101643"><ele>89.5</ele><time>2026-03-28T10:20:52Z</time></trkpt><trkpt lat="45.40414230687459" lon="10.638517310808368"><ele>90.0</ele><time>2026-03-28T10:20:53Z</time></trkpt><trkpt lat="45.40439324634231" lon="10.638728703536088"><ele>91.0</ele><time>2026-03-28T10:20:54Z</time></trkpt><trkpt lat="45.40462971211749" lon="10.638928288763342"><ele>92.0</ele><time>2026-03-28T10:20:55Z</time></trkpt><trkpt lat="45.40484698836925" lon="10.639105893017401"><ele>92.0</ele><time>2026-03-28T10:20:56Z</time></trkpt><trkpt lat="45.40506761481186" lon="10.639293077069114"><ele>92.0</ele><time>2026-03-28T10:20:57Z</time></trkpt><trkpt lat="45.405312769959906" lon="10.639486504222223"><ele>90.0</ele><time>2026-03-28T10:20:58Z</time></trkpt><trkpt lat="45.40558266600747" lon="10.639667462003942"><ele>88.0</ele><time>2026-03-28T10:20:59Z</time></trkpt><trkpt lat="45.405867991988444" lon="10.639833717579194"><ele>88.0</ele><time>2026-03-28T10:21:00Z</time></trkpt><trkpt lat="45.40616846766749" lon="10.639987718098395"><ele>88.0</ele><time>2026-03-28T10:21:01Z</time></trkpt><trkpt lat="45.40647425511767" lon="10.640133123059883"><ele>87.5</ele><time>2026-03-28T10:21:02Z</time></trkpt><trkpt lat="45.40677507742992" lon="10.640284128785751"><ele>87.0</ele><time>2026-03-28T10:21:03Z</time></trkpt><trkpt lat="45.40706737474934" lon="10.640434033085457"><ele>87.5</ele><time>2026-03-28T10:21:04Z</time></trkpt><trkpt lat="45.40734113897897" lon="10.640576106502317"><ele>88.0</ele><time>2026-03-28T10:21:05Z</time></trkpt><trkpt lat="45.40759207470337" lon="10.640708944158181"><ele>88.0</ele><time>2026-03-28T10:21:06Z</time></trkpt><trkpt lat="45.407816996455445" lon="10.640830345049176"><ele>88.0</ele><time>2026-03-28T10:21:07Z</time></trkpt><trkpt lat="45.40802060858872" lon="10.640958394116533"><ele>89.0</ele><time>2026-03-28T10:21:08Z</time></trkpt><trkpt lat="45.40821754516321" lon="10.64112894373232"><ele>90.0</ele><time>2026-03-28T10:21:09Z</time></trkpt><trkpt lat="45.408410922424224" lon="10.641332265630737"><ele>90.33333333333333</ele><time>2026-03-28T10:21:10Z</time></trkpt><trkpt lat="45.408604308644314" lon="10.641529541496721"><ele>90.66666666666666</ele><time>2026-03-28T10:21:11Z</time></trkpt><trkpt lat="45.408766675067476" lon="10.641688562547742"><ele>91.0</ele><time>2026-03-28T10:21:12Z</time></trkpt><trkpt lat="45.40892255874918" lon="10.641827394629585"><ele>91.0</ele><time>2026-03-28T10:21:13Z</time></trkpt><trkpt lat="45.409063160388506" lon="10.641918613080785"><ele>91.0</ele><time>2026-03-28T10:21:14Z</time></trkpt><trkpt lat="45.409221431797555" lon="10.641989780008712"><ele>91.0</ele><time>2026-03-28T10:21:15Z</time></trkpt><trkpt lat="45.409393718369806" lon="10.642027987181697"><ele>91.0</ele><time>2026-03-28T10:21:16Z</time></trkpt><trkpt lat="45.40957459079312" lon="10.642025140550594"><ele>91.0</ele><time>2026-03-28T10:21:17Z</time></trkpt><trkpt lat="45.40974852194013" lon="10.641980344521157"><ele>91.0</ele><time>2026-03-28T10:21:18Z</time></trkpt><trkpt lat="45.40992107172296" lon="10.641902372624111"><ele>91.66666666666666</ele><time>2026-03-28T10:21:19Z</time></trkpt><trkpt lat="45.41008281055176" lon="10.641792337766848"><ele>92.33333333333333</ele><time>2026-03-28T10:21:20Z</time></trkpt><trkpt lat="45.41023108590878" lon="10.641649231406259"><ele>93.0</ele><time>2026-03-28T10:21:21Z</time></trkpt><trkpt lat="45.41036266902519" lon="10.641482542224416"><ele>93.0</ele><time>2026-03-28T10:21:22Z</time></trkpt><trkpt lat="45.41045794581784" lon="10.641334997828025"><ele>93.0</ele><time>2026-03-28T10:21:23Z</time></trkpt><trkpt lat="45.41052530425021" lon="10.641247833508444"><ele>93.0</ele><time>2026-03-28T10:21:24Z</time></trkpt><trkpt lat="45.41058453975977" lon="10.641211680339815"><ele>93.0</ele><time>2026-03-28T10:21:25Z</time></trkpt><trkpt lat="45.41068521942786" lon="10.64124169181172"><ele>93.0</ele><time>2026-03-28T10:21:27Z</time></trkpt><trkpt lat="45.41077838545744" lon="10.641277272280117"><ele>94.60000000000001</ele><time>2026-03-28T10:21:29Z</time></trkpt><trkpt lat="45.41084629290228" lon="10.641218120229341"><ele>96.2</ele><time>2026-03-28T10:21:32Z</time></trkpt><trkpt lat="45.410927572576995" lon="10.641129759063947"><ele>97.8</ele><time>2026-03-28T10:21:36Z</time></trkpt><trkpt lat="45.410957343355946" lon="10.640945134693125"><ele>99.4</ele><time>2026-03-28T10:21:38Z</time></trkpt><trkpt lat="45.41093598713165" lon="10.640843199935478"><ele>101.0</ele><time>2026-03-28T10:21:39Z</time></trkpt><trkpt lat="45.41085843959755" lon="10.640763063834962"><ele>101.25</ele><time>2026-03-28T10:21:40Z</time></trkpt><trkpt lat="45.410790411357105" lon="10.64070638737626"><ele>101.5</ele><time>2026-03-28T10:21:41Z</time></trkpt><trkpt lat="45.41068129388646" lon="10.640744401509625"><ele>101.75</ele><time>2026-03-28T10:21:43Z</time></trkpt><trkpt lat="45.410554893323386" lon="10.640575305610446"><ele>102.0</ele><time>2026-03-28T10:21:45Z</time></trkpt><trkpt lat="45.41054003002399" lon="10.640423278699668"><ele>101.75</ele><time>2026-03-28T10:21:46Z</time></trkpt><trkpt lat="45.41050618121042" lon="10.640272167721546"><ele>101.5</ele><time>2026-03-28T10:21:47Z</time></trkpt><trkpt lat="45.41047854493051" lon="10.640091794733415"><ele>101.25</ele><time>2026-03-28T10:21:48Z</time></trkpt><trkpt lat="45.41045356905775" lon="10.63989010072664"><ele>101.0</ele><time>2026-03-28T10:21:49Z</time></trkpt><trkpt lat="45.410429495081765" lon="10.63968637657217"><ele>101.0</ele><time>2026-03-28T10:21:50Z</time></trkpt><trkpt lat="45.410395317288504" lon="10.639472208051039"><ele>101.0</ele><time>2026-03-28T10:21:51Z</time></trkpt><trkpt lat="45.410346071274496" lon="10.639253219807516"><ele>101.0</ele><time>2026-03-28T10:21:52Z</time></trkpt><trkpt lat="45.410284622302036" lon="10.639034717639692"><ele>101.66666666666666</ele><time>2026-03-28T10:21:53Z</time></trkpt><trkpt lat="45.41021380223082" lon="10.638820010017762"><ele>102.33333333333334</ele><time>2026-03-28T10:21:54Z</time></trkpt><trkpt lat="45.41013530204663" lon="10.638599550359402"><ele>103.0</ele><time>2026-03-28T10:21:55Z</time></trkpt><trkpt lat="45.41005242921822" lon="10.63838299987299"><ele>103.0</ele><time>2026-03-28T10:21:56Z</time></trkpt><trkpt lat="45.40996899782218" lon="10.638168401243105"><ele>103.0</ele><time>2026-03-28T10:21:57Z</time></trkpt><trkpt lat="45.40988224268826" lon="10.63794777912264"><ele>103.0</ele><time>2026-03-28T10:21:58Z</time></trkpt><trkpt lat="45.409796082058826" lon="10.637728669073267"><ele>103.0</ele><time>2026-03-28T10:21:59Z</time></trkpt><trkpt lat="45.40970883316427" lon="10.637505889177413"><ele>103.0</ele><time>2026-03-28T10:22:00Z</time></trkpt><trkpt lat="45.40962108092155" lon="10.637281587077409"><ele>103.0</ele><time>2026-03-28T10:22:01Z</time></trkpt><trkpt lat="45.40953525431396" lon="10.637072256989605"><ele>104.66666666666667</ele><time>2026-03-28T10:22:02Z</time></trkpt><trkpt lat="45.4094427703411" lon="10.636864639107817"><ele>106.33333333333334</ele><time>2026-03-28T10:22:03Z</time></trkpt><trkpt lat="45.409342817839345" lon="10.636664199790717"><ele>108.0</ele><time>2026-03-28T10:22:04Z</time></trkpt><trkpt lat="45.40923814947827" lon="10.636471964300732"><ele>108.0</ele><time>2026-03-28T10:22:05Z</time></trkpt><trkpt lat="45.40913471665623" lon="10.636286242222692"><ele>108.0</ele><time>2026-03-28T10:22:06Z</time></trkpt><trkpt lat="45.40903575309313" lon="10.63610857673381"><ele>108.0</ele><time>2026-03-28T10:22:07Z</time></trkpt><trkpt lat="45.40892987992864" lon="10.635918496858832"><ele>107.66666666666666</ele><time>2026-03-28T10:22:08Z</time></trkpt><trkpt lat="45.40882230170119" lon="10.635725355934055"><ele>107.33333333333333</ele><time>2026-03-28T10:22:09Z</time></trkpt><trkpt lat="45.40871170915562" lon="10.63553953761981"><ele>107.0</ele><time>2026-03-28T10:22:10Z</time></trkpt><trkpt lat="45.4085996420812" lon="10.635371689613482"><ele>108.0</ele><time>2026-03-28T10:22:11Z</time></trkpt><trkpt lat="45.408474528429984" lon="10.635211501730788"><ele>109.0</ele><time>2026-03-28T10:22:12Z</time></trkpt><trkpt lat="45.40832989119644" lon="10.635078709010386"><ele>110.0</ele><time>2026-03-28T10:22:13Z</time></trkpt><trkpt lat="45.408203039318934" lon="10.634912837243336"><ele>110.0</ele><time>2026-03-28T10:22:14Z</time></trkpt><trkpt lat="45.40806129777831" lon="10.634764415990528"><ele>110.0</ele><time>2026-03-28T10:22:15Z</time></trkpt><trkpt lat="45.4079247122745" lon="10.634625105753667"><ele>110.0</ele><time>2026-03-28T10:22:16Z</time></trkpt><trkpt lat="45.40781090835315" lon="10.634509002307892"><ele>109.99999999999999</ele><time>2026-03-28T10:22:17Z</time></trkpt><trkpt lat="45.40772704410387" lon="10.634417890014525"><ele>110.0</ele><time>2026-03-28T10:22:18Z</time></trkpt><trkpt lat="45.40768440882365" lon="10.634349684912165"><ele>110.0</ele><time>2026-03-28T10:22:19Z</time></trkpt><trkpt lat="45.40766149023346" lon="10.634253155184298"><ele>110.0</ele><time>2026-03-28T10:22:21Z</time></trkpt><trkpt lat="45.40769945939162" lon="10.634126873440941"><ele>109.99999999999999</ele><time>2026-03-28T10:22:23Z</time></trkpt><trkpt lat="45.40771290352459" lon="10.634022767085957"><ele>110.0</ele><time>2026-03-28T10:22:25Z</time></trkpt><trkpt lat="45.40761461459845" lon="10.633925898792667"><ele>109.99999999999999</ele><time>2026-03-28T10:22:27Z</time></trkpt><trkpt lat="45.40753975776642" lon="10.633955232149887"><ele>110.0</ele><time>2026-03-28T10:22:28Z</time></trkpt><trkpt lat="45.40748393091901" lon="10.633999851809717"><ele>110.0</ele><time>2026-03-28T10:22:29Z</time></trkpt><trkpt lat="45.40742695648697" lon="10.634125650408995"><ele>110.0</ele><time>2026-03-28T10:22:31Z</time></trkpt><trkpt lat="45.407429224314534" lon="10.63423003588868"><ele>109.99999999999999</ele><time>2026-03-28T10:22:33Z</time></trkpt><trkpt lat="45.40747741253508" lon="10.63430159298625"><ele>110.0</ele><time>2026-03-28T10:22:36Z</time></trkpt><trkpt lat="45.407555988868495" lon="10.634280847724568"><ele>110.0</ele><time>2026-03-28T10:24:32Z</time></trkpt><trkpt lat="45.40766698710168" lon="10.634260912372167"><ele>110.0</ele><time>2026-03-28T10:24:34Z</time></trkpt><trkpt lat="45.407741884105" lon="10.63417349074424"><ele>110.0</ele><time>2026-03-28T10:24:36Z</time></trkpt><trkpt lat="45.40784126395989" lon="10.63406430435572"><ele>110.0</ele><time>2026-03-28T10:24:38Z</time></trkpt><trkpt lat="45.407923555800174" lon="10.634029635955102"><ele>110.0</ele><time>2026-03-28T10:24:39Z</time></trkpt><trkpt lat="45.40799098461976" lon="10.634010907272387"><ele>110.16666666666666</ele><time>2026-03-28T10:24:40Z</time></trkpt><trkpt lat="45.4080527647181" lon="10.633969517561491"><ele>110.33333333333333</ele><time>2026-03-28T10:24:41Z</time></trkpt><trkpt lat="45.408115713445724" lon="10.633940584466568"><ele>110.5</ele><time>2026-03-28T10:24:42Z</time></trkpt><trkpt lat="45.40819665799553" lon="10.633906174632328"><ele>110.66666666666666</ele><time>2026-03-28T10:24:43Z</time></trkpt><trkpt lat="45.408280731375854" lon="10.633864530360901"><ele>110.83333333333333</ele><time>2026-03-28T10:24:44Z</time></trkpt><trkpt lat="45.40836460703721" lon="10.633818448838301"><ele>111.0</ele><time>2026-03-28T10:24:45Z</time></trkpt><trkpt lat="45.408440436488895" lon="10.633770431518498"><ele>111.0</ele><time>2026-03-28T10:24:46Z</time></trkpt><trkpt lat="45.40851426041702" lon="10.633724483323133"><ele>111.0</ele><time>2026-03-28T10:24:47Z</time></trkpt><trkpt lat="45.4085928592477" lon="10.633682809498161"><ele>111.0</ele><time>2026-03-28T10:24:48Z</time></trkpt><trkpt lat="45.40867680484719" lon="10.633623495914872"><ele>111.0</ele><time>2026-03-28T10:24:49Z</time></trkpt><trkpt lat="45.40875566330684" lon="10.633553092218252"><ele>111.0</ele><time>2026-03-28T10:24:50Z</time></trkpt><trkpt lat="45.408832454448216" lon="10.633474128790798"><ele>111.0</ele><time>2026-03-28T10:24:51Z</time></trkpt><trkpt lat="45.40891323666118" lon="10.63339222849967"><ele>111.6</ele><time>2026-03-28T10:24:52Z</time></trkpt><trkpt lat="45.40899270473791" lon="10.63332241697466"><ele>112.19999999999999</ele><time>2026-03-28T10:24:53Z</time></trkpt><trkpt lat="45.409085822405245" lon="10.633239018488204"><ele>112.80000000000001</ele><time>2026-03-28T10:24:54Z</time></trkpt><trkpt lat="45.40916796269278" lon="10.633156897046492"><ele>113.4</ele><time>2026-03-28T10:24:55Z</time></trkpt><trkpt lat="45.40925067144126" lon="10.633078328352553"><ele>114.0</ele><time>2026-03-28T10:24:56Z</time></trkpt><trkpt lat="45.409317174386814" lon="10.633016792573962"><ele>114.0</ele><time>2026-03-28T10:24:57Z</time></trkpt><trkpt lat="45.409379612794" lon="10.632956367284818"><ele>114.0</ele><time>2026-03-28T10:25:00Z</time></trkpt><trkpt lat="45.409446520017035" lon="10.632908955204764"><ele>114.0</ele><time>2026-03-28T10:25:02Z</time></trkpt><trkpt lat="45.409503028481375" lon="10.632850781771163"><ele>114.0</ele><time>2026-03-28T10:25:05Z</time></trkpt><trkpt lat="45.409424576097514" lon="10.632661890921657"><ele>114.0</ele><time>2026-03-28T10:28:21Z</time></trkpt><trkpt lat="45.40943956081068" lon="10.632565971570003"><ele>114.0</ele><time>2026-03-28T10:39:18Z</time></trkpt><trkpt lat="45.40950136150248" lon="10.632615082042019"><ele>113.0</ele><time>2026-03-28T10:42:03Z</time></trkpt><trkpt lat="45.409528740865035" lon="10.632532195681943"><ele>112.0</ele><time>2026-03-28T10:42:26Z</time></trkpt><trkpt lat="45.40944082123936" lon="10.632639196654425"><ele>111.0</ele><time>2026-03-28T10:43:06Z</time></trkpt><trkpt lat="45.409444051301875" lon="10.632782466160965"><ele>110.0</ele><time>2026-03-28T10:43:22Z</time></trkpt><trkpt lat="45.409368732687184" lon="10.63259779371628"><ele>109.0</ele><time>2026-03-28T10:43:25Z</time></trkpt><trkpt lat="45.40939462161887" lon="10.632496224026209"><ele>109.0</ele><time>2026-03-28T10:43:27Z</time></trkpt><trkpt lat="45.40946951498107" lon="10.632527364143478"><ele>109.0</ele><time>2026-03-28T10:44:41Z</time></trkpt><trkpt lat="45.40949219408813" lon="10.632617383254006"><ele>109.0</ele><time>2026-03-28T10:44:48Z</time></trkpt></trkseg><trkseg><trkpt lat="45.32979390558511" lon="10.655371699029963"><ele>102.0</ele><time>2026-03-28T11:24:41Z</time></trkpt><trkpt lat="45.329732118819706" lon="10.655479818069303"><ele>102.0</ele><time>2026-03-28T11:24:45Z</time></trkpt><trkpt lat="45.329660507149484" lon="10.655554657072855"><ele>102.0</ele><time>2026-03-28T11:24:46Z</time></trkpt><trkpt lat="45.32957190757354" lon="10.655640756727333"><ele>102.0</ele><time>2026-03-28T11:24:47Z</time></trkpt><trkpt lat="45.329461943717455" lon="10.655762324328533"><ele>102.0</ele><time>2026-03-28T11:24:48Z</time></trkpt><trkpt lat="45.32935711588512" lon="10.655880741865966"><ele>102.0</ele><time>2026-03-28T11:24:49Z</time></trkpt><trkpt lat="45.32924267195623" lon="10.656013054852295"><ele>102.0</ele><time>2026-03-28T11:24:50Z</time></trkpt><trkpt lat="45.32911714131265" lon="10.656153481024857"><ele>102.0</ele><time>2026-03-28T11:24:51Z</time></trkpt><trkpt lat="45.328974863015695" lon="10.656285341248019"><ele>103.66666666666666</ele><time>2026-03-28T11:24:52Z</time></trkpt><trkpt lat="45.32883146696611" lon="10.65639769397049"><ele>105.33333333333333</ele><time>2026-03-28T11:24:53Z</time></trkpt><trkpt lat="45.328670597951444" lon="10.656502912090234"><ele>107.0</ele><time>2026-03-28T11:24:54Z</time></trkpt><trkpt lat="45.32849179249545" lon="10.656594692961942"><ele>107.0</ele><time>2026-03-28T11:24:55Z</time></trkpt><trkpt lat="45.32831148080955" lon="10.656676690506783"><ele>107.0</ele><time>2026-03-28T11:24:56Z</time></trkpt><trkpt lat="45.32814119478653" lon="10.656762279049378"><ele>107.0</ele><time>2026-03-28T11:24:57Z</time></trkpt><trkpt lat="45.32798161429882" lon="10.656874786187501"><ele>106.66666666666666</ele><time>2026-03-28T11:24:58Z</time></trkpt><trkpt lat="45.32783181659099" lon="10.657014529172688"><ele>106.33333333333334</ele><time>2026-03-28T11:24:59Z</time></trkpt><trkpt lat="45.32767775840265" lon="10.65715722383264"><ele>106.0</ele><time>2026-03-28T11:25:00Z</time></trkpt><trkpt lat="45.32754496233243" lon="10.657277275431648"><ele>106.0</ele><time>2026-03-28T11:25:01Z</time></trkpt><trkpt lat="45.32741550479751" lon="10.657391830582805"><ele>106.0</ele><time>2026-03-28T11:25:02Z</time></trkpt><trkpt lat="45.32727486970372" lon="10.657508528996102"><ele>106.0</ele><time>2026-03-28T11:25:03Z</time></trkpt><trkpt lat="45.327127036127536" lon="10.657632851189675"><ele>105.75</ele><time>2026-03-28T11:25:04Z</time></trkpt><trkpt lat="45.32699294592144" lon="10.657748991992305"><ele>105.5</ele><time>2026-03-28T11:25:05Z</time></trkpt><trkpt lat="45.326875307116964" lon="10.657838041327478"><ele>105.25</ele><time>2026-03-28T11:25:06Z</time></trkpt><trkpt lat="45.326790293423144" lon="10.657914297369881"><ele>105.0</ele><time>2026-03-28T11:25:07Z</time></trkpt><trkpt lat="45.32670766135662" lon="10.657979803764208"><ele>104.2</ele><time>2026-03-28T11:25:08Z</time></trkpt><trkpt lat="45.32663986027903" lon="10.658042131261325"><ele>103.4</ele><time>2026-03-28T11:25:09Z</time></trkpt><trkpt lat="45.326632066639284" lon="10.658220416538555"><ele>102.6</ele><time>2026-03-28T11:25:11Z</time></trkpt><trkpt lat="45.326683757263915" lon="10.658315271873018"><ele>101.8</ele><time>2026-03-28T11:25:12Z</time></trkpt><trkpt lat="45.32674104352178" lon="10.658426508881695"><ele>101.0</ele><time>2026-03-28T11:25:13Z</time></trkpt><trkpt lat="45.3267754662041" lon="10.65859760702219"><ele>100.0</ele><time>2026-03-28T11:25:14Z</time></trkpt><trkpt lat="45.326779976066966" lon="10.658799167790239"><ele>99.0</ele><time>2026-03-28T11:25:15Z</time></trkpt><trkpt lat="45.32677573491943" lon="10.659011935899445"><ele>98.0</ele><time>2026-03-28T11:25:16Z</time></trkpt><trkpt lat="45.32675528174363" lon="10.659221530760131"><ele>97.0</ele><time>2026-03-28T11:25:17Z</time></trkpt><trkpt lat="45.326714113005785" lon="10.659420099149006"><ele>96.66666666666667</ele><time>2026-03-28T11:25:18Z</time></trkpt><trkpt lat="45.32667676113118" lon="10.659591629041968"><ele>96.33333333333334</ele><time>2026-03-28T11:25:19Z</time></trkpt><trkpt lat="45.326643520317546" lon="10.65970460116307"><ele>96.0</ele><time>2026-03-28T11:25:20Z</time></trkpt><trkpt lat="45.326602052479" lon="10.659792468136356"><ele>95.66666666666667</ele><time>2026-03-28T11:25:21Z</time></trkpt><trkpt lat="45.32657203263714" lon="10.659877514638888"><ele>95.33333333333334</ele><time>2026-03-28T11:25:22Z</time></trkpt><trkpt lat="45.326589819041594" lon="10.659975330282448"><ele>95.0</ele><time>2026-03-28T11:25:23Z</time></trkpt><trkpt lat="45.32664630344564" lon="10.660100284719995"><ele>95.0</ele><time>2026-03-28T11:25:24Z</time></trkpt><trkpt lat="45.32669411668758" lon="10.660277686187499"><ele>95.0</ele><time>2026-03-28T11:25:25Z</time></trkpt><trkpt lat="45.3267239641394" lon="10.660506803752048"><ele>95.0</ele><time>2026-03-28T11:25:26Z</time></trkpt><trkpt lat="45.326749396987765" lon="10.660748682372546"><ele>94.0</ele><time>2026-03-28T11:25:27Z</time></trkpt><trkpt lat="45.32678439144822" lon="10.66098872524241"><ele>93.0</ele><time>2026-03-28T11:25:28Z</time></trkpt><trkpt lat="45.3268177165519" lon="10.661237008084067"><ele>92.0</ele><time>2026-03-28T11:25:29Z</time></trkpt><trkpt lat="45.32682985225193" lon="10.661473624165271"><ele>91.25</ele><time>2026-03-28T11:25:30Z</time></trkpt><trkpt lat="45.326825443936826" lon="10.661702993516377"><ele>90.5</ele><time>2026-03-28T11:25:31Z</time></trkpt><trkpt lat="45.32681291851982" lon="10.661916078504985"><ele>89.75</ele><time>2026-03-28T11:25:32Z</time></trkpt><trkpt lat="45.326800636715014" lon="10.66208462125482"><ele>89.0</ele><time>2026-03-28T11:25:33Z</time></trkpt><trkpt lat="45.32678425468728" lon="10.66220962481444"><ele>89.0</ele><time>2026-03-28T11:25:34Z</time></trkpt><trkpt lat="45.32676814708614" lon="10.662341062138818"><ele>89.0</ele><time>2026-03-28T11:25:35Z</time></trkpt><trkpt lat="45.32674119450395" lon="10.66247360456471"><ele>89.0</ele><time>2026-03-28T11:25:36Z</time></trkpt><trkpt lat="45.32672613265715" lon="10.662601148622448"><ele>89.0</ele><time>2026-03-28T11:25:37Z</time></trkpt><trkpt lat="45.32666729353091" lon="10.662693917812282"><ele>89.0</ele><time>2026-03-28T11:25:38Z</time></trkpt><trkpt lat="45.3267534809946" lon="10.662836471890943"><ele>89.0</ele><time>2026-03-28T11:25:40Z</time></trkpt><trkpt lat="45.3268561804705" lon="10.662899728252482"><ele>89.0</ele><time>2026-03-28T11:25:41Z</time></trkpt><trkpt lat="45.326976466979836" lon="10.662989597740474"><ele>89.0</ele><time>2026-03-28T11:25:42Z</time></trkpt><trkpt lat="45.327116165071814" lon="10.663109871591665"><ele>89.0</ele><time>2026-03-28T11:25:43Z</time></trkpt><trkpt lat="45.32726217258931" lon="10.663230452214133"><ele>89.0</ele><time>2026-03-28T11:25:44Z</time></trkpt><trkpt lat="45.327417903357194" lon="10.663354024922748"><ele>89.0</ele><time>2026-03-28T11:25:45Z</time></trkpt><trkpt lat="45.32758724510718" lon="10.663490997307116"><ele>89.0</ele><time>2026-03-28T11:25:46Z</time></trkpt><trkpt lat="45.32777019931632" lon="10.663643398530068"><ele>88.33333333333334</ele><time>2026-03-28T11:25:47Z</time></trkpt><trkpt lat="45.327946667954336" lon="10.6637895983336"><ele>87.66666666666667</ele><time>2026-03-28T11:25:48Z</time></trkpt><trkpt lat="45.32812367009796" lon="10.663924740121535"><ele>87.0</ele><time>2026-03-28T11:25:49Z</time></trkpt><trkpt lat="45.32830369676457" lon="10.664047419941609"><ele>86.66666666666667</ele><time>2026-03-28T11:25:50Z</time></trkpt><trkpt lat="45.32849440496182" lon="10.664159467274025"><ele>86.33333333333334</ele><time>2026-03-28T11:25:51Z</time></trkpt><trkpt lat="45.32869654443392" lon="10.664262065295231"><ele>86.0</ele><time>2026-03-28T11:25:52Z</time></trkpt><trkpt lat="45.328902678585436" lon="10.664362235061965"><ele>87.33333333333334</ele><time>2026-03-28T11:25:53Z</time></trkpt><trkpt lat="45.329093077278316" lon="10.664462644928161"><ele>88.66666666666667</ele><time>2026-03-28T11:25:54Z</time></trkpt><trkpt lat="45.32925529819858" lon="10.664571650409927"><ele>90.0</ele><time>2026-03-28T11:25:55Z</time></trkpt><trkpt lat="45.329397238760826" lon="10.664713325235043"><ele>90.0</ele><time>2026-03-28T11:25:56Z</time></trkpt><trkpt lat="45.329527701570754" lon="10.664911279990507"><ele>90.0</ele><time>2026-03-28T11:25:57Z</time></trkpt><trkpt lat="45.32965668935346" lon="10.665151803275094"><ele>90.0</ele><time>2026-03-28T11:25:58Z</time></trkpt><trkpt lat="45.32978830174096" lon="10.665395789043966"><ele>90.33333333333333</ele><time>2026-03-28T11:25:59Z</time></trkpt><trkpt lat="45.32991945114633" lon="10.665622978595797"><ele>90.66666666666666</ele><time>2026-03-28T11:26:00Z</time></trkpt><trkpt lat="45.33004732935729" lon="10.665842279336486"><ele>91.0</ele><time>2026-03-28T11:26:01Z</time></trkpt><trkpt lat="45.33016583908663" lon="10.66608695796973"><ele>90.0</ele><time>2026-03-28T11:26:02Z</time></trkpt><trkpt lat="45.33027775817497" lon="10.666359167701062"><ele>89.0</ele><time>2026-03-28T11:26:03Z</time></trkpt><trkpt lat="45.33038490632748" lon="10.666651345548622"><ele>90.0</ele><time>2026-03-28T11:26:04Z</time></trkpt><trkpt lat="45.330490079643866" lon="10.666957014735337"><ele>91.0</ele><time>2026-03-28T11:26:05Z</time></trkpt><trkpt lat="45.33059531068927" lon="10.667264007076263"><ele>91.0</ele><time>2026-03-28T11:26:06Z</time></trkpt><trkpt lat="45.33070062477044" lon="10.667565419492348"><ele>91.0</ele><time>2026-03-28T11:26:07Z</time></trkpt><trkpt lat="45.33079731472641" lon="10.667843470662183"><ele>91.33333333333333</ele><time>2026-03-28T11:26:08Z</time></trkpt><trkpt lat="45.33088562878654" lon="10.66810475090492"><ele>91.66666666666667</ele><time>2026-03-28T11:26:09Z</time></trkpt><trkpt lat="45.3309668867116" lon="10.66834152582778"><ele>92.0</ele><time>2026-03-28T11:26:10Z</time></trkpt><trkpt lat="45.331051889486574" lon="10.668548881498564"><ele>92.33333333333334</ele><time>2026-03-28T11:26:11Z</time></trkpt><trkpt lat="45.33113651595768" lon="10.668731845657376"><ele>92.66666666666667</ele><time>2026-03-28T11:26:12Z</time></trkpt><trkpt lat="45.33123270752751" lon="10.668917848860234"><ele>93.0</ele><time>2026-03-28T11:26:13Z</time></trkpt><trkpt lat="45.331348731894245" lon="10.669089327456303"><ele>92.0</ele><time>2026-03-28T11:26:14Z</time></trkpt><trkpt lat="45.33148621929762" lon="10.669241162420187"><ele>91.0</ele><time>2026-03-28T11:26:15Z</time></trkpt><trkpt lat="45.331645236927805" lon="10.669376663087997"><ele>90.0</ele><time>2026-03-28T11:26:16Z</time></trkpt><trkpt lat="45.33181757557289" lon="10.6694931103872"><ele>89.66666666666667</ele><time>2026-03-28T11:26:17Z</time></trkpt><trkpt lat="45.33200702691117" lon="10.669597273448712"><ele>89.33333333333334</ele><time>2026-03-28T11:26:18Z</time></trkpt><trkpt lat="45.332203796662434" lon="10.66969403277451"><ele>89.0</ele><time>2026-03-28T11:26:19Z</time></trkpt><trkpt lat="45.332407207796784" lon="10.66979341864401"><ele>88.33333333333334</ele><time>2026-03-28T11:26:20Z</time></trkpt><trkpt lat="45.332604522211334" lon="10.669891041480845"><ele>87.66666666666667</ele><time>2026-03-28T11:26:21Z</time></trkpt><trkpt lat="45.33278319510647" lon="10.669975797413452"><ele>87.0</ele><time>2026-03-28T11:26:22Z</time></trkpt><trkpt lat="45.332951050277" lon="10.670055732354228"><ele>87.0</ele><time>2026-03-28T11:26:23Z</time></trkpt><trkpt lat="45.333113744566944" lon="10.670140931586552"><ele>87.0</ele><time>2026-03-28T11:26:24Z</time></trkpt><trkpt lat="45.33327612889833" lon="10.67024371031076"><ele>87.0</ele><time>2026-03-28T11:26:25Z</time></trkpt><trkpt lat="45.333438617392346" lon="10.670370440409455"><ele>86.33333333333333</ele><time>2026-03-28T11:26:26Z</time></trkpt><trkpt lat="45.333589409974294" lon="10.670513781783411"><ele>85.66666666666666</ele><time>2026-03-28T11:26:27Z</time></trkpt><trkpt lat="45.33371886767699" lon="10.670658082436345"><ele>85.0</ele><time>2026-03-28T11:26:28Z</time></trkpt><trkpt lat="45.333829189259895" lon="10.670787003601237"><ele>84.6</ele><time>2026-03-28T11:26:29Z</time></trkpt><trkpt lat="45.333910048260826" lon="10.670884878702608"><ele>84.2</ele><time>2026-03-28T11:26:30Z</time></trkpt><trkpt lat="45.333959600549406" lon="10.670955541510333"><ele>83.80000000000001</ele><time>2026-03-28T11:26:31Z</time></trkpt><trkpt lat="45.33385047896413" lon="10.671132058352494"><ele>83.4</ele><time>2026-03-28T11:26:37Z</time></trkpt><trkpt lat="45.33379299842589" lon="10.671247944923255"><ele>83.0</ele><time>2026-03-28T11:26:38Z</time></trkpt><trkpt lat="45.33374657545218" lon="10.671374438625293"><ele>83.0</ele><time>2026-03-28T11:26:39Z</time></trkpt><trkpt lat="45.3336940630737" lon="10.67149924645054"><ele>83.0</ele><time>2026-03-28T11:26:40Z</time></trkpt><trkpt lat="45.3336469798087" lon="10.671606425313929"><ele>83.0</ele><time>2026-03-28T11:26:41Z</time></trkpt><trkpt lat="45.33359632782306" lon="10.671722357623123"><ele>83.0</ele><time>2026-03-28T11:26:42Z</time></trkpt><trkpt lat="45.33353406475102" lon="10.671844069817979"><ele>83.0</ele><time>2026-03-28T11:26:43Z</time></trkpt><trkpt lat="45.33346737002106" lon="10.671968340167822"><ele>82.5</ele><time>2026-03-28T11:26:44Z</time></trkpt><trkpt lat="45.33339709189318" lon="10.67208165254132"><ele>82.0</ele><time>2026-03-28T11:26:45Z</time></trkpt><trkpt lat="45.33334076794078" lon="10.67217791763222"><ele>81.5</ele><time>2026-03-28T11:26:46Z</time></trkpt><trkpt lat="45.3332900133752" lon="10.672273387106506"><ele>81.0</ele><time>2026-03-28T11:26:47Z</time></trkpt><trkpt lat="45.333245364753694" lon="10.672379191367964"><ele>80.5</ele><time>2026-03-28T11:26:48Z</time></trkpt><trkpt lat="45.33322327927113" lon="10.672474184509234"><ele>80.0</ele><time>2026-03-28T11:26:49Z</time></trkpt><trkpt lat="45.333216284007655" lon="10.672596093464922"><ele>80.0</ele><time>2026-03-28T11:26:50Z</time></trkpt><trkpt lat="45.33322519372636" lon="10.672735834793754"><ele>80.0</ele><time>2026-03-28T11:26:51Z</time></trkpt><trkpt lat="45.33324100198085" lon="10.672859971118264"><ele>80.0</ele><time>2026-03-28T11:26:52Z</time></trkpt><trkpt lat="45.33324122387639" lon="10.672972752159117"><ele>80.0</ele><time>2026-03-28T11:26:53Z</time></trkpt><trkpt lat="45.33323129964476" lon="10.67310952800771"><ele>80.0</ele><time>2026-03-28T11:26:55Z</time></trkpt><trkpt lat="45.33331244045693" lon="10.673248641836983"><ele>80.0</ele><time>2026-03-28T11:26:58Z</time></trkpt><trkpt lat="45.333358048614464" lon="10.673369263909477"><ele>80.0</ele><time>2026-03-28T11:26:59Z</time></trkpt><trkpt lat="45.33340448841303" lon="10.673526171717498"><ele>80.0</ele><time>2026-03-28T11:27:00Z</time></trkpt><trkpt lat="45.333445649910836" lon="10.673677747839355"><ele>80.0</ele><time>2026-03-28T11:27:01Z</time></trkpt><trkpt lat="45.33348143017079" lon="10.673804279043875"><ele>80.0</ele><time>2026-03-28T11:27:02Z</time></trkpt><trkpt lat="45.333512535149026" lon="10.673902100976754"><ele>80.4</ele><time>2026-03-28T11:27:03Z</time></trkpt><trkpt lat="45.333518823771385" lon="10.674004191741753"><ele>80.8</ele><time>2026-03-28T11:27:05Z</time></trkpt><trkpt lat="45.33347975225849" lon="10.674097980053283"><ele>81.19999999999999</ele><time>2026-03-28T11:27:06Z</time></trkpt><trkpt lat="45.3334046990963" lon="10.674262091276727"><ele>81.6</ele><time>2026-03-28T11:27:07Z</time></trkpt><trkpt lat="45.333345219034925" lon="10.67443332729504"><ele>82.0</ele><time>2026-03-28T11:27:08Z</time></trkpt><trkpt lat="45.33336006080754" lon="10.674593549523133"><ele>82.0</ele><time>2026-03-28T11:27:09Z</time></trkpt><trkpt lat="45.333346922513144" lon="10.674707539487368"><ele>82.0</ele><time>2026-03-28T11:27:10Z</time></trkpt><trkpt lat="45.33339646876692" lon="10.67485957049142"><ele>82.0</ele><time>2026-03-28T11:27:11Z</time></trkpt><trkpt lat="45.333465414409396" lon="10.675018144179985"><ele>82.0</ele><time>2026-03-28T11:27:12Z</time></trkpt><trkpt lat="45.33353374834137" lon="10.675171804123773"><ele>82.0</ele><time>2026-03-28T11:27:13Z</time></trkpt><trkpt lat="45.33358751838302" lon="10.675292774005001"><ele>82.0</ele><time>2026-03-28T11:27:14Z</time></trkpt><trkpt lat="45.33363204468559" lon="10.675388572083582"><ele>82.0</ele><time>2026-03-28T11:27:15Z</time></trkpt><trkpt lat="45.333676476691394" lon="10.675459881510736"><ele>82.0</ele><time>2026-03-28T11:27:16Z</time></trkpt><trkpt lat="45.333746425474004" lon="10.675516057749352"><ele>82.0</ele><time>2026-03-28T11:27:17Z</time></trkpt><trkpt lat="45.333828184040804" lon="10.675556133164294"><ele>82.0</ele><time>2026-03-28T11:27:18Z</time></trkpt><trkpt lat="45.33389483807619" lon="10.675644194680373"><ele>82.0</ele><time>2026-03-28T11:27:20Z</time></trkpt><trkpt lat="45.33390850917358" lon="10.675740132892322"><ele>82.0</ele><time>2026-03-28T11:27:21Z</time></trkpt><trkpt lat="45.33387220243296" lon="10.675927577298113"><ele>82.0</ele><time>2026-03-28T11:27:22Z</time></trkpt><trkpt lat="45.33385774663664" lon="10.676097777668582"><ele>82.0</ele><time>2026-03-28T11:27:23Z</time></trkpt><trkpt lat="45.33385554882296" lon="10.676256164127942"><ele>82.0</ele><time>2026-03-28T11:27:24Z</time></trkpt><trkpt lat="45.3338743251742" lon="10.676424884050858"><ele>81.5</ele><time>2026-03-28T11:27:25Z</time></trkpt><trkpt lat="45.333855501785415" lon="10.676611499622854"><ele>81.0</ele><time>2026-03-28T11:27:26Z</time></trkpt><trkpt lat="45.33384970298973" lon="10.676799257944362"><ele>80.5</ele><time>2026-03-28T11:27:27Z</time></trkpt><trkpt lat="45.33394769520974" lon="10.67699090926753"><ele>80.0</ele><time>2026-03-28T11:27:28Z</time></trkpt><trkpt lat="45.33397188240033" lon="10.677174165704782"><ele>81.6</ele><time>2026-03-28T11:27:29Z</time></trkpt><trkpt lat="45.333995543425864" lon="10.677325402555125"><ele>83.2</ele><time>2026-03-28T11:27:30Z</time></trkpt><trkpt lat="45.33402999228734" lon="10.677467028629954"><ele>84.80000000000001</ele><time>2026-03-28T11:27:31Z</time></trkpt><trkpt lat="45.33407081217756" lon="10.677600450822746"><ele>86.4</ele><time>2026-03-28T11:27:32Z</time></trkpt><trkpt lat="45.33412083674838" lon="10.677717556377639"><ele>88.0</ele><time>2026-03-28T11:27:33Z</time></trkpt><trkpt lat="45.33416839345379" lon="10.67784663280314"><ele>88.33333333333333</ele><time>2026-03-28T11:27:34Z</time></trkpt><trkpt lat="45.334211529578404" lon="10.677941506183329"><ele>88.66666666666666</ele><time>2026-03-28T11:27:35Z</time></trkpt><trkpt lat="45.334240241579074" lon="10.678043880851197"><ele>89.0</ele><time>2026-03-28T11:27:36Z</time></trkpt><trkpt lat="45.33427191981402" lon="10.678159134283554"><ele>89.33333333333333</ele><time>2026-03-28T11:27:37Z</time></trkpt><trkpt lat="45.33430111521639" lon="10.678270677551106"><ele>89.66666666666667</ele><time>2026-03-28T11:27:38Z</time></trkpt><trkpt lat="45.33436620244521" lon="10.67841634052068"><ele>90.0</ele><time>2026-03-28T11:27:40Z</time></trkpt><trkpt lat="45.33441321686678" lon="10.678495140710897"><ele>90.0</ele><time>2026-03-28T11:27:41Z</time></trkpt><trkpt lat="45.334474265996846" lon="10.678561692237542"><ele>90.0</ele><time>2026-03-28T11:27:42Z</time></trkpt><trkpt lat="45.334548925570076" lon="10.678631636693463"><ele>90.0</ele><time>2026-03-28T11:27:43Z</time></trkpt><trkpt lat="45.334610393389234" lon="10.678681110768151"><ele>90.0</ele><time>2026-03-28T11:27:44Z</time></trkpt><trkpt lat="45.3347127922933" lon="10.678682820705578"><ele>90.0</ele><time>2026-03-28T11:27:46Z</time></trkpt><trkpt lat="45.334779567838666" lon="10.678659559507155"><ele>90.0</ele><time>2026-03-28T11:27:47Z</time></trkpt><trkpt lat="45.33485577644057" lon="10.678620107003542"><ele>90.5</ele><time>2026-03-28T11:27:48Z</time></trkpt><trkpt lat="45.33494347663417" lon="10.67855569704124"><ele>91.0</ele><time>2026-03-28T11:27:49Z</time></trkpt><trkpt lat="45.33502165198344" lon="10.678480690651757"><ele>91.5</ele><time>2026-03-28T11:27:50Z</time></trkpt><trkpt lat="45.33508580272621" lon="10.678413596644852"><ele>92.0</ele><time>2026-03-28T11:27:51Z</time></trkpt><trkpt lat="45.33515211439896" lon="10.678378121623883"><ele>92.5</ele><time>2026-03-28T11:27:52Z</time></trkpt><trkpt lat="45.3352207836448" lon="10.678348686055974"><ele>93.0</ele><time>2026-03-28T11:27:53Z</time></trkpt><trkpt lat="45.33532577055774" lon="10.678362846096597"><ele>93.0</ele><time>2026-03-28T11:27:55Z</time></trkpt><trkpt lat="45.335380791175545" lon="10.678419206645955"><ele>93.0</ele><time>2026-03-28T11:27:56Z</time></trkpt><trkpt lat="45.335450476464516" lon="10.678509913554336"><ele>93.0</ele><time>2026-03-28T11:27:57Z</time></trkpt><trkpt lat="45.335520549885864" lon="10.67864462006077"><ele>93.0</ele><time>2026-03-28T11:27:58Z</time></trkpt><trkpt lat="45.335616881911356" lon="10.678798446937266"><ele>93.0</ele><time>2026-03-28T11:27:59Z</time></trkpt><trkpt lat="45.3357029323615" lon="10.678936406948928"><ele>91.0</ele><time>2026-03-28T11:28:00Z</time></trkpt><trkpt lat="45.33579432995895" lon="10.67908667997379"><ele>89.0</ele><time>2026-03-28T11:28:01Z</time></trkpt><trkpt lat="45.33588021567918" lon="10.679227445929026"><ele>87.0</ele><time>2026-03-28T11:28:02Z</time></trkpt><trkpt lat="45.335961577327225" lon="10.679366047790069"><ele>85.0</ele><time>2026-03-28T11:28:03Z</time></trkpt><trkpt lat="45.33606137781679" lon="10.679517804311159"><ele>85.0</ele><time>2026-03-28T11:28:04Z</time></trkpt><trkpt lat="45.336153161221674" lon="10.679655942695812"><ele>85.0</ele><time>2026-03-28T11:28:05Z</time></trkpt><trkpt lat="45.336234815571494" lon="10.679782753058007"><ele>85.0</ele><time>2026-03-28T11:28:06Z</time></trkpt><trkpt lat="45.33632432526477" lon="10.67992356711787"><ele>85.0</ele><time>2026-03-28T11:28:07Z</time></trkpt><trkpt lat="45.33640946827975" lon="10.680053833137801"><ele>85.0</ele><time>2026-03-28T11:28:08Z</time></trkpt><trkpt lat="45.33647664729484" lon="10.680155249463612"><ele>85.0</ele><time>2026-03-28T11:28:09Z</time></trkpt><trkpt lat="45.336532534894985" lon="10.680250447496478"><ele>85.0</ele><time>2026-03-28T11:28:10Z</time></trkpt><trkpt lat="45.33658776599254" lon="10.680328994013964"><ele>85.0</ele><time>2026-03-28T11:28:11Z</time></trkpt><trkpt lat="45.33664523733984" lon="10.680423326104961"><ele>85.0</ele><time>2026-03-28T11:28:12Z</time></trkpt><trkpt lat="45.33670557850578" lon="10.680495009252324"><ele>85.0</ele><time>2026-03-28T11:28:14Z</time></trkpt><trkpt lat="45.336816952790954" lon="10.680389277190576"><ele>85.0</ele><time>2026-03-28T11:28:17Z</time></trkpt><trkpt lat="45.336910171312745" lon="10.680230233479758"><ele>85.0</ele><time>2026-03-28T11:28:18Z</time></trkpt><trkpt lat="45.337027225956106" lon="10.680060545616376"><ele>85.0</ele><time>2026-03-28T11:28:19Z</time></trkpt><trkpt lat="45.33718401119368" lon="10.679934763706353"><ele>86.0</ele><time>2026-03-28T11:28:20Z</time></trkpt><trkpt lat="45.337308649379096" lon="10.679767285924914"><ele>87.0</ele><time>2026-03-28T11:28:21Z</time></trkpt><trkpt lat="45.33741565381912" lon="10.67959320651059"><ele>88.0</ele><time>2026-03-28T11:28:22Z</time></trkpt><trkpt lat="45.3375401021883" lon="10.679426822586985"><ele>88.0</ele><time>2026-03-28T11:28:23Z</time></trkpt><trkpt lat="45.337695303939626" lon="10.679274343556063"><ele>88.0</ele><time>2026-03-28T11:28:24Z</time></trkpt><trkpt lat="45.337849388875235" lon="10.679121703633024"><ele>88.0</ele><time>2026-03-28T11:28:25Z</time></trkpt><trkpt lat="45.33800359063218" lon="10.678978731357777"><ele>88.0</ele><time>2026-03-28T11:28:26Z</time></trkpt><trkpt lat="45.338130016922676" lon="10.678839090048768"><ele>88.0</ele><time>2026-03-28T11:28:27Z</time></trkpt><trkpt lat="45.338260125613736" lon="10.678723705302307"><ele>88.0</ele><time>2026-03-28T11:28:28Z</time></trkpt><trkpt lat="45.33837336557394" lon="10.678617518905533"><ele>88.0</ele><time>2026-03-28T11:28:29Z</time></trkpt><trkpt lat="45.33845496556149" lon="10.678566448472916"><ele>88.0</ele><time>2026-03-28T11:28:30Z</time></trkpt><trkpt lat="45.33851156508832" lon="10.678509025521507"><ele>88.0</ele><time>2026-03-28T11:28:32Z</time></trkpt><trkpt lat="45.338620522491475" lon="10.678770003554673"><ele>88.0</ele><time>2026-03-28T11:28:35Z</time></trkpt><trkpt lat="45.33867717577858" lon="10.678929200157913"><ele>88.0</ele><time>2026-03-28T11:28:36Z</time></trkpt><trkpt lat="45.33873592185948" lon="10.679078519219706"><ele>88.0</ele><time>2026-03-28T11:28:37Z</time></trkpt><trkpt lat="45.338815274567196" lon="10.679252020666366"><ele>88.0</ele><time>2026-03-28T11:28:38Z</time></trkpt><trkpt lat="45.33888653398283" lon="10.67940658847919"><ele>88.0</ele><time>2026-03-28T11:28:39Z</time></trkpt><trkpt lat="45.33895077090522" lon="10.679542303318366"><ele>88.0</ele><time>2026-03-28T11:28:40Z</time></trkpt><trkpt lat="45.33901111928978" lon="10.67967577738855"><ele>88.5</ele><time>2026-03-28T11:28:41Z</time></trkpt><trkpt lat="45.33907372074015" lon="10.679826286750968"><ele>89.0</ele><time>2026-03-28T11:28:42Z</time></trkpt><trkpt lat="45.33912601339011" lon="10.679961585119644"><ele>89.5</ele><time>2026-03-28T11:28:43Z</time></trkpt><trkpt lat="45.3391921698181" lon="10.68013890734374"><ele>90.0</ele><time>2026-03-28T11:28:44Z</time></trkpt><trkpt lat="45.339254924684695" lon="10.680304974437423"><ele>90.0</ele><time>2026-03-28T11:28:45Z</time></trkpt><trkpt lat="45.339311149454076" lon="10.680442820545675"><ele>90.0</ele><time>2026-03-28T11:28:46Z</time></trkpt><trkpt lat="45.3393647354099" lon="10.68058007523637"><ele>90.0</ele><time>2026-03-28T11:28:47Z</time></trkpt><trkpt lat="45.33943804300085" lon="10.680748926325904"><ele>90.0</ele><time>2026-03-28T11:28:48Z</time></trkpt><trkpt lat="45.339516793947794" lon="10.680924330080282"><ele>90.25</ele><time>2026-03-28T11:28:49Z</time></trkpt><trkpt lat="45.339591131000844" lon="10.681102108780754"><ele>90.5</ele><time>2026-03-28T11:28:50Z</time></trkpt><trkpt lat="45.339658899700886" lon="10.681255517649165"><ele>90.75</ele><time>2026-03-28T11:28:51Z</time></trkpt><trkpt lat="45.339732803489376" lon="10.681430068894429"><ele>91.0</ele><time>2026-03-28T11:28:52Z</time></trkpt><trkpt lat="45.339801435698064" lon="10.681601278069378"><ele>91.0</ele><time>2026-03-28T11:28:53Z</time></trkpt><trkpt lat="45.33987308382413" lon="10.681735008782656"><ele>91.0</ele><time>2026-03-28T11:28:54Z</time></trkpt><trkpt lat="45.33993498689132" lon="10.681844173005615"><ele>91.0</ele><time>2026-03-28T11:28:55Z</time></trkpt><trkpt lat="45.33994573636" lon="10.68199194972211"><ele>91.0</ele><time>2026-03-28T11:28:56Z</time></trkpt><trkpt lat="45.33996024814165" lon="10.682162980197358"><ele>91.0</ele><time>2026-03-28T11:28:58Z</time></trkpt><trkpt lat="45.339955167007005" lon="10.682307275083467"><ele>91.0</ele><time>2026-03-28T11:28:59Z</time></trkpt><trkpt lat="45.33994509520928" lon="10.682450031075449"><ele>91.0</ele><time>2026-03-28T11:29:00Z</time></trkpt><trkpt lat="45.33994920437888" lon="10.682584974246497"><ele>91.0</ele><time>2026-03-28T11:29:01Z</time></trkpt><trkpt lat="45.33996257365658" lon="10.682686459133217"><ele>91.0</ele><time>2026-03-28T11:29:02Z</time></trkpt><trkpt lat="45.339988735968994" lon="10.682799645251329"><ele>91.0</ele><time>2026-03-28T11:29:03Z</time></trkpt><trkpt lat="45.34002831941192" lon="10.682933115016402"><ele>91.25</ele><time>2026-03-28T11:29:04Z</time></trkpt><trkpt lat="45.34008367648095" lon="10.683086625826228"><ele>91.5</ele><time>2026-03-28T11:29:05Z</time></trkpt><trkpt lat="45.340136372665235" lon="10.6832470654826"><ele>91.75</ele><time>2026-03-28T11:29:06Z</time></trkpt><trkpt lat="45.340189899185354" lon="10.683398434601113"><ele>92.0</ele><time>2026-03-28T11:29:07Z</time></trkpt><trkpt lat="45.34024472986017" lon="10.683563277112503"><ele>91.5</ele><time>2026-03-28T11:29:08Z</time></trkpt><trkpt lat="45.34030051175779" lon="10.683736942648775"><ele>91.0</ele><time>2026-03-28T11:29:09Z</time></trkpt><trkpt lat="45.34034649123641" lon="10.683894830944077"><ele>90.5</ele><time>2026-03-28T11:29:10Z</time></trkpt><trkpt lat="45.34038666773623" lon="10.684041047286884"><ele>90.0</ele><time>2026-03-28T11:29:11Z</time></trkpt><trkpt lat="45.34042031460837" lon="10.684156291318777"><ele>90.0</ele><time>2026-03-28T11:29:12Z</time></trkpt><trkpt lat="45.34045392792801" lon="10.684280861960687"><ele>90.0</ele><time>2026-03-28T11:29:13Z</time></trkpt><trkpt lat="45.34048718109255" lon="10.684430933788082"><ele>90.0</ele><time>2026-03-28T11:29:14Z</time></trkpt><trkpt lat="45.3405076436712" lon="10.684593084133848"><ele>90.0</ele><time>2026-03-28T11:29:15Z</time></trkpt><trkpt lat="45.34052739740964" lon="10.684776667252303"><ele>90.25</ele><time>2026-03-28T11:29:16Z</time></trkpt><trkpt lat="45.340549755490805" lon="10.684968543777368"><ele>90.5</ele><time>2026-03-28T11:29:17Z</time></trkpt><trkpt lat="45.3405769806623" lon="10.685141365408189"><ele>90.75</ele><time>2026-03-28T11:29:18Z</time></trkpt><trkpt lat="45.340608729192745" lon="10.685336224720182"><ele>91.0</ele><time>2026-03-28T11:29:19Z</time></trkpt><trkpt lat="45.34065050206255" lon="10.685523418982944"><ele>91.0</ele><time>2026-03-28T11:29:20Z</time></trkpt><trkpt lat="45.34067729116933" lon="10.685685604207046"><ele>91.0</ele><time>2026-03-28T11:29:21Z</time></trkpt><trkpt lat="45.34070348794254" lon="10.685836508606391"><ele>91.0</ele><time>2026-03-28T11:29:22Z</time></trkpt><trkpt lat="45.340731076651785" lon="10.685972510470208"><ele>91.0</ele><time>2026-03-28T11:29:23Z</time></trkpt><trkpt lat="45.34075944019215" lon="10.686101053965917"><ele>91.0</ele><time>2026-03-28T11:29:24Z</time></trkpt><trkpt lat="45.34078621361361" lon="10.686224925321099"><ele>90.75</ele><time>2026-03-28T11:29:25Z</time></trkpt><trkpt lat="45.34081800813161" lon="10.686377294419136"><ele>90.5</ele><time>2026-03-28T11:29:26Z</time></trkpt><trkpt lat="45.34085964069294" lon="10.686540815895828"><ele>90.25</ele><time>2026-03-28T11:29:27Z</time></trkpt><trkpt lat="45.34089424912783" lon="10.686695670542894"><ele>90.0</ele><time>2026-03-28T11:29:28Z</time></trkpt><trkpt lat="45.34092159203166" lon="10.68685280433526"><ele>90.2</ele><time>2026-03-28T11:29:29Z</time></trkpt><trkpt lat="45.34093352880881" lon="10.687003698086526"><ele>90.4</ele><time>2026-03-28T11:29:30Z</time></trkpt><trkpt lat="45.34093090193913" lon="10.687135487640372"><ele>90.6</ele><time>2026-03-28T11:29:31Z</time></trkpt><trkpt lat="45.340925419951404" lon="10.687266369269777"><ele>90.8</ele><time>2026-03-28T11:29:32Z</time></trkpt><trkpt lat="45.34093443772625" lon="10.687390859248442"><ele>91.0</ele><time>2026-03-28T11:29:33Z</time></trkpt><trkpt lat="45.34095456660944" lon="10.687520606307464"><ele>91.0</ele><time>2026-03-28T11:29:34Z</time></trkpt><trkpt lat="45.340988156862934" lon="10.687675316878153"><ele>91.0</ele><time>2026-03-28T11:29:35Z</time></trkpt><trkpt lat="45.34101732220464" lon="10.687817533171001"><ele>91.0</ele><time>2026-03-28T11:29:36Z</time></trkpt><trkpt lat="45.341047229181086" lon="10.68796059236484"><ele>91.0</ele><time>2026-03-28T11:29:38Z</time></trkpt><trkpt lat="45.34106692075702" lon="10.688047830696123"><ele>91.0</ele><time>2026-03-28T11:29:40Z</time></trkpt><trkpt lat="45.34108950657249" lon="10.688141988092672"><ele>91.0</ele><time>2026-03-28T11:29:44Z</time></trkpt><trkpt lat="45.34111328482962" lon="10.688272694684853"><ele>91.0</ele><time>2026-03-28T11:29:47Z</time></trkpt><trkpt lat="45.34113706470112" lon="10.688409251280747"><ele>91.0</ele><time>2026-03-28T11:29:49Z</time></trkpt><trkpt lat="45.341157496820905" lon="10.688505637706525"><ele>91.0</ele><time>2026-03-28T11:29:50Z</time></trkpt><trkpt lat="45.34118422290425" lon="10.688619213073514"><ele>91.0</ele><time>2026-03-28T11:29:51Z</time></trkpt><trkpt lat="45.3412200811517" lon="10.688759796773347"><ele>91.0</ele><time>2026-03-28T11:29:52Z</time></trkpt><trkpt lat="45.34125680636923" lon="10.688909702681338"><ele>91.0</ele><time>2026-03-28T11:29:53Z</time></trkpt><trkpt lat="45.341302709153936" lon="10.689079531121985"><ele>91.0</ele><time>2026-03-28T11:29:54Z</time></trkpt><trkpt lat="45.341346294922495" lon="10.689253172850107"><ele>91.0</ele><time>2026-03-28T11:29:55Z</time></trkpt><trkpt lat="45.34139174335971" lon="10.689429376502133"><ele>91.0</ele><time>2026-03-28T11:29:56Z</time></trkpt><trkpt lat="45.341440643310214" lon="10.689596769293905"><ele>91.0</ele><time>2026-03-28T11:29:57Z</time></trkpt><trkpt lat="45.34149306783751" lon="10.68975910072979"><ele>91.0</ele><time>2026-03-28T11:29:58Z</time></trkpt><trkpt lat="45.34155345894802" lon="10.689919234281138"><ele>91.0</ele><time>2026-03-28T11:29:59Z</time></trkpt><trkpt lat="45.34161479015997" lon="10.690081577760699"><ele>91.25</ele><time>2026-03-28T11:30:00Z</time></trkpt><trkpt lat="45.34168210069193" lon="10.690263865895181"><ele>91.5</ele><time>2026-03-28T11:30:01Z</time></trkpt><trkpt lat="45.341738258893486" lon="10.690444463000876"><ele>91.75</ele><time>2026-03-28T11:30:02Z</time></trkpt><trkpt lat="45.3417888006052" lon="10.690601038866534"><ele>92.0</ele><time>2026-03-28T11:30:03Z</time></trkpt><trkpt lat="45.34185579413655" lon="10.69079019503293"><ele>92.0</ele><time>2026-03-28T11:30:04Z</time></trkpt><trkpt lat="45.341922093007796" lon="10.690950878599175"><ele>92.0</ele><time>2026-03-28T11:30:05Z</time></trkpt><trkpt lat="45.34194914613552" lon="10.69109488701153"><ele>92.0</ele><time>2026-03-28T11:30:06Z</time></trkpt><trkpt lat="45.34197441445091" lon="10.691259741252027"><ele>92.0</ele><time>2026-03-28T11:30:07Z</time></trkpt><trkpt lat="45.34196925671779" lon="10.691469496735163"><ele>92.33333333333334</ele><time>2026-03-28T11:30:08Z</time></trkpt><trkpt lat="45.34198667324878" lon="10.69170136175767"><ele>92.66666666666667</ele><time>2026-03-28T11:30:09Z</time></trkpt><trkpt lat="45.341986417268444" lon="10.691932143762545"><ele>93.0</ele><time>2026-03-28T11:30:10Z</time></trkpt><trkpt lat="45.34198975825798" lon="10.692137900697508"><ele>93.25</ele><time>2026-03-28T11:30:11Z</time></trkpt><trkpt lat="45.341995372642316" lon="10.69232473214174"><ele>93.5</ele><time>2026-03-28T11:30:12Z</time></trkpt><trkpt lat="45.34200815850456" lon="10.69249135509161"><ele>93.75</ele><time>2026-03-28T11:30:13Z</time></trkpt><trkpt lat="45.34202323664281" lon="10.692638746802041"><ele>94.0</ele><time>2026-03-28T11:30:14Z</time></trkpt><trkpt lat="45.34204634142941" lon="10.692772119704836"><ele>94.25</ele><time>2026-03-28T11:30:15Z</time></trkpt><trkpt lat="45.34209323148122" lon="10.692893031662535"><ele>94.5</ele><time>2026-03-28T11:30:16Z</time></trkpt><trkpt lat="45.34214445336666" lon="10.693035138139386"><ele>94.75</ele><time>2026-03-28T11:30:17Z</time></trkpt><trkpt lat="45.342197829467715" lon="10.693217645080178"><ele>95.0</ele><time>2026-03-28T11:30:18Z</time></trkpt><trkpt lat="45.34225102138396" lon="10.693390048656175"><ele>96.5</ele><time>2026-03-28T11:30:19Z</time></trkpt><trkpt lat="45.34230380958596" lon="10.693578483647208"><ele>98.0</ele><time>2026-03-28T11:30:20Z</time></trkpt><trkpt lat="45.34235394319868" lon="10.693761894468619"><ele>99.5</ele><time>2026-03-28T11:30:21Z</time></trkpt><trkpt lat="45.34240270830205" lon="10.693933801544231"><ele>101.0</ele><time>2026-03-28T11:30:22Z</time></trkpt><trkpt lat="45.34244315288654" lon="10.694076477749611"><ele>101.0</ele><time>2026-03-28T11:30:23Z</time></trkpt><trkpt lat="45.342486663804124" lon="10.694196135205578"><ele>101.0</ele><time>2026-03-28T11:30:24Z</time></trkpt><trkpt lat="45.34252001319806" lon="10.694339852104243"><ele>101.0</ele><time>2026-03-28T11:30:25Z</time></trkpt><trkpt lat="45.34256435257513" lon="10.694484220525785"><ele>101.0</ele><time>2026-03-28T11:30:26Z</time></trkpt><trkpt lat="45.34260151969893" lon="10.694664389733887"><ele>101.0</ele><time>2026-03-28T11:30:27Z</time></trkpt><trkpt lat="45.342630407795504" lon="10.69486494992175"><ele>100.66666666666666</ele><time>2026-03-28T11:30:28Z</time></trkpt><trkpt lat="45.34265782180662" lon="10.695085046615272"><ele>100.33333333333334</ele><time>2026-03-28T11:30:29Z</time></trkpt><trkpt lat="45.342699778635456" lon="10.695319725672014"><ele>100.0</ele><time>2026-03-28T11:30:30Z</time></trkpt><trkpt lat="45.34275618943775" lon="10.695549544302787"><ele>99.75</ele><time>2026-03-28T11:30:31Z</time></trkpt><trkpt lat="45.342790803803055" lon="10.695784391649452"><ele>99.5</ele><time>2026-03-28T11:30:32Z</time></trkpt><trkpt lat="45.342819187784755" lon="10.695993946604602"><ele>99.25</ele><time>2026-03-28T11:30:33Z</time></trkpt><trkpt lat="45.342840369957536" lon="10.696175054229201"><ele>99.0</ele><time>2026-03-28T11:30:34Z</time></trkpt><trkpt lat="45.342857732303976" lon="10.696310286641078"><ele>98.75</ele><time>2026-03-28T11:30:35Z</time></trkpt><trkpt lat="45.34287249417308" lon="10.696416395385905"><ele>98.5</ele><time>2026-03-28T11:30:36Z</time></trkpt><trkpt lat="45.34290222561654" lon="10.696569301803361"><ele>98.25</ele><time>2026-03-28T11:30:37Z</time></trkpt><trkpt lat="45.3429505578878" lon="10.69674505137122"><ele>98.0</ele><time>2026-03-28T11:30:38Z</time></trkpt><trkpt lat="45.34301897130138" lon="10.696961244795292"><ele>99.33333333333333</ele><time>2026-03-28T11:30:39Z</time></trkpt><trkpt lat="45.343089174308346" lon="10.697184523275357"><ele>100.66666666666666</ele><time>2026-03-28T11:30:40Z</time></trkpt><trkpt lat="45.34315854607221" lon="10.697400457728287"><ele>102.0</ele><time>2026-03-28T11:30:41Z</time></trkpt><trkpt lat="45.34323355014832" lon="10.697624597666211"><ele>101.0</ele><time>2026-03-28T11:30:42Z</time></trkpt><trkpt lat="45.34330735882026" lon="10.697841094898083"><ele>100.0</ele><time>2026-03-28T11:30:43Z</time></trkpt><trkpt lat="45.34337637508274" lon="10.69803639341357"><ele>99.0</ele><time>2026-03-28T11:30:44Z</time></trkpt><trkpt lat="45.343421267555456" lon="10.698226268651863"><ele>99.0</ele><time>2026-03-28T11:30:45Z</time></trkpt><trkpt lat="45.343517825739895" lon="10.698410097796062"><ele>99.0</ele><time>2026-03-28T11:30:46Z</time></trkpt><trkpt lat="45.34362260842455" lon="10.698595946290357"><ele>99.0</ele><time>2026-03-28T11:30:47Z</time></trkpt><trkpt lat="45.34374290594288" lon="10.698785224414458"><ele>99.0</ele><time>2026-03-28T11:30:48Z</time></trkpt><trkpt lat="45.34386551662407" lon="10.699002564503251"><ele>99.0</ele><time>2026-03-28T11:30:49Z</time></trkpt><trkpt lat="45.34396438134849" lon="10.69924450155894"><ele>99.0</ele><time>2026-03-28T11:30:50Z</time></trkpt><trkpt lat="45.344078472489194" lon="10.699466853230991"><ele>98.0</ele><time>2026-03-28T11:30:51Z</time></trkpt><trkpt lat="45.34417271449847" lon="10.699718462744162"><ele>97.0</ele><time>2026-03-28T11:30:52Z</time></trkpt><trkpt lat="45.34427034606177" lon="10.699974993486435"><ele>96.0</ele><time>2026-03-28T11:30:53Z</time></trkpt><trkpt lat="45.344369465973195" lon="10.70022854551928"><ele>96.0</ele><time>2026-03-28T11:30:54Z</time></trkpt><trkpt lat="45.34446904030542" lon="10.700475646724755"><ele>96.0</ele><time>2026-03-28T11:30:55Z</time></trkpt><trkpt lat="45.34456046841286" lon="10.700696049668409"><ele>96.0</ele><time>2026-03-28T11:30:56Z</time></trkpt><trkpt lat="45.344640972875716" lon="10.700889077570478"><ele>96.0</ele><time>2026-03-28T11:30:57Z</time></trkpt><trkpt lat="45.34470900101515" lon="10.701053502100109"><ele>96.0</ele><time>2026-03-28T11:30:58Z</time></trkpt><trkpt lat="45.34476578647934" lon="10.701200392535243"><ele>96.0</ele><time>2026-03-28T11:30:59Z</time></trkpt><trkpt lat="45.3448052251295" lon="10.701304636726219"><ele>96.0</ele><time>2026-03-28T11:31:00Z</time></trkpt><trkpt lat="45.34485507367566" lon="10.701426148927263"><ele>96.0</ele><time>2026-03-28T11:31:02Z</time></trkpt><trkpt lat="45.344947343624526" lon="10.70136989972626"><ele>96.0</ele><time>2026-03-28T11:31:05Z</time></trkpt><trkpt lat="45.34502472767678" lon="10.701234166838336"><ele>96.0</ele><time>2026-03-28T11:31:06Z</time></trkpt><trkpt lat="45.34512208078463" lon="10.701022947313305"><ele>96.0</ele><time>2026-03-28T11:31:07Z</time></trkpt><trkpt lat="45.345231213265976" lon="10.700763342580238"><ele>96.33333333333334</ele><time>2026-03-28T11:31:08Z</time></trkpt><trkpt lat="45.34534228931689" lon="10.70049810402207"><ele>96.66666666666667</ele><time>2026-03-28T11:31:09Z</time></trkpt><trkpt lat="45.34545196646356" lon="10.700252522919461"><ele>97.0</ele><time>2026-03-28T11:31:10Z</time></trkpt><trkpt lat="45.34556152474303" lon="10.70005267050778"><ele>101.0</ele><time>2026-03-28T11:31:11Z</time></trkpt><trkpt lat="45.3456822554465" lon="10.699851688195174"><ele>105.0</ele><time>2026-03-28T11:31:12Z</time></trkpt><trkpt lat="45.34580343542561" lon="10.699651189530364"><ele>109.0</ele><time>2026-03-28T11:31:13Z</time></trkpt><trkpt lat="45.345906619733334" lon="10.699478844925903"><ele>109.66666666666667</ele><time>2026-03-28T11:31:14Z</time></trkpt><trkpt lat="45.346008671518845" lon="10.699300579446433"><ele>110.33333333333334</ele><time>2026-03-28T11:31:15Z</time></trkpt><trkpt lat="45.34610001002163" lon="10.699096071990617"><ele>111.0</ele><time>2026-03-28T11:31:16Z</time></trkpt><trkpt lat="45.34617402110837" lon="10.698913171997226"><ele>111.0</ele><time>2026-03-28T11:31:17Z</time></trkpt><trkpt lat="45.34621058837582" lon="10.698738799414553"><ele>111.0</ele><time>2026-03-28T11:31:18Z</time></trkpt><trkpt lat="45.34624990693834" lon="10.698590703822235"><ele>111.0</ele><time>2026-03-28T11:31:19Z</time></trkpt><trkpt lat="45.346307453571775" lon="10.698433590787626"><ele>111.0</ele><time>2026-03-28T11:31:20Z</time></trkpt><trkpt lat="45.3463706934483" lon="10.698231173868813"><ele>108.66666666666666</ele><time>2026-03-28T11:31:21Z</time></trkpt><trkpt lat="45.34645265628105" lon="10.698012834846098"><ele>106.33333333333333</ele><time>2026-03-28T11:31:22Z</time></trkpt><trkpt lat="45.346549987365215" lon="10.69779715737142"><ele>104.0</ele><time>2026-03-28T11:31:23Z</time></trkpt><trkpt lat="45.34665549949538" lon="10.69759984574275"><ele>103.0</ele><time>2026-03-28T11:31:24Z</time></trkpt><trkpt lat="45.34677638295538" lon="10.697390880399258"><ele>102.0</ele><time>2026-03-28T11:31:25Z</time></trkpt><trkpt lat="45.346894546544284" lon="10.697191203664666"><ele>101.0</ele><time>2026-03-28T11:31:26Z</time></trkpt><trkpt lat="45.34700545962887" lon="10.697018769135116"><ele>100.66666666666666</ele><time>2026-03-28T11:31:27Z</time></trkpt><trkpt lat="45.347120675271135" lon="10.696873872670816"><ele>100.33333333333334</ele><time>2026-03-28T11:31:28Z</time></trkpt><trkpt lat="45.34725978145905" lon="10.69675225704089"><ele>100.0</ele><time>2026-03-28T11:31:29Z</time></trkpt><trkpt lat="45.34741910131" lon="10.696657113320077"><ele>99.66666666666667</ele><time>2026-03-28T11:31:30Z</time></trkpt><trkpt lat="45.34758667964964" lon="10.696561752683168"><ele>99.33333333333334</ele><time>2026-03-28T11:31:31Z</time></trkpt><trkpt lat="45.347748441858904" lon="10.69646777303186"><ele>99.0</ele><time>2026-03-28T11:31:32Z</time></trkpt><trkpt lat="45.34788026418723" lon="10.696366643232464"><ele>99.0</ele><time>2026-03-28T11:31:33Z</time></trkpt><trkpt lat="45.3479774097461" lon="10.696254424683438"><ele>99.0</ele><time>2026-03-28T11:31:34Z</time></trkpt><trkpt lat="45.34806928301297" lon="10.696182805914411"><ele>99.0</ele><time>2026-03-28T11:31:35Z</time></trkpt><trkpt lat="45.34816354218586" lon="10.696137051900543"><ele>99.0</ele><time>2026-03-28T11:31:36Z</time></trkpt><trkpt lat="45.34828114774707" lon="10.696118829616958"><ele>99.0</ele><time>2026-03-28T11:31:37Z</time></trkpt><trkpt lat="45.348421918352074" lon="10.6961230573836"><ele>98.33333333333334</ele><time>2026-03-28T11:31:38Z</time></trkpt><trkpt lat="45.34857485359556" lon="10.696141392856783"><ele>97.66666666666667</ele><time>2026-03-28T11:31:39Z</time></trkpt><trkpt lat="45.34874306156943" lon="10.696152830172432"><ele>97.0</ele><time>2026-03-28T11:31:40Z</time></trkpt><trkpt lat="45.34892572351977" lon="10.696153004760179"><ele>96.0</ele><time>2026-03-28T11:31:41Z</time></trkpt><trkpt lat="45.34908626611271" lon="10.696144688439622"><ele>95.0</ele><time>2026-03-28T11:31:42Z</time></trkpt><trkpt lat="45.34920949018724" lon="10.696150401808001"><ele>94.0</ele><time>2026-03-28T11:31:43Z</time></trkpt><trkpt lat="45.34931006350002" lon="10.696178107021057"><ele>93.0</ele><time>2026-03-28T11:31:44Z</time></trkpt><trkpt lat="45.34938622406263" lon="10.69624062400456"><ele>93.0</ele><time>2026-03-28T11:31:45Z</time></trkpt><trkpt lat="45.34944625041264" lon="10.696349201031293"><ele>93.0</ele><time>2026-03-28T11:31:46Z</time></trkpt><trkpt lat="45.34948460623282" lon="10.69650099857003"><ele>93.0</ele><time>2026-03-28T11:31:47Z</time></trkpt><trkpt lat="45.3494735029928" lon="10.69670546730377"><ele>93.0</ele><time>2026-03-28T11:31:48Z</time></trkpt><trkpt lat="45.34947460244446" lon="10.696960311787075"><ele>93.66666666666667</ele><time>2026-03-28T11:31:49Z</time></trkpt><trkpt lat="45.349486570619646" lon="10.697245942478759"><ele>94.33333333333334</ele><time>2026-03-28T11:31:50Z</time></trkpt><trkpt lat="45.349497731199214" lon="10.697566615243252"><ele>95.0</ele><time>2026-03-28T11:31:51Z</time></trkpt><trkpt lat="45.34952829298248" lon="10.697894586482926"><ele>95.5</ele><time>2026-03-28T11:31:52Z</time></trkpt><trkpt lat="45.34956553283302" lon="10.698230706928019"><ele>96.0</ele><time>2026-03-28T11:31:53Z</time></trkpt><trkpt lat="45.34959121517578" lon="10.698564100204518"><ele>96.33333333333334</ele><time>2026-03-28T11:31:54Z</time></trkpt><trkpt lat="45.349605843771776" lon="10.69888048483643"><ele>96.66666666666667</ele><time>2026-03-28T11:31:55Z</time></trkpt><trkpt lat="45.34961136210348" lon="10.699174764185681"><ele>97.0</ele><time>2026-03-28T11:31:56Z</time></trkpt><trkpt lat="45.34961470411441" lon="10.699452624479111"><ele>97.0</ele><time>2026-03-28T11:31:57Z</time></trkpt><trkpt lat="45.349616001619125" lon="10.699724716975393"><ele>97.0</ele><time>2026-03-28T11:31:58Z</time></trkpt><trkpt lat="45.34959820333026" lon="10.70001990426531"><ele>97.0</ele><time>2026-03-28T11:31:59Z</time></trkpt><trkpt lat="45.349557808349296" lon="10.700311383313911"><ele>96.0</ele><time>2026-03-28T11:32:00Z</time></trkpt><trkpt lat="45.34952080210836" lon="10.700604159510958"><ele>95.0</ele><time>2026-03-28T11:32:01Z</time></trkpt><trkpt lat="45.34949683959207" lon="10.700858515076943"><ele>94.0</ele><time>2026-03-28T11:32:02Z</time></trkpt><trkpt lat="45.3494763586572" lon="10.701079059703522"><ele>93.75</ele><time>2026-03-28T11:32:03Z</time></trkpt><trkpt lat="45.34945050574973" lon="10.701284663031704"><ele>93.5</ele><time>2026-03-28T11:32:04Z</time></trkpt><trkpt lat="45.34942943506999" lon="10.70147928953944"><ele>93.25</ele><time>2026-03-28T11:32:05Z</time></trkpt><trkpt lat="45.34942721821391" lon="10.70168348284831"><ele>93.0</ele><time>2026-03-28T11:32:06Z</time></trkpt><trkpt lat="45.349444520012746" lon="10.701929994642626"><ele>92.33333333333333</ele><time>2026-03-28T11:32:07Z</time></trkpt><trkpt lat="45.349470484471915" lon="10.702216371080423"><ele>91.66666666666666</ele><time>2026-03-28T11:32:08Z</time></trkpt><trkpt lat="45.34949159910451" lon="10.702527371704665"><ele>91.0</ele><time>2026-03-28T11:32:09Z</time></trkpt><trkpt lat="45.34950811098168" lon="10.70284234567793"><ele>89.66666666666666</ele><time>2026-03-28T11:32:10Z</time></trkpt><trkpt lat="45.349525026030435" lon="10.703151816870355"><ele>88.33333333333333</ele><time>2026-03-28T11:32:11Z</time></trkpt><trkpt lat="45.34954144182962" lon="10.70341531278966"><ele>87.0</ele><time>2026-03-28T11:32:12Z</time></trkpt><trkpt lat="45.34955543291732" lon="10.703660321989139"><ele>86.0</ele><time>2026-03-28T11:32:13Z</time></trkpt><trkpt lat="45.349560974951494" lon="10.70391753829518"><ele>85.0</ele><time>2026-03-28T11:32:14Z</time></trkpt><trkpt lat="45.34954941014721" lon="10.70418143331126"><ele>84.0</ele><time>2026-03-28T11:32:15Z</time></trkpt><trkpt lat="45.34951371400778" lon="10.704429739353493"><ele>84.0</ele><time>2026-03-28T11:32:16Z</time></trkpt><trkpt lat="45.34947267705307" lon="10.704652274729671"><ele>84.0</ele><time>2026-03-28T11:32:17Z</time></trkpt><trkpt lat="45.349447587009536" lon="10.704866444893565"><ele>84.0</ele><time>2026-03-28T11:32:18Z</time></trkpt><trkpt lat="45.34945906931683" lon="10.705096611204047"><ele>84.66666666666667</ele><time>2026-03-28T11:32:19Z</time></trkpt><trkpt lat="45.34949992627298" lon="10.705324831379441"><ele>85.33333333333334</ele><time>2026-03-28T11:32:20Z</time></trkpt><trkpt lat="45.349556738550454" lon="10.705507322175729"><ele>86.0</ele><time>2026-03-28T11:32:21Z</time></trkpt><trkpt lat="45.34964430232807" lon="10.705691354928163"><ele>80.33333333333334</ele><time>2026-03-28T11:32:22Z</time></trkpt><trkpt lat="45.34977325864014" lon="10.705903930337074"><ele>74.66666666666667</ele><time>2026-03-28T11:32:23Z</time></trkpt><trkpt lat="45.34990638256742" lon="10.70614133311962"><ele>69.0</ele><time>2026-03-28T11:32:24Z</time></trkpt><trkpt lat="45.35005181106699" lon="10.70640570379849"><ele>67.5</ele><time>2026-03-28T11:32:25Z</time></trkpt><trkpt lat="45.3501873668288" lon="10.706665781564107"><ele>66.0</ele><time>2026-03-28T11:32:26Z</time></trkpt><trkpt lat="45.350318750997076" lon="10.706947583326894"><ele>66.0</ele><time>2026-03-28T11:32:27Z</time></trkpt><trkpt lat="45.35043644271776" lon="10.707245358607048"><ele>66.0</ele><time>2026-03-28T11:32:28Z</time></trkpt><trkpt lat="45.35054608935844" lon="10.707543720936838"><ele>67.66666666666667</ele><time>2026-03-28T11:32:29Z</time></trkpt><trkpt lat="45.350646742477316" lon="10.707805017767239"><ele>69.33333333333334</ele><time>2026-03-28T11:32:30Z</time></trkpt><trkpt lat="45.350747196688" lon="10.708038913908373"><ele>71.0</ele><time>2026-03-28T11:32:31Z</time></trkpt><trkpt lat="45.35084007164524" lon="10.708252609585823"><ele>71.0</ele><time>2026-03-28T11:32:32Z</time></trkpt><trkpt lat="45.350919868855385" lon="10.708445297008112"><ele>71.0</ele><time>2026-03-28T11:32:33Z</time></trkpt><trkpt lat="45.35099458278079" lon="10.708641970575805"><ele>71.0</ele><time>2026-03-28T11:32:34Z</time></trkpt><trkpt lat="45.35106035349192" lon="10.708851869331202"><ele>70.33333333333334</ele><time>2026-03-28T11:32:35Z</time></trkpt><trkpt lat="45.35112925457549" lon="10.709076961197619"><ele>69.66666666666667</ele><time>2026-03-28T11:32:36Z</time></trkpt><trkpt lat="45.351203594561134" lon="10.709315394865843"><ele>69.0</ele><time>2026-03-28T11:32:37Z</time></trkpt><trkpt lat="45.351275371415085" lon="10.709550830032894"><ele>68.66666666666667</ele><time>2026-03-28T11:32:38Z</time></trkpt><trkpt lat="45.3513486187022" lon="10.709797366378163"><ele>68.33333333333334</ele><time>2026-03-28T11:32:39Z</time></trkpt><trkpt lat="45.35142947629641" lon="10.710059525930145"><ele>68.0</ele><time>2026-03-28T11:32:40Z</time></trkpt><trkpt lat="45.35151974788382" lon="10.710323556975453"><ele>67.33333333333334</ele><time>2026-03-28T11:32:41Z</time></trkpt><trkpt lat="45.351625398568636" lon="10.710593251928952"><ele>66.66666666666667</ele><time>2026-03-28T11:32:42Z</time></trkpt><trkpt lat="45.35174364377352" lon="10.710847571564734"><ele>66.0</ele><time>2026-03-28T11:32:43Z</time></trkpt><trkpt lat="45.35187772692913" lon="10.711091848453623"><ele>66.33333333333333</ele><time>2026-03-28T11:32:44Z</time></trkpt><trkpt lat="45.352018993018675" lon="10.71131924589656"><ele>66.66666666666666</ele><time>2026-03-28T11:32:45Z</time></trkpt><trkpt lat="45.35215234060633" lon="10.711534383537137"><ele>67.0</ele><time>2026-03-28T11:32:46Z</time></trkpt><trkpt lat="45.352269753342334" lon="10.711722591288584"><ele>67.0</ele><time>2026-03-28T11:32:47Z</time></trkpt><trkpt lat="45.35237941445948" lon="10.711896023003545"><ele>67.0</ele><time>2026-03-28T11:32:48Z</time></trkpt><trkpt lat="45.35247033445005" lon="10.71204435751869"><ele>67.0</ele><time>2026-03-28T11:32:49Z</time></trkpt><trkpt lat="45.35253964054295" lon="10.712164692587436"><ele>67.0</ele><time>2026-03-28T11:32:50Z</time></trkpt><trkpt lat="45.35259431399122" lon="10.712274104427763"><ele>67.0</ele><time>2026-03-28T11:32:51Z</time></trkpt><trkpt lat="45.3526706389223" lon="10.712442821735946"><ele>67.0</ele><time>2026-03-28T11:32:52Z</time></trkpt><trkpt lat="45.35277232674449" lon="10.712644356787823"><ele>67.0</ele><time>2026-03-28T11:32:53Z</time></trkpt><trkpt lat="45.35289319097082" lon="10.712858834482349"><ele>65.33333333333333</ele><time>2026-03-28T11:32:54Z</time></trkpt><trkpt lat="45.35302368545425" lon="10.713082898077825"><ele>63.66666666666667</ele><time>2026-03-28T11:32:55Z</time></trkpt><trkpt lat="45.35315292841934" lon="10.713310406944604"><ele>62.0</ele><time>2026-03-28T11:32:56Z</time></trkpt><trkpt lat="45.35327715816806" lon="10.713525109857677"><ele>64.0</ele><time>2026-03-28T11:32:57Z</time></trkpt><trkpt lat="45.35338744393541" lon="10.713718830568602"><ele>66.0</ele><time>2026-03-28T11:32:58Z</time></trkpt><trkpt lat="45.35348097993471" lon="10.71388363840095"><ele>68.0</ele><time>2026-03-28T11:32:59Z</time></trkpt><trkpt lat="45.35356791105855" lon="10.714040575950495"><ele>68.0</ele><time>2026-03-28T11:33:00Z</time></trkpt><trkpt lat="45.353633771541354" lon="10.714214638848556"><ele>68.0</ele><time>2026-03-28T11:33:01Z</time></trkpt><trkpt lat="45.353675696996014" lon="10.71441862921063"><ele>68.0</ele><time>2026-03-28T11:33:02Z</time></trkpt><trkpt lat="45.35369936481887" lon="10.714663236571953"><ele>67.33333333333334</ele><time>2026-03-28T11:33:03Z</time></trkpt><trkpt lat="45.353730308357946" lon="10.71493609362486"><ele>66.66666666666667</ele><time>2026-03-28T11:33:04Z</time></trkpt><trkpt lat="45.35375831346205" lon="10.715224491322893"><ele>66.0</ele><time>2026-03-28T11:33:05Z</time></trkpt><trkpt lat="45.35377983245725" lon="10.715523554405156"><ele>65.0</ele><time>2026-03-28T11:33:06Z</time></trkpt><trkpt lat="45.35378309873073" lon="10.71582376275464"><ele>64.0</ele><time>2026-03-28T11:33:07Z</time></trkpt><trkpt lat="45.35376232045854" lon="10.716102778773337"><ele>63.0</ele><time>2026-03-28T11:33:08Z</time></trkpt><trkpt lat="45.353734138170665" lon="10.716362592936893"><ele>62.66666666666667</ele><time>2026-03-28T11:33:09Z</time></trkpt><trkpt lat="45.35372682051552" lon="10.71661982250428"><ele>62.333333333333336</ele><time>2026-03-28T11:33:10Z</time></trkpt><trkpt lat="45.35374983185373" lon="10.716889074580402"><ele>62.0</ele><time>2026-03-28T11:33:11Z</time></trkpt><trkpt lat="45.353801017555114" lon="10.7171656170536"><ele>62.333333333333336</ele><time>2026-03-28T11:33:12Z</time></trkpt><trkpt lat="45.35387565817478" lon="10.71742933934305"><ele>62.66666666666667</ele><time>2026-03-28T11:33:13Z</time></trkpt><trkpt lat="45.35397077889808" lon="10.717661898086535"><ele>63.0</ele><time>2026-03-28T11:33:14Z</time></trkpt><trkpt lat="45.35410059705898" lon="10.717917983435488"><ele>63.0</ele><time>2026-03-28T11:33:15Z</time></trkpt><trkpt lat="45.35424916889957" lon="10.718182748260528"><ele>63.0</ele><time>2026-03-28T11:33:16Z</time></trkpt><trkpt lat="45.354403925209674" lon="10.718455908734656"><ele>62.5</ele><time>2026-03-28T11:33:17Z</time></trkpt><trkpt lat="45.35455862026096" lon="10.718742627682234"><ele>62.0</ele><time>2026-03-28T11:33:18Z</time></trkpt><trkpt lat="45.354712722342526" lon="10.71902515631946"><ele>63.0</ele><time>2026-03-28T11:33:19Z</time></trkpt><trkpt lat="45.35486573598874" lon="10.719309777938369"><ele>64.0</ele><time>2026-03-28T11:33:20Z</time></trkpt><trkpt lat="45.35501349359969" lon="10.719584919181887"><ele>64.0</ele><time>2026-03-28T11:33:21Z</time></trkpt><trkpt lat="45.35515351248487" lon="10.719842571746254"><ele>64.0</ele><time>2026-03-28T11:33:22Z</time></trkpt><trkpt lat="45.35528924844679" lon="10.720082802383885"><ele>64.0</ele><time>2026-03-28T11:33:23Z</time></trkpt><trkpt lat="45.355419979122196" lon="10.720324421104577"><ele>65.66666666666666</ele><time>2026-03-28T11:33:24Z</time></trkpt><trkpt lat="45.355547049700384" lon="10.72055577581643"><ele>67.33333333333333</ele><time>2026-03-28T11:33:25Z</time></trkpt><trkpt lat="45.3556578650772" lon="10.720761025128033"><ele>69.0</ele><time>2026-03-28T11:33:26Z</time></trkpt><trkpt lat="45.35575651492949" lon="10.720948360833049"><ele>67.75</ele><time>2026-03-28T11:33:27Z</time></trkpt><trkpt lat="45.35584061619176" lon="10.721096995790408"><ele>66.5</ele><time>2026-03-28T11:33:28Z</time></trkpt><trkpt lat="45.35594596095922" lon="10.721183085104853"><ele>65.25</ele><time>2026-03-28T11:33:29Z</time></trkpt><trkpt lat="45.35602770535901" lon="10.7212847575031"><ele>64.0</ele><time>2026-03-28T11:33:30Z</time></trkpt><trkpt lat="45.35609333552134" lon="10.721368864242683"><ele>64.0</ele><time>2026-03-28T11:33:31Z</time></trkpt><trkpt lat="45.35615793194007" lon="10.721451917190574"><ele>64.0</ele><time>2026-03-28T11:33:33Z</time></trkpt><trkpt lat="45.35607436380193" lon="10.721670323883176"><ele>64.0</ele><time>2026-03-28T11:33:35Z</time></trkpt><trkpt lat="45.35601294801613" lon="10.721805535938456"><ele>64.0</ele><time>2026-03-28T11:33:36Z</time></trkpt><trkpt lat="45.35595131178432" lon="10.72196075405115"><ele>62.75</ele><time>2026-03-28T11:33:37Z</time></trkpt><trkpt lat="45.355883766787585" lon="10.722140315558695"><ele>61.5</ele><time>2026-03-28T11:33:38Z</time></trkpt><trkpt lat="45.355821494531554" lon="10.722316012637409"><ele>60.25</ele><time>2026-03-28T11:33:39Z</time></trkpt><trkpt lat="45.35575829555181" lon="10.722488752413968"><ele>59.0</ele><time>2026-03-28T11:33:40Z</time></trkpt><trkpt lat="45.355696031309854" lon="10.722653884134719"><ele>59.25</ele><time>2026-03-28T11:33:41Z</time></trkpt><trkpt lat="45.35563727257956" lon="10.722822772565507"><ele>59.5</ele><time>2026-03-28T11:33:42Z</time></trkpt><trkpt lat="45.35557859664831" lon="10.722996134910712"><ele>59.75</ele><time>2026-03-28T11:33:43Z</time></trkpt><trkpt lat="45.35551265346168" lon="10.72317392960818"><ele>60.0</ele><time>2026-03-28T11:33:44Z</time></trkpt><trkpt lat="45.35544641558722" lon="10.723350584441986"><ele>60.0</ele><time>2026-03-28T11:33:45Z</time></trkpt><trkpt lat="45.35538382430499" lon="10.7235280732505"><ele>60.0</ele><time>2026-03-28T11:33:46Z</time></trkpt><trkpt lat="45.35532162527811" lon="10.72370598446048"><ele>60.0</ele><time>2026-03-28T11:33:47Z</time></trkpt><trkpt lat="45.3552607928084" lon="10.723885312987933"><ele>60.0</ele><time>2026-03-28T11:33:48Z</time></trkpt><trkpt lat="45.355200177203265" lon="10.724056132614143"><ele>60.0</ele><time>2026-03-28T11:33:49Z</time></trkpt><trkpt lat="45.35513768270001" lon="10.724231952536323"><ele>60.0</ele><time>2026-03-28T11:33:50Z</time></trkpt><trkpt lat="45.35507694878428" lon="10.724403432931606"><ele>60.0</ele><time>2026-03-28T11:33:51Z</time></trkpt><trkpt lat="45.35501630007223" lon="10.724563093121656"><ele>60.0</ele><time>2026-03-28T11:33:52Z</time></trkpt><trkpt lat="45.35496351086106" lon="10.724707002244887"><ele>60.0</ele><time>2026-03-28T11:33:53Z</time></trkpt><trkpt lat="45.354907874864466" lon="10.724857280096414"><ele>60.0</ele><time>2026-03-28T11:33:54Z</time></trkpt><trkpt lat="45.35485250248058" lon="10.725020378662073"><ele>60.0</ele><time>2026-03-28T11:33:55Z</time></trkpt><trkpt lat="45.354801107883524" lon="10.725173754224425"><ele>60.0</ele><time>2026-03-28T11:33:56Z</time></trkpt><trkpt lat="45.35475229922078" lon="10.725319288522687"><ele>59.4</ele><time>2026-03-28T11:33:57Z</time></trkpt><trkpt lat="45.354700520526514" lon="10.72544663524353"><ele>58.8</ele><time>2026-03-28T11:33:58Z</time></trkpt><trkpt lat="45.354658087874675" lon="10.72558347539621"><ele>58.2</ele><time>2026-03-28T11:33:59Z</time></trkpt><trkpt lat="45.35461432722932" lon="10.72570494942092"><ele>57.6</ele><time>2026-03-28T11:34:00Z</time></trkpt><trkpt lat="45.35456913482869" lon="10.725802156364907"><ele>57.0</ele><time>2026-03-28T11:34:01Z</time></trkpt><trkpt lat="45.35452019721435" lon="10.725876969335829"><ele>57.0</ele><time>2026-03-28T11:34:03Z</time></trkpt><trkpt lat="45.35446236021809" lon="10.725984241241788"><ele>57.0</ele><time>2026-03-28T11:34:17Z</time></trkpt><trkpt lat="45.354437989406534" lon="10.726089370667271"><ele>57.0</ele><time>2026-03-28T11:34:18Z</time></trkpt><trkpt lat="45.35441459005229" lon="10.726203231877436"><ele>57.0</ele><time>2026-03-28T11:34:19Z</time></trkpt><trkpt lat="45.35438498182116" lon="10.7263288418962"><ele>57.0</ele><time>2026-03-28T11:34:20Z</time></trkpt><trkpt lat="45.354341636074935" lon="10.726470368921973"><ele>57.5</ele><time>2026-03-28T11:34:21Z</time></trkpt><trkpt lat="45.35428211688867" lon="10.726639869258367"><ele>58.0</ele><time>2026-03-28T11:34:22Z</time></trkpt><trkpt lat="45.35421535095847" lon="10.726819150229261"><ele>58.5</ele><time>2026-03-28T11:34:23Z</time></trkpt><trkpt lat="45.35414965730417" lon="10.726997068474434"><ele>59.0</ele><time>2026-03-28T11:34:24Z</time></trkpt><trkpt lat="45.3540839982279" lon="10.727185176944992"><ele>59.333333333333336</ele><time>2026-03-28T11:34:25Z</time></trkpt><trkpt lat="45.35401495770762" lon="10.727385514459316"><ele>59.66666666666667</ele><time>2026-03-28T11:34:26Z</time></trkpt><trkpt lat="45.353944098555246" lon="10.727586614453942"><ele>60.0</ele><time>2026-03-28T11:34:27Z</time></trkpt><trkpt lat="45.3538792847786" lon="10.727769230249304"><ele>63.2</ele><time>2026-03-28T11:34:28Z</time></trkpt><trkpt lat="45.35381464268823" lon="10.72792966755151"><ele>66.4</ele><time>2026-03-28T11:34:29Z</time></trkpt><trkpt lat="45.3537638838895" lon="10.728066660018879"><ele>69.6</ele><time>2026-03-28T11:34:30Z</time></trkpt><trkpt lat="45.353725634049134" lon="10.728179555053933"><ele>72.8</ele><time>2026-03-28T11:34:31Z</time></trkpt><trkpt lat="45.3536861452253" lon="10.728263769571194"><ele>76.0</ele><time>2026-03-28T11:34:32Z</time></trkpt><trkpt lat="45.35360347765067" lon="10.728363597113166"><ele>76.0</ele><time>2026-03-28T11:34:34Z</time></trkpt><trkpt lat="45.353620048683915" lon="10.728453471684029"><ele>76.0</ele><time>2026-03-28T11:34:35Z</time></trkpt><trkpt lat="45.35376647588935" lon="10.728616359642109"><ele>76.0</ele><time>2026-03-28T11:34:37Z</time></trkpt><trkpt lat="45.35387869908" lon="10.728689151889972"><ele>76.0</ele><time>2026-03-28T11:34:38Z</time></trkpt><trkpt lat="45.35401972218603" lon="10.728759557300576"><ele>78.0</ele><time>2026-03-28T11:34:39Z</time></trkpt><trkpt lat="45.354202843992155" lon="10.728828389261507"><ele>80.0</ele><time>2026-03-28T11:34:40Z</time></trkpt><trkpt lat="45.354407927381516" lon="10.7289161518434"><ele>82.0</ele><time>2026-03-28T11:34:41Z</time></trkpt><trkpt lat="45.35461244755275" lon="10.729018640506562"><ele>81.33333333333333</ele><time>2026-03-28T11:34:42Z</time></trkpt><trkpt lat="45.35479142864443" lon="10.729102631805212"><ele>80.66666666666667</ele><time>2026-03-28T11:34:43Z</time></trkpt><trkpt lat="45.354947793094425" lon="10.729159472789508"><ele>80.0</ele><time>2026-03-28T11:34:44Z</time></trkpt><trkpt lat="45.35508339966428" lon="10.729193287913542"><ele>80.0</ele><time>2026-03-28T11:34:45Z</time></trkpt><trkpt lat="45.355212254729786" lon="10.729226972370647"><ele>80.0</ele><time>2026-03-28T11:34:46Z</time></trkpt><trkpt lat="45.35532420836602" lon="10.7292555791901"><ele>80.0</ele><time>2026-03-28T11:34:47Z</time></trkpt><trkpt lat="45.355424836683156" lon="10.729286215883802"><ele>80.0</ele><time>2026-03-28T11:34:48Z</time></trkpt><trkpt lat="45.35551453882395" lon="10.729306298577796"><ele>80.0</ele><time>2026-03-28T11:34:49Z</time></trkpt><trkpt lat="45.35560229171848" lon="10.729328634785343"><ele>79.8</ele><time>2026-03-28T11:34:50Z</time></trkpt><trkpt lat="45.3556823551761" lon="10.729338867170782"><ele>79.6</ele><time>2026-03-28T11:34:51Z</time></trkpt><trkpt lat="45.355791252475655" lon="10.729361491645356"><ele>79.4</ele><time>2026-03-28T11:34:53Z</time></trkpt><trkpt lat="45.35589644816803" lon="10.729381157146609"><ele>79.2</ele><time>2026-03-28T11:34:55Z</time></trkpt><trkpt lat="45.35599075607803" lon="10.72938449398721"><ele>79.0</ele><time>2026-03-28T11:34:56Z</time></trkpt><trkpt lat="45.35610370556987" lon="10.7293749006274"><ele>79.0</ele><time>2026-03-28T11:34:57Z</time></trkpt><trkpt lat="45.356228730026906" lon="10.729364403696279"><ele>79.0</ele><time>2026-03-28T11:34:58Z</time></trkpt><trkpt lat="45.356350596668676" lon="10.729339381414418"><ele>79.0</ele><time>2026-03-28T11:34:59Z</time></trkpt><trkpt lat="45.356456316319694" lon="10.72930664071595"><ele>79.0</ele><time>2026-03-28T11:35:00Z</time></trkpt><trkpt lat="45.35652742348203" lon="10.729290626013272"><ele>79.0</ele><time>2026-03-28T11:35:01Z</time></trkpt><trkpt lat="45.35659385501105" lon="10.729315189601554"><ele>83.5</ele><time>2026-03-28T11:35:03Z</time></trkpt><trkpt lat="45.356601261891335" lon="10.729426306701818"><ele>88.0</ele><time>2026-03-28T11:35:05Z</time></trkpt><trkpt lat="45.35644791267944" lon="10.729498377727754"><ele>92.5</ele><time>2026-03-28T11:35:07Z</time></trkpt><trkpt lat="45.356305498711215" lon="10.729573157581921"><ele>97.0</ele><time>2026-03-28T11:35:08Z</time></trkpt><trkpt lat="45.35617953528582" lon="10.729666371734186"><ele>97.0</ele><time>2026-03-28T11:35:09Z</time></trkpt><trkpt lat="45.35604610231862" lon="10.729733888013984"><ele>97.0</ele><time>2026-03-28T11:35:10Z</time></trkpt><trkpt lat="45.35591292582578" lon="10.729814120104512"><ele>97.0</ele><time>2026-03-28T11:35:11Z</time></trkpt><trkpt lat="45.35578976615219" lon="10.729892094964553"><ele>97.0</ele><time>2026-03-28T11:35:12Z</time></trkpt><trkpt lat="45.355703659501266" lon="10.729998998690261"><ele>97.0</ele><time>2026-03-28T11:35:13Z</time></trkpt><trkpt lat="45.35565111461099" lon="10.73012971018147"><ele>97.0</ele><time>2026-03-28T11:35:14Z</time></trkpt><trkpt lat="45.35564065831246" lon="10.73027392633667"><ele>97.0</ele><time>2026-03-28T11:35:15Z</time></trkpt><trkpt lat="45.35567431083445" lon="10.730427082644427"><ele>97.0</ele><time>2026-03-28T11:35:16Z</time></trkpt><trkpt lat="45.35572099660483" lon="10.730593831320045"><ele>97.0</ele><time>2026-03-28T11:35:17Z</time></trkpt><trkpt lat="45.355770581370535" lon="10.730793015317357"><ele>98.25</ele><time>2026-03-28T11:35:18Z</time></trkpt><trkpt lat="45.3558140474886" lon="10.73101282040559"><ele>99.5</ele><time>2026-03-28T11:35:19Z</time></trkpt><trkpt lat="45.355857386078334" lon="10.731182912222089"><ele>100.75</ele><time>2026-03-28T11:35:20Z</time></trkpt><trkpt lat="45.355888990423324" lon="10.731325919333914"><ele>102.0</ele><time>2026-03-28T11:35:21Z</time></trkpt><trkpt lat="45.35590894373831" lon="10.731442588129607"><ele>102.0</ele><time>2026-03-28T11:35:22Z</time></trkpt><trkpt lat="45.35591502553313" lon="10.731559980762157"><ele>102.0</ele><time>2026-03-28T11:35:23Z</time></trkpt><trkpt lat="45.35589801135631" lon="10.731678400562501"><ele>102.0</ele><time>2026-03-28T11:35:24Z</time></trkpt><trkpt lat="45.35586400135277" lon="10.7317983904786"><ele>102.0</ele><time>2026-03-28T11:35:25Z</time></trkpt><trkpt lat="45.355820294321546" lon="10.731938606346136"><ele>102.0</ele><time>2026-03-28T11:35:26Z</time></trkpt><trkpt lat="45.35576446156784" lon="10.73205070558274"><ele>100.6</ele><time>2026-03-28T11:35:27Z</time></trkpt><trkpt lat="45.3557174157908" lon="10.732167914455157"><ele>99.19999999999999</ele><time>2026-03-28T11:35:29Z</time></trkpt><trkpt lat="45.355668577619205" lon="10.732271925474036"><ele>97.8</ele><time>2026-03-28T11:35:31Z</time></trkpt><trkpt lat="45.355622619850614" lon="10.732363580704181"><ele>96.4</ele><time>2026-03-28T11:35:33Z</time></trkpt><trkpt lat="45.35556733052503" lon="10.732476698348057"><ele>95.0</ele><time>2026-03-28T11:35:35Z</time></trkpt><trkpt lat="45.35550645481994" lon="10.732599472235828"><ele>95.0</ele><time>2026-03-28T11:35:37Z</time></trkpt><trkpt lat="45.35544714738557" lon="10.732701748129154"><ele>95.0</ele><time>2026-03-28T11:35:39Z</time></trkpt><trkpt lat="45.35538884776337" lon="10.73281959201009"><ele>95.0</ele><time>2026-03-28T11:35:41Z</time></trkpt><trkpt lat="45.35535340408758" lon="10.732898924509975"><ele>95.0</ele><time>2026-03-28T11:35:42Z</time></trkpt><trkpt lat="45.355306495114604" lon="10.73303599490957"><ele>95.0</ele><time>2026-03-28T11:35:44Z</time></trkpt><trkpt lat="45.355247098269" lon="10.733176690532105"><ele>94.83333333333334</ele><time>2026-03-28T11:35:46Z</time></trkpt><trkpt lat="45.35521009055301" lon="10.733265832594599"><ele>94.66666666666667</ele><time>2026-03-28T11:35:47Z</time></trkpt><trkpt lat="45.35515773863212" lon="10.733393783408888"><ele>94.5</ele><time>2026-03-28T11:35:49Z</time></trkpt><trkpt lat="45.35511801046004" lon="10.73348937349348"><ele>94.33333333333333</ele><time>2026-03-28T11:35:51Z</time></trkpt><trkpt lat="45.35508533327762" lon="10.733603963065049"><ele>94.16666666666666</ele><time>2026-03-28T11:35:53Z</time></trkpt><trkpt lat="45.355052775438985" lon="10.733703294728706"><ele>94.0</ele><time>2026-03-28T11:35:55Z</time></trkpt><trkpt lat="45.35500906080394" lon="10.733821783208548"><ele>94.0</ele><time>2026-03-28T11:35:57Z</time></trkpt><trkpt lat="45.354959581465" lon="10.733941932083225"><ele>94.0</ele><time>2026-03-28T11:35:59Z</time></trkpt><trkpt lat="45.35491719627158" lon="10.734039760381465"><ele>94.0</ele><time>2026-03-28T11:36:01Z</time></trkpt><trkpt lat="45.354877464076246" lon="10.73412623032443"><ele>94.0</ele><time>2026-03-28T11:36:03Z</time></trkpt><trkpt lat="45.35483911808456" lon="10.734230711035215"><ele>94.0</ele><time>2026-03-28T11:36:05Z</time></trkpt><trkpt lat="45.35492959915538" lon="10.73440431935074"><ele>94.0</ele><time>2026-03-28T11:36:09Z</time></trkpt><trkpt lat="45.35499210739504" lon="10.734370209031404"><ele>94.0</ele><time>2026-03-28T11:36:12Z</time></trkpt><trkpt lat="45.355091278031715" lon="10.734387850762113"><ele>94.0</ele><time>2026-03-28T11:36:17Z</time></trkpt><trkpt lat="45.35515962137632" lon="10.734404948074785"><ele>94.0</ele><time>2026-03-28T11:36:18Z</time></trkpt><trkpt lat="45.35522384603963" lon="10.734417625049273"><ele>94.0</ele><time>2026-03-28T11:36:19Z</time></trkpt><trkpt lat="45.355287533338945" lon="10.734443686253332"><ele>94.0</ele><time>2026-03-28T11:36:20Z</time></trkpt><trkpt lat="45.35536203912181" lon="10.734454235608931"><ele>94.0</ele><time>2026-03-28T11:36:21Z</time></trkpt><trkpt lat="45.355445185705584" lon="10.734484499267447"><ele>94.0</ele><time>2026-03-28T11:36:22Z</time></trkpt><trkpt lat="45.35552676042365" lon="10.734520879643458"><ele>94.0</ele><time>2026-03-28T11:36:23Z</time></trkpt><trkpt lat="45.355606950290934" lon="10.734555074645767"><ele>94.0</ele><time>2026-03-28T11:36:24Z</time></trkpt><trkpt lat="45.355678669642465" lon="10.734587177203244"><ele>94.0</ele><time>2026-03-28T11:36:25Z</time></trkpt><trkpt lat="45.35575324566219" lon="10.734622591010384"><ele>94.0</ele><time>2026-03-28T11:36:26Z</time></trkpt><trkpt lat="45.355839914709485" lon="10.734646058222527"><ele>94.0</ele><time>2026-03-28T11:36:27Z</time></trkpt><trkpt lat="45.35593306650098" lon="10.734685114575404"><ele>94.0</ele><time>2026-03-28T11:36:28Z</time></trkpt><trkpt lat="45.35600523254952" lon="10.73474966032652"><ele>94.0</ele><time>2026-03-28T11:36:29Z</time></trkpt><trkpt lat="45.35608259810562" lon="10.734797578387509"><ele>94.0</ele><time>2026-03-28T11:36:30Z</time></trkpt><trkpt lat="45.35614887802234" lon="10.7348444658671"><ele>94.0</ele><time>2026-03-28T11:36:31Z</time></trkpt><trkpt lat="45.35623653829442" lon="10.734863566000687"><ele>94.0</ele><time>2026-03-28T11:36:32Z</time></trkpt><trkpt lat="45.35632434189104" lon="10.734902259880542"><ele>94.0</ele><time>2026-03-28T11:36:33Z</time></trkpt><trkpt lat="45.35641247763326" lon="10.734941269406326"><ele>93.80000000000001</ele><time>2026-03-28T11:36:34Z</time></trkpt><trkpt lat="45.356518673535014" lon="10.734969373310614"><ele>93.60000000000001</ele><time>2026-03-28T11:36:35Z</time></trkpt><trkpt lat="45.35662908381352" lon="10.734993139840384"><ele>93.4</ele><time>2026-03-28T11:36:36Z</time></trkpt><trkpt lat="45.35672211734365" lon="10.735012033198592"><ele>93.2</ele><time>2026-03-28T11:36:37Z</time></trkpt><trkpt lat="45.35680188183444" lon="10.73503537981273"><ele>93.0</ele><time>2026-03-28T11:36:38Z</time></trkpt><trkpt lat="45.356887528660494" lon="10.73504891050003"><ele>93.0</ele><time>2026-03-28T11:36:39Z</time></trkpt><trkpt lat="45.35698562180544" lon="10.735044228949967"><ele>93.0</ele><time>2026-03-28T11:36:40Z</time></trkpt><trkpt lat="45.35708181176671" lon="10.735048096501083"><ele>93.0</ele><time>2026-03-28T11:36:41Z</time></trkpt><trkpt lat="45.35717730013302" lon="10.73504441868466"><ele>93.0</ele><time>2026-03-28T11:36:42Z</time></trkpt><trkpt lat="45.35727538327338" lon="10.735032539785688"><ele>93.0</ele><time>2026-03-28T11:36:43Z</time></trkpt><trkpt lat="45.35735843480749" lon="10.735015998197708"><ele>93.0</ele><time>2026-03-28T11:36:44Z</time></trkpt><trkpt lat="45.35743515487369" lon="10.734996753902836"><ele>93.0</ele><time>2026-03-28T11:36:45Z</time></trkpt><trkpt lat="45.357502504698125" lon="10.734972033085823"><ele>93.0</ele><time>2026-03-28T11:36:46Z</time></trkpt><trkpt lat="45.35756965390116" lon="10.734956014387109"><ele>93.0</ele><time>2026-03-28T11:36:47Z</time></trkpt><trkpt lat="45.35763535667432" lon="10.73496438113721"><ele>93.0</ele><time>2026-03-28T11:36:48Z</time></trkpt><trkpt lat="45.35774637907237" lon="10.734935187917603"><ele>93.0</ele><time>2026-03-28T11:36:50Z</time></trkpt><trkpt lat="45.35782708404395" lon="10.734915257458812"><ele>93.0</ele><time>2026-03-28T11:36:51Z</time></trkpt><trkpt lat="45.35793798941018" lon="10.734903059787829"><ele>93.0</ele><time>2026-03-28T11:36:52Z</time></trkpt><trkpt lat="45.358041919840055" lon="10.734892743698772"><ele>93.0</ele><time>2026-03-28T11:36:53Z</time></trkpt><trkpt lat="45.358147748203876" lon="10.734892886567172"><ele>93.0</ele><time>2026-03-28T11:36:54Z</time></trkpt><trkpt lat="45.358264938587325" lon="10.734894429558242"><ele>93.0</ele><time>2026-03-28T11:36:55Z</time></trkpt><trkpt lat="45.35837499561863" lon="10.734899267346135"><ele>93.5</ele><time>2026-03-28T11:36:56Z</time></trkpt><trkpt lat="45.358481262442304" lon="10.734901694506775"><ele>94.0</ele><time>2026-03-28T11:36:57Z</time></trkpt><trkpt lat="45.35858048734312" lon="10.734912560201348"><ele>94.5</ele><time>2026-03-28T11:36:58Z</time></trkpt><trkpt lat="45.35866741137942" lon="10.73492510520371"><ele>95.0</ele><time>2026-03-28T11:36:59Z</time></trkpt><trkpt lat="45.35873684258738" lon="10.73493377117737"><ele>95.5</ele><time>2026-03-28T11:37:00Z</time></trkpt><trkpt lat="45.35881311328533" lon="10.734944876470903"><ele>96.0</ele><time>2026-03-28T11:37:01Z</time></trkpt><trkpt lat="45.35888815189877" lon="10.734954017514745"><ele>96.19999999999999</ele><time>2026-03-28T11:37:02Z</time></trkpt><trkpt lat="45.35897779659223" lon="10.734963357669546"><ele>96.39999999999999</ele><time>2026-03-28T11:37:03Z</time></trkpt><trkpt lat="45.35907773588394" lon="10.734973887413362"><ele>96.6</ele><time>2026-03-28T11:37:04Z</time></trkpt><trkpt lat="45.35920276508309" lon="10.73498502347336"><ele>96.8</ele><time>2026-03-28T11:37:05Z</time></trkpt><trkpt lat="45.35931717172913" lon="10.735005889906336"><ele>97.0</ele><time>2026-03-28T11:37:06Z</time></trkpt><trkpt lat="45.35941412211062" lon="10.73503700847505"><ele>97.00000000000001</ele><time>2026-03-28T11:37:07Z</time></trkpt><trkpt lat="45.359498854783055" lon="10.735055309307228"><ele>97.0</ele><time>2026-03-28T11:37:08Z</time></trkpt><trkpt lat="45.3595752036994" lon="10.735067211678905"><ele>97.0</ele><time>2026-03-28T11:37:09Z</time></trkpt><trkpt lat="45.35965925581978" lon="10.735079197622403"><ele>97.0</ele><time>2026-03-28T11:37:10Z</time></trkpt><trkpt lat="45.35974852342848" lon="10.735094082686564"><ele>97.00000000000001</ele><time>2026-03-28T11:37:11Z</time></trkpt><trkpt lat="45.359821923625795" lon="10.73510597811071"><ele>97.0</ele><time>2026-03-28T11:37:12Z</time></trkpt><trkpt lat="45.35990437005599" lon="10.735123521004653"><ele>96.25</ele><time>2026-03-28T11:37:14Z</time></trkpt><trkpt lat="45.35992700325546" lon="10.735328825480996"><ele>95.5</ele><time>2026-03-28T11:37:17Z</time></trkpt><trkpt lat="45.359916690617226" lon="10.73548894465949"><ele>94.75</ele><time>2026-03-28T11:37:18Z</time></trkpt><trkpt lat="45.35989921154254" lon="10.73567513414607"><ele>94.0</ele><time>2026-03-28T11:37:19Z</time></trkpt><trkpt lat="45.359875921814705" lon="10.735863555097598"><ele>94.0</ele><time>2026-03-28T11:37:20Z</time></trkpt><trkpt lat="45.35984803941171" lon="10.736059676723952"><ele>94.0</ele><time>2026-03-28T11:37:21Z</time></trkpt><trkpt lat="45.359826846142944" lon="10.736277836791382"><ele>94.0</ele><time>2026-03-28T11:37:22Z</time></trkpt><trkpt lat="45.35981116695382" lon="10.736505574674403"><ele>94.0</ele><time>2026-03-28T11:37:23Z</time></trkpt><trkpt lat="45.35979446201207" lon="10.736743434311348"><ele>94.0</ele><time>2026-03-28T11:37:24Z</time></trkpt><trkpt lat="45.359777090146046" lon="10.73698576365679"><ele>94.0</ele><time>2026-03-28T11:37:25Z</time></trkpt><trkpt lat="45.35975886555302" lon="10.737234440604958"><ele>94.0</ele><time>2026-03-28T11:37:26Z</time></trkpt><trkpt lat="45.35974139677819" lon="10.737461897914272"><ele>94.0</ele><time>2026-03-28T11:37:27Z</time></trkpt><trkpt lat="45.35972544151293" lon="10.737660219200178"><ele>94.0</ele><time>2026-03-28T11:37:28Z</time></trkpt><trkpt lat="45.35970789920247" lon="10.737837484360778"><ele>94.0</ele><time>2026-03-28T11:37:29Z</time></trkpt><trkpt lat="45.359693044703775" lon="10.73797590835337"><ele>93.75</ele><time>2026-03-28T11:37:30Z</time></trkpt><trkpt lat="45.35969786926871" lon="10.738107689920872"><ele>93.5</ele><time>2026-03-28T11:37:31Z</time></trkpt><trkpt lat="45.35969540880243" lon="10.738253004817153"><ele>93.25</ele><time>2026-03-28T11:37:32Z</time></trkpt><trkpt lat="45.35969818292601" lon="10.738418985049778"><ele>93.0</ele><time>2026-03-28T11:37:33Z</time></trkpt><trkpt lat="45.359751469123694" lon="10.738601220657962"><ele>93.0</ele><time>2026-03-28T11:37:34Z</time></trkpt><trkpt lat="45.35979726636535" lon="10.738741087107359"><ele>93.0</ele><time>2026-03-28T11:37:35Z</time></trkpt><trkpt lat="45.35981851618226" lon="10.738829936868997"><ele>93.0</ele><time>2026-03-28T11:37:36Z</time></trkpt><trkpt lat="45.35983518333235" lon="10.738974229343388"><ele>93.0</ele><time>2026-03-28T11:37:38Z</time></trkpt><trkpt lat="45.35982366277784" lon="10.739126523467151"><ele>93.0</ele><time>2026-03-28T11:37:40Z</time></trkpt><trkpt lat="45.35991191048185" lon="10.73923268742033"><ele>93.0</ele><time>2026-03-28T11:37:42Z</time></trkpt><trkpt lat="45.35998786901875" lon="10.739247111109094"><ele>93.0</ele><time>2026-03-28T11:37:43Z</time></trkpt><trkpt lat="45.36007950099361" lon="10.739272555103671"><ele>93.0</ele><time>2026-03-28T11:37:44Z</time></trkpt><trkpt lat="45.36017127819253" lon="10.739323642005466"><ele>93.0</ele><time>2026-03-28T11:37:45Z</time></trkpt><trkpt lat="45.36026877683676" lon="10.739399496991838"><ele>93.0</ele><time>2026-03-28T11:37:46Z</time></trkpt><trkpt lat="45.36036752810894" lon="10.739483111287157"><ele>93.25</ele><time>2026-03-28T11:37:47Z</time></trkpt><trkpt lat="45.360480005985096" lon="10.739561022172591"><ele>93.5</ele><time>2026-03-28T11:37:48Z</time></trkpt><trkpt lat="45.3606048081297" lon="10.73963167568528"><ele>93.75</ele><time>2026-03-28T11:37:49Z</time></trkpt><trkpt lat="45.36073257603289" lon="10.739693204927962"><ele>94.0</ele><time>2026-03-28T11:37:50Z</time></trkpt><trkpt lat="45.36083275223708" lon="10.739760096145716"><ele>94.5</ele><time>2026-03-28T11:37:51Z</time></trkpt><trkpt lat="45.36091930584565" lon="10.739752396497083"><ele>95.0</ele><time>2026-03-28T11:37:52Z</time></trkpt><trkpt lat="45.36097791565191" lon="10.74000993063942"><ele>95.5</ele><time>2026-03-28T11:37:53Z</time></trkpt><trkpt lat="45.36104885393554" lon="10.740205102662273"><ele>96.0</ele><time>2026-03-28T11:37:54Z</time></trkpt><trkpt lat="45.36113060478613" lon="10.740421971103718"><ele>96.0</ele><time>2026-03-28T11:37:55Z</time></trkpt><trkpt lat="45.361216998873616" lon="10.74064274936717"><ele>96.0</ele><time>2026-03-28T11:37:56Z</time></trkpt><trkpt lat="45.36130596304036" lon="10.740876427374076"><ele>96.0</ele><time>2026-03-28T11:37:57Z</time></trkpt><trkpt lat="45.361401410360436" lon="10.741125072418658"><ele>94.66666666666667</ele><time>2026-03-28T11:37:58Z</time></trkpt><trkpt lat="45.36149088823767" lon="10.741379251705254"><ele>93.33333333333334</ele><time>2026-03-28T11:37:59Z</time></trkpt><trkpt lat="45.36157323565977" lon="10.741644490109815"><ele>92.0</ele><time>2026-03-28T11:38:00Z</time></trkpt><trkpt lat="45.36165536570103" lon="10.741924915319009"><ele>92.0</ele><time>2026-03-28T11:38:01Z</time></trkpt><trkpt lat="45.3617342792241" lon="10.742210199491163"><ele>92.0</ele><time>2026-03-28T11:38:02Z</time></trkpt><trkpt lat="45.36181338905429" lon="10.742501891291"><ele>92.0</ele><time>2026-03-28T11:38:03Z</time></trkpt><trkpt lat="45.36189537315101" lon="10.742791353175448"><ele>92.0</ele><time>2026-03-28T11:38:04Z</time></trkpt><trkpt lat="45.36197878204919" lon="10.743081254649773"><ele>92.0</ele><time>2026-03-28T11:38:05Z</time></trkpt><trkpt lat="45.36206074408136" lon="10.743360298192032"><ele>92.0</ele><time>2026-03-28T11:38:06Z</time></trkpt><trkpt lat="45.36215018506173" lon="10.74364795572335"><ele>92.5</ele><time>2026-03-28T11:38:07Z</time></trkpt><trkpt lat="45.36224551754736" lon="10.74393787047645"><ele>93.0</ele><time>2026-03-28T11:38:08Z</time></trkpt><trkpt lat="45.36233917706892" lon="10.744233160966948"><ele>93.0</ele><time>2026-03-28T11:38:09Z</time></trkpt><trkpt lat="45.3624323797474" lon="10.74452960332498"><ele>93.0</ele><time>2026-03-28T11:38:10Z</time></trkpt><trkpt lat="45.36252787339232" lon="10.744836895202353"><ele>93.0</ele><time>2026-03-28T11:38:11Z</time></trkpt><trkpt lat="45.362622216989216" lon="10.745146395062537"><ele>93.0</ele><time>2026-03-28T11:38:12Z</time></trkpt><trkpt lat="45.36271005269529" lon="10.745451996752195"><ele>93.0</ele><time>2026-03-28T11:38:13Z</time></trkpt><trkpt lat="45.362795883692435" lon="10.745753398108844"><ele>93.0</ele><time>2026-03-28T11:38:14Z</time></trkpt><trkpt lat="45.36288640295021" lon="10.746045929249341"><ele>92.66666666666667</ele><time>2026-03-28T11:38:15Z</time></trkpt><trkpt lat="45.36298431200845" lon="10.74633006040995"><ele>92.33333333333334</ele><time>2026-03-28T11:38:16Z</time></trkpt><trkpt lat="45.363087431221956" lon="10.746606757091504"><ele>92.0</ele><time>2026-03-28T11:38:17Z</time></trkpt><trkpt lat="45.363197951626496" lon="10.746868929119957"><ele>92.0</ele><time>2026-03-28T11:38:18Z</time></trkpt><trkpt lat="45.36332158737771" lon="10.747118904247994"><ele>92.0</ele><time>2026-03-28T11:38:19Z</time></trkpt><trkpt lat="45.36345718711692" lon="10.747357100051685"><ele>92.0</ele><time>2026-03-28T11:38:20Z</time></trkpt><trkpt lat="45.36360063299854" lon="10.747591828956432"><ele>92.0</ele><time>2026-03-28T11:38:21Z</time></trkpt><trkpt lat="45.36373958500107" lon="10.747833514291585"><ele>92.0</ele><time>2026-03-28T11:38:22Z</time></trkpt><trkpt lat="45.363867157754385" lon="10.748094274015344"><ele>92.0</ele><time>2026-03-28T11:38:23Z</time></trkpt><trkpt lat="45.363984409542454" lon="10.748372399995533"><ele>92.5</ele><time>2026-03-28T11:38:24Z</time></trkpt><trkpt lat="45.36409817658459" lon="10.748656816538226"><ele>93.0</ele><time>2026-03-28T11:38:25Z</time></trkpt><trkpt lat="45.36421805665763" lon="10.748944967233424"><ele>93.0</ele><time>2026-03-28T11:38:26Z</time></trkpt><trkpt lat="45.36433782181985" lon="10.749239507411904"><ele>93.0</ele><time>2026-03-28T11:38:27Z</time></trkpt><trkpt lat="45.36446019444941" lon="10.749535668679457"><ele>93.0</ele><time>2026-03-28T11:38:28Z</time></trkpt><trkpt lat="45.36458349506627" lon="10.749831345204852"><ele>93.0</ele><time>2026-03-28T11:38:29Z</time></trkpt><trkpt lat="45.3647080992835" lon="10.750133301277524"><ele>94.5</ele><time>2026-03-28T11:38:30Z</time></trkpt><trkpt lat="45.36483441915734" lon="10.750433262315052"><ele>96.0</ele><time>2026-03-28T11:38:31Z</time></trkpt><trkpt lat="45.364966646288906" lon="10.750723365470298"><ele>96.0</ele><time>2026-03-28T11:38:32Z</time></trkpt><trkpt lat="45.36511279132707" lon="10.751013466785018"><ele>96.0</ele><time>2026-03-28T11:38:33Z</time></trkpt><trkpt lat="45.365259442548144" lon="10.751292977110495"><ele>95.5</ele><time>2026-03-28T11:38:34Z</time></trkpt><trkpt lat="45.36540705369528" lon="10.751569801699452"><ele>95.0</ele><time>2026-03-28T11:38:35Z</time></trkpt><trkpt lat="45.365557120485015" lon="10.751848023497166"><ele>94.5</ele><time>2026-03-28T11:38:36Z</time></trkpt><trkpt lat="45.36570134697377" lon="10.752134270194404"><ele>94.0</ele><time>2026-03-28T11:38:37Z</time></trkpt><trkpt lat="45.3658360364231" lon="10.75242179989116"><ele>94.0</ele><time>2026-03-28T11:38:38Z</time></trkpt><trkpt lat="45.36597047960763" lon="10.752719836582168"><ele>94.0</ele><time>2026-03-28T11:38:39Z</time></trkpt><trkpt lat="45.36609718751086" lon="10.753018977446022"><ele>94.0</ele><time>2026-03-28T11:38:40Z</time></trkpt><trkpt lat="45.36621782386423" lon="10.753319112067029"><ele>94.0</ele><time>2026-03-28T11:38:41Z</time></trkpt><trkpt lat="45.36633131548836" lon="10.753626674158117"><ele>93.5</ele><time>2026-03-28T11:38:42Z</time></trkpt><trkpt lat="45.3664374480353" lon="10.753934143423313"><ele>93.0</ele><time>2026-03-28T11:38:43Z</time></trkpt><trkpt lat="45.36654280616279" lon="10.754239987075602"><ele>94.0</ele><time>2026-03-28T11:38:44Z</time></trkpt><trkpt lat="45.36665584536921" lon="10.754539176725418"><ele>95.0</ele><time>2026-03-28T11:38:45Z</time></trkpt><trkpt lat="45.366748620615034" lon="10.754849170053927"><ele>95.0</ele><time>2026-03-28T11:38:46Z</time></trkpt><trkpt lat="45.36690134822565" lon="10.755116217983511"><ele>95.0</ele><time>2026-03-28T11:38:47Z</time></trkpt><trkpt lat="45.367036827852154" lon="10.755395300701155"><ele>95.0</ele><time>2026-03-28T11:38:48Z</time></trkpt><trkpt lat="45.36716564958624" lon="10.755656458303719"><ele>95.0</ele><time>2026-03-28T11:38:49Z</time></trkpt><trkpt lat="45.36728445970345" lon="10.75590090006563"><ele>95.0</ele><time>2026-03-28T11:38:50Z</time></trkpt><trkpt lat="45.3673925800789" lon="10.756119300040227"><ele>95.0</ele><time>2026-03-28T11:38:51Z</time></trkpt><trkpt lat="45.36749588067733" lon="10.756326429064863"><ele>95.0</ele><time>2026-03-28T11:38:52Z</time></trkpt><trkpt lat="45.367593519902975" lon="10.756517413088291"><ele>95.0</ele><time>2026-03-28T11:38:53Z</time></trkpt><trkpt lat="45.36768455652332" lon="10.756688198243362"><ele>95.0</ele><time>2026-03-28T11:38:54Z</time></trkpt><trkpt lat="45.36776301836631" lon="10.756844637942606"><ele>95.0</ele><time>2026-03-28T11:38:55Z</time></trkpt><trkpt lat="45.36781770872739" lon="10.756995527694293"><ele>95.0</ele><time>2026-03-28T11:38:56Z</time></trkpt><trkpt lat="45.367844024617" lon="10.757150360438645"><ele>95.0</ele><time>2026-03-28T11:38:57Z</time></trkpt><trkpt lat="45.36785349460893" lon="10.75731649310663"><ele>95.25</ele><time>2026-03-28T11:38:58Z</time></trkpt><trkpt lat="45.367864867961615" lon="10.757501996611877"><ele>95.5</ele><time>2026-03-28T11:38:59Z</time></trkpt><trkpt lat="45.3678891735205" lon="10.757710446060829"><ele>95.75</ele><time>2026-03-28T11:39:00Z</time></trkpt><trkpt lat="45.36791395957486" lon="10.75792420576809"><ele>96.0</ele><time>2026-03-28T11:39:01Z</time></trkpt><trkpt lat="45.36795055149311" lon="10.758139648044171"><ele>96.33333333333334</ele><time>2026-03-28T11:39:02Z</time></trkpt><trkpt lat="45.36799444731938" lon="10.758344205630701"><ele>96.66666666666667</ele><time>2026-03-28T11:39:03Z</time></trkpt><trkpt lat="45.3680308910775" lon="10.758559959933907"><ele>97.0</ele><time>2026-03-28T11:39:04Z</time></trkpt><trkpt lat="45.368059217629174" lon="10.75877866572364"><ele>97.0</ele><time>2026-03-28T11:39:05Z</time></trkpt><trkpt lat="45.36809395590945" lon="10.759003160786706"><ele>97.0</ele><time>2026-03-28T11:39:06Z</time></trkpt><trkpt lat="45.36813167077859" lon="10.759238865813705"><ele>97.0</ele><time>2026-03-28T11:39:07Z</time></trkpt><trkpt lat="45.368166126323906" lon="10.759478068075552"><ele>97.0</ele><time>2026-03-28T11:39:08Z</time></trkpt><trkpt lat="45.36819897867223" lon="10.759718811288835"><ele>97.0</ele><time>2026-03-28T11:39:09Z</time></trkpt><trkpt lat="45.36824259354587" lon="10.759973396684487"><ele>97.0</ele><time>2026-03-28T11:39:10Z</time></trkpt><trkpt lat="45.36828122338885" lon="10.760227719759653"><ele>97.5</ele><time>2026-03-28T11:39:11Z</time></trkpt><trkpt lat="45.36832724767483" lon="10.760464477139864"><ele>98.0</ele><time>2026-03-28T11:39:12Z</time></trkpt><trkpt lat="45.368374979018725" lon="10.760658057978775"><ele>98.5</ele><time>2026-03-28T11:39:13Z</time></trkpt><trkpt lat="45.36842157674744" lon="10.760819287095071"><ele>99.0</ele><time>2026-03-28T11:39:14Z</time></trkpt><trkpt lat="45.368466288073186" lon="10.760973625175607"><ele>98.5</ele><time>2026-03-28T11:39:15Z</time></trkpt><trkpt lat="45.36851790939318" lon="10.76113446985415"><ele>98.0</ele><time>2026-03-28T11:39:16Z</time></trkpt><trkpt lat="45.36858103043842" lon="10.761317304335043"><ele>97.5</ele><time>2026-03-28T11:39:17Z</time></trkpt><trkpt lat="45.36865195792203" lon="10.761528216648172"><ele>97.0</ele><time>2026-03-28T11:39:18Z</time></trkpt><trkpt lat="45.36872622723313" lon="10.76176885824989"><ele>97.0</ele><time>2026-03-28T11:39:19Z</time></trkpt><trkpt lat="45.36880629077032" lon="10.762022485010164"><ele>97.0</ele><time>2026-03-28T11:39:20Z</time></trkpt><trkpt lat="45.36889094176766" lon="10.762293921399863"><ele>97.0</ele><time>2026-03-28T11:39:21Z</time></trkpt><trkpt lat="45.36897313963846" lon="10.762579034542384"><ele>96.66666666666667</ele><time>2026-03-28T11:39:22Z</time></trkpt><trkpt lat="45.36904946985758" lon="10.762853336500005"><ele>96.33333333333334</ele><time>2026-03-28T11:39:23Z</time></trkpt><trkpt lat="45.369121676639026" lon="10.763108698349194"><ele>96.0</ele><time>2026-03-28T11:39:24Z</time></trkpt><trkpt lat="45.369181672611184" lon="10.763337800252378"><ele>96.25</ele><time>2026-03-28T11:39:25Z</time></trkpt><trkpt lat="45.36922802762259" lon="10.763538541397399"><ele>96.5</ele><time>2026-03-28T11:39:26Z</time></trkpt><trkpt lat="45.36925472034304" lon="10.763734216024261"><ele>96.75</ele><time>2026-03-28T11:39:27Z</time></trkpt><trkpt lat="45.36926115333281" lon="10.763953412873517"><ele>97.0</ele><time>2026-03-28T11:39:28Z</time></trkpt><trkpt lat="45.369241091383216" lon="10.764197527837274"><ele>97.0</ele><time>2026-03-28T11:39:29Z</time></trkpt><trkpt lat="45.36920995013383" lon="10.76445193156866"><ele>97.0</ele><time>2026-03-28T11:39:30Z</time></trkpt><trkpt lat="45.369194762748506" lon="10.764702201744834"><ele>97.0</ele><time>2026-03-28T11:39:31Z</time></trkpt><trkpt lat="45.36920015876775" lon="10.764927162359344"><ele>97.0</ele><time>2026-03-28T11:39:32Z</time></trkpt><trkpt lat="45.369212830296775" lon="10.765107135961092"><ele>97.0</ele><time>2026-03-28T11:39:33Z</time></trkpt><trkpt lat="45.36922175688919" lon="10.765217724959268"><ele>97.0</ele><time>2026-03-28T11:39:34Z</time></trkpt><trkpt lat="45.369168987365605" lon="10.76533006498408"><ele>97.0</ele><time>2026-03-28T11:39:37Z</time></trkpt><trkpt lat="45.36914573716339" lon="10.765428233489375"><ele>97.0</ele><time>2026-03-28T11:39:38Z</time></trkpt><trkpt lat="45.369082178285645" lon="10.76554761344962"><ele>97.0</ele><time>2026-03-28T11:39:39Z</time></trkpt><trkpt lat="45.36902487541913" lon="10.765701961601994"><ele>97.0</ele><time>2026-03-28T11:39:40Z</time></trkpt><trkpt lat="45.36895932647632" lon="10.765887378984043"><ele>97.0</ele><time>2026-03-28T11:39:41Z</time></trkpt><trkpt lat="45.36888189198728" lon="10.766096959388248"><ele>97.0</ele><time>2026-03-28T11:39:42Z</time></trkpt><trkpt lat="45.36880183806309" lon="10.766315828161428"><ele>95.66666666666667</ele><time>2026-03-28T11:39:43Z</time></trkpt><trkpt lat="45.368730243347635" lon="10.766541054210494"><ele>94.33333333333334</ele><time>2026-03-28T11:39:44Z</time></trkpt><trkpt lat="45.36866141144044" lon="10.766767017800072"><ele>93.0</ele><time>2026-03-28T11:39:45Z</time></trkpt><trkpt lat="45.36860496559394" lon="10.766964824562839"><ele>93.0</ele><time>2026-03-28T11:39:46Z</time></trkpt><trkpt lat="45.36855521306624" lon="10.767145544378998"><ele>93.0</ele><time>2026-03-28T11:39:47Z</time></trkpt><trkpt lat="45.368511618250594" lon="10.767307443056826"><ele>93.0</ele><time>2026-03-28T11:39:48Z</time></trkpt><trkpt lat="45.3684727486218" lon="10.76748488132255"><ele>93.0</ele><time>2026-03-28T11:39:49Z</time></trkpt><trkpt lat="45.36843350203713" lon="10.767665452387114"><ele>93.0</ele><time>2026-03-28T11:39:50Z</time></trkpt><trkpt lat="45.36840337845215" lon="10.76782132067169"><ele>93.0</ele><time>2026-03-28T11:39:51Z</time></trkpt><trkpt lat="45.36837466395361" lon="10.768004677411705"><ele>93.0</ele><time>2026-03-28T11:39:52Z</time></trkpt><trkpt lat="45.36834897717626" lon="10.768204684991408"><ele>93.0</ele><time>2026-03-28T11:39:53Z</time></trkpt><trkpt lat="45.36832819400216" lon="10.76840574818632"><ele>93.2</ele><time>2026-03-28T11:39:54Z</time></trkpt><trkpt lat="45.36832073450688" lon="10.768560809202285"><ele>93.4</ele><time>2026-03-28T11:39:55Z</time></trkpt><trkpt lat="45.36830646567752" lon="10.76872240295255"><ele>93.60000000000001</ele><time>2026-03-28T11:39:56Z</time></trkpt><trkpt lat="45.3682974647983" lon="10.768860975799441"><ele>93.80000000000001</ele><time>2026-03-28T11:39:57Z</time></trkpt><trkpt lat="45.368277525030095" lon="10.769016797764662"><ele>94.0</ele><time>2026-03-28T11:39:58Z</time></trkpt><trkpt lat="45.36825718341348" lon="10.769188496473145"><ele>94.0</ele><time>2026-03-28T11:39:59Z</time></trkpt><trkpt lat="45.36825236995443" lon="10.769349719463234"><ele>94.0</ele><time>2026-03-28T11:40:00Z</time></trkpt><trkpt lat="45.36824489165832" lon="10.769492321126664"><ele>94.0</ele><time>2026-03-28T11:40:01Z</time></trkpt><trkpt lat="45.36824148569547" lon="10.769642456194266"><ele>94.0</ele><time>2026-03-28T11:40:02Z</time></trkpt><trkpt lat="45.368250898989906" lon="10.769813830049053"><ele>94.0</ele><time>2026-03-28T11:40:03Z</time></trkpt><trkpt lat="45.36826365483535" lon="10.769987513081203"><ele>94.25</ele><time>2026-03-28T11:40:04Z</time></trkpt><trkpt lat="45.36827429784273" lon="10.77016212201533"><ele>94.5</ele><time>2026-03-28T11:40:05Z</time></trkpt><trkpt lat="45.36827372993164" lon="10.77032827405763"><ele>94.75</ele><time>2026-03-28T11:40:06Z</time></trkpt><trkpt lat="45.368261390634316" lon="10.770509420531617"><ele>95.0</ele><time>2026-03-28T11:40:07Z</time></trkpt><trkpt lat="45.368238965748446" lon="10.770703782980764"><ele>95.0</ele><time>2026-03-28T11:40:08Z</time></trkpt><trkpt lat="45.368207184909565" lon="10.770884779056178"><ele>95.0</ele><time>2026-03-28T11:40:09Z</time></trkpt><trkpt lat="45.36817640285057" lon="10.771062124480476"><ele>95.0</ele><time>2026-03-28T11:40:10Z</time></trkpt><trkpt lat="45.368148653198524" lon="10.771246656554217"><ele>95.0</ele><time>2026-03-28T11:40:11Z</time></trkpt><trkpt lat="45.368118859516834" lon="10.771427215841465"><ele>95.5</ele><time>2026-03-28T11:40:12Z</time></trkpt><trkpt lat="45.36805455499489" lon="10.77158362695508"><ele>96.0</ele><time>2026-03-28T11:40:13Z</time></trkpt><trkpt lat="45.36801500793588" lon="10.771741909531537"><ele>96.5</ele><time>2026-03-28T11:40:14Z</time></trkpt><trkpt lat="45.3679629822593" lon="10.771886377808089"><ele>97.0</ele><time>2026-03-28T11:40:15Z</time></trkpt><trkpt lat="45.36791768333834" lon="10.772045849773896"><ele>95.75</ele><time>2026-03-28T11:40:16Z</time></trkpt><trkpt lat="45.36787469702209" lon="10.772233561896801"><ele>94.5</ele><time>2026-03-28T11:40:17Z</time></trkpt><trkpt lat="45.36783437321794" lon="10.772448417001947"><ele>93.25</ele><time>2026-03-28T11:40:18Z</time></trkpt><trkpt lat="45.367804462729325" lon="10.77265280027982"><ele>92.0</ele><time>2026-03-28T11:40:19Z</time></trkpt><trkpt lat="45.36778138136751" lon="10.772838047879349"><ele>91.75</ele><time>2026-03-28T11:40:20Z</time></trkpt><trkpt lat="45.36775913679467" lon="10.773015902418194"><ele>91.5</ele><time>2026-03-28T11:40:21Z</time></trkpt><trkpt lat="45.367741026747304" lon="10.773207412355951"><ele>91.25</ele><time>2026-03-28T11:40:22Z</time></trkpt><trkpt lat="45.36771947276392" lon="10.773381563070366"><ele>91.0</ele><time>2026-03-28T11:40:23Z</time></trkpt><trkpt lat="45.36769501548052" lon="10.773555376331755"><ele>91.75</ele><time>2026-03-28T11:40:24Z</time></trkpt><trkpt lat="45.367669045051024" lon="10.773739440885352"><ele>92.5</ele><time>2026-03-28T11:40:25Z</time></trkpt><trkpt lat="45.36764640505518" lon="10.773926094162439"><ele>93.25</ele><time>2026-03-28T11:40:26Z</time></trkpt><trkpt lat="45.36762951999906" lon="10.774097833968575"><ele>94.0</ele><time>2026-03-28T11:40:27Z</time></trkpt><trkpt lat="45.367611841019176" lon="10.774309376985165"><ele>94.0</ele><time>2026-03-28T11:40:28Z</time></trkpt><trkpt lat="45.36758520449247" lon="10.774526957175977"><ele>94.0</ele><time>2026-03-28T11:40:29Z</time></trkpt><trkpt lat="45.367561770650546" lon="10.774748333071688"><ele>94.0</ele><time>2026-03-28T11:40:30Z</time></trkpt><trkpt lat="45.36754223077341" lon="10.77497860297928"><ele>94.0</ele><time>2026-03-28T11:40:31Z</time></trkpt><trkpt lat="45.36752830687998" lon="10.775172264180293"><ele>94.0</ele><time>2026-03-28T11:40:32Z</time></trkpt><trkpt lat="45.36750723123976" lon="10.775373072880189"><ele>94.0</ele><time>2026-03-28T11:40:33Z</time></trkpt><trkpt lat="45.36748674654951" lon="10.775564164781805"><ele>94.0</ele><time>2026-03-28T11:40:34Z</time></trkpt><trkpt lat="45.36747207206754" lon="10.7757606306536"><ele>94.0</ele><time>2026-03-28T11:40:35Z</time></trkpt><trkpt lat="45.367454955597935" lon="10.775967116056817"><ele>94.0</ele><time>2026-03-28T11:40:36Z</time></trkpt><trkpt lat="45.367436653072325" lon="10.776175304071497"><ele>94.0</ele><time>2026-03-28T11:40:37Z</time></trkpt><trkpt lat="45.367421498478805" lon="10.776375407883323"><ele>94.0</ele><time>2026-03-28T11:40:38Z</time></trkpt><trkpt lat="45.36740702365039" lon="10.776580233536198"><ele>94.25</ele><time>2026-03-28T11:40:39Z</time></trkpt><trkpt lat="45.367395722117394" lon="10.776785045785598"><ele>94.5</ele><time>2026-03-28T11:40:40Z</time></trkpt><trkpt lat="45.36739663360409" lon="10.776966607538176"><ele>94.75</ele><time>2026-03-28T11:40:41Z</time></trkpt><trkpt lat="45.36740237769659" lon="10.777159233427174"><ele>95.0</ele><time>2026-03-28T11:40:42Z</time></trkpt><trkpt lat="45.367415205000725" lon="10.777348798330728"><ele>94.5</ele><time>2026-03-28T11:40:43Z</time></trkpt><trkpt lat="45.36742837952558" lon="10.777551876703157"><ele>94.0</ele><time>2026-03-28T11:40:44Z</time></trkpt><trkpt lat="45.36745211156454" lon="10.777749318190269"><ele>93.5</ele><time>2026-03-28T11:40:45Z</time></trkpt><trkpt lat="45.367475593036616" lon="10.777933074293394"><ele>93.0</ele><time>2026-03-28T11:40:46Z</time></trkpt><trkpt lat="45.36749306724887" lon="10.778104174800333"><ele>92.4</ele><time>2026-03-28T11:40:47Z</time></trkpt><trkpt lat="45.36750638880962" lon="10.778254669870245"><ele>91.80000000000001</ele><time>2026-03-28T11:40:48Z</time></trkpt><trkpt lat="45.367498055743994" lon="10.778390761658525"><ele>91.2</ele><time>2026-03-28T11:40:49Z</time></trkpt><trkpt lat="45.36747100931772" lon="10.778536146298444"><ele>90.6</ele><time>2026-03-28T11:40:50Z</time></trkpt><trkpt lat="45.36742397642056" lon="10.778695429176816"><ele>90.0</ele><time>2026-03-28T11:40:51Z</time></trkpt><trkpt lat="45.36737472449895" lon="10.778880433570526"><ele>89.6</ele><time>2026-03-28T11:40:52Z</time></trkpt><trkpt lat="45.367322357978814" lon="10.779075563612203"><ele>89.2</ele><time>2026-03-28T11:40:53Z</time></trkpt><trkpt lat="45.36727816605253" lon="10.77923721116378"><ele>88.80000000000001</ele><time>2026-03-28T11:40:54Z</time></trkpt><trkpt lat="45.36724370488094" lon="10.779365295275326"><ele>88.4</ele><time>2026-03-28T11:40:55Z</time></trkpt><trkpt lat="45.36721576266901" lon="10.779462261913839"><ele>88.0</ele><time>2026-03-28T11:40:56Z</time></trkpt><trkpt lat="45.36723090371704" lon="10.779580945746314"><ele>87.80000000000001</ele><time>2026-03-28T11:40:58Z</time></trkpt><trkpt lat="45.367333724108185" lon="10.779647193455242"><ele>87.6</ele><time>2026-03-28T11:41:00Z</time></trkpt><trkpt lat="45.36740990490746" lon="10.779669178225534"><ele>87.4</ele><time>2026-03-28T11:41:01Z</time></trkpt><trkpt lat="45.367503321027826" lon="10.779693781225621"><ele>87.19999999999999</ele><time>2026-03-28T11:41:02Z</time></trkpt><trkpt lat="45.367620853084574" lon="10.77972966079084"><ele>87.0</ele><time>2026-03-28T11:41:03Z</time></trkpt><trkpt lat="45.36773853412253" lon="10.779775591331099"><ele>87.0</ele><time>2026-03-28T11:41:04Z</time></trkpt><trkpt lat="45.36785842452386" lon="10.779828206235408"><ele>87.0</ele><time>2026-03-28T11:41:05Z</time></trkpt><trkpt lat="45.367979788212736" lon="10.77987475733285"><ele>87.0</ele><time>2026-03-28T11:41:06Z</time></trkpt><trkpt lat="45.368103388890574" lon="10.779920135165352"><ele>87.0</ele><time>2026-03-28T11:41:07Z</time></trkpt><trkpt lat="45.36823555060425" lon="10.779965483336838"><ele>88.0</ele><time>2026-03-28T11:41:08Z</time></trkpt><trkpt lat="45.368377682712044" lon="10.780009564085999"><ele>89.0</ele><time>2026-03-28T11:41:09Z</time></trkpt><trkpt lat="45.368524705505806" lon="10.780074496595311"><ele>90.0</ele><time>2026-03-28T11:41:10Z</time></trkpt><trkpt lat="45.368669050847814" lon="10.78012791096638"><ele>91.0</ele><time>2026-03-28T11:41:11Z</time></trkpt><trkpt lat="45.36881758066272" lon="10.780188334339337"><ele>91.33333333333333</ele><time>2026-03-28T11:41:12Z</time></trkpt><trkpt lat="45.36896780726181" lon="10.780251508810348"><ele>91.66666666666667</ele><time>2026-03-28T11:41:13Z</time></trkpt><trkpt lat="45.36911600026981" lon="10.780313319681076"><ele>92.0</ele><time>2026-03-28T11:41:14Z</time></trkpt><trkpt lat="45.3692682268426" lon="10.780377740401102"><ele>92.0</ele><time>2026-03-28T11:41:15Z</time></trkpt><trkpt lat="45.369416469877805" lon="10.780446300848375"><ele>92.0</ele><time>2026-03-28T11:41:16Z</time></trkpt><trkpt lat="45.36955651972474" lon="10.780502179740274"><ele>92.0</ele><time>2026-03-28T11:41:17Z</time></trkpt><trkpt lat="45.369681127062705" lon="10.780559641666075"><ele>92.0</ele><time>2026-03-28T11:41:18Z</time></trkpt><trkpt lat="45.36979493455487" lon="10.78062662294168"><ele>92.0</ele><time>2026-03-28T11:41:19Z</time></trkpt><trkpt lat="45.36989740462864" lon="10.780705713490818"><ele>92.0</ele><time>2026-03-28T11:41:20Z</time></trkpt><trkpt lat="45.369987786243705" lon="10.78078545322947"><ele>92.0</ele><time>2026-03-28T11:41:21Z</time></trkpt><trkpt lat="45.370062265474736" lon="10.780871720500809"><ele>92.0</ele><time>2026-03-28T11:41:22Z</time></trkpt><trkpt lat="45.37013177043182" lon="10.78097197552804"><ele>92.0</ele><time>2026-03-28T11:41:23Z</time></trkpt><trkpt lat="45.370176543461234" lon="10.781062266496878"><ele>92.0</ele><time>2026-03-28T11:41:24Z</time></trkpt><trkpt lat="45.37022775911482" lon="10.78116302762534"><ele>92.0</ele><time>2026-03-28T11:41:25Z</time></trkpt><trkpt lat="45.37028308728914" lon="10.781246886010273"><ele>92.0</ele><time>2026-03-28T11:41:26Z</time></trkpt><trkpt lat="45.37035661386157" lon="10.78130116946986"><ele>92.0</ele><time>2026-03-28T11:41:27Z</time></trkpt><trkpt lat="45.37045942892823" lon="10.781341091084773"><ele>92.0</ele><time>2026-03-28T11:41:28Z</time></trkpt><trkpt lat="45.37057307165162" lon="10.781373742732027"><ele>91.6</ele><time>2026-03-28T11:41:29Z</time></trkpt><trkpt lat="45.370682225695276" lon="10.781407276462938"><ele>91.19999999999999</ele><time>2026-03-28T11:41:30Z</time></trkpt><trkpt lat="45.3707788429502" lon="10.781443534159662"><ele>90.8</ele><time>2026-03-28T11:41:31Z</time></trkpt><trkpt lat="45.37087598046454" lon="10.781486391434267"><ele>90.4</ele><time>2026-03-28T11:41:32Z</time></trkpt><trkpt lat="45.37097079167889" lon="10.781542845952924"><ele>90.0</ele><time>2026-03-28T11:41:33Z</time></trkpt><trkpt lat="45.37107459644749" lon="10.781630561293488"><ele>90.0</ele><time>2026-03-28T11:41:34Z</time></trkpt><trkpt lat="45.37118306871065" lon="10.781738656464476"><ele>90.0</ele><time>2026-03-28T11:41:35Z</time></trkpt><trkpt lat="45.37127517303286" lon="10.781854011097131"><ele>90.0</ele><time>2026-03-28T11:41:36Z</time></trkpt><trkpt lat="45.37136301766508" lon="10.78196215311164"><ele>90.0</ele><time>2026-03-28T11:41:37Z</time></trkpt><trkpt lat="45.371452053211826" lon="10.782054834835659"><ele>89.25</ele><time>2026-03-28T11:41:38Z</time></trkpt><trkpt lat="45.37155102505166" lon="10.782120977701108"><ele>88.5</ele><time>2026-03-28T11:41:39Z</time></trkpt><trkpt lat="45.3716448091922" lon="10.782198964062125"><ele>87.75</ele><time>2026-03-28T11:41:40Z</time></trkpt><trkpt lat="45.37175256201216" lon="10.78227591940858"><ele>87.0</ele><time>2026-03-28T11:41:41Z</time></trkpt><trkpt lat="45.371856236603136" lon="10.782365869288462"><ele>87.0</ele><time>2026-03-28T11:41:42Z</time></trkpt><trkpt lat="45.37196310036067" lon="10.782455935117063"><ele>87.0</ele><time>2026-03-28T11:41:43Z</time></trkpt><trkpt lat="45.372059685297316" lon="10.782570804747373"><ele>87.0</ele><time>2026-03-28T11:41:44Z</time></trkpt><trkpt lat="45.37217437357681" lon="10.782674728610653"><ele>87.0</ele><time>2026-03-28T11:41:45Z</time></trkpt><trkpt lat="45.37228472031879" lon="10.782807147582387"><ele>85.25</ele><time>2026-03-28T11:41:46Z</time></trkpt><trkpt lat="45.3723855575858" lon="10.782943735175225"><ele>83.5</ele><time>2026-03-28T11:41:47Z</time></trkpt><trkpt lat="45.37249474998728" lon="10.78308386162299"><ele>81.75</ele><time>2026-03-28T11:41:48Z</time></trkpt><trkpt lat="45.37259267952739" lon="10.783218936943125"><ele>80.0</ele><time>2026-03-28T11:41:49Z</time></trkpt><trkpt lat="45.37268437420844" lon="10.78333303393616"><ele>80.0</ele><time>2026-03-28T11:41:50Z</time></trkpt><trkpt lat="45.37278825792232" lon="10.783437603113848"><ele>80.0</ele><time>2026-03-28T11:41:51Z</time></trkpt><trkpt lat="45.372909013241944" lon="10.7835294397132"><ele>80.0</ele><time>2026-03-28T11:41:52Z</time></trkpt><trkpt lat="45.373024217123394" lon="10.783611277736513"><ele>80.0</ele><time>2026-03-28T11:41:53Z</time></trkpt><trkpt lat="45.37314154463798" lon="10.783678641856577"><ele>76.66666666666667</ele><time>2026-03-28T11:41:54Z</time></trkpt><trkpt lat="45.373272358674896" lon="10.783725821166042"><ele>73.33333333333333</ele><time>2026-03-28T11:41:55Z</time></trkpt><trkpt lat="45.373428775065214" lon="10.783736025186352"><ele>70.0</ele><time>2026-03-28T11:41:56Z</time></trkpt><trkpt lat="45.373592924858386" lon="10.783735403911884"><ele>70.0</ele><time>2026-03-28T11:41:57Z</time></trkpt><trkpt lat="45.373768397124294" lon="10.783747027156872"><ele>70.0</ele><time>2026-03-28T11:41:58Z</time></trkpt><trkpt lat="45.37392768447239" lon="10.783778849354643"><ele>70.0</ele><time>2026-03-28T11:41:59Z</time></trkpt><trkpt lat="45.37407073161086" lon="10.783795355724905"><ele>70.0</ele><time>2026-03-28T11:42:00Z</time></trkpt><trkpt lat="45.37419472484471" lon="10.78380125927463"><ele>70.0</ele><time>2026-03-28T11:42:01Z</time></trkpt><trkpt lat="45.37429988293114" lon="10.783817618923997"><ele>70.0</ele><time>2026-03-28T11:42:02Z</time></trkpt><trkpt lat="45.37439027530958" lon="10.783835154731074"><ele>70.0</ele><time>2026-03-28T11:42:03Z</time></trkpt><trkpt lat="45.37445315403128" lon="10.783841693651166"><ele>70.0</ele><time>2026-03-28T11:42:04Z</time></trkpt><trkpt lat="45.37452077112045" lon="10.783861055193654"><ele>70.0</ele><time>2026-03-28T11:42:06Z</time></trkpt><trkpt lat="45.37457760076457" lon="10.78371143305665"><ele>70.0</ele><time>2026-03-28T11:42:07Z</time></trkpt><trkpt lat="45.37464577152226" lon="10.783596490139026"><ele>70.0</ele><time>2026-03-28T11:42:08Z</time></trkpt><trkpt lat="45.3747395739887" lon="10.783432764388944"><ele>70.0</ele><time>2026-03-28T11:42:09Z</time></trkpt><trkpt lat="45.37486760056372" lon="10.783296346110399"><ele>70.33333333333333</ele><time>2026-03-28T11:42:10Z</time></trkpt><trkpt lat="45.375000018217634" lon="10.783160636960064"><ele>70.66666666666667</ele><time>2026-03-28T11:42:11Z</time></trkpt><trkpt lat="45.37516220393875" lon="10.783090315234942"><ele>71.0</ele><time>2026-03-28T11:42:12Z</time></trkpt><trkpt lat="45.37534837535339" lon="10.783030998052878"><ele>70.33333333333334</ele><time>2026-03-28T11:42:13Z</time></trkpt><trkpt lat="45.37554697431179" lon="10.78297803978073"><ele>69.66666666666667</ele><time>2026-03-28T11:42:14Z</time></trkpt><trkpt lat="45.37573520167646" lon="10.782890847324332"><ele>69.0</ele><time>2026-03-28T11:42:15Z</time></trkpt><trkpt lat="45.37589774863928" lon="10.782812422221845"><ele>69.0</ele><time>2026-03-28T11:42:16Z</time></trkpt><trkpt lat="45.37603250745655" lon="10.782700431503487"><ele>69.0</ele><time>2026-03-28T11:42:17Z</time></trkpt><trkpt lat="45.376156590886275" lon="10.782544373762665"><ele>69.0</ele><time>2026-03-28T11:42:18Z</time></trkpt><trkpt lat="45.376282401932144" lon="10.78232767994272"><ele>69.5</ele><time>2026-03-28T11:42:19Z</time></trkpt><trkpt lat="45.37643278927805" lon="10.782076325895188"><ele>70.0</ele><time>2026-03-28T11:42:20Z</time></trkpt><trkpt lat="45.37656709108588" lon="10.781793073133283"><ele>71.33333333333333</ele><time>2026-03-28T11:42:21Z</time></trkpt><trkpt lat="45.3766758899377" lon="10.78153534952952"><ele>72.66666666666667</ele><time>2026-03-28T11:42:22Z</time></trkpt><trkpt lat="45.37677183910825" lon="10.781271375958491"><ele>74.0</ele><time>2026-03-28T11:42:23Z</time></trkpt><trkpt lat="45.37686135345415" lon="10.780974946908803"><ele>75.0</ele><time>2026-03-28T11:42:24Z</time></trkpt><trkpt lat="45.37693678505145" lon="10.780649911670631"><ele>76.0</ele><time>2026-03-28T11:42:25Z</time></trkpt><trkpt lat="45.376991361213165" lon="10.780312942743628"><ele>78.66666666666666</ele><time>2026-03-28T11:42:26Z</time></trkpt><trkpt lat="45.37703915927537" lon="10.780005122986617"><ele>81.33333333333333</ele><time>2026-03-28T11:42:27Z</time></trkpt><trkpt lat="45.37708625656109" lon="10.779717112048742"><ele>84.0</ele><time>2026-03-28T11:42:28Z</time></trkpt><trkpt lat="45.37714647329588" lon="10.77943030281997"><ele>82.33333333333333</ele><time>2026-03-28T11:42:29Z</time></trkpt><trkpt lat="45.37722383730766" lon="10.77914520645717"><ele>80.66666666666666</ele><time>2026-03-28T11:42:30Z</time></trkpt><trkpt lat="45.37731393119567" lon="10.778837013956032"><ele>79.0</ele><time>2026-03-28T11:42:31Z</time></trkpt><trkpt lat="45.377413196256285" lon="10.778513586500452"><ele>79.0</ele><time>2026-03-28T11:42:32Z</time></trkpt><trkpt lat="45.377504584401336" lon="10.778220119880533"><ele>79.0</ele><time>2026-03-28T11:42:33Z</time></trkpt><trkpt lat="45.37759494890386" lon="10.777980768703836"><ele>79.0</ele><time>2026-03-28T11:42:34Z</time></trkpt><trkpt lat="45.37769852344854" lon="10.777760531700672"><ele>80.75</ele><time>2026-03-28T11:42:35Z</time></trkpt><trkpt lat="45.377796163346126" lon="10.777553824617708"><ele>82.5</ele><time>2026-03-28T11:42:36Z</time></trkpt><trkpt lat="45.377874399357395" lon="10.777392027210569"><ele>84.25</ele><time>2026-03-28T11:42:37Z</time></trkpt><trkpt lat="45.37793580843949" lon="10.777275700605614"><ele>86.0</ele><time>2026-03-28T11:42:38Z</time></trkpt><trkpt lat="45.37799099559272" lon="10.77719755258412"><ele>83.25</ele><time>2026-03-28T11:42:39Z</time></trkpt><trkpt lat="45.37806805784199" lon="10.777148268070409"><ele>80.5</ele><time>2026-03-28T11:42:40Z</time></trkpt><trkpt lat="45.37817717424058" lon="10.777118203607591"><ele>77.75</ele><time>2026-03-28T11:42:41Z</time></trkpt><trkpt lat="45.37829108370986" lon="10.777209807151447"><ele>75.0</ele><time>2026-03-28T11:42:42Z</time></trkpt><trkpt lat="45.37843345354035" lon="10.777294182725747"><ele>75.0</ele><time>2026-03-28T11:42:43Z</time></trkpt><trkpt lat="45.378561298609775" lon="10.77740211345864"><ele>75.0</ele><time>2026-03-28T11:42:44Z</time></trkpt><trkpt lat="45.37868153918759" lon="10.777440775992032"><ele>75.0</ele><time>2026-03-28T11:42:45Z</time></trkpt><trkpt lat="45.378792357124375" lon="10.777412787270286"><ele>75.0</ele><time>2026-03-28T11:42:46Z</time></trkpt><trkpt lat="45.37891954064453" lon="10.777328461352832"><ele>74.33333333333333</ele><time>2026-03-28T11:42:47Z</time></trkpt><trkpt lat="45.37909300689482" lon="10.777204113963775"><ele>73.66666666666666</ele><time>2026-03-28T11:42:48Z</time></trkpt><trkpt lat="45.37930980834472" lon="10.77709490700636"><ele>73.0</ele><time>2026-03-28T11:42:49Z</time></trkpt><trkpt lat="45.37953328555996" lon="10.776954068514913"><ele>75.0</ele><time>2026-03-28T11:42:50Z</time></trkpt><trkpt lat="45.37975857540497" lon="10.776781710455312"><ele>77.0</ele><time>2026-03-28T11:42:51Z</time></trkpt><trkpt lat="45.37995817683234" lon="10.77660241895687"><ele>77.0</ele><time>2026-03-28T11:42:52Z</time></trkpt><trkpt lat="45.38015863960672" lon="10.776450590578957"><ele>77.0</ele><time>2026-03-28T11:42:53Z</time></trkpt><trkpt lat="45.38038255822752" lon="10.776323467897251"><ele>76.5</ele><time>2026-03-28T11:42:54Z</time></trkpt><trkpt lat="45.380623680854626" lon="10.77620534027069"><ele>76.0</ele><time>2026-03-28T11:42:55Z</time></trkpt><trkpt lat="45.38087159240455" lon="10.77608763000467"><ele>77.5</ele><time>2026-03-28T11:42:56Z</time></trkpt><trkpt lat="45.381129584233925" lon="10.775967126659662"><ele>79.0</ele><time>2026-03-28T11:42:57Z</time></trkpt><trkpt lat="45.38135606792442" lon="10.775824652277198"><ele>79.0</ele><time>2026-03-28T11:42:58Z</time></trkpt><trkpt lat="45.381557202995815" lon="10.775699658046465"><ele>79.0</ele><time>2026-03-28T11:42:59Z</time></trkpt><trkpt lat="45.38172107359515" lon="10.775594239895316"><ele>79.0</ele><time>2026-03-28T11:43:00Z</time></trkpt><trkpt lat="45.38183316154182" lon="10.775504860682922"><ele>79.0</ele><time>2026-03-28T11:43:01Z</time></trkpt><trkpt lat="45.38191054166615" lon="10.775429618794545"><ele>79.0</ele><time>2026-03-28T11:43:02Z</time></trkpt><trkpt lat="45.381954031114184" lon="10.77530551696345"><ele>79.0</ele><time>2026-03-28T11:43:03Z</time></trkpt><trkpt lat="45.381936466202326" lon="10.775142192664127"><ele>79.0</ele><time>2026-03-28T11:43:04Z</time></trkpt><trkpt lat="45.381882655312914" lon="10.774976616820515"><ele>79.0</ele><time>2026-03-28T11:43:05Z</time></trkpt><trkpt lat="45.381825752506394" lon="10.774751593792365"><ele>81.0</ele><time>2026-03-28T11:43:06Z</time></trkpt><trkpt lat="45.38174505419527" lon="10.774511358353514"><ele>83.0</ele><time>2026-03-28T11:43:07Z</time></trkpt><trkpt lat="45.38169017579211" lon="10.774308398042182"><ele>85.0</ele><time>2026-03-28T11:43:08Z</time></trkpt><trkpt lat="45.381682544027946" lon="10.774127633144783"><ele>88.33333333333333</ele><time>2026-03-28T11:43:09Z</time></trkpt><trkpt lat="45.38168594109123" lon="10.77391068768493"><ele>91.66666666666667</ele><time>2026-03-28T11:43:10Z</time></trkpt><trkpt lat="45.381686895543005" lon="10.773665602676877"><ele>95.0</ele><time>2026-03-28T11:43:11Z</time></trkpt><trkpt lat="45.38167738324514" lon="10.773399269437155"><ele>96.0</ele><time>2026-03-28T11:43:12Z</time></trkpt><trkpt lat="45.381667771146894" lon="10.77316941887516"><ele>97.0</ele><time>2026-03-28T11:43:13Z</time></trkpt><trkpt lat="45.381680935045594" lon="10.772981346878696"><ele>98.0</ele><time>2026-03-28T11:43:14Z</time></trkpt><trkpt lat="45.381720052735616" lon="10.772802891707684"><ele>99.0</ele><time>2026-03-28T11:43:15Z</time></trkpt><trkpt lat="45.38177757441311" lon="10.772607521696697"><ele>99.25</ele><time>2026-03-28T11:43:16Z</time></trkpt><trkpt lat="45.38183123824063" lon="10.772433492211901"><ele>99.5</ele><time>2026-03-28T11:43:17Z</time></trkpt><trkpt lat="45.3818874871746" lon="10.772258942740821"><ele>99.75</ele><time>2026-03-28T11:43:18Z</time></trkpt><trkpt lat="45.38195736195883" lon="10.772042110078955"><ele>100.0</ele><time>2026-03-28T11:43:19Z</time></trkpt><trkpt lat="45.3820301762475" lon="10.771816195137186"><ele>100.66666666666667</ele><time>2026-03-28T11:43:20Z</time></trkpt><trkpt lat="45.382097974905925" lon="10.771558577259823"><ele>101.33333333333334</ele><time>2026-03-28T11:43:21Z</time></trkpt><trkpt lat="45.38221101330074" lon="10.771343326619348"><ele>102.0</ele><time>2026-03-28T11:43:22Z</time></trkpt><trkpt lat="45.382334741717905" lon="10.77115688793464"><ele>104.66666666666666</ele><time>2026-03-28T11:43:23Z</time></trkpt><trkpt lat="45.382470455846345" lon="10.770952908150838"><ele>107.33333333333333</ele><time>2026-03-28T11:43:24Z</time></trkpt><trkpt lat="45.38258843016947" lon="10.770772457030368"><ele>110.0</ele><time>2026-03-28T11:43:25Z</time></trkpt><trkpt lat="45.382678670543875" lon="10.770621150813199"><ele>110.0</ele><time>2026-03-28T11:43:26Z</time></trkpt><trkpt lat="45.382707353383765" lon="10.770515030687044"><ele>110.0</ele><time>2026-03-28T11:43:27Z</time></trkpt><trkpt lat="45.38277381392792" lon="10.770471094038864"><ele>110.0</ele><time>2026-03-28T11:43:29Z</time></trkpt><trkpt lat="45.3828681472708" lon="10.77063443604786"><ele>110.0</ele><time>2026-03-28T11:43:31Z</time></trkpt><trkpt lat="45.38294363325895" lon="10.770801644496352"><ele>110.0</ele><time>2026-03-28T11:43:32Z</time></trkpt><trkpt lat="45.38302969634782" lon="10.77099235665128"><ele>111.0</ele><time>2026-03-28T11:43:33Z</time></trkpt><trkpt lat="45.383125611873524" lon="10.77119350545235"><ele>112.0</ele><time>2026-03-28T11:43:34Z</time></trkpt><trkpt lat="45.38323067846366" lon="10.771383518134888"><ele>113.0</ele><time>2026-03-28T11:43:35Z</time></trkpt><trkpt lat="45.38334218724062" lon="10.771549308984929"><ele>113.0</ele><time>2026-03-28T11:43:36Z</time></trkpt><trkpt lat="45.383468235921065" lon="10.771713705468354"><ele>113.0</ele><time>2026-03-28T11:43:37Z</time></trkpt><trkpt lat="45.3836234005558" lon="10.771892337972476"><ele>113.0</ele><time>2026-03-28T11:43:38Z</time></trkpt><trkpt lat="45.38380684168669" lon="10.772092330383956"><ele>115.0</ele><time>2026-03-28T11:43:39Z</time></trkpt><trkpt lat="45.38400421182062" lon="10.77230262605903"><ele>117.0</ele><time>2026-03-28T11:43:40Z</time></trkpt><trkpt lat="45.3841733653918" lon="10.772478585054275"><ele>117.0</ele><time>2026-03-28T11:43:41Z</time></trkpt><trkpt lat="45.38431909947657" lon="10.772634395401914"><ele>117.0</ele><time>2026-03-28T11:43:42Z</time></trkpt><trkpt lat="45.384436517972986" lon="10.772771252966862"><ele>117.0</ele><time>2026-03-28T11:43:43Z</time></trkpt><trkpt lat="45.3845346952013" lon="10.772874501175542"><ele>117.0</ele><time>2026-03-28T11:43:44Z</time></trkpt><trkpt lat="45.38461109453241" lon="10.77295168553878"><ele>116.99999999999999</ele><time>2026-03-28T11:43:45Z</time></trkpt><trkpt lat="45.3846729552386" lon="10.772995475873213"><ele>116.99999999999999</ele><time>2026-03-28T11:43:46Z</time></trkpt><trkpt lat="45.38473541525689" lon="10.773087899705004"><ele>117.0</ele><time>2026-03-28T11:43:47Z</time></trkpt><trkpt lat="45.38481674116648" lon="10.773177065226886"><ele>117.0</ele><time>2026-03-28T11:43:48Z</time></trkpt><trkpt lat="45.38498468822661" lon="10.773124741389394"><ele>117.0</ele><time>2026-03-28T11:43:49Z</time></trkpt><trkpt lat="45.38510337043295" lon="10.773161927150642"><ele>116.99999999999999</ele><time>2026-03-28T11:43:50Z</time></trkpt><trkpt lat="45.38521348745598" lon="10.773189035623528"><ele>116.99999999999999</ele><time>2026-03-28T11:43:51Z</time></trkpt><trkpt lat="45.3853121268113" lon="10.773208786447636"><ele>117.0</ele><time>2026-03-28T11:43:52Z</time></trkpt><trkpt lat="45.38539828002884" lon="10.773231929341359"><ele>117.0</ele><time>2026-03-28T11:43:53Z</time></trkpt><trkpt lat="45.3854651788479" lon="10.773259283658426"><ele>117.39999999999999</ele><time>2026-03-28T11:43:54Z</time></trkpt><trkpt lat="45.38553201854125" lon="10.773322679781348"><ele>117.79999999999998</ele><time>2026-03-28T11:43:55Z</time></trkpt><trkpt lat="45.38559753105337" lon="10.77341544362462"><ele>118.2</ele><time>2026-03-28T11:43:56Z</time></trkpt><trkpt lat="45.38567192120685" lon="10.773520491155487"><ele>118.6</ele><time>2026-03-28T11:43:57Z</time></trkpt><trkpt lat="45.38574848737897" lon="10.773618552980988"><ele>119.0</ele><time>2026-03-28T11:43:58Z</time></trkpt><trkpt lat="45.385820862171016" lon="10.77369795323178"><ele>119.0</ele><time>2026-03-28T11:43:59Z</time></trkpt><trkpt lat="45.38591068691928" lon="10.773770109011629"><ele>119.0</ele><time>2026-03-28T11:44:00Z</time></trkpt><trkpt lat="45.38602830957275" lon="10.773840721124296"><ele>119.0</ele><time>2026-03-28T11:44:01Z</time></trkpt><trkpt lat="45.38615374137499" lon="10.773932861627546"><ele>119.0</ele><time>2026-03-28T11:44:02Z</time></trkpt><trkpt lat="45.386262864265206" lon="10.774034233565253"><ele>119.5</ele><time>2026-03-28T11:44:03Z</time></trkpt><trkpt lat="45.38636545785036" lon="10.774151250568721"><ele>120.0</ele><time>2026-03-28T11:44:04Z</time></trkpt><trkpt lat="45.38647179938516" lon="10.7743009554016"><ele>120.5</ele><time>2026-03-28T11:44:05Z</time></trkpt><trkpt lat="45.386567816671864" lon="10.774412680214104"><ele>121.0</ele><time>2026-03-28T11:44:06Z</time></trkpt><trkpt lat="45.38664789034585" lon="10.774497047759732"><ele>121.0</ele><time>2026-03-28T11:44:07Z</time></trkpt><trkpt lat="45.38673318460645" lon="10.774563379982414"><ele>121.0</ele><time>2026-03-28T11:44:08Z</time></trkpt><trkpt lat="45.38681546432156" lon="10.774633129147686"><ele>121.0</ele><time>2026-03-28T11:44:09Z</time></trkpt><trkpt lat="45.38689111803828" lon="10.774720332625758"><ele>121.0</ele><time>2026-03-28T11:44:10Z</time></trkpt><trkpt lat="45.38695244523286" lon="10.774817482281023"><ele>121.0</ele><time>2026-03-28T11:44:11Z</time></trkpt><trkpt lat="45.387009162169306" lon="10.774944227522113"><ele>121.0</ele><time>2026-03-28T11:44:12Z</time></trkpt><trkpt lat="45.38707340356782" lon="10.775075664425694"><ele>121.0</ele><time>2026-03-28T11:44:13Z</time></trkpt><trkpt lat="45.38714069514761" lon="10.775174129629603"><ele>121.0</ele><time>2026-03-28T11:44:14Z</time></trkpt><trkpt lat="45.38722646965247" lon="10.775272439167539"><ele>121.0</ele><time>2026-03-28T11:44:15Z</time></trkpt><trkpt lat="45.3873250078205" lon="10.775383697547248"><ele>121.0</ele><time>2026-03-28T11:44:16Z</time></trkpt><trkpt lat="45.387421375280255" lon="10.775495027685237"><ele>121.19999999999999</ele><time>2026-03-28T11:44:17Z</time></trkpt><trkpt lat="45.38751611378549" lon="10.775589242805475"><ele>121.39999999999999</ele><time>2026-03-28T11:44:18Z</time></trkpt><trkpt lat="45.38760490488452" lon="10.775656552484644"><ele>121.6</ele><time>2026-03-28T11:44:19Z</time></trkpt><trkpt lat="45.38769196089727" lon="10.775709381969829"><ele>121.8</ele><time>2026-03-28T11:44:20Z</time></trkpt><trkpt lat="45.387787071861375" lon="10.775765527982573"><ele>122.0</ele><time>2026-03-28T11:44:21Z</time></trkpt><trkpt lat="45.38786462974429" lon="10.775839277613782"><ele>121.99999999999999</ele><time>2026-03-28T11:44:22Z</time></trkpt><trkpt lat="45.3879205618411" lon="10.775919700170496"><ele>122.0</ele><time>2026-03-28T11:44:23Z</time></trkpt><trkpt lat="45.38797855645649" lon="10.775996307151791"><ele>122.0</ele><time>2026-03-28T11:44:24Z</time></trkpt><trkpt lat="45.38802248324123" lon="10.776070065189817"><ele>122.0</ele><time>2026-03-28T11:44:25Z</time></trkpt><trkpt lat="45.388070660563514" lon="10.776143180149315"><ele>121.99999999999999</ele><time>2026-03-28T11:44:26Z</time></trkpt><trkpt lat="45.3881286499059" lon="10.776242355672569"><ele>122.0</ele><time>2026-03-28T11:44:27Z</time></trkpt><trkpt lat="45.38819795895043" lon="10.776365200074816"><ele>121.6</ele><time>2026-03-28T11:44:28Z</time></trkpt><trkpt lat="45.38826021126313" lon="10.776473358437288"><ele>121.19999999999999</ele><time>2026-03-28T11:44:29Z</time></trkpt><trkpt lat="45.38832651934168" lon="10.776597160567487"><ele>120.8</ele><time>2026-03-28T11:44:30Z</time></trkpt><trkpt lat="45.38838539286524" lon="10.776716522374715"><ele>120.4</ele><time>2026-03-28T11:44:31Z</time></trkpt><trkpt lat="45.388446431167665" lon="10.776856509095806"><ele>120.0</ele><time>2026-03-28T11:44:32Z</time></trkpt><trkpt lat="45.38850320027135" lon="10.776983802934359"><ele>117.2</ele><time>2026-03-28T11:44:33Z</time></trkpt><trkpt lat="45.38856127309364" lon="10.777105661932262"><ele>114.4</ele><time>2026-03-28T11:44:34Z</time></trkpt><trkpt lat="45.38861525794291" lon="10.777237072399897"><ele>111.6</ele><time>2026-03-28T11:44:35Z</time></trkpt><trkpt lat="45.38866111901479" lon="10.777357899804548"><ele>108.8</ele><time>2026-03-28T11:44:36Z</time></trkpt><trkpt lat="45.388697720981945" lon="10.777469413379293"><ele>106.0</ele><time>2026-03-28T11:44:37Z</time></trkpt><trkpt lat="45.38872797433368" lon="10.777581047087766"><ele>106.83333333333334</ele><time>2026-03-28T11:44:38Z</time></trkpt><trkpt lat="45.38875564256978" lon="10.777702211470961"><ele>107.66666666666667</ele><time>2026-03-28T11:44:39Z</time></trkpt><trkpt lat="45.38878104644294" lon="10.777824804944565"><ele>108.5</ele><time>2026-03-28T11:44:40Z</time></trkpt><trkpt lat="45.38880208774789" lon="10.777932999112723"><ele>109.33333333333334</ele><time>2026-03-28T11:44:41Z</time></trkpt><trkpt lat="45.38883351443497" lon="10.77803536008946"><ele>110.16666666666667</ele><time>2026-03-28T11:44:43Z</time></trkpt><trkpt lat="45.388893315731224" lon="10.778065443964103"><ele>111.0</ele><time>2026-03-28T11:44:45Z</time></trkpt><trkpt lat="45.38900101286182" lon="10.778117703335257"><ele>111.0</ele><time>2026-03-28T11:44:48Z</time></trkpt><trkpt lat="45.38906866396685" lon="10.778155498440174"><ele>111.0</ele><time>2026-03-28T11:44:49Z</time></trkpt><trkpt lat="45.38914516686808" lon="10.7782027127097"><ele>111.0</ele><time>2026-03-28T11:44:50Z</time></trkpt><trkpt lat="45.38923839542673" lon="10.778262157617283"><ele>111.0</ele><time>2026-03-28T11:44:51Z</time></trkpt><trkpt lat="45.389333974794006" lon="10.7783229027086"><ele>111.0</ele><time>2026-03-28T11:44:52Z</time></trkpt><trkpt lat="45.3894254579311" lon="10.77838566208881"><ele>111.0</ele><time>2026-03-28T11:44:53Z</time></trkpt><trkpt lat="45.38951486241042" lon="10.778449920567068"><ele>111.0</ele><time>2026-03-28T11:44:54Z</time></trkpt><trkpt lat="45.38962004835566" lon="10.77852376979088"><ele>111.0</ele><time>2026-03-28T11:44:55Z</time></trkpt><trkpt lat="45.389711395178495" lon="10.778585472261229"><ele>111.0</ele><time>2026-03-28T11:44:56Z</time></trkpt><trkpt lat="45.38982445438407" lon="10.778663146543733"><ele>111.0</ele><time>2026-03-28T11:44:57Z</time></trkpt><trkpt lat="45.38993579057312" lon="10.778735043622238"><ele>110.6</ele><time>2026-03-28T11:44:58Z</time></trkpt><trkpt lat="45.39004298806526" lon="10.778809493502646"><ele>110.19999999999999</ele><time>2026-03-28T11:44:59Z</time></trkpt><trkpt lat="45.390147684000546" lon="10.778886439640115"><ele>109.80000000000001</ele><time>2026-03-28T11:45:00Z</time></trkpt><trkpt lat="45.39023344765469" lon="10.778949630123268"><ele>109.4</ele><time>2026-03-28T11:45:01Z</time></trkpt><trkpt lat="45.39029468246825" lon="10.778982625771695"><ele>109.0</ele><time>2026-03-28T11:45:02Z</time></trkpt><trkpt lat="45.39036990086975" lon="10.778980987413833"><ele>109.0</ele><time>2026-03-28T11:45:04Z</time></trkpt><trkpt lat="45.39039931692073" lon="10.77884293606479"><ele>109.0</ele><time>2026-03-28T11:45:06Z</time></trkpt><trkpt lat="45.39041910074588" lon="10.778699235235571"><ele>109.0</ele><time>2026-03-28T11:45:07Z</time></trkpt><trkpt lat="45.39043251738612" lon="10.778531032304205"><ele>109.0</ele><time>2026-03-28T11:45:08Z</time></trkpt><trkpt lat="45.39045899734426" lon="10.778388592524774"><ele>109.0</ele><time>2026-03-28T11:45:09Z</time></trkpt><trkpt lat="45.390549857023586" lon="10.778282363330177"><ele>110.00000000000001</ele><time>2026-03-28T11:45:10Z</time></trkpt><trkpt lat="45.39057361448889" lon="10.778161563760674"><ele>111.0</ele><time>2026-03-28T11:45:11Z</time></trkpt><trkpt lat="45.39059977948925" lon="10.77805432752937"><ele>112.0</ele><time>2026-03-28T11:45:12Z</time></trkpt><trkpt lat="45.39064658810633" lon="10.777968399722338"><ele>113.0</ele><time>2026-03-28T11:45:13Z</time></trkpt><trkpt lat="45.390718499355465" lon="10.777907533712012"><ele>114.00000000000001</ele><time>2026-03-28T11:45:14Z</time></trkpt><trkpt lat="45.39081207106798" lon="10.777816135125226"><ele>115.0</ele><time>2026-03-28T11:45:15Z</time></trkpt><trkpt lat="45.39088748154093" lon="10.777724505147315"><ele>115.6</ele><time>2026-03-28T11:45:16Z</time></trkpt><trkpt lat="45.39093024475372" lon="10.77763434060173"><ele>116.2</ele><time>2026-03-28T11:45:17Z</time></trkpt><trkpt lat="45.39096711994165" lon="10.77754849551861"><ele>116.80000000000001</ele><time>2026-03-28T11:45:18Z</time></trkpt><trkpt lat="45.391005103451626" lon="10.777396412233918"><ele>117.4</ele><time>2026-03-28T11:45:20Z</time></trkpt><trkpt lat="45.391013489286046" lon="10.777264887325066"><ele>118.0</ele><time>2026-03-28T11:45:21Z</time></trkpt><trkpt lat="45.39100818896626" lon="10.777127840520643"><ele>118.00000000000001</ele><time>2026-03-28T11:45:22Z</time></trkpt><trkpt lat="45.39096563221095" lon="10.776994872174225"><ele>118.0</ele><time>2026-03-28T11:45:23Z</time></trkpt><trkpt lat="45.390949398568324" lon="10.776871932082152"><ele>118.0</ele><time>2026-03-28T11:45:24Z</time></trkpt><trkpt lat="45.390919892233526" lon="10.776748175658998"><ele>118.0</ele><time>2026-03-28T11:45:25Z</time></trkpt><trkpt lat="45.39088355405482" lon="10.776655363594639"><ele>118.00000000000001</ele><time>2026-03-28T11:45:26Z</time></trkpt><trkpt lat="45.39083368354087" lon="10.776566233865308"><ele>118.0</ele><time>2026-03-28T11:45:27Z</time></trkpt><trkpt lat="45.39079406106997" lon="10.77645585585349"><ele>117.33333333333334</ele><time>2026-03-28T11:45:28Z</time></trkpt><trkpt lat="45.39074085492496" lon="10.776364698173968"><ele>116.66666666666667</ele><time>2026-03-28T11:45:29Z</time></trkpt><trkpt lat="45.39069202645554" lon="10.776286155594818"><ele>116.0</ele><time>2026-03-28T11:45:30Z</time></trkpt><trkpt lat="45.3906398833039" lon="10.776215890266707"><ele>115.33333333333334</ele><time>2026-03-28T11:45:31Z</time></trkpt><trkpt lat="45.39059961702957" lon="10.776145603077461"><ele>114.66666666666667</ele><time>2026-03-28T11:45:32Z</time></trkpt><trkpt lat="45.39058499357103" lon="10.776029134568972"><ele>114.0</ele><time>2026-03-28T11:45:34Z</time></trkpt><trkpt lat="45.39058232908729" lon="10.775908964150883"><ele>111.75</ele><time>2026-03-28T11:45:35Z</time></trkpt><trkpt lat="45.39061294002129" lon="10.77575642081388"><ele>109.5</ele><time>2026-03-28T11:45:36Z</time></trkpt><trkpt lat="45.39062880156101" lon="10.775563314371533"><ele>107.25</ele><time>2026-03-28T11:45:37Z</time></trkpt><trkpt lat="45.3906271890451" lon="10.775369663584442"><ele>105.0</ele><time>2026-03-28T11:45:38Z</time></trkpt><trkpt lat="45.39062442001488" lon="10.775169763165"><ele>104.75</ele><time>2026-03-28T11:45:39Z</time></trkpt><trkpt lat="45.39061882417164" lon="10.775012870034292"><ele>104.5</ele><time>2026-03-28T11:45:40Z</time></trkpt><trkpt lat="45.390606905593366" lon="10.774847146404834"><ele>104.25</ele><time>2026-03-28T11:45:41Z</time></trkpt><trkpt lat="45.39058814740211" lon="10.77467431774314"><ele>104.0</ele><time>2026-03-28T11:45:42Z</time></trkpt><trkpt lat="45.39055698567267" lon="10.774496561409347"><ele>103.25</ele><time>2026-03-28T11:45:43Z</time></trkpt><trkpt lat="45.39050878885004" lon="10.774298810569253"><ele>102.5</ele><time>2026-03-28T11:45:44Z</time></trkpt><trkpt lat="45.390467364476706" lon="10.774130372329813"><ele>101.75</ele><time>2026-03-28T11:45:45Z</time></trkpt><trkpt lat="45.39041935323778" lon="10.773993643983957"><ele>101.0</ele><time>2026-03-28T11:45:46Z</time></trkpt><trkpt lat="45.39039130576388" lon="10.773874019109183"><ele>100.99999999999999</ele><time>2026-03-28T11:45:47Z</time></trkpt><trkpt lat="45.39035667986891" lon="10.77377162571579"><ele>101.0</ele><time>2026-03-28T11:45:48Z</time></trkpt><trkpt lat="45.39038722228326" lon="10.773627311550426"><ele>101.0</ele><time>2026-03-28T11:45:50Z</time></trkpt><trkpt lat="45.39044481911756" lon="10.77356543298604"><ele>101.0</ele><time>2026-03-28T11:45:51Z</time></trkpt><trkpt lat="45.39053117396537" lon="10.773554842348059"><ele>100.99999999999999</ele><time>2026-03-28T11:45:52Z</time></trkpt><trkpt lat="45.390617360637" lon="10.773515540118352"><ele>101.0</ele><time>2026-03-28T11:45:53Z</time></trkpt><trkpt lat="45.390728729290444" lon="10.773468013373018"><ele>100.4</ele><time>2026-03-28T11:45:54Z</time></trkpt><trkpt lat="45.39082225776846" lon="10.77342201420704"><ele>99.8</ele><time>2026-03-28T11:45:55Z</time></trkpt><trkpt lat="45.39090462598852" lon="10.773372839182423"><ele>99.2</ele><time>2026-03-28T11:45:56Z</time></trkpt><trkpt lat="45.39097682750532" lon="10.773322269136328"><ele>98.60000000000001</ele><time>2026-03-28T11:45:57Z</time></trkpt><trkpt lat="45.391048505926754" lon="10.7732431658244"><ele>98.0</ele><time>2026-03-28T11:45:58Z</time></trkpt><trkpt lat="45.39113207027016" lon="10.773170568899909"><ele>98.0</ele><time>2026-03-28T11:45:59Z</time></trkpt><trkpt lat="45.391220914032324" lon="10.7730979057703"><ele>98.0</ele><time>2026-03-28T11:46:00Z</time></trkpt><trkpt lat="45.39130596405439" lon="10.773022958194945"><ele>98.0</ele><time>2026-03-28T11:46:01Z</time></trkpt><trkpt lat="45.391380534539785" lon="10.772914912856175"><ele>98.0</ele><time>2026-03-28T11:46:02Z</time></trkpt><trkpt lat="45.391469872914044" lon="10.772778508847605"><ele>98.0</ele><time>2026-03-28T11:46:03Z</time></trkpt><trkpt lat="45.3915488093083" lon="10.772665524608723"><ele>95.25</ele><time>2026-03-28T11:46:04Z</time></trkpt><trkpt lat="45.39165900587864" lon="10.772595371995195"><ele>92.5</ele><time>2026-03-28T11:46:05Z</time></trkpt><trkpt lat="45.39176504208676" lon="10.772496165350104"><ele>89.75</ele><time>2026-03-28T11:46:06Z</time></trkpt><trkpt lat="45.39185780827985" lon="10.772378589546914"><ele>87.0</ele><time>2026-03-28T11:46:07Z</time></trkpt><trkpt lat="45.39195451270039" lon="10.772318901322649"><ele>87.0</ele><time>2026-03-28T11:46:08Z</time></trkpt><trkpt lat="45.39204512071976" lon="10.772243521632074"><ele>87.0</ele><time>2026-03-28T11:46:09Z</time></trkpt><trkpt lat="45.392086825383444" lon="10.772080994982357"><ele>87.0</ele><time>2026-03-28T11:46:10Z</time></trkpt><trkpt lat="45.39214730886867" lon="10.771984306132708"><ele>87.0</ele><time>2026-03-28T11:46:11Z</time></trkpt><trkpt lat="45.39221337135164" lon="10.771895981155115"><ele>87.0</ele><time>2026-03-28T11:46:12Z</time></trkpt><trkpt lat="45.392282890914636" lon="10.77182699747946"><ele>86.83333333333333</ele><time>2026-03-28T11:46:13Z</time></trkpt><trkpt lat="45.392357697232256" lon="10.771766647232074"><ele>86.66666666666667</ele><time>2026-03-28T11:46:14Z</time></trkpt><trkpt lat="45.392437274161765" lon="10.771675158416027"><ele>86.5</ele><time>2026-03-28T11:46:15Z</time></trkpt><trkpt lat="45.39249743418249" lon="10.771616450166587"><ele>86.33333333333334</ele><time>2026-03-28T11:46:16Z</time></trkpt><trkpt lat="45.392547198055446" lon="10.771532800287453"><ele>86.16666666666667</ele><time>2026-03-28T11:46:17Z</time></trkpt><trkpt lat="45.39258264635035" lon="10.771441705361893"><ele>86.0</ele><time>2026-03-28T11:46:18Z</time></trkpt><trkpt lat="45.39261947001897" lon="10.771357097959074"><ele>86.0</ele><time>2026-03-28T11:46:19Z</time></trkpt><trkpt lat="45.392604639342785" lon="10.771222649887306"><ele>86.0</ele><time>2026-03-28T11:46:20Z</time></trkpt><trkpt lat="45.39256169450338" lon="10.77108360352698"><ele>86.0</ele><time>2026-03-28T11:46:21Z</time></trkpt><trkpt lat="45.39254884702457" lon="10.770914735921352"><ele>86.0</ele><time>2026-03-28T11:46:22Z</time></trkpt><trkpt lat="45.3925151123107" lon="10.770722586484352"><ele>85.83333333333334</ele><time>2026-03-28T11:46:23Z</time></trkpt><trkpt lat="45.392483023359446" lon="10.770551004322929"><ele>85.66666666666667</ele><time>2026-03-28T11:46:24Z</time></trkpt><trkpt lat="45.39246987705029" lon="10.770427304506441"><ele>85.5</ele><time>2026-03-28T11:46:25Z</time></trkpt><trkpt lat="45.39246681727566" lon="10.77033746304751"><ele>85.33333333333333</ele><time>2026-03-28T11:46:26Z</time></trkpt><trkpt lat="45.39252383269232" lon="10.770276977652914"><ele>85.16666666666666</ele><time>2026-03-28T11:46:28Z</time></trkpt><trkpt lat="45.392601615701025" lon="10.77027366839588"><ele>85.0</ele><time>2026-03-28T11:46:29Z</time></trkpt><trkpt lat="45.392703687075134" lon="10.770289680607963"><ele>85.0</ele><time>2026-03-28T11:46:30Z</time></trkpt><trkpt lat="45.39283917580329" lon="10.77030456986404"><ele>85.0</ele><time>2026-03-28T11:46:31Z</time></trkpt><trkpt lat="45.39296247514191" lon="10.77030349793242"><ele>85.0</ele><time>2026-03-28T11:46:32Z</time></trkpt><trkpt lat="45.39307991619871" lon="10.770285517271091"><ele>85.0</ele><time>2026-03-28T11:46:33Z</time></trkpt><trkpt lat="45.39319772564199" lon="10.770296596916307"><ele>85.5</ele><time>2026-03-28T11:46:34Z</time></trkpt><trkpt lat="45.39330816998182" lon="10.770278433939152"><ele>86.0</ele><time>2026-03-28T11:46:35Z</time></trkpt><trkpt lat="45.39343382403323" lon="10.770303659263028"><ele>86.5</ele><time>2026-03-28T11:46:36Z</time></trkpt><trkpt lat="45.39355869606966" lon="10.770321695758572"><ele>87.0</ele><time>2026-03-28T11:46:37Z</time></trkpt><trkpt lat="45.39367148129749" lon="10.770356512384877"><ele>87.0</ele><time>2026-03-28T11:46:38Z</time></trkpt><trkpt lat="45.393793108166726" lon="10.77039458543303"><ele>87.0</ele><time>2026-03-28T11:46:39Z</time></trkpt><trkpt lat="45.39391852272584" lon="10.770448760375315"><ele>87.0</ele><time>2026-03-28T11:46:40Z</time></trkpt><trkpt lat="45.39402503164953" lon="10.770500858080535"><ele>87.0</ele><time>2026-03-28T11:46:41Z</time></trkpt><trkpt lat="45.39412360811103" lon="10.770545319962483"><ele>89.0</ele><time>2026-03-28T11:46:42Z</time></trkpt><trkpt lat="45.394223881804486" lon="10.770632807948479"><ele>91.0</ele><time>2026-03-28T11:46:43Z</time></trkpt><trkpt lat="45.3943305071217" lon="10.770736306473825"><ele>93.0</ele><time>2026-03-28T11:46:44Z</time></trkpt><trkpt lat="45.39444399045417" lon="10.770852257173493"><ele>95.0</ele><time>2026-03-28T11:46:45Z</time></trkpt><trkpt lat="45.394560868938825" lon="10.770983198361064"><ele>96.66666666666667</ele><time>2026-03-28T11:46:46Z</time></trkpt><trkpt lat="45.39467231493585" lon="10.771123681017794"><ele>98.33333333333334</ele><time>2026-03-28T11:46:47Z</time></trkpt><trkpt lat="45.39479551100936" lon="10.771270516429995"><ele>100.0</ele><time>2026-03-28T11:46:48Z</time></trkpt><trkpt lat="45.39491289916986" lon="10.771429658367133"><ele>100.0</ele><time>2026-03-28T11:46:49Z</time></trkpt><trkpt lat="45.395017134330786" lon="10.771611174767289"><ele>100.0</ele><time>2026-03-28T11:46:50Z</time></trkpt><trkpt lat="45.39511205977134" lon="10.771753664393543"><ele>100.0</ele><time>2026-03-28T11:46:51Z</time></trkpt><trkpt lat="45.3952076203119" lon="10.771902099325125"><ele>100.0</ele><time>2026-03-28T11:46:52Z</time></trkpt><trkpt lat="45.39528302185204" lon="10.77204853086637"><ele>98.25</ele><time>2026-03-28T11:46:53Z</time></trkpt><trkpt lat="45.39535987910446" lon="10.772195346773751"><ele>96.5</ele><time>2026-03-28T11:46:54Z</time></trkpt><trkpt lat="45.395429605749506" lon="10.772356177989266"><ele>94.75</ele><time>2026-03-28T11:46:55Z</time></trkpt><trkpt lat="45.39550021469392" lon="10.772536040422857"><ele>93.0</ele><time>2026-03-28T11:46:56Z</time></trkpt><trkpt lat="45.39555550721369" lon="10.772717995552842"><ele>96.75</ele><time>2026-03-28T11:46:57Z</time></trkpt><trkpt lat="45.39562366672201" lon="10.772906158940648"><ele>100.5</ele><time>2026-03-28T11:46:58Z</time></trkpt><trkpt lat="45.39568151541583" lon="10.77308375025747"><ele>104.25</ele><time>2026-03-28T11:46:59Z</time></trkpt><trkpt lat="45.39573516238222" lon="10.773262788156467"><ele>108.0</ele><time>2026-03-28T11:47:00Z</time></trkpt><trkpt lat="45.39577737359859" lon="10.77344011056918"><ele>107.4</ele><time>2026-03-28T11:47:01Z</time></trkpt><trkpt lat="45.39580687260465" lon="10.773595184321868"><ele>106.80000000000001</ele><time>2026-03-28T11:47:02Z</time></trkpt><trkpt lat="45.39583445807606" lon="10.7737433788843"><ele>106.2</ele><time>2026-03-28T11:47:03Z</time></trkpt><trkpt lat="45.395861360693665" lon="10.773887904987568"><ele>105.6</ele><time>2026-03-28T11:47:04Z</time></trkpt><trkpt lat="45.39589021040803" lon="10.774026737469589"><ele>105.0</ele><time>2026-03-28T11:47:05Z</time></trkpt><trkpt lat="45.395922197063854" lon="10.77413693667755"><ele>105.0</ele><time>2026-03-28T11:47:06Z</time></trkpt><trkpt lat="45.39597394865468" lon="10.774205048225017"><ele>105.0</ele><time>2026-03-28T11:47:07Z</time></trkpt><trkpt lat="45.39605583303115" lon="10.774319901577725"><ele>105.0</ele><time>2026-03-28T11:47:09Z</time></trkpt><trkpt lat="45.39615071625051" lon="10.774342871069228"><ele>105.0</ele><time>2026-03-28T11:47:10Z</time></trkpt><trkpt lat="45.39625413551846" lon="10.774389587405084"><ele>105.0</ele><time>2026-03-28T11:47:11Z</time></trkpt><trkpt lat="45.396356261634246" lon="10.774413517348881"><ele>106.2</ele><time>2026-03-28T11:47:12Z</time></trkpt><trkpt lat="45.396475560151146" lon="10.774428066029353"><ele>107.4</ele><time>2026-03-28T11:47:13Z</time></trkpt><trkpt lat="45.39658757137094" lon="10.77444820988047"><ele>108.6</ele><time>2026-03-28T11:47:14Z</time></trkpt><trkpt lat="45.396696643236965" lon="10.774439785199124"><ele>109.8</ele><time>2026-03-28T11:47:15Z</time></trkpt><trkpt lat="45.396791672260726" lon="10.774468975331766"><ele>111.0</ele><time>2026-03-28T11:47:16Z</time></trkpt><trkpt lat="45.39687710226481" lon="10.774453878005941"><ele>111.0</ele><time>2026-03-28T11:47:17Z</time></trkpt><trkpt lat="45.39694202662775" lon="10.774491194589638"><ele>111.0</ele><time>2026-03-28T11:47:19Z</time></trkpt><trkpt lat="45.39691486165634" lon="10.77461716510674"><ele>111.0</ele><time>2026-03-28T11:47:22Z</time></trkpt><trkpt lat="45.396894707669325" lon="10.774744815083386"><ele>111.0</ele><time>2026-03-28T11:47:23Z</time></trkpt><trkpt lat="45.39685429792866" lon="10.774871842234491"><ele>111.0</ele><time>2026-03-28T11:47:24Z</time></trkpt><trkpt lat="45.39682629642895" lon="10.775008895259186"><ele>111.0</ele><time>2026-03-28T11:47:25Z</time></trkpt><trkpt lat="45.39681337122897" lon="10.77516235909458"><ele>111.0</ele><time>2026-03-28T11:47:26Z</time></trkpt><trkpt lat="45.39679057820821" lon="10.775335530179714"><ele>111.0</ele><time>2026-03-28T11:47:27Z</time></trkpt><trkpt lat="45.3967581769428" lon="10.775505637546585"><ele>111.0</ele><time>2026-03-28T11:47:28Z</time></trkpt><trkpt lat="45.396748687256995" lon="10.775665043839117"><ele>111.4</ele><time>2026-03-28T11:47:29Z</time></trkpt><trkpt lat="45.39673869208941" lon="10.775822447169196"><ele>111.8</ele><time>2026-03-28T11:47:30Z</time></trkpt><trkpt lat="45.39673065749024" lon="10.77595192883924"><ele>112.20000000000002</ele><time>2026-03-28T11:47:31Z</time></trkpt><trkpt lat="45.3967158335654" lon="10.776046535446763"><ele>112.60000000000001</ele><time>2026-03-28T11:47:32Z</time></trkpt><trkpt lat="45.39668679722947" lon="10.77615815116338"><ele>113.0</ele><time>2026-03-28T11:47:34Z</time></trkpt><trkpt lat="45.39671094803739" lon="10.776290394435664"><ele>113.0</ele><time>2026-03-28T11:47:35Z</time></trkpt><trkpt lat="45.39678485807303" lon="10.776360278233586"><ele>113.00000000000001</ele><time>2026-03-28T11:47:38Z</time></trkpt><trkpt lat="45.39688119240411" lon="10.776395020101159"><ele>113.00000000000001</ele><time>2026-03-28T11:47:41Z</time></trkpt><trkpt lat="45.396975433095996" lon="10.776411482451033"><ele>113.0</ele><time>2026-03-28T11:47:42Z</time></trkpt><trkpt lat="45.3970717060754" lon="10.77642520497704"><ele>113.0</ele><time>2026-03-28T11:47:43Z</time></trkpt><trkpt lat="45.39720004942849" lon="10.776432525747644"><ele>114.0</ele><time>2026-03-28T11:47:44Z</time></trkpt><trkpt lat="45.39732096796523" lon="10.776432525746829"><ele>115.00000000000001</ele><time>2026-03-28T11:47:45Z</time></trkpt><trkpt lat="45.397425567333364" lon="10.77643252574358"><ele>116.00000000000001</ele><time>2026-03-28T11:47:46Z</time></trkpt><trkpt lat="45.3975134182154" lon="10.776411729076873"><ele>117.0</ele><time>2026-03-28T11:47:47Z</time></trkpt><trkpt lat="45.397601286757165" lon="10.776417011311993"><ele>118.0</ele><time>2026-03-28T11:47:48Z</time></trkpt><trkpt lat="45.39768843987065" lon="10.776405107562955"><ele>118.0</ele><time>2026-03-28T11:47:49Z</time></trkpt><trkpt lat="45.39779165572062" lon="10.77638394825301"><ele>118.00000000000001</ele><time>2026-03-28T11:47:50Z</time></trkpt><trkpt lat="45.39787228213471" lon="10.776372355306869"><ele>118.00000000000001</ele><time>2026-03-28T11:47:51Z</time></trkpt><trkpt lat="45.39796431294892" lon="10.776440732189661"><ele>118.0</ele><time>2026-03-28T11:47:53Z</time></trkpt><trkpt lat="45.397998797632816" lon="10.776621491160157"><ele>118.0</ele><time>2026-03-28T11:47:55Z</time></trkpt><trkpt lat="45.39801303977207" lon="10.77675498437962"><ele>118.83333333333334</ele><time>2026-03-28T11:47:56Z</time></trkpt><trkpt lat="45.39803056364718" lon="10.776856753441836"><ele>119.66666666666667</ele><time>2026-03-28T11:47:57Z</time></trkpt><trkpt lat="45.39811022636965" lon="10.776915207593863"><ele>120.5</ele><time>2026-03-28T11:47:59Z</time></trkpt><trkpt lat="45.39817611960461" lon="10.776904679897648"><ele>121.33333333333334</ele><time>2026-03-28T11:48:00Z</time></trkpt><trkpt lat="45.39827233938591" lon="10.776904700151203"><ele>122.16666666666667</ele><time>2026-03-28T11:48:01Z</time></trkpt><trkpt lat="45.39838407724952" lon="10.776932657133496"><ele>123.0</ele><time>2026-03-28T11:48:02Z</time></trkpt><trkpt lat="45.39848057827471" lon="10.776959823982507"><ele>123.0</ele><time>2026-03-28T11:48:03Z</time></trkpt><trkpt lat="45.39855996732428" lon="10.776984662087594"><ele>123.0</ele><time>2026-03-28T11:48:04Z</time></trkpt><trkpt lat="45.398623048756306" lon="10.777012480433987"><ele>123.0</ele><time>2026-03-28T11:48:05Z</time></trkpt><trkpt lat="45.39867235225468" lon="10.777076876293059"><ele>123.0</ele><time>2026-03-28T11:48:06Z</time></trkpt><trkpt lat="45.39871720100198" lon="10.77718962333664"><ele>123.0</ele><time>2026-03-28T11:48:07Z</time></trkpt><trkpt lat="45.39875636289611" lon="10.777323334516614"><ele>123.0</ele><time>2026-03-28T11:48:08Z</time></trkpt><trkpt lat="45.39879196009064" lon="10.777459311988924"><ele>123.0</ele><time>2026-03-28T11:48:09Z</time></trkpt><trkpt lat="45.39885670809773" lon="10.777570181363801"><ele>123.00000000000001</ele><time>2026-03-28T11:48:10Z</time></trkpt><trkpt lat="45.39894531570741" lon="10.777674449423532"><ele>123.00000000000001</ele><time>2026-03-28T11:48:11Z</time></trkpt><trkpt lat="45.399030835479806" lon="10.777770328760997"><ele>123.0</ele><time>2026-03-28T11:48:12Z</time></trkpt><trkpt lat="45.39910078573044" lon="10.77784660017739"><ele>123.0</ele><time>2026-03-28T11:48:13Z</time></trkpt><trkpt lat="45.399141104941165" lon="10.777996182717956"><ele>123.0</ele><time>2026-03-28T11:48:15Z</time></trkpt><trkpt lat="45.399140552498146" lon="10.778104595597641"><ele>123.0</ele><time>2026-03-28T11:48:16Z</time></trkpt><trkpt lat="45.39916042079055" lon="10.77826062562547"><ele>123.0</ele><time>2026-03-28T11:48:17Z</time></trkpt><trkpt lat="45.39917098525206" lon="10.77844510186341"><ele>123.0</ele><time>2026-03-28T11:48:18Z</time></trkpt><trkpt lat="45.3991990597444" lon="10.778641055734289"><ele>122.75</ele><time>2026-03-28T11:48:19Z</time></trkpt><trkpt lat="45.399220671740245" lon="10.778839108168723"><ele>122.5</ele><time>2026-03-28T11:48:20Z</time></trkpt><trkpt lat="45.39924692227643" lon="10.779037236593538"><ele>122.25</ele><time>2026-03-28T11:48:21Z</time></trkpt><trkpt lat="45.39926498967272" lon="10.779215755682605"><ele>122.0</ele><time>2026-03-28T11:48:22Z</time></trkpt><trkpt lat="45.399280984468376" lon="10.77936782613417"><ele>121.83333333333333</ele><time>2026-03-28T11:48:23Z</time></trkpt><trkpt lat="45.399296216898684" lon="10.779482939400589"><ele>121.66666666666666</ele><time>2026-03-28T11:48:24Z</time></trkpt><trkpt lat="45.39929599754284" lon="10.77958680178471"><ele>121.5</ele><time>2026-03-28T11:48:25Z</time></trkpt><trkpt lat="45.39928851489642" lon="10.779702506263742"><ele>121.33333333333334</ele><time>2026-03-28T11:48:26Z</time></trkpt><trkpt lat="45.399294253249494" lon="10.779819422750377"><ele>121.16666666666667</ele><time>2026-03-28T11:48:28Z</time></trkpt><trkpt lat="45.39935439795678" lon="10.77989653740999"><ele>121.0</ele><time>2026-03-28T11:48:31Z</time></trkpt><trkpt lat="45.39944503906675" lon="10.77988165846031"><ele>121.0</ele><time>2026-03-28T11:48:33Z</time></trkpt><trkpt lat="45.39953058248133" lon="10.779859739657127"><ele>121.0</ele><time>2026-03-28T11:48:34Z</time></trkpt><trkpt lat="45.399621289246575" lon="10.779838034478404"><ele>121.0</ele><time>2026-03-28T11:48:35Z</time></trkpt><trkpt lat="45.399721705033016" lon="10.77982763728826"><ele>121.0</ele><time>2026-03-28T11:48:36Z</time></trkpt><trkpt lat="45.39981398780483" lon="10.7798227704316"><ele>121.0</ele><time>2026-03-28T11:48:37Z</time></trkpt><trkpt lat="45.39991369858088" lon="10.779824548880152"><ele>121.0</ele><time>2026-03-28T11:48:38Z</time></trkpt><trkpt lat="45.40000271887386" lon="10.779829081922859"><ele>121.0</ele><time>2026-03-28T11:48:39Z</time></trkpt><trkpt lat="45.400090599169005" lon="10.77982894858683"><ele>121.0</ele><time>2026-03-28T11:48:40Z</time></trkpt><trkpt lat="45.40018021140257" lon="10.779823642883377"><ele>121.0</ele><time>2026-03-28T11:48:41Z</time></trkpt><trkpt lat="45.40027189063281" lon="10.7798187960066"><ele>121.0</ele><time>2026-03-28T11:48:42Z</time></trkpt><trkpt lat="45.400364790962584" lon="10.779822976639943"><ele>121.0</ele><time>2026-03-28T11:48:43Z</time></trkpt><trkpt lat="45.40045909781279" lon="10.77984392246482"><ele>121.0</ele><time>2026-03-28T11:48:44Z</time></trkpt><trkpt lat="45.400557512649385" lon="10.77989587652259"><ele>121.0</ele><time>2026-03-28T11:48:45Z</time></trkpt><trkpt lat="45.400663121852745" lon="10.779979742259874"><ele>121.0</ele><time>2026-03-28T11:48:46Z</time></trkpt><trkpt lat="45.40078321951042" lon="10.780086200732338"><ele>121.0</ele><time>2026-03-28T11:48:47Z</time></trkpt><trkpt lat="45.4009280859832" lon="10.780209125413569"><ele>121.0</ele><time>2026-03-28T11:48:48Z</time></trkpt><trkpt lat="45.40105691810618" lon="10.780311723839754"><ele>121.0</ele><time>2026-03-28T11:48:49Z</time></trkpt><trkpt lat="45.401171422550235" lon="10.780389234909384"><ele>121.0</ele><time>2026-03-28T11:48:50Z</time></trkpt><trkpt lat="45.401280418118255" lon="10.780465546749697"><ele>121.8</ele><time>2026-03-28T11:48:51Z</time></trkpt><trkpt lat="45.401390990001566" lon="10.78052296728806"><ele>122.6</ele><time>2026-03-28T11:48:52Z</time></trkpt><trkpt lat="45.40149064802079" lon="10.780569729602377"><ele>123.4</ele><time>2026-03-28T11:48:53Z</time></trkpt><trkpt lat="45.401583101306905" lon="10.780637369934201"><ele>124.2</ele><time>2026-03-28T11:48:55Z</time></trkpt><trkpt lat="45.40159355174686" lon="10.780802185534474"><ele>125.0</ele><time>2026-03-28T11:48:57Z</time></trkpt><trkpt lat="45.40164101172285" lon="10.780931463086445"><ele>124.0</ele><time>2026-03-28T11:48:58Z</time></trkpt><trkpt lat="45.40169211709884" lon="10.781078925941681"><ele>123.0</ele><time>2026-03-28T11:48:59Z</time></trkpt><trkpt lat="45.40176668618835" lon="10.781224485273158"><ele>122.0</ele><time>2026-03-28T11:49:00Z</time></trkpt><trkpt lat="45.40185794877229" lon="10.781380076470455"><ele>121.0</ele><time>2026-03-28T11:49:01Z</time></trkpt><trkpt lat="45.401955730526986" lon="10.781508251226533"><ele>121.0</ele><time>2026-03-28T11:49:02Z</time></trkpt><trkpt lat="45.40205411738756" lon="10.78161116570598"><ele>121.0</ele><time>2026-03-28T11:49:03Z</time></trkpt><trkpt lat="45.402160532659046" lon="10.781696880087862"><ele>121.0</ele><time>2026-03-28T11:49:04Z</time></trkpt><trkpt lat="45.402283004811174" lon="10.78177553791825"><ele>121.0</ele><time>2026-03-28T11:49:05Z</time></trkpt><trkpt lat="45.40240073361347" lon="10.781883051298479"><ele>120.75</ele><time>2026-03-28T11:49:06Z</time></trkpt><trkpt lat="45.40250538648834" lon="10.782027624811784"><ele>120.5</ele><time>2026-03-28T11:49:07Z</time></trkpt><trkpt lat="45.40258839343969" lon="10.782212339997646"><ele>120.25</ele><time>2026-03-28T11:49:08Z</time></trkpt><trkpt lat="45.40268710889993" lon="10.782369072562572"><ele>120.0</ele><time>2026-03-28T11:49:09Z</time></trkpt><trkpt lat="45.40278232448466" lon="10.782536095793446"><ele>120.0</ele><time>2026-03-28T11:49:10Z</time></trkpt><trkpt lat="45.40286831268626" lon="10.782681287214748"><ele>120.0</ele><time>2026-03-28T11:49:11Z</time></trkpt><trkpt lat="45.40295356398855" lon="10.782793973833277"><ele>120.0</ele><time>2026-03-28T11:49:12Z</time></trkpt><trkpt lat="45.40303543096794" lon="10.782882798379273"><ele>120.0</ele><time>2026-03-28T11:49:13Z</time></trkpt><trkpt lat="45.40311016529559" lon="10.78294947781166"><ele>120.0</ele><time>2026-03-28T11:49:14Z</time></trkpt><trkpt lat="45.403190336242126" lon="10.783050347929253"><ele>120.0</ele><time>2026-03-28T11:49:16Z</time></trkpt><trkpt lat="45.40319334638382" lon="10.78314605675012"><ele>120.0</ele><time>2026-03-28T11:49:17Z</time></trkpt><trkpt lat="45.40324983790985" lon="10.783243499477638"><ele>120.0</ele><time>2026-03-28T11:49:18Z</time></trkpt><trkpt lat="45.403326061541165" lon="10.783375500766262"><ele>120.0</ele><time>2026-03-28T11:49:19Z</time></trkpt><trkpt lat="45.403416675566724" lon="10.783494643448702"><ele>120.0</ele><time>2026-03-28T11:49:20Z</time></trkpt><trkpt lat="45.40350664805346" lon="10.783633073383767"><ele>120.0</ele><time>2026-03-28T11:49:21Z</time></trkpt><trkpt lat="45.40358667316416" lon="10.783784115524979"><ele>120.0</ele><time>2026-03-28T11:49:22Z</time></trkpt><trkpt lat="45.403697132200854" lon="10.783922816276638"><ele>120.0</ele><time>2026-03-28T11:49:23Z</time></trkpt><trkpt lat="45.40378598066039" lon="10.784065962763455"><ele>120.0</ele><time>2026-03-28T11:49:24Z</time></trkpt><trkpt lat="45.40387488173142" lon="10.784212183797383"><ele>120.6</ele><time>2026-03-28T11:49:25Z</time></trkpt><trkpt lat="45.40394094086306" lon="10.784354151706212"><ele>121.2</ele><time>2026-03-28T11:49:26Z</time></trkpt><trkpt lat="45.4039855381766" lon="10.78445806899853"><ele>121.80000000000001</ele><time>2026-03-28T11:49:27Z</time></trkpt><trkpt lat="45.40403068982319" lon="10.78459131025657"><ele>122.4</ele><time>2026-03-28T11:49:28Z</time></trkpt><trkpt lat="45.40406101684757" lon="10.784757924579326"><ele>123.0</ele><time>2026-03-28T11:49:29Z</time></trkpt><trkpt lat="45.40407308623946" lon="10.78493931024295"><ele>123.0</ele><time>2026-03-28T11:49:30Z</time></trkpt><trkpt lat="45.40407622238273" lon="10.785140752802683"><ele>123.0</ele><time>2026-03-28T11:49:31Z</time></trkpt><trkpt lat="45.40408398742469" lon="10.785301754018997"><ele>123.0</ele><time>2026-03-28T11:49:32Z</time></trkpt><trkpt lat="45.40409201315422" lon="10.785464632146363"><ele>123.0</ele><time>2026-03-28T11:49:33Z</time></trkpt><trkpt lat="45.40410091570159" lon="10.785606017520509"><ele>123.2</ele><time>2026-03-28T11:49:34Z</time></trkpt><trkpt lat="45.40411907431179" lon="10.78574286878231"><ele>123.4</ele><time>2026-03-28T11:49:35Z</time></trkpt><trkpt lat="45.404161120955315" lon="10.785882274513304"><ele>123.60000000000001</ele><time>2026-03-28T11:49:36Z</time></trkpt><trkpt lat="45.4042071156361" lon="10.786035503208625"><ele>123.80000000000001</ele><time>2026-03-28T11:49:37Z</time></trkpt><trkpt lat="45.404244502159024" lon="10.786190322464403"><ele>124.0</ele><time>2026-03-28T11:49:38Z</time></trkpt><trkpt lat="45.40427678725236" lon="10.786318598309775"><ele>124.00000000000001</ele><time>2026-03-28T11:49:39Z</time></trkpt><trkpt lat="45.40429425862387" lon="10.786428444006038"><ele>124.0</ele><time>2026-03-28T11:49:40Z</time></trkpt><trkpt lat="45.40429309923027" lon="10.78653355416849"><ele>124.0</ele><time>2026-03-28T11:49:41Z</time></trkpt><trkpt lat="45.40424760699978" lon="10.786609612795962"><ele>124.0</ele><time>2026-03-28T11:49:42Z</time></trkpt><trkpt lat="45.40424249097381" lon="10.786716569632368"><ele>124.00000000000001</ele><time>2026-03-28T11:49:43Z</time></trkpt><trkpt lat="45.40422622325596" lon="10.786822843211171"><ele>124.0</ele><time>2026-03-28T11:49:44Z</time></trkpt><trkpt lat="45.40422040069286" lon="10.786938130164843"><ele>123.0</ele><time>2026-03-28T11:49:45Z</time></trkpt><trkpt lat="45.40422505051218" lon="10.787067889364243"><ele>122.0</ele><time>2026-03-28T11:49:46Z</time></trkpt><trkpt lat="45.40424176746045" lon="10.787209052518412"><ele>121.0</ele><time>2026-03-28T11:49:47Z</time></trkpt><trkpt lat="45.40426943559603" lon="10.787374218066953"><ele>120.0</ele><time>2026-03-28T11:49:48Z</time></trkpt><trkpt lat="45.40430288857573" lon="10.787520163676923"><ele>119.0</ele><time>2026-03-28T11:49:49Z</time></trkpt><trkpt lat="45.40433147469297" lon="10.787627112252162"><ele>117.80000000000001</ele><time>2026-03-28T11:49:50Z</time></trkpt><trkpt lat="45.404375404243495" lon="10.787748200009892"><ele>116.60000000000001</ele><time>2026-03-28T11:49:51Z</time></trkpt><trkpt lat="45.40442290636124" lon="10.787856481670904"><ele>115.4</ele><time>2026-03-28T11:49:52Z</time></trkpt><trkpt lat="45.40448869758512" lon="10.787972165759689"><ele>114.2</ele><time>2026-03-28T11:49:53Z</time></trkpt><trkpt lat="45.40455712348486" lon="10.78808648435014"><ele>113.0</ele><time>2026-03-28T11:49:54Z</time></trkpt><trkpt lat="45.40463622504756" lon="10.788182669770363"><ele>113.33333333333333</ele><time>2026-03-28T11:49:55Z</time></trkpt><trkpt lat="45.40471388264988" lon="10.78828200886254"><ele>113.66666666666666</ele><time>2026-03-28T11:49:56Z</time></trkpt><trkpt lat="45.4047721907423" lon="10.78836643795712"><ele>114.0</ele><time>2026-03-28T11:49:57Z</time></trkpt><trkpt lat="45.40482063516739" lon="10.788450868996499"><ele>114.33333333333334</ele><time>2026-03-28T11:49:58Z</time></trkpt><trkpt lat="45.404836358467854" lon="10.78854261756724"><ele>114.66666666666667</ele><time>2026-03-28T11:49:59Z</time></trkpt><trkpt lat="45.404850851806664" lon="10.788665323689711"><ele>115.0</ele><time>2026-03-28T11:50:00Z</time></trkpt><trkpt lat="45.40486111065342" lon="10.78882289639381"><ele>114.0</ele><time>2026-03-28T11:50:01Z</time></trkpt><trkpt lat="45.404857313202285" lon="10.789007567211847"><ele>113.0</ele><time>2026-03-28T11:50:02Z</time></trkpt><trkpt lat="45.404870104805354" lon="10.78920379214626"><ele>112.0</ele><time>2026-03-28T11:50:03Z</time></trkpt><trkpt lat="45.404884490658795" lon="10.789398177774299"><ele>111.0</ele><time>2026-03-28T11:50:04Z</time></trkpt><trkpt lat="45.40489299591958" lon="10.789562870180735"><ele>111.0</ele><time>2026-03-28T11:50:05Z</time></trkpt><trkpt lat="45.404862920928416" lon="10.789710167298821"><ele>111.0</ele><time>2026-03-28T11:50:06Z</time></trkpt><trkpt lat="45.40490666933707" lon="10.789894036536147"><ele>111.0</ele><time>2026-03-28T11:50:07Z</time></trkpt><trkpt lat="45.40489817405953" lon="10.790098472244928"><ele>111.0</ele><time>2026-03-28T11:50:08Z</time></trkpt><trkpt lat="45.404900776504135" lon="10.790308359838349"><ele>110.75</ele><time>2026-03-28T11:50:09Z</time></trkpt><trkpt lat="45.40490320333478" lon="10.79051702820223"><ele>110.5</ele><time>2026-03-28T11:50:10Z</time></trkpt><trkpt lat="45.40490158044901" lon="10.790722783155857"><ele>110.25</ele><time>2026-03-28T11:50:11Z</time></trkpt><trkpt lat="45.40490111617844" lon="10.790921083600285"><ele>110.0</ele><time>2026-03-28T11:50:12Z</time></trkpt><trkpt lat="45.40490340360073" lon="10.791101881569666"><ele>110.33333333333333</ele><time>2026-03-28T11:50:13Z</time></trkpt><trkpt lat="45.40490474928509" lon="10.791249314791616"><ele>110.66666666666666</ele><time>2026-03-28T11:50:14Z</time></trkpt><trkpt lat="45.40490357795408" lon="10.791356999836616"><ele>111.0</ele><time>2026-03-28T11:50:15Z</time></trkpt><trkpt lat="45.40491146579796" lon="10.791475606919503"><ele>111.33333333333334</ele><time>2026-03-28T11:50:17Z</time></trkpt><trkpt lat="45.40500878497286" lon="10.791510091370903"><ele>111.66666666666667</ele><time>2026-03-28T11:50:20Z</time></trkpt><trkpt lat="45.40508501600344" lon="10.791499208606306"><ele>112.0</ele><time>2026-03-28T11:50:21Z</time></trkpt><trkpt lat="45.40517657765665" lon="10.791491210609921"><ele>112.0</ele><time>2026-03-28T11:50:22Z</time></trkpt><trkpt lat="45.40529569417079" lon="10.791481064486888"><ele>112.0</ele><time>2026-03-28T11:50:23Z</time></trkpt><trkpt lat="45.40543168030239" lon="10.791469846450184"><ele>112.0</ele><time>2026-03-28T11:50:24Z</time></trkpt><trkpt lat="45.40557983787885" lon="10.791460310891296"><ele>112.0</ele><time>2026-03-28T11:50:25Z</time></trkpt><trkpt lat="45.40573787809734" lon="10.791449031322648"><ele>112.33333333333334</ele><time>2026-03-28T11:50:26Z</time></trkpt><trkpt lat="45.405903266047034" lon="10.791440010523722"><ele>112.66666666666666</ele><time>2026-03-28T11:50:27Z</time></trkpt><trkpt lat="45.40606954451402" lon="10.791426713829518"><ele>113.0</ele><time>2026-03-28T11:50:28Z</time></trkpt><trkpt lat="45.40623441210278" lon="10.791403599414657"><ele>112.66666666666666</ele><time>2026-03-28T11:50:29Z</time></trkpt><trkpt lat="45.40639519688047" lon="10.791380566648686"><ele>112.33333333333334</ele><time>2026-03-28T11:50:30Z</time></trkpt><trkpt lat="45.40656850319606" lon="10.791391974299161"><ele>112.0</ele><time>2026-03-28T11:50:31Z</time></trkpt><trkpt lat="45.406740513135276" lon="10.791381232767696"><ele>112.0</ele><time>2026-03-28T11:50:32Z</time></trkpt><trkpt lat="45.406922961425664" lon="10.791369839389429"><ele>112.0</ele><time>2026-03-28T11:50:33Z</time></trkpt><trkpt lat="45.40710948328476" lon="10.791358183488494"><ele>112.0</ele><time>2026-03-28T11:50:34Z</time></trkpt><trkpt lat="45.407297989828976" lon="10.7913249653386"><ele>112.0</ele><time>2026-03-28T11:50:35Z</time></trkpt><trkpt lat="45.40749618438277" lon="10.79132158213234"><ele>112.0</ele><time>2026-03-28T11:50:36Z</time></trkpt><trkpt lat="45.40768985957496" lon="10.791312116444441"><ele>112.0</ele><time>2026-03-28T11:50:37Z</time></trkpt><trkpt lat="45.4078578677434" lon="10.791302671882352"><ele>112.33333333333334</ele><time>2026-03-28T11:50:38Z</time></trkpt><trkpt lat="45.40804483800614" lon="10.791287784778609"><ele>112.66666666666666</ele><time>2026-03-28T11:50:39Z</time></trkpt><trkpt lat="45.40822965032021" lon="10.791280811801172"><ele>113.0</ele><time>2026-03-28T11:50:40Z</time></trkpt><trkpt lat="45.40840647394723" lon="10.791273448920853"><ele>113.0</ele><time>2026-03-28T11:50:41Z</time></trkpt><trkpt lat="45.408575462602194" lon="10.791283096625966"><ele>113.0</ele><time>2026-03-28T11:50:42Z</time></trkpt><trkpt lat="45.40871914090052" lon="10.791276606591238"><ele>113.0</ele><time>2026-03-28T11:50:43Z</time></trkpt><trkpt lat="45.40884995316347" lon="10.791270697723462"><ele>113.0</ele><time>2026-03-28T11:50:44Z</time></trkpt><trkpt lat="45.408967423347306" lon="10.791265391526455"><ele>113.0</ele><time>2026-03-28T11:50:45Z</time></trkpt><trkpt lat="45.40906665440453" lon="10.791260909201581"><ele>113.00000000000001</ele><time>2026-03-28T11:50:46Z</time></trkpt><trkpt lat="45.409147763274575" lon="10.791257245465104"><ele>113.00000000000001</ele><time>2026-03-28T11:50:47Z</time></trkpt><trkpt lat="45.40921470075583" lon="10.79125422185938"><ele>113.0</ele><time>2026-03-28T11:50:48Z</time></trkpt><trkpt lat="45.40928149890908" lon="10.791251204545333"><ele>113.0</ele><time>2026-03-28T11:50:51Z</time></trkpt><trkpt lat="45.40931060159431" lon="10.79092996619928"><ele>113.25</ele><time>2026-03-28T11:50:54Z</time></trkpt><trkpt lat="45.40930771844492" lon="10.790750262191793"><ele>113.5</ele><time>2026-03-28T11:50:55Z</time></trkpt><trkpt lat="45.40930075223103" lon="10.790550257309965"><ele>113.75</ele><time>2026-03-28T11:50:56Z</time></trkpt><trkpt lat="45.40929588818739" lon="10.790379220665768"><ele>114.0</ele><time>2026-03-28T11:50:57Z</time></trkpt><trkpt lat="45.409292398833195" lon="10.790258822050786"><ele>114.0</ele><time>2026-03-28T11:50:59Z</time></trkpt><trkpt lat="45.409449128009165" lon="10.790184786682836"><ele>114.0</ele><time>2026-03-28T11:51:02Z</time></trkpt><trkpt lat="45.409552398105625" lon="10.790094680616086"><ele>114.0</ele><time>2026-03-28T11:51:03Z</time></trkpt><trkpt lat="45.409674953121865" lon="10.789970599458494"><ele>114.0</ele><time>2026-03-28T11:51:04Z</time></trkpt><trkpt lat="45.40982306009707" lon="10.789821357326733"><ele>114.66666666666666</ele><time>2026-03-28T11:51:05Z</time></trkpt><trkpt lat="45.40997461297743" lon="10.7896795203757"><ele>115.33333333333333</ele><time>2026-03-28T11:51:06Z</time></trkpt><trkpt lat="45.41013894478957" lon="10.789528497869442"><ele>116.0</ele><time>2026-03-28T11:51:07Z</time></trkpt><trkpt lat="45.410290963204375" lon="10.789391111694231"><ele>115.66666666666666</ele><time>2026-03-28T11:51:08Z</time></trkpt><trkpt lat="45.41044191216752" lon="10.789255969192979"><ele>115.33333333333334</ele><time>2026-03-28T11:51:09Z</time></trkpt><trkpt lat="45.41058193244261" lon="10.789122458308132"><ele>115.0</ele><time>2026-03-28T11:51:10Z</time></trkpt><trkpt lat="45.41073244948996" lon="10.788980053045083"><ele>115.66666666666667</ele><time>2026-03-28T11:51:11Z</time></trkpt><trkpt lat="45.41087785487307" lon="10.788855360211137"><ele>116.33333333333334</ele><time>2026-03-28T11:51:12Z</time></trkpt><trkpt lat="45.41101330949355" lon="10.788732609995341"><ele>117.0</ele><time>2026-03-28T11:51:13Z</time></trkpt><trkpt lat="45.41115280489396" lon="10.788596965994445"><ele>117.0</ele><time>2026-03-28T11:51:14Z</time></trkpt><trkpt lat="45.41129055608539" lon="10.788440778459307"><ele>117.0</ele><time>2026-03-28T11:51:15Z</time></trkpt><trkpt lat="45.41142198414057" lon="10.788280401086698"><ele>117.0</ele><time>2026-03-28T11:51:16Z</time></trkpt><trkpt lat="45.41154459958859" lon="10.788132252877427"><ele>117.25</ele><time>2026-03-28T11:51:17Z</time></trkpt><trkpt lat="45.411665473411226" lon="10.787992520476509"><ele>117.5</ele><time>2026-03-28T11:51:18Z</time></trkpt><trkpt lat="45.41177330708085" lon="10.787887649207635"><ele>117.75</ele><time>2026-03-28T11:51:19Z</time></trkpt><trkpt lat="45.41187536153082" lon="10.787804157275852"><ele>118.0</ele><time>2026-03-28T11:51:20Z</time></trkpt><trkpt lat="45.41197067336138" lon="10.787715285574711"><ele>118.0</ele><time>2026-03-28T11:51:21Z</time></trkpt><trkpt lat="45.41205014325801" lon="10.787649120886924"><ele>118.00000000000001</ele><time>2026-03-28T11:51:22Z</time></trkpt><trkpt lat="45.41211744399662" lon="10.787560850166171"><ele>118.00000000000001</ele><time>2026-03-28T11:51:23Z</time></trkpt><trkpt lat="45.41216312692677" lon="10.787434685782674"><ele>118.0</ele><time>2026-03-28T11:51:24Z</time></trkpt><trkpt lat="45.41218966071014" lon="10.787301516693311"><ele>118.0</ele><time>2026-03-28T11:51:25Z</time></trkpt><trkpt lat="45.41220732544484" lon="10.787135994830978"><ele>118.0</ele><time>2026-03-28T11:51:26Z</time></trkpt><trkpt lat="45.41222112669519" lon="10.786970745271788"><ele>118.00000000000001</ele><time>2026-03-28T11:51:27Z</time></trkpt><trkpt lat="45.41225113010826" lon="10.786837827520266"><ele>118.00000000000001</ele><time>2026-03-28T11:51:28Z</time></trkpt><trkpt lat="45.41230096897309" lon="10.786721612560095"><ele>118.0</ele><time>2026-03-28T11:51:29Z</time></trkpt><trkpt lat="45.41237612683999" lon="10.786604224405707"><ele>118.0</ele><time>2026-03-28T11:51:30Z</time></trkpt><trkpt lat="45.41247978166596" lon="10.786471723422332"><ele>118.0</ele><time>2026-03-28T11:51:31Z</time></trkpt><trkpt lat="45.41259925571663" lon="10.78631978354799"><ele>118.0</ele><time>2026-03-28T11:51:32Z</time></trkpt><trkpt lat="45.412724708679924" lon="10.78616046837189"><ele>118.0</ele><time>2026-03-28T11:51:33Z</time></trkpt><trkpt lat="45.41284585733401" lon="10.786006692359843"><ele>118.0</ele><time>2026-03-28T11:51:34Z</time></trkpt><trkpt lat="45.41295798873252" lon="10.78585636953466"><ele>118.0</ele><time>2026-03-28T11:51:35Z</time></trkpt><trkpt lat="45.413072303491454" lon="10.785692825858755"><ele>118.0</ele><time>2026-03-28T11:51:36Z</time></trkpt><trkpt lat="45.413178741098136" lon="10.785526857290474"><ele>118.33333333333334</ele><time>2026-03-28T11:51:37Z</time></trkpt><trkpt lat="45.413284371614374" lon="10.7853492060595"><ele>118.66666666666666</ele><time>2026-03-28T11:51:38Z</time></trkpt><trkpt lat="45.41339387419582" lon="10.78516094665889"><ele>119.0</ele><time>2026-03-28T11:51:39Z</time></trkpt><trkpt lat="45.41349138547275" lon="10.784996281244322"><ele>119.75</ele><time>2026-03-28T11:51:40Z</time></trkpt><trkpt lat="45.413581846980456" lon="10.784836681039067"><ele>120.5</ele><time>2026-03-28T11:51:41Z</time></trkpt><trkpt lat="45.41367559336" lon="10.784680708227027"><ele>121.25</ele><time>2026-03-28T11:51:42Z</time></trkpt><trkpt lat="45.41376187371814" lon="10.784536384323488"><ele>122.0</ele><time>2026-03-28T11:51:43Z</time></trkpt><trkpt lat="45.41383163156644" lon="10.784414437144417"><ele>121.99999999999999</ele><time>2026-03-28T11:51:44Z</time></trkpt><trkpt lat="45.41388670750567" lon="10.784309193851628"><ele>122.0</ele><time>2026-03-28T11:51:45Z</time></trkpt><trkpt lat="45.413931864633554" lon="10.78422536485774"><ele>122.0</ele><time>2026-03-28T11:51:46Z</time></trkpt><trkpt lat="45.414027218165984" lon="10.784170217091537"><ele>122.0</ele><time>2026-03-28T11:51:48Z</time></trkpt><trkpt lat="45.41410015885336" lon="10.784202793787328"><ele>121.99999999999999</ele><time>2026-03-28T11:51:49Z</time></trkpt><trkpt lat="45.4141913649683" lon="10.784262187151493"><ele>122.0</ele><time>2026-03-28T11:51:50Z</time></trkpt><trkpt lat="45.41431547898684" lon="10.784349468337506"><ele>122.0</ele><time>2026-03-28T11:51:51Z</time></trkpt><trkpt lat="45.41445373775789" lon="10.784441587748384"><ele>122.0</ele><time>2026-03-28T11:51:52Z</time></trkpt><trkpt lat="45.414599415015346" lon="10.78454561681189"><ele>122.0</ele><time>2026-03-28T11:51:53Z</time></trkpt><trkpt lat="45.4147601407073" lon="10.784662189481466"><ele>122.0</ele><time>2026-03-28T11:51:54Z</time></trkpt><trkpt lat="45.41492393136794" lon="10.784764370603067"><ele>122.0</ele><time>2026-03-28T11:51:55Z</time></trkpt><trkpt lat="45.41508352987789" lon="10.784876199358843"><ele>122.0</ele><time>2026-03-28T11:51:56Z</time></trkpt><trkpt lat="45.41524174137675" lon="10.784970755407048"><ele>122.0</ele><time>2026-03-28T11:51:57Z</time></trkpt><trkpt lat="45.415399472403855" lon="10.785079588904612"><ele>122.0</ele><time>2026-03-28T11:51:58Z</time></trkpt><trkpt lat="45.415551407988936" lon="10.785172839338"><ele>122.0</ele><time>2026-03-28T11:51:59Z</time></trkpt><trkpt lat="45.4157049637392" lon="10.785283503214965"><ele>121.75</ele><time>2026-03-28T11:52:00Z</time></trkpt><trkpt lat="45.41583692009527" lon="10.785373835447855"><ele>121.5</ele><time>2026-03-28T11:52:01Z</time></trkpt><trkpt lat="45.41597687749217" lon="10.785457716510871"><ele>121.25</ele><time>2026-03-28T11:52:02Z</time></trkpt><trkpt lat="45.41610989168196" lon="10.785541345637888"><ele>121.0</ele><time>2026-03-28T11:52:03Z</time></trkpt><trkpt lat="45.41624785572408" lon="10.785630374558828"><ele>122.0</ele><time>2026-03-28T11:52:04Z</time></trkpt><trkpt lat="45.41638750648393" lon="10.785718588723295"><ele>123.0</ele><time>2026-03-28T11:52:05Z</time></trkpt><trkpt lat="45.41652220792772" lon="10.785802628146651"><ele>124.0</ele><time>2026-03-28T11:52:06Z</time></trkpt><trkpt lat="45.41665260972138" lon="10.785884367066688"><ele>125.0</ele><time>2026-03-28T11:52:07Z</time></trkpt><trkpt lat="45.416768596405795" lon="10.785986254014901"><ele>125.0</ele><time>2026-03-28T11:52:08Z</time></trkpt><trkpt lat="45.416887774201825" lon="10.786077677840405"><ele>125.0</ele><time>2026-03-28T11:52:09Z</time></trkpt><trkpt lat="45.4170127825483" lon="10.786136487753012"><ele>125.0</ele><time>2026-03-28T11:52:10Z</time></trkpt><trkpt lat="45.417112513126256" lon="10.786203341544326"><ele>125.0</ele><time>2026-03-28T11:52:11Z</time></trkpt><trkpt lat="45.41720295792976" lon="10.786258835061645"><ele>125.0</ele><time>2026-03-28T11:52:12Z</time></trkpt><trkpt lat="45.41728167647784" lon="10.786310270041296"><ele>125.0</ele><time>2026-03-28T11:52:13Z</time></trkpt><trkpt lat="45.41740195447967" lon="10.786388814158649"><ele>125.0</ele><time>2026-03-28T11:52:15Z</time></trkpt><trkpt lat="45.41749525857984" lon="10.78643996845145"><ele>125.0</ele><time>2026-03-28T11:52:16Z</time></trkpt><trkpt lat="45.417577356883506" lon="10.786495815679277"><ele>125.0</ele><time>2026-03-28T11:52:17Z</time></trkpt><trkpt lat="45.41764414420649" lon="10.786551149977331"><ele>125.0</ele><time>2026-03-28T11:52:18Z</time></trkpt><trkpt lat="45.41771365075711" lon="10.786605000255918"><ele>125.0</ele><time>2026-03-28T11:52:18.999Z</time></trkpt><trkpt lat="45.41778212751448" lon="10.786655554367238"><ele>125.0</ele><time>2026-03-28T11:52:19.999Z</time></trkpt><trkpt lat="45.41784759751695" lon="10.786701832755341"><ele>125.0</ele><time>2026-03-28T11:52:20.999Z</time></trkpt><trkpt lat="45.41791757310474" lon="10.786747717684886"><ele>125.0</ele><time>2026-03-28T11:52:21.999Z</time></trkpt><trkpt lat="45.41798243462919" lon="10.786787168297133"><ele>125.0</ele><time>2026-03-28T11:52:22.999Z</time></trkpt><trkpt lat="45.41804598937686" lon="10.786827161952303"><ele>125.0</ele><time>2026-03-28T11:52:23.999Z</time></trkpt><trkpt lat="45.4181171371885" lon="10.786863329305715"><ele>125.0</ele><time>2026-03-28T11:52:24.999Z</time></trkpt><trkpt lat="45.41819673649871" lon="10.78689925229077"><ele>125.0</ele><time>2026-03-28T11:52:25.999Z</time></trkpt><trkpt lat="45.41827387384509" lon="10.786981965097258"><ele>125.0</ele><time>2026-03-28T11:52:26.999Z</time></trkpt><trkpt lat="45.418371235108935" lon="10.78704437636992"><ele>125.0</ele><time>2026-03-28T11:52:27.999Z</time></trkpt><trkpt lat="45.41848200175816" lon="10.787133449622704"><ele>125.0</ele><time>2026-03-28T11:52:28.999Z</time></trkpt><trkpt lat="45.41859379587897" lon="10.787212545550547"><ele>125.0</ele><time>2026-03-28T11:52:29.999Z</time></trkpt><trkpt lat="45.41870377916881" lon="10.787277203600087"><ele>125.0</ele><time>2026-03-28T11:52:30.999Z</time></trkpt><trkpt lat="45.41880468969556" lon="10.787321032853738"><ele>125.0</ele><time>2026-03-28T11:52:31.999Z</time></trkpt><trkpt lat="45.418896226632214" lon="10.787360944353914"><ele>125.0</ele><time>2026-03-28T11:52:32.999Z</time></trkpt><trkpt lat="45.41897896635241" lon="10.787393767502241"><ele>125.0</ele><time>2026-03-28T11:52:33.999Z</time></trkpt><trkpt lat="45.41904543042471" lon="10.787444193813345"><ele>124.6</ele><time>2026-03-28T11:52:34.999Z</time></trkpt><trkpt lat="45.41911318838389" lon="10.787463994618381"><ele>124.2</ele><time>2026-03-28T11:52:35.999Z</time></trkpt><trkpt lat="45.41917747004472" lon="10.787448816938205"><ele>123.80000000000001</ele><time>2026-03-28T11:52:36.999Z</time></trkpt><trkpt lat="45.419224699073375" lon="10.787262024978986"><ele>123.4</ele><time>2026-03-28T11:52:38.999Z</time></trkpt><trkpt lat="45.419265143961056" lon="10.787150105386743"><ele>123.0</ele><time>2026-03-28T11:52:39.999Z</time></trkpt><trkpt lat="45.419297210940336" lon="10.787028548177997"><ele>123.0</ele><time>2026-03-28T11:52:40.999Z</time></trkpt><trkpt lat="45.4193268322666" lon="10.786947980959372"><ele>123.00000000000001</ele><time>2026-03-28T11:52:41.999Z</time></trkpt><trkpt lat="45.419395781664" lon="10.786928309839364"><ele>123.00000000000001</ele><time>2026-03-28T11:52:43.999Z</time></trkpt><trkpt lat="45.419455575505246" lon="10.78700645059036"><ele>123.0</ele><time>2026-03-28T11:52:44.999Z</time></trkpt><trkpt lat="45.41954914799446" lon="10.787057853304987"><ele>123.0</ele><time>2026-03-28T11:52:45.999Z</time></trkpt><trkpt lat="45.419678002277" lon="10.78711255287382"><ele>123.5</ele><time>2026-03-28T11:52:46.999Z</time></trkpt><trkpt lat="45.41980154151887" lon="10.787195838488891"><ele>124.0</ele><time>2026-03-28T11:52:47.999Z</time></trkpt><trkpt lat="45.41992998900137" lon="10.78728196084102"><ele>124.5</ele><time>2026-03-28T11:52:48.999Z</time></trkpt><trkpt lat="45.4200472624236" lon="10.78736681030781"><ele>125.0</ele><time>2026-03-28T11:52:49.999Z</time></trkpt><trkpt lat="45.42015028152067" lon="10.787488287369115"><ele>125.0</ele><time>2026-03-28T11:52:50.999Z</time></trkpt><trkpt lat="45.42026074966045" lon="10.78765547824888"><ele>125.0</ele><time>2026-03-28T11:52:51.999Z</time></trkpt><trkpt lat="45.42037891506319" lon="10.787841558150305"><ele>125.0</ele><time>2026-03-28T11:52:52.999Z</time></trkpt><trkpt lat="45.42050301923997" lon="10.788023432037473"><ele>126.0</ele><time>2026-03-28T11:52:53.999Z</time></trkpt><trkpt lat="45.42062875928804" lon="10.78817194205395"><ele>127.0</ele><time>2026-03-28T11:52:54.999Z</time></trkpt><trkpt lat="45.42074132339462" lon="10.788283791030477"><ele>128.0</ele><time>2026-03-28T11:52:55.999Z</time></trkpt><trkpt lat="45.42084635443707" lon="10.788392284589932"><ele>129.0</ele><time>2026-03-28T11:52:56.999Z</time></trkpt><trkpt lat="45.42095570889527" lon="10.788496387675087"><ele>129.0</ele><time>2026-03-28T11:52:57.999Z</time></trkpt><trkpt lat="45.4210658806976" lon="10.788612494592428"><ele>129.0</ele><time>2026-03-28T11:52:58.999Z</time></trkpt><trkpt lat="45.42115668940677" lon="10.78873296099469"><ele>129.0</ele><time>2026-03-28T11:52:59.999Z</time></trkpt><trkpt lat="45.42123907699388" lon="10.788825284181348"><ele>129.0</ele><time>2026-03-28T11:53:00.999Z</time></trkpt><trkpt lat="45.421338978534024" lon="10.788948702024687"><ele>129.33333333333334</ele><time>2026-03-28T11:53:01.999Z</time></trkpt><trkpt lat="45.42144504904192" lon="10.7890870230127"><ele>129.66666666666669</ele><time>2026-03-28T11:53:02.999Z</time></trkpt><trkpt lat="45.421551048764066" lon="10.78925971205"><ele>130.0</ele><time>2026-03-28T11:53:03.999Z</time></trkpt><trkpt lat="45.42164961875583" lon="10.789437032399288"><ele>130.25</ele><time>2026-03-28T11:53:04.999Z</time></trkpt><trkpt lat="45.421729886567334" lon="10.789605214922885"><ele>130.5</ele><time>2026-03-28T11:53:05.999Z</time></trkpt><trkpt lat="45.421786632842256" lon="10.789741593537858"><ele>130.75</ele><time>2026-03-28T11:53:06.999Z</time></trkpt><trkpt lat="45.42184391673194" lon="10.789872178584252"><ele>131.0</ele><time>2026-03-28T11:53:07.999Z</time></trkpt><trkpt lat="45.42189745866697" lon="10.790006348514682"><ele>131.0</ele><time>2026-03-28T11:53:08.999Z</time></trkpt><trkpt lat="45.421943634708114" lon="10.79017981020502"><ele>131.0</ele><time>2026-03-28T11:53:09.999Z</time></trkpt><trkpt lat="45.4219799672616" lon="10.790322802452593"><ele>131.0</ele><time>2026-03-28T11:53:10.999Z</time></trkpt><trkpt lat="45.42203018329704" lon="10.790445858428788"><ele>131.0</ele><time>2026-03-28T11:53:11.999Z</time></trkpt><trkpt lat="45.42207864759428" lon="10.790517617986373"><ele>131.0</ele><time>2026-03-28T11:53:12.999Z</time></trkpt><trkpt lat="45.4221745815408" lon="10.790558398642947"><ele>131.0</ele><time>2026-03-28T11:53:14.999Z</time></trkpt><trkpt lat="45.422269722334555" lon="10.79045827353231"><ele>131.0</ele><time>2026-03-28T11:53:16.999Z</time></trkpt><trkpt lat="45.42234879940964" lon="10.790394845353832"><ele>131.0</ele><time>2026-03-28T11:53:17.999Z</time></trkpt><trkpt lat="45.42244044211637" lon="10.790363597388604"><ele>131.0</ele><time>2026-03-28T11:53:18.999Z</time></trkpt><trkpt lat="45.4225500149622" lon="10.790355911113299"><ele>131.0</ele><time>2026-03-28T11:53:19.999Z</time></trkpt><trkpt lat="45.42268071827263" lon="10.79034914435831"><ele>131.0</ele><time>2026-03-28T11:53:20.999Z</time></trkpt><trkpt lat="45.42280825363544" lon="10.790325908933298"><ele>131.0</ele><time>2026-03-28T11:53:21.999Z</time></trkpt><trkpt lat="45.422943407437565" lon="10.79028226308112"><ele>131.0</ele><time>2026-03-28T11:53:22.999Z</time></trkpt><trkpt lat="45.42306778588357" lon="10.790253958005676"><ele>131.0</ele><time>2026-03-28T11:53:23.999Z</time></trkpt><trkpt lat="45.42319362595491" lon="10.790223370990294"><ele>130.75</ele><time>2026-03-28T11:53:24.999Z</time></trkpt><trkpt lat="45.423317556794636" lon="10.790186560242832"><ele>130.5</ele><time>2026-03-28T11:53:25.999Z</time></trkpt><trkpt lat="45.42344122191668" lon="10.790150042402052"><ele>130.25</ele><time>2026-03-28T11:53:26.999Z</time></trkpt><trkpt lat="45.42356652942874" lon="10.790126581725078"><ele>130.0</ele><time>2026-03-28T11:53:27.999Z</time></trkpt><trkpt lat="45.42367837153444" lon="10.79009926747723"><ele>130.0</ele><time>2026-03-28T11:53:28.999Z</time></trkpt><trkpt lat="45.42377523497718" lon="10.79004743165084"><ele>130.0</ele><time>2026-03-28T11:53:29.999Z</time></trkpt><trkpt lat="45.4238649891632" lon="10.789983448357452"><ele>130.0</ele><time>2026-03-28T11:53:30.999Z</time></trkpt><trkpt lat="45.42393871228487" lon="10.789936079797823"><ele>130.0</ele><time>2026-03-28T11:53:31.999Z</time></trkpt><trkpt lat="45.424010390400404" lon="10.789958516869927"><ele>130.0</ele><time>2026-03-28T11:53:37Z</time></trkpt><trkpt lat="45.424028596779046" lon="10.790211079838901"><ele>130.25</ele><time>2026-03-28T11:53:39Z</time></trkpt><trkpt lat="45.42404440986661" lon="10.790422093410367"><ele>130.5</ele><time>2026-03-28T11:53:40Z</time></trkpt><trkpt lat="45.42405180107025" lon="10.79062012887667"><ele>130.75</ele><time>2026-03-28T11:53:41Z</time></trkpt><trkpt lat="45.42407019784222" lon="10.790829876883965"><ele>131.0</ele><time>2026-03-28T11:53:42Z</time></trkpt><trkpt lat="45.4240917961924" lon="10.7910294032959"><ele>131.0</ele><time>2026-03-28T11:53:43Z</time></trkpt><trkpt lat="45.42410402387315" lon="10.791207952926175"><ele>131.0</ele><time>2026-03-28T11:53:44Z</time></trkpt><trkpt lat="45.424107266955914" lon="10.79138619692366"><ele>131.0</ele><time>2026-03-28T11:53:45Z</time></trkpt><trkpt lat="45.424103847412326" lon="10.791570838174778"><ele>131.0</ele><time>2026-03-28T11:53:46Z</time></trkpt><trkpt lat="45.424101249892274" lon="10.79175143370518"><ele>130.6</ele><time>2026-03-28T11:53:47Z</time></trkpt><trkpt lat="45.42410212124268" lon="10.791886714932247"><ele>130.2</ele><time>2026-03-28T11:53:48Z</time></trkpt><trkpt lat="45.424103139390006" lon="10.791991670331928"><ele>129.8</ele><time>2026-03-28T11:53:49Z</time></trkpt><trkpt lat="45.42413013434961" lon="10.792139791362237"><ele>129.4</ele><time>2026-03-28T11:53:51Z</time></trkpt><trkpt lat="45.42428415082271" lon="10.792198941228225"><ele>129.0</ele><time>2026-03-28T11:53:53Z</time></trkpt><trkpt lat="45.424425232561234" lon="10.792224785243581"><ele>129.0</ele><time>2026-03-28T11:53:54Z</time></trkpt><trkpt lat="45.42459201608684" lon="10.792294957165753"><ele>129.0</ele><time>2026-03-28T11:53:55Z</time></trkpt><trkpt lat="45.42477000315797" lon="10.792357047328194"><ele>129.0</ele><time>2026-03-28T11:53:56Z</time></trkpt><trkpt lat="45.42492765284565" lon="10.792410424904133"><ele>128.2</ele><time>2026-03-28T11:53:57Z</time></trkpt><trkpt lat="45.425049280227775" lon="10.792428416716481"><ele>127.4</ele><time>2026-03-28T11:53:58Z</time></trkpt><trkpt lat="45.425143982866786" lon="10.792480506497462"><ele>126.6</ele><time>2026-03-28T11:53:59Z</time></trkpt><trkpt lat="45.42521799793766" lon="10.792497789378638"><ele>125.8</ele><time>2026-03-28T11:54:00Z</time></trkpt><trkpt lat="45.42530579247969" lon="10.792518908114609"><ele>125.0</ele><time>2026-03-28T11:54:02Z</time></trkpt><trkpt lat="45.42547300573496" lon="10.79247308242236"><ele>125.33333333333333</ele><time>2026-03-28T11:54:04Z</time></trkpt><trkpt lat="45.42560865842488" lon="10.792424323297308"><ele>125.66666666666666</ele><time>2026-03-28T11:54:05Z</time></trkpt><trkpt lat="45.42578192529645" lon="10.792368964257351"><ele>126.0</ele><time>2026-03-28T11:54:06Z</time></trkpt><trkpt lat="45.42598511024573" lon="10.792302512863351"><ele>126.0</ele><time>2026-03-28T11:54:07Z</time></trkpt><trkpt lat="45.42619106204793" lon="10.792235762912982"><ele>126.0</ele><time>2026-03-28T11:54:08Z</time></trkpt><trkpt lat="45.42640074431555" lon="10.792169250266621"><ele>126.0</ele><time>2026-03-28T11:54:09Z</time></trkpt><trkpt lat="45.426616123158844" lon="10.792098238938303"><ele>125.0</ele><time>2026-03-28T11:54:10Z</time></trkpt><trkpt lat="45.426838490714935" lon="10.792026112180395"><ele>124.0</ele><time>2026-03-28T11:54:11Z</time></trkpt><trkpt lat="45.427065127177876" lon="10.791950891452199"><ele>124.0</ele><time>2026-03-28T11:54:12Z</time></trkpt><trkpt lat="45.42729453295588" lon="10.791880337298814"><ele>124.0</ele><time>2026-03-28T11:54:13Z</time></trkpt><trkpt lat="45.427529506134086" lon="10.791809562962404"><ele>124.0</ele><time>2026-03-28T11:54:14Z</time></trkpt><trkpt lat="45.42777023343521" lon="10.791735322600138"><ele>124.0</ele><time>2026-03-28T11:54:15Z</time></trkpt><trkpt lat="45.42801658514142" lon="10.791658877473605"><ele>124.5</ele><time>2026-03-28T11:54:16Z</time></trkpt><trkpt lat="45.42826443751182" lon="10.791580562810966"><ele>125.0</ele><time>2026-03-28T11:54:17Z</time></trkpt><trkpt lat="45.428506159646645" lon="10.79150251204162"><ele>125.0</ele><time>2026-03-28T11:54:18Z</time></trkpt><trkpt lat="45.42872356305735" lon="10.791428238877081"><ele>125.0</ele><time>2026-03-28T11:54:19Z</time></trkpt><trkpt lat="45.42892439858084" lon="10.791360461467265"><ele>125.0</ele><time>2026-03-28T11:54:20Z</time></trkpt><trkpt lat="45.42912078560142" lon="10.791295186812436"><ele>125.0</ele><time>2026-03-28T11:54:21Z</time></trkpt><trkpt lat="45.4293141920566" lon="10.79122938814837"><ele>125.0</ele><time>2026-03-28T11:54:22Z</time></trkpt><trkpt lat="45.42947308903784" lon="10.791178377387247"><ele>125.0</ele><time>2026-03-28T11:54:23Z</time></trkpt><trkpt lat="45.42959666832011" lon="10.79113433088542"><ele>125.2</ele><time>2026-03-28T11:54:24Z</time></trkpt><trkpt lat="45.42969483335214" lon="10.791106199691507"><ele>125.4</ele><time>2026-03-28T11:54:25Z</time></trkpt><trkpt lat="45.429767282879475" lon="10.791086819320219"><ele>125.6</ele><time>2026-03-28T11:54:26Z</time></trkpt><trkpt lat="45.42983879834301" lon="10.791090705572998"><ele>125.8</ele><time>2026-03-28T11:54:29Z</time></trkpt><trkpt lat="45.42991412856964" lon="10.791204729450723"><ele>126.0</ele><time>2026-03-28T11:54:30Z</time></trkpt><trkpt lat="45.42997920850422" lon="10.791341207226925"><ele>126.0</ele><time>2026-03-28T11:54:31Z</time></trkpt><trkpt lat="45.43002936803582" lon="10.791482301478165"><ele>126.0</ele><time>2026-03-28T11:54:32Z</time></trkpt><trkpt lat="45.43009374481341" lon="10.791594016393777"><ele>126.0</ele><time>2026-03-28T11:54:33Z</time></trkpt><trkpt lat="45.43013521254335" lon="10.791677372382209"><ele>126.0</ele><time>2026-03-28T11:54:34Z</time></trkpt><trkpt lat="45.430274623367616" lon="10.791591070880433"><ele>126.0</ele><time>2026-03-28T11:54:35Z</time></trkpt><trkpt lat="45.43038727248432" lon="10.791573408178056"><ele>126.25</ele><time>2026-03-28T11:54:36Z</time></trkpt><trkpt lat="45.430513613662015" lon="10.791529011657394"><ele>126.5</ele><time>2026-03-28T11:54:37Z</time></trkpt><trkpt lat="45.4306397970315" lon="10.791502683496725"><ele>126.75</ele><time>2026-03-28T11:54:38Z</time></trkpt><trkpt lat="45.43075512248324" lon="10.791485713823459"><ele>127.0</ele><time>2026-03-28T11:54:39Z</time></trkpt><trkpt lat="45.43086304689283" lon="10.791468414401706"><ele>127.0</ele><time>2026-03-28T11:54:40Z</time></trkpt><trkpt lat="45.43095688134589" lon="10.791451377064732"><ele>126.99999999999999</ele><time>2026-03-28T11:54:41Z</time></trkpt><trkpt lat="45.431053064908895" lon="10.791433452818755"><ele>126.99999999999999</ele><time>2026-03-28T11:54:42Z</time></trkpt><trkpt lat="45.43116636980866" lon="10.791421097733812"><ele>127.0</ele><time>2026-03-28T11:54:43Z</time></trkpt><trkpt lat="45.43127405900734" lon="10.791412291577695"><ele>127.0</ele><time>2026-03-28T11:54:44Z</time></trkpt><trkpt lat="45.4313602811275" lon="10.791411659078891"><ele>126.66666666666667</ele><time>2026-03-28T11:54:45Z</time></trkpt><trkpt lat="45.43143763821106" lon="10.791416519800107"><ele>126.33333333333334</ele><time>2026-03-28T11:54:46Z</time></trkpt><trkpt lat="45.431511927614906" lon="10.791424331172804"><ele>126.0</ele><time>2026-03-28T11:54:47Z</time></trkpt><trkpt lat="45.43159247681698" lon="10.79147017812756"><ele>125.66666666666666</ele><time>2026-03-28T11:54:48Z</time></trkpt><trkpt lat="45.431685168299225" lon="10.791494866150115"><ele>125.33333333333333</ele><time>2026-03-28T11:54:49Z</time></trkpt><trkpt lat="45.431777743652034" lon="10.791549393256028"><ele>125.0</ele><time>2026-03-28T11:54:50Z</time></trkpt><trkpt lat="45.43187248063923" lon="10.79161160551166"><ele>125.0</ele><time>2026-03-28T11:54:51Z</time></trkpt><trkpt lat="45.431968328553154" lon="10.79168215136904"><ele>125.0</ele><time>2026-03-28T11:54:52Z</time></trkpt><trkpt lat="45.43206415244909" lon="10.791752249912445"><ele>125.0</ele><time>2026-03-28T11:54:53Z</time></trkpt><trkpt lat="45.432157889307064" lon="10.791824119452684"><ele>125.0</ele><time>2026-03-28T11:54:54Z</time></trkpt><trkpt lat="45.43225781080511" lon="10.791896877880117"><ele>125.0</ele><time>2026-03-28T11:54:55Z</time></trkpt><trkpt lat="45.43236053923342" lon="10.791965618102873"><ele>125.4</ele><time>2026-03-28T11:54:56Z</time></trkpt><trkpt lat="45.4324617054901" lon="10.7920353611226"><ele>125.8</ele><time>2026-03-28T11:54:57Z</time></trkpt><trkpt lat="45.4325621465785" lon="10.79210672674899"><ele>126.19999999999999</ele><time>2026-03-28T11:54:58Z</time></trkpt><trkpt lat="45.43266444842584" lon="10.79217170182714"><ele>126.6</ele><time>2026-03-28T11:54:59Z</time></trkpt><trkpt lat="45.43275991414583" lon="10.792226600915201"><ele>127.0</ele><time>2026-03-28T11:55:00Z</time></trkpt><trkpt lat="45.43285064961815" lon="10.792263189564085"><ele>127.0</ele><time>2026-03-28T11:55:01Z</time></trkpt><trkpt lat="45.4329363106901" lon="10.792284635414111"><ele>127.0</ele><time>2026-03-28T11:55:02Z</time></trkpt><trkpt lat="45.43304143016552" lon="10.792306469747036"><ele>127.0</ele><time>2026-03-28T11:55:03Z</time></trkpt><trkpt lat="45.43317184438544" lon="10.792337825878503"><ele>127.0</ele><time>2026-03-28T11:55:04Z</time></trkpt><trkpt lat="45.433317912184634" lon="10.792350274176727"><ele>128.33333333333334</ele><time>2026-03-28T11:55:05Z</time></trkpt><trkpt lat="45.43348284018533" lon="10.792358556449345"><ele>129.66666666666666</ele><time>2026-03-28T11:55:06Z</time></trkpt><trkpt lat="45.433671149331865" lon="10.79236422392668"><ele>131.0</ele><time>2026-03-28T11:55:07Z</time></trkpt><trkpt lat="45.43386960070313" lon="10.792373261621849"><ele>131.0</ele><time>2026-03-28T11:55:08Z</time></trkpt><trkpt lat="45.43407315484495" lon="10.792380187635688"><ele>131.0</ele><time>2026-03-28T11:55:09Z</time></trkpt><trkpt lat="45.43429675722276" lon="10.792373542778641"><ele>131.0</ele><time>2026-03-28T11:55:10Z</time></trkpt><trkpt lat="45.4345542024249" lon="10.792341635543218"><ele>131.0</ele><time>2026-03-28T11:55:11Z</time></trkpt><trkpt lat="45.4348244351925" lon="10.792300004611894"><ele>131.0</ele><time>2026-03-28T11:55:12Z</time></trkpt><trkpt lat="45.43509266703816" lon="10.792257829941578"><ele>131.0</ele><time>2026-03-28T11:55:13Z</time></trkpt><trkpt lat="45.43533190204557" lon="10.792220302214043"><ele>131.0</ele><time>2026-03-28T11:55:14Z</time></trkpt><trkpt lat="45.4355476832966" lon="10.792184511077782"><ele>132.0</ele><time>2026-03-28T11:55:15Z</time></trkpt><trkpt lat="45.43575140498019" lon="10.79215411468951"><ele>133.0</ele><time>2026-03-28T11:55:16Z</time></trkpt><trkpt lat="45.43594021372284" lon="10.792130038449942"><ele>134.0</ele><time>2026-03-28T11:55:17Z</time></trkpt><trkpt lat="45.43611793342406" lon="10.792107302116133"><ele>134.0</ele><time>2026-03-28T11:55:18Z</time></trkpt><trkpt lat="45.43628670292098" lon="10.79208671028459"><ele>134.0</ele><time>2026-03-28T11:55:19Z</time></trkpt><trkpt lat="45.43644000392568" lon="10.792067593052023"><ele>134.0</ele><time>2026-03-28T11:55:20Z</time></trkpt><trkpt lat="45.43658327647947" lon="10.792045176852008"><ele>134.0</ele><time>2026-03-28T11:55:21Z</time></trkpt><trkpt lat="45.436709760286305" lon="10.792024595363214"><ele>134.0</ele><time>2026-03-28T11:55:22Z</time></trkpt><trkpt lat="45.43680597765434" lon="10.792012347661446"><ele>134.0</ele><time>2026-03-28T11:55:23Z</time></trkpt><trkpt lat="45.43686981921439" lon="10.792006463284418"><ele>134.0</ele><time>2026-03-28T11:55:24Z</time></trkpt><trkpt lat="45.436896008194324" lon="10.791829099252293"><ele>134.0</ele><time>2026-03-28T11:55:27Z</time></trkpt><trkpt lat="45.436903534850444" lon="10.791698946297958"><ele>134.0</ele><time>2026-03-28T11:55:28Z</time></trkpt><trkpt lat="45.43693309033369" lon="10.791588931376124"><ele>134.0</ele><time>2026-03-28T11:55:29Z</time></trkpt><trkpt lat="45.43698430300377" lon="10.79148244223332"><ele>134.0</ele><time>2026-03-28T11:55:30Z</time></trkpt><trkpt lat="45.43702282239714" lon="10.791382683581967"><ele>134.0</ele><time>2026-03-28T11:55:31Z</time></trkpt><trkpt lat="45.437010309999685" lon="10.791199385609914"><ele>134.0</ele><time>2026-03-28T11:55:33Z</time></trkpt><trkpt lat="45.43697058315295" lon="10.791079534639271"><ele>134.0</ele><time>2026-03-28T11:55:34Z</time></trkpt><trkpt lat="45.436916755959544" lon="10.79094302224433"><ele>134.0</ele><time>2026-03-28T11:55:35Z</time></trkpt><trkpt lat="45.43683933513498" lon="10.790797967722945"><ele>134.0</ele><time>2026-03-28T11:55:36Z</time></trkpt><trkpt lat="45.43676225248563" lon="10.79067976883135"><ele>134.0</ele><time>2026-03-28T11:55:37Z</time></trkpt><trkpt lat="45.43669964699039" lon="10.790587434302482"><ele>134.0</ele><time>2026-03-28T11:55:38Z</time></trkpt><trkpt lat="45.436639579292525" lon="10.790520097756747"><ele>134.0</ele><time>2026-03-28T11:55:39Z</time></trkpt><trkpt lat="45.43671065106716" lon="10.790423679226288"><ele>134.0</ele><time>2026-03-28T11:55:42Z</time></trkpt><trkpt lat="45.43670262199828" lon="10.790327597357118"><ele>134.0</ele><time>2026-03-28T11:55:43Z</time></trkpt><trkpt lat="45.436775553745534" lon="10.79022153473442"><ele>134.0</ele><time>2026-03-28T11:55:44Z</time></trkpt><trkpt lat="45.43686236218363" lon="10.790091608334775"><ele>134.0</ele><time>2026-03-28T11:55:45Z</time></trkpt><trkpt lat="45.43695074202204" lon="10.789964391002089"><ele>133.4</ele><time>2026-03-28T11:55:46Z</time></trkpt><trkpt lat="45.43702975947314" lon="10.789835175666687"><ele>132.8</ele><time>2026-03-28T11:55:47Z</time></trkpt><trkpt lat="45.43709502520639" lon="10.789726698257454"><ele>132.2</ele><time>2026-03-28T11:55:48Z</time></trkpt><trkpt lat="45.43715125098862" lon="10.789637227749143"><ele>131.6</ele><time>2026-03-28T11:55:49Z</time></trkpt><trkpt lat="45.437201882325205" lon="10.789564751695908"><ele>131.0</ele><time>2026-03-28T11:55:50Z</time></trkpt><trkpt lat="45.43724196401455" lon="10.789473762040691"><ele>130.66666666666666</ele><time>2026-03-28T11:55:52Z</time></trkpt><trkpt lat="45.43724831776845" lon="10.789335394492344"><ele>130.33333333333331</ele><time>2026-03-28T11:56:09Z</time></trkpt><trkpt lat="45.43720721983692" lon="10.789251447583936"><ele>130.0</ele><time>2026-03-28T11:56:11Z</time></trkpt><trkpt lat="45.43714175321598" lon="10.789232948272902"><ele>129.66666666666666</ele><time>2026-03-28T11:56:12Z</time></trkpt><trkpt lat="45.437057794559536" lon="10.789203167388248"><ele>129.33333333333334</ele><time>2026-03-28T11:56:13Z</time></trkpt><trkpt lat="45.4369693280938" lon="10.789164041225233"><ele>129.0</ele><time>2026-03-28T11:56:14Z</time></trkpt><trkpt lat="45.43691475016753" lon="10.789118940558588"><ele>129.0</ele><time>2026-03-28T11:56:15Z</time></trkpt><trkpt lat="45.43689859186684" lon="10.788990317209677"><ele>129.0</ele><time>2026-03-28T11:56:17Z</time></trkpt><trkpt lat="45.436926778465754" lon="10.788893173652655"><ele>129.0</ele><time>2026-03-28T11:56:18Z</time></trkpt><trkpt lat="45.43696344176531" lon="10.788798690242992"><ele>129.0</ele><time>2026-03-28T11:56:19Z</time></trkpt><trkpt lat="45.43704725126245" lon="10.788696718411385"><ele>129.0</ele><time>2026-03-28T11:56:21Z</time></trkpt><trkpt lat="45.43704311431499" lon="10.788525447316506"><ele>128.6</ele><time>2026-03-28T11:56:23Z</time></trkpt><trkpt lat="45.43703868221248" lon="10.788387187167588"><ele>128.2</ele><time>2026-03-28T11:56:24Z</time></trkpt><trkpt lat="45.43702544730871" lon="10.788239702596627"><ele>127.79999999999998</ele><time>2026-03-28T11:56:25Z</time></trkpt><trkpt lat="45.43701607446596" lon="10.788096963969938"><ele>127.39999999999999</ele><time>2026-03-28T11:56:26Z</time></trkpt><trkpt lat="45.43699952485416" lon="10.787965745552993"><ele>127.0</ele><time>2026-03-28T11:56:27Z</time></trkpt><trkpt lat="45.43696676588268" lon="10.787806488763705"><ele>127.19999999999999</ele><time>2026-03-28T11:56:28Z</time></trkpt><trkpt lat="45.436943021284115" lon="10.787650686837205"><ele>127.39999999999999</ele><time>2026-03-28T11:56:29Z</time></trkpt><trkpt lat="45.43694316258961" lon="10.787513667614833"><ele>127.60000000000001</ele><time>2026-03-28T11:56:30Z</time></trkpt><trkpt lat="45.43695146164386" lon="10.787369548927252"><ele>127.80000000000001</ele><time>2026-03-28T11:56:31Z</time></trkpt><trkpt lat="45.43698784271145" lon="10.78721106157088"><ele>128.0</ele><time>2026-03-28T11:56:32Z</time></trkpt><trkpt lat="45.437034654022234" lon="10.787035939800889"><ele>128.0</ele><time>2026-03-28T11:56:33Z</time></trkpt><trkpt lat="45.437081752996015" lon="10.786885160130874"><ele>128.0</ele><time>2026-03-28T11:56:34Z</time></trkpt><trkpt lat="45.437122788258286" lon="10.786745360148958"><ele>128.0</ele><time>2026-03-28T11:56:35Z</time></trkpt><trkpt lat="45.437184713515485" lon="10.786642042701395"><ele>128.0</ele><time>2026-03-28T11:56:36Z</time></trkpt><trkpt lat="45.437208823899674" lon="10.786484328385775"><ele>128.0</ele><time>2026-03-28T11:56:37Z</time></trkpt><trkpt lat="45.43724319667959" lon="10.786329517016801"><ele>127.75</ele><time>2026-03-28T11:56:38Z</time></trkpt><trkpt lat="45.43726283908141" lon="10.786165439861541"><ele>127.5</ele><time>2026-03-28T11:56:39Z</time></trkpt><trkpt lat="45.437312160379506" lon="10.786031629963814"><ele>127.25</ele><time>2026-03-28T11:56:40Z</time></trkpt><trkpt lat="45.43735715114041" lon="10.785866776094824"><ele>127.0</ele><time>2026-03-28T11:56:41Z</time></trkpt><trkpt lat="45.43738822502439" lon="10.78568757846897"><ele>128.5</ele><time>2026-03-28T11:56:42Z</time></trkpt><trkpt lat="45.43743624462899" lon="10.785507835717352"><ele>130.0</ele><time>2026-03-28T11:56:43Z</time></trkpt><trkpt lat="45.43746938601824" lon="10.785369134804348"><ele>131.5</ele><time>2026-03-28T11:56:44Z</time></trkpt><trkpt lat="45.43750548811289" lon="10.785213442927994"><ele>133.0</ele><time>2026-03-28T11:56:45Z</time></trkpt><trkpt lat="45.43753450949575" lon="10.785076228546377"><ele>133.8</ele><time>2026-03-28T11:56:46Z</time></trkpt><trkpt lat="45.43755533781153" lon="10.78493514606652"><ele>134.60000000000002</ele><time>2026-03-28T11:56:47Z</time></trkpt><trkpt lat="45.43757320844532" lon="10.784801616834676"><ele>135.39999999999998</ele><time>2026-03-28T11:56:48Z</time></trkpt><trkpt lat="45.43760635483512" lon="10.784652307849932"><ele>136.2</ele><time>2026-03-28T11:56:49Z</time></trkpt><trkpt lat="45.43762514067319" lon="10.78449813987406"><ele>137.0</ele><time>2026-03-28T11:56:50Z</time></trkpt><trkpt lat="45.4376414963473" lon="10.784346611438753"><ele>136.6</ele><time>2026-03-28T11:56:51Z</time></trkpt><trkpt lat="45.437654099233534" lon="10.784188301021738"><ele>136.2</ele><time>2026-03-28T11:56:52Z</time></trkpt><trkpt lat="45.437655927855566" lon="10.784040981390318"><ele>135.8</ele><time>2026-03-28T11:56:53Z</time></trkpt><trkpt lat="45.43766392812544" lon="10.783882639588613"><ele>135.4</ele><time>2026-03-28T11:56:54Z</time></trkpt><trkpt lat="45.437660854839" lon="10.78371662359266"><ele>135.0</ele><time>2026-03-28T11:56:55Z</time></trkpt><trkpt lat="45.43766889963622" lon="10.783618625260978"><ele>135.0</ele><time>2026-03-28T11:56:56Z</time></trkpt><trkpt lat="45.43767323061086" lon="10.783522783633872"><ele>135.0</ele><time>2026-03-28T11:56:57Z</time></trkpt><trkpt lat="45.43768676991683" lon="10.783382552610574"><ele>135.0</ele><time>2026-03-28T11:56:58Z</time></trkpt><trkpt lat="45.43771125270807" lon="10.783184325954219"><ele>135.0</ele><time>2026-03-28T11:56:59Z</time></trkpt><trkpt lat="45.43774719660803" lon="10.783025301375213"><ele>135.0</ele><time>2026-03-28T11:57:00Z</time></trkpt><trkpt lat="45.43776487967359" lon="10.782893254468862"><ele>134.16666666666666</ele><time>2026-03-28T11:57:01Z</time></trkpt><trkpt lat="45.437770717502026" lon="10.782755584230005"><ele>133.33333333333334</ele><time>2026-03-28T11:57:02Z</time></trkpt><trkpt lat="45.43778900024637" lon="10.78262881591973"><ele>132.5</ele><time>2026-03-28T11:57:03Z</time></trkpt><trkpt lat="45.43779104637197" lon="10.782519222139966"><ele>131.66666666666669</ele><time>2026-03-28T11:57:04Z</time></trkpt><trkpt lat="45.43778139666892" lon="10.782358008528877"><ele>130.83333333333334</ele><time>2026-03-28T11:57:06Z</time></trkpt><trkpt lat="45.43782320616034" lon="10.782289939872376"><ele>130.0</ele><time>2026-03-28T11:57:07Z</time></trkpt><trkpt lat="45.437904362904135" lon="10.782253424412701"><ele>127.33333333333334</ele><time>2026-03-28T11:57:08Z</time></trkpt><trkpt lat="45.438020088271784" lon="10.782314849795153"><ele>124.66666666666666</ele><time>2026-03-28T11:57:09Z</time></trkpt><trkpt lat="45.43818183131527" lon="10.78233168630475"><ele>122.0</ele><time>2026-03-28T11:57:10Z</time></trkpt><trkpt lat="45.43834609579067" lon="10.782329229931479"><ele>122.0</ele><time>2026-03-28T11:57:11Z</time></trkpt><trkpt lat="45.43850358222283" lon="10.782361754974179"><ele>122.0</ele><time>2026-03-28T11:57:12Z</time></trkpt><trkpt lat="45.438673967565826" lon="10.782379042467367"><ele>122.0</ele><time>2026-03-28T11:57:13Z</time></trkpt><trkpt lat="45.43885661225972" lon="10.78239356534815"><ele>122.25</ele><time>2026-03-28T11:57:14Z</time></trkpt><trkpt lat="45.439022309957494" lon="10.782404777129969"><ele>122.5</ele><time>2026-03-28T11:57:15Z</time></trkpt><trkpt lat="45.439172974116325" lon="10.782414953953406"><ele>122.75</ele><time>2026-03-28T11:57:16Z</time></trkpt><trkpt lat="45.439304659240264" lon="10.782427542380542"><ele>123.0</ele><time>2026-03-28T11:57:17Z</time></trkpt><trkpt lat="45.439412564538486" lon="10.782434138867208"><ele>123.0</ele><time>2026-03-28T11:57:18Z</time></trkpt><trkpt lat="45.43950379597013" lon="10.782443730063937"><ele>123.0</ele><time>2026-03-28T11:57:19Z</time></trkpt><trkpt lat="45.43958807335858" lon="10.782459794769743"><ele>123.0</ele><time>2026-03-28T11:57:20Z</time></trkpt><trkpt lat="45.43966104814311" lon="10.782472921501082"><ele>123.0</ele><time>2026-03-28T11:57:21Z</time></trkpt><trkpt lat="45.43975030736826" lon="10.782482459416366"><ele>123.0</ele><time>2026-03-28T11:57:23Z</time></trkpt><trkpt lat="45.439835277919215" lon="10.782493980434577"><ele>123.0</ele><time>2026-03-28T11:57:33Z</time></trkpt><trkpt lat="45.43986002621441" lon="10.782258617643631"><ele>123.25</ele><time>2026-03-28T11:57:34Z</time></trkpt><trkpt lat="45.43986900365211" lon="10.782091065365401"><ele>123.5</ele><time>2026-03-28T11:57:35Z</time></trkpt><trkpt lat="45.43988088445607" lon="10.78188487312523"><ele>123.75</ele><time>2026-03-28T11:57:36Z</time></trkpt><trkpt lat="45.43989519525097" lon="10.781628733720312"><ele>124.0</ele><time>2026-03-28T11:57:37Z</time></trkpt><trkpt lat="45.43990817271436" lon="10.781397126209567"><ele>123.66666666666667</ele><time>2026-03-28T11:57:38Z</time></trkpt><trkpt lat="45.43991319494307" lon="10.781224922289008"><ele>123.33333333333334</ele><time>2026-03-28T11:57:39Z</time></trkpt><trkpt lat="45.43991803056734" lon="10.781106163153032"><ele>123.0</ele><time>2026-03-28T11:57:40Z</time></trkpt><trkpt lat="45.439929901123435" lon="10.780992172100536"><ele>122.66666666666666</ele><time>2026-03-28T11:57:41Z</time></trkpt><trkpt lat="45.43995398110245" lon="10.780893712987645"><ele>122.33333333333333</ele><time>2026-03-28T11:57:42Z</time></trkpt><trkpt lat="45.43999478086213" lon="10.780823955804715"><ele>122.0</ele><time>2026-03-28T11:57:43Z</time></trkpt><trkpt lat="45.440141493041" lon="10.78078354986243"><ele>121.75</ele><time>2026-03-28T11:57:45Z</time></trkpt><trkpt lat="45.440258402056386" lon="10.780850603500514"><ele>121.5</ele><time>2026-03-28T11:57:46Z</time></trkpt><trkpt lat="45.440408432994055" lon="10.780915119216973"><ele>121.25</ele><time>2026-03-28T11:57:47Z</time></trkpt><trkpt lat="45.44056511164096" lon="10.78098969523031"><ele>121.0</ele><time>2026-03-28T11:57:48Z</time></trkpt><trkpt lat="45.44069779720665" lon="10.781072332806001"><ele>120.75</ele><time>2026-03-28T11:57:49Z</time></trkpt><trkpt lat="45.44082090825814" lon="10.781165176113921"><ele>120.5</ele><time>2026-03-28T11:57:50Z</time></trkpt><trkpt lat="45.44095527270859" lon="10.781278000021164"><ele>120.25</ele><time>2026-03-28T11:57:51Z</time></trkpt><trkpt lat="45.441090031769214" lon="10.781364221131136"><ele>120.0</ele><time>2026-03-28T11:57:52Z</time></trkpt><trkpt lat="45.441207599470715" lon="10.781467081448879"><ele>120.0</ele><time>2026-03-28T11:57:53Z</time></trkpt><trkpt lat="45.44131880061548" lon="10.781557613752785"><ele>120.0</ele><time>2026-03-28T11:57:54Z</time></trkpt><trkpt lat="45.44144503514722" lon="10.781650749054721"><ele>120.0</ele><time>2026-03-28T11:57:55Z</time></trkpt><trkpt lat="45.44155761831715" lon="10.7817635962853"><ele>120.0</ele><time>2026-03-28T11:57:56Z</time></trkpt><trkpt lat="45.44168233603213" lon="10.781854631185078"><ele>119.83333333333333</ele><time>2026-03-28T11:57:57Z</time></trkpt><trkpt lat="45.44179463260962" lon="10.78190113266492"><ele>119.66666666666666</ele><time>2026-03-28T11:57:58Z</time></trkpt><trkpt lat="45.44187294611718" lon="10.781941672277643"><ele>119.5</ele><time>2026-03-28T11:57:59Z</time></trkpt><trkpt lat="45.44194591165312" lon="10.7819685815773"><ele>119.33333333333333</ele><time>2026-03-28T11:58:00Z</time></trkpt><trkpt lat="45.442010408944235" lon="10.781994118713154"><ele>119.16666666666666</ele><time>2026-03-28T11:58:01Z</time></trkpt><trkpt lat="45.442111739890024" lon="10.78202266846605"><ele>119.0</ele><time>2026-03-28T11:58:03Z</time></trkpt><trkpt lat="45.44218880000438" lon="10.782029534214674"><ele>118.99999999999999</ele><time>2026-03-28T11:58:05Z</time></trkpt><trkpt lat="45.44226951021833" lon="10.782018196620292"><ele>119.0</ele><time>2026-03-28T11:58:07Z</time></trkpt><trkpt lat="45.44229456235035" lon="10.78188811952182"><ele>119.0</ele><time>2026-03-28T11:58:10Z</time></trkpt><trkpt lat="45.442298655659314" lon="10.781776666690579"><ele>119.0</ele><time>2026-03-28T11:58:13Z</time></trkpt><trkpt lat="45.442299300192445" lon="10.781684427499648"><ele>118.99999999999999</ele><time>2026-03-28T11:58:15Z</time></trkpt><trkpt lat="45.44218230734345" lon="10.781700525004474"><ele>119.0</ele><time>2026-03-28T11:58:18Z</time></trkpt><trkpt lat="45.44209519225813" lon="10.781691062282963"><ele>119.0</ele><time>2026-03-28T11:58:20Z</time></trkpt><trkpt lat="45.442038757314435" lon="10.781777836120394"><ele>119.0</ele><time>2026-03-28T11:58:23Z</time></trkpt><trkpt lat="45.44204991776497" lon="10.781873750485552"><ele>119.0</ele><time>2026-03-28T11:58:24Z</time></trkpt><trkpt lat="45.44204768881116" lon="10.781984487214016"><ele>119.0</ele><time>2026-03-28T11:58:27Z</time></trkpt><trkpt lat="45.442182618898975" lon="10.78204803631114"><ele>119.0</ele><time>2026-03-28T11:58:29Z</time></trkpt><trkpt lat="45.44228749362897" lon="10.782067625291026"><ele>118.66666666666666</ele><time>2026-03-28T11:58:30Z</time></trkpt><trkpt lat="45.44242265918058" lon="10.782099372676514"><ele>118.33333333333334</ele><time>2026-03-28T11:58:31Z</time></trkpt><trkpt lat="45.44262050830377" lon="10.782155749353443"><ele>118.0</ele><time>2026-03-28T11:58:32Z</time></trkpt><trkpt lat="45.442850680266645" lon="10.782225836630014"><ele>118.5</ele><time>2026-03-28T11:58:33Z</time></trkpt><trkpt lat="45.443074404177985" lon="10.7822823354862"><ele>119.0</ele><time>2026-03-28T11:58:34Z</time></trkpt><trkpt lat="45.44329613412885" lon="10.782351244342992"><ele>119.0</ele><time>2026-03-28T11:58:35Z</time></trkpt><trkpt lat="45.44350848419605" lon="10.782366055098931"><ele>119.0</ele><time>2026-03-28T11:58:36Z</time></trkpt><trkpt lat="45.4437037787604" lon="10.782403676833198"><ele>119.0</ele><time>2026-03-28T11:58:37Z</time></trkpt><trkpt lat="45.44389345752053" lon="10.782444401985854"><ele>119.66666666666666</ele><time>2026-03-28T11:58:38Z</time></trkpt><trkpt lat="45.44408410971999" lon="10.782482333707266"><ele>120.33333333333334</ele><time>2026-03-28T11:58:39Z</time></trkpt><trkpt lat="45.44427617065895" lon="10.782518551334286"><ele>121.0</ele><time>2026-03-28T11:58:40Z</time></trkpt><trkpt lat="45.444472359302914" lon="10.782553854536715"><ele>121.33333333333334</ele><time>2026-03-28T11:58:41Z</time></trkpt><trkpt lat="45.44466247334683" lon="10.7825910879227"><ele>121.66666666666666</ele><time>2026-03-28T11:58:42Z</time></trkpt><trkpt lat="45.4448376489466" lon="10.782625040624294"><ele>122.0</ele><time>2026-03-28T11:58:43Z</time></trkpt><trkpt lat="45.445001014022345" lon="10.782658190262065"><ele>121.75</ele><time>2026-03-28T11:58:44Z</time></trkpt><trkpt lat="45.44514772006724" lon="10.782687953459604"><ele>121.5</ele><time>2026-03-28T11:58:45Z</time></trkpt><trkpt lat="45.44528477218965" lon="10.782708162837077"><ele>121.25</ele><time>2026-03-28T11:58:46Z</time></trkpt><trkpt lat="45.44542897710048" lon="10.782691931401475"><ele>121.0</ele><time>2026-03-28T11:58:47Z</time></trkpt><trkpt lat="45.445580124159044" lon="10.782624257281544"><ele>120.33333333333334</ele><time>2026-03-28T11:58:48Z</time></trkpt><trkpt lat="45.445726752773695" lon="10.782525213600941"><ele>119.66666666666666</ele><time>2026-03-28T11:58:49Z</time></trkpt><trkpt lat="45.44588433880312" lon="10.782456169851526"><ele>119.0</ele><time>2026-03-28T11:58:50Z</time></trkpt><trkpt lat="45.44604560642037" lon="10.782344594708274"><ele>119.0</ele><time>2026-03-28T11:58:51Z</time></trkpt><trkpt lat="45.44621162364868" lon="10.782261310965016"><ele>119.0</ele><time>2026-03-28T11:58:52Z</time></trkpt><trkpt lat="45.44637471884963" lon="10.782183261792314"><ele>119.0</ele><time>2026-03-28T11:58:53Z</time></trkpt><trkpt lat="45.44652047178892" lon="10.782120756091292"><ele>118.75</ele><time>2026-03-28T11:58:54Z</time></trkpt><trkpt lat="45.44665039333468" lon="10.782056507028159"><ele>118.5</ele><time>2026-03-28T11:58:55Z</time></trkpt><trkpt lat="45.44677914636611" lon="10.781961648548721"><ele>118.25</ele><time>2026-03-28T11:58:56Z</time></trkpt><trkpt lat="45.44690820865939" lon="10.781824227428004"><ele>118.0</ele><time>2026-03-28T11:58:57Z</time></trkpt><trkpt lat="45.44702737385228" lon="10.78166420432108"><ele>116.33333333333334</ele><time>2026-03-28T11:58:58Z</time></trkpt><trkpt lat="45.44713744242996" lon="10.781473184841133"><ele>114.66666666666666</ele><time>2026-03-28T11:58:59Z</time></trkpt><trkpt lat="45.44725256952957" lon="10.781278647368374"><ele>113.0</ele><time>2026-03-28T11:59:00Z</time></trkpt><trkpt lat="45.44737893549006" lon="10.781108599789125"><ele>113.0</ele><time>2026-03-28T11:59:01Z</time></trkpt><trkpt lat="45.44751178610144" lon="10.78098009475832"><ele>113.0</ele><time>2026-03-28T11:59:02Z</time></trkpt><trkpt lat="45.44767272065268" lon="10.780906003035517"><ele>113.0</ele><time>2026-03-28T11:59:03Z</time></trkpt><trkpt lat="45.44783666358916" lon="10.780825508701946"><ele>114.0</ele><time>2026-03-28T11:59:04Z</time></trkpt><trkpt lat="45.44800446590743" lon="10.780733494477063"><ele>115.0</ele><time>2026-03-28T11:59:05Z</time></trkpt><trkpt lat="45.44818598517256" lon="10.780660364279944"><ele>116.0</ele><time>2026-03-28T11:59:06Z</time></trkpt><trkpt lat="45.44834872022992" lon="10.780589299546977"><ele>116.0</ele><time>2026-03-28T11:59:07Z</time></trkpt><trkpt lat="45.44848926858523" lon="10.780526365103611"><ele>116.0</ele><time>2026-03-28T11:59:08Z</time></trkpt><trkpt lat="45.44860880524403" lon="10.780455899043403"><ele>116.0</ele><time>2026-03-28T11:59:09Z</time></trkpt><trkpt lat="45.44871943416131" lon="10.78035872906345"><ele>116.0</ele><time>2026-03-28T11:59:10Z</time></trkpt><trkpt lat="45.448826449469635" lon="10.78023150369671"><ele>116.4</ele><time>2026-03-28T11:59:11Z</time></trkpt><trkpt lat="45.448925466336604" lon="10.780083660521665"><ele>116.8</ele><time>2026-03-28T11:59:12Z</time></trkpt><trkpt lat="45.44900383120048" lon="10.779955485956593"><ele>117.20000000000002</ele><time>2026-03-28T11:59:13Z</time></trkpt><trkpt lat="45.44906230703604" lon="10.77985814926936"><ele>117.60000000000001</ele><time>2026-03-28T11:59:14Z</time></trkpt><trkpt lat="45.44912051248445" lon="10.779752453103725"><ele>118.0</ele><time>2026-03-28T11:59:16Z</time></trkpt><trkpt lat="45.4490358628616" lon="10.779669778719198"><ele>118.00000000000001</ele><time>2026-03-28T11:59:19Z</time></trkpt><trkpt lat="45.4489565411403" lon="10.779607861959702"><ele>118.0</ele><time>2026-03-28T11:59:23Z</time></trkpt><trkpt lat="45.448897352934765" lon="10.779546057441147"><ele>118.0</ele><time>2026-03-28T11:59:26Z</time></trkpt><trkpt lat="45.448826151108804" lon="10.779470776321743"><ele>118.0</ele><time>2026-03-28T11:59:28Z</time></trkpt><trkpt lat="45.44876328796397" lon="10.779404458586281"><ele>118.00000000000001</ele><time>2026-03-28T11:59:29Z</time></trkpt><trkpt lat="45.44868565457162" lon="10.779325635379667"><ele>118.0</ele><time>2026-03-28T11:59:30Z</time></trkpt><trkpt lat="45.4485884945928" lon="10.779211422369974"><ele>117.75</ele><time>2026-03-28T11:59:31Z</time></trkpt><trkpt lat="45.44848641546325" lon="10.779076359717093"><ele>117.5</ele><time>2026-03-28T11:59:32Z</time></trkpt><trkpt lat="45.44838845472063" lon="10.778954851736021"><ele>117.25</ele><time>2026-03-28T11:59:33Z</time></trkpt><trkpt lat="45.44826006379015" lon="10.778797215061767"><ele>117.0</ele><time>2026-03-28T11:59:34Z</time></trkpt><trkpt lat="45.44812249856769" lon="10.778610054475308"><ele>116.0</ele><time>2026-03-28T11:59:35Z</time></trkpt><trkpt lat="45.44798560437033" lon="10.778423662571461"><ele>115.0</ele><time>2026-03-28T11:59:36Z</time></trkpt><trkpt lat="45.44784275167275" lon="10.778239906766997"><ele>114.0</ele><time>2026-03-28T11:59:37Z</time></trkpt><trkpt lat="45.44771468948353" lon="10.778081079284103"><ele>114.0</ele><time>2026-03-28T11:59:38Z</time></trkpt><trkpt lat="45.44756902219052" lon="10.77790276434413"><ele>114.0</ele><time>2026-03-28T11:59:39Z</time></trkpt><trkpt lat="45.44743212357999" lon="10.777695675403411"><ele>114.0</ele><time>2026-03-28T11:59:40Z</time></trkpt><trkpt lat="45.44729236708153" lon="10.777510792723406"><ele>114.66666666666666</ele><time>2026-03-28T11:59:41Z</time></trkpt><trkpt lat="45.44715836504309" lon="10.777333411906392"><ele>115.33333333333333</ele><time>2026-03-28T11:59:42Z</time></trkpt><trkpt lat="45.4470221753211" lon="10.777153135211735"><ele>116.0</ele><time>2026-03-28T11:59:43Z</time></trkpt><trkpt lat="45.446871721723824" lon="10.776956882712518"><ele>116.0</ele><time>2026-03-28T11:59:44Z</time></trkpt><trkpt lat="45.44673481261761" lon="10.776777364182408"><ele>116.0</ele><time>2026-03-28T11:59:45Z</time></trkpt><trkpt lat="45.446619453557275" lon="10.77661186372131"><ele>116.0</ele><time>2026-03-28T11:59:46Z</time></trkpt><trkpt lat="45.44651310237459" lon="10.77644076371457"><ele>116.0</ele><time>2026-03-28T11:59:47Z</time></trkpt><trkpt lat="45.44641904581151" lon="10.776272086008332"><ele>116.0</ele><time>2026-03-28T11:59:48Z</time></trkpt><trkpt lat="45.44632772145923" lon="10.776098586676927"><ele>116.0</ele><time>2026-03-28T11:59:49Z</time></trkpt><trkpt lat="45.44624683186064" lon="10.775911054647214"><ele>114.66666666666666</ele><time>2026-03-28T11:59:50Z</time></trkpt><trkpt lat="45.44618249954918" lon="10.775714830131745"><ele>113.33333333333334</ele><time>2026-03-28T11:59:51Z</time></trkpt><trkpt lat="45.44612692739226" lon="10.775481822330013"><ele>112.0</ele><time>2026-03-28T11:59:52Z</time></trkpt><trkpt lat="45.446074375467965" lon="10.775297888801425"><ele>112.5</ele><time>2026-03-28T11:59:53Z</time></trkpt><trkpt lat="45.4460053553051" lon="10.775121876060313"><ele>113.0</ele><time>2026-03-28T11:59:54Z</time></trkpt><trkpt lat="45.44594430279724" lon="10.774938562958035"><ele>113.5</ele><time>2026-03-28T11:59:55Z</time></trkpt><trkpt lat="45.44587473981249" lon="10.774731509840066"><ele>114.0</ele><time>2026-03-28T11:59:56Z</time></trkpt><trkpt lat="45.445812227713574" lon="10.77451478548984"><ele>113.66666666666666</ele><time>2026-03-28T11:59:57Z</time></trkpt><trkpt lat="45.44577512178639" lon="10.774274332865128"><ele>113.33333333333333</ele><time>2026-03-28T11:59:58Z</time></trkpt><trkpt lat="45.44572389486529" lon="10.77402970570123"><ele>113.0</ele><time>2026-03-28T11:59:59Z</time></trkpt><trkpt lat="45.44567880358249" lon="10.773806352417957"><ele>113.0</ele><time>2026-03-28T12:00:00Z</time></trkpt><trkpt lat="45.44562413851358" lon="10.773590243743131"><ele>113.0</ele><time>2026-03-28T12:00:01Z</time></trkpt><trkpt lat="45.44553494176201" lon="10.77338130261228"><ele>113.0</ele><time>2026-03-28T12:00:02Z</time></trkpt><trkpt lat="45.44545506532012" lon="10.773152412413392"><ele>112.66666666666666</ele><time>2026-03-28T12:00:03Z</time></trkpt><trkpt lat="45.44539644808754" lon="10.772927293930312"><ele>112.33333333333334</ele><time>2026-03-28T12:00:04Z</time></trkpt><trkpt lat="45.44531569656992" lon="10.772735236780537"><ele>112.0</ele><time>2026-03-28T12:00:05Z</time></trkpt><trkpt lat="45.44521041118557" lon="10.77257208206297"><ele>111.8</ele><time>2026-03-28T12:00:06Z</time></trkpt><trkpt lat="45.44513834494486" lon="10.772416048481999"><ele>111.6</ele><time>2026-03-28T12:00:07Z</time></trkpt><trkpt lat="45.4450701875325" lon="10.772289887296246"><ele>111.39999999999999</ele><time>2026-03-28T12:00:08Z</time></trkpt><trkpt lat="45.44501809439794" lon="10.772151709430112"><ele>111.19999999999999</ele><time>2026-03-28T12:00:09Z</time></trkpt><trkpt lat="45.4450053368867" lon="10.772026318577423"><ele>111.0</ele><time>2026-03-28T12:00:10Z</time></trkpt><trkpt lat="45.44500057084741" lon="10.771886503614732"><ele>111.25</ele><time>2026-03-28T12:00:11Z</time></trkpt><trkpt lat="45.444993052209874" lon="10.771718083591507"><ele>111.5</ele><time>2026-03-28T12:00:12Z</time></trkpt><trkpt lat="45.444982857209105" lon="10.771527410791021"><ele>111.75</ele><time>2026-03-28T12:00:13Z</time></trkpt><trkpt lat="45.444956584554134" lon="10.771314946087502"><ele>112.0</ele><time>2026-03-28T12:00:14Z</time></trkpt><trkpt lat="45.444943309244195" lon="10.771091402627542"><ele>113.5</ele><time>2026-03-28T12:00:15Z</time></trkpt><trkpt lat="45.44493119413345" lon="10.770887290532054"><ele>115.0</ele><time>2026-03-28T12:00:16Z</time></trkpt><trkpt lat="45.444922867481" lon="10.770701178751402"><ele>116.5</ele><time>2026-03-28T12:00:17Z</time></trkpt><trkpt lat="45.44490743331531" lon="10.77053137075323"><ele>118.0</ele><time>2026-03-28T12:00:18Z</time></trkpt><trkpt lat="45.44488313296763" lon="10.770341300301764"><ele>119.0</ele><time>2026-03-28T12:00:19Z</time></trkpt><trkpt lat="45.444856421602566" lon="10.770167118356285"><ele>120.0</ele><time>2026-03-28T12:00:20Z</time></trkpt><trkpt lat="45.44482889166801" lon="10.770019438360562"><ele>121.0</ele><time>2026-03-28T12:00:21Z</time></trkpt><trkpt lat="45.44478035676085" lon="10.769884452691995"><ele>122.0</ele><time>2026-03-28T12:00:22Z</time></trkpt><trkpt lat="45.44471136440156" lon="10.769746248580768"><ele>122.0</ele><time>2026-03-28T12:00:23Z</time></trkpt><trkpt lat="45.44463998665182" lon="10.769622775011912"><ele>121.99999999999999</ele><time>2026-03-28T12:00:24Z</time></trkpt><trkpt lat="45.444597046192875" lon="10.769499126882348"><ele>121.99999999999999</ele><time>2026-03-28T12:00:25Z</time></trkpt><trkpt lat="45.44455253298218" lon="10.769384124419393"><ele>122.0</ele><time>2026-03-28T12:00:26Z</time></trkpt><trkpt lat="45.44448872187842" lon="10.769261105608916"><ele>122.0</ele><time>2026-03-28T12:00:27Z</time></trkpt><trkpt lat="45.444432238586884" lon="10.769115492033267"><ele>121.8</ele><time>2026-03-28T12:00:28Z</time></trkpt><trkpt lat="45.4443743658231" lon="10.768983395817198"><ele>121.6</ele><time>2026-03-28T12:00:29Z</time></trkpt><trkpt lat="45.44431067370218" lon="10.768855554029418"><ele>121.39999999999999</ele><time>2026-03-28T12:00:30Z</time></trkpt><trkpt lat="45.444236547556024" lon="10.768744990012772"><ele>121.19999999999999</ele><time>2026-03-28T12:00:31Z</time></trkpt><trkpt lat="45.44416163362618" lon="10.768648966748891"><ele>121.0</ele><time>2026-03-28T12:00:32Z</time></trkpt><trkpt lat="45.44407594221399" lon="10.768559288588111"><ele>120.0</ele><time>2026-03-28T12:00:33Z</time></trkpt><trkpt lat="45.44397961350819" lon="10.768476456654748"><ele>119.0</ele><time>2026-03-28T12:00:34Z</time></trkpt><trkpt lat="45.44390276806263" lon="10.768393623726041"><ele>118.0</ele><time>2026-03-28T12:00:35Z</time></trkpt><trkpt lat="45.443835915409586" lon="10.76832284031506"><ele>117.0</ele><time>2026-03-28T12:00:36Z</time></trkpt><trkpt lat="45.443801109423745" lon="10.768210273350313"><ele>116.0</ele><time>2026-03-28T12:00:39Z</time></trkpt><trkpt lat="45.44374620343382" lon="10.768099088561112"><ele>115.75</ele><time>2026-03-28T12:01:25Z</time></trkpt><trkpt lat="45.44362872492206" lon="10.768127674673629"><ele>115.5</ele><time>2026-03-28T12:01:26Z</time></trkpt><trkpt lat="45.443504821945375" lon="10.768155338921034"><ele>115.25</ele><time>2026-03-28T12:01:27Z</time></trkpt><trkpt lat="45.4433252144212" lon="10.768180164068115"><ele>115.0</ele><time>2026-03-28T12:01:28Z</time></trkpt><trkpt lat="45.4431137609792" lon="10.76820632045851"><ele>117.0</ele><time>2026-03-28T12:01:29Z</time></trkpt><trkpt lat="45.442877997280824" lon="10.768225465980192"><ele>119.0</ele><time>2026-03-28T12:01:30Z</time></trkpt><trkpt lat="45.44261774196928" lon="10.768248271557775"><ele>119.0</ele><time>2026-03-28T12:01:31Z</time></trkpt><trkpt lat="45.442373440720694" lon="10.768269091151735"><ele>119.0</ele><time>2026-03-28T12:01:32Z</time></trkpt><trkpt lat="45.44215889339436" lon="10.768292275980508"><ele>119.33333333333333</ele><time>2026-03-28T12:01:33Z</time></trkpt><trkpt lat="45.44194492166357" lon="10.76830889956575"><ele>119.66666666666666</ele><time>2026-03-28T12:01:34Z</time></trkpt><trkpt lat="45.44172779425418" lon="10.768265247277473"><ele>120.0</ele><time>2026-03-28T12:01:35Z</time></trkpt><trkpt lat="45.44150823506273" lon="10.768214489079893"><ele>120.5</ele><time>2026-03-28T12:01:36Z</time></trkpt><trkpt lat="45.44128089818701" lon="10.768159718078692"><ele>121.0</ele><time>2026-03-28T12:01:37Z</time></trkpt><trkpt lat="45.441056970366255" lon="10.768079331440386"><ele>121.0</ele><time>2026-03-28T12:01:38Z</time></trkpt><trkpt lat="45.440843655544654" lon="10.768018445737672"><ele>121.0</ele><time>2026-03-28T12:01:39Z</time></trkpt><trkpt lat="45.44064580505474" lon="10.767961628284192"><ele>121.0</ele><time>2026-03-28T12:01:40Z</time></trkpt><trkpt lat="45.44046016565696" lon="10.767902439378826"><ele>120.5</ele><time>2026-03-28T12:01:41Z</time></trkpt><trkpt lat="45.440300273518986" lon="10.767849661177184"><ele>120.0</ele><time>2026-03-28T12:01:42Z</time></trkpt><trkpt lat="45.44016303402655" lon="10.767801768284682"><ele>119.5</ele><time>2026-03-28T12:01:43Z</time></trkpt><trkpt lat="45.44004649933323" lon="10.76776280907175"><ele>119.0</ele><time>2026-03-28T12:01:44Z</time></trkpt><trkpt lat="45.439947075881804" lon="10.767726323044888"><ele>118.75</ele><time>2026-03-28T12:01:45Z</time></trkpt><trkpt lat="45.43987700185573" lon="10.767684617893144"><ele>118.5</ele><time>2026-03-28T12:01:46Z</time></trkpt><trkpt lat="45.43981558727817" lon="10.767596033412962"><ele>118.25</ele><time>2026-03-28T12:01:48Z</time></trkpt><trkpt lat="45.43967060632634" lon="10.767422471319943"><ele>118.0</ele><time>2026-03-28T12:01:50Z</time></trkpt><trkpt lat="45.439596762536766" lon="10.767231040185958"><ele>116.33333333333334</ele><time>2026-03-28T12:01:51Z</time></trkpt><trkpt lat="45.43952168596324" lon="10.767018991765445"><ele>114.66666666666666</ele><time>2026-03-28T12:01:52Z</time></trkpt><trkpt lat="45.43943582476506" lon="10.766794032499925"><ele>113.0</ele><time>2026-03-28T12:01:53Z</time></trkpt><trkpt lat="45.43934826127098" lon="10.766563869913204"><ele>112.66666666666666</ele><time>2026-03-28T12:01:54Z</time></trkpt><trkpt lat="45.439271209110615" lon="10.766320689953023"><ele>112.33333333333334</ele><time>2026-03-28T12:01:55Z</time></trkpt><trkpt lat="45.43920305462037" lon="10.766078134991718"><ele>112.0</ele><time>2026-03-28T12:01:56Z</time></trkpt><trkpt lat="45.43914515958373" lon="10.765843324266951"><ele>111.0</ele><time>2026-03-28T12:01:57Z</time></trkpt><trkpt lat="45.43909153859804" lon="10.765618686121716"><ele>110.0</ele><time>2026-03-28T12:01:58Z</time></trkpt><trkpt lat="45.43903856302924" lon="10.765400323782323"><ele>109.0</ele><time>2026-03-28T12:01:59Z</time></trkpt><trkpt lat="45.438987525879725" lon="10.765169452750158"><ele>108.33333333333334</ele><time>2026-03-28T12:02:00Z</time></trkpt><trkpt lat="45.43894346412363" lon="10.764939710264581"><ele>107.66666666666666</ele><time>2026-03-28T12:02:01Z</time></trkpt><trkpt lat="45.43889852561474" lon="10.764698411130246"><ele>107.0</ele><time>2026-03-28T12:02:02Z</time></trkpt><trkpt lat="45.43885601077703" lon="10.764478952545138"><ele>106.75</ele><time>2026-03-28T12:02:03Z</time></trkpt><trkpt lat="45.43881560716664" lon="10.764275351501011"><ele>106.5</ele><time>2026-03-28T12:02:04Z</time></trkpt><trkpt lat="45.438775027792886" lon="10.76408959905322"><ele>106.25</ele><time>2026-03-28T12:02:05Z</time></trkpt><trkpt lat="45.438739421543126" lon="10.763914335683232"><ele>106.0</ele><time>2026-03-28T12:02:06Z</time></trkpt><trkpt lat="45.438703973163214" lon="10.763749071715806"><ele>105.19999999999999</ele><time>2026-03-28T12:02:07Z</time></trkpt><trkpt lat="45.438672752999246" lon="10.763593043874172"><ele>104.39999999999999</ele><time>2026-03-28T12:02:08Z</time></trkpt><trkpt lat="45.4386495848379" lon="10.763442245457274"><ele>103.6</ele><time>2026-03-28T12:02:09Z</time></trkpt><trkpt lat="45.4386242425712" lon="10.763316851024639"><ele>102.8</ele><time>2026-03-28T12:02:10Z</time></trkpt><trkpt lat="45.438607499835236" lon="10.76321153482842"><ele>102.0</ele><time>2026-03-28T12:02:11Z</time></trkpt><trkpt lat="45.438592198223404" lon="10.763123817082409"><ele>102.0</ele><time>2026-03-28T12:02:12Z</time></trkpt><trkpt lat="45.43856347169039" lon="10.762963927028052"><ele>102.0</ele><time>2026-03-28T12:02:14Z</time></trkpt><trkpt lat="45.43854376120647" lon="10.762826062636456"><ele>102.0</ele><time>2026-03-28T12:02:16Z</time></trkpt><trkpt lat="45.43852720566512" lon="10.76267135359072"><ele>102.0</ele><time>2026-03-28T12:02:18Z</time></trkpt><trkpt lat="45.43850952012177" lon="10.762574073037309"><ele>102.0</ele><time>2026-03-28T12:02:19Z</time></trkpt><trkpt lat="45.438500222707724" lon="10.762452982142216"><ele>102.0</ele><time>2026-03-28T12:02:20Z</time></trkpt><trkpt lat="45.438483937457534" lon="10.76232405079003"><ele>102.0</ele><time>2026-03-28T12:02:21Z</time></trkpt><trkpt lat="45.43846443460352" lon="10.762172522223064"><ele>102.0</ele><time>2026-03-28T12:02:22Z</time></trkpt><trkpt lat="45.4384450828421" lon="10.762008054083772"><ele>102.0</ele><time>2026-03-28T12:02:23Z</time></trkpt><trkpt lat="45.438433088038856" lon="10.76182718171078"><ele>102.0</ele><time>2026-03-28T12:02:24Z</time></trkpt><trkpt lat="45.43842701698909" lon="10.761657338594318"><ele>102.0</ele><time>2026-03-28T12:02:25Z</time></trkpt><trkpt lat="45.43841784657839" lon="10.761493999942504"><ele>102.0</ele><time>2026-03-28T12:02:26Z</time></trkpt><trkpt lat="45.43841128326441" lon="10.761334096603889"><ele>102.0</ele><time>2026-03-28T12:02:27Z</time></trkpt><trkpt lat="45.43841199083916" lon="10.761190031134362"><ele>102.0</ele><time>2026-03-28T12:02:28Z</time></trkpt><trkpt lat="45.43841237609857" lon="10.761089490829225"><ele>102.0</ele><time>2026-03-28T12:02:29Z</time></trkpt><trkpt lat="45.438402682493965" lon="10.760966977204681"><ele>102.0</ele><time>2026-03-28T12:02:31Z</time></trkpt><trkpt lat="45.43840133141913" lon="10.760861167552326"><ele>102.0</ele><time>2026-03-28T12:02:33Z</time></trkpt><trkpt lat="45.43842068973692" lon="10.760748205844408"><ele>102.0</ele><time>2026-03-28T12:02:39Z</time></trkpt><trkpt lat="45.438440078287606" lon="10.760653952850408"><ele>102.0</ele><time>2026-03-28T12:02:40Z</time></trkpt><trkpt lat="45.43845284349177" lon="10.760464566850441"><ele>102.0</ele><time>2026-03-28T12:02:42Z</time></trkpt><trkpt lat="45.43841725427994" lon="10.760339179963236"><ele>101.5</ele><time>2026-03-28T12:02:43Z</time></trkpt><trkpt lat="45.438383492999954" lon="10.76018674803276"><ele>101.0</ele><time>2026-03-28T12:02:44Z</time></trkpt><trkpt lat="45.43836427869408" lon="10.76000970693007"><ele>100.5</ele><time>2026-03-28T12:02:45Z</time></trkpt><trkpt lat="45.43834843786474" lon="10.759811790750994"><ele>100.0</ele><time>2026-03-28T12:02:46Z</time></trkpt><trkpt lat="45.43833491304306" lon="10.759587081064165"><ele>100.33333333333334</ele><time>2026-03-28T12:02:47Z</time></trkpt><trkpt lat="45.438322674917046" lon="10.75934895133115"><ele>100.66666666666666</ele><time>2026-03-28T12:02:48Z</time></trkpt><trkpt lat="45.438313079134765" lon="10.759109358579344"><ele>101.0</ele><time>2026-03-28T12:02:49Z</time></trkpt><trkpt lat="45.43830224466667" lon="10.758854049604672"><ele>101.0</ele><time>2026-03-28T12:02:50Z</time></trkpt><trkpt lat="45.43828968280498" lon="10.75861247891739"><ele>101.0</ele><time>2026-03-28T12:02:51Z</time></trkpt><trkpt lat="45.438279904933985" lon="10.758397595560634"><ele>101.0</ele><time>2026-03-28T12:02:52Z</time></trkpt><trkpt lat="45.43827253722406" lon="10.758181763848519"><ele>101.33333333333333</ele><time>2026-03-28T12:02:53Z</time></trkpt><trkpt lat="45.43826470404237" lon="10.757954030446612"><ele>101.66666666666666</ele><time>2026-03-28T12:02:54Z</time></trkpt><trkpt lat="45.438256796935484" lon="10.757722325552585"><ele>102.0</ele><time>2026-03-28T12:02:55Z</time></trkpt><trkpt lat="45.438242428211765" lon="10.757511216845943"><ele>102.0</ele><time>2026-03-28T12:02:56Z</time></trkpt><trkpt lat="45.438228405599105" lon="10.757342627691141"><ele>102.0</ele><time>2026-03-28T12:02:57Z</time></trkpt><trkpt lat="45.4382179055809" lon="10.757128105909286"><ele>102.0</ele><time>2026-03-28T12:02:58Z</time></trkpt><trkpt lat="45.43820751194854" lon="10.756883130649193"><ele>102.0</ele><time>2026-03-28T12:02:59Z</time></trkpt><trkpt lat="45.43819251372541" lon="10.756669271179547"><ele>102.0</ele><time>2026-03-28T12:03:00Z</time></trkpt><trkpt lat="45.438182552575874" lon="10.756494273226215"><ele>102.0</ele><time>2026-03-28T12:03:01Z</time></trkpt><trkpt lat="45.438175655505674" lon="10.756334643266605"><ele>102.0</ele><time>2026-03-28T12:03:02Z</time></trkpt><trkpt lat="45.43816566227878" lon="10.756181008465225"><ele>102.0</ele><time>2026-03-28T12:03:03Z</time></trkpt><trkpt lat="45.438163494841746" lon="10.756027331840896"><ele>102.16666666666667</ele><time>2026-03-28T12:03:04Z</time></trkpt><trkpt lat="45.43815790845015" lon="10.755883984217384"><ele>102.33333333333334</ele><time>2026-03-28T12:03:05Z</time></trkpt><trkpt lat="45.43814834284773" lon="10.755762274552241"><ele>102.5</ele><time>2026-03-28T12:03:06Z</time></trkpt><trkpt lat="45.43813542759141" lon="10.755670801148407"><ele>102.66666666666667</ele><time>2026-03-28T12:03:07Z</time></trkpt><trkpt lat="45.43806909216582" lon="10.75564189762679"><ele>102.83333333333334</ele><time>2026-03-28T12:03:09Z</time></trkpt><trkpt lat="45.438013915130206" lon="10.755698502235573"><ele>103.0</ele><time>2026-03-28T12:03:12Z</time></trkpt><trkpt lat="45.43803636551384" lon="10.755879910782872"><ele>103.0</ele><time>2026-03-28T12:03:14Z</time></trkpt><trkpt lat="45.43806249092529" lon="10.755986200809206"><ele>103.0</ele><time>2026-03-28T12:03:18Z</time></trkpt><trkpt lat="45.43813569513452" lon="10.756077286298524"><ele>103.0</ele><time>2026-03-28T12:07:34Z</time></trkpt><trkpt lat="45.43816855419984" lon="10.756167422712334"><ele>103.0</ele><time>2026-03-28T12:07:36Z</time></trkpt><trkpt lat="45.43817398528503" lon="10.756356350321266"><ele>103.0</ele><time>2026-03-28T12:07:45Z</time></trkpt><trkpt lat="45.438180197474644" lon="10.756496620231522"><ele>102.80000000000001</ele><time>2026-03-28T12:07:46Z</time></trkpt><trkpt lat="45.43817766808748" lon="10.75664258893471"><ele>102.6</ele><time>2026-03-28T12:07:47Z</time></trkpt><trkpt lat="45.438181769487294" lon="10.75679075315048"><ele>102.4</ele><time>2026-03-28T12:07:48Z</time></trkpt><trkpt lat="45.43819384947131" lon="10.75695602047954"><ele>102.19999999999999</ele><time>2026-03-28T12:07:49Z</time></trkpt><trkpt lat="45.43820293902407" lon="10.757126110162602"><ele>102.0</ele><time>2026-03-28T12:07:50Z</time></trkpt><trkpt lat="45.43820833554771" lon="10.757290171299374"><ele>102.0</ele><time>2026-03-28T12:07:51Z</time></trkpt><trkpt lat="45.43821334062437" lon="10.757451442373288"><ele>102.0</ele><time>2026-03-28T12:07:52Z</time></trkpt><trkpt lat="45.438221084551365" lon="10.757618930247048"><ele>102.0</ele><time>2026-03-28T12:07:53Z</time></trkpt><trkpt lat="45.438228869820556" lon="10.757792795720695"><ele>102.0</ele><time>2026-03-28T12:07:54Z</time></trkpt><trkpt lat="45.4382349957438" lon="10.75794576153294"><ele>102.19999999999999</ele><time>2026-03-28T12:07:55Z</time></trkpt><trkpt lat="45.43824085883567" lon="10.758087093395051"><ele>102.4</ele><time>2026-03-28T12:07:56Z</time></trkpt><trkpt lat="45.43824772800239" lon="10.758222576732516"><ele>102.6</ele><time>2026-03-28T12:07:57Z</time></trkpt><trkpt lat="45.43825590425547" lon="10.75836211986311"><ele>102.80000000000001</ele><time>2026-03-28T12:07:58Z</time></trkpt><trkpt lat="45.438262941638094" lon="10.758512529296697"><ele>103.0</ele><time>2026-03-28T12:07:59Z</time></trkpt><trkpt lat="45.43826754962937" lon="10.758668233668953"><ele>102.60000000000001</ele><time>2026-03-28T12:08:00Z</time></trkpt><trkpt lat="45.438272277469835" lon="10.758818812035567"><ele>102.2</ele><time>2026-03-28T12:08:01Z</time></trkpt><trkpt lat="45.43827930492507" lon="10.758960780304339"><ele>101.8</ele><time>2026-03-28T12:08:02Z</time></trkpt><trkpt lat="45.4382854403696" lon="10.759104460358968"><ele>101.4</ele><time>2026-03-28T12:08:03Z</time></trkpt><trkpt lat="45.4382931675996" lon="10.759246031236367"><ele>101.0</ele><time>2026-03-28T12:08:04Z</time></trkpt><trkpt lat="45.43830091849541" lon="10.759382051967577"><ele>100.83333333333333</ele><time>2026-03-28T12:08:05Z</time></trkpt><trkpt lat="45.43830721292135" lon="10.7595076352935"><ele>100.66666666666666</ele><time>2026-03-28T12:08:06Z</time></trkpt><trkpt lat="45.43831163134036" lon="10.759629915212784"><ele>100.5</ele><time>2026-03-28T12:08:07Z</time></trkpt><trkpt lat="45.43831803864798" lon="10.759757151747229"><ele>100.33333333333334</ele><time>2026-03-28T12:08:08Z</time></trkpt><trkpt lat="45.43832381846918" lon="10.759867314131581"><ele>100.16666666666667</ele><time>2026-03-28T12:08:09Z</time></trkpt><trkpt lat="45.43833044107246" lon="10.759968222192896"><ele>100.0</ele><time>2026-03-28T12:08:10Z</time></trkpt><trkpt lat="45.43833488440032" lon="10.760065610075413"><ele>100.00000000000001</ele><time>2026-03-28T12:08:11Z</time></trkpt><trkpt lat="45.4383336828879" lon="10.76015670490822"><ele>100.0</ele><time>2026-03-28T12:08:12Z</time></trkpt><trkpt lat="45.438318111380276" lon="10.760314858749624"><ele>100.0</ele><time>2026-03-28T12:08:14Z</time></trkpt><trkpt lat="45.43828262111716" lon="10.760394121800761"><ele>100.0</ele><time>2026-03-28T12:08:15Z</time></trkpt><trkpt lat="45.4382270018077" lon="10.760488534313888"><ele>100.00000000000001</ele><time>2026-03-28T12:08:16Z</time></trkpt><trkpt lat="45.438195497293606" lon="10.76059003296378"><ele>100.0</ele><time>2026-03-28T12:08:17Z</time></trkpt><trkpt lat="45.43820968082714" lon="10.760686468916377"><ele>100.4</ele><time>2026-03-28T12:08:18Z</time></trkpt><trkpt lat="45.43825646370811" lon="10.760787685510056"><ele>100.8</ele><time>2026-03-28T12:08:19Z</time></trkpt><trkpt lat="45.43832934124532" lon="10.760895534813711"><ele>101.19999999999999</ele><time>2026-03-28T12:08:20Z</time></trkpt><trkpt lat="45.43838046085298" lon="10.76102241636631"><ele>101.6</ele><time>2026-03-28T12:08:21Z</time></trkpt><trkpt lat="45.438395151675586" lon="10.761197022082696"><ele>102.0</ele><time>2026-03-28T12:08:22Z</time></trkpt><trkpt lat="45.43839744641574" lon="10.761409024714267"><ele>102.0</ele><time>2026-03-28T12:08:23Z</time></trkpt><trkpt lat="45.43840347091972" lon="10.761637557500965"><ele>102.0</ele><time>2026-03-28T12:08:24Z</time></trkpt><trkpt lat="45.43841744863902" lon="10.761871888352019"><ele>102.0</ele><time>2026-03-28T12:08:25Z</time></trkpt><trkpt lat="45.438433089060936" lon="10.762105193232367"><ele>102.0</ele><time>2026-03-28T12:08:26Z</time></trkpt><trkpt lat="45.438455428820255" lon="10.762338588481319"><ele>102.0</ele><time>2026-03-28T12:08:27Z</time></trkpt><trkpt lat="45.43849097862871" lon="10.762578533004273"><ele>102.0</ele><time>2026-03-28T12:08:28Z</time></trkpt><trkpt lat="45.43853216008444" lon="10.762824289835766"><ele>102.0</ele><time>2026-03-28T12:08:29Z</time></trkpt><trkpt lat="45.4385701559014" lon="10.763047089492806"><ele>102.0</ele><time>2026-03-28T12:08:30Z</time></trkpt><trkpt lat="45.43860714678575" lon="10.76324094799517"><ele>102.0</ele><time>2026-03-28T12:08:31Z</time></trkpt><trkpt lat="45.43863225459744" lon="10.763402010620338"><ele>102.0</ele><time>2026-03-28T12:08:32Z</time></trkpt><trkpt lat="45.43865973306393" lon="10.763552008846869"><ele>102.0</ele><time>2026-03-28T12:08:33Z</time></trkpt><trkpt lat="45.43868547125992" lon="10.763706117264885"><ele>102.0</ele><time>2026-03-28T12:08:34Z</time></trkpt><trkpt lat="45.43871556470777" lon="10.763867138005331"><ele>102.0</ele><time>2026-03-28T12:08:35Z</time></trkpt><trkpt lat="45.43874433925561" lon="10.764049179017375"><ele>102.0</ele><time>2026-03-28T12:08:36Z</time></trkpt><trkpt lat="45.4387805162213" lon="10.764242618032323"><ele>103.66666666666666</ele><time>2026-03-28T12:08:37Z</time></trkpt><trkpt lat="45.43882201147207" lon="10.764452042621585"><ele>105.33333333333333</ele><time>2026-03-28T12:08:38Z</time></trkpt><trkpt lat="45.438873506252655" lon="10.764674597857224"><ele>107.0</ele><time>2026-03-28T12:08:39Z</time></trkpt><trkpt lat="45.43892201183186" lon="10.764905299631613"><ele>107.0</ele><time>2026-03-28T12:08:40Z</time></trkpt><trkpt lat="45.438967472391646" lon="10.765145013803865"><ele>107.0</ele><time>2026-03-28T12:08:41Z</time></trkpt><trkpt lat="45.43901305730374" lon="10.765380386203885"><ele>107.0</ele><time>2026-03-28T12:08:42Z</time></trkpt><trkpt lat="45.43906006875673" lon="10.765612085327108"><ele>107.66666666666666</ele><time>2026-03-28T12:08:43Z</time></trkpt><trkpt lat="45.43911173626071" lon="10.765848956927721"><ele>108.33333333333334</ele><time>2026-03-28T12:08:44Z</time></trkpt><trkpt lat="45.43917285925484" lon="10.766077436576536"><ele>109.0</ele><time>2026-03-28T12:08:45Z</time></trkpt><trkpt lat="45.43924150337447" lon="10.766313243658347"><ele>110.0</ele><time>2026-03-28T12:08:46Z</time></trkpt><trkpt lat="45.439323601562634" lon="10.766570876833145"><ele>111.0</ele><time>2026-03-28T12:08:47Z</time></trkpt><trkpt lat="45.43942349836104" lon="10.766848633786651"><ele>112.0</ele><time>2026-03-28T12:08:48Z</time></trkpt><trkpt lat="45.43950430781228" lon="10.767104684085632"><ele>112.25</ele><time>2026-03-28T12:08:49Z</time></trkpt><trkpt lat="45.43959069608076" lon="10.76731222113108"><ele>112.5</ele><time>2026-03-28T12:08:50Z</time></trkpt><trkpt lat="45.439662798850925" lon="10.767489845317959"><ele>112.75</ele><time>2026-03-28T12:08:51Z</time></trkpt><trkpt lat="45.439720537573166" lon="10.767632083759429"><ele>113.0</ele><time>2026-03-28T12:08:52Z</time></trkpt><trkpt lat="45.4397636815601" lon="10.76773988554903"><ele>114.5</ele><time>2026-03-28T12:08:53Z</time></trkpt><trkpt lat="45.43981422521653" lon="10.767866333811494"><ele>116.0</ele><time>2026-03-28T12:08:55Z</time></trkpt><trkpt lat="45.43999154139994" lon="10.767896812017996"><ele>117.5</ele><time>2026-03-28T12:08:57Z</time></trkpt><trkpt lat="45.44012549303569" lon="10.767892566886035"><ele>119.0</ele><time>2026-03-28T12:08:58Z</time></trkpt><trkpt lat="45.44027503518384" lon="10.767902246031168"><ele>119.0</ele><time>2026-03-28T12:08:59Z</time></trkpt><trkpt lat="45.440425668623426" lon="10.767927402891262"><ele>119.0</ele><time>2026-03-28T12:09:00Z</time></trkpt><trkpt lat="45.44057175311993" lon="10.767990549899755"><ele>119.0</ele><time>2026-03-28T12:09:01Z</time></trkpt><trkpt lat="45.44071370966618" lon="10.768009598886891"><ele>119.0</ele><time>2026-03-28T12:09:02Z</time></trkpt><trkpt lat="45.44085331850393" lon="10.768057510288957"><ele>119.33333333333333</ele><time>2026-03-28T12:09:03Z</time></trkpt><trkpt lat="45.44100791256003" lon="10.76810747274267"><ele>119.66666666666666</ele><time>2026-03-28T12:09:04Z</time></trkpt><trkpt lat="45.4411764210036" lon="10.76815832252717"><ele>120.0</ele><time>2026-03-28T12:09:05Z</time></trkpt><trkpt lat="45.44135012371142" lon="10.768206148219019"><ele>120.0</ele><time>2026-03-28T12:09:06Z</time></trkpt><trkpt lat="45.44151477285446" lon="10.768248408020638"><ele>120.0</ele><time>2026-03-28T12:09:07Z</time></trkpt><trkpt lat="45.44167128628794" lon="10.768282644448028"><ele>120.0</ele><time>2026-03-28T12:09:08Z</time></trkpt><trkpt lat="45.44182785132855" lon="10.768312786303788"><ele>120.0</ele><time>2026-03-28T12:09:09Z</time></trkpt><trkpt lat="45.44200211529046" lon="10.768350530493404"><ele>120.0</ele><time>2026-03-28T12:09:10Z</time></trkpt><trkpt lat="45.44219121032103" lon="10.768321266046252"><ele>120.0</ele><time>2026-03-28T12:09:11Z</time></trkpt><trkpt lat="45.442388771965845" lon="10.768295699846139"><ele>119.66666666666666</ele><time>2026-03-28T12:09:12Z</time></trkpt><trkpt lat="45.44256969285256" lon="10.768298976968593"><ele>119.33333333333333</ele><time>2026-03-28T12:09:13Z</time></trkpt><trkpt lat="45.44273843975079" lon="10.768283105695758"><ele>119.0</ele><time>2026-03-28T12:09:14Z</time></trkpt><trkpt lat="45.442912737205646" lon="10.768245008618628"><ele>117.66666666666666</ele><time>2026-03-28T12:09:15Z</time></trkpt><trkpt lat="45.443092700004655" lon="10.768228665979542"><ele>116.33333333333334</ele><time>2026-03-28T12:09:16Z</time></trkpt><trkpt lat="45.4432727918479" lon="10.768210370959704"><ele>115.0</ele><time>2026-03-28T12:09:17Z</time></trkpt><trkpt lat="45.44346410716072" lon="10.768193291083325"><ele>115.0</ele><time>2026-03-28T12:09:18Z</time></trkpt><trkpt lat="45.44365617486145" lon="10.76816829169707"><ele>115.0</ele><time>2026-03-28T12:09:19Z</time></trkpt><trkpt lat="45.443863713339326" lon="10.768135324661037"><ele>115.0</ele><time>2026-03-28T12:09:20Z</time></trkpt><trkpt lat="45.444105336693326" lon="10.768093083344397"><ele>115.5</ele><time>2026-03-28T12:09:21Z</time></trkpt><trkpt lat="45.444365156622645" lon="10.768056199834607"><ele>116.0</ele><time>2026-03-28T12:09:22Z</time></trkpt><trkpt lat="45.44463176253431" lon="10.768039189220413"><ele>116.0</ele><time>2026-03-28T12:09:23Z</time></trkpt><trkpt lat="45.44490056921497" lon="10.768062881976878"><ele>116.0</ele><time>2026-03-28T12:09:24Z</time></trkpt><trkpt lat="45.44513896868885" lon="10.768015599928173"><ele>116.0</ele><time>2026-03-28T12:09:25Z</time></trkpt><trkpt lat="45.445365563373805" lon="10.768015374005401"><ele>116.0</ele><time>2026-03-28T12:09:26Z</time></trkpt><trkpt lat="45.44558248625854" lon="10.76797671218656"><ele>116.0</ele><time>2026-03-28T12:09:27Z</time></trkpt><trkpt lat="45.445794273428646" lon="10.767971548717588"><ele>115.33333333333333</ele><time>2026-03-28T12:09:28Z</time></trkpt><trkpt lat="45.44600932043877" lon="10.767987440024857"><ele>114.66666666666666</ele><time>2026-03-28T12:09:29Z</time></trkpt><trkpt lat="45.44621318963451" lon="10.768036579514389"><ele>114.0</ele><time>2026-03-28T12:09:30Z</time></trkpt><trkpt lat="45.44642739839819" lon="10.768106682204184"><ele>113.0</ele><time>2026-03-28T12:09:31Z</time></trkpt><trkpt lat="45.4466487018882" lon="10.768202530300089"><ele>112.0</ele><time>2026-03-28T12:09:32Z</time></trkpt><trkpt lat="45.44687474690414" lon="10.768322448728382"><ele>112.0</ele><time>2026-03-28T12:09:33Z</time></trkpt><trkpt lat="45.44709785940741" lon="10.768449509871568"><ele>112.0</ele><time>2026-03-28T12:09:34Z</time></trkpt><trkpt lat="45.44733193337516" lon="10.76858851027111"><ele>113.5</ele><time>2026-03-28T12:09:35Z</time></trkpt><trkpt lat="45.44756544495546" lon="10.768740396973712"><ele>115.0</ele><time>2026-03-28T12:09:36Z</time></trkpt><trkpt lat="45.44779623568526" lon="10.76889958637576"><ele>114.5</ele><time>2026-03-28T12:09:37Z</time></trkpt><trkpt lat="45.4480093549389" lon="10.769051125069595"><ele>114.0</ele><time>2026-03-28T12:09:38Z</time></trkpt><trkpt lat="45.448201666113384" lon="10.769196569776707"><ele>113.66666666666666</ele><time>2026-03-28T12:09:39Z</time></trkpt><trkpt lat="45.44838628441868" lon="10.769361110563699"><ele>113.33333333333333</ele><time>2026-03-28T12:09:40Z</time></trkpt><trkpt lat="45.4485606406746" lon="10.769538077122291"><ele>113.0</ele><time>2026-03-28T12:09:41Z</time></trkpt><trkpt lat="45.44871176781359" lon="10.76971360312189"><ele>114.0</ele><time>2026-03-28T12:09:42Z</time></trkpt><trkpt lat="45.44884184894801" lon="10.769877618976714"><ele>115.0</ele><time>2026-03-28T12:09:43Z</time></trkpt><trkpt lat="45.44895620166463" lon="10.77003546774441"><ele>116.0</ele><time>2026-03-28T12:09:44Z</time></trkpt><trkpt lat="45.44904615339347" lon="10.770168582902476"><ele>115.75</ele><time>2026-03-28T12:09:45Z</time></trkpt><trkpt lat="45.44910893068491" lon="10.770266126950027"><ele>115.5</ele><time>2026-03-28T12:09:46Z</time></trkpt><trkpt lat="45.449155987691015" lon="10.770339611805882"><ele>115.25</ele><time>2026-03-28T12:09:47Z</time></trkpt><trkpt lat="45.44922062433161" lon="10.770427335741246"><ele>115.0</ele><time>2026-03-28T12:09:49Z</time></trkpt><trkpt lat="45.44951013309008" lon="10.770388369282928"><ele>115.0</ele><time>2026-03-28T12:10:10Z</time></trkpt><trkpt lat="45.44960459547218" lon="10.770396357853722"><ele>115.0</ele><time>2026-03-28T12:10:11Z</time></trkpt><trkpt lat="45.449698410533244" lon="10.770411032653216"><ele>115.0</ele><time>2026-03-28T12:10:12Z</time></trkpt><trkpt lat="45.44982088090476" lon="10.770426034878172"><ele>115.0</ele><time>2026-03-28T12:10:13Z</time></trkpt><trkpt lat="45.44994669378784" lon="10.770440465503196"><ele>115.0</ele><time>2026-03-28T12:10:14Z</time></trkpt><trkpt lat="45.45007656248247" lon="10.770476761806231"><ele>115.0</ele><time>2026-03-28T12:10:15Z</time></trkpt><trkpt lat="45.45022289210801" lon="10.770511256022697"><ele>115.0</ele><time>2026-03-28T12:10:16Z</time></trkpt><trkpt lat="45.45037948867364" lon="10.770518988631702"><ele>115.0</ele><time>2026-03-28T12:10:17Z</time></trkpt><trkpt lat="45.45053886205945" lon="10.770554571713696"><ele>115.33333333333334</ele><time>2026-03-28T12:10:18Z</time></trkpt><trkpt lat="45.4506968848294" lon="10.770587138272656"><ele>115.66666666666666</ele><time>2026-03-28T12:10:19Z</time></trkpt><trkpt lat="45.45086674974541" lon="10.770602824745284"><ele>116.0</ele><time>2026-03-28T12:10:20Z</time></trkpt><trkpt lat="45.45104990581963" lon="10.770603661982438"><ele>116.0</ele><time>2026-03-28T12:10:21Z</time></trkpt><trkpt lat="45.45121518614773" lon="10.770637927365728"><ele>116.0</ele><time>2026-03-28T12:10:22Z</time></trkpt><trkpt lat="45.45139453029845" lon="10.770677415423721"><ele>116.0</ele><time>2026-03-28T12:10:23Z</time></trkpt><trkpt lat="45.45156863084438" lon="10.770712328009653"><ele>116.33333333333333</ele><time>2026-03-28T12:10:24Z</time></trkpt><trkpt lat="45.451741008428236" lon="10.77074264316828"><ele>116.66666666666666</ele><time>2026-03-28T12:10:25Z</time></trkpt><trkpt lat="45.45192584263092" lon="10.770775467768262"><ele>117.0</ele><time>2026-03-28T12:10:26Z</time></trkpt><trkpt lat="45.45209438226452" lon="10.770810274456586"><ele>117.5</ele><time>2026-03-28T12:10:27Z</time></trkpt><trkpt lat="45.452246124320716" lon="10.770836790080933"><ele>118.0</ele><time>2026-03-28T12:10:28Z</time></trkpt><trkpt lat="45.45239661707461" lon="10.770860526669658"><ele>118.5</ele><time>2026-03-28T12:10:29Z</time></trkpt><trkpt lat="45.452533796433734" lon="10.77086498307388"><ele>119.0</ele><time>2026-03-28T12:10:30Z</time></trkpt><trkpt lat="45.452667384935005" lon="10.770891836577634"><ele>119.0</ele><time>2026-03-28T12:10:31Z</time></trkpt><trkpt lat="45.4527955112556" lon="10.770912551219494"><ele>119.0</ele><time>2026-03-28T12:10:32Z</time></trkpt><trkpt lat="45.452946784681636" lon="10.77093749157264"><ele>119.0</ele><time>2026-03-28T12:10:33Z</time></trkpt><trkpt lat="45.45309304647088" lon="10.770968673933728"><ele>119.0</ele><time>2026-03-28T12:10:34Z</time></trkpt><trkpt lat="45.45324830631348" lon="10.771001632745836"><ele>118.75</ele><time>2026-03-28T12:10:35Z</time></trkpt><trkpt lat="45.45337923512137" lon="10.771029070299386"><ele>118.5</ele><time>2026-03-28T12:10:36Z</time></trkpt><trkpt lat="45.45352683027671" lon="10.771055578499933"><ele>118.25</ele><time>2026-03-28T12:10:37Z</time></trkpt><trkpt lat="45.453675395116555" lon="10.771068202904566"><ele>118.0</ele><time>2026-03-28T12:10:38Z</time></trkpt><trkpt lat="45.45383925872888" lon="10.771090119587564"><ele>117.66666666666667</ele><time>2026-03-28T12:10:39Z</time></trkpt><trkpt lat="45.45399757042846" lon="10.771116630585137"><ele>117.33333333333334</ele><time>2026-03-28T12:10:40Z</time></trkpt><trkpt lat="45.45416396143638" lon="10.771148338658334"><ele>117.0</ele><time>2026-03-28T12:10:41Z</time></trkpt><trkpt lat="45.45434320888554" lon="10.771181627463426"><ele>117.0</ele><time>2026-03-28T12:10:42Z</time></trkpt><trkpt lat="45.45449657715384" lon="10.771197093563869"><ele>117.0</ele><time>2026-03-28T12:10:43Z</time></trkpt><trkpt lat="45.45463254894283" lon="10.771225511961429"><ele>117.0</ele><time>2026-03-28T12:10:44Z</time></trkpt><trkpt lat="45.454760609355844" lon="10.771244367945428"><ele>117.0</ele><time>2026-03-28T12:10:45Z</time></trkpt><trkpt lat="45.454873048725254" lon="10.771260842658759"><ele>117.6</ele><time>2026-03-28T12:10:46Z</time></trkpt><trkpt lat="45.454952405044345" lon="10.771268127321012"><ele>118.19999999999999</ele><time>2026-03-28T12:10:47Z</time></trkpt><trkpt lat="45.45503348977662" lon="10.771233256021393"><ele>118.8</ele><time>2026-03-28T12:10:49Z</time></trkpt><trkpt lat="45.455015903827324" lon="10.77148341167121"><ele>119.4</ele><time>2026-03-28T12:10:53Z</time></trkpt><trkpt lat="45.45502040062693" lon="10.771592786899346"><ele>120.0</ele><time>2026-03-28T12:10:54Z</time></trkpt><trkpt lat="45.455001085997985" lon="10.771694757677622"><ele>120.0</ele><time>2026-03-28T12:10:56Z</time></trkpt><trkpt lat="45.45513943527177" lon="10.771727446363666"><ele>120.0</ele><time>2026-03-28T12:10:57Z</time></trkpt><trkpt lat="45.45521824046153" lon="10.771734921243292"><ele>120.0</ele><time>2026-03-28T12:10:58Z</time></trkpt><trkpt lat="45.45532789613781" lon="10.771751588700294"><ele>120.0</ele><time>2026-03-28T12:10:59Z</time></trkpt><trkpt lat="45.45546535671903" lon="10.771776968151986"><ele>120.0</ele><time>2026-03-28T12:11:00Z</time></trkpt><trkpt lat="45.45560473741431" lon="10.77181542585584"><ele>120.0</ele><time>2026-03-28T12:11:01Z</time></trkpt><trkpt lat="45.45575078455018" lon="10.771833008092964"><ele>120.0</ele><time>2026-03-28T12:11:02Z</time></trkpt><trkpt lat="45.45589754369672" lon="10.771863515471832"><ele>120.0</ele><time>2026-03-28T12:11:03Z</time></trkpt><trkpt lat="45.456045662784504" lon="10.771894908953769"><ele>120.33333333333334</ele><time>2026-03-28T12:11:04Z</time></trkpt><trkpt lat="45.4561966523313" lon="10.771932505236958"><ele>120.66666666666667</ele><time>2026-03-28T12:11:05Z</time></trkpt><trkpt lat="45.45634046375397" lon="10.771970350281741"><ele>121.0</ele><time>2026-03-28T12:11:06Z</time></trkpt><trkpt lat="45.45648493753744" lon="10.772035086500122"><ele>121.0</ele><time>2026-03-28T12:11:07Z</time></trkpt><trkpt lat="45.456641300228604" lon="10.772062601620087"><ele>121.0</ele><time>2026-03-28T12:11:08Z</time></trkpt><trkpt lat="45.45681287314068" lon="10.77207921121412"><ele>121.0</ele><time>2026-03-28T12:11:09Z</time></trkpt><trkpt lat="45.45699272535753" lon="10.772089437854394"><ele>121.0</ele><time>2026-03-28T12:11:10Z</time></trkpt><trkpt lat="45.457176929653976" lon="10.772096686794058"><ele>121.0</ele><time>2026-03-28T12:11:11Z</time></trkpt><trkpt lat="45.45732951777888" lon="10.772080977545553"><ele>121.0</ele><time>2026-03-28T12:11:12Z</time></trkpt><trkpt lat="45.45744037803519" lon="10.772080080757776"><ele>121.0</ele><time>2026-03-28T12:11:13Z</time></trkpt><trkpt lat="45.457534258817596" lon="10.772082373847567"><ele>121.0</ele><time>2026-03-28T12:11:14Z</time></trkpt><trkpt lat="45.45760720497366" lon="10.77208175618353"><ele>121.0</ele><time>2026-03-28T12:11:15Z</time></trkpt><trkpt lat="45.45767898690959" lon="10.772079176997668"><ele>121.0</ele><time>2026-03-28T12:11:16Z</time></trkpt><trkpt lat="45.457801122723055" lon="10.772101991983245"><ele>121.0</ele><time>2026-03-28T12:11:18Z</time></trkpt><trkpt lat="45.45791247398433" lon="10.772083337765322"><ele>121.0</ele><time>2026-03-28T12:11:20Z</time></trkpt><trkpt lat="45.45798432437617" lon="10.772081131955089"><ele>121.0</ele><time>2026-03-28T12:11:21Z</time></trkpt><trkpt lat="45.45807319533998" lon="10.772082259831281"><ele>121.0</ele><time>2026-03-28T12:11:22Z</time></trkpt><trkpt lat="45.45819413368117" lon="10.772088810358094"><ele>121.0</ele><time>2026-03-28T12:11:23Z</time></trkpt><trkpt lat="45.45832950194145" lon="10.7720823833475"><ele>121.0</ele><time>2026-03-28T12:11:24Z</time></trkpt><trkpt lat="45.458460180662414" lon="10.772057340269075"><ele>121.0</ele><time>2026-03-28T12:11:25Z</time></trkpt><trkpt lat="45.45860063482774" lon="10.77203296670263"><ele>121.0</ele><time>2026-03-28T12:11:26Z</time></trkpt><trkpt lat="45.458747184784094" lon="10.772013660500727"><ele>121.0</ele><time>2026-03-28T12:11:27Z</time></trkpt><trkpt lat="45.45889079676476" lon="10.771988331271855"><ele>121.0</ele><time>2026-03-28T12:11:28Z</time></trkpt><trkpt lat="45.45902203107468" lon="10.771967847404488"><ele>121.0</ele><time>2026-03-28T12:11:29Z</time></trkpt><trkpt lat="45.45914236942663" lon="10.771968284276785"><ele>121.0</ele><time>2026-03-28T12:11:30Z</time></trkpt><trkpt lat="45.459273489937054" lon="10.771921685438171"><ele>121.0</ele><time>2026-03-28T12:11:31Z</time></trkpt><trkpt lat="45.459406975521375" lon="10.771906265833595"><ele>121.0</ele><time>2026-03-28T12:11:32Z</time></trkpt><trkpt lat="45.45953873519686" lon="10.771899241864944"><ele>121.25</ele><time>2026-03-28T12:11:33Z</time></trkpt><trkpt lat="45.45967657942102" lon="10.771913839649754"><ele>121.5</ele><time>2026-03-28T12:11:34Z</time></trkpt><trkpt lat="45.45980704248374" lon="10.771929635911802"><ele>121.75</ele><time>2026-03-28T12:11:35Z</time></trkpt><trkpt lat="45.45993577650888" lon="10.771937759207336"><ele>122.0</ele><time>2026-03-28T12:11:36Z</time></trkpt><trkpt lat="45.46007871627334" lon="10.771934437332794"><ele>122.0</ele><time>2026-03-28T12:11:37Z</time></trkpt><trkpt lat="45.460226003269746" lon="10.771950756382926"><ele>122.0</ele><time>2026-03-28T12:11:38Z</time></trkpt><trkpt lat="45.46038721785631" lon="10.771943054870508"><ele>122.0</ele><time>2026-03-28T12:11:39Z</time></trkpt><trkpt lat="45.46055023914481" lon="10.771966356021359"><ele>122.25</ele><time>2026-03-28T12:11:40Z</time></trkpt><trkpt lat="45.46070821541222" lon="10.771954406345191"><ele>122.5</ele><time>2026-03-28T12:11:41Z</time></trkpt><trkpt lat="45.4608469580412" lon="10.77195956600174"><ele>122.75</ele><time>2026-03-28T12:11:42Z</time></trkpt><trkpt lat="45.46096971912254" lon="10.771965045953612"><ele>123.0</ele><time>2026-03-28T12:11:43Z</time></trkpt><trkpt lat="45.461078126739345" lon="10.771973348516445"><ele>123.0</ele><time>2026-03-28T12:11:44Z</time></trkpt><trkpt lat="45.46116122313537" lon="10.771973519626936"><ele>123.0</ele><time>2026-03-28T12:11:45Z</time></trkpt><trkpt lat="45.46122413479225" lon="10.771976930722383"><ele>123.0</ele><time>2026-03-28T12:11:47Z</time></trkpt><trkpt lat="45.46125498181838" lon="10.772074975364106"><ele>123.0</ele><time>2026-03-28T12:11:49Z</time></trkpt><trkpt lat="45.46125653586715" lon="10.772219630866433"><ele>123.0</ele><time>2026-03-28T12:11:50Z</time></trkpt><trkpt lat="45.461246518338584" lon="10.772355519275475"><ele>123.0</ele><time>2026-03-28T12:11:51Z</time></trkpt><trkpt lat="45.46124609657115" lon="10.772470494721908"><ele>123.0</ele><time>2026-03-28T12:11:52Z</time></trkpt><trkpt lat="45.46124469530989" lon="10.772568843740274"><ele>123.0</ele><time>2026-03-28T12:11:54Z</time></trkpt><trkpt lat="45.4613717624678" lon="10.772579699272342"><ele>123.0</ele><time>2026-03-28T12:11:55Z</time></trkpt><trkpt lat="45.46148043439979" lon="10.772577792974346"><ele>123.0</ele><time>2026-03-28T12:11:56Z</time></trkpt><trkpt lat="45.46162586177565" lon="10.772574809043721"><ele>123.66666666666666</ele><time>2026-03-28T12:11:57Z</time></trkpt><trkpt lat="45.46176738347442" lon="10.77259913500069"><ele>124.33333333333333</ele><time>2026-03-28T12:11:58Z</time></trkpt><trkpt lat="45.46192698553937" lon="10.77256685630217"><ele>125.0</ele><time>2026-03-28T12:11:59Z</time></trkpt><trkpt lat="45.46208939066575" lon="10.77254213410296"><ele>125.66666666666666</ele><time>2026-03-28T12:12:00Z</time></trkpt><trkpt lat="45.46227480668192" lon="10.772501560897547"><ele>126.33333333333334</ele><time>2026-03-28T12:12:01Z</time></trkpt><trkpt lat="45.462482549328314" lon="10.772445383152732"><ele>127.0</ele><time>2026-03-28T12:12:02Z</time></trkpt><trkpt lat="45.462656618042146" lon="10.772391732799184"><ele>127.0</ele><time>2026-03-28T12:12:03Z</time></trkpt><trkpt lat="45.46281079084896" lon="10.772351452315874"><ele>127.0</ele><time>2026-03-28T12:12:04Z</time></trkpt><trkpt lat="45.462932016654484" lon="10.772361829341033"><ele>127.0</ele><time>2026-03-28T12:12:05Z</time></trkpt><trkpt lat="45.463065048710014" lon="10.772381755885498"><ele>127.0</ele><time>2026-03-28T12:12:06Z</time></trkpt><trkpt lat="45.46322425352618" lon="10.772424390274473"><ele>128.33333333333334</ele><time>2026-03-28T12:12:07Z</time></trkpt><trkpt lat="45.46340138075117" lon="10.772437226353535"><ele>129.66666666666666</ele><time>2026-03-28T12:12:08Z</time></trkpt><trkpt lat="45.46355528203822" lon="10.772464053927015"><ele>131.0</ele><time>2026-03-28T12:12:09Z</time></trkpt><trkpt lat="45.46367693809551" lon="10.772535525273911"><ele>131.75</ele><time>2026-03-28T12:12:10Z</time></trkpt><trkpt lat="45.46379855928277" lon="10.772610496844528"><ele>132.5</ele><time>2026-03-28T12:12:11Z</time></trkpt><trkpt lat="45.46393182603495" lon="10.77269752494532"><ele>133.25</ele><time>2026-03-28T12:12:12Z</time></trkpt><trkpt lat="45.46405405790146" lon="10.772780090079277"><ele>134.0</ele><time>2026-03-28T12:12:13Z</time></trkpt><trkpt lat="45.464145051468805" lon="10.772879732084219"><ele>134.5</ele><time>2026-03-28T12:12:14Z</time></trkpt><trkpt lat="45.46421340258515" lon="10.77296977731839"><ele>135.0</ele><time>2026-03-28T12:12:15Z</time></trkpt><trkpt lat="45.46427112467557" lon="10.773063085071612"><ele>135.5</ele><time>2026-03-28T12:12:16Z</time></trkpt><trkpt lat="45.46432230645651" lon="10.773151435215572"><ele>136.0</ele><time>2026-03-28T12:12:18Z</time></trkpt><trkpt lat="45.46425670327388" lon="10.773254039205487"><ele>136.5</ele><time>2026-03-28T12:12:20Z</time></trkpt><trkpt lat="45.464209466238586" lon="10.77335932907631"><ele>137.0</ele><time>2026-03-28T12:12:21Z</time></trkpt><trkpt lat="45.4641541537427" lon="10.773518138288653"><ele>138.33333333333331</ele><time>2026-03-28T12:12:22Z</time></trkpt><trkpt lat="45.46406867193803" lon="10.773696914140045"><ele>139.66666666666666</ele><time>2026-03-28T12:12:23Z</time></trkpt><trkpt lat="45.46398019514223" lon="10.773900072665882"><ele>141.0</ele><time>2026-03-28T12:12:24Z</time></trkpt><trkpt lat="45.46389680608219" lon="10.774080874199603"><ele>141.0</ele><time>2026-03-28T12:12:25Z</time></trkpt><trkpt lat="45.463821906290356" lon="10.774215630816466"><ele>141.0</ele><time>2026-03-28T12:12:26Z</time></trkpt><trkpt lat="45.463804838400726" lon="10.774344812479299"><ele>141.0</ele><time>2026-03-28T12:12:27Z</time></trkpt><trkpt lat="45.46379546940915" lon="10.774454717981822"><ele>141.0</ele><time>2026-03-28T12:12:29Z</time></trkpt><trkpt lat="45.46391386940401" lon="10.774535546429965"><ele>141.0</ele><time>2026-03-28T12:12:32Z</time></trkpt><trkpt lat="45.46396828574767" lon="10.774618914291725"><ele>141.25</ele><time>2026-03-28T12:12:33Z</time></trkpt><trkpt lat="45.464038492982006" lon="10.774694428646027"><ele>141.5</ele><time>2026-03-28T12:12:34Z</time></trkpt><trkpt lat="45.46412138230935" lon="10.774783583878282"><ele>141.75</ele><time>2026-03-28T12:12:35Z</time></trkpt><trkpt lat="45.46423748478903" lon="10.774880030543049"><ele>142.0</ele><time>2026-03-28T12:12:36Z</time></trkpt><trkpt lat="45.46434738780542" lon="10.77501612635024"><ele>142.0</ele><time>2026-03-28T12:12:37Z</time></trkpt><trkpt lat="45.46446278630557" lon="10.775136101461369"><ele>142.0</ele><time>2026-03-28T12:12:38Z</time></trkpt><trkpt lat="45.464558749361096" lon="10.775243932848566"><ele>142.0</ele><time>2026-03-28T12:12:39Z</time></trkpt><trkpt lat="45.46463767257197" lon="10.77533324642539"><ele>142.0</ele><time>2026-03-28T12:12:40Z</time></trkpt><trkpt lat="45.464697837098804" lon="10.775401334217584"><ele>142.0</ele><time>2026-03-28T12:12:41Z</time></trkpt><trkpt lat="45.46477301542034" lon="10.775466064606507"><ele>143.4</ele><time>2026-03-28T12:12:42Z</time></trkpt><trkpt lat="45.46486128155036" lon="10.775548759597118"><ele>144.79999999999998</ele><time>2026-03-28T12:12:43Z</time></trkpt><trkpt lat="45.464944375801515" lon="10.775605584229577"><ele>146.2</ele><time>2026-03-28T12:12:44Z</time></trkpt><trkpt lat="45.465035827302394" lon="10.775658828838763"><ele>147.6</ele><time>2026-03-28T12:12:45Z</time></trkpt><trkpt lat="45.46515062716442" lon="10.775746024374742"><ele>149.0</ele><time>2026-03-28T12:12:46Z</time></trkpt><trkpt lat="45.46525470016846" lon="10.775848090006173"><ele>149.0</ele><time>2026-03-28T12:12:47Z</time></trkpt><trkpt lat="45.46535774207997" lon="10.775947392874507"><ele>149.0</ele><time>2026-03-28T12:12:48Z</time></trkpt><trkpt lat="45.465442572241415" lon="10.776022252595475"><ele>149.0</ele><time>2026-03-28T12:12:49Z</time></trkpt><trkpt lat="45.46551323581315" lon="10.77609494063995"><ele>149.0</ele><time>2026-03-28T12:12:50Z</time></trkpt><trkpt lat="45.46559234244584" lon="10.776153941384164"><ele>149.0</ele><time>2026-03-28T12:12:51Z</time></trkpt><trkpt lat="45.465681788529984" lon="10.776205775462639"><ele>149.4</ele><time>2026-03-28T12:12:52Z</time></trkpt><trkpt lat="45.465759430991916" lon="10.776248627006392"><ele>149.8</ele><time>2026-03-28T12:12:53Z</time></trkpt><trkpt lat="45.46582611682229" lon="10.776283933735634"><ele>150.2</ele><time>2026-03-28T12:12:54Z</time></trkpt><trkpt lat="45.46591963656639" lon="10.7762915540284"><ele>150.6</ele><time>2026-03-28T12:12:55Z</time></trkpt><trkpt lat="45.46601755251287" lon="10.776320969332312"><ele>151.0</ele><time>2026-03-28T12:12:56Z</time></trkpt><trkpt lat="45.466129206561334" lon="10.776346733912622"><ele>151.0</ele><time>2026-03-28T12:12:57Z</time></trkpt><trkpt lat="45.46623962734597" lon="10.77640481839942"><ele>151.0</ele><time>2026-03-28T12:12:58Z</time></trkpt><trkpt lat="45.46635117060386" lon="10.776468197721105"><ele>151.0</ele><time>2026-03-28T12:12:59Z</time></trkpt><trkpt lat="45.46647762664578" lon="10.776536508378996"><ele>151.0</ele><time>2026-03-28T12:13:00Z</time></trkpt><trkpt lat="45.466615674528576" lon="10.776609020637368"><ele>152.0</ele><time>2026-03-28T12:13:01Z</time></trkpt><trkpt lat="45.46675945734994" lon="10.776691675126418"><ele>153.0</ele><time>2026-03-28T12:13:02Z</time></trkpt><trkpt lat="45.466901525823346" lon="10.776766062673472"><ele>154.0</ele><time>2026-03-28T12:13:03Z</time></trkpt><trkpt lat="45.46704463683023" lon="10.776841661583521"><ele>155.0</ele><time>2026-03-28T12:13:04Z</time></trkpt><trkpt lat="45.46716818820277" lon="10.776910529553646"><ele>156.0</ele><time>2026-03-28T12:13:05Z</time></trkpt><trkpt lat="45.46728464350177" lon="10.776962555516981"><ele>157.0</ele><time>2026-03-28T12:13:06Z</time></trkpt><trkpt lat="45.46739856856084" lon="10.777045210727078"><ele>158.0</ele><time>2026-03-28T12:13:07Z</time></trkpt><trkpt lat="45.46750709548748" lon="10.777104593498729"><ele>158.0</ele><time>2026-03-28T12:13:08Z</time></trkpt><trkpt lat="45.46760021677813" lon="10.777155546669684"><ele>158.0</ele><time>2026-03-28T12:13:09Z</time></trkpt><trkpt lat="45.46768278566783" lon="10.777198529956665"><ele>158.0</ele><time>2026-03-28T12:13:10Z</time></trkpt><trkpt lat="45.46775248296697" lon="10.777226230859702"><ele>158.0</ele><time>2026-03-28T12:13:11Z</time></trkpt><trkpt lat="45.46782975494494" lon="10.777307098426304"><ele>158.0</ele><time>2026-03-28T12:13:13Z</time></trkpt><trkpt lat="45.46795715437889" lon="10.777393203881863"><ele>157.5</ele><time>2026-03-28T12:13:15Z</time></trkpt><trkpt lat="45.46805299351897" lon="10.777446196252992"><ele>157.0</ele><time>2026-03-28T12:13:16Z</time></trkpt><trkpt lat="45.468168628461086" lon="10.777490198420931"><ele>156.5</ele><time>2026-03-28T12:13:17Z</time></trkpt><trkpt lat="45.46828784651756" lon="10.777550886331207"><ele>156.0</ele><time>2026-03-28T12:13:18Z</time></trkpt><trkpt lat="45.46841483690044" lon="10.777620036501366"><ele>155.5</ele><time>2026-03-28T12:13:19Z</time></trkpt><trkpt lat="45.468534932178535" lon="10.777685704982442"><ele>155.0</ele><time>2026-03-28T12:13:20Z</time></trkpt><trkpt lat="45.4686458999091" lon="10.777755446189"><ele>154.5</ele><time>2026-03-28T12:13:21Z</time></trkpt><trkpt lat="45.46875262590299" lon="10.777823158595456"><ele>154.0</ele><time>2026-03-28T12:13:22Z</time></trkpt><trkpt lat="45.468860245903436" lon="10.77788401267078"><ele>154.0</ele><time>2026-03-28T12:13:23Z</time></trkpt><trkpt lat="45.46895550603775" lon="10.777936541152092"><ele>154.0</ele><time>2026-03-28T12:13:24Z</time></trkpt><trkpt lat="45.46904623260034" lon="10.777986095714187"><ele>154.0</ele><time>2026-03-28T12:13:25Z</time></trkpt><trkpt lat="45.46912455370021" lon="10.7780285453353"><ele>154.0</ele><time>2026-03-28T12:13:26Z</time></trkpt><trkpt lat="45.46921171095418" lon="10.778092426171787"><ele>154.0</ele><time>2026-03-28T12:13:28Z</time></trkpt><trkpt lat="45.46919086726958" lon="10.778225859278379"><ele>154.0</ele><time>2026-03-28T12:13:30Z</time></trkpt><trkpt lat="45.46913302961236" lon="10.778289640732952"><ele>154.0</ele><time>2026-03-28T12:13:31Z</time></trkpt><trkpt lat="45.469090278767545" lon="10.778428871507122"><ele>154.0</ele><time>2026-03-28T12:13:33Z</time></trkpt><trkpt lat="45.469057884021986" lon="10.778517394184233"><ele>154.0</ele><time>2026-03-28T12:13:35Z</time></trkpt><trkpt lat="45.46898628132751" lon="10.778600215968934"><ele>154.0</ele><time>2026-03-28T12:13:47Z</time></trkpt><trkpt lat="45.46893054035707" lon="10.7786924133367"><ele>154.0</ele><time>2026-03-28T12:13:48Z</time></trkpt><trkpt lat="45.468858509223" lon="10.77878689775341"><ele>154.0</ele><time>2026-03-28T12:13:49Z</time></trkpt><trkpt lat="45.46878281138381" lon="10.778899502442169"><ele>154.0</ele><time>2026-03-28T12:13:50Z</time></trkpt><trkpt lat="45.4687158097667" lon="10.779004256924726"><ele>154.0</ele><time>2026-03-28T12:13:51Z</time></trkpt><trkpt lat="45.46863880966301" lon="10.77910160073984"><ele>154.0</ele><time>2026-03-28T12:13:52Z</time></trkpt><trkpt lat="45.46857640183296" lon="10.77919289193354"><ele>154.0</ele><time>2026-03-28T12:13:53Z</time></trkpt><trkpt lat="45.46851521222346" lon="10.779283138369852"><ele>153.6</ele><time>2026-03-28T12:13:54Z</time></trkpt><trkpt lat="45.46844469671719" lon="10.779382808068151"><ele>153.2</ele><time>2026-03-28T12:13:55Z</time></trkpt><trkpt lat="45.468366999331465" lon="10.779486457130517"><ele>152.79999999999998</ele><time>2026-03-28T12:13:56Z</time></trkpt><trkpt lat="45.46828733640657" lon="10.779589244091364"><ele>152.4</ele><time>2026-03-28T12:13:57Z</time></trkpt><trkpt lat="45.468207007106535" lon="10.779685832073463"><ele>152.0</ele><time>2026-03-28T12:13:58Z</time></trkpt><trkpt lat="45.468124198572866" lon="10.779737257851693"><ele>152.0</ele><time>2026-03-28T12:13:59Z</time></trkpt><trkpt lat="45.46806322515083" lon="10.779810545543224"><ele>152.0</ele><time>2026-03-28T12:14:00Z</time></trkpt><trkpt lat="45.46799387567364" lon="10.779848649108096"><ele>152.0</ele><time>2026-03-28T12:14:01Z</time></trkpt><trkpt lat="45.46793023580597" lon="10.779883842049573"><ele>152.0</ele><time>2026-03-28T12:14:02Z</time></trkpt><trkpt lat="45.467865312724754" lon="10.779932248833465"><ele>152.0</ele><time>2026-03-28T12:14:03Z</time></trkpt><trkpt lat="45.46779188328042" lon="10.779993019790195"><ele>152.0</ele><time>2026-03-28T12:14:04Z</time></trkpt><trkpt lat="45.467704662012025" lon="10.780079697311939"><ele>153.5</ele><time>2026-03-28T12:14:05Z</time></trkpt><trkpt lat="45.467621410972015" lon="10.780209884892196"><ele>155.0</ele><time>2026-03-28T12:14:06Z</time></trkpt><trkpt lat="45.46753523230832" lon="10.780358175676172"><ele>156.5</ele><time>2026-03-28T12:14:07Z</time></trkpt><trkpt lat="45.467456096988094" lon="10.780500065836884"><ele>158.0</ele><time>2026-03-28T12:14:08Z</time></trkpt><trkpt lat="45.46737861830253" lon="10.78065371090593"><ele>158.0</ele><time>2026-03-28T12:14:09Z</time></trkpt><trkpt lat="45.46729265126338" lon="10.780817235815183"><ele>158.0</ele><time>2026-03-28T12:14:10Z</time></trkpt><trkpt lat="45.46721033502526" lon="10.780979791857362"><ele>158.0</ele><time>2026-03-28T12:14:11Z</time></trkpt><trkpt lat="45.46714192355312" lon="10.781111474390435"><ele>158.0</ele><time>2026-03-28T12:14:12Z</time></trkpt><trkpt lat="45.46707991696311" lon="10.781232046955108"><ele>157.20000000000002</ele><time>2026-03-28T12:14:13Z</time></trkpt><trkpt lat="45.46702473105326" lon="10.781340034245424"><ele>156.4</ele><time>2026-03-28T12:14:14Z</time></trkpt><trkpt lat="45.466984183803625" lon="10.781454356415743"><ele>155.60000000000002</ele><time>2026-03-28T12:14:15Z</time></trkpt><trkpt lat="45.466932869545865" lon="10.781589798582857"><ele>154.8</ele><time>2026-03-28T12:14:16Z</time></trkpt><trkpt lat="45.46688996575071" lon="10.78171888919982"><ele>154.0</ele><time>2026-03-28T12:14:17Z</time></trkpt><trkpt lat="45.46685776958479" lon="10.781858262303915"><ele>154.0</ele><time>2026-03-28T12:14:18Z</time></trkpt><trkpt lat="45.46682645251892" lon="10.782006142468235"><ele>154.0</ele><time>2026-03-28T12:14:19Z</time></trkpt><trkpt lat="45.46680998840929" lon="10.78215241523364"><ele>154.0</ele><time>2026-03-28T12:14:20Z</time></trkpt><trkpt lat="45.466794127493046" lon="10.782296521572707"><ele>154.0</ele><time>2026-03-28T12:14:21Z</time></trkpt><trkpt lat="45.46677836315205" lon="10.782444863180901"><ele>154.0</ele><time>2026-03-28T12:14:22Z</time></trkpt><trkpt lat="45.466755332560176" lon="10.782603704838246"><ele>153.83333333333334</ele><time>2026-03-28T12:14:23Z</time></trkpt><trkpt lat="45.46673714203932" lon="10.782724175639194"><ele>153.66666666666669</ele><time>2026-03-28T12:14:24Z</time></trkpt><trkpt lat="45.46672095360714" lon="10.782839612990674"><ele>153.5</ele><time>2026-03-28T12:14:25Z</time></trkpt><trkpt lat="45.46670673240969" lon="10.782938528134416"><ele>153.33333333333334</ele><time>2026-03-28T12:14:26Z</time></trkpt><trkpt lat="45.46668210396452" lon="10.783071228609693"><ele>153.16666666666666</ele><time>2026-03-28T12:14:27Z</time></trkpt><trkpt lat="45.46665126082978" lon="10.783213827159432"><ele>153.0</ele><time>2026-03-28T12:14:28Z</time></trkpt><trkpt lat="45.46661795215385" lon="10.783366408665808"><ele>152.75</ele><time>2026-03-28T12:14:29Z</time></trkpt><trkpt lat="45.466577646494855" lon="10.783539211953977"><ele>152.5</ele><time>2026-03-28T12:14:30Z</time></trkpt><trkpt lat="45.46655357978467" lon="10.783731563244842"><ele>152.25</ele><time>2026-03-28T12:14:31Z</time></trkpt><trkpt lat="45.46655257034243" lon="10.783940905106405"><ele>152.0</ele><time>2026-03-28T12:14:32Z</time></trkpt><trkpt lat="45.46654799657069" lon="10.784144578406796"><ele>152.0</ele><time>2026-03-28T12:14:33Z</time></trkpt><trkpt lat="45.46654116300673" lon="10.78431402439288"><ele>152.0</ele><time>2026-03-28T12:14:34Z</time></trkpt><trkpt lat="45.46653454366986" lon="10.784447738986543"><ele>152.0</ele><time>2026-03-28T12:14:35Z</time></trkpt><trkpt lat="45.466477580588126" lon="10.78455945276601"><ele>152.0</ele><time>2026-03-28T12:14:37Z</time></trkpt><trkpt lat="45.46660412095293" lon="10.784614936588708"><ele>152.0</ele><time>2026-03-28T12:14:41Z</time></trkpt><trkpt lat="45.46669524952668" lon="10.784576868824999"><ele>152.5</ele><time>2026-03-28T12:14:42Z</time></trkpt><trkpt lat="45.46680531992121" lon="10.784574056042713"><ele>153.0</ele><time>2026-03-28T12:14:43Z</time></trkpt><trkpt lat="45.466886123206585" lon="10.78458375643857"><ele>153.5</ele><time>2026-03-28T12:14:44Z</time></trkpt><trkpt lat="45.46695385947639" lon="10.784644119453773"><ele>154.0</ele><time>2026-03-28T12:14:45Z</time></trkpt><trkpt lat="45.46704710259749" lon="10.784695712380842"><ele>154.5</ele><time>2026-03-28T12:14:46Z</time></trkpt><trkpt lat="45.467122543162716" lon="10.784705028120884"><ele>155.0</ele><time>2026-03-28T12:14:47Z</time></trkpt><trkpt lat="45.46723173062353" lon="10.784659186434428"><ele>155.0</ele><time>2026-03-28T12:14:49Z</time></trkpt><trkpt lat="45.46730514147249" lon="10.784579987331828"><ele>155.0</ele><time>2026-03-28T12:14:50Z</time></trkpt><trkpt lat="45.46738840780155" lon="10.784477594576504"><ele>155.0</ele><time>2026-03-28T12:14:51Z</time></trkpt><trkpt lat="45.467484200564265" lon="10.784443615458963"><ele>155.0</ele><time>2026-03-28T12:14:52Z</time></trkpt><trkpt lat="45.46757422380637" lon="10.784413715846592"><ele>155.0</ele><time>2026-03-28T12:14:53Z</time></trkpt><trkpt lat="45.46768372918625" lon="10.784399222039573"><ele>155.0</ele><time>2026-03-28T12:14:54Z</time></trkpt><trkpt lat="45.46780653313625" lon="10.784393682190304"><ele>155.0</ele><time>2026-03-28T12:14:55Z</time></trkpt><trkpt lat="45.467934153442805" lon="10.784375823337218"><ele>155.0</ele><time>2026-03-28T12:14:56Z</time></trkpt><trkpt lat="45.46805087566632" lon="10.784371525901067"><ele>155.0</ele><time>2026-03-28T12:14:57Z</time></trkpt><trkpt lat="45.46815992178021" lon="10.784351619731583"><ele>154.6</ele><time>2026-03-28T12:14:58Z</time></trkpt><trkpt lat="45.468258751890176" lon="10.784322472592674"><ele>154.2</ele><time>2026-03-28T12:14:59Z</time></trkpt><trkpt lat="45.46835104561244" lon="10.784280910516603"><ele>153.8</ele><time>2026-03-28T12:15:00Z</time></trkpt><trkpt lat="45.468446650922424" lon="10.784240788931838"><ele>153.4</ele><time>2026-03-28T12:15:01Z</time></trkpt><trkpt lat="45.46853048375566" lon="10.784144908633435"><ele>153.0</ele><time>2026-03-28T12:15:02Z</time></trkpt><trkpt lat="45.46861638632949" lon="10.784070084413552"><ele>153.0</ele><time>2026-03-28T12:15:03Z</time></trkpt><trkpt lat="45.46870901622792" lon="10.784017379501421"><ele>153.0</ele><time>2026-03-28T12:15:04Z</time></trkpt><trkpt lat="45.468799249500954" lon="10.783989563744113"><ele>153.0</ele><time>2026-03-28T12:15:05Z</time></trkpt><trkpt lat="45.46892015385732" lon="10.783958574244995"><ele>153.0</ele><time>2026-03-28T12:15:06Z</time></trkpt><trkpt lat="45.46906600632053" lon="10.783910971682863"><ele>152.0</ele><time>2026-03-28T12:15:07Z</time></trkpt><trkpt lat="45.46920719589501" lon="10.783854839578256"><ele>151.0</ele><time>2026-03-28T12:15:08Z</time></trkpt><trkpt lat="45.46933865775368" lon="10.783812522940474"><ele>150.0</ele><time>2026-03-28T12:15:09Z</time></trkpt><trkpt lat="45.46947572281094" lon="10.783772383189202"><ele>149.0</ele><time>2026-03-28T12:15:10Z</time></trkpt><trkpt lat="45.469618057970415" lon="10.783754481348096"><ele>148.25</ele><time>2026-03-28T12:15:11Z</time></trkpt><trkpt lat="45.469759709148065" lon="10.783750823385908"><ele>147.5</ele><time>2026-03-28T12:15:12Z</time></trkpt><trkpt lat="45.46990144089765" lon="10.78375738774375"><ele>146.75</ele><time>2026-03-28T12:15:13Z</time></trkpt><trkpt lat="45.470045806625144" lon="10.783801788881409"><ele>146.0</ele><time>2026-03-28T12:15:14Z</time></trkpt><trkpt lat="45.47019759107841" lon="10.783812497578849"><ele>146.0</ele><time>2026-03-28T12:15:15Z</time></trkpt><trkpt lat="45.47034546535848" lon="10.783842480270017"><ele>146.0</ele><time>2026-03-28T12:15:16Z</time></trkpt><trkpt lat="45.47048825824974" lon="10.783867529354575"><ele>146.0</ele><time>2026-03-28T12:15:17Z</time></trkpt><trkpt lat="45.47062375592704" lon="10.78387872807147"><ele>146.0</ele><time>2026-03-28T12:15:18Z</time></trkpt><trkpt lat="45.470761577084694" lon="10.78386902354243"><ele>145.0</ele><time>2026-03-28T12:15:19Z</time></trkpt><trkpt lat="45.470902869795076" lon="10.783833150458452"><ele>144.0</ele><time>2026-03-28T12:15:20Z</time></trkpt><trkpt lat="45.47106053468683" lon="10.783793147939846"><ele>143.0</ele><time>2026-03-28T12:15:21Z</time></trkpt><trkpt lat="45.47122257513299" lon="10.783747164647728"><ele>142.0</ele><time>2026-03-28T12:15:22Z</time></trkpt><trkpt lat="45.47138863388954" lon="10.783702333145806"><ele>141.0</ele><time>2026-03-28T12:15:23Z</time></trkpt><trkpt lat="45.47155582593104" lon="10.783677375546299"><ele>140.0</ele><time>2026-03-28T12:15:24Z</time></trkpt><trkpt lat="45.471717885510245" lon="10.783632717382693"><ele>140.0</ele><time>2026-03-28T12:15:25Z</time></trkpt><trkpt lat="45.47186566000814" lon="10.783592181757765"><ele>140.0</ele><time>2026-03-28T12:15:26Z</time></trkpt><trkpt lat="45.47202157256615" lon="10.783551605557829"><ele>140.0</ele><time>2026-03-28T12:15:27Z</time></trkpt><trkpt lat="45.47215429285976" lon="10.783519249484625"><ele>140.0</ele><time>2026-03-28T12:15:28Z</time></trkpt><trkpt lat="45.47228768045546" lon="10.783486730741897"><ele>139.75</ele><time>2026-03-28T12:15:29Z</time></trkpt><trkpt lat="45.472428371108016" lon="10.783443426901787"><ele>139.5</ele><time>2026-03-28T12:15:30Z</time></trkpt><trkpt lat="45.47257081521697" lon="10.783408225519734"><ele>139.25</ele><time>2026-03-28T12:15:31Z</time></trkpt><trkpt lat="45.472715872602926" lon="10.783388291865666"><ele>139.0</ele><time>2026-03-28T12:15:32Z</time></trkpt><trkpt lat="45.472859023343624" lon="10.783376261917313"><ele>139.0</ele><time>2026-03-28T12:15:33Z</time></trkpt><trkpt lat="45.473009620510204" lon="10.783370983367968"><ele>139.0</ele><time>2026-03-28T12:15:34Z</time></trkpt><trkpt lat="45.47313421026029" lon="10.783387770680562"><ele>139.0</ele><time>2026-03-28T12:15:35Z</time></trkpt><trkpt lat="45.473225439005695" lon="10.78338426164905"><ele>139.0</ele><time>2026-03-28T12:15:36Z</time></trkpt><trkpt lat="45.47334169982911" lon="10.783381760663076"><ele>139.0</ele><time>2026-03-28T12:15:38Z</time></trkpt><trkpt lat="45.473445338292535" lon="10.783382586096726"><ele>139.0</ele><time>2026-03-28T12:15:40Z</time></trkpt><trkpt lat="45.47351298903229" lon="10.783447813437967"><ele>139.0</ele><time>2026-03-28T12:15:41Z</time></trkpt><trkpt lat="45.47360546355507" lon="10.78343400558557"><ele>139.0</ele><time>2026-03-28T12:15:42Z</time></trkpt><trkpt lat="45.47372409134144" lon="10.783444770616923"><ele>139.0</ele><time>2026-03-28T12:15:43Z</time></trkpt><trkpt lat="45.47384437713476" lon="10.783415749586867"><ele>139.75</ele><time>2026-03-28T12:15:44Z</time></trkpt><trkpt lat="45.47396960506688" lon="10.783351540156497"><ele>140.5</ele><time>2026-03-28T12:15:45Z</time></trkpt><trkpt lat="45.474101372531614" lon="10.783278317270186"><ele>141.25</ele><time>2026-03-28T12:15:46Z</time></trkpt><trkpt lat="45.474231287797664" lon="10.78321996397543"><ele>142.0</ele><time>2026-03-28T12:15:47Z</time></trkpt><trkpt lat="45.47435391799598" lon="10.783182408327484"><ele>142.0</ele><time>2026-03-28T12:15:48Z</time></trkpt><trkpt lat="45.47447171324938" lon="10.783138038230936"><ele>142.0</ele><time>2026-03-28T12:15:49Z</time></trkpt><trkpt lat="45.47460124939781" lon="10.783089506394088"><ele>142.0</ele><time>2026-03-28T12:15:50Z</time></trkpt><trkpt lat="45.474730128818145" lon="10.783031999647857"><ele>142.0</ele><time>2026-03-28T12:15:51Z</time></trkpt><trkpt lat="45.47486102195196" lon="10.782966807883295"><ele>141.75</ele><time>2026-03-28T12:15:52Z</time></trkpt><trkpt lat="45.47497559409567" lon="10.782881355238151"><ele>141.5</ele><time>2026-03-28T12:15:53Z</time></trkpt><trkpt lat="45.47508820646409" lon="10.782771124692864"><ele>141.25</ele><time>2026-03-28T12:15:54Z</time></trkpt><trkpt lat="45.47520226275246" lon="10.782671001883049"><ele>141.0</ele><time>2026-03-28T12:15:55Z</time></trkpt><trkpt lat="45.47532597983461" lon="10.782572275899987"><ele>141.0</ele><time>2026-03-28T12:15:56Z</time></trkpt><trkpt lat="45.47541409807691" lon="10.78247541979278"><ele>141.0</ele><time>2026-03-28T12:15:57Z</time></trkpt><trkpt lat="45.47551322106905" lon="10.782381896125308"><ele>141.0</ele><time>2026-03-28T12:15:58Z</time></trkpt><trkpt lat="45.47559610652114" lon="10.782298091225273"><ele>141.0</ele><time>2026-03-28T12:15:59Z</time></trkpt><trkpt lat="45.47567595768495" lon="10.782228438222036"><ele>141.0</ele><time>2026-03-28T12:16:00Z</time></trkpt><trkpt lat="45.47575077912526" lon="10.782161927188376"><ele>140.25</ele><time>2026-03-28T12:16:01Z</time></trkpt><trkpt lat="45.47583764791623" lon="10.782057542359441"><ele>139.5</ele><time>2026-03-28T12:16:02Z</time></trkpt><trkpt lat="45.475922645187815" lon="10.781944688307371"><ele>138.75</ele><time>2026-03-28T12:16:03Z</time></trkpt><trkpt lat="45.476009749531805" lon="10.781803946681983"><ele>138.0</ele><time>2026-03-28T12:16:04Z</time></trkpt><trkpt lat="45.476076597422896" lon="10.781650794910512"><ele>137.6</ele><time>2026-03-28T12:16:05Z</time></trkpt><trkpt lat="45.47614966888913" lon="10.781538497841037"><ele>137.20000000000002</ele><time>2026-03-28T12:16:06Z</time></trkpt><trkpt lat="45.47622846780326" lon="10.781476314395876"><ele>136.8</ele><time>2026-03-28T12:16:07Z</time></trkpt><trkpt lat="45.47631226275755" lon="10.781402290952155"><ele>136.4</ele><time>2026-03-28T12:16:08Z</time></trkpt><trkpt lat="45.47641495204031" lon="10.781319179291987"><ele>136.0</ele><time>2026-03-28T12:16:09Z</time></trkpt><trkpt lat="45.47651967923349" lon="10.781211587480529"><ele>136.0</ele><time>2026-03-28T12:16:10Z</time></trkpt><trkpt lat="45.4766420045915" lon="10.781128078886232"><ele>136.0</ele><time>2026-03-28T12:16:11Z</time></trkpt><trkpt lat="45.47671755579191" lon="10.781071575904377"><ele>136.0</ele><time>2026-03-28T12:16:12Z</time></trkpt><trkpt lat="45.47679106168311" lon="10.78105527620006"><ele>136.0</ele><time>2026-03-28T12:16:13Z</time></trkpt><trkpt lat="45.47685720031676" lon="10.78102304254389"><ele>136.0</ele><time>2026-03-28T12:16:15Z</time></trkpt><trkpt lat="45.476855066554634" lon="10.780905377380467"><ele>136.0</ele><time>2026-03-28T12:16:17Z</time></trkpt><trkpt lat="45.476859001879994" lon="10.780785587463386"><ele>136.0</ele><time>2026-03-28T12:16:18Z</time></trkpt><trkpt lat="45.47685036128882" lon="10.780648088306044"><ele>136.0</ele><time>2026-03-28T12:16:19Z</time></trkpt><trkpt lat="45.476845420080295" lon="10.780482594844976"><ele>136.0</ele><time>2026-03-28T12:16:20Z</time></trkpt><trkpt lat="45.476849085552786" lon="10.78034680517561"><ele>136.0</ele><time>2026-03-28T12:16:21Z</time></trkpt><trkpt lat="45.47684855328251" lon="10.780221579032355"><ele>136.0</ele><time>2026-03-28T12:16:22Z</time></trkpt><trkpt lat="45.47684792451717" lon="10.780092725657905"><ele>136.4</ele><time>2026-03-28T12:16:23Z</time></trkpt><trkpt lat="45.47684698246987" lon="10.779988174775424"><ele>136.8</ele><time>2026-03-28T12:16:24Z</time></trkpt><trkpt lat="45.47684456467669" lon="10.779849897567464"><ele>137.20000000000002</ele><time>2026-03-28T12:16:25Z</time></trkpt><trkpt lat="45.476837255857475" lon="10.779666586100847"><ele>137.6</ele><time>2026-03-28T12:16:26Z</time></trkpt><trkpt lat="45.47684661580326" lon="10.77948267058327"><ele>138.0</ele><time>2026-03-28T12:16:27Z</time></trkpt><trkpt lat="45.47684510894135" lon="10.779281423935238"><ele>138.25</ele><time>2026-03-28T12:16:28Z</time></trkpt><trkpt lat="45.476843723179186" lon="10.779096350568171"><ele>138.5</ele><time>2026-03-28T12:16:29Z</time></trkpt><trkpt lat="45.47684173062225" lon="10.778921983945965"><ele>138.75</ele><time>2026-03-28T12:16:30Z</time></trkpt><trkpt lat="45.4768396275041" lon="10.778747530695558"><ele>139.0</ele><time>2026-03-28T12:16:31Z</time></trkpt><trkpt lat="45.476837466545426" lon="10.778568279677748"><ele>138.25</ele><time>2026-03-28T12:16:32Z</time></trkpt><trkpt lat="45.476819202034434" lon="10.778396341110069"><ele>137.5</ele><time>2026-03-28T12:16:33Z</time></trkpt><trkpt lat="45.47682437439106" lon="10.778214655213652"><ele>136.75</ele><time>2026-03-28T12:16:34Z</time></trkpt><trkpt lat="45.4768187554955" lon="10.77803669368761"><ele>136.0</ele><time>2026-03-28T12:16:35Z</time></trkpt><trkpt lat="45.476818109951466" lon="10.77788224118079"><ele>136.0</ele><time>2026-03-28T12:16:36Z</time></trkpt><trkpt lat="45.4768192783039" lon="10.777739153475169"><ele>136.0</ele><time>2026-03-28T12:16:37Z</time></trkpt><trkpt lat="45.47681759350325" lon="10.777574601384295"><ele>136.0</ele><time>2026-03-28T12:16:38Z</time></trkpt><trkpt lat="45.47682330248101" lon="10.777411406242173"><ele>136.0</ele><time>2026-03-28T12:16:39Z</time></trkpt><trkpt lat="45.47682267582714" lon="10.77730027983753"><ele>136.0</ele><time>2026-03-28T12:16:40Z</time></trkpt><trkpt lat="45.476835426293796" lon="10.777147114044514"><ele>135.8</ele><time>2026-03-28T12:16:42Z</time></trkpt><trkpt lat="45.476906656133885" lon="10.777083409694676"><ele>135.6</ele><time>2026-03-28T12:16:43Z</time></trkpt><trkpt lat="45.47698855436971" lon="10.77706490622707"><ele>135.4</ele><time>2026-03-28T12:16:44Z</time></trkpt><trkpt lat="45.47708692262041" lon="10.777019956776387"><ele>135.2</ele><time>2026-03-28T12:16:45Z</time></trkpt><trkpt lat="45.477194785029766" lon="10.77695997772613"><ele>135.0</ele><time>2026-03-28T12:16:46Z</time></trkpt><trkpt lat="45.47732043492815" lon="10.77690630051822"><ele>134.5</ele><time>2026-03-28T12:16:47Z</time></trkpt><trkpt lat="45.47746273417373" lon="10.776844956824096"><ele>134.0</ele><time>2026-03-28T12:16:48Z</time></trkpt><trkpt lat="45.47760190710129" lon="10.776792689364555"><ele>133.5</ele><time>2026-03-28T12:16:49Z</time></trkpt><trkpt lat="45.47771658341197" lon="10.776748704303015"><ele>133.0</ele><time>2026-03-28T12:16:50Z</time></trkpt><trkpt lat="45.477802945075744" lon="10.776722218467208"><ele>133.0</ele><time>2026-03-28T12:16:51Z</time></trkpt><trkpt lat="45.47790896824905" lon="10.776737844041405"><ele>133.0</ele><time>2026-03-28T12:16:52Z</time></trkpt><trkpt lat="45.478026952123244" lon="10.7767467815784"><ele>133.0</ele><time>2026-03-28T12:16:53Z</time></trkpt><trkpt lat="45.4781262752949" lon="10.776778927082901"><ele>133.0</ele><time>2026-03-28T12:16:54Z</time></trkpt><trkpt lat="45.47822752040745" lon="10.776808266789665"><ele>133.0</ele><time>2026-03-28T12:16:55Z</time></trkpt><trkpt lat="45.47831050953712" lon="10.776808962898775"><ele>134.6</ele><time>2026-03-28T12:16:56Z</time></trkpt><trkpt lat="45.478400178126606" lon="10.77675494384392"><ele>136.20000000000002</ele><time>2026-03-28T12:16:57Z</time></trkpt><trkpt lat="45.47849336441776" lon="10.776721604933584"><ele>137.8</ele><time>2026-03-28T12:16:58Z</time></trkpt><trkpt lat="45.47857036731387" lon="10.776690563916722"><ele>139.4</ele><time>2026-03-28T12:16:59Z</time></trkpt><trkpt lat="45.47865737029037" lon="10.776591833354043"><ele>141.0</ele><time>2026-03-28T12:17:01Z</time></trkpt><trkpt lat="45.47869034911903" lon="10.776497250660645"><ele>141.0</ele><time>2026-03-28T12:17:02Z</time></trkpt><trkpt lat="45.478721976180495" lon="10.776376176723334"><ele>141.0</ele><time>2026-03-28T12:17:03Z</time></trkpt><trkpt lat="45.47872937382756" lon="10.776236670162543"><ele>141.0</ele><time>2026-03-28T12:17:04Z</time></trkpt><trkpt lat="45.47870710556833" lon="10.776097602141519"><ele>141.0</ele><time>2026-03-28T12:17:05Z</time></trkpt><trkpt lat="45.47872139177135" lon="10.775997921354502"><ele>141.0</ele><time>2026-03-28T12:17:06Z</time></trkpt><trkpt lat="45.47881724901811" lon="10.775944898157501"><ele>139.75</ele><time>2026-03-28T12:17:09Z</time></trkpt><trkpt lat="45.47889398451238" lon="10.775966495524433"><ele>138.5</ele><time>2026-03-28T12:17:10Z</time></trkpt><trkpt lat="45.47901109788281" lon="10.775977458274399"><ele>137.25</ele><time>2026-03-28T12:17:11Z</time></trkpt><trkpt lat="45.47914532668948" lon="10.775990060638627"><ele>136.0</ele><time>2026-03-28T12:17:12Z</time></trkpt><trkpt lat="45.47926690161884" lon="10.776004746076657"><ele>136.0</ele><time>2026-03-28T12:17:13Z</time></trkpt><trkpt lat="45.4793411440486" lon="10.775990998269954"><ele>136.0</ele><time>2026-03-28T12:17:14Z</time></trkpt><trkpt lat="45.479404420767416" lon="10.77600025927783"><ele>136.0</ele><time>2026-03-28T12:17:15Z</time></trkpt><trkpt lat="45.47947941698833" lon="10.775923587470615"><ele>136.0</ele><time>2026-03-28T12:17:17Z</time></trkpt><trkpt lat="45.47950752814078" lon="10.775735197792459"><ele>136.0</ele><time>2026-03-28T12:17:19Z</time></trkpt><trkpt lat="45.479541904587315" lon="10.775600180790411"><ele>136.0</ele><time>2026-03-28T12:17:20Z</time></trkpt><trkpt lat="45.479563661203244" lon="10.775461352449884"><ele>136.0</ele><time>2026-03-28T12:17:21Z</time></trkpt><trkpt lat="45.47957137148455" lon="10.775314815230406"><ele>136.0</ele><time>2026-03-28T12:17:22Z</time></trkpt><trkpt lat="45.479621407027174" lon="10.775181255866071"><ele>136.0</ele><time>2026-03-28T12:17:23Z</time></trkpt><trkpt lat="45.4796772367262" lon="10.775035672067691"><ele>136.0</ele><time>2026-03-28T12:17:24Z</time></trkpt><trkpt lat="45.4797364445322" lon="10.774873979739656"><ele>135.25</ele><time>2026-03-28T12:17:25Z</time></trkpt><trkpt lat="45.479790501683986" lon="10.774677615464132"><ele>134.5</ele><time>2026-03-28T12:17:26Z</time></trkpt><trkpt lat="45.479862522230924" lon="10.774499722046814"><ele>133.75</ele><time>2026-03-28T12:17:27Z</time></trkpt><trkpt lat="45.47991209532071" lon="10.774330304924668"><ele>133.0</ele><time>2026-03-28T12:17:28Z</time></trkpt><trkpt lat="45.47997216433984" lon="10.774154362699134"><ele>133.0</ele><time>2026-03-28T12:17:29Z</time></trkpt><trkpt lat="45.48002588245089" lon="10.77398495197284"><ele>133.0</ele><time>2026-03-28T12:17:30Z</time></trkpt><trkpt lat="45.48007723952587" lon="10.773832780541792"><ele>133.0</ele><time>2026-03-28T12:17:31Z</time></trkpt><trkpt lat="45.48012597256129" lon="10.773698549322237"><ele>133.0</ele><time>2026-03-28T12:17:32Z</time></trkpt><trkpt lat="45.4801675955189" lon="10.773606967433734"><ele>133.0</ele><time>2026-03-28T12:17:33Z</time></trkpt><trkpt lat="45.480225782571246" lon="10.773539321068244"><ele>133.0</ele><time>2026-03-28T12:17:34Z</time></trkpt><trkpt lat="45.48030178664216" lon="10.77354423148708"><ele>133.0</ele><time>2026-03-28T12:17:35Z</time></trkpt><trkpt lat="45.48037565721949" lon="10.773563289993268"><ele>133.0</ele><time>2026-03-28T12:17:36Z</time></trkpt><trkpt lat="45.48048073027867" lon="10.773583316838078"><ele>133.0</ele><time>2026-03-28T12:17:37Z</time></trkpt><trkpt lat="45.48058610982604" lon="10.773611211606442"><ele>133.0</ele><time>2026-03-28T12:17:38Z</time></trkpt><trkpt lat="45.48065024402512" lon="10.773623559373803"><ele>133.0</ele><time>2026-03-28T12:17:39Z</time></trkpt><trkpt lat="45.48075444127419" lon="10.773553404915862"><ele>133.0</ele><time>2026-03-28T12:17:41Z</time></trkpt><trkpt lat="45.48079005356971" lon="10.77336270623583"><ele>133.0</ele><time>2026-03-28T12:17:43Z</time></trkpt><trkpt lat="45.480798724020204" lon="10.773272594080238"><ele>133.0</ele><time>2026-03-28T12:17:44Z</time></trkpt><trkpt lat="45.48081016017995" lon="10.77314427137998"><ele>133.0</ele><time>2026-03-28T12:17:45Z</time></trkpt><trkpt lat="45.48082508897255" lon="10.772989494425167"><ele>133.0</ele><time>2026-03-28T12:17:46Z</time></trkpt><trkpt lat="45.48086135786173" lon="10.772826084402396"><ele>133.0</ele><time>2026-03-28T12:17:47Z</time></trkpt><trkpt lat="45.480888403325935" lon="10.772699475673559"><ele>133.0</ele><time>2026-03-28T12:17:48Z</time></trkpt><trkpt lat="45.480935943988435" lon="10.772610153526266"><ele>133.0</ele><time>2026-03-28T12:17:49Z</time></trkpt><trkpt lat="45.48101983616473" lon="10.772502510610648"><ele>133.0</ele><time>2026-03-28T12:17:50Z</time></trkpt><trkpt lat="45.48112433981064" lon="10.772364669398819"><ele>133.0</ele><time>2026-03-28T12:17:51Z</time></trkpt><trkpt lat="45.48122590779486" lon="10.772199304068224"><ele>133.5</ele><time>2026-03-28T12:17:52Z</time></trkpt><trkpt lat="45.48133823294441" lon="10.772075752615377"><ele>134.0</ele><time>2026-03-28T12:17:53Z</time></trkpt><trkpt lat="45.48144216301665" lon="10.771922564387616"><ele>134.5</ele><time>2026-03-28T12:17:54Z</time></trkpt><trkpt lat="45.48152633963561" lon="10.771804553008161"><ele>135.0</ele><time>2026-03-28T12:17:55Z</time></trkpt><trkpt lat="45.4816140761896" lon="10.771690979234414"><ele>135.0</ele><time>2026-03-28T12:17:56Z</time></trkpt><trkpt lat="45.481727913818276" lon="10.771593459046333"><ele>135.0</ele><time>2026-03-28T12:17:57Z</time></trkpt><trkpt lat="45.481829241105274" lon="10.771439172695926"><ele>135.0</ele><time>2026-03-28T12:17:58Z</time></trkpt><trkpt lat="45.48194784762019" lon="10.771287408990132"><ele>135.0</ele><time>2026-03-28T12:17:59Z</time></trkpt><trkpt lat="45.48204698435197" lon="10.771133413815974"><ele>135.0</ele><time>2026-03-28T12:18:00Z</time></trkpt><trkpt lat="45.48213812754595" lon="10.770998888008826"><ele>135.0</ele><time>2026-03-28T12:18:01Z</time></trkpt><trkpt lat="45.482217475293616" lon="10.770880099169547"><ele>135.0</ele><time>2026-03-28T12:18:02Z</time></trkpt><trkpt lat="45.482303064155104" lon="10.77076785870943"><ele>135.0</ele><time>2026-03-28T12:18:03Z</time></trkpt><trkpt lat="45.48238282713787" lon="10.770651122947923"><ele>135.0</ele><time>2026-03-28T12:18:04Z</time></trkpt><trkpt lat="45.48245728424112" lon="10.770537316149518"><ele>135.0</ele><time>2026-03-28T12:18:05Z</time></trkpt><trkpt lat="45.48253632153786" lon="10.770460774459256"><ele>135.0</ele><time>2026-03-28T12:18:06Z</time></trkpt><trkpt lat="45.48260129212678" lon="10.770380989136504"><ele>135.0</ele><time>2026-03-28T12:18:07Z</time></trkpt><trkpt lat="45.482678572718655" lon="10.770316978094794"><ele>135.0</ele><time>2026-03-28T12:18:09Z</time></trkpt><trkpt lat="45.48275856705903" lon="10.770332698961921"><ele>135.0</ele><time>2026-03-28T12:18:10Z</time></trkpt><trkpt lat="45.482848151445985" lon="10.770428688266161"><ele>135.0</ele><time>2026-03-28T12:18:11Z</time></trkpt><trkpt lat="45.48296281758691" lon="10.770477369817995"><ele>135.0</ele><time>2026-03-28T12:18:12Z</time></trkpt><trkpt lat="45.48307795357582" lon="10.770523712353327"><ele>135.0</ele><time>2026-03-28T12:18:13Z</time></trkpt><trkpt lat="45.483177929205894" lon="10.770563692680463"><ele>135.5</ele><time>2026-03-28T12:18:14Z</time></trkpt><trkpt lat="45.48329641869289" lon="10.770605224615045"><ele>136.0</ele><time>2026-03-28T12:18:15Z</time></trkpt><trkpt lat="45.48343080080644" lon="10.77062755667073"><ele>136.5</ele><time>2026-03-28T12:18:16Z</time></trkpt><trkpt lat="45.48355831845995" lon="10.77062493568891"><ele>137.0</ele><time>2026-03-28T12:18:17Z</time></trkpt><trkpt lat="45.48369251218859" lon="10.770636430789674"><ele>137.5</ele><time>2026-03-28T12:18:18Z</time></trkpt><trkpt lat="45.483835145168825" lon="10.77064410381545"><ele>138.0</ele><time>2026-03-28T12:18:19Z</time></trkpt><trkpt lat="45.483954276242734" lon="10.770664686886652"><ele>138.5</ele><time>2026-03-28T12:18:20Z</time></trkpt><trkpt lat="45.48406044365391" lon="10.770731753855433"><ele>139.0</ele><time>2026-03-28T12:18:21Z</time></trkpt><trkpt lat="45.48415933688916" lon="10.770759139482493"><ele>139.0</ele><time>2026-03-28T12:18:22Z</time></trkpt><trkpt lat="45.48426752165542" lon="10.77081437999752"><ele>139.0</ele><time>2026-03-28T12:18:23Z</time></trkpt><trkpt lat="45.48436584854026" lon="10.770876089353"><ele>139.0</ele><time>2026-03-28T12:18:24Z</time></trkpt><trkpt lat="45.48444084034163" lon="10.770977526300298"><ele>139.0</ele><time>2026-03-28T12:18:25Z</time></trkpt><trkpt lat="45.48454594758685" lon="10.771065137307378"><ele>139.0</ele><time>2026-03-28T12:18:26Z</time></trkpt><trkpt lat="45.484628482820455" lon="10.771161619697327"><ele>138.16666666666669</ele><time>2026-03-28T12:18:27Z</time></trkpt><trkpt lat="45.484704030037676" lon="10.771237148844392"><ele>137.33333333333334</ele><time>2026-03-28T12:18:28Z</time></trkpt><trkpt lat="45.48476207725142" lon="10.771299344548416"><ele>136.5</ele><time>2026-03-28T12:18:29Z</time></trkpt><trkpt lat="45.484837367556466" lon="10.771344591133799"><ele>135.66666666666666</ele><time>2026-03-28T12:18:31Z</time></trkpt><trkpt lat="45.484899114512885" lon="10.771362138476347"><ele>134.83333333333331</ele><time>2026-03-28T12:18:33Z</time></trkpt><trkpt lat="45.484998561682495" lon="10.77122776850582"><ele>134.0</ele><time>2026-03-28T12:18:35Z</time></trkpt><trkpt lat="45.48506361362318" lon="10.771114662101377"><ele>134.5</ele><time>2026-03-28T12:18:36Z</time></trkpt><trkpt lat="45.48514333224044" lon="10.77096687225331"><ele>135.0</ele><time>2026-03-28T12:18:37Z</time></trkpt><trkpt lat="45.485248053785774" lon="10.770807306364203"><ele>135.5</ele><time>2026-03-28T12:18:38Z</time></trkpt><trkpt lat="45.4853516888531" lon="10.770627538272695"><ele>136.0</ele><time>2026-03-28T12:18:39Z</time></trkpt><trkpt lat="45.485466171363264" lon="10.77043548706954"><ele>135.0</ele><time>2026-03-28T12:18:40Z</time></trkpt><trkpt lat="45.48559334794613" lon="10.77022683540916"><ele>134.0</ele><time>2026-03-28T12:18:41Z</time></trkpt><trkpt lat="45.48571295105264" lon="10.770021125952919"><ele>133.0</ele><time>2026-03-28T12:18:42Z</time></trkpt><trkpt lat="45.48582177915211" lon="10.769830814130957"><ele>133.0</ele><time>2026-03-28T12:18:43Z</time></trkpt><trkpt lat="45.48593185760489" lon="10.769638739884599"><ele>133.0</ele><time>2026-03-28T12:18:44Z</time></trkpt><trkpt lat="45.48604313126437" lon="10.769447741607545"><ele>133.0</ele><time>2026-03-28T12:18:45Z</time></trkpt><trkpt lat="45.48614754122366" lon="10.769265887755578"><ele>133.25</ele><time>2026-03-28T12:18:46Z</time></trkpt><trkpt lat="45.48624215207536" lon="10.76910017254491"><ele>133.5</ele><time>2026-03-28T12:18:47Z</time></trkpt><trkpt lat="45.48631993211079" lon="10.76894683105863"><ele>133.75</ele><time>2026-03-28T12:18:48Z</time></trkpt><trkpt lat="45.48639605554038" lon="10.768798386560396"><ele>134.0</ele><time>2026-03-28T12:18:49Z</time></trkpt><trkpt lat="45.48646345627433" lon="10.768670960429878"><ele>134.0</ele><time>2026-03-28T12:18:50Z</time></trkpt><trkpt lat="45.48651392153211" lon="10.768563905650362"><ele>134.0</ele><time>2026-03-28T12:18:51Z</time></trkpt><trkpt lat="45.48657475955956" lon="10.76851155775422"><ele>134.0</ele><time>2026-03-28T12:18:52Z</time></trkpt><trkpt lat="45.486670024763114" lon="10.768567896477414"><ele>134.0</ele><time>2026-03-28T12:18:55Z</time></trkpt><trkpt lat="45.486733332766526" lon="10.768691209806448"><ele>134.0</ele><time>2026-03-28T12:18:56Z</time></trkpt><trkpt lat="45.486836979173034" lon="10.768872023964912"><ele>134.0</ele><time>2026-03-28T12:18:57Z</time></trkpt><trkpt lat="45.48697792501258" lon="10.76906991161907"><ele>134.0</ele><time>2026-03-28T12:18:58Z</time></trkpt><trkpt lat="45.48710059681389" lon="10.769286064282335"><ele>134.0</ele><time>2026-03-28T12:18:59Z</time></trkpt><trkpt lat="45.48723188509974" lon="10.769494303636442"><ele>134.33333333333331</ele><time>2026-03-28T12:19:00Z</time></trkpt><trkpt lat="45.48734510177539" lon="10.769677820810168"><ele>134.66666666666666</ele><time>2026-03-28T12:19:01Z</time></trkpt><trkpt lat="45.48745048173246" lon="10.769867342241415"><ele>135.0</ele><time>2026-03-28T12:19:02Z</time></trkpt><trkpt lat="45.487578051623686" lon="10.770052165852677"><ele>135.0</ele><time>2026-03-28T12:19:03Z</time></trkpt><trkpt lat="45.487686049713595" lon="10.770237096320486"><ele>135.0</ele><time>2026-03-28T12:19:04Z</time></trkpt><trkpt lat="45.48781384531064" lon="10.770395090474757"><ele>135.0</ele><time>2026-03-28T12:19:05Z</time></trkpt><trkpt lat="45.48795063693192" lon="10.770521142063883"><ele>135.0</ele><time>2026-03-28T12:19:06Z</time></trkpt><trkpt lat="45.48807705039478" lon="10.77063401428836"><ele>135.0</ele><time>2026-03-28T12:19:07Z</time></trkpt><trkpt lat="45.48817841107015" lon="10.770739591299947"><ele>135.0</ele><time>2026-03-28T12:19:08Z</time></trkpt><trkpt lat="45.488260729749946" lon="10.770838838113056"><ele>135.0</ele><time>2026-03-28T12:19:09Z</time></trkpt><trkpt lat="45.48833319395966" lon="10.770925495151204"><ele>135.0</ele><time>2026-03-28T12:19:10Z</time></trkpt><trkpt lat="45.488384144316115" lon="10.770991647256476"><ele>135.0</ele><time>2026-03-28T12:19:11Z</time></trkpt><trkpt lat="45.48843043256559" lon="10.771069320443729"><ele>135.0</ele><time>2026-03-28T12:19:15Z</time></trkpt><trkpt lat="45.48845407920447" lon="10.771227698540564"><ele>135.0</ele><time>2026-03-28T12:19:17Z</time></trkpt><trkpt lat="45.48842903035361" lon="10.771331106067755"><ele>135.0</ele><time>2026-03-28T12:19:18Z</time></trkpt><trkpt lat="45.48836759167964" lon="10.771447660069617"><ele>135.0</ele><time>2026-03-28T12:19:20Z</time></trkpt><trkpt lat="45.48839490277784" lon="10.77157088113322"><ele>135.16666666666666</ele><time>2026-03-28T12:19:22Z</time></trkpt><trkpt lat="45.4884572945961" lon="10.771601305982994"><ele>135.33333333333334</ele><time>2026-03-28T12:19:23Z</time></trkpt><trkpt lat="45.48852680010526" lon="10.77156646282574"><ele>135.5</ele><time>2026-03-28T12:19:24Z</time></trkpt><trkpt lat="45.48857807181245" lon="10.771487950809794"><ele>135.66666666666669</ele><time>2026-03-28T12:19:25Z</time></trkpt><trkpt lat="45.488610397353206" lon="10.771372135627706"><ele>135.83333333333334</ele><time>2026-03-28T12:19:26Z</time></trkpt><trkpt lat="45.4886759253787" lon="10.771286872463165"><ele>136.0</ele><time>2026-03-28T12:19:27Z</time></trkpt><trkpt lat="45.4887448069759" lon="10.771188065187033"><ele>136.5</ele><time>2026-03-28T12:19:28Z</time></trkpt><trkpt lat="45.488816361642385" lon="10.771063305875705"><ele>137.0</ele><time>2026-03-28T12:19:29Z</time></trkpt><trkpt lat="45.48892361387729" lon="10.770951808457054"><ele>137.5</ele><time>2026-03-28T12:19:30Z</time></trkpt><trkpt lat="45.489051358047824" lon="10.770893067102723"><ele>138.0</ele><time>2026-03-28T12:19:31Z</time></trkpt><trkpt lat="45.48917808481495" lon="10.77083018253089"><ele>138.0</ele><time>2026-03-28T12:19:32Z</time></trkpt><trkpt lat="45.48932066345853" lon="10.770747422130766"><ele>138.0</ele><time>2026-03-28T12:19:33Z</time></trkpt><trkpt lat="45.489506778547785" lon="10.770684891876913"><ele>138.0</ele><time>2026-03-28T12:19:34Z</time></trkpt><trkpt lat="45.489718160673576" lon="10.77061858315496"><ele>138.0</ele><time>2026-03-28T12:19:35Z</time></trkpt><trkpt lat="45.48993282527201" lon="10.770562035388878"><ele>138.0</ele><time>2026-03-28T12:19:36Z</time></trkpt><trkpt lat="45.49014723838401" lon="10.770508973809244"><ele>138.0</ele><time>2026-03-28T12:19:37Z</time></trkpt><trkpt lat="45.49034676899637" lon="10.770477369590568"><ele>138.0</ele><time>2026-03-28T12:19:38Z</time></trkpt><trkpt lat="45.49053750560934" lon="10.770429437821317"><ele>138.0</ele><time>2026-03-28T12:19:39Z</time></trkpt><trkpt lat="45.49071809427245" lon="10.770385429302735"><ele>138.0</ele><time>2026-03-28T12:19:40Z</time></trkpt><trkpt lat="45.49088348411215" lon="10.770320509008382"><ele>138.0</ele><time>2026-03-28T12:19:41Z</time></trkpt><trkpt lat="45.49105052777116" lon="10.770272385523857"><ele>138.0</ele><time>2026-03-28T12:19:42Z</time></trkpt><trkpt lat="45.491215099790026" lon="10.770240491252103"><ele>138.0</ele><time>2026-03-28T12:19:43Z</time></trkpt><trkpt lat="45.49136313038608" lon="10.77015819639065"><ele>137.0</ele><time>2026-03-28T12:19:44Z</time></trkpt><trkpt lat="45.491519974380864" lon="10.770093067279984"><ele>136.0</ele><time>2026-03-28T12:19:45Z</time></trkpt><trkpt lat="45.49166703970421" lon="10.770029380624342"><ele>135.0</ele><time>2026-03-28T12:19:46Z</time></trkpt><trkpt lat="45.491810074783615" lon="10.769965383400978"><ele>135.0</ele><time>2026-03-28T12:19:47Z</time></trkpt><trkpt lat="45.49194348737658" lon="10.769896674088157"><ele>135.0</ele><time>2026-03-28T12:19:48Z</time></trkpt><trkpt lat="45.49207337614503" lon="10.76981341561839"><ele>135.0</ele><time>2026-03-28T12:19:49Z</time></trkpt><trkpt lat="45.49220831342897" lon="10.769717131328223"><ele>135.0</ele><time>2026-03-28T12:19:50Z</time></trkpt><trkpt lat="45.492340448979824" lon="10.769617953508314"><ele>134.5</ele><time>2026-03-28T12:19:51Z</time></trkpt><trkpt lat="45.49246371641011" lon="10.769522788207889"><ele>134.0</ele><time>2026-03-28T12:19:52Z</time></trkpt><trkpt lat="45.49257870421359" lon="10.769433757172092"><ele>133.5</ele><time>2026-03-28T12:19:53Z</time></trkpt><trkpt lat="45.49269970061424" lon="10.769368662272175"><ele>133.0</ele><time>2026-03-28T12:19:54Z</time></trkpt><trkpt lat="45.492808651092716" lon="10.769312019029366"><ele>132.16666666666669</ele><time>2026-03-28T12:19:55Z</time></trkpt><trkpt lat="45.49291517716965" lon="10.769258893760318"><ele>131.33333333333334</ele><time>2026-03-28T12:19:56Z</time></trkpt><trkpt lat="45.492993314891095" lon="10.769230178295054"><ele>130.5</ele><time>2026-03-28T12:19:57Z</time></trkpt><trkpt lat="45.49309256828877" lon="10.769207165880163"><ele>129.66666666666666</ele><time>2026-03-28T12:19:59Z</time></trkpt><trkpt lat="45.49316930393041" lon="10.769196694447944"><ele>128.83333333333331</ele><time>2026-03-28T12:20:01Z</time></trkpt><trkpt lat="45.493237085714476" lon="10.769174225987909"><ele>128.0</ele><time>2026-03-28T12:20:03Z</time></trkpt><trkpt lat="45.49314742647416" lon="10.769183096698875"><ele>128.0</ele><time>2026-03-28T12:20:07Z</time></trkpt><trkpt lat="45.49308370128808" lon="10.769158888148395"><ele>127.99999999999999</ele><time>2026-03-28T12:20:08Z</time></trkpt><trkpt lat="45.49301340283022" lon="10.769188373660684"><ele>128.0</ele><time>2026-03-28T12:20:09Z</time></trkpt><trkpt lat="45.492930330909616" lon="10.769211396430833"><ele>128.0</ele><time>2026-03-28T12:20:10Z</time></trkpt><trkpt lat="45.49285612454388" lon="10.769241283318314"><ele>127.99999999999999</ele><time>2026-03-28T12:20:11Z</time></trkpt><trkpt lat="45.49278818555733" lon="10.769275564580964"><ele>128.0</ele><time>2026-03-28T12:20:12Z</time></trkpt><trkpt lat="45.49272589978605" lon="10.769310754888709"><ele>128.0</ele><time>2026-03-28T12:20:13Z</time></trkpt><trkpt lat="45.49266487866899" lon="10.769344220865829"><ele>129.0</ele><time>2026-03-28T12:20:14Z</time></trkpt><trkpt lat="45.49260364817262" lon="10.769377434887831"><ele>130.0</ele><time>2026-03-28T12:20:15Z</time></trkpt><trkpt lat="45.492520530325116" lon="10.769428288998437"><ele>131.0</ele><time>2026-03-28T12:20:17Z</time></trkpt><trkpt lat="45.49246487429599" lon="10.76949241866158"><ele>132.0</ele><time>2026-03-28T12:21:00Z</time></trkpt><trkpt lat="45.49237323300884" lon="10.769559307235577"><ele>133.0</ele><time>2026-03-28T12:21:01Z</time></trkpt><trkpt lat="45.49226050506953" lon="10.769641184776502"><ele>133.0</ele><time>2026-03-28T12:21:02Z</time></trkpt><trkpt lat="45.49210591580519" lon="10.769755021966693"><ele>133.0</ele><time>2026-03-28T12:21:03Z</time></trkpt><trkpt lat="45.4919619572712" lon="10.769847436337585"><ele>133.0</ele><time>2026-03-28T12:21:04Z</time></trkpt><trkpt lat="45.49182107641321" lon="10.769925133933711"><ele>133.66666666666669</ele><time>2026-03-28T12:21:05Z</time></trkpt><trkpt lat="45.49166231907627" lon="10.770009392880924"><ele>134.33333333333334</ele><time>2026-03-28T12:21:06Z</time></trkpt><trkpt lat="45.49148622830154" lon="10.770093941513773"><ele>135.0</ele><time>2026-03-28T12:21:07Z</time></trkpt><trkpt lat="45.49128980304146" lon="10.770173976211163"><ele>136.0</ele><time>2026-03-28T12:21:08Z</time></trkpt><trkpt lat="45.49110556009265" lon="10.770242745811402"><ele>137.0</ele><time>2026-03-28T12:21:09Z</time></trkpt><trkpt lat="45.49094358466547" lon="10.770275859059558"><ele>138.0</ele><time>2026-03-28T12:21:10Z</time></trkpt><trkpt lat="45.49079632389083" lon="10.770317657606784"><ele>138.0</ele><time>2026-03-28T12:21:11Z</time></trkpt><trkpt lat="45.49065128929594" lon="10.770353414686983"><ele>138.0</ele><time>2026-03-28T12:21:12Z</time></trkpt><trkpt lat="45.490495500977865" lon="10.770407900575975"><ele>138.0</ele><time>2026-03-28T12:21:13Z</time></trkpt><trkpt lat="45.49033014638114" lon="10.770444911886093"><ele>138.0</ele><time>2026-03-28T12:21:14Z</time></trkpt><trkpt lat="45.49016556232832" lon="10.770474842592549"><ele>138.0</ele><time>2026-03-28T12:21:15Z</time></trkpt><trkpt lat="45.48999578316673" lon="10.77051864738954"><ele>138.0</ele><time>2026-03-28T12:21:16Z</time></trkpt><trkpt lat="45.48982791743726" lon="10.770563031512939"><ele>138.0</ele><time>2026-03-28T12:21:17Z</time></trkpt><trkpt lat="45.48966916051535" lon="10.770607543404921"><ele>138.0</ele><time>2026-03-28T12:21:18Z</time></trkpt><trkpt lat="45.48952132557749" lon="10.77066515644"><ele>138.0</ele><time>2026-03-28T12:21:19Z</time></trkpt><trkpt lat="45.48938981654588" lon="10.770705908367088"><ele>138.0</ele><time>2026-03-28T12:21:20Z</time></trkpt><trkpt lat="45.48926806615593" lon="10.770751803340515"><ele>138.0</ele><time>2026-03-28T12:21:21Z</time></trkpt><trkpt lat="45.489152518229034" lon="10.77079429468731"><ele>138.0</ele><time>2026-03-28T12:21:22Z</time></trkpt><trkpt lat="45.48904604993138" lon="10.770846638344358"><ele>138.0</ele><time>2026-03-28T12:21:23Z</time></trkpt><trkpt lat="45.4889516045038" lon="10.770916705881959"><ele>138.0</ele><time>2026-03-28T12:21:24Z</time></trkpt><trkpt lat="45.48886520460896" lon="10.77100191257233"><ele>138.0</ele><time>2026-03-28T12:21:25Z</time></trkpt><trkpt lat="45.488783152143" lon="10.77109457208188"><ele>138.0</ele><time>2026-03-28T12:21:26Z</time></trkpt><trkpt lat="45.48870755613335" lon="10.771188068849472"><ele>138.0</ele><time>2026-03-28T12:21:27Z</time></trkpt><trkpt lat="45.488641900937104" lon="10.77128594554999"><ele>138.0</ele><time>2026-03-28T12:21:28Z</time></trkpt><trkpt lat="45.48858928433764" lon="10.77135812347519"><ele>137.6</ele><time>2026-03-28T12:21:29Z</time></trkpt><trkpt lat="45.48849485377953" lon="10.77136259730761"><ele>137.20000000000002</ele><time>2026-03-28T12:21:32Z</time></trkpt><trkpt lat="45.48841152714665" lon="10.771348158730891"><ele>136.8</ele><time>2026-03-28T12:21:34Z</time></trkpt><trkpt lat="45.48836419189934" lon="10.771516860351843"><ele>136.4</ele><time>2026-03-28T12:21:37Z</time></trkpt><trkpt lat="45.488422748005526" lon="10.771602349967837"><ele>136.0</ele><time>2026-03-28T12:21:39Z</time></trkpt><trkpt lat="45.48851593851159" lon="10.771571333001738"><ele>136.0</ele><time>2026-03-28T12:21:41Z</time></trkpt><trkpt lat="45.48854378178174" lon="10.771435243242667"><ele>136.0</ele><time>2026-03-28T12:21:43Z</time></trkpt><trkpt lat="45.488517186455034" lon="10.771284486356612"><ele>136.0</ele><time>2026-03-28T12:21:45Z</time></trkpt><trkpt lat="45.48850931267037" lon="10.771141924579094"><ele>136.0</ele><time>2026-03-28T12:21:47Z</time></trkpt><trkpt lat="45.488507587541804" lon="10.771019962078004"><ele>136.0</ele><time>2026-03-28T12:21:49Z</time></trkpt><trkpt lat="45.488407371648556" lon="10.77094250079924"><ele>135.8</ele><time>2026-03-28T12:21:52Z</time></trkpt><trkpt lat="45.488340243969695" lon="10.770887348645081"><ele>135.6</ele><time>2026-03-28T12:21:53Z</time></trkpt><trkpt lat="45.48825587392757" lon="10.770804946574598"><ele>135.4</ele><time>2026-03-28T12:21:54Z</time></trkpt><trkpt lat="45.48816220210001" lon="10.770694279026802"><ele>135.2</ele><time>2026-03-28T12:21:55Z</time></trkpt><trkpt lat="45.488066004808445" lon="10.770581710044349"><ele>135.0</ele><time>2026-03-28T12:21:56Z</time></trkpt><trkpt lat="45.48797488044488" lon="10.77049211654163"><ele>135.0</ele><time>2026-03-28T12:21:57Z</time></trkpt><trkpt lat="45.48788767220871" lon="10.770415227392043"><ele>135.0</ele><time>2026-03-28T12:21:58Z</time></trkpt><trkpt lat="45.487815306242034" lon="10.7703540762528"><ele>135.0</ele><time>2026-03-28T12:21:59Z</time></trkpt><trkpt lat="45.48774245725466" lon="10.770253236327552"><ele>135.0</ele><time>2026-03-28T12:22:01Z</time></trkpt><trkpt lat="45.487688577286555" lon="10.770178720570247"><ele>135.0</ele><time>2026-03-28T12:22:03Z</time></trkpt><trkpt lat="45.48773288777179" lon="10.77026844477255"><ele>135.0</ele><time>2026-03-28T12:22:22Z</time></trkpt><trkpt lat="45.4878225366758" lon="10.770364019073657"><ele>135.0</ele><time>2026-03-28T12:22:23Z</time></trkpt><trkpt lat="45.48795309066512" lon="10.770517850748629"><ele>135.0</ele><time>2026-03-28T12:22:25Z</time></trkpt><trkpt lat="45.4880573978942" lon="10.770621491773111"><ele>135.0</ele><time>2026-03-28T12:22:26Z</time></trkpt><trkpt lat="45.48814754915589" lon="10.77071327248571"><ele>135.0</ele><time>2026-03-28T12:22:27Z</time></trkpt><trkpt lat="45.48823510188601" lon="10.770806696834084"><ele>135.0</ele><time>2026-03-28T12:22:28Z</time></trkpt><trkpt lat="45.48830213203186" lon="10.770893725882235"><ele>135.0</ele><time>2026-03-28T12:22:29Z</time></trkpt><trkpt lat="45.48835464917236" lon="10.770984598646413"><ele>135.0</ele><time>2026-03-28T12:22:31Z</time></trkpt><trkpt lat="45.48842998676724" lon="10.771035408680227"><ele>135.0</ele><time>2026-03-28T12:22:35Z</time></trkpt><trkpt lat="45.488482318137635" lon="10.771125038917999"><ele>135.0</ele><time>2026-03-28T12:22:38Z</time></trkpt><trkpt lat="45.48841905460549" lon="10.771305193455726"><ele>135.2</ele><time>2026-03-28T12:22:39Z</time></trkpt><trkpt lat="45.48837752514789" lon="10.771395978319989"><ele>135.4</ele><time>2026-03-28T12:22:40Z</time></trkpt><trkpt lat="45.48838707748833" lon="10.771561373022662"><ele>135.6</ele><time>2026-03-28T12:22:42Z</time></trkpt><trkpt lat="45.488502220864966" lon="10.771574268505066"><ele>135.8</ele><time>2026-03-28T12:22:44Z</time></trkpt><trkpt lat="45.48855554025224" lon="10.77150581482772"><ele>136.0</ele><time>2026-03-28T12:22:45Z</time></trkpt><trkpt lat="45.48860348605163" lon="10.771400322746226"><ele>136.0</ele><time>2026-03-28T12:22:46Z</time></trkpt><trkpt lat="45.48866221448077" lon="10.771286030592249"><ele>136.0</ele><time>2026-03-28T12:22:47Z</time></trkpt><trkpt lat="45.488742751253284" lon="10.771166194170656"><ele>136.0</ele><time>2026-03-28T12:22:48Z</time></trkpt><trkpt lat="45.48883850024145" lon="10.771041345059784"><ele>136.0</ele><time>2026-03-28T12:22:49Z</time></trkpt><trkpt lat="45.48896014579394" lon="10.770949858945603"><ele>136.5</ele><time>2026-03-28T12:22:50Z</time></trkpt><trkpt lat="45.489082549709096" lon="10.770874935217122"><ele>137.0</ele><time>2026-03-28T12:22:51Z</time></trkpt><trkpt lat="45.4892110727044" lon="10.770815555388364"><ele>137.5</ele><time>2026-03-28T12:22:52Z</time></trkpt><trkpt lat="45.48934193682885" lon="10.770750942277104"><ele>138.0</ele><time>2026-03-28T12:22:53Z</time></trkpt><trkpt lat="45.48947427435945" lon="10.77070921330483"><ele>138.0</ele><time>2026-03-28T12:22:54Z</time></trkpt><trkpt lat="45.48960582613745" lon="10.770659790852518"><ele>138.0</ele><time>2026-03-28T12:22:55Z</time></trkpt><trkpt lat="45.48974284882255" lon="10.77061653152383"><ele>138.0</ele><time>2026-03-28T12:22:56Z</time></trkpt><trkpt lat="45.48989556608527" lon="10.770579664420536"><ele>138.0</ele><time>2026-03-28T12:22:57Z</time></trkpt><trkpt lat="45.490049626625435" lon="10.770542328072326"><ele>138.0</ele><time>2026-03-28T12:22:58Z</time></trkpt><trkpt lat="45.490207288501544" lon="10.770498770272438"><ele>138.0</ele><time>2026-03-28T12:22:59Z</time></trkpt><trkpt lat="45.490366034394825" lon="10.77045238423442"><ele>138.0</ele><time>2026-03-28T12:23:00Z</time></trkpt><trkpt lat="45.49052687758466" lon="10.770413853566382"><ele>138.0</ele><time>2026-03-28T12:23:01Z</time></trkpt><trkpt lat="45.49068933278015" lon="10.770378911190752"><ele>138.0</ele><time>2026-03-28T12:23:02Z</time></trkpt><trkpt lat="45.490849926108865" lon="10.770340991449775"><ele>138.0</ele><time>2026-03-28T12:23:03Z</time></trkpt><trkpt lat="45.49100336179508" lon="10.770298539350287"><ele>138.0</ele><time>2026-03-28T12:23:04Z</time></trkpt><trkpt lat="45.49115157638453" lon="10.770252133215955"><ele>138.0</ele><time>2026-03-28T12:23:05Z</time></trkpt><trkpt lat="45.49130413513268" lon="10.77019212611398"><ele>138.0</ele><time>2026-03-28T12:23:06Z</time></trkpt><trkpt lat="45.49144621206139" lon="10.77013799692956"><ele>137.25</ele><time>2026-03-28T12:23:07Z</time></trkpt><trkpt lat="45.4915877238604" lon="10.770079068062506"><ele>136.5</ele><time>2026-03-28T12:23:08Z</time></trkpt><trkpt lat="45.49172202288027" lon="10.770018614373488"><ele>135.75</ele><time>2026-03-28T12:23:09Z</time></trkpt><trkpt lat="45.49185214625283" lon="10.76995135887089"><ele>135.0</ele><time>2026-03-28T12:23:10Z</time></trkpt><trkpt lat="45.49197571491637" lon="10.769880200349212"><ele>134.6</ele><time>2026-03-28T12:23:11Z</time></trkpt><trkpt lat="45.49210156845832" lon="10.76980799782513"><ele>134.2</ele><time>2026-03-28T12:23:12Z</time></trkpt><trkpt lat="45.49220828475325" lon="10.769747918193902"><ele>133.8</ele><time>2026-03-28T12:23:13Z</time></trkpt><trkpt lat="45.49229982249448" lon="10.769674864763944"><ele>133.4</ele><time>2026-03-28T12:23:14Z</time></trkpt><trkpt lat="45.49237986609231" lon="10.76960643157297"><ele>133.0</ele><time>2026-03-28T12:23:15Z</time></trkpt><trkpt lat="45.492446048178024" lon="10.769549044677126"><ele>133.0</ele><time>2026-03-28T12:23:16Z</time></trkpt><trkpt lat="45.49251827385324" lon="10.769518167276171"><ele>133.0</ele><time>2026-03-28T12:23:18Z</time></trkpt><trkpt lat="45.49242138423853" lon="10.769562013594742"><ele>133.0</ele><time>2026-03-28T12:23:56Z</time></trkpt><trkpt lat="45.49247092147756" lon="10.769467869242591"><ele>133.0</ele><time>2026-03-28T12:23:57Z</time></trkpt><trkpt lat="45.49225848079959" lon="10.769643919819782"><ele>133.0</ele><time>2026-03-28T12:23:58Z</time></trkpt><trkpt lat="45.49216777402953" lon="10.769712888845653"><ele>133.0</ele><time>2026-03-28T12:23:59Z</time></trkpt><trkpt lat="45.49204250375459" lon="10.769801169728769"><ele>133.0</ele><time>2026-03-28T12:24:00Z</time></trkpt><trkpt lat="45.491899905217785" lon="10.769886667891981"><ele>133.0</ele><time>2026-03-28T12:24:01Z</time></trkpt><trkpt lat="45.49172701513712" lon="10.769974581851203"><ele>133.66666666666669</ele><time>2026-03-28T12:24:02Z</time></trkpt><trkpt lat="45.491516180532464" lon="10.770070691757615"><ele>134.33333333333334</ele><time>2026-03-28T12:24:03Z</time></trkpt><trkpt lat="45.49130462328603" lon="10.770156318965396"><ele>135.0</ele><time>2026-03-28T12:24:04Z</time></trkpt><trkpt lat="45.491065768854526" lon="10.770242644701938"><ele>136.5</ele><time>2026-03-28T12:24:05Z</time></trkpt><trkpt lat="45.490799391479804" lon="10.770328357696313"><ele>138.0</ele><time>2026-03-28T12:24:06Z</time></trkpt><trkpt lat="45.49052150135128" lon="10.770405551779922"><ele>138.0</ele><time>2026-03-28T12:24:07Z</time></trkpt><trkpt lat="45.49027986682549" lon="10.77045937214076"><ele>138.0</ele><time>2026-03-28T12:24:08Z</time></trkpt><trkpt lat="45.4900564666208" lon="10.770507344600412"><ele>138.0</ele><time>2026-03-28T12:24:09Z</time></trkpt><trkpt lat="45.48983023093108" lon="10.770564397005218"><ele>138.0</ele><time>2026-03-28T12:24:10Z</time></trkpt><trkpt lat="45.48961830343858" lon="10.77062840272469"><ele>138.0</ele><time>2026-03-28T12:24:11Z</time></trkpt><trkpt lat="45.48943511424999" lon="10.770695979571418"><ele>138.0</ele><time>2026-03-28T12:24:12Z</time></trkpt><trkpt lat="45.48926834152534" lon="10.770759024222793"><ele>138.0</ele><time>2026-03-28T12:24:13Z</time></trkpt><trkpt lat="45.489125029735895" lon="10.770815025913977"><ele>138.0</ele><time>2026-03-28T12:24:14Z</time></trkpt><trkpt lat="45.48900233626263" lon="10.770873939095729"><ele>138.0</ele><time>2026-03-28T12:24:15Z</time></trkpt><trkpt lat="45.48889396769621" lon="10.770958618009134"><ele>138.0</ele><time>2026-03-28T12:24:16Z</time></trkpt><trkpt lat="45.48878436845555" lon="10.77107355357747"><ele>138.0</ele><time>2026-03-28T12:24:17Z</time></trkpt><trkpt lat="45.48869375651291" lon="10.771204331240503"><ele>138.0</ele><time>2026-03-28T12:24:18Z</time></trkpt><trkpt lat="45.48861624173949" lon="10.771320405291615"><ele>137.71428571428572</ele><time>2026-03-28T12:24:19Z</time></trkpt><trkpt lat="45.48856210439266" lon="10.771380968946207"><ele>137.42857142857144</ele><time>2026-03-28T12:24:20Z</time></trkpt><trkpt lat="45.4884841725028" lon="10.77133349407277"><ele>137.14285714285714</ele><time>2026-03-28T12:24:22Z</time></trkpt><trkpt lat="45.488469436225856" lon="10.771244937532106"><ele>136.85714285714286</ele><time>2026-03-28T12:24:23Z</time></trkpt><trkpt lat="45.488482870653584" lon="10.771141303719336"><ele>136.57142857142856</ele><time>2026-03-28T12:24:24Z</time></trkpt><trkpt lat="45.488499672980446" lon="10.771054322947302"><ele>136.28571428571428</ele><time>2026-03-28T12:24:25Z</time></trkpt><trkpt lat="45.48853320074378" lon="10.77094923502907"><ele>136.0</ele><time>2026-03-28T12:24:31Z</time></trkpt><trkpt lat="45.48836749444291" lon="10.770884271218556"><ele>135.75</ele><time>2026-03-28T12:24:32Z</time></trkpt><trkpt lat="45.48826851539931" lon="10.770808924070904"><ele>135.5</ele><time>2026-03-28T12:24:33Z</time></trkpt><trkpt lat="45.48817343843194" lon="10.770692464184204"><ele>135.25</ele><time>2026-03-28T12:24:34Z</time></trkpt><trkpt lat="45.48807335706873" lon="10.770603783794588"><ele>135.0</ele><time>2026-03-28T12:24:35Z</time></trkpt><trkpt lat="45.4879895309412" lon="10.770505330978086"><ele>135.0</ele><time>2026-03-28T12:24:36Z</time></trkpt><trkpt lat="45.48790323581571" lon="10.770429682080119"><ele>135.0</ele><time>2026-03-28T12:24:37Z</time></trkpt><trkpt lat="45.48782391586919" lon="10.770358291167037"><ele>135.0</ele><time>2026-03-28T12:24:38Z</time></trkpt><trkpt lat="45.487751622272526" lon="10.770276242253752"><ele>135.0</ele><time>2026-03-28T12:24:39Z</time></trkpt><trkpt lat="45.487687075132236" lon="10.77018617408547"><ele>135.0</ele><time>2026-03-28T12:24:40Z</time></trkpt><trkpt lat="45.48764314439133" lon="10.770102670017936"><ele>135.0</ele><time>2026-03-28T12:24:41Z</time></trkpt><trkpt lat="45.48752403445033" lon="10.770090237777517"><ele>135.0</ele><time>2026-03-28T12:24:46Z</time></trkpt><trkpt lat="45.48768454231438" lon="10.770247363413484"><ele>135.0</ele><time>2026-03-28T12:24:49Z</time></trkpt><trkpt lat="45.48776092896497" lon="10.77033173981516"><ele>135.0</ele><time>2026-03-28T12:54:49Z</time></trkpt><trkpt lat="45.487876903384226" lon="10.770455267069586"><ele>135.0</ele><time>2026-03-28T12:54:51Z</time></trkpt><trkpt lat="45.48796852744653" lon="10.77054337009731"><ele>135.0</ele><time>2026-03-28T12:54:52Z</time></trkpt><trkpt lat="45.48808980011552" lon="10.770658505324919"><ele>135.0</ele><time>2026-03-28T12:54:53Z</time></trkpt><trkpt lat="45.4881936351471" lon="10.770765409445483"><ele>135.0</ele><time>2026-03-28T12:54:54Z</time></trkpt><trkpt lat="45.488273025357145" lon="10.77086626485402"><ele>135.0</ele><time>2026-03-28T12:54:55Z</time></trkpt><trkpt lat="45.488339472086246" lon="10.770953444747837"><ele>135.0</ele><time>2026-03-28T12:54:56Z</time></trkpt><trkpt lat="45.4884029402048" lon="10.771037912527602"><ele>135.0</ele><time>2026-03-28T12:54:58Z</time></trkpt><trkpt lat="45.48846242080722" lon="10.771101723897662"><ele>135.0</ele><time>2026-03-28T12:55:01Z</time></trkpt><trkpt lat="45.4884252527773" lon="10.771289604038593"><ele>135.0</ele><time>2026-03-28T12:55:02Z</time></trkpt><trkpt lat="45.48838827319559" lon="10.77141846146948"><ele>135.2</ele><time>2026-03-28T12:55:03Z</time></trkpt><trkpt lat="45.488359777358916" lon="10.7715054895984"><ele>135.4</ele><time>2026-03-28T12:55:04Z</time></trkpt><trkpt lat="45.488428066357635" lon="10.771613112769836"><ele>135.6</ele><time>2026-03-28T12:55:06Z</time></trkpt><trkpt lat="45.48854169831913" lon="10.771537548639264"><ele>135.8</ele><time>2026-03-28T12:55:08Z</time></trkpt><trkpt lat="45.488577407196786" lon="10.771446316807578"><ele>136.0</ele><time>2026-03-28T12:55:09Z</time></trkpt><trkpt lat="45.488620316091634" lon="10.771346459918972"><ele>136.0</ele><time>2026-03-28T12:55:10Z</time></trkpt><trkpt lat="45.48867816225758" lon="10.7712616610661"><ele>136.0</ele><time>2026-03-28T12:55:11Z</time></trkpt><trkpt lat="45.48873962503757" lon="10.771176743622512"><ele>136.0</ele><time>2026-03-28T12:55:12Z</time></trkpt><trkpt lat="45.48879563115907" lon="10.771084564001416"><ele>136.0</ele><time>2026-03-28T12:55:13Z</time></trkpt><trkpt lat="45.488877654218" lon="10.771018041048636"><ele>136.0</ele><time>2026-03-28T12:55:14Z</time></trkpt><trkpt lat="45.488965164053745" lon="10.770945888341178"><ele>136.0</ele><time>2026-03-28T12:55:15Z</time></trkpt><trkpt lat="45.489067324819466" lon="10.770883785411428"><ele>136.4</ele><time>2026-03-28T12:55:16Z</time></trkpt><trkpt lat="45.48914888189301" lon="10.770828344189606"><ele>136.8</ele><time>2026-03-28T12:55:17Z</time></trkpt><trkpt lat="45.48922796450505" lon="10.770795786953542"><ele>137.20000000000002</ele><time>2026-03-28T12:55:18Z</time></trkpt><trkpt lat="45.48932165951107" lon="10.770758825058797"><ele>137.6</ele><time>2026-03-28T12:55:19Z</time></trkpt><trkpt lat="45.48942550531692" lon="10.770719689204505"><ele>138.0</ele><time>2026-03-28T12:55:20Z</time></trkpt><trkpt lat="45.48953232516055" lon="10.770678517330955"><ele>138.0</ele><time>2026-03-28T12:55:21Z</time></trkpt><trkpt lat="45.48963403219394" lon="10.770645022377845"><ele>138.0</ele><time>2026-03-28T12:55:22Z</time></trkpt><trkpt lat="45.48973073546675" lon="10.770621039803057"><ele>138.0</ele><time>2026-03-28T12:55:23Z</time></trkpt><trkpt lat="45.4898441797517" lon="10.7705924705447"><ele>138.0</ele><time>2026-03-28T12:55:24Z</time></trkpt><trkpt lat="45.490002305903445" lon="10.770549723003041"><ele>138.0</ele><time>2026-03-28T12:55:25Z</time></trkpt><trkpt lat="45.49018381062836" lon="10.770504168989198"><ele>138.0</ele><time>2026-03-28T12:55:26Z</time></trkpt><trkpt lat="45.49038154847556" lon="10.770453595225785"><ele>138.0</ele><time>2026-03-28T12:55:27Z</time></trkpt><trkpt lat="45.49059743118454" lon="10.770394358530439"><ele>138.0</ele><time>2026-03-28T12:55:28Z</time></trkpt><trkpt lat="45.49080852420482" lon="10.770341648174817"><ele>138.0</ele><time>2026-03-28T12:55:29Z</time></trkpt><trkpt lat="45.49101988658199" lon="10.770282352395224"><ele>138.0</ele><time>2026-03-28T12:55:30Z</time></trkpt><trkpt lat="45.49125373615422" lon="10.770224970590661"><ele>136.5</ele><time>2026-03-28T12:55:31Z</time></trkpt><trkpt lat="45.491494727424154" lon="10.770101659843615"><ele>135.0</ele><time>2026-03-28T12:55:32Z</time></trkpt><trkpt lat="45.4917201213061" lon="10.769994334802691"><ele>135.0</ele><time>2026-03-28T12:55:33Z</time></trkpt><trkpt lat="45.49191007891603" lon="10.769924049356375"><ele>135.0</ele><time>2026-03-28T12:55:34Z</time></trkpt><trkpt lat="45.4920644354512" lon="10.769838029650177"><ele>135.0</ele><time>2026-03-28T12:55:35Z</time></trkpt><trkpt lat="45.49218781402395" lon="10.7697359486278"><ele>134.6</ele><time>2026-03-28T12:55:36Z</time></trkpt><trkpt lat="45.49229604339793" lon="10.769669111580178"><ele>134.2</ele><time>2026-03-28T12:55:37Z</time></trkpt><trkpt lat="45.492380163312255" lon="10.76958957995949"><ele>133.8</ele><time>2026-03-28T12:55:38.001Z</time></trkpt><trkpt lat="45.492450143122696" lon="10.769524849022845"><ele>133.4</ele><time>2026-03-28T12:55:39.001Z</time></trkpt><trkpt lat="45.492518737095956" lon="10.76952209964238"><ele>133.0</ele><time>2026-03-28T12:55:41.001Z</time></trkpt><trkpt lat="45.492582099498314" lon="10.76967626386038"><ele>133.0</ele><time>2026-03-28T12:55:43.001Z</time></trkpt><trkpt lat="45.4926370957902" lon="10.76980219126313"><ele>133.0</ele><time>2026-03-28T12:55:44.001Z</time></trkpt><trkpt lat="45.49272365353183" lon="10.769942052316843"><ele>133.0</ele><time>2026-03-28T12:55:45.001Z</time></trkpt><trkpt lat="45.49278145890978" lon="10.770091215980633"><ele>133.0</ele><time>2026-03-28T12:55:46.001Z</time></trkpt><trkpt lat="45.49283974587228" lon="10.770216067285297"><ele>133.0</ele><time>2026-03-28T12:55:47.001Z</time></trkpt><trkpt lat="45.49290706141515" lon="10.770367068312158"><ele>133.0</ele><time>2026-03-28T12:55:48.001Z</time></trkpt><trkpt lat="45.492952042560944" lon="10.770496540848626"><ele>133.0</ele><time>2026-03-28T12:55:49.001Z</time></trkpt><trkpt lat="45.49299003887469" lon="10.770605446669222"><ele>133.0</ele><time>2026-03-28T12:55:50.001Z</time></trkpt><trkpt lat="45.49305758983773" lon="10.770741278845067"><ele>133.0</ele><time>2026-03-28T12:55:51.001Z</time></trkpt><trkpt lat="45.493147127638146" lon="10.770870025880486"><ele>133.0</ele><time>2026-03-28T12:55:52.001Z</time></trkpt><trkpt lat="45.493207187779625" lon="10.770969192487565"><ele>133.0</ele><time>2026-03-28T12:55:53.001Z</time></trkpt><trkpt lat="45.493265232579546" lon="10.771057334987686"><ele>133.0</ele><time>2026-03-28T12:55:54.001Z</time></trkpt><trkpt lat="45.49332262115072" lon="10.77112236408255"><ele>133.0</ele><time>2026-03-28T12:55:55.001Z</time></trkpt><trkpt lat="45.49338205587991" lon="10.771188420047968"><ele>133.0</ele><time>2026-03-28T12:55:56.001Z</time></trkpt><trkpt lat="45.49348081196095" lon="10.771170995578691"><ele>133.0</ele><time>2026-03-28T12:55:57.001Z</time></trkpt><trkpt lat="45.493588162933705" lon="10.771169078150713"><ele>134.0</ele><time>2026-03-28T12:55:58.001Z</time></trkpt><trkpt lat="45.4937078939499" lon="10.771152070587672"><ele>135.0</ele><time>2026-03-28T12:55:59.001Z</time></trkpt><trkpt lat="45.49384609587205" lon="10.771172807429645"><ele>136.0</ele><time>2026-03-28T12:56:00.001Z</time></trkpt><trkpt lat="45.49397522171423" lon="10.771184105657413"><ele>137.0</ele><time>2026-03-28T12:56:01.001Z</time></trkpt><trkpt lat="45.49407308502653" lon="10.771193619757096"><ele>137.0</ele><time>2026-03-28T12:56:02.001Z</time></trkpt><trkpt lat="45.49415163330956" lon="10.7712058485106"><ele>137.0</ele><time>2026-03-28T12:56:03.001Z</time></trkpt><trkpt lat="45.494233637917745" lon="10.771223155997676"><ele>137.0</ele><time>2026-03-28T12:56:04.001Z</time></trkpt><trkpt lat="45.49432606056769" lon="10.771270074789145"><ele>137.0</ele><time>2026-03-28T12:56:06.001Z</time></trkpt><trkpt lat="45.494331812601175" lon="10.771448136064889"><ele>137.0</ele><time>2026-03-28T12:56:08.001Z</time></trkpt><trkpt lat="45.49433241093682" lon="10.771583772010526"><ele>137.0</ele><time>2026-03-28T12:56:09.001Z</time></trkpt><trkpt lat="45.49433722555021" lon="10.771771060368888"><ele>137.0</ele><time>2026-03-28T12:56:10.001Z</time></trkpt><trkpt lat="45.494353561417796" lon="10.77197116652256"><ele>137.0</ele><time>2026-03-28T12:56:11.001Z</time></trkpt><trkpt lat="45.49436509562128" lon="10.772177491059352"><ele>137.0</ele><time>2026-03-28T12:56:12.001Z</time></trkpt><trkpt lat="45.494374483792974" lon="10.772402271208279"><ele>137.0</ele><time>2026-03-28T12:56:13.001Z</time></trkpt><trkpt lat="45.49439196838154" lon="10.772622660068878"><ele>137.0</ele><time>2026-03-28T12:56:14.001Z</time></trkpt><trkpt lat="45.49440845353012" lon="10.772865164295194"><ele>137.0</ele><time>2026-03-28T12:56:15.001Z</time></trkpt><trkpt lat="45.494425345515246" lon="10.773093519146459"><ele>137.33333333333331</ele><time>2026-03-28T12:56:16.001Z</time></trkpt><trkpt lat="45.494450106423024" lon="10.773321551759022"><ele>137.66666666666666</ele><time>2026-03-28T12:56:17.001Z</time></trkpt><trkpt lat="45.49446874781932" lon="10.77353541448982"><ele>138.0</ele><time>2026-03-28T12:56:18.001Z</time></trkpt><trkpt lat="45.49449054946942" lon="10.773752972131884"><ele>139.0</ele><time>2026-03-28T12:56:19.001Z</time></trkpt><trkpt lat="45.494514218248774" lon="10.773958845409341"><ele>140.0</ele><time>2026-03-28T12:56:20.001Z</time></trkpt><trkpt lat="45.494546733459124" lon="10.774174482574331"><ele>141.0</ele><time>2026-03-28T12:56:21.001Z</time></trkpt><trkpt lat="45.49457532770229" lon="10.774379018410038"><ele>142.0</ele><time>2026-03-28T12:56:22.001Z</time></trkpt><trkpt lat="45.49460323444101" lon="10.774590229825357"><ele>142.0</ele><time>2026-03-28T12:56:23.001Z</time></trkpt><trkpt lat="45.49459215491666" lon="10.774778586936401"><ele>142.0</ele><time>2026-03-28T12:56:24.001Z</time></trkpt><trkpt lat="45.49459215491687" lon="10.774899238327334"><ele>142.0</ele><time>2026-03-28T12:56:25.001Z</time></trkpt><trkpt lat="45.494548776932525" lon="10.774986920800524"><ele>142.0</ele><time>2026-03-28T12:56:26.001Z</time></trkpt><trkpt lat="45.49453292763603" lon="10.775108621444964"><ele>142.0</ele><time>2026-03-28T12:56:27.001Z</time></trkpt><trkpt lat="45.49465068116483" lon="10.775240241059434"><ele>143.2</ele><time>2026-03-28T12:56:28.001Z</time></trkpt><trkpt lat="45.4946418212492" lon="10.775371743727497"><ele>144.39999999999998</ele><time>2026-03-28T12:56:29.001Z</time></trkpt><trkpt lat="45.4946361603086" lon="10.77550135852951"><ele>145.60000000000002</ele><time>2026-03-28T12:56:30.001Z</time></trkpt><trkpt lat="45.494642793537274" lon="10.775648010779825"><ele>146.8</ele><time>2026-03-28T12:56:31.001Z</time></trkpt><trkpt lat="45.494657747975104" lon="10.775811957133637"><ele>148.0</ele><time>2026-03-28T12:56:32.001Z</time></trkpt><trkpt lat="45.494669428507756" lon="10.775964752284274"><ele>148.33333333333334</ele><time>2026-03-28T12:56:33.001Z</time></trkpt><trkpt lat="45.49467682024968" lon="10.776126448926853"><ele>148.66666666666669</ele><time>2026-03-28T12:56:34.001Z</time></trkpt><trkpt lat="45.494679822351365" lon="10.776252577313834"><ele>149.0</ele><time>2026-03-28T12:56:35.001Z</time></trkpt><trkpt lat="45.494688178309566" lon="10.77634958129163"><ele>149.33333333333334</ele><time>2026-03-28T12:56:36.001Z</time></trkpt><trkpt lat="45.4947438385419" lon="10.77646029690232"><ele>149.66666666666666</ele><time>2026-03-28T12:56:38Z</time></trkpt><trkpt lat="45.49480783902663" lon="10.77652387698752"><ele>150.0</ele><time>2026-03-28T12:56:39Z</time></trkpt><trkpt lat="45.494895355248" lon="10.776579036072684"><ele>150.0</ele><time>2026-03-28T12:56:40Z</time></trkpt><trkpt lat="45.494975552750034" lon="10.77666292978367"><ele>150.0</ele><time>2026-03-28T12:56:41Z</time></trkpt><trkpt lat="45.49504803129124" lon="10.776751699872595"><ele>150.0</ele><time>2026-03-28T12:56:42Z</time></trkpt><trkpt lat="45.495136558711344" lon="10.776840303776709"><ele>150.0</ele><time>2026-03-28T12:56:43Z</time></trkpt><trkpt lat="45.49523103312073" lon="10.776922556525218"><ele>150.0</ele><time>2026-03-28T12:56:44Z</time></trkpt><trkpt lat="45.49532826793944" lon="10.77701366396957"><ele>149.6</ele><time>2026-03-28T12:56:45Z</time></trkpt><trkpt lat="45.495419471688365" lon="10.777104201006932"><ele>149.2</ele><time>2026-03-28T12:56:46Z</time></trkpt><trkpt lat="45.49550550288991" lon="10.777213850010044"><ele>148.8</ele><time>2026-03-28T12:56:47Z</time></trkpt><trkpt lat="45.495579779047354" lon="10.777332126823135"><ele>148.4</ele><time>2026-03-28T12:56:48Z</time></trkpt><trkpt lat="45.49564426090849" lon="10.7774326411487"><ele>148.0</ele><time>2026-03-28T12:56:49Z</time></trkpt><trkpt lat="45.49569830360468" lon="10.777525014555142"><ele>147.66666666666669</ele><time>2026-03-28T12:56:50Z</time></trkpt><trkpt lat="45.495735044156326" lon="10.77762406124197"><ele>147.33333333333334</ele><time>2026-03-28T12:56:51Z</time></trkpt><trkpt lat="45.49575683610538" lon="10.777714060533755"><ele>147.0</ele><time>2026-03-28T12:56:52Z</time></trkpt><trkpt lat="45.49579762293674" lon="10.777813250163693"><ele>146.66666666666666</ele><time>2026-03-28T12:56:54Z</time></trkpt><trkpt lat="45.49587712721238" lon="10.77783817600102"><ele>146.33333333333331</ele><time>2026-03-28T12:56:56Z</time></trkpt><trkpt lat="45.495957559383015" lon="10.777851507741984"><ele>146.0</ele><time>2026-03-28T12:56:57Z</time></trkpt><trkpt lat="45.4960282193716" lon="10.777841820658026"><ele>145.66666666666666</ele><time>2026-03-28T12:56:58Z</time></trkpt><trkpt lat="45.4961144575419" lon="10.777804119972688"><ele>145.33333333333331</ele><time>2026-03-28T12:56:59Z</time></trkpt><trkpt lat="45.496215060253625" lon="10.777769737765086"><ele>145.0</ele><time>2026-03-28T12:57:00Z</time></trkpt><trkpt lat="45.49630749176647" lon="10.777746923070355"><ele>144.66666666666666</ele><time>2026-03-28T12:57:01Z</time></trkpt><trkpt lat="45.49639254625584" lon="10.777723976055832"><ele>144.33333333333334</ele><time>2026-03-28T12:57:02Z</time></trkpt><trkpt lat="45.496459006746946" lon="10.777695631489477"><ele>144.0</ele><time>2026-03-28T12:57:03Z</time></trkpt><trkpt lat="45.496555829698785" lon="10.777667208960382"><ele>144.0</ele><time>2026-03-28T12:57:05Z</time></trkpt><trkpt lat="45.49660315014038" lon="10.777566566732785"><ele>144.0</ele><time>2026-03-28T12:57:09Z</time></trkpt><trkpt lat="45.4966537954949" lon="10.777435264543037"><ele>144.0</ele><time>2026-03-28T12:57:11Z</time></trkpt><trkpt lat="45.49671804390454" lon="10.777297070060245"><ele>144.0</ele><time>2026-03-28T12:57:13Z</time></trkpt><trkpt lat="45.49675835513256" lon="10.777184924058426"><ele>144.0</ele><time>2026-03-28T12:57:15Z</time></trkpt><trkpt lat="45.49675934287777" lon="10.77706314024395"><ele>144.0</ele><time>2026-03-28T12:57:18Z</time></trkpt><trkpt lat="45.49671200045375" lon="10.777129490704992"><ele>144.0</ele><time>2026-03-28T12:57:21Z</time></trkpt><trkpt lat="45.49676340299079" lon="10.77721708975518"><ele>144.0</ele><time>2026-03-28T12:57:24Z</time></trkpt><trkpt lat="45.49670572348584" lon="10.77731632938118"><ele>144.0</ele><time>2026-03-28T12:57:26Z</time></trkpt><trkpt lat="45.49664667232534" lon="10.777431889499217"><ele>144.0</ele><time>2026-03-28T12:57:27Z</time></trkpt><trkpt lat="45.49660059294975" lon="10.777548210862355"><ele>144.0</ele><time>2026-03-28T12:57:28Z</time></trkpt><trkpt lat="45.496554682857074" lon="10.77767082652633"><ele>143.2</ele><time>2026-03-28T12:57:30Z</time></trkpt><trkpt lat="45.4964811360215" lon="10.77772243888575"><ele>142.4</ele><time>2026-03-28T12:57:32Z</time></trkpt><trkpt lat="45.49640100470577" lon="10.777746249594774"><ele>141.6</ele><time>2026-03-28T12:57:33Z</time></trkpt><trkpt lat="45.49631942423" lon="10.777753661627228"><ele>140.8</ele><time>2026-03-28T12:57:34Z</time></trkpt><trkpt lat="45.49622992924365" lon="10.777767173082324"><ele>140.0</ele><time>2026-03-28T12:57:35Z</time></trkpt><trkpt lat="45.49611689188681" lon="10.777796454930467"><ele>140.0</ele><time>2026-03-28T12:57:36Z</time></trkpt><trkpt lat="45.496022787886126" lon="10.777820273198937"><ele>140.0</ele><time>2026-03-28T12:57:37Z</time></trkpt><trkpt lat="45.49595768613778" lon="10.777846811705778"><ele>140.0</ele><time>2026-03-28T12:57:38Z</time></trkpt><trkpt lat="45.495865919254534" lon="10.777849285206692"><ele>140.0</ele><time>2026-03-28T12:57:40Z</time></trkpt><trkpt lat="45.49579915990414" lon="10.777814967688727"><ele>140.0</ele><time>2026-03-28T12:57:42Z</time></trkpt><trkpt lat="45.495815384085546" lon="10.777905549773656"><ele>140.0</ele><time>2026-03-28T12:57:44Z</time></trkpt><trkpt lat="45.4959301454128" lon="10.777951829439749"><ele>140.0</ele><time>2026-03-28T12:57:46Z</time></trkpt><trkpt lat="45.4960262518978" lon="10.777924265297184"><ele>140.0</ele><time>2026-03-28T12:57:47Z</time></trkpt><trkpt lat="45.4961145468869" lon="10.777885145971824"><ele>140.0</ele><time>2026-03-28T12:57:48Z</time></trkpt><trkpt lat="45.49623303318564" lon="10.777838718120224"><ele>140.0</ele><time>2026-03-28T12:57:50Z</time></trkpt><trkpt lat="45.49631541832837" lon="10.777836085392734"><ele>140.0</ele><time>2026-03-28T12:57:51.001Z</time></trkpt><trkpt lat="45.49640831752174" lon="10.777833611304766"><ele>139.8</ele><time>2026-03-28T12:57:52.001Z</time></trkpt><trkpt lat="45.49648312040178" lon="10.777824754688664"><ele>139.6</ele><time>2026-03-28T12:57:53.001Z</time></trkpt><trkpt lat="45.49655430851659" lon="10.777827689207513"><ele>139.4</ele><time>2026-03-28T12:57:54.001Z</time></trkpt><trkpt lat="45.496670140166636" lon="10.777813186382504"><ele>139.2</ele><time>2026-03-28T12:57:56.001Z</time></trkpt><trkpt lat="45.49679211454142" lon="10.777829734946627"><ele>139.0</ele><time>2026-03-28T12:57:58.001Z</time></trkpt><trkpt lat="45.496852164104155" lon="10.777879529345805"><ele>139.0</ele><time>2026-03-28T12:57:59.001Z</time></trkpt><trkpt lat="45.49692354352295" lon="10.777959617652602"><ele>139.0</ele><time>2026-03-28T12:58:00.001Z</time></trkpt><trkpt lat="45.49698691354893" lon="10.778047918830554"><ele>139.0</ele><time>2026-03-28T12:58:01.001Z</time></trkpt><trkpt lat="45.49704332875052" lon="10.778124633878772"><ele>139.0</ele><time>2026-03-28T12:58:02.001Z</time></trkpt><trkpt lat="45.4971167660141" lon="10.77820157981462"><ele>139.0</ele><time>2026-03-28T12:58:04.001Z</time></trkpt><trkpt lat="45.4972130750415" lon="10.778153547152149"><ele>139.33333333333334</ele><time>2026-03-28T12:58:06.001Z</time></trkpt><trkpt lat="45.49723681157702" lon="10.778063955077803"><ele>139.66666666666669</ele><time>2026-03-28T12:58:07.001Z</time></trkpt><trkpt lat="45.49726804527912" lon="10.777975476462846"><ele>140.0</ele><time>2026-03-28T12:58:08.001Z</time></trkpt><trkpt lat="45.49729719020124" lon="10.777853165433811"><ele>140.33333333333334</ele><time>2026-03-28T12:58:09.001Z</time></trkpt><trkpt lat="45.497355186808825" lon="10.77773248453856"><ele>140.66666666666666</ele><time>2026-03-28T12:58:10.001Z</time></trkpt><trkpt lat="45.497411877405995" lon="10.7775923739058"><ele>141.0</ele><time>2026-03-28T12:58:11.001Z</time></trkpt><trkpt lat="45.49746765660566" lon="10.777448045149264"><ele>141.4</ele><time>2026-03-28T12:58:12.001Z</time></trkpt><trkpt lat="45.49751063852871" lon="10.777283678346967"><ele>141.8</ele><time>2026-03-28T12:58:13.001Z</time></trkpt><trkpt lat="45.497551640486186" lon="10.77717412063413"><ele>142.20000000000002</ele><time>2026-03-28T12:58:14.001Z</time></trkpt><trkpt lat="45.49759110495219" lon="10.777055712770442"><ele>142.6</ele><time>2026-03-28T12:58:16.001Z</time></trkpt><trkpt lat="45.4976343249646" lon="10.776946645584777"><ele>143.0</ele><time>2026-03-28T12:58:18.001Z</time></trkpt><trkpt lat="45.497692290740304" lon="10.776786399782033"><ele>143.0</ele><time>2026-03-28T12:58:20.001Z</time></trkpt><trkpt lat="45.49773264611686" lon="10.7767086831644"><ele>143.0</ele><time>2026-03-28T12:58:21.001Z</time></trkpt><trkpt lat="45.4977865579575" lon="10.776651168096668"><ele>143.0</ele><time>2026-03-28T12:58:23.001Z</time></trkpt><trkpt lat="45.49774397817442" lon="10.776722308946376"><ele>143.0</ele><time>2026-03-28T12:58:33.001Z</time></trkpt><trkpt lat="45.49770379518521" lon="10.776791865016452"><ele>143.0</ele><time>2026-03-28T12:58:38.001Z</time></trkpt><trkpt lat="45.49764869739889" lon="10.776879956382551"><ele>143.0</ele><time>2026-03-28T12:58:39.001Z</time></trkpt><trkpt lat="45.49759605918284" lon="10.777006984078781"><ele>143.0</ele><time>2026-03-28T12:58:40.001Z</time></trkpt><trkpt lat="45.497538136680156" lon="10.777151527618516"><ele>143.0</ele><time>2026-03-28T12:58:41.001Z</time></trkpt><trkpt lat="45.49747765386096" lon="10.77731447922802"><ele>143.0</ele><time>2026-03-28T12:58:42.001Z</time></trkpt><trkpt lat="45.497415725941394" lon="10.777474834939207"><ele>143.0</ele><time>2026-03-28T12:58:43Z</time></trkpt><trkpt lat="45.49736727334694" lon="10.777608946792787"><ele>142.6</ele><time>2026-03-28T12:58:44Z</time></trkpt><trkpt lat="45.49731665837944" lon="10.77772922596802"><ele>142.20000000000002</ele><time>2026-03-28T12:58:45Z</time></trkpt><trkpt lat="45.497274762897135" lon="10.777848763738579"><ele>141.8</ele><time>2026-03-28T12:58:46Z</time></trkpt><trkpt lat="45.49724351350049" lon="10.777968085162659"><ele>141.4</ele><time>2026-03-28T12:58:47Z</time></trkpt><trkpt lat="45.49720253993035" lon="10.77811257927453"><ele>141.0</ele><time>2026-03-28T12:58:48Z</time></trkpt><trkpt lat="45.497205188986115" lon="10.778313968229403"><ele>140.75</ele><time>2026-03-28T12:58:49Z</time></trkpt><trkpt lat="45.49717908679436" lon="10.778518487116251"><ele>140.5</ele><time>2026-03-28T12:58:50Z</time></trkpt><trkpt lat="45.497144733415396" lon="10.778697310584302"><ele>140.25</ele><time>2026-03-28T12:58:51Z</time></trkpt><trkpt lat="45.49710440370243" lon="10.778841006521384"><ele>140.0</ele><time>2026-03-28T12:58:52Z</time></trkpt><trkpt lat="45.49707541571169" lon="10.779025075735781"><ele>139.5</ele><time>2026-03-28T12:58:53Z</time></trkpt><trkpt lat="45.497039693725235" lon="10.779204105763599"><ele>139.0</ele><time>2026-03-28T12:58:54Z</time></trkpt><trkpt lat="45.4969978238047" lon="10.7793953593245"><ele>138.5</ele><time>2026-03-28T12:58:55Z</time></trkpt><trkpt lat="45.49697940274574" lon="10.779609977333875"><ele>138.0</ele><time>2026-03-28T12:58:56Z</time></trkpt><trkpt lat="45.49698363098172" lon="10.779820415740533"><ele>137.25</ele><time>2026-03-28T12:58:57Z</time></trkpt><trkpt lat="45.496974110875335" lon="10.780018107445434"><ele>136.5</ele><time>2026-03-28T12:58:58Z</time></trkpt><trkpt lat="45.496972290222274" lon="10.780215713576473"><ele>135.75</ele><time>2026-03-28T12:58:59Z</time></trkpt><trkpt lat="45.496960957370206" lon="10.780391563167347"><ele>135.0</ele><time>2026-03-28T12:59:00Z</time></trkpt><trkpt lat="45.496961911019945" lon="10.780541382046373"><ele>135.0</ele><time>2026-03-28T12:59:01Z</time></trkpt><trkpt lat="45.49695630451596" lon="10.780656191670436"><ele>135.0</ele><time>2026-03-28T12:59:02Z</time></trkpt><trkpt lat="45.49693308790851" lon="10.780768412944058"><ele>135.0</ele><time>2026-03-28T12:59:03Z</time></trkpt><trkpt lat="45.49687311074749" lon="10.780876809228737"><ele>135.0</ele><time>2026-03-28T12:59:04Z</time></trkpt><trkpt lat="45.496832322857365" lon="10.780984649544424"><ele>135.0</ele><time>2026-03-28T12:59:05Z</time></trkpt><trkpt lat="45.49683568901874" lon="10.781113813363575"><ele>135.0</ele><time>2026-03-28T12:59:07Z</time></trkpt><trkpt lat="45.496890089665555" lon="10.781174576067537"><ele>135.4</ele><time>2026-03-28T12:59:08Z</time></trkpt><trkpt lat="45.49697120263215" lon="10.78116857275986"><ele>135.8</ele><time>2026-03-28T12:59:09Z</time></trkpt><trkpt lat="45.49706135627497" lon="10.781153468900117"><ele>136.2</ele><time>2026-03-28T12:59:10Z</time></trkpt><trkpt lat="45.49718293646329" lon="10.781165968174946"><ele>136.6</ele><time>2026-03-28T12:59:11Z</time></trkpt><trkpt lat="45.497324110436274" lon="10.781167290089101"><ele>137.0</ele><time>2026-03-28T12:59:12Z</time></trkpt><trkpt lat="45.497490316641446" lon="10.781183144383972"><ele>138.0</ele><time>2026-03-28T12:59:13Z</time></trkpt><trkpt lat="45.49765227322082" lon="10.781198470453575"><ele>139.0</ele><time>2026-03-28T12:59:14Z</time></trkpt><trkpt lat="45.49776998054154" lon="10.781200269293995"><ele>140.0</ele><time>2026-03-28T12:59:15Z</time></trkpt><trkpt lat="45.49785429267022" lon="10.781206592134232"><ele>141.0</ele><time>2026-03-28T12:59:16Z</time></trkpt><trkpt lat="45.497938651124294" lon="10.78128407337776"><ele>141.0</ele><time>2026-03-28T12:59:18Z</time></trkpt><trkpt lat="45.497912791014485" lon="10.781404774529276"><ele>141.0</ele><time>2026-03-28T12:59:19Z</time></trkpt><trkpt lat="45.49792295188925" lon="10.78159743095818"><ele>141.0</ele><time>2026-03-28T12:59:20Z</time></trkpt><trkpt lat="45.497935439762166" lon="10.781834208829984"><ele>141.0</ele><time>2026-03-28T12:59:21Z</time></trkpt><trkpt lat="45.49796471178183" lon="10.782090321105622"><ele>144.25</ele><time>2026-03-28T12:59:22Z</time></trkpt><trkpt lat="45.49798127700921" lon="10.782324262585869"><ele>147.5</ele><time>2026-03-28T12:59:23Z</time></trkpt><trkpt lat="45.498001259834865" lon="10.782516057109932"><ele>150.75</ele><time>2026-03-28T12:59:24.001Z</time></trkpt><trkpt lat="45.498022686382356" lon="10.782706608277362"><ele>154.0</ele><time>2026-03-28T12:59:25.001Z</time></trkpt><trkpt lat="45.49804340854936" lon="10.782896616001882"><ele>154.0</ele><time>2026-03-28T12:59:26.001Z</time></trkpt><trkpt lat="45.49804668457684" lon="10.783081736274303"><ele>154.0</ele><time>2026-03-28T12:59:27.001Z</time></trkpt><trkpt lat="45.498073896899136" lon="10.783247128027643"><ele>154.0</ele><time>2026-03-28T12:59:28.001Z</time></trkpt><trkpt lat="45.49813279707685" lon="10.783417974242857"><ele>154.0</ele><time>2026-03-28T12:59:29.001Z</time></trkpt><trkpt lat="45.498201075536684" lon="10.783561559212623"><ele>154.4</ele><time>2026-03-28T12:59:30.001Z</time></trkpt><trkpt lat="45.49820943866281" lon="10.783689988542518"><ele>154.8</ele><time>2026-03-28T12:59:31.001Z</time></trkpt><trkpt lat="45.498201577015124" lon="10.783820739712022"><ele>155.2</ele><time>2026-03-28T12:59:32.001Z</time></trkpt><trkpt lat="45.49818564589486" lon="10.783964734573834"><ele>155.6</ele><time>2026-03-28T12:59:33.001Z</time></trkpt><trkpt lat="45.49818653443672" lon="10.784069211109843"><ele>156.0</ele><time>2026-03-28T12:59:34.001Z</time></trkpt><trkpt lat="45.498317689273186" lon="10.78412298461581"><ele>156.0</ele><time>2026-03-28T12:59:38.001Z</time></trkpt><trkpt lat="45.49840777331587" lon="10.784137690574832"><ele>156.0</ele><time>2026-03-28T12:59:39.001Z</time></trkpt><trkpt lat="45.49849818271188" lon="10.784135453708565"><ele>156.0</ele><time>2026-03-28T12:59:40.001Z</time></trkpt><trkpt lat="45.498591612066804" lon="10.784133142144077"><ele>156.0</ele><time>2026-03-28T12:59:41.001Z</time></trkpt><trkpt lat="45.49868633201431" lon="10.784119082376478"><ele>156.0</ele><time>2026-03-28T12:59:42.001Z</time></trkpt><trkpt lat="45.498785588329014" lon="10.784125772141493"><ele>156.25</ele><time>2026-03-28T12:59:43.001Z</time></trkpt><trkpt lat="45.49888882868089" lon="10.784123065155958"><ele>156.5</ele><time>2026-03-28T12:59:44.001Z</time></trkpt><trkpt lat="45.499011864474106" lon="10.784153861422137"><ele>156.75</ele><time>2026-03-28T12:59:45.001Z</time></trkpt><trkpt lat="45.49913518759503" lon="10.784142876480434"><ele>157.0</ele><time>2026-03-28T12:59:46.001Z</time></trkpt><trkpt lat="45.499240367691115" lon="10.78415354933432"><ele>157.0</ele><time>2026-03-28T12:59:47.001Z</time></trkpt><trkpt lat="45.49935676189478" lon="10.784146790049473"><ele>157.0</ele><time>2026-03-28T12:59:48.001Z</time></trkpt><trkpt lat="45.499477908524355" lon="10.784131354658596"><ele>157.0</ele><time>2026-03-28T12:59:49.001Z</time></trkpt><trkpt lat="45.49957773789226" lon="10.784124490061638"><ele>157.0</ele><time>2026-03-28T12:59:50.001Z</time></trkpt><trkpt lat="45.4996751879365" lon="10.784049778104905"><ele>157.0</ele><time>2026-03-28T12:59:51.001Z</time></trkpt><trkpt lat="45.4997813349701" lon="10.783948833836408"><ele>157.5</ele><time>2026-03-28T12:59:52.001Z</time></trkpt><trkpt lat="45.49988388236323" lon="10.783825167697536"><ele>158.0</ele><time>2026-03-28T12:59:53.001Z</time></trkpt><trkpt lat="45.50000622995944" lon="10.783761686519385"><ele>158.5</ele><time>2026-03-28T12:59:54.001Z</time></trkpt><trkpt lat="45.50009080930403" lon="10.783668858210365"><ele>159.0</ele><time>2026-03-28T12:59:55.001Z</time></trkpt><trkpt lat="45.50016769967251" lon="10.783612704873427"><ele>159.0</ele><time>2026-03-28T12:59:56.001Z</time></trkpt><trkpt lat="45.500253706726575" lon="10.783550468671788"><ele>159.0</ele><time>2026-03-28T12:59:57.001Z</time></trkpt><trkpt lat="45.500325198802194" lon="10.783402328395855"><ele>159.0</ele><time>2026-03-28T12:59:58.001Z</time></trkpt><trkpt lat="45.50039637237947" lon="10.783253351688646"><ele>159.0</ele><time>2026-03-28T12:59:59.001Z</time></trkpt><trkpt lat="45.500461752355434" lon="10.783108142811558"><ele>159.2</ele><time>2026-03-28T13:00:00.001Z</time></trkpt><trkpt lat="45.50052052440242" lon="10.782995794690576"><ele>159.4</ele><time>2026-03-28T13:00:01.001Z</time></trkpt><trkpt lat="45.50057990355814" lon="10.782899970177596"><ele>159.6</ele><time>2026-03-28T13:00:02.001Z</time></trkpt><trkpt lat="45.500684919378855" lon="10.782814235265832"><ele>159.8</ele><time>2026-03-28T13:00:04.001Z</time></trkpt><trkpt lat="45.5007517154582" lon="10.782789741060391"><ele>160.0</ele><time>2026-03-28T13:00:05.001Z</time></trkpt><trkpt lat="45.50082927919565" lon="10.782781667728553"><ele>160.0</ele><time>2026-03-28T13:00:06.001Z</time></trkpt><trkpt lat="45.50091470462664" lon="10.782767000449281"><ele>160.0</ele><time>2026-03-28T13:00:07.001Z</time></trkpt><trkpt lat="45.5010187518868" lon="10.782755649632191"><ele>160.0</ele><time>2026-03-28T13:00:08.001Z</time></trkpt><trkpt lat="45.501130586106235" lon="10.78274219588669"><ele>160.0</ele><time>2026-03-28T13:00:09.001Z</time></trkpt><trkpt lat="45.501251272576795" lon="10.782721560585205"><ele>160.0</ele><time>2026-03-28T13:00:10.001Z</time></trkpt><trkpt lat="45.50134822271879" lon="10.78270420026739"><ele>160.2</ele><time>2026-03-28T13:00:11.001Z</time></trkpt><trkpt lat="45.501435392865815" lon="10.782684254037752"><ele>160.4</ele><time>2026-03-28T13:00:12.001Z</time></trkpt><trkpt lat="45.50151294215152" lon="10.78266926486563"><ele>160.60000000000002</ele><time>2026-03-28T13:00:13.001Z</time></trkpt><trkpt lat="45.50159364202915" lon="10.782658525710753"><ele>160.8</ele><time>2026-03-28T13:00:14.001Z</time></trkpt><trkpt lat="45.501692721095225" lon="10.782670283197572"><ele>161.0</ele><time>2026-03-28T13:00:15.001Z</time></trkpt><trkpt lat="45.50179415202045" lon="10.782709466321254"><ele>161.0</ele><time>2026-03-28T13:00:16.001Z</time></trkpt><trkpt lat="45.501891944240796" lon="10.782747898801754"><ele>161.0</ele><time>2026-03-28T13:00:17.001Z</time></trkpt><trkpt lat="45.50197848457234" lon="10.782796307220064"><ele>161.0</ele><time>2026-03-28T13:00:18.001Z</time></trkpt><trkpt lat="45.50205364682192" lon="10.782854224104293"><ele>161.0</ele><time>2026-03-28T13:00:19.001Z</time></trkpt><trkpt lat="45.5021350623343" lon="10.782914414906518"><ele>161.0</ele><time>2026-03-28T13:00:20.001Z</time></trkpt><trkpt lat="45.502205777039535" lon="10.78295643615832"><ele>161.0</ele><time>2026-03-28T13:00:21.001Z</time></trkpt><trkpt lat="45.50228086439398" lon="10.782985427611893"><ele>160.0</ele><time>2026-03-28T13:00:22.001Z</time></trkpt><trkpt lat="45.50235739328567" lon="10.783001686223878"><ele>159.0</ele><time>2026-03-28T13:00:23.001Z</time></trkpt><trkpt lat="45.50244563622787" lon="10.782990552926202"><ele>158.0</ele><time>2026-03-28T13:00:24.001Z</time></trkpt><trkpt lat="45.502551975623604" lon="10.782969643455859"><ele>157.0</ele><time>2026-03-28T13:00:25.001Z</time></trkpt><trkpt lat="45.50265563959647" lon="10.78295831610267"><ele>156.0</ele><time>2026-03-28T13:00:26.001Z</time></trkpt><trkpt lat="45.50273494544411" lon="10.782945554361604"><ele>156.0</ele><time>2026-03-28T13:00:27.001Z</time></trkpt><trkpt lat="45.502802033028935" lon="10.782935516952193"><ele>156.0</ele><time>2026-03-28T13:00:28.001Z</time></trkpt><trkpt lat="45.50291370900001" lon="10.782970322098938"><ele>156.0</ele><time>2026-03-28T13:00:30.001Z</time></trkpt><trkpt lat="45.50299859497276" lon="10.783004710615382"><ele>156.0</ele><time>2026-03-28T13:00:31.001Z</time></trkpt><trkpt lat="45.50309052774744" lon="10.783025169561993"><ele>156.0</ele><time>2026-03-28T13:00:32.001Z</time></trkpt><trkpt lat="45.50318530878044" lon="10.783023282096009"><ele>155.4</ele><time>2026-03-28T13:00:33.001Z</time></trkpt><trkpt lat="45.503280683346404" lon="10.783022839732892"><ele>154.8</ele><time>2026-03-28T13:00:34.001Z</time></trkpt><trkpt lat="45.50337953868964" lon="10.783079054930406"><ele>154.20000000000002</ele><time>2026-03-28T13:00:35.001Z</time></trkpt><trkpt lat="45.5034702189057" lon="10.783109051668479"><ele>153.6</ele><time>2026-03-28T13:00:36.001Z</time></trkpt><trkpt lat="45.50356528407131" lon="10.783102095753762"><ele>153.0</ele><time>2026-03-28T13:00:37.001Z</time></trkpt><trkpt lat="45.5036450122958" lon="10.783092898338662"><ele>153.0</ele><time>2026-03-28T13:00:38.001Z</time></trkpt><trkpt lat="45.50373771569819" lon="10.783067655220604"><ele>153.0</ele><time>2026-03-28T13:00:39.001Z</time></trkpt><trkpt lat="45.503839438404" lon="10.783045158900595"><ele>153.0</ele><time>2026-03-28T13:00:40.001Z</time></trkpt><trkpt lat="45.5039433033121" lon="10.783043951268716"><ele>153.0</ele><time>2026-03-28T13:00:41.001Z</time></trkpt><trkpt lat="45.50403735901127" lon="10.783033142750078"><ele>153.0</ele><time>2026-03-28T13:00:42.001Z</time></trkpt><trkpt lat="45.50415521706721" lon="10.783019598969661"><ele>152.8</ele><time>2026-03-28T13:00:43.001Z</time></trkpt><trkpt lat="45.504269145585965" lon="10.78298303985616"><ele>152.60000000000002</ele><time>2026-03-28T13:00:44.001Z</time></trkpt><trkpt lat="45.50436522287763" lon="10.782978251647158"><ele>152.39999999999998</ele><time>2026-03-28T13:00:45.001Z</time></trkpt><trkpt lat="45.504437123963164" lon="10.78297446707724"><ele>152.2</ele><time>2026-03-28T13:00:46.001Z</time></trkpt><trkpt lat="45.50455111819588" lon="10.783011807125"><ele>152.0</ele><time>2026-03-28T13:00:48.001Z</time></trkpt><trkpt lat="45.504615479414944" lon="10.783078964322625"><ele>152.0</ele><time>2026-03-28T13:00:49.001Z</time></trkpt><trkpt lat="45.504677425676725" lon="10.783134995705488"><ele>152.0</ele><time>2026-03-28T13:00:50.001Z</time></trkpt><trkpt lat="45.504778582454975" lon="10.783183587741306"><ele>152.0</ele><time>2026-03-28T13:00:52.001Z</time></trkpt><trkpt lat="45.50485087834685" lon="10.783189283294577"><ele>152.0</ele><time>2026-03-28T13:00:53.001Z</time></trkpt><trkpt lat="45.50493790555268" lon="10.783180055826449"><ele>152.0</ele><time>2026-03-28T13:00:54.001Z</time></trkpt><trkpt lat="45.505034297060924" lon="10.78317011644735"><ele>152.0</ele><time>2026-03-28T13:00:55.001Z</time></trkpt><trkpt lat="45.50510421947726" lon="10.783167915862549"><ele>152.0</ele><time>2026-03-28T13:00:56.001Z</time></trkpt><trkpt lat="45.50517280792865" lon="10.783209869743892"><ele>152.0</ele><time>2026-03-28T13:00:58.001Z</time></trkpt><trkpt lat="45.50520875145522" lon="10.783310725118241"><ele>152.0</ele><time>2026-03-28T13:00:59.001Z</time></trkpt><trkpt lat="45.50518407936207" lon="10.783467584261158"><ele>152.0</ele><time>2026-03-28T13:01:00.001Z</time></trkpt><trkpt lat="45.505195530055744" lon="10.7836244343375"><ele>152.0</ele><time>2026-03-28T13:01:01.001Z</time></trkpt><trkpt lat="45.5052159413329" lon="10.783802240011456"><ele>151.79999999999998</ele><time>2026-03-28T13:01:02.001Z</time></trkpt><trkpt lat="45.50522588240846" lon="10.783959943223236"><ele>151.6</ele><time>2026-03-28T13:01:03.001Z</time></trkpt><trkpt lat="45.505223918713924" lon="10.784091735784997"><ele>151.39999999999998</ele><time>2026-03-28T13:01:04.001Z</time></trkpt><trkpt lat="45.50522568090541" lon="10.784218262115887"><ele>151.2</ele><time>2026-03-28T13:01:05.001Z</time></trkpt><trkpt lat="45.505214087768785" lon="10.784334146978924"><ele>151.0</ele><time>2026-03-28T13:01:06.001Z</time></trkpt><trkpt lat="45.50524349988408" lon="10.78447273131855"><ele>150.75</ele><time>2026-03-28T13:01:07.001Z</time></trkpt><trkpt lat="45.50530890456378" lon="10.784626221958181"><ele>150.5</ele><time>2026-03-28T13:01:08.001Z</time></trkpt><trkpt lat="45.50532578417701" lon="10.784798706221514"><ele>150.25</ele><time>2026-03-28T13:01:09.001Z</time></trkpt><trkpt lat="45.50534681573959" lon="10.784994276687026"><ele>150.0</ele><time>2026-03-28T13:01:10.001Z</time></trkpt><trkpt lat="45.50537987313176" lon="10.785175616131188"><ele>149.66666666666666</ele><time>2026-03-28T13:01:11.001Z</time></trkpt><trkpt lat="45.505404321767216" lon="10.785393318797789"><ele>149.33333333333331</ele><time>2026-03-28T13:01:12.001Z</time></trkpt><trkpt lat="45.50543098287146" lon="10.785611540175829"><ele>149.0</ele><time>2026-03-28T13:01:13.001Z</time></trkpt><trkpt lat="45.505458089606954" lon="10.785849071481003"><ele>148.66666666666666</ele><time>2026-03-28T13:01:14.001Z</time></trkpt><trkpt lat="45.50548355340701" lon="10.786063997538822"><ele>148.33333333333334</ele><time>2026-03-28T13:01:15.001Z</time></trkpt><trkpt lat="45.50550851693349" lon="10.786296939008587"><ele>148.0</ele><time>2026-03-28T13:01:16.001Z</time></trkpt><trkpt lat="45.50553676561009" lon="10.786523175394093"><ele>148.0</ele><time>2026-03-28T13:01:17.001Z</time></trkpt><trkpt lat="45.50556141331118" lon="10.786741574168376"><ele>148.0</ele><time>2026-03-28T13:01:18.001Z</time></trkpt><trkpt lat="45.50559653817748" lon="10.78698309225744"><ele>148.0</ele><time>2026-03-28T13:01:19.001Z</time></trkpt><trkpt lat="45.50561566623226" lon="10.787173944543763"><ele>147.33333333333334</ele><time>2026-03-28T13:01:20.001Z</time></trkpt><trkpt lat="45.50562813097182" lon="10.787388457939542"><ele>146.66666666666666</ele><time>2026-03-28T13:01:21.001Z</time></trkpt><trkpt lat="45.505681100917485" lon="10.78762570169533"><ele>146.0</ele><time>2026-03-28T13:01:22.001Z</time></trkpt><trkpt lat="45.50570842116506" lon="10.787828446309813"><ele>146.0</ele><time>2026-03-28T13:01:23.001Z</time></trkpt><trkpt lat="45.5057271091014" lon="10.787986081376866"><ele>146.0</ele><time>2026-03-28T13:01:24.001Z</time></trkpt><trkpt lat="45.505737069377155" lon="10.788131685055976"><ele>146.0</ele><time>2026-03-28T13:01:25.001Z</time></trkpt><trkpt lat="45.50575893294096" lon="10.788278938931963"><ele>146.0</ele><time>2026-03-28T13:01:26.001Z</time></trkpt><trkpt lat="45.505771650435655" lon="10.788396197689837"><ele>146.0</ele><time>2026-03-28T13:01:27.001Z</time></trkpt><trkpt lat="45.50579995700548" lon="10.788484943128447"><ele>145.8</ele><time>2026-03-28T13:01:28.001Z</time></trkpt><trkpt lat="45.505876585047325" lon="10.788614831707484"><ele>145.6</ele><time>2026-03-28T13:01:29.001Z</time></trkpt><trkpt lat="45.505929639272246" lon="10.788719299729703"><ele>145.4</ele><time>2026-03-28T13:01:30.001Z</time></trkpt><trkpt lat="45.505950094832606" lon="10.78882029276455"><ele>145.2</ele><time>2026-03-28T13:01:31.001Z</time></trkpt><trkpt lat="45.50596632536244" lon="10.788966333803625"><ele>145.0</ele><time>2026-03-28T13:01:32.001Z</time></trkpt><trkpt lat="45.50601374658907" lon="10.789118938952324"><ele>145.0</ele><time>2026-03-28T13:01:33.001Z</time></trkpt><trkpt lat="45.50604869794242" lon="10.789271450002415"><ele>145.0</ele><time>2026-03-28T13:01:34.001Z</time></trkpt><trkpt lat="45.506076335482824" lon="10.78940727581127"><ele>145.0</ele><time>2026-03-28T13:01:35.001Z</time></trkpt><trkpt lat="45.50610911164029" lon="10.789547460278252"><ele>145.0</ele><time>2026-03-28T13:01:36.001Z</time></trkpt><trkpt lat="45.506139692828526" lon="10.789676883160812"><ele>145.0</ele><time>2026-03-28T13:01:37.001Z</time></trkpt><trkpt lat="45.50616032299906" lon="10.789784486204693"><ele>145.6</ele><time>2026-03-28T13:01:38.001Z</time></trkpt><trkpt lat="45.50618860580291" lon="10.789914076943491"><ele>146.2</ele><time>2026-03-28T13:01:39.001Z</time></trkpt><trkpt lat="45.506199692897084" lon="10.790051037733537"><ele>146.8</ele><time>2026-03-28T13:01:40.001Z</time></trkpt><trkpt lat="45.5062391715137" lon="10.79020087752932"><ele>147.4</ele><time>2026-03-28T13:01:41.001Z</time></trkpt><trkpt lat="45.50624627813719" lon="10.790380931429096"><ele>148.0</ele><time>2026-03-28T13:01:42.001Z</time></trkpt><trkpt lat="45.5062750521658" lon="10.79051470659789"><ele>148.0</ele><time>2026-03-28T13:01:43.001Z</time></trkpt><trkpt lat="45.50627217924546" lon="10.790655694853935"><ele>148.0</ele><time>2026-03-28T13:01:44.001Z</time></trkpt><trkpt lat="45.50628550834432" lon="10.790803915070658"><ele>148.0</ele><time>2026-03-28T13:01:45.001Z</time></trkpt><trkpt lat="45.50630041101311" lon="10.790969634828846"><ele>148.0</ele><time>2026-03-28T13:01:46.001Z</time></trkpt><trkpt lat="45.506313837887795" lon="10.79114360072244"><ele>148.0</ele><time>2026-03-28T13:01:47.001Z</time></trkpt><trkpt lat="45.50634129370564" lon="10.79131750470218"><ele>148.20000000000002</ele><time>2026-03-28T13:01:48.001Z</time></trkpt><trkpt lat="45.50634880292533" lon="10.791444862478409"><ele>148.4</ele><time>2026-03-28T13:01:49.001Z</time></trkpt><trkpt lat="45.50634183396539" lon="10.791558991625095"><ele>148.60000000000002</ele><time>2026-03-28T13:01:50.001Z</time></trkpt><trkpt lat="45.50635340296037" lon="10.79168113096534"><ele>148.8</ele><time>2026-03-28T13:01:51.001Z</time></trkpt><trkpt lat="45.506379139429484" lon="10.791823750110801"><ele>149.0</ele><time>2026-03-28T13:01:52.001Z</time></trkpt><trkpt lat="45.50638812465372" lon="10.791959380007496"><ele>149.0</ele><time>2026-03-28T13:01:53.001Z</time></trkpt><trkpt lat="45.506422246113615" lon="10.79208115917087"><ele>149.0</ele><time>2026-03-28T13:01:54.001Z</time></trkpt><trkpt lat="45.50644410192921" lon="10.792195370944668"><ele>149.0</ele><time>2026-03-28T13:01:55.001Z</time></trkpt><trkpt lat="45.5064769260854" lon="10.792342949667798"><ele>149.0</ele><time>2026-03-28T13:01:56.001Z</time></trkpt><trkpt lat="45.50652164273896" lon="10.792484315298882"><ele>149.0</ele><time>2026-03-28T13:01:57.001Z</time></trkpt><trkpt lat="45.50655728652004" lon="10.792622746371658"><ele>149.2</ele><time>2026-03-28T13:01:58.001Z</time></trkpt><trkpt lat="45.50656754504615" lon="10.792740386392413"><ele>149.4</ele><time>2026-03-28T13:01:59.001Z</time></trkpt><trkpt lat="45.50659220108101" lon="10.792851766881542"><ele>149.6</ele><time>2026-03-28T13:02:00.001Z</time></trkpt><trkpt lat="45.506626808749665" lon="10.792964609010035"><ele>149.8</ele><time>2026-03-28T13:02:01.001Z</time></trkpt><trkpt lat="45.506621635009154" lon="10.793096703501183"><ele>150.0</ele><time>2026-03-28T13:02:02.001Z</time></trkpt><trkpt lat="45.50662075497778" lon="10.79325097456329"><ele>150.0</ele><time>2026-03-28T13:02:03.001Z</time></trkpt><trkpt lat="45.50661836360418" lon="10.793430918907406"><ele>150.0</ele><time>2026-03-28T13:02:04.001Z</time></trkpt><trkpt lat="45.506612908028394" lon="10.793619013473306"><ele>150.0</ele><time>2026-03-28T13:02:05.001Z</time></trkpt><trkpt lat="45.506602832588776" lon="10.793810912104119"><ele>150.0</ele><time>2026-03-28T13:02:06.001Z</time></trkpt><trkpt lat="45.50660529826924" lon="10.794005054523671"><ele>150.25</ele><time>2026-03-28T13:02:07.001Z</time></trkpt><trkpt lat="45.50658770818681" lon="10.794216475580248"><ele>150.5</ele><time>2026-03-28T13:02:08.001Z</time></trkpt><trkpt lat="45.506572432928195" lon="10.794395071653023"><ele>150.75</ele><time>2026-03-28T13:02:09.001Z</time></trkpt><trkpt lat="45.5065608350146" lon="10.79455553659359"><ele>151.0</ele><time>2026-03-28T13:02:10.001Z</time></trkpt><trkpt lat="45.5065518555129" lon="10.794697339315173"><ele>151.0</ele><time>2026-03-28T13:02:11.001Z</time></trkpt><trkpt lat="45.5065464820172" lon="10.794828445223944"><ele>151.0</ele><time>2026-03-28T13:02:12.001Z</time></trkpt><trkpt lat="45.50654475426829" lon="10.794939667770064"><ele>151.0</ele><time>2026-03-28T13:02:13.001Z</time></trkpt><trkpt lat="45.50654330484182" lon="10.7950375841522"><ele>151.0</ele><time>2026-03-28T13:02:14.001Z</time></trkpt><trkpt lat="45.506536292374506" lon="10.795167561377053"><ele>151.0</ele><time>2026-03-28T13:02:16.001Z</time></trkpt><trkpt lat="45.506484138366" lon="10.795273909056066"><ele>151.0</ele><time>2026-03-28T13:02:18.001Z</time></trkpt><trkpt lat="45.506500586415314" lon="10.795369374219456"><ele>150.83333333333334</ele><time>2026-03-28T13:02:22.001Z</time></trkpt><trkpt lat="45.50659225999635" lon="10.795339701505819"><ele>150.66666666666669</ele><time>2026-03-28T13:02:24.001Z</time></trkpt><trkpt lat="45.5066590917701" lon="10.795355956973555"><ele>150.5</ele><time>2026-03-28T13:02:25.001Z</time></trkpt><trkpt lat="45.50671493162954" lon="10.795408999779944"><ele>150.33333333333334</ele><time>2026-03-28T13:02:26.001Z</time></trkpt><trkpt lat="45.50677207183647" lon="10.795462894246294"><ele>150.16666666666666</ele><time>2026-03-28T13:02:27.001Z</time></trkpt><trkpt lat="45.50685189763197" lon="10.79546330245215"><ele>150.0</ele><time>2026-03-28T13:02:28.001Z</time></trkpt><trkpt lat="45.50691336150243" lon="10.795397655992637"><ele>150.25</ele><time>2026-03-28T13:02:29.001Z</time></trkpt><trkpt lat="45.50695327773358" lon="10.795151728327264"><ele>150.5</ele><time>2026-03-28T13:02:31.001Z</time></trkpt><trkpt lat="45.506925493893256" lon="10.794982177710276"><ele>150.75</ele><time>2026-03-28T13:02:32.001Z</time></trkpt><trkpt lat="45.50686051268025" lon="10.794866574424885"><ele>151.0</ele><time>2026-03-28T13:02:33.001Z</time></trkpt><trkpt lat="45.5069936541954" lon="10.794701082550887"><ele>151.0</ele><time>2026-03-28T13:02:34.001Z</time></trkpt><trkpt lat="45.507087134853315" lon="10.794603256443486"><ele>151.0</ele><time>2026-03-28T13:02:35.001Z</time></trkpt><trkpt lat="45.507188791672824" lon="10.79446090083402"><ele>151.0</ele><time>2026-03-28T13:02:36.001Z</time></trkpt><trkpt lat="45.50730874694638" lon="10.794348543625993"><ele>151.0</ele><time>2026-03-28T13:02:37.001Z</time></trkpt><trkpt lat="45.50742734008031" lon="10.794217357789062"><ele>151.0</ele><time>2026-03-28T13:02:38.001Z</time></trkpt><trkpt lat="45.507549751731986" lon="10.794068833384271"><ele>151.0</ele><time>2026-03-28T13:02:39.001Z</time></trkpt><trkpt lat="45.50768070087128" lon="10.7939224068531"><ele>151.0</ele><time>2026-03-28T13:02:40.001Z</time></trkpt><trkpt lat="45.5077940217497" lon="10.793787315611826"><ele>151.0</ele><time>2026-03-28T13:02:41.001Z</time></trkpt><trkpt lat="45.507899115643234" lon="10.793677095754648"><ele>151.0</ele><time>2026-03-28T13:02:42.001Z</time></trkpt><trkpt lat="45.507995547818666" lon="10.793564820083857"><ele>151.0</ele><time>2026-03-28T13:02:43.001Z</time></trkpt><trkpt lat="45.50808474680553" lon="10.793435664277302"><ele>151.0</ele><time>2026-03-28T13:02:44.001Z</time></trkpt><trkpt lat="45.508191156501134" lon="10.793318073500009"><ele>151.0</ele><time>2026-03-28T13:02:45.001Z</time></trkpt><trkpt lat="45.50830717565235" lon="10.793212539456883"><ele>151.0</ele><time>2026-03-28T13:02:46.001Z</time></trkpt><trkpt lat="45.508424747627146" lon="10.793081233177443"><ele>151.0</ele><time>2026-03-28T13:02:47.001Z</time></trkpt><trkpt lat="45.50854684115823" lon="10.792944877002316"><ele>151.0</ele><time>2026-03-28T13:02:48.001Z</time></trkpt><trkpt lat="45.5086639358163" lon="10.792813506394381"><ele>151.25</ele><time>2026-03-28T13:02:49.001Z</time></trkpt><trkpt lat="45.508772825235106" lon="10.792689889468042"><ele>151.5</ele><time>2026-03-28T13:02:50.001Z</time></trkpt><trkpt lat="45.50887185718748" lon="10.792578933983911"><ele>151.75</ele><time>2026-03-28T13:02:51.001Z</time></trkpt><trkpt lat="45.50896651871429" lon="10.792444384805616"><ele>152.0</ele><time>2026-03-28T13:02:52.001Z</time></trkpt><trkpt lat="45.509071310876834" lon="10.792328756078042"><ele>152.0</ele><time>2026-03-28T13:02:53.001Z</time></trkpt><trkpt lat="45.50917047062375" lon="10.792203896731731"><ele>152.0</ele><time>2026-03-28T13:02:54.001Z</time></trkpt><trkpt lat="45.50925852451183" lon="10.792059851408146"><ele>152.0</ele><time>2026-03-28T13:02:55.001Z</time></trkpt><trkpt lat="45.50933605691878" lon="10.791884817660549"><ele>152.0</ele><time>2026-03-28T13:02:56.001Z</time></trkpt><trkpt lat="45.50939934381135" lon="10.791697587887443"><ele>151.66666666666666</ele><time>2026-03-28T13:02:57.001Z</time></trkpt><trkpt lat="45.50946106605608" lon="10.791470638271496"><ele>151.33333333333334</ele><time>2026-03-28T13:02:58.001Z</time></trkpt><trkpt lat="45.50954227780457" lon="10.791195251064305"><ele>151.0</ele><time>2026-03-28T13:02:59.001Z</time></trkpt><trkpt lat="45.50958339019093" lon="10.790905022925509"><ele>151.66666666666669</ele><time>2026-03-28T13:03:00.001Z</time></trkpt><trkpt lat="45.50961763315281" lon="10.790643731427835"><ele>152.33333333333334</ele><time>2026-03-28T13:03:01.001Z</time></trkpt><trkpt lat="45.50962459868397" lon="10.790384007984466"><ele>153.0</ele><time>2026-03-28T13:03:02.001Z</time></trkpt><trkpt lat="45.50960614696405" lon="10.790121843376639"><ele>153.33333333333334</ele><time>2026-03-28T13:03:03.001Z</time></trkpt><trkpt lat="45.509584660351926" lon="10.789870264170727"><ele>153.66666666666669</ele><time>2026-03-28T13:03:04.001Z</time></trkpt><trkpt lat="45.50959937791162" lon="10.789633574951136"><ele>154.0</ele><time>2026-03-28T13:03:05.001Z</time></trkpt><trkpt lat="45.50960182447288" lon="10.789421260522227"><ele>153.33333333333334</ele><time>2026-03-28T13:03:06.001Z</time></trkpt><trkpt lat="45.50961734735799" lon="10.789193817686078"><ele>152.66666666666666</ele><time>2026-03-28T13:03:07.001Z</time></trkpt><trkpt lat="45.509644460343594" lon="10.788946236363323"><ele>152.0</ele><time>2026-03-28T13:03:08.001Z</time></trkpt><trkpt lat="45.50968043165716" lon="10.78872386614277"><ele>152.0</ele><time>2026-03-28T13:03:09.001Z</time></trkpt><trkpt lat="45.50969902920954" lon="10.788517347411698"><ele>152.0</ele><time>2026-03-28T13:03:10.001Z</time></trkpt><trkpt lat="45.50973712477809" lon="10.788337986278313"><ele>152.0</ele><time>2026-03-28T13:03:11.001Z</time></trkpt><trkpt lat="45.509765376962186" lon="10.788148778305919"><ele>152.0</ele><time>2026-03-28T13:03:12.001Z</time></trkpt><trkpt lat="45.5097787120544" lon="10.787969343163988"><ele>151.75</ele><time>2026-03-28T13:03:13.001Z</time></trkpt><trkpt lat="45.50977001366363" lon="10.787787379108924"><ele>151.5</ele><time>2026-03-28T13:03:14.001Z</time></trkpt><trkpt lat="45.50974185333008" lon="10.787595219095904"><ele>151.25</ele><time>2026-03-28T13:03:15.001Z</time></trkpt><trkpt lat="45.50971095004972" lon="10.787403968354592"><ele>151.0</ele><time>2026-03-28T13:03:16.001Z</time></trkpt><trkpt lat="45.509687482905875" lon="10.787232722132103"><ele>151.2</ele><time>2026-03-28T13:03:17.001Z</time></trkpt><trkpt lat="45.50966009537889" lon="10.787074284148153"><ele>151.39999999999998</ele><time>2026-03-28T13:03:18.001Z</time></trkpt><trkpt lat="45.50963416611137" lon="10.786927594166144"><ele>151.6</ele><time>2026-03-28T13:03:19.001Z</time></trkpt><trkpt lat="45.50960246015573" lon="10.78680177726717"><ele>151.79999999999998</ele><time>2026-03-28T13:03:20.001Z</time></trkpt><trkpt lat="45.50957598613481" lon="10.786656957177554"><ele>152.0</ele><time>2026-03-28T13:03:21.001Z</time></trkpt><trkpt lat="45.50962391586706" lon="10.786501916660837"><ele>152.0</ele><time>2026-03-28T13:03:22.001Z</time></trkpt><trkpt lat="45.50960888501264" lon="10.786366725045434"><ele>152.0</ele><time>2026-03-28T13:03:23.001Z</time></trkpt><trkpt lat="45.50957924763147" lon="10.786248246056326"><ele>152.0</ele><time>2026-03-28T13:03:24.001Z</time></trkpt><trkpt lat="45.50953436330578" lon="10.786137680812834"><ele>152.0</ele><time>2026-03-28T13:03:25.001Z</time></trkpt><trkpt lat="45.50951372921552" lon="10.785985771247798"><ele>152.0</ele><time>2026-03-28T13:03:26.001Z</time></trkpt><trkpt lat="45.509502484694345" lon="10.785807025211982"><ele>152.0</ele><time>2026-03-28T13:03:27.001Z</time></trkpt><trkpt lat="45.509495295759315" lon="10.785607773987262"><ele>152.0</ele><time>2026-03-28T13:03:28.001Z</time></trkpt><trkpt lat="45.50951403343649" lon="10.785407481386516"><ele>152.0</ele><time>2026-03-28T13:03:29.001Z</time></trkpt><trkpt lat="45.509510674116434" lon="10.785231390715124"><ele>152.0</ele><time>2026-03-28T13:03:30.001Z</time></trkpt><trkpt lat="45.5095155284809" lon="10.78509063472221"><ele>152.25</ele><time>2026-03-28T13:03:31.001Z</time></trkpt><trkpt lat="45.50952773127023" lon="10.784981211828786"><ele>152.5</ele><time>2026-03-28T13:03:32.001Z</time></trkpt><trkpt lat="45.50958449960056" lon="10.784860402088684"><ele>152.75</ele><time>2026-03-28T13:03:34.001Z</time></trkpt><trkpt lat="45.50973300301351" lon="10.784855298284148"><ele>153.0</ele><time>2026-03-28T13:03:36.001Z</time></trkpt><trkpt lat="45.50985939641274" lon="10.78485418392936"><ele>153.0</ele><time>2026-03-28T13:03:37.001Z</time></trkpt><trkpt lat="45.510006216735555" lon="10.784858682240689"><ele>153.0</ele><time>2026-03-28T13:03:38.001Z</time></trkpt><trkpt lat="45.51017490196793" lon="10.784876899375314"><ele>153.0</ele><time>2026-03-28T13:03:39.001Z</time></trkpt><trkpt lat="45.51035538793597" lon="10.78488883187342"><ele>153.66666666666666</ele><time>2026-03-28T13:03:40.001Z</time></trkpt><trkpt lat="45.51053314115802" lon="10.784906460152548"><ele>154.33333333333331</ele><time>2026-03-28T13:03:41.001Z</time></trkpt><trkpt lat="45.51069829035819" lon="10.784934394136702"><ele>155.0</ele><time>2026-03-28T13:03:42.001Z</time></trkpt><trkpt lat="45.510858149614826" lon="10.784957472147186"><ele>155.0</ele><time>2026-03-28T13:03:43.001Z</time></trkpt><trkpt lat="45.51101131314813" lon="10.784972249820248"><ele>155.0</ele><time>2026-03-28T13:03:44.001Z</time></trkpt><trkpt lat="45.5111488693968" lon="10.784979519310795"><ele>155.0</ele><time>2026-03-28T13:03:45.001Z</time></trkpt><trkpt lat="45.51127077532494" lon="10.784989897564202"><ele>155.0</ele><time>2026-03-28T13:03:46.001Z</time></trkpt><trkpt lat="45.51139419531261" lon="10.78499146316702"><ele>155.4</ele><time>2026-03-28T13:03:47.001Z</time></trkpt><trkpt lat="45.511524415552394" lon="10.784995363728749"><ele>155.8</ele><time>2026-03-28T13:03:48.001Z</time></trkpt><trkpt lat="45.51164123611137" lon="10.785009659693117"><ele>156.2</ele><time>2026-03-28T13:03:49.001Z</time></trkpt><trkpt lat="45.5117323455263" lon="10.785009508160819"><ele>156.6</ele><time>2026-03-28T13:03:50.001Z</time></trkpt><trkpt lat="45.51182323186621" lon="10.785025161296476"><ele>157.0</ele><time>2026-03-28T13:03:51.001Z</time></trkpt><trkpt lat="45.5119043618525" lon="10.785032376940752"><ele>157.0</ele><time>2026-03-28T13:03:52.001Z</time></trkpt><trkpt lat="45.51198136230732" lon="10.785015785845452"><ele>157.0</ele><time>2026-03-28T13:03:53.001Z</time></trkpt><trkpt lat="45.51205943575237" lon="10.784990077221027"><ele>157.0</ele><time>2026-03-28T13:03:54.001Z</time></trkpt><trkpt lat="45.512146282447205" lon="10.784981304500876"><ele>157.0</ele><time>2026-03-28T13:03:55.001Z</time></trkpt><trkpt lat="45.51221069211525" lon="10.784983358162863"><ele>157.0</ele><time>2026-03-28T13:03:56.001Z</time></trkpt><trkpt lat="45.512301265900135" lon="10.784979563128188"><ele>157.0</ele><time>2026-03-28T13:03:58.001Z</time></trkpt><trkpt lat="45.51240704563677" lon="10.784971971759642"><ele>157.2</ele><time>2026-03-28T13:04:00.001Z</time></trkpt><trkpt lat="45.51252765223815" lon="10.78496766741079"><ele>157.39999999999998</ele><time>2026-03-28T13:04:02.001Z</time></trkpt><trkpt lat="45.51264026670297" lon="10.784959803882115"><ele>157.60000000000002</ele><time>2026-03-28T13:04:04.001Z</time></trkpt><trkpt lat="45.51274253511243" lon="10.784951567348775"><ele>157.8</ele><time>2026-03-28T13:04:06.001Z</time></trkpt><trkpt lat="45.51281745689786" lon="10.784939259245004"><ele>158.0</ele><time>2026-03-28T13:04:07.001Z</time></trkpt><trkpt lat="45.5129232656788" lon="10.78493541903958"><ele>158.0</ele><time>2026-03-28T13:04:08.001Z</time></trkpt><trkpt lat="45.51303957211748" lon="10.784915200330424"><ele>158.0</ele><time>2026-03-28T13:04:09.001Z</time></trkpt><trkpt lat="45.5131443390751" lon="10.784899274920573"><ele>158.0</ele><time>2026-03-28T13:04:10.001Z</time></trkpt><trkpt lat="45.51320839935269" lon="10.78488203175908"><ele>158.0</ele><time>2026-03-28T13:04:11.001Z</time></trkpt><trkpt lat="45.51328424966538" lon="10.78487465053384"><ele>158.0</ele><time>2026-03-28T13:04:14.001Z</time></trkpt><trkpt lat="45.51309688965225" lon="10.784889940879582"><ele>158.0</ele><time>2026-03-28T13:04:33.001Z</time></trkpt><trkpt lat="45.51297930072531" lon="10.784917333254755"><ele>158.0</ele><time>2026-03-28T13:04:34.001Z</time></trkpt><trkpt lat="45.512825587558766" lon="10.784937068291592"><ele>158.0</ele><time>2026-03-28T13:04:35.001Z</time></trkpt><trkpt lat="45.51265344590657" lon="10.784951988218374"><ele>158.0</ele><time>2026-03-28T13:04:36.001Z</time></trkpt><trkpt lat="45.51249694212531" lon="10.784963823641776"><ele>157.75</ele><time>2026-03-28T13:04:37.001Z</time></trkpt><trkpt lat="45.512351154871475" lon="10.784971678988416"><ele>157.5</ele><time>2026-03-28T13:04:38.001Z</time></trkpt><trkpt lat="45.512215174368706" lon="10.784980821818362"><ele>157.25</ele><time>2026-03-28T13:04:39.001Z</time></trkpt><trkpt lat="45.51210697863328" lon="10.784990676619532"><ele>157.0</ele><time>2026-03-28T13:04:40.001Z</time></trkpt><trkpt lat="45.51203186502386" lon="10.784991547380237"><ele>157.0</ele><time>2026-03-28T13:04:41.001Z</time></trkpt><trkpt lat="45.51197660476294" lon="10.78492601662855"><ele>157.0</ele><time>2026-03-28T13:04:43.001Z</time></trkpt><trkpt lat="45.51200604498843" lon="10.784733666140475"><ele>157.0</ele><time>2026-03-28T13:04:45.001Z</time></trkpt><trkpt lat="45.51200606589245" lon="10.784625125341291"><ele>157.0</ele><time>2026-03-28T13:04:46.001Z</time></trkpt><trkpt lat="45.51200221022053" lon="10.784443858851123"><ele>157.0</ele><time>2026-03-28T13:04:48.001Z</time></trkpt><trkpt lat="45.51200517680072" lon="10.784346873486134"><ele>157.0</ele><time>2026-03-28T13:04:50.001Z</time></trkpt><trkpt lat="45.51203608319269" lon="10.784089034366998"><ele>157.0</ele><time>2026-03-28T13:04:54.001Z</time></trkpt><trkpt lat="45.512097057964056" lon="10.784011855364291"><ele>157.0</ele><time>2026-03-28T13:04:55.001Z</time></trkpt><trkpt lat="45.51238463310491" lon="10.78440145312288"><ele>156.6</ele><time>2026-03-28T13:04:56.001Z</time></trkpt><trkpt lat="45.512483864440725" lon="10.784398737920515"><ele>156.2</ele><time>2026-03-28T13:04:57.001Z</time></trkpt><trkpt lat="45.512580951875655" lon="10.784402512536195"><ele>155.8</ele><time>2026-03-28T13:04:58.001Z</time></trkpt><trkpt lat="45.51266762264758" lon="10.784391058496102"><ele>155.4</ele><time>2026-03-28T13:04:59.001Z</time></trkpt><trkpt lat="45.51276662954585" lon="10.784390945599322"><ele>155.0</ele><time>2026-03-28T13:05:00.001Z</time></trkpt><trkpt lat="45.512836033480355" lon="10.784385625239388"><ele>155.0</ele><time>2026-03-28T13:05:01.001Z</time></trkpt><trkpt lat="45.51290113088205" lon="10.784382215066984"><ele>155.0</ele><time>2026-03-28T13:05:02.001Z</time></trkpt><trkpt lat="45.51297950960935" lon="10.784383545776361"><ele>155.0</ele><time>2026-03-28T13:05:03.001Z</time></trkpt><trkpt lat="45.51306796230383" lon="10.784374227728543"><ele>155.0</ele><time>2026-03-28T13:05:04.001Z</time></trkpt><trkpt lat="45.513159916281744" lon="10.784366504677783"><ele>155.0</ele><time>2026-03-28T13:05:05.001Z</time></trkpt><trkpt lat="45.513257233927234" lon="10.784361774719708"><ele>155.0</ele><time>2026-03-28T13:05:06.001Z</time></trkpt><trkpt lat="45.51338160224914" lon="10.784353629447542"><ele>155.75</ele><time>2026-03-28T13:05:07.001Z</time></trkpt><trkpt lat="45.51351760245252" lon="10.78433443656625"><ele>156.5</ele><time>2026-03-28T13:05:08.001Z</time></trkpt><trkpt lat="45.513644718400606" lon="10.7843172492333"><ele>157.25</ele><time>2026-03-28T13:05:09.001Z</time></trkpt><trkpt lat="45.513780710761615" lon="10.784303412733523"><ele>158.0</ele><time>2026-03-28T13:05:10.001Z</time></trkpt><trkpt lat="45.51391305161842" lon="10.784278441505146"><ele>159.0</ele><time>2026-03-28T13:05:11.001Z</time></trkpt><trkpt lat="45.51404992945293" lon="10.784257147641371"><ele>160.0</ele><time>2026-03-28T13:05:12.001Z</time></trkpt><trkpt lat="45.51419025460657" lon="10.784236022946255"><ele>161.0</ele><time>2026-03-28T13:05:13.001Z</time></trkpt><trkpt lat="45.51433984651725" lon="10.78420334269621"><ele>162.0</ele><time>2026-03-28T13:05:14.001Z</time></trkpt><trkpt lat="45.51448594014569" lon="10.784176472935128"><ele>162.75</ele><time>2026-03-28T13:05:15.001Z</time></trkpt><trkpt lat="45.5146236452596" lon="10.784148626607397"><ele>163.5</ele><time>2026-03-28T13:05:16.001Z</time></trkpt><trkpt lat="45.51474858820739" lon="10.784119292006762"><ele>164.25</ele><time>2026-03-28T13:05:17.001Z</time></trkpt><trkpt lat="45.51487494100524" lon="10.784089390988614"><ele>165.0</ele><time>2026-03-28T13:05:18.001Z</time></trkpt><trkpt lat="45.51498517850076" lon="10.784066263301076"><ele>165.0</ele><time>2026-03-28T13:05:19.001Z</time></trkpt><trkpt lat="45.515071360496336" lon="10.784048424449201"><ele>165.0</ele><time>2026-03-28T13:05:20.001Z</time></trkpt><trkpt lat="45.515171759476814" lon="10.784023125626492"><ele>165.0</ele><time>2026-03-28T13:05:21.001Z</time></trkpt><trkpt lat="45.51524641257483" lon="10.783997575258761"><ele>165.0</ele><time>2026-03-28T13:05:22.001Z</time></trkpt><trkpt lat="45.51531871901742" lon="10.783962323869982"><ele>165.0</ele><time>2026-03-28T13:05:23.001Z</time></trkpt><trkpt lat="45.51537316735553" lon="10.783905797326131"><ele>165.0</ele><time>2026-03-28T13:05:24.001Z</time></trkpt><trkpt lat="45.51544325316826" lon="10.783817706611947"><ele>165.2</ele><time>2026-03-28T13:05:25.001Z</time></trkpt><trkpt lat="45.51552603983228" lon="10.783756274855117"><ele>165.4</ele><time>2026-03-28T13:05:26.001Z</time></trkpt><trkpt lat="45.51561772165292" lon="10.78370665087411"><ele>165.60000000000002</ele><time>2026-03-28T13:05:27.001Z</time></trkpt><trkpt lat="45.51572074113817" lon="10.78366118430717"><ele>165.8</ele><time>2026-03-28T13:05:28.001Z</time></trkpt><trkpt lat="45.51580638279046" lon="10.783653145124708"><ele>166.0</ele><time>2026-03-28T13:05:29.001Z</time></trkpt><trkpt lat="45.515919040111044" lon="10.783670664864044"><ele>166.0</ele><time>2026-03-28T13:05:30.001Z</time></trkpt><trkpt lat="45.51604354845797" lon="10.783688144696766"><ele>166.0</ele><time>2026-03-28T13:05:31.001Z</time></trkpt><trkpt lat="45.516161947178205" lon="10.783690891096432"><ele>166.0</ele><time>2026-03-28T13:05:32.001Z</time></trkpt><trkpt lat="45.51626372756329" lon="10.78368627166522"><ele>166.0</ele><time>2026-03-28T13:05:33.001Z</time></trkpt><trkpt lat="45.516375586201896" lon="10.783677048951235"><ele>166.4</ele><time>2026-03-28T13:05:34.001Z</time></trkpt><trkpt lat="45.51650337324558" lon="10.783651856733051"><ele>166.8</ele><time>2026-03-28T13:05:35.001Z</time></trkpt><trkpt lat="45.516601907375524" lon="10.783622971923213"><ele>167.20000000000002</ele><time>2026-03-28T13:05:36.001Z</time></trkpt><trkpt lat="45.51668351628114" lon="10.783605530215041"><ele>167.60000000000002</ele><time>2026-03-28T13:05:37.001Z</time></trkpt><trkpt lat="45.516759458764305" lon="10.78358348912749"><ele>168.0</ele><time>2026-03-28T13:05:38.001Z</time></trkpt><trkpt lat="45.516865361692695" lon="10.783540916778412"><ele>168.0</ele><time>2026-03-28T13:05:40.001Z</time></trkpt><trkpt lat="45.51690090512611" lon="10.783425835692896"><ele>168.0</ele><time>2026-03-28T13:05:42.001Z</time></trkpt><trkpt lat="45.51696240217408" lon="10.783458001227155"><ele>168.0</ele><time>2026-03-28T13:05:47.001Z</time></trkpt><trkpt lat="45.51700638878909" lon="10.78353456959609"><ele>168.0</ele><time>2026-03-28T13:05:49.001Z</time></trkpt><trkpt lat="45.51711698902108" lon="10.78352716795948"><ele>168.0</ele><time>2026-03-28T13:05:51.001Z</time></trkpt><trkpt lat="45.51722303689795" lon="10.783499943652282"><ele>168.0</ele><time>2026-03-28T13:05:52Z</time></trkpt><trkpt lat="45.51736708497886" lon="10.783464498033197"><ele>168.0</ele><time>2026-03-28T13:05:53Z</time></trkpt><trkpt lat="45.51752550682118" lon="10.783423754526261"><ele>168.0</ele><time>2026-03-28T13:05:54Z</time></trkpt><trkpt lat="45.51766638768828" lon="10.783383951623726"><ele>168.0</ele><time>2026-03-28T13:05:55Z</time></trkpt><trkpt lat="45.51780253701152" lon="10.78335348327555"><ele>168.0</ele><time>2026-03-28T13:05:56Z</time></trkpt><trkpt lat="45.51791572314216" lon="10.78332114265915"><ele>168.75</ele><time>2026-03-28T13:05:57Z</time></trkpt><trkpt lat="45.51803745718567" lon="10.78328124701601"><ele>169.5</ele><time>2026-03-28T13:05:58Z</time></trkpt><trkpt lat="45.51817296894878" lon="10.783238495177143"><ele>170.25</ele><time>2026-03-28T13:05:59Z</time></trkpt><trkpt lat="45.51832170988106" lon="10.783197179287011"><ele>171.0</ele><time>2026-03-28T13:06:00Z</time></trkpt><trkpt lat="45.51846706212576" lon="10.783154699923932"><ele>171.0</ele><time>2026-03-28T13:06:01Z</time></trkpt><trkpt lat="45.5185913149688" lon="10.78311966045911"><ele>171.0</ele><time>2026-03-28T13:06:02Z</time></trkpt><trkpt lat="45.51873413705307" lon="10.783079565937127"><ele>171.0</ele><time>2026-03-28T13:06:03Z</time></trkpt><trkpt lat="45.51889214806278" lon="10.783038445400239"><ele>171.0</ele><time>2026-03-28T13:06:04Z</time></trkpt><trkpt lat="45.51904985957156" lon="10.782992212440854"><ele>170.0</ele><time>2026-03-28T13:06:05Z</time></trkpt><trkpt lat="45.519214178460984" lon="10.782948857532784"><ele>169.0</ele><time>2026-03-28T13:06:06Z</time></trkpt><trkpt lat="45.51938315213489" lon="10.78290079354512"><ele>168.0</ele><time>2026-03-28T13:06:07Z</time></trkpt><trkpt lat="45.51954949256566" lon="10.782851558503879"><ele>167.66666666666666</ele><time>2026-03-28T13:06:08Z</time></trkpt><trkpt lat="45.51972004149979" lon="10.782810591402017"><ele>167.33333333333331</ele><time>2026-03-28T13:06:09Z</time></trkpt><trkpt lat="45.51988347643179" lon="10.782777481926619"><ele>167.0</ele><time>2026-03-28T13:06:10Z</time></trkpt><trkpt lat="45.52004859643858" lon="10.782743026573131"><ele>167.0</ele><time>2026-03-28T13:06:11Z</time></trkpt><trkpt lat="45.5202171954219" lon="10.782712347445928"><ele>167.0</ele><time>2026-03-28T13:06:12Z</time></trkpt><trkpt lat="45.52038040633034" lon="10.782686185456079"><ele>167.0</ele><time>2026-03-28T13:06:13Z</time></trkpt><trkpt lat="45.52054796620168" lon="10.782653861109084"><ele>166.66666666666666</ele><time>2026-03-28T13:06:14Z</time></trkpt><trkpt lat="45.52073157428801" lon="10.782816421577616"><ele>166.33333333333334</ele><time>2026-03-28T13:06:15Z</time></trkpt><trkpt lat="45.520885401887945" lon="10.782777174448317"><ele>166.0</ele><time>2026-03-28T13:06:16Z</time></trkpt><trkpt lat="45.52104068553882" lon="10.782737809314298"><ele>166.0</ele><time>2026-03-28T13:06:17Z</time></trkpt><trkpt lat="45.521192825018595" lon="10.782699241221207"><ele>166.0</ele><time>2026-03-28T13:06:18Z</time></trkpt><trkpt lat="45.521345342256936" lon="10.782660577418692"><ele>166.0</ele><time>2026-03-28T13:06:19Z</time></trkpt><trkpt lat="45.52150486475734" lon="10.782620137779208"><ele>167.33333333333334</ele><time>2026-03-28T13:06:20Z</time></trkpt><trkpt lat="45.52167840742682" lon="10.782576143861217"><ele>168.66666666666666</ele><time>2026-03-28T13:06:21Z</time></trkpt><trkpt lat="45.52184846875541" lon="10.782532662626881"><ele>170.0</ele><time>2026-03-28T13:06:22Z</time></trkpt><trkpt lat="45.52200650643901" lon="10.782492837535568"><ele>169.33333333333331</ele><time>2026-03-28T13:06:23Z</time></trkpt><trkpt lat="45.522142582419384" lon="10.782458546815691"><ele>168.66666666666666</ele><time>2026-03-28T13:06:24Z</time></trkpt><trkpt lat="45.522300051455595" lon="10.782418865203274"><ele>168.0</ele><time>2026-03-28T13:06:25Z</time></trkpt><trkpt lat="45.52247099611994" lon="10.782375787845632"><ele>168.0</ele><time>2026-03-28T13:06:26Z</time></trkpt><trkpt lat="45.522632287842754" lon="10.78233514267793"><ele>168.0</ele><time>2026-03-28T13:06:27Z</time></trkpt><trkpt lat="45.522777628269445" lon="10.782298517365405"><ele>168.0</ele><time>2026-03-28T13:06:28Z</time></trkpt><trkpt lat="45.522916932838285" lon="10.782263413138088"><ele>167.0</ele><time>2026-03-28T13:06:29Z</time></trkpt><trkpt lat="45.52304915205074" lon="10.782230094374258"><ele>166.0</ele><time>2026-03-28T13:06:30Z</time></trkpt><trkpt lat="45.52318394782755" lon="10.782195451773584"><ele>165.0</ele><time>2026-03-28T13:06:31Z</time></trkpt><trkpt lat="45.523321145836654" lon="10.78216020339122"><ele>164.0</ele><time>2026-03-28T13:06:32Z</time></trkpt><trkpt lat="45.52346092078493" lon="10.782124292741669"><ele>164.0</ele><time>2026-03-28T13:06:33Z</time></trkpt><trkpt lat="45.52360041950983" lon="10.782088453065477"><ele>164.0</ele><time>2026-03-28T13:06:34Z</time></trkpt><trkpt lat="45.52374421689877" lon="10.78205150908043"><ele>164.0</ele><time>2026-03-28T13:06:35Z</time></trkpt><trkpt lat="45.523865025288565" lon="10.78202047137118"><ele>164.0</ele><time>2026-03-28T13:06:36.001Z</time></trkpt><trkpt lat="45.5239706651489" lon="10.781993330723251"><ele>164.0</ele><time>2026-03-28T13:06:37.001Z</time></trkpt><trkpt lat="45.524075455256316" lon="10.781966408298624"><ele>164.0</ele><time>2026-03-28T13:06:38.001Z</time></trkpt><trkpt lat="45.524172300886526" lon="10.781941527002026"><ele>164.0</ele><time>2026-03-28T13:06:39.001Z</time></trkpt><trkpt lat="45.52427012992967" lon="10.781916393059126"><ele>164.0</ele><time>2026-03-28T13:06:40.001Z</time></trkpt><trkpt lat="45.524332285337124" lon="10.781900424256815"><ele>164.0</ele><time>2026-03-28T13:06:41.001Z</time></trkpt><trkpt lat="45.52440407230951" lon="10.781882130236209"><ele>164.0</ele><time>2026-03-28T13:06:43.001Z</time></trkpt><trkpt lat="45.524501890130715" lon="10.78185734994873"><ele>163.0</ele><time>2026-03-28T13:06:45.001Z</time></trkpt><trkpt lat="45.52454431347786" lon="10.78120252719463"><ele>162.5</ele><time>2026-03-28T13:06:47.001Z</time></trkpt><trkpt lat="45.52457612675945" lon="10.78104190385935"><ele>162.0</ele><time>2026-03-28T13:06:48.001Z</time></trkpt><trkpt lat="45.52459196522134" lon="10.78088915208625"><ele>161.5</ele><time>2026-03-28T13:06:49.001Z</time></trkpt><trkpt lat="45.52458870143964" lon="10.780719613266573"><ele>161.0</ele><time>2026-03-28T13:06:50.001Z</time></trkpt><trkpt lat="45.52456716617811" lon="10.78053755492374"><ele>162.0</ele><time>2026-03-28T13:06:51.001Z</time></trkpt><trkpt lat="45.52454019283392" lon="10.780345738361516"><ele>163.0</ele><time>2026-03-28T13:06:52.001Z</time></trkpt><trkpt lat="45.52452574567596" lon="10.780168761036656"><ele>164.0</ele><time>2026-03-28T13:06:53.001Z</time></trkpt><trkpt lat="45.524530781600966" lon="10.780016885583718"><ele>165.0</ele><time>2026-03-28T13:06:54.001Z</time></trkpt><trkpt lat="45.524545079443136" lon="10.779846757934443"><ele>164.0</ele><time>2026-03-28T13:06:55.001Z</time></trkpt><trkpt lat="45.52458489126158" lon="10.779663358354243"><ele>163.0</ele><time>2026-03-28T13:06:56.001Z</time></trkpt><trkpt lat="45.524597967184825" lon="10.779484783502891"><ele>162.0</ele><time>2026-03-28T13:06:57.001Z</time></trkpt><trkpt lat="45.524591481290905" lon="10.779299538925862"><ele>161.0</ele><time>2026-03-28T13:06:58.001Z</time></trkpt><trkpt lat="45.52459147262596" lon="10.779111390379216"><ele>160.75</ele><time>2026-03-28T13:06:59.001Z</time></trkpt><trkpt lat="45.52457578176601" lon="10.778882485460613"><ele>160.5</ele><time>2026-03-28T13:07:00.001Z</time></trkpt><trkpt lat="45.52455299082282" lon="10.778674197340353"><ele>160.25</ele><time>2026-03-28T13:07:01.001Z</time></trkpt><trkpt lat="45.524548267396796" lon="10.778479804182599"><ele>160.0</ele><time>2026-03-28T13:07:02.001Z</time></trkpt><trkpt lat="45.52453275450881" lon="10.778288159285538"><ele>159.75</ele><time>2026-03-28T13:07:03.001Z</time></trkpt><trkpt lat="45.52451608877248" lon="10.77810360051407"><ele>159.5</ele><time>2026-03-28T13:07:04.001Z</time></trkpt><trkpt lat="45.52449719290871" lon="10.777917484287267"><ele>159.25</ele><time>2026-03-28T13:07:05.001Z</time></trkpt><trkpt lat="45.524482229187335" lon="10.777781249591694"><ele>159.0</ele><time>2026-03-28T13:07:06.001Z</time></trkpt><trkpt lat="45.524464560997096" lon="10.777624062451796"><ele>159.0</ele><time>2026-03-28T13:07:07.001Z</time></trkpt><trkpt lat="45.52444444254653" lon="10.777388730779478"><ele>159.0</ele><time>2026-03-28T13:07:08.001Z</time></trkpt><trkpt lat="45.52442595167878" lon="10.777125964508029"><ele>159.0</ele><time>2026-03-28T13:07:09.001Z</time></trkpt><trkpt lat="45.524390992713634" lon="10.776848521660538"><ele>158.75</ele><time>2026-03-28T13:07:10.001Z</time></trkpt><trkpt lat="45.524389651600195" lon="10.77661967370724"><ele>158.5</ele><time>2026-03-28T13:07:11.001Z</time></trkpt><trkpt lat="45.524373605370734" lon="10.77643985261843"><ele>158.25</ele><time>2026-03-28T13:07:12.001Z</time></trkpt><trkpt lat="45.52436278677959" lon="10.776301118653938"><ele>158.0</ele><time>2026-03-28T13:07:13.001Z</time></trkpt><trkpt lat="45.52436164494061" lon="10.77619217230157"><ele>158.0</ele><time>2026-03-28T13:07:14.001Z</time></trkpt><trkpt lat="45.52441581769937" lon="10.77605929399338"><ele>158.0</ele><time>2026-03-28T13:07:16.001Z</time></trkpt><trkpt lat="45.524500190716886" lon="10.77601614704896"><ele>158.0</ele><time>2026-03-28T13:07:17.001Z</time></trkpt><trkpt lat="45.524587393037365" lon="10.775940513484908"><ele>158.0</ele><time>2026-03-28T13:07:18.001Z</time></trkpt><trkpt lat="45.52470738191991" lon="10.775945146882188"><ele>158.0</ele><time>2026-03-28T13:07:19.001Z</time></trkpt><trkpt lat="45.5248433224208" lon="10.775933240628653"><ele>158.0</ele><time>2026-03-28T13:07:20.001Z</time></trkpt><trkpt lat="45.52498940673175" lon="10.775905196050457"><ele>158.0</ele><time>2026-03-28T13:07:21.001Z</time></trkpt><trkpt lat="45.52514964043771" lon="10.77589720490678"><ele>158.0</ele><time>2026-03-28T13:07:22.001Z</time></trkpt><trkpt lat="45.52531091323324" lon="10.775886734180505"><ele>158.0</ele><time>2026-03-28T13:07:23.001Z</time></trkpt><trkpt lat="45.52546464668869" lon="10.775866801534573"><ele>158.0</ele><time>2026-03-28T13:07:24.001Z</time></trkpt><trkpt lat="45.525619301836585" lon="10.775840762339739"><ele>158.0</ele><time>2026-03-28T13:07:25.001Z</time></trkpt><trkpt lat="45.525750895589454" lon="10.775811894873891"><ele>158.0</ele><time>2026-03-28T13:07:26.001Z</time></trkpt><trkpt lat="45.52587730266426" lon="10.77577886972966"><ele>158.0</ele><time>2026-03-28T13:07:27Z</time></trkpt><trkpt lat="45.525989720209516" lon="10.77573528226812"><ele>158.0</ele><time>2026-03-28T13:07:28Z</time></trkpt><trkpt lat="45.52611463950686" lon="10.775682629929552"><ele>158.0</ele><time>2026-03-28T13:07:29Z</time></trkpt><trkpt lat="45.52624505431182" lon="10.775618189459246"><ele>158.0</ele><time>2026-03-28T13:07:30Z</time></trkpt><trkpt lat="45.52637051007468" lon="10.775549614218175"><ele>158.0</ele><time>2026-03-28T13:07:31Z</time></trkpt><trkpt lat="45.5264857403837" lon="10.775501729816808"><ele>158.0</ele><time>2026-03-28T13:07:32Z</time></trkpt><trkpt lat="45.52659036163718" lon="10.775457076148154"><ele>158.0</ele><time>2026-03-28T13:07:33Z</time></trkpt><trkpt lat="45.52670014449484" lon="10.775441807756135"><ele>158.0</ele><time>2026-03-28T13:07:34Z</time></trkpt><trkpt lat="45.526804573188066" lon="10.775457060504765"><ele>158.0</ele><time>2026-03-28T13:07:35Z</time></trkpt><trkpt lat="45.526929072499854" lon="10.775509586970134"><ele>158.0</ele><time>2026-03-28T13:07:36Z</time></trkpt><trkpt lat="45.527058830202314" lon="10.775614215468126"><ele>158.0</ele><time>2026-03-28T13:07:37Z</time></trkpt><trkpt lat="45.527211453313114" lon="10.775672299074248"><ele>158.0</ele><time>2026-03-28T13:07:38Z</time></trkpt><trkpt lat="45.52736642656814" lon="10.775734938176369"><ele>157.5</ele><time>2026-03-28T13:07:39Z</time></trkpt><trkpt lat="45.52751232382417" lon="10.775807422130685"><ele>157.0</ele><time>2026-03-28T13:07:40Z</time></trkpt><trkpt lat="45.52765222124001" lon="10.775873730920695"><ele>156.5</ele><time>2026-03-28T13:07:41Z</time></trkpt><trkpt lat="45.527765516126784" lon="10.775933498827104"><ele>156.0</ele><time>2026-03-28T13:07:42Z</time></trkpt><trkpt lat="45.52788083087809" lon="10.775970979448749"><ele>156.75</ele><time>2026-03-28T13:07:43Z</time></trkpt><trkpt lat="45.528006329032024" lon="10.77599414307316"><ele>157.5</ele><time>2026-03-28T13:07:44Z</time></trkpt><trkpt lat="45.528136910886786" lon="10.776006436836003"><ele>158.25</ele><time>2026-03-28T13:07:45Z</time></trkpt><trkpt lat="45.52827120507714" lon="10.775995150391335"><ele>159.0</ele><time>2026-03-28T13:07:46Z</time></trkpt><trkpt lat="45.528404113662056" lon="10.776002617870809"><ele>159.0</ele><time>2026-03-28T13:07:47Z</time></trkpt><trkpt lat="45.52854056178822" lon="10.776010010344343"><ele>159.0</ele><time>2026-03-28T13:07:48Z</time></trkpt><trkpt lat="45.52866098569653" lon="10.776015491197322"><ele>159.0</ele><time>2026-03-28T13:07:49Z</time></trkpt><trkpt lat="45.528760771075774" lon="10.776016092023367"><ele>159.0</ele><time>2026-03-28T13:07:50Z</time></trkpt><trkpt lat="45.52886733568139" lon="10.775979055152465"><ele>159.25</ele><time>2026-03-28T13:07:51Z</time></trkpt><trkpt lat="45.52898229926581" lon="10.775919000710628"><ele>159.5</ele><time>2026-03-28T13:07:52Z</time></trkpt><trkpt lat="45.52909989496255" lon="10.775845773705083"><ele>159.75</ele><time>2026-03-28T13:07:53Z</time></trkpt><trkpt lat="45.529214794129906" lon="10.775755075441555"><ele>160.0</ele><time>2026-03-28T13:07:54Z</time></trkpt><trkpt lat="45.529329359192246" lon="10.775640165105676"><ele>160.0</ele><time>2026-03-28T13:07:55Z</time></trkpt><trkpt lat="45.52943501871699" lon="10.775522239827533"><ele>160.0</ele><time>2026-03-28T13:07:56Z</time></trkpt><trkpt lat="45.529535788811344" lon="10.775417893864129"><ele>160.0</ele><time>2026-03-28T13:07:57Z</time></trkpt><trkpt lat="45.529633388832444" lon="10.775330956973539"><ele>160.0</ele><time>2026-03-28T13:07:58Z</time></trkpt><trkpt lat="45.52971912212871" lon="10.775264200103877"><ele>160.2</ele><time>2026-03-28T13:07:59Z</time></trkpt><trkpt lat="45.529795437321866" lon="10.77522248608621"><ele>160.4</ele><time>2026-03-28T13:08:00Z</time></trkpt><trkpt lat="45.52986615649654" lon="10.775218850623792"><ele>160.60000000000002</ele><time>2026-03-28T13:08:01Z</time></trkpt><trkpt lat="45.52994498156309" lon="10.775257272848503"><ele>160.8</ele><time>2026-03-28T13:08:02Z</time></trkpt><trkpt lat="45.53004745783441" lon="10.775364458370547"><ele>161.0</ele><time>2026-03-28T13:08:03Z</time></trkpt><trkpt lat="45.53017348677401" lon="10.775415632704872"><ele>161.0</ele><time>2026-03-28T13:08:04Z</time></trkpt><trkpt lat="45.53028043102579" lon="10.775491319368392"><ele>161.0</ele><time>2026-03-28T13:08:05Z</time></trkpt><trkpt lat="45.53037919714709" lon="10.775535888489722"><ele>161.0</ele><time>2026-03-28T13:08:06Z</time></trkpt><trkpt lat="45.53046570403022" lon="10.77557594680819"><ele>161.0</ele><time>2026-03-28T13:08:07Z</time></trkpt><trkpt lat="45.5305502017597" lon="10.775642922135114"><ele>161.0</ele><time>2026-03-28T13:08:08Z</time></trkpt><trkpt lat="45.53062133863573" lon="10.775742841694315"><ele>161.0</ele><time>2026-03-28T13:08:09Z</time></trkpt><trkpt lat="45.530675244856006" lon="10.775869342951706"><ele>161.0</ele><time>2026-03-28T13:08:10Z</time></trkpt><trkpt lat="45.530714963065435" lon="10.77601374974578"><ele>161.0</ele><time>2026-03-28T13:08:11Z</time></trkpt><trkpt lat="45.53073767755577" lon="10.77616722973213"><ele>161.0</ele><time>2026-03-28T13:08:12Z</time></trkpt><trkpt lat="45.530750109393644" lon="10.776296537365708"><ele>161.0</ele><time>2026-03-28T13:08:13Z</time></trkpt><trkpt lat="45.53078969414122" lon="10.776391854336882"><ele>161.20000000000002</ele><time>2026-03-28T13:08:14Z</time></trkpt><trkpt lat="45.530849913270366" lon="10.776484917296157"><ele>161.4</ele><time>2026-03-28T13:08:15Z</time></trkpt><trkpt lat="45.53093217352319" lon="10.776575801347606"><ele>161.6</ele><time>2026-03-28T13:08:16Z</time></trkpt><trkpt lat="45.531029167420066" lon="10.776641218024904"><ele>161.8</ele><time>2026-03-28T13:08:17Z</time></trkpt><trkpt lat="45.53114860746" lon="10.776698905263599"><ele>162.0</ele><time>2026-03-28T13:08:18Z</time></trkpt><trkpt lat="45.53125293819146" lon="10.776733684067183"><ele>162.0</ele><time>2026-03-28T13:08:19Z</time></trkpt><trkpt lat="45.531355526627685" lon="10.776767872244022"><ele>162.0</ele><time>2026-03-28T13:08:20Z</time></trkpt><trkpt lat="45.53144616989365" lon="10.776802813673042"><ele>162.0</ele><time>2026-03-28T13:08:21Z</time></trkpt><trkpt lat="45.53150485977429" lon="10.776868294658778"><ele>162.0</ele><time>2026-03-28T13:08:22Z</time></trkpt><trkpt lat="45.53157077929377" lon="10.777005455356422"><ele>162.0</ele><time>2026-03-28T13:08:24Z</time></trkpt><trkpt lat="45.53159671749591" lon="10.77717746118546"><ele>162.39999999999998</ele><time>2026-03-28T13:08:26Z</time></trkpt><trkpt lat="45.531584489094925" lon="10.777298902474731"><ele>162.79999999999998</ele><time>2026-03-28T13:08:28Z</time></trkpt><trkpt lat="45.53174429435465" lon="10.77732433580859"><ele>163.2</ele><time>2026-03-28T13:08:32Z</time></trkpt><trkpt lat="45.531803671571566" lon="10.777238665762654"><ele>163.6</ele><time>2026-03-28T13:08:33Z</time></trkpt><trkpt lat="45.53187508413076" lon="10.777128139868335"><ele>164.0</ele><time>2026-03-28T13:08:34Z</time></trkpt><trkpt lat="45.531972981293" lon="10.777010606049767"><ele>164.33333333333331</ele><time>2026-03-28T13:08:35Z</time></trkpt><trkpt lat="45.532103297949796" lon="10.776884116613346"><ele>164.66666666666666</ele><time>2026-03-28T13:08:36Z</time></trkpt><trkpt lat="45.532241276289994" lon="10.776757541428447"><ele>165.0</ele><time>2026-03-28T13:08:37Z</time></trkpt><trkpt lat="45.532389836076675" lon="10.776613361894823"><ele>165.0</ele><time>2026-03-28T13:08:38Z</time></trkpt><trkpt lat="45.532544786361136" lon="10.776449930724864"><ele>165.0</ele><time>2026-03-28T13:08:39Z</time></trkpt><trkpt lat="45.53269729447268" lon="10.776285177030067"><ele>165.0</ele><time>2026-03-28T13:08:40Z</time></trkpt><trkpt lat="45.532836647624954" lon="10.776144297854055"><ele>164.66666666666666</ele><time>2026-03-28T13:08:41Z</time></trkpt><trkpt lat="45.5329832342259" lon="10.775999494119572"><ele>164.33333333333331</ele><time>2026-03-28T13:08:42Z</time></trkpt><trkpt lat="45.533128250785836" lon="10.775900717931234"><ele>164.0</ele><time>2026-03-28T13:08:43Z</time></trkpt><trkpt lat="45.533288182527976" lon="10.775817372617817"><ele>164.0</ele><time>2026-03-28T13:08:44Z</time></trkpt><trkpt lat="45.533466132372354" lon="10.775782880919861"><ele>164.0</ele><time>2026-03-28T13:08:45Z</time></trkpt><trkpt lat="45.53364601533303" lon="10.775801198907002"><ele>164.0</ele><time>2026-03-28T13:08:46Z</time></trkpt><trkpt lat="45.5338247465097" lon="10.775882389265094"><ele>164.66666666666666</ele><time>2026-03-28T13:08:47Z</time></trkpt><trkpt lat="45.53400688953377" lon="10.77594880650955"><ele>165.33333333333334</ele><time>2026-03-28T13:08:48Z</time></trkpt><trkpt lat="45.53418821683803" lon="10.776009329985248"><ele>166.0</ele><time>2026-03-28T13:08:49Z</time></trkpt><trkpt lat="45.53437426869503" lon="10.776085981112878"><ele>167.33333333333334</ele><time>2026-03-28T13:08:50Z</time></trkpt><trkpt lat="45.5345604359727" lon="10.77615612287653"><ele>168.66666666666666</ele><time>2026-03-28T13:08:51Z</time></trkpt><trkpt lat="45.53473866025802" lon="10.776216413254216"><ele>170.0</ele><time>2026-03-28T13:08:52Z</time></trkpt><trkpt lat="45.534906568683" lon="10.776257175272242"><ele>170.0</ele><time>2026-03-28T13:08:53Z</time></trkpt><trkpt lat="45.53507441706889" lon="10.776269032584501"><ele>170.0</ele><time>2026-03-28T13:08:54Z</time></trkpt><trkpt lat="45.53525111755567" lon="10.776233810719596"><ele>170.0</ele><time>2026-03-28T13:08:55Z</time></trkpt><trkpt lat="45.53542864309646" lon="10.776154101313775"><ele>170.0</ele><time>2026-03-28T13:08:56Z</time></trkpt><trkpt lat="45.53560383800338" lon="10.77605373939093"><ele>170.0</ele><time>2026-03-28T13:08:57Z</time></trkpt><trkpt lat="45.535778346553954" lon="10.77594499012118"><ele>170.0</ele><time>2026-03-28T13:08:58Z</time></trkpt><trkpt lat="45.53595741215654" lon="10.77582806547035"><ele>170.0</ele><time>2026-03-28T13:08:59Z</time></trkpt><trkpt lat="45.53614197817252" lon="10.77571220912766"><ele>170.0</ele><time>2026-03-28T13:09:00Z</time></trkpt><trkpt lat="45.536321785552076" lon="10.775605857500926"><ele>170.0</ele><time>2026-03-28T13:09:01Z</time></trkpt><trkpt lat="45.53650468410668" lon="10.775494965326006"><ele>170.33333333333331</ele><time>2026-03-28T13:09:02Z</time></trkpt><trkpt lat="45.536682692627835" lon="10.775395084124503"><ele>170.66666666666666</ele><time>2026-03-28T13:09:03Z</time></trkpt><trkpt lat="45.536853268218024" lon="10.77530783739633"><ele>171.0</ele><time>2026-03-28T13:09:04Z</time></trkpt><trkpt lat="45.53700228082579" lon="10.77522569658782"><ele>171.75</ele><time>2026-03-28T13:09:05Z</time></trkpt><trkpt lat="45.53714822953814" lon="10.77514178341666"><ele>172.5</ele><time>2026-03-28T13:09:06Z</time></trkpt><trkpt lat="45.53727020938337" lon="10.775067922815172"><ele>173.25</ele><time>2026-03-28T13:09:07Z</time></trkpt><trkpt lat="45.53735873426195" lon="10.775014981816716"><ele>174.0</ele><time>2026-03-28T13:09:08Z</time></trkpt><trkpt lat="45.53742982195907" lon="10.774982871388739"><ele>174.0</ele><time>2026-03-28T13:09:09Z</time></trkpt><trkpt lat="45.53749494781855" lon="10.774998190901568"><ele>174.0</ele><time>2026-03-28T13:09:10Z</time></trkpt><trkpt lat="45.537547323166876" lon="10.775187558807787"><ele>174.0</ele><time>2026-03-28T13:09:12Z</time></trkpt><trkpt lat="45.53755748882383" lon="10.775354187154093"><ele>174.0</ele><time>2026-03-28T13:09:13Z</time></trkpt><trkpt lat="45.53758345365044" lon="10.775551528402596"><ele>174.33333333333334</ele><time>2026-03-28T13:09:14Z</time></trkpt><trkpt lat="45.53758091143302" lon="10.775764864496685"><ele>174.66666666666669</ele><time>2026-03-28T13:09:15Z</time></trkpt><trkpt lat="45.537587172804265" lon="10.776001043747687"><ele>175.0</ele><time>2026-03-28T13:09:16Z</time></trkpt><trkpt lat="45.53760291451785" lon="10.776260346374881"><ele>175.33333333333334</ele><time>2026-03-28T13:09:17Z</time></trkpt><trkpt lat="45.53761537865898" lon="10.776534554019372"><ele>175.66666666666666</ele><time>2026-03-28T13:09:18Z</time></trkpt><trkpt lat="45.53762678847124" lon="10.776816684473873"><ele>176.0</ele><time>2026-03-28T13:09:19Z</time></trkpt><trkpt lat="45.53763548109245" lon="10.777106273078125"><ele>176.0</ele><time>2026-03-28T13:09:20Z</time></trkpt><trkpt lat="45.53764429510111" lon="10.77740197675175"><ele>176.0</ele><time>2026-03-28T13:09:21Z</time></trkpt><trkpt lat="45.53765369845026" lon="10.7776904966188"><ele>176.0</ele><time>2026-03-28T13:09:22Z</time></trkpt><trkpt lat="45.53766676095409" lon="10.77796448661436"><ele>175.66666666666666</ele><time>2026-03-28T13:09:23Z</time></trkpt><trkpt lat="45.53768529296622" lon="10.77822657057939"><ele>175.33333333333334</ele><time>2026-03-28T13:09:24Z</time></trkpt><trkpt lat="45.53770095517733" lon="10.778483197696273"><ele>175.0</ele><time>2026-03-28T13:09:25Z</time></trkpt><trkpt lat="45.53771959446588" lon="10.778747627738305"><ele>174.33333333333334</ele><time>2026-03-28T13:09:26Z</time></trkpt><trkpt lat="45.5377369114944" lon="10.779005914549447"><ele>173.66666666666666</ele><time>2026-03-28T13:09:27Z</time></trkpt><trkpt lat="45.53775244413583" lon="10.77926802070743"><ele>173.0</ele><time>2026-03-28T13:09:28Z</time></trkpt><trkpt lat="45.537768154919526" lon="10.779513627546814"><ele>173.0</ele><time>2026-03-28T13:09:29Z</time></trkpt><trkpt lat="45.537779827229464" lon="10.779735525216381"><ele>173.0</ele><time>2026-03-28T13:09:30Z</time></trkpt><trkpt lat="45.537788112655456" lon="10.779921891717184"><ele>173.0</ele><time>2026-03-28T13:09:31Z</time></trkpt><trkpt lat="45.5377952648917" lon="10.780084660598593"><ele>173.0</ele><time>2026-03-28T13:09:32Z</time></trkpt><trkpt lat="45.53779124498881" lon="10.780235403341393"><ele>173.0</ele><time>2026-03-28T13:09:33Z</time></trkpt><trkpt lat="45.53766144682744" lon="10.780113487589219"><ele>173.0</ele><time>2026-03-28T13:09:35Z</time></trkpt><trkpt lat="45.53754132235596" lon="10.780117374387146"><ele>173.0</ele><time>2026-03-28T13:09:36Z</time></trkpt><trkpt lat="45.53739923180939" lon="10.780126529227712"><ele>173.0</ele><time>2026-03-28T13:09:37Z</time></trkpt><trkpt lat="45.537240223785915" lon="10.780164533901662"><ele>173.0</ele><time>2026-03-28T13:09:38Z</time></trkpt><trkpt lat="45.53705778739771" lon="10.780182455791023"><ele>173.0</ele><time>2026-03-28T13:09:39Z</time></trkpt><trkpt lat="45.53686414482084" lon="10.780216394806796"><ele>173.0</ele><time>2026-03-28T13:09:40Z</time></trkpt><trkpt lat="45.536663682852335" lon="10.78025048807494"><ele>172.0</ele><time>2026-03-28T13:09:41Z</time></trkpt><trkpt lat="45.53645353047735" lon="10.780285625600934"><ele>171.0</ele><time>2026-03-28T13:09:42Z</time></trkpt><trkpt lat="45.53622899390067" lon="10.780299530398219"><ele>170.0</ele><time>2026-03-28T13:09:43Z</time></trkpt><trkpt lat="45.53600055409133" lon="10.780360549039589"><ele>166.5</ele><time>2026-03-28T13:09:44Z</time></trkpt><trkpt lat="45.53577019351693" lon="10.780375256528437"><ele>163.0</ele><time>2026-03-28T13:09:45Z</time></trkpt><trkpt lat="45.53553540475846" lon="10.780414008983968"><ele>163.33333333333334</ele><time>2026-03-28T13:09:46Z</time></trkpt><trkpt lat="45.53531051174429" lon="10.78047179748744"><ele>163.66666666666666</ele><time>2026-03-28T13:09:47Z</time></trkpt><trkpt lat="45.53509693906269" lon="10.780503752071812"><ele>164.0</ele><time>2026-03-28T13:09:48Z</time></trkpt><trkpt lat="45.53488584456708" lon="10.780540363952708"><ele>164.0</ele><time>2026-03-28T13:09:49Z</time></trkpt><trkpt lat="45.53468192484968" lon="10.780548215010786"><ele>164.0</ele><time>2026-03-28T13:09:50Z</time></trkpt><trkpt lat="45.53449486000082" lon="10.780570428059102"><ele>164.0</ele><time>2026-03-28T13:09:51Z</time></trkpt><trkpt lat="45.53431601877381" lon="10.78061082932077"><ele>163.5</ele><time>2026-03-28T13:09:52Z</time></trkpt><trkpt lat="45.534159179715296" lon="10.780623800625072"><ele>163.0</ele><time>2026-03-28T13:09:53Z</time></trkpt><trkpt lat="45.534018340584275" lon="10.780639411942339"><ele>162.5</ele><time>2026-03-28T13:09:54Z</time></trkpt><trkpt lat="45.533896047492355" lon="10.78065058086772"><ele>162.0</ele><time>2026-03-28T13:09:55Z</time></trkpt><trkpt lat="45.53378443192833" lon="10.78066137429433"><ele>162.33333333333334</ele><time>2026-03-28T13:09:56Z</time></trkpt><trkpt lat="45.53369559750309" lon="10.780670307179257"><ele>162.66666666666666</ele><time>2026-03-28T13:09:57Z</time></trkpt><trkpt lat="45.53362418336932" lon="10.780676818413866"><ele>163.0</ele><time>2026-03-28T13:09:58Z</time></trkpt><trkpt lat="45.53352062985561" lon="10.78069009590612"><ele>163.33333333333331</ele><time>2026-03-28T13:10:00Z</time></trkpt><trkpt lat="45.533417833019556" lon="10.780733141201404"><ele>163.66666666666666</ele><time>2026-03-28T13:10:02Z</time></trkpt><trkpt lat="45.53340091983641" lon="10.780825823256508"><ele>164.0</ele><time>2026-03-28T13:10:03Z</time></trkpt><trkpt lat="45.533284805004065" lon="10.780711784055798"><ele>164.0</ele><time>2026-03-28T13:10:04Z</time></trkpt><trkpt lat="45.533175048385466" lon="10.780723837518556"><ele>164.0</ele><time>2026-03-28T13:10:06Z</time></trkpt><trkpt lat="45.53306087354046" lon="10.780741187721171"><ele>164.0</ele><time>2026-03-28T13:10:08Z</time></trkpt><trkpt lat="45.53295995015448" lon="10.780756773008084"><ele>164.0</ele><time>2026-03-28T13:10:10Z</time></trkpt><trkpt lat="45.53285871107142" lon="10.78076960812672"><ele>164.0</ele><time>2026-03-28T13:10:12Z</time></trkpt><trkpt lat="45.53279119720018" lon="10.780779816752394"><ele>164.33333333333331</ele><time>2026-03-28T13:10:13Z</time></trkpt><trkpt lat="45.53272135058466" lon="10.78079091778976"><ele>164.66666666666666</ele><time>2026-03-28T13:10:14Z</time></trkpt><trkpt lat="45.5326502247319" lon="10.780801107172275"><ele>165.0</ele><time>2026-03-28T13:10:15Z</time></trkpt><trkpt lat="45.53257309665124" lon="10.780815919141315"><ele>165.33333333333334</ele><time>2026-03-28T13:10:16Z</time></trkpt><trkpt lat="45.532479072025346" lon="10.780822325271037"><ele>165.66666666666669</ele><time>2026-03-28T13:10:17Z</time></trkpt><trkpt lat="45.532389812985656" lon="10.78082817214683"><ele>166.0</ele><time>2026-03-28T13:10:18Z</time></trkpt><trkpt lat="45.532290850957814" lon="10.780844937358378"><ele>166.0</ele><time>2026-03-28T13:10:19Z</time></trkpt><trkpt lat="45.53220903216567" lon="10.780876592886111"><ele>166.0</ele><time>2026-03-28T13:10:20Z</time></trkpt><trkpt lat="45.53213004687348" lon="10.780896166527596"><ele>166.0</ele><time>2026-03-28T13:10:21Z</time></trkpt><trkpt lat="45.53205978583992" lon="10.780902408720536"><ele>166.0</ele><time>2026-03-28T13:10:22Z</time></trkpt><trkpt lat="45.531995368191794" lon="10.780901502470305"><ele>166.0</ele><time>2026-03-28T13:10:23Z</time></trkpt><trkpt lat="45.53191859760062" lon="10.780958261238553"><ele>166.0</ele><time>2026-03-28T13:10:25Z</time></trkpt><trkpt lat="45.53193323000174" lon="10.781100449430658"><ele>165.60000000000002</ele><time>2026-03-28T13:10:27Z</time></trkpt><trkpt lat="45.5319757819425" lon="10.781196980632444"><ele>165.2</ele><time>2026-03-28T13:10:28Z</time></trkpt><trkpt lat="45.5320316253486" lon="10.781323113276763"><ele>164.8</ele><time>2026-03-28T13:10:29Z</time></trkpt><trkpt lat="45.53208084148267" lon="10.781461470734788"><ele>164.39999999999998</ele><time>2026-03-28T13:10:30Z</time></trkpt><trkpt lat="45.53212779794629" lon="10.781607872809076"><ele>164.0</ele><time>2026-03-28T13:10:31Z</time></trkpt><trkpt lat="45.53218049880364" lon="10.781754360903255"><ele>163.25</ele><time>2026-03-28T13:10:32Z</time></trkpt><trkpt lat="45.532232193672456" lon="10.781912252600367"><ele>162.5</ele><time>2026-03-28T13:10:33Z</time></trkpt><trkpt lat="45.5322861587573" lon="10.78208665585108"><ele>161.75</ele><time>2026-03-28T13:10:34Z</time></trkpt><trkpt lat="45.53233103184772" lon="10.782267239365902"><ele>161.0</ele><time>2026-03-28T13:10:35Z</time></trkpt><trkpt lat="45.53237013462493" lon="10.78244571600175"><ele>161.0</ele><time>2026-03-28T13:10:36Z</time></trkpt><trkpt lat="45.53241416739637" lon="10.782628315844349"><ele>161.0</ele><time>2026-03-28T13:10:37Z</time></trkpt><trkpt lat="45.5324644591903" lon="10.782831029347069"><ele>161.0</ele><time>2026-03-28T13:10:38Z</time></trkpt><trkpt lat="45.532512633241495" lon="10.783013223662573"><ele>161.0</ele><time>2026-03-28T13:10:39Z</time></trkpt><trkpt lat="45.5325504283301" lon="10.78317788637175"><ele>161.4</ele><time>2026-03-28T13:10:40Z</time></trkpt><trkpt lat="45.532580592883306" lon="10.783324445682911"><ele>161.8</ele><time>2026-03-28T13:10:41Z</time></trkpt><trkpt lat="45.532592878808195" lon="10.78346440326254"><ele>162.20000000000002</ele><time>2026-03-28T13:10:42Z</time></trkpt><trkpt lat="45.53258356547546" lon="10.783595566875183"><ele>162.60000000000002</ele><time>2026-03-28T13:10:43Z</time></trkpt><trkpt lat="45.53254984146678" lon="10.783714808063044"><ele>163.0</ele><time>2026-03-28T13:10:44Z</time></trkpt><trkpt lat="45.532498464085705" lon="10.783841031786407"><ele>163.5</ele><time>2026-03-28T13:10:45Z</time></trkpt><trkpt lat="45.53243842530913" lon="10.7839920557327"><ele>164.0</ele><time>2026-03-28T13:10:46Z</time></trkpt><trkpt lat="45.532375455979555" lon="10.784168813722712"><ele>164.5</ele><time>2026-03-28T13:10:47Z</time></trkpt><trkpt lat="45.53232565287681" lon="10.784321375381454"><ele>165.0</ele><time>2026-03-28T13:10:48Z</time></trkpt><trkpt lat="45.53228057271037" lon="10.784449090597928"><ele>165.33333333333334</ele><time>2026-03-28T13:10:49Z</time></trkpt><trkpt lat="45.53224268169295" lon="10.784579013246148"><ele>165.66666666666666</ele><time>2026-03-28T13:10:50Z</time></trkpt><trkpt lat="45.53222495160399" lon="10.784691739644956"><ele>166.0</ele><time>2026-03-28T13:10:51Z</time></trkpt><trkpt lat="45.532219899965064" lon="10.784803561412652"><ele>166.33333333333331</ele><time>2026-03-28T13:10:52Z</time></trkpt><trkpt lat="45.53223110100133" lon="10.784910286768525"><ele>166.66666666666666</ele><time>2026-03-28T13:10:53Z</time></trkpt><trkpt lat="45.5322641977908" lon="10.785019939596557"><ele>167.0</ele><time>2026-03-28T13:10:54Z</time></trkpt><trkpt lat="45.53229829075702" lon="10.785146842740666"><ele>167.2</ele><time>2026-03-28T13:10:55Z</time></trkpt><trkpt lat="45.53229825126416" lon="10.785252926625002"><ele>167.39999999999998</ele><time>2026-03-28T13:10:56Z</time></trkpt><trkpt lat="45.53225940204921" lon="10.78534490102188"><ele>167.60000000000002</ele><time>2026-03-28T13:10:57Z</time></trkpt><trkpt lat="45.532195804309005" lon="10.785475429521828"><ele>167.8</ele><time>2026-03-28T13:10:58Z</time></trkpt><trkpt lat="45.53211414328101" lon="10.785609679920109"><ele>168.0</ele><time>2026-03-28T13:10:59Z</time></trkpt><trkpt lat="45.532030296541976" lon="10.785734370682377"><ele>167.60000000000002</ele><time>2026-03-28T13:11:00Z</time></trkpt><trkpt lat="45.531956874067475" lon="10.785847863732364"><ele>167.20000000000002</ele><time>2026-03-28T13:11:01Z</time></trkpt><trkpt lat="45.53187336929498" lon="10.785962486911727"><ele>166.8</ele><time>2026-03-28T13:11:02Z</time></trkpt><trkpt lat="45.53178228734943" lon="10.78607561370756"><ele>166.4</ele><time>2026-03-28T13:11:03Z</time></trkpt><trkpt lat="45.5317056773255" lon="10.7861729483879"><ele>166.0</ele><time>2026-03-28T13:11:04Z</time></trkpt><trkpt lat="45.531632476345976" lon="10.786302295249735"><ele>167.0</ele><time>2026-03-28T13:11:05Z</time></trkpt><trkpt lat="45.53155166902418" lon="10.78643673718203"><ele>168.0</ele><time>2026-03-28T13:11:06Z</time></trkpt><trkpt lat="45.53147880714969" lon="10.786578777329309"><ele>169.0</ele><time>2026-03-28T13:11:07Z</time></trkpt><trkpt lat="45.53140040546182" lon="10.786722420273328"><ele>170.0</ele><time>2026-03-28T13:11:08Z</time></trkpt><trkpt lat="45.531327108864915" lon="10.786854895797143"><ele>170.2</ele><time>2026-03-28T13:11:09Z</time></trkpt><trkpt lat="45.53125704599873" lon="10.786980594106854"><ele>170.4</ele><time>2026-03-28T13:11:10Z</time></trkpt><trkpt lat="45.531198776897114" lon="10.787081281981123"><ele>170.60000000000002</ele><time>2026-03-28T13:11:11Z</time></trkpt><trkpt lat="45.53116188616942" lon="10.787166084702482"><ele>170.8</ele><time>2026-03-28T13:11:12Z</time></trkpt><trkpt lat="45.53113624339417" lon="10.787320242767997"><ele>171.0</ele><time>2026-03-28T13:11:14Z</time></trkpt><trkpt lat="45.53114923376796" lon="10.787425707380885"><ele>171.0</ele><time>2026-03-28T13:11:15Z</time></trkpt><trkpt lat="45.531172247523855" lon="10.787551155153912"><ele>171.0</ele><time>2026-03-28T13:11:16Z</time></trkpt><trkpt lat="45.53119604576904" lon="10.787698874060805"><ele>171.0</ele><time>2026-03-28T13:11:17Z</time></trkpt><trkpt lat="45.53122347479841" lon="10.787826433419276"><ele>171.0</ele><time>2026-03-28T13:11:18Z</time></trkpt><trkpt lat="45.53125844290468" lon="10.787926629957852"><ele>171.0</ele><time>2026-03-28T13:11:19Z</time></trkpt><trkpt lat="45.5313052163145" lon="10.788029349013232"><ele>172.4</ele><time>2026-03-28T13:11:20Z</time></trkpt><trkpt lat="45.531367868013284" lon="10.788139682425955"><ele>173.8</ele><time>2026-03-28T13:11:21Z</time></trkpt><trkpt lat="45.53142070523837" lon="10.788270915298634"><ele>175.20000000000002</ele><time>2026-03-28T13:11:22Z</time></trkpt><trkpt lat="45.53146783657197" lon="10.788398281881275"><ele>176.60000000000002</ele><time>2026-03-28T13:11:23Z</time></trkpt><trkpt lat="45.531504196832536" lon="10.788502579994889"><ele>178.0</ele><time>2026-03-28T13:11:24Z</time></trkpt><trkpt lat="45.53153069507119" lon="10.788588989977583"><ele>178.0</ele><time>2026-03-28T13:11:26Z</time></trkpt><trkpt lat="45.531637638256775" lon="10.788591989331952"><ele>178.0</ele><time>2026-03-28T13:11:29Z</time></trkpt><trkpt lat="45.53172188580868" lon="10.788500459002275"><ele>178.0</ele><time>2026-03-28T13:11:30Z</time></trkpt><trkpt lat="45.531815330806715" lon="10.788401275405233"><ele>178.0</ele><time>2026-03-28T13:11:31Z</time></trkpt><trkpt lat="45.531929591860816" lon="10.788309326925813"><ele>178.66666666666669</ele><time>2026-03-28T13:11:32Z</time></trkpt><trkpt lat="45.53206647889598" lon="10.788202146692543"><ele>179.33333333333334</ele><time>2026-03-28T13:11:33Z</time></trkpt><trkpt lat="45.532205422279276" lon="10.78809918106198"><ele>180.0</ele><time>2026-03-28T13:11:34Z</time></trkpt><trkpt lat="45.53234044111295" lon="10.788007765295225"><ele>180.0</ele><time>2026-03-28T13:11:35Z</time></trkpt><trkpt lat="45.532476473395846" lon="10.787923965036118"><ele>180.0</ele><time>2026-03-28T13:11:36Z</time></trkpt><trkpt lat="45.532593053817216" lon="10.78785789070513"><ele>180.0</ele><time>2026-03-28T13:11:37Z</time></trkpt><trkpt lat="45.532669408579444" lon="10.78783691791833"><ele>180.0</ele><time>2026-03-28T13:11:38Z</time></trkpt><trkpt lat="45.53273588270721" lon="10.787777960825798"><ele>180.0</ele><time>2026-03-28T13:11:39Z</time></trkpt><trkpt lat="45.53281206313302" lon="10.787742465691952"><ele>180.25</ele><time>2026-03-28T13:11:40Z</time></trkpt><trkpt lat="45.53289289717217" lon="10.78774465302259"><ele>180.5</ele><time>2026-03-28T13:11:42Z</time></trkpt><trkpt lat="45.53296026331307" lon="10.787929802056713"><ele>180.75</ele><time>2026-03-28T13:11:44Z</time></trkpt><trkpt lat="45.53302947208787" lon="10.78807974961967"><ele>181.0</ele><time>2026-03-28T13:11:45Z</time></trkpt><trkpt lat="45.53311801357312" lon="10.788267167687277"><ele>181.0</ele><time>2026-03-28T13:11:46Z</time></trkpt><trkpt lat="45.533220478326655" lon="10.788475751223515"><ele>181.0</ele><time>2026-03-28T13:11:47Z</time></trkpt><trkpt lat="45.53331284116132" lon="10.788662192641063"><ele>181.0</ele><time>2026-03-28T13:11:48Z</time></trkpt><trkpt lat="45.53339887817255" lon="10.788832580281541"><ele>181.5</ele><time>2026-03-28T13:11:49Z</time></trkpt><trkpt lat="45.533481926174616" lon="10.789005120243296"><ele>182.0</ele><time>2026-03-28T13:11:50Z</time></trkpt><trkpt lat="45.533552981056275" lon="10.789177496106579"><ele>182.5</ele><time>2026-03-28T13:11:51Z</time></trkpt><trkpt lat="45.53362171194283" lon="10.789339996366692"><ele>183.0</ele><time>2026-03-28T13:11:52Z</time></trkpt><trkpt lat="45.53370903522166" lon="10.789504727683903"><ele>187.5</ele><time>2026-03-28T13:11:53Z</time></trkpt><trkpt lat="45.533790810783664" lon="10.789677159114747"><ele>192.0</ele><time>2026-03-28T13:11:54Z</time></trkpt><trkpt lat="45.53391763052401" lon="10.789798231229447"><ele>196.5</ele><time>2026-03-28T13:11:55Z</time></trkpt><trkpt lat="45.53403204629139" lon="10.789914738056948"><ele>201.0</ele><time>2026-03-28T13:11:56Z</time></trkpt><trkpt lat="45.53414950711561" lon="10.79003396243399"><ele>201.0</ele><time>2026-03-28T13:11:57Z</time></trkpt><trkpt lat="45.53424942473121" lon="10.790121818274663"><ele>201.0</ele><time>2026-03-28T13:11:58Z</time></trkpt><trkpt lat="45.53432352945847" lon="10.790198292256074"><ele>201.0</ele><time>2026-03-28T13:11:59Z</time></trkpt><trkpt lat="45.534380833556256" lon="10.790252962551051"><ele>201.0</ele><time>2026-03-28T13:12:00Z</time></trkpt><trkpt lat="45.53449753475455" lon="10.79030376637925"><ele>201.0</ele><time>2026-03-28T13:12:02Z</time></trkpt><trkpt lat="45.53457394092151" lon="10.790340363257945"><ele>202.4</ele><time>2026-03-28T13:12:03Z</time></trkpt><trkpt lat="45.53463500863569" lon="10.790377318380438"><ele>203.8</ele><time>2026-03-28T13:12:04Z</time></trkpt><trkpt lat="45.534694943609004" lon="10.79053456027611"><ele>205.20000000000002</ele><time>2026-03-28T13:12:06Z</time></trkpt><trkpt lat="45.53475423047454" lon="10.790626952606114"><ele>206.60000000000002</ele><time>2026-03-28T13:12:07Z</time></trkpt><trkpt lat="45.53482565583864" lon="10.790754727445377"><ele>208.0</ele><time>2026-03-28T13:12:08Z</time></trkpt><trkpt lat="45.53490892267989" lon="10.790879839047356"><ele>208.0</ele><time>2026-03-28T13:12:09Z</time></trkpt><trkpt lat="45.534995926485415" lon="10.791001238854301"><ele>208.0</ele><time>2026-03-28T13:12:10Z</time></trkpt><trkpt lat="45.53508177287618" lon="10.791111636728766"><ele>208.0</ele><time>2026-03-28T13:12:11Z</time></trkpt><trkpt lat="45.53517481016124" lon="10.791155217516213"><ele>208.0</ele><time>2026-03-28T13:12:12Z</time></trkpt><trkpt lat="45.53524007283017" lon="10.791201016160135"><ele>208.0</ele><time>2026-03-28T13:12:13Z</time></trkpt><trkpt lat="45.53530179093091" lon="10.79113559054158"><ele>208.0</ele><time>2026-03-28T13:12:14Z</time></trkpt><trkpt lat="45.53528837978543" lon="10.791042567365182"><ele>208.0</ele><time>2026-03-28T13:12:15Z</time></trkpt><trkpt lat="45.535142659460675" lon="10.790970430994228"><ele>208.0</ele><time>2026-03-28T13:12:16Z</time></trkpt><trkpt lat="45.53521659064133" lon="10.790890151691029"><ele>208.0</ele><time>2026-03-28T13:12:18Z</time></trkpt><trkpt lat="45.53523529037162" lon="10.790801779531819"><ele>208.0</ele><time>2026-03-28T13:12:20Z</time></trkpt><trkpt lat="45.5353076573298" lon="10.79066139684836"><ele>210.33333333333331</ele><time>2026-03-28T13:12:21Z</time></trkpt><trkpt lat="45.535427058247926" lon="10.790518012109274"><ele>212.66666666666669</ele><time>2026-03-28T13:12:22Z</time></trkpt><trkpt lat="45.53568256217724" lon="10.790680329701935"><ele>215.0</ele><time>2026-03-28T13:12:24Z</time></trkpt><trkpt lat="45.53580081567063" lon="10.790728317456281"><ele>215.0</ele><time>2026-03-28T13:12:25Z</time></trkpt><trkpt lat="45.53592690984381" lon="10.79096457327237"><ele>215.0</ele><time>2026-03-28T13:12:26Z</time></trkpt><trkpt lat="45.53591315348314" lon="10.791282240915038"><ele>215.0</ele><time>2026-03-28T13:12:27Z</time></trkpt><trkpt lat="45.53592701310769" lon="10.791424030759503"><ele>211.83333333333334</ele><time>2026-03-28T13:12:28Z</time></trkpt><trkpt lat="45.53596002695214" lon="10.791511454247873"><ele>208.66666666666669</ele><time>2026-03-28T13:12:29Z</time></trkpt><trkpt lat="45.53602369858939" lon="10.791588170389186"><ele>205.5</ele><time>2026-03-28T13:12:31Z</time></trkpt><trkpt lat="45.53609322072885" lon="10.79162210146805"><ele>202.33333333333331</ele><time>2026-03-28T13:12:33Z</time></trkpt><trkpt lat="45.53617201990583" lon="10.791601262565855"><ele>199.16666666666666</ele><time>2026-03-28T13:12:35Z</time></trkpt><trkpt lat="45.53622994149695" lon="10.791521902079435"><ele>196.0</ele><time>2026-03-28T13:12:37Z</time></trkpt><trkpt lat="45.536281966710796" lon="10.791378584473797"><ele>193.60000000000002</ele><time>2026-03-28T13:12:39Z</time></trkpt><trkpt lat="45.5363334082475" lon="10.791311563430721"><ele>191.2</ele><time>2026-03-28T13:12:40Z</time></trkpt><trkpt lat="45.5364641086861" lon="10.791305449721547"><ele>188.8</ele><time>2026-03-28T13:12:42Z</time></trkpt><trkpt lat="45.53656600089908" lon="10.791319700066847"><ele>186.39999999999998</ele><time>2026-03-28T13:12:43Z</time></trkpt><trkpt lat="45.5366458132019" lon="10.791316742940568"><ele>184.0</ele><time>2026-03-28T13:12:44Z</time></trkpt><trkpt lat="45.5367406585569" lon="10.791350586603215"><ele>184.0</ele><time>2026-03-28T13:12:46Z</time></trkpt><trkpt lat="45.53681247417751" lon="10.791347705486812"><ele>184.0</ele><time>2026-03-28T13:12:48Z</time></trkpt><trkpt lat="45.5369053041274" lon="10.79129346089338"><ele>184.0</ele><time>2026-03-28T13:12:50Z</time></trkpt><trkpt lat="45.53696609182305" lon="10.791235100060023"><ele>184.0</ele><time>2026-03-28T13:12:51Z</time></trkpt><trkpt lat="45.53703383445222" lon="10.79116381308211"><ele>184.0</ele><time>2026-03-28T13:12:52Z</time></trkpt><trkpt lat="45.5370880020144" lon="10.791076984862256"><ele>184.0</ele><time>2026-03-28T13:12:53Z</time></trkpt><trkpt lat="45.537144089818085" lon="10.791002428901002"><ele>185.0</ele><time>2026-03-28T13:12:54Z</time></trkpt><trkpt lat="45.537234448505004" lon="10.790938000035114"><ele>186.0</ele><time>2026-03-28T13:12:56Z</time></trkpt><trkpt lat="45.537297290272406" lon="10.790931811822514"><ele>187.0</ele><time>2026-03-28T13:12:57Z</time></trkpt><trkpt lat="45.537378675315615" lon="10.790932186205954"><ele>188.0</ele><time>2026-03-28T13:12:58Z</time></trkpt><trkpt lat="45.53747691295222" lon="10.790861119521438"><ele>189.0</ele><time>2026-03-28T13:13:00Z</time></trkpt><trkpt lat="45.537579348508324" lon="10.790781543122298"><ele>189.0</ele><time>2026-03-28T13:13:02Z</time></trkpt><trkpt lat="45.537689956782096" lon="10.79068894141145"><ele>189.0</ele><time>2026-03-28T13:13:04Z</time></trkpt><trkpt lat="45.53779466634957" lon="10.790641571806622"><ele>189.0</ele><time>2026-03-28T13:13:06Z</time></trkpt><trkpt lat="45.537902521155985" lon="10.79059816400981"><ele>189.0</ele><time>2026-03-28T13:13:08Z</time></trkpt><trkpt lat="45.53796901052738" lon="10.790544241739973"><ele>189.0</ele><time>2026-03-28T13:13:09Z</time></trkpt><trkpt lat="45.538032136125" lon="10.790463299836983"><ele>188.0</ele><time>2026-03-28T13:13:10Z</time></trkpt><trkpt lat="45.53809414183022" lon="10.79037020835379"><ele>187.0</ele><time>2026-03-28T13:13:11Z</time></trkpt><trkpt lat="45.53816846779275" lon="10.790308259107693"><ele>186.0</ele><time>2026-03-28T13:13:12Z</time></trkpt><trkpt lat="45.53822927297432" lon="10.790260914808389"><ele>185.0</ele><time>2026-03-28T13:13:13Z</time></trkpt><trkpt lat="45.538290105022575" lon="10.790216064824056"><ele>184.0</ele><time>2026-03-28T13:13:14Z</time></trkpt><trkpt lat="45.538352175878984" lon="10.790129924757276"><ele>183.0</ele><time>2026-03-28T13:13:15Z</time></trkpt><trkpt lat="45.53839829524859" lon="10.79004703592513"><ele>183.0</ele><time>2026-03-28T13:13:16Z</time></trkpt><trkpt lat="45.53846311627265" lon="10.789938568284148"><ele>183.0</ele><time>2026-03-28T13:13:17Z</time></trkpt><trkpt lat="45.538528764432" lon="10.789831635723628"><ele>183.0</ele><time>2026-03-28T13:13:18Z</time></trkpt><trkpt lat="45.53858200356606" lon="10.789729192730388"><ele>183.0</ele><time>2026-03-28T13:13:19Z</time></trkpt><trkpt lat="45.538639114396055" lon="10.789651164505681"><ele>183.0</ele><time>2026-03-28T13:13:20Z</time></trkpt><trkpt lat="45.5387090182545" lon="10.78956281147603"><ele>181.60000000000002</ele><time>2026-03-28T13:13:21Z</time></trkpt><trkpt lat="45.53879144445867" lon="10.789477725309839"><ele>180.20000000000002</ele><time>2026-03-28T13:13:22Z</time></trkpt><trkpt lat="45.53887323879157" lon="10.78938653702297"><ele>178.8</ele><time>2026-03-28T13:13:23Z</time></trkpt><trkpt lat="45.538949274577924" lon="10.789285548018023"><ele>177.4</ele><time>2026-03-28T13:13:24Z</time></trkpt><trkpt lat="45.53901226837518" lon="10.789180468650589"><ele>176.0</ele><time>2026-03-28T13:13:25Z</time></trkpt><trkpt lat="45.539066008153554" lon="10.78906986325443"><ele>176.0</ele><time>2026-03-28T13:13:26Z</time></trkpt><trkpt lat="45.539123565086015" lon="10.788949034297817"><ele>176.0</ele><time>2026-03-28T13:13:27Z</time></trkpt><trkpt lat="45.539188953040174" lon="10.788835611268397"><ele>176.0</ele><time>2026-03-28T13:13:28Z</time></trkpt><trkpt lat="45.539242201587726" lon="10.788716047688863"><ele>176.0</ele><time>2026-03-28T13:13:29Z</time></trkpt><trkpt lat="45.53928830932516" lon="10.788618065897262"><ele>176.0</ele><time>2026-03-28T13:13:30Z</time></trkpt><trkpt lat="45.539346064009806" lon="10.788515365438174"><ele>175.5</ele><time>2026-03-28T13:13:31Z</time></trkpt><trkpt lat="45.53939687706366" lon="10.78842234424706"><ele>175.0</ele><time>2026-03-28T13:13:32Z</time></trkpt><trkpt lat="45.53944397635208" lon="10.788309673772915"><ele>174.5</ele><time>2026-03-28T13:13:33Z</time></trkpt><trkpt lat="45.539476592147" lon="10.788173298390042"><ele>174.0</ele><time>2026-03-28T13:13:34Z</time></trkpt><trkpt lat="45.539505525740616" lon="10.788059539597302"><ele>173.5</ele><time>2026-03-28T13:13:35Z</time></trkpt><trkpt lat="45.53955035404452" lon="10.78797334292904"><ele>173.0</ele><time>2026-03-28T13:13:36Z</time></trkpt><trkpt lat="45.53961177785173" lon="10.787894382244712"><ele>173.0</ele><time>2026-03-28T13:13:37Z</time></trkpt><trkpt lat="45.5396736310206" lon="10.7878345548726"><ele>173.0</ele><time>2026-03-28T13:13:38Z</time></trkpt><trkpt lat="45.53974821400203" lon="10.787759939377711"><ele>173.0</ele><time>2026-03-28T13:13:39Z</time></trkpt><trkpt lat="45.53981862539949" lon="10.787693650093281"><ele>173.0</ele><time>2026-03-28T13:13:40Z</time></trkpt><trkpt lat="45.5399132965441" lon="10.78763628806586"><ele>173.0</ele><time>2026-03-28T13:13:41Z</time></trkpt><trkpt lat="45.540011519630035" lon="10.787555548558633"><ele>175.0</ele><time>2026-03-28T13:13:42Z</time></trkpt><trkpt lat="45.540103275588514" lon="10.78745144656492"><ele>177.0</ele><time>2026-03-28T13:13:43Z</time></trkpt><trkpt lat="45.54017727574221" lon="10.78733937396236"><ele>179.0</ele><time>2026-03-28T13:13:44Z</time></trkpt><trkpt lat="45.54025357644266" lon="10.787218957562896"><ele>181.0</ele><time>2026-03-28T13:13:45Z</time></trkpt><trkpt lat="45.540324666005304" lon="10.787117151128932"><ele>183.0</ele><time>2026-03-28T13:13:46Z</time></trkpt><trkpt lat="45.540381192008724" lon="10.787030192609153"><ele>182.0</ele><time>2026-03-28T13:13:47Z</time></trkpt><trkpt lat="45.5404312739201" lon="10.786963477227454"><ele>181.0</ele><time>2026-03-28T13:13:48Z</time></trkpt><trkpt lat="45.54048899121278" lon="10.786834712966703"><ele>180.0</ele><time>2026-03-28T13:13:50Z</time></trkpt><trkpt lat="45.540513768276675" lon="10.786613929759525"><ele>179.0</ele><time>2026-03-28T13:13:52Z</time></trkpt><trkpt lat="45.54052389442786" lon="10.78646932625124"><ele>178.0</ele><time>2026-03-28T13:13:53Z</time></trkpt><trkpt lat="45.54057966393214" lon="10.786366461563357"><ele>178.0</ele><time>2026-03-28T13:13:54Z</time></trkpt><trkpt lat="45.54062127864968" lon="10.7862759613605"><ele>178.0</ele><time>2026-03-28T13:13:55Z</time></trkpt><trkpt lat="45.54066833065792" lon="10.786157309215042"><ele>178.0</ele><time>2026-03-28T13:13:56Z</time></trkpt><trkpt lat="45.54073026739016" lon="10.786055554089332"><ele>178.0</ele><time>2026-03-28T13:13:57Z</time></trkpt><trkpt lat="45.54079217336144" lon="10.785934775092242"><ele>178.0</ele><time>2026-03-28T13:13:58Z</time></trkpt><trkpt lat="45.54086239235756" lon="10.78581620128193"><ele>177.8</ele><time>2026-03-28T13:13:59Z</time></trkpt><trkpt lat="45.54094370446468" lon="10.785692712132999"><ele>177.60000000000002</ele><time>2026-03-28T13:14:00Z</time></trkpt><trkpt lat="45.54103891484547" lon="10.785593430441907"><ele>177.39999999999998</ele><time>2026-03-28T13:14:01Z</time></trkpt><trkpt lat="45.541120191210865" lon="10.785492682441136"><ele>177.2</ele><time>2026-03-28T13:14:02Z</time></trkpt><trkpt lat="45.54119808944264" lon="10.785402873864912"><ele>177.0</ele><time>2026-03-28T13:14:03Z</time></trkpt><trkpt lat="45.54129296015031" lon="10.785302608362107"><ele>177.0</ele><time>2026-03-28T13:14:04Z</time></trkpt><trkpt lat="45.54137367146158" lon="10.78522589381498"><ele>177.0</ele><time>2026-03-28T13:14:05Z</time></trkpt><trkpt lat="45.54143675435638" lon="10.785179267361013"><ele>177.0</ele><time>2026-03-28T13:14:06Z</time></trkpt><trkpt lat="45.54152293530378" lon="10.785129159472849"><ele>177.0</ele><time>2026-03-28T13:14:07Z</time></trkpt><trkpt lat="45.541627372563504" lon="10.785022648302641"><ele>177.0</ele><time>2026-03-28T13:14:08Z</time></trkpt><trkpt lat="45.54176318641991" lon="10.784916029039335"><ele>178.66666666666666</ele><time>2026-03-28T13:14:09Z</time></trkpt><trkpt lat="45.54191262201" lon="10.78481508039113"><ele>180.33333333333331</ele><time>2026-03-28T13:14:10Z</time></trkpt><trkpt lat="45.54205441863218" lon="10.784708717015977"><ele>182.0</ele><time>2026-03-28T13:14:11Z</time></trkpt><trkpt lat="45.54217054169142" lon="10.784599593696937"><ele>182.0</ele><time>2026-03-28T13:14:12Z</time></trkpt><trkpt lat="45.54227248474096" lon="10.784457323828189"><ele>182.0</ele><time>2026-03-28T13:14:13Z</time></trkpt><trkpt lat="45.54236279327754" lon="10.784288098158251"><ele>182.0</ele><time>2026-03-28T13:14:14Z</time></trkpt><trkpt lat="45.542454516578495" lon="10.784086527507453"><ele>183.33333333333331</ele><time>2026-03-28T13:14:15Z</time></trkpt><trkpt lat="45.54254928843239" lon="10.783864111658763"><ele>184.66666666666666</ele><time>2026-03-28T13:14:16Z</time></trkpt><trkpt lat="45.542636142567716" lon="10.783687941503102"><ele>186.0</ele><time>2026-03-28T13:14:17Z</time></trkpt><trkpt lat="45.54273595894601" lon="10.783535939305839"><ele>186.0</ele><time>2026-03-28T13:14:18Z</time></trkpt><trkpt lat="45.54287056639791" lon="10.783390824489853"><ele>186.0</ele><time>2026-03-28T13:14:19Z</time></trkpt><trkpt lat="45.5430152131835" lon="10.78323501718979"><ele>186.0</ele><time>2026-03-28T13:14:20Z</time></trkpt><trkpt lat="45.543137223913604" lon="10.783081172965368"><ele>186.0</ele><time>2026-03-28T13:14:21Z</time></trkpt><trkpt lat="45.54321439464558" lon="10.782950072201002"><ele>186.0</ele><time>2026-03-28T13:14:22Z</time></trkpt><trkpt lat="45.54326299074442" lon="10.782823404314241"><ele>186.0</ele><time>2026-03-28T13:14:23Z</time></trkpt><trkpt lat="45.54328106044002" lon="10.782702861270023"><ele>186.0</ele><time>2026-03-28T13:14:24Z</time></trkpt><trkpt lat="45.54328425900958" lon="10.782612389414453"><ele>186.0</ele><time>2026-03-28T13:14:25Z</time></trkpt><trkpt lat="45.543283219159186" lon="10.782510347515082"><ele>186.0</ele><time>2026-03-28T13:14:28Z</time></trkpt><trkpt lat="45.54321459435531" lon="10.7823449954916"><ele>187.0</ele><time>2026-03-28T13:14:31Z</time></trkpt><trkpt lat="45.54316421637437" lon="10.782230382622577"><ele>188.0</ele><time>2026-03-28T13:14:32Z</time></trkpt><trkpt lat="45.54316026825232" lon="10.782097907628462"><ele>189.0</ele><time>2026-03-28T13:14:33Z</time></trkpt><trkpt lat="45.54312141028751" lon="10.781963665907536"><ele>190.0</ele><time>2026-03-28T13:14:34Z</time></trkpt><trkpt lat="45.543108049152075" lon="10.781826049015356"><ele>191.0</ele><time>2026-03-28T13:14:35Z</time></trkpt><trkpt lat="45.5431308477986" lon="10.78171256391016"><ele>191.0</ele><time>2026-03-28T13:14:36Z</time></trkpt><trkpt lat="45.54321322752078" lon="10.781599903348173"><ele>191.0</ele><time>2026-03-28T13:14:37Z</time></trkpt><trkpt lat="45.543277605363514" lon="10.781442372973391"><ele>191.0</ele><time>2026-03-28T13:14:38Z</time></trkpt><trkpt lat="45.54333182843935" lon="10.781269453660494"><ele>191.0</ele><time>2026-03-28T13:14:39Z</time></trkpt><trkpt lat="45.54338853370188" lon="10.781144731814651"><ele>191.0</ele><time>2026-03-28T13:14:40Z</time></trkpt><trkpt lat="45.5434300104067" lon="10.78106122295478"><ele>191.0</ele><time>2026-03-28T13:14:41Z</time></trkpt><trkpt lat="45.54358228684249" lon="10.781156000233283"><ele>191.0</ele><time>2026-03-28T13:14:44Z</time></trkpt><trkpt lat="45.54367131694791" lon="10.781291696662336"><ele>191.0</ele><time>2026-03-28T13:14:45Z</time></trkpt><trkpt lat="45.5437936599667" lon="10.781466418817503"><ele>191.0</ele><time>2026-03-28T13:14:46Z</time></trkpt><trkpt lat="45.54391127834416" lon="10.781665052386975"><ele>191.0</ele><time>2026-03-28T13:14:47Z</time></trkpt><trkpt lat="45.54405684788278" lon="10.781864416911734"><ele>191.0</ele><time>2026-03-28T13:14:48Z</time></trkpt><trkpt lat="45.54422572506652" lon="10.782066765372232"><ele>189.0</ele><time>2026-03-28T13:14:49Z</time></trkpt><trkpt lat="45.54441094607287" lon="10.782281773473825"><ele>187.0</ele><time>2026-03-28T13:14:50Z</time></trkpt><trkpt lat="45.54459589334783" lon="10.782505513807239"><ele>186.0</ele><time>2026-03-28T13:14:51Z</time></trkpt><trkpt lat="45.544782769966794" lon="10.782738439544215"><ele>185.0</ele><time>2026-03-28T13:14:52Z</time></trkpt><trkpt lat="45.54497199307814" lon="10.782976019934175"><ele>185.0</ele><time>2026-03-28T13:14:53Z</time></trkpt><trkpt lat="45.545161244982154" lon="10.783226206762402"><ele>185.0</ele><time>2026-03-28T13:14:54Z</time></trkpt><trkpt lat="45.545340946541174" lon="10.78348356939431"><ele>184.5</ele><time>2026-03-28T13:14:55Z</time></trkpt><trkpt lat="45.545523108393645" lon="10.783759102894491"><ele>184.0</ele><time>2026-03-28T13:14:56Z</time></trkpt><trkpt lat="45.54569678602758" lon="10.784055836432096"><ele>183.0</ele><time>2026-03-28T13:14:57Z</time></trkpt><trkpt lat="45.545867180776725" lon="10.784348501694978"><ele>182.0</ele><time>2026-03-28T13:14:58Z</time></trkpt><trkpt lat="45.54603387721069" lon="10.784637237204423"><ele>182.0</ele><time>2026-03-28T13:14:59Z</time></trkpt><trkpt lat="45.54618160087991" lon="10.784901526450334"><ele>182.0</ele><time>2026-03-28T13:15:00Z</time></trkpt><trkpt lat="45.54632594432593" lon="10.785163533152982"><ele>182.0</ele><time>2026-03-28T13:15:01Z</time></trkpt><trkpt lat="45.5464633820428" lon="10.785408302788031"><ele>182.0</ele><time>2026-03-28T13:15:02Z</time></trkpt><trkpt lat="45.54659830657433" lon="10.78563512621138"><ele>182.0</ele><time>2026-03-28T13:15:03Z</time></trkpt><trkpt lat="45.54672932005366" lon="10.785840045851437"><ele>180.0</ele><time>2026-03-28T13:15:04Z</time></trkpt><trkpt lat="45.54682701727046" lon="10.786036797424003"><ele>178.0</ele><time>2026-03-28T13:15:05Z</time></trkpt><trkpt lat="45.546925494815476" lon="10.786200777616012"><ele>176.0</ele><time>2026-03-28T13:15:06Z</time></trkpt><trkpt lat="45.54702277391307" lon="10.786364896910836"><ele>175.0</ele><time>2026-03-28T13:15:07Z</time></trkpt><trkpt lat="45.54713261060155" lon="10.786559894215634"><ele>174.0</ele><time>2026-03-28T13:15:08Z</time></trkpt><trkpt lat="45.54725126065527" lon="10.786777499437507"><ele>173.0</ele><time>2026-03-28T13:15:09Z</time></trkpt><trkpt lat="45.547370627057184" lon="10.787001400962936"><ele>173.0</ele><time>2026-03-28T13:15:10Z</time></trkpt><trkpt lat="45.54750780121346" lon="10.787223024508904"><ele>173.0</ele><time>2026-03-28T13:15:11Z</time></trkpt><trkpt lat="45.547625723431445" lon="10.787465405336766"><ele>173.0</ele><time>2026-03-28T13:15:12Z</time></trkpt><trkpt lat="45.54775307623789" lon="10.787701798346632"><ele>174.0</ele><time>2026-03-28T13:15:13Z</time></trkpt><trkpt lat="45.547887364409156" lon="10.787945184711479"><ele>175.0</ele><time>2026-03-28T13:15:14Z</time></trkpt><trkpt lat="45.54801166751616" lon="10.788161264664666"><ele>176.0</ele><time>2026-03-28T13:15:15Z</time></trkpt><trkpt lat="45.54812221284288" lon="10.78834803014413"><ele>176.0</ele><time>2026-03-28T13:15:16Z</time></trkpt><trkpt lat="45.5482149735804" lon="10.788508953228499"><ele>176.0</ele><time>2026-03-28T13:15:17Z</time></trkpt><trkpt lat="45.5482851264599" lon="10.788625104883918"><ele>176.0</ele><time>2026-03-28T13:15:18Z</time></trkpt><trkpt lat="45.548338045154765" lon="10.788701438714375"><ele>176.0</ele><time>2026-03-28T13:15:19Z</time></trkpt><trkpt lat="45.54826817482794" lon="10.788815498124933"><ele>176.0</ele><time>2026-03-28T13:15:22Z</time></trkpt><trkpt lat="45.548181673036126" lon="10.788910537410478"><ele>177.25</ele><time>2026-03-28T13:15:23Z</time></trkpt><trkpt lat="45.548085307347996" lon="10.789019200720821"><ele>178.5</ele><time>2026-03-28T13:15:24Z</time></trkpt><trkpt lat="45.547983438283794" lon="10.789107114454021"><ele>179.75</ele><time>2026-03-28T13:15:25Z</time></trkpt><trkpt lat="45.54789080459326" lon="10.789193029794626"><ele>181.0</ele><time>2026-03-28T13:15:26Z</time></trkpt><trkpt lat="45.547694453645335" lon="10.78945401719048"><ele>181.5</ele><time>2026-03-28T13:15:27Z</time></trkpt><trkpt lat="45.547586822198234" lon="10.789583838468962"><ele>182.0</ele><time>2026-03-28T13:15:28Z</time></trkpt><trkpt lat="45.5474955178296" lon="10.789655249614693"><ele>182.5</ele><time>2026-03-28T13:15:29Z</time></trkpt><trkpt lat="45.54738904891309" lon="10.789707666972427"><ele>183.0</ele><time>2026-03-28T13:15:30Z</time></trkpt><trkpt lat="45.547259517345076" lon="10.789773746125569"><ele>183.0</ele><time>2026-03-28T13:15:31Z</time></trkpt><trkpt lat="45.547135628364764" lon="10.789836946794912"><ele>183.0</ele><time>2026-03-28T13:15:32Z</time></trkpt><trkpt lat="45.547024168264144" lon="10.789902321584442"><ele>183.0</ele><time>2026-03-28T13:15:33Z</time></trkpt><trkpt lat="45.546926862758376" lon="10.789966058741348"><ele>183.0</ele><time>2026-03-28T13:15:34Z</time></trkpt><trkpt lat="45.54683144984775" lon="10.790021801352541"><ele>182.60000000000002</ele><time>2026-03-28T13:15:35Z</time></trkpt><trkpt lat="45.54674191318583" lon="10.790100158887023"><ele>182.20000000000002</ele><time>2026-03-28T13:15:36Z</time></trkpt><trkpt lat="45.54668904551183" lon="10.790197731516182"><ele>181.8</ele><time>2026-03-28T13:15:37Z</time></trkpt><trkpt lat="45.54665126241339" lon="10.79032279785845"><ele>181.4</ele><time>2026-03-28T13:15:38Z</time></trkpt><trkpt lat="45.54664021613115" lon="10.790462283139105"><ele>181.0</ele><time>2026-03-28T13:15:39Z</time></trkpt><trkpt lat="45.54661920122068" lon="10.790646439293129"><ele>180.66666666666669</ele><time>2026-03-28T13:15:40Z</time></trkpt><trkpt lat="45.54658469797956" lon="10.79087016931831"><ele>180.33333333333334</ele><time>2026-03-28T13:15:41Z</time></trkpt><trkpt lat="45.546547109847744" lon="10.791119219427001"><ele>180.0</ele><time>2026-03-28T13:15:42Z</time></trkpt><trkpt lat="45.54650371203775" lon="10.791372391530079"><ele>181.0</ele><time>2026-03-28T13:15:43Z</time></trkpt><trkpt lat="45.54646226231084" lon="10.791660090909819"><ele>182.0</ele><time>2026-03-28T13:15:44Z</time></trkpt><trkpt lat="45.546416082004285" lon="10.79195701507988"><ele>183.0</ele><time>2026-03-28T13:15:45Z</time></trkpt><trkpt lat="45.546372918039566" lon="10.792227189657584"><ele>183.0</ele><time>2026-03-28T13:15:46Z</time></trkpt><trkpt lat="45.54633953813917" lon="10.792456797641925"><ele>183.0</ele><time>2026-03-28T13:15:47Z</time></trkpt><trkpt lat="45.54631212787132" lon="10.792651698108855"><ele>183.0</ele><time>2026-03-28T13:15:48Z</time></trkpt><trkpt lat="45.546284856651845" lon="10.792807256622"><ele>183.0</ele><time>2026-03-28T13:15:49Z</time></trkpt><trkpt lat="45.54627250946387" lon="10.792928536228258"><ele>182.8</ele><time>2026-03-28T13:15:50Z</time></trkpt><trkpt lat="45.54627349035164" lon="10.793042070506077"><ele>182.60000000000002</ele><time>2026-03-28T13:15:52Z</time></trkpt><trkpt lat="45.54636966494186" lon="10.793094359826144"><ele>182.39999999999998</ele><time>2026-03-28T13:15:54Z</time></trkpt><trkpt lat="45.54646579065167" lon="10.793109535114905"><ele>182.2</ele><time>2026-03-28T13:15:55Z</time></trkpt><trkpt lat="45.546578137612826" lon="10.793150178406233"><ele>182.0</ele><time>2026-03-28T13:15:56Z</time></trkpt><trkpt lat="45.54671234829918" lon="10.793205246746467"><ele>182.0</ele><time>2026-03-28T13:15:57Z</time></trkpt><trkpt lat="45.546847796705215" lon="10.793290186750415"><ele>182.0</ele><time>2026-03-28T13:15:58Z</time></trkpt><trkpt lat="45.546981966365706" lon="10.7933263233001"><ele>182.0</ele><time>2026-03-28T13:15:59Z</time></trkpt><trkpt lat="45.54710232241045" lon="10.793388548502985"><ele>182.0</ele><time>2026-03-28T13:16:00Z</time></trkpt><trkpt lat="45.547211431151155" lon="10.793437040204658"><ele>182.0</ele><time>2026-03-28T13:16:01Z</time></trkpt><trkpt lat="45.547295416442864" lon="10.793499081846846"><ele>182.0</ele><time>2026-03-28T13:16:02Z</time></trkpt><trkpt lat="45.54740687048317" lon="10.79351999466191"><ele>182.0</ele><time>2026-03-28T13:16:04Z</time></trkpt><trkpt lat="45.547494779060706" lon="10.793418320741651"><ele>182.0</ele><time>2026-03-28T13:16:06Z</time></trkpt><trkpt lat="45.54749792965721" lon="10.793327418379222"><ele>182.0</ele><time>2026-03-28T13:16:07Z</time></trkpt><trkpt lat="45.54751487122062" lon="10.793228062765744"><ele>182.0</ele><time>2026-03-28T13:16:08Z</time></trkpt><trkpt lat="45.54752358110109" lon="10.793082094929883"><ele>182.0</ele><time>2026-03-28T13:16:09Z</time></trkpt><trkpt lat="45.547550252816606" lon="10.792906807358357"><ele>182.0</ele><time>2026-03-28T13:16:10Z</time></trkpt><trkpt lat="45.54758319820427" lon="10.79273876197128"><ele>182.0</ele><time>2026-03-28T13:16:11Z</time></trkpt><trkpt lat="45.54761978256933" lon="10.792607371860175"><ele>182.0</ele><time>2026-03-28T13:16:12Z</time></trkpt><trkpt lat="45.54764942836898" lon="10.79251602380697"><ele>181.8</ele><time>2026-03-28T13:16:13Z</time></trkpt><trkpt lat="45.54771366275666" lon="10.792420593172052"><ele>181.6</ele><time>2026-03-28T13:16:15Z</time></trkpt><trkpt lat="45.54781567515152" lon="10.792408125806647"><ele>181.4</ele><time>2026-03-28T13:16:17Z</time></trkpt><trkpt lat="45.547921377661126" lon="10.792489588915528"><ele>181.20000000000002</ele><time>2026-03-28T13:16:19Z</time></trkpt><trkpt lat="45.54796606849157" lon="10.792572657341909"><ele>181.0</ele><time>2026-03-28T13:16:20Z</time></trkpt><trkpt lat="45.54805238689965" lon="10.79264422468654"><ele>181.4</ele><time>2026-03-28T13:16:21Z</time></trkpt><trkpt lat="45.54812665335909" lon="10.792710720074467"><ele>181.8</ele><time>2026-03-28T13:16:22Z</time></trkpt><trkpt lat="45.548204147744855" lon="10.792756178993205"><ele>182.20000000000002</ele><time>2026-03-28T13:16:23Z</time></trkpt><trkpt lat="45.548316136237325" lon="10.792795745537454"><ele>182.60000000000002</ele><time>2026-03-28T13:16:24Z</time></trkpt><trkpt lat="45.548436571573795" lon="10.792832920087006"><ele>183.0</ele><time>2026-03-28T13:16:25Z</time></trkpt><trkpt lat="45.548542663983476" lon="10.792850819922831"><ele>183.0</ele><time>2026-03-28T13:16:26Z</time></trkpt><trkpt lat="45.548656387756154" lon="10.792846842043495"><ele>183.0</ele><time>2026-03-28T13:16:27Z</time></trkpt><trkpt lat="45.54877733749131" lon="10.792829888136984"><ele>183.0</ele><time>2026-03-28T13:16:28Z</time></trkpt><trkpt lat="45.548909710694" lon="10.792809504906222"><ele>183.0</ele><time>2026-03-28T13:16:29Z</time></trkpt><trkpt lat="45.549032240431" lon="10.792785108579276"><ele>183.8</ele><time>2026-03-28T13:16:30Z</time></trkpt><trkpt lat="45.549133133687185" lon="10.792745763737132"><ele>184.60000000000002</ele><time>2026-03-28T13:16:31Z</time></trkpt><trkpt lat="45.54921720671243" lon="10.792743749726977"><ele>185.39999999999998</ele><time>2026-03-28T13:16:32Z</time></trkpt><trkpt lat="45.54931363403503" lon="10.792722884716081"><ele>186.2</ele><time>2026-03-28T13:16:33Z</time></trkpt><trkpt lat="45.54941498913199" lon="10.792718005513716"><ele>187.0</ele><time>2026-03-28T13:16:34Z</time></trkpt><trkpt lat="45.54951048801417" lon="10.792736630952996"><ele>186.8</ele><time>2026-03-28T13:16:35Z</time></trkpt><trkpt lat="45.54959358837832" lon="10.792763030672054"><ele>186.6</ele><time>2026-03-28T13:16:36Z</time></trkpt><trkpt lat="45.54965964763176" lon="10.792795134311193"><ele>186.4</ele><time>2026-03-28T13:16:37Z</time></trkpt><trkpt lat="45.54974377661324" lon="10.792842827491073"><ele>186.20000000000002</ele><time>2026-03-28T13:16:38Z</time></trkpt><trkpt lat="45.54985719761487" lon="10.792933239365091"><ele>186.0</ele><time>2026-03-28T13:16:39Z</time></trkpt><trkpt lat="45.54995830234259" lon="10.793031708553116"><ele>186.0</ele><time>2026-03-28T13:16:40Z</time></trkpt><trkpt lat="45.55005528696399" lon="10.793133746458844"><ele>186.0</ele><time>2026-03-28T13:16:41Z</time></trkpt><trkpt lat="45.55011984395139" lon="10.793247027307793"><ele>186.0</ele><time>2026-03-28T13:16:42Z</time></trkpt><trkpt lat="45.55018610010753" lon="10.793341959216447"><ele>186.0</ele><time>2026-03-28T13:16:43Z</time></trkpt><trkpt lat="45.55025859134462" lon="10.793462043407702"><ele>186.0</ele><time>2026-03-28T13:16:44Z</time></trkpt><trkpt lat="45.55033745547379" lon="10.793607693028498"><ele>186.20000000000002</ele><time>2026-03-28T13:16:45Z</time></trkpt><trkpt lat="45.55041261818371" lon="10.793746506248402"><ele>186.4</ele><time>2026-03-28T13:16:46Z</time></trkpt><trkpt lat="45.5504811977107" lon="10.793873161849344"><ele>186.6</ele><time>2026-03-28T13:16:47Z</time></trkpt><trkpt lat="45.55055867224614" lon="10.793993429719738"><ele>186.8</ele><time>2026-03-28T13:16:48Z</time></trkpt><trkpt lat="45.55060642785031" lon="10.794097504129946"><ele>187.0</ele><time>2026-03-28T13:16:49Z</time></trkpt><trkpt lat="45.55067086137679" lon="10.79421114053544"><ele>187.0</ele><time>2026-03-28T13:16:50Z</time></trkpt><trkpt lat="45.550721484396256" lon="10.79432626948107"><ele>187.0</ele><time>2026-03-28T13:16:51Z</time></trkpt><trkpt lat="45.55074945334051" lon="10.794433925827846"><ele>187.0</ele><time>2026-03-28T13:16:52Z</time></trkpt><trkpt lat="45.55075348005487" lon="10.79459626325469"><ele>187.0</ele><time>2026-03-28T13:16:54Z</time></trkpt><trkpt lat="45.55075186224262" lon="10.79472234956858"><ele>187.0</ele><time>2026-03-28T13:16:55Z</time></trkpt><trkpt lat="45.55075481884525" lon="10.794873937759123"><ele>186.75</ele><time>2026-03-28T13:16:56Z</time></trkpt><trkpt lat="45.550765575101785" lon="10.795012395379901"><ele>186.5</ele><time>2026-03-28T13:16:57Z</time></trkpt><trkpt lat="45.550752717670136" lon="10.795215902898663"><ele>186.25</ele><time>2026-03-28T13:16:58Z</time></trkpt><trkpt lat="45.55074921624433" lon="10.795449522168225"><ele>186.0</ele><time>2026-03-28T13:16:59Z</time></trkpt><trkpt lat="45.55074255832893" lon="10.7956887778976"><ele>186.0</ele><time>2026-03-28T13:17:00Z</time></trkpt><trkpt lat="45.55074479819521" lon="10.795908052795312"><ele>186.0</ele><time>2026-03-28T13:17:01Z</time></trkpt><trkpt lat="45.55076230210361" lon="10.796096178600784"><ele>186.0</ele><time>2026-03-28T13:17:02Z</time></trkpt><trkpt lat="45.55076099688431" lon="10.796267431143885"><ele>186.0</ele><time>2026-03-28T13:17:03Z</time></trkpt><trkpt lat="45.55076985364243" lon="10.796430910081952"><ele>186.0</ele><time>2026-03-28T13:17:04Z</time></trkpt><trkpt lat="45.55079356427615" lon="10.796569048080542"><ele>186.0</ele><time>2026-03-28T13:17:05Z</time></trkpt><trkpt lat="45.55078361253279" lon="10.796684873055618"><ele>186.0</ele><time>2026-03-28T13:17:06Z</time></trkpt><trkpt lat="45.550810042261624" lon="10.79680701731825"><ele>186.0</ele><time>2026-03-28T13:17:07Z</time></trkpt><trkpt lat="45.5508373006802" lon="10.796975075365555"><ele>186.0</ele><time>2026-03-28T13:17:08Z</time></trkpt><trkpt lat="45.55084235246541" lon="10.797186238021201"><ele>186.0</ele><time>2026-03-28T13:17:09Z</time></trkpt><trkpt lat="45.55082448278536" lon="10.797422338760187"><ele>186.0</ele><time>2026-03-28T13:17:10Z</time></trkpt><trkpt lat="45.55081174976019" lon="10.797647768320497"><ele>186.0</ele><time>2026-03-28T13:17:11Z</time></trkpt><trkpt lat="45.55080478177946" lon="10.79785907197117"><ele>186.0</ele><time>2026-03-28T13:17:12Z</time></trkpt><trkpt lat="45.5507987144278" lon="10.798065941552572"><ele>186.0</ele><time>2026-03-28T13:17:13Z</time></trkpt><trkpt lat="45.55078530822739" lon="10.798283794985561"><ele>186.0</ele><time>2026-03-28T13:17:14Z</time></trkpt><trkpt lat="45.55076593136281" lon="10.798504955312852"><ele>185.75</ele><time>2026-03-28T13:17:15Z</time></trkpt><trkpt lat="45.550748018409216" lon="10.798716575281222"><ele>185.5</ele><time>2026-03-28T13:17:16Z</time></trkpt><trkpt lat="45.550743985568886" lon="10.798914661214258"><ele>185.25</ele><time>2026-03-28T13:17:17Z</time></trkpt><trkpt lat="45.55074606324582" lon="10.799106792830962"><ele>185.0</ele><time>2026-03-28T13:17:18Z</time></trkpt><trkpt lat="45.550751021955676" lon="10.799285229135627"><ele>184.75</ele><time>2026-03-28T13:17:19Z</time></trkpt><trkpt lat="45.55075790061256" lon="10.799479661737358"><ele>184.5</ele><time>2026-03-28T13:17:20Z</time></trkpt><trkpt lat="45.550763924852774" lon="10.799690867213549"><ele>184.25</ele><time>2026-03-28T13:17:21Z</time></trkpt><trkpt lat="45.55077410608152" lon="10.799907267907148"><ele>184.0</ele><time>2026-03-28T13:17:22Z</time></trkpt><trkpt lat="45.55078046022691" lon="10.800117717479326"><ele>183.0</ele><time>2026-03-28T13:17:23Z</time></trkpt><trkpt lat="45.55079006375831" lon="10.800320423417663"><ele>182.0</ele><time>2026-03-28T13:17:24Z</time></trkpt><trkpt lat="45.55080012149982" lon="10.800510989000534"><ele>181.0</ele><time>2026-03-28T13:17:25Z</time></trkpt><trkpt lat="45.55081366179717" lon="10.800702218075992"><ele>180.0</ele><time>2026-03-28T13:17:26Z</time></trkpt><trkpt lat="45.55083092046154" lon="10.800888310934404"><ele>179.25</ele><time>2026-03-28T13:17:27Z</time></trkpt><trkpt lat="45.550848741304215" lon="10.801082119680425"><ele>178.5</ele><time>2026-03-28T13:17:28Z</time></trkpt><trkpt lat="45.55086422377559" lon="10.801281017119411"><ele>177.75</ele><time>2026-03-28T13:17:29Z</time></trkpt><trkpt lat="45.55087503506452" lon="10.801479498236873"><ele>177.0</ele><time>2026-03-28T13:17:30Z</time></trkpt><trkpt lat="45.55086807772692" lon="10.801681846454022"><ele>177.0</ele><time>2026-03-28T13:17:31Z</time></trkpt><trkpt lat="45.55084597044543" lon="10.801888208994804"><ele>177.0</ele><time>2026-03-28T13:17:32Z</time></trkpt><trkpt lat="45.55082251134575" lon="10.802088390202739"><ele>177.0</ele><time>2026-03-28T13:17:33Z</time></trkpt><trkpt lat="45.55080641554641" lon="10.802264759049084"><ele>177.0</ele><time>2026-03-28T13:17:34Z</time></trkpt><trkpt lat="45.550797056491895" lon="10.802436881801064"><ele>177.0</ele><time>2026-03-28T13:17:35Z</time></trkpt><trkpt lat="45.55078583435817" lon="10.802604234456098"><ele>177.0</ele><time>2026-03-28T13:17:36Z</time></trkpt><trkpt lat="45.55076139974481" lon="10.802759309696386"><ele>177.0</ele><time>2026-03-28T13:17:37Z</time></trkpt><trkpt lat="45.55071414226354" lon="10.80291011930558"><ele>177.0</ele><time>2026-03-28T13:17:38Z</time></trkpt><trkpt lat="45.55064711808707" lon="10.803062468507594"><ele>176.2</ele><time>2026-03-28T13:17:39Z</time></trkpt><trkpt lat="45.55057570496918" lon="10.80321107181291"><ele>175.39999999999998</ele><time>2026-03-28T13:17:40Z</time></trkpt><trkpt lat="45.55050426643599" lon="10.803340894159893"><ele>174.60000000000002</ele><time>2026-03-28T13:17:41Z</time></trkpt><trkpt lat="45.550431159366155" lon="10.803456534923551"><ele>173.8</ele><time>2026-03-28T13:17:42Z</time></trkpt><trkpt lat="45.55036934879358" lon="10.803554102083773"><ele>173.0</ele><time>2026-03-28T13:17:43Z</time></trkpt><trkpt lat="45.55033163880249" lon="10.803650124715505"><ele>172.60000000000002</ele><time>2026-03-28T13:17:44Z</time></trkpt><trkpt lat="45.55034040108073" lon="10.803788121196806"><ele>172.20000000000002</ele><time>2026-03-28T13:17:46Z</time></trkpt><trkpt lat="45.55040518849382" lon="10.80387180469466"><ele>171.8</ele><time>2026-03-28T13:17:49Z</time></trkpt><trkpt lat="45.55048854984527" lon="10.803908894270226"><ele>171.4</ele><time>2026-03-28T13:17:52Z</time></trkpt><trkpt lat="45.55056487254046" lon="10.803942960798379"><ele>171.0</ele><time>2026-03-28T13:17:53Z</time></trkpt><trkpt lat="45.550662581131135" lon="10.803985332224704"><ele>171.0</ele><time>2026-03-28T13:17:54Z</time></trkpt><trkpt lat="45.550779840815835" lon="10.804008814768228"><ele>171.0</ele><time>2026-03-28T13:17:55Z</time></trkpt><trkpt lat="45.55093353080264" lon="10.80401239218678"><ele>171.0</ele><time>2026-03-28T13:17:56Z</time></trkpt><trkpt lat="45.5511121884138" lon="10.803994300648757"><ele>172.0</ele><time>2026-03-28T13:17:57Z</time></trkpt><trkpt lat="45.551312190662074" lon="10.803967126477428"><ele>173.0</ele><time>2026-03-28T13:17:58Z</time></trkpt><trkpt lat="45.55156663228044" lon="10.803943727976511"><ele>173.0</ele><time>2026-03-28T13:17:59Z</time></trkpt><trkpt lat="45.55184186755185" lon="10.803916148228302"><ele>173.0</ele><time>2026-03-28T13:18:00Z</time></trkpt><trkpt lat="45.55212499105721" lon="10.803916764340265"><ele>172.5</ele><time>2026-03-28T13:18:01Z</time></trkpt><trkpt lat="45.552383120026" lon="10.803868153680007"><ele>172.0</ele><time>2026-03-28T13:18:02Z</time></trkpt><trkpt lat="45.55262273989388" lon="10.803840308667732"><ele>172.0</ele><time>2026-03-28T13:18:03Z</time></trkpt><trkpt lat="45.55285928165687" lon="10.803800705783997"><ele>172.0</ele><time>2026-03-28T13:18:04Z</time></trkpt><trkpt lat="45.55309238441601" lon="10.803757479449583"><ele>173.0</ele><time>2026-03-28T13:18:05Z</time></trkpt><trkpt lat="45.55331486730306" lon="10.803711472764006"><ele>174.0</ele><time>2026-03-28T13:18:06Z</time></trkpt><trkpt lat="45.55350734807119" lon="10.80367275954204"><ele>175.0</ele><time>2026-03-28T13:18:07Z</time></trkpt><trkpt lat="45.55368860807993" lon="10.80363791824006"><ele>175.0</ele><time>2026-03-28T13:18:08Z</time></trkpt><trkpt lat="45.55387356618527" lon="10.80361195275328"><ele>175.0</ele><time>2026-03-28T13:18:09Z</time></trkpt><trkpt lat="45.554068670438646" lon="10.803595285574183"><ele>175.0</ele><time>2026-03-28T13:18:10Z</time></trkpt><trkpt lat="45.5542450836315" lon="10.803594136205968"><ele>175.0</ele><time>2026-03-28T13:18:11Z</time></trkpt><trkpt lat="45.55440939374633" lon="10.803614765496986"><ele>175.0</ele><time>2026-03-28T13:18:12Z</time></trkpt><trkpt lat="45.554562246693116" lon="10.803632963682599"><ele>175.0</ele><time>2026-03-28T13:18:13Z</time></trkpt><trkpt lat="45.55472618514418" lon="10.803646759486591"><ele>176.0</ele><time>2026-03-28T13:18:14Z</time></trkpt><trkpt lat="45.55488642710899" lon="10.803651964134941"><ele>177.0</ele><time>2026-03-28T13:18:15Z</time></trkpt><trkpt lat="45.55504557734928" lon="10.803629391221222"><ele>178.0</ele><time>2026-03-28T13:18:16Z</time></trkpt><trkpt lat="45.55521736689272" lon="10.803544308303547"><ele>178.0</ele><time>2026-03-28T13:18:17Z</time></trkpt><trkpt lat="45.55544025155833" lon="10.803441637643312"><ele>178.0</ele><time>2026-03-28T13:18:18Z</time></trkpt><trkpt lat="45.55566262061481" lon="10.803243551541001"><ele>178.0</ele><time>2026-03-28T13:18:19Z</time></trkpt><trkpt lat="45.55590021998983" lon="10.803043050886648"><ele>178.0</ele><time>2026-03-28T13:18:20Z</time></trkpt><trkpt lat="45.556144108381424" lon="10.802821419938981"><ele>179.0</ele><time>2026-03-28T13:18:21Z</time></trkpt><trkpt lat="45.556394144292334" lon="10.802581789677474"><ele>180.0</ele><time>2026-03-28T13:18:22Z</time></trkpt><trkpt lat="45.556634059866454" lon="10.802357812435439"><ele>180.0</ele><time>2026-03-28T13:18:23Z</time></trkpt><trkpt lat="45.55684758065989" lon="10.802161996733817"><ele>180.0</ele><time>2026-03-28T13:18:24Z</time></trkpt><trkpt lat="45.5570463259677" lon="10.801978335600449"><ele>181.5</ele><time>2026-03-28T13:18:25Z</time></trkpt><trkpt lat="45.5572455319874" lon="10.801794424970392"><ele>183.0</ele><time>2026-03-28T13:18:26Z</time></trkpt><trkpt lat="45.55745234674381" lon="10.801610256304164"><ele>183.0</ele><time>2026-03-28T13:18:27Z</time></trkpt><trkpt lat="45.557653452744404" lon="10.801438152509267"><ele>183.0</ele><time>2026-03-28T13:18:28Z</time></trkpt><trkpt lat="45.557867372346415" lon="10.80127505767671"><ele>184.0</ele><time>2026-03-28T13:18:29Z</time></trkpt><trkpt lat="45.55807823099962" lon="10.801119546728522"><ele>185.0</ele><time>2026-03-28T13:18:30Z</time></trkpt><trkpt lat="45.55827535082231" lon="10.800961271798073"><ele>185.0</ele><time>2026-03-28T13:18:31Z</time></trkpt><trkpt lat="45.55845116422093" lon="10.800805694778601"><ele>185.0</ele><time>2026-03-28T13:18:32Z</time></trkpt><trkpt lat="45.558613458523055" lon="10.800622158082353"><ele>185.0</ele><time>2026-03-28T13:18:33Z</time></trkpt><trkpt lat="45.55876815517654" lon="10.800424862102203"><ele>185.0</ele><time>2026-03-28T13:18:34Z</time></trkpt><trkpt lat="45.558906135943346" lon="10.800251720979734"><ele>185.0</ele><time>2026-03-28T13:18:35Z</time></trkpt><trkpt lat="45.55903422850212" lon="10.800104410010798"><ele>185.0</ele><time>2026-03-28T13:18:36Z</time></trkpt><trkpt lat="45.55916743751345" lon="10.80001754577963"><ele>185.0</ele><time>2026-03-28T13:18:37Z</time></trkpt><trkpt lat="45.55931671986414" lon="10.799880682048547"><ele>185.0</ele><time>2026-03-28T13:18:38Z</time></trkpt><trkpt lat="45.559524725648856" lon="10.79986610285778"><ele>185.0</ele><time>2026-03-28T13:18:39Z</time></trkpt><trkpt lat="45.55971250666736" lon="10.799864772801106"><ele>185.0</ele><time>2026-03-28T13:18:40Z</time></trkpt><trkpt lat="45.55991747775704" lon="10.799889780020772"><ele>185.0</ele><time>2026-03-28T13:18:41Z</time></trkpt><trkpt lat="45.56014326001807" lon="10.799928781709646"><ele>185.0</ele><time>2026-03-28T13:18:42Z</time></trkpt><trkpt lat="45.560380457551624" lon="10.79996597914573"><ele>185.0</ele><time>2026-03-28T13:18:43Z</time></trkpt><trkpt lat="45.56063058870525" lon="10.799991479216427"><ele>185.0</ele><time>2026-03-28T13:18:44Z</time></trkpt><trkpt lat="45.56089410599826" lon="10.800012441321515"><ele>185.0</ele><time>2026-03-28T13:18:45Z</time></trkpt><trkpt lat="45.561161487481705" lon="10.800041105297142"><ele>185.0</ele><time>2026-03-28T13:18:46Z</time></trkpt><trkpt lat="45.561436543162635" lon="10.800071915721455"><ele>185.5</ele><time>2026-03-28T13:18:47Z</time></trkpt><trkpt lat="45.56171364130248" lon="10.800110723939545"><ele>186.0</ele><time>2026-03-28T13:18:48Z</time></trkpt><trkpt lat="45.5619923225346" lon="10.80015048896801"><ele>187.0</ele><time>2026-03-28T13:18:49Z</time></trkpt><trkpt lat="45.56226612711669" lon="10.80019784379303"><ele>188.0</ele><time>2026-03-28T13:18:50Z</time></trkpt><trkpt lat="45.56252825154654" lon="10.800259077462629"><ele>188.0</ele><time>2026-03-28T13:18:51Z</time></trkpt><trkpt lat="45.56278841677646" lon="10.800335559168358"><ele>188.0</ele><time>2026-03-28T13:18:52Z</time></trkpt><trkpt lat="45.563045989896764" lon="10.800428803700909"><ele>189.5</ele><time>2026-03-28T13:18:53Z</time></trkpt><trkpt lat="45.563286086101684" lon="10.800536427956585"><ele>191.0</ele><time>2026-03-28T13:18:54Z</time></trkpt><trkpt lat="45.56349937992326" lon="10.800674930090246"><ele>191.0</ele><time>2026-03-28T13:18:55Z</time></trkpt><trkpt lat="45.563702458546864" lon="10.800843107932016"><ele>191.0</ele><time>2026-03-28T13:18:56Z</time></trkpt><trkpt lat="45.56390829380331" lon="10.801033959541732"><ele>190.0</ele><time>2026-03-28T13:18:57Z</time></trkpt><trkpt lat="45.5641168551599" lon="10.801223177683458"><ele>189.0</ele><time>2026-03-28T13:18:58Z</time></trkpt><trkpt lat="45.56433686837727" lon="10.801401356583524"><ele>190.0</ele><time>2026-03-28T13:18:59Z</time></trkpt><trkpt lat="45.56456317524693" lon="10.801564387817212"><ele>191.0</ele><time>2026-03-28T13:19:00Z</time></trkpt><trkpt lat="45.56479873948448" lon="10.801705011751611"><ele>191.0</ele><time>2026-03-28T13:19:01Z</time></trkpt><trkpt lat="45.56503850349065" lon="10.801811157647782"><ele>191.0</ele><time>2026-03-28T13:19:02Z</time></trkpt><trkpt lat="45.56529211342147" lon="10.801883967334158"><ele>191.0</ele><time>2026-03-28T13:19:03Z</time></trkpt><trkpt lat="45.565552295725844" lon="10.801939893536105"><ele>191.0</ele><time>2026-03-28T13:19:04Z</time></trkpt><trkpt lat="45.56582100034572" lon="10.801996188442919"><ele>191.0</ele><time>2026-03-28T13:19:05Z</time></trkpt><trkpt lat="45.5660898516348" lon="10.802063947760479"><ele>191.0</ele><time>2026-03-28T13:19:06Z</time></trkpt><trkpt lat="45.56634871374328" lon="10.802125070344024"><ele>190.5</ele><time>2026-03-28T13:19:07Z</time></trkpt><trkpt lat="45.56658054333128" lon="10.802180746252835"><ele>190.0</ele><time>2026-03-28T13:19:08Z</time></trkpt><trkpt lat="45.56680425451765" lon="10.802224458956355"><ele>191.0</ele><time>2026-03-28T13:19:09Z</time></trkpt><trkpt lat="45.56704168191436" lon="10.802248845312109"><ele>192.0</ele><time>2026-03-28T13:19:10Z</time></trkpt><trkpt lat="45.56728500032492" lon="10.802256626379895"><ele>192.0</ele><time>2026-03-28T13:19:11Z</time></trkpt><trkpt lat="45.567537165405824" lon="10.80224968873994"><ele>192.0</ele><time>2026-03-28T13:19:12Z</time></trkpt><trkpt lat="45.56778320620537" lon="10.802226895447381"><ele>191.66666666666666</ele><time>2026-03-28T13:19:13Z</time></trkpt><trkpt lat="45.568004588978454" lon="10.802194887061093"><ele>191.33333333333331</ele><time>2026-03-28T13:19:14Z</time></trkpt><trkpt lat="45.568208010270816" lon="10.802165229418538"><ele>191.0</ele><time>2026-03-28T13:19:15Z</time></trkpt><trkpt lat="45.56839701603274" lon="10.802145467511092"><ele>191.0</ele><time>2026-03-28T13:19:16Z</time></trkpt><trkpt lat="45.568566825909386" lon="10.802135977335741"><ele>191.0</ele><time>2026-03-28T13:19:17Z</time></trkpt><trkpt lat="45.56872335812042" lon="10.802126058670353"><ele>191.0</ele><time>2026-03-28T13:19:18Z</time></trkpt><trkpt lat="45.568861023276455" lon="10.802122080133781"><ele>191.60000000000002</ele><time>2026-03-28T13:19:19Z</time></trkpt><trkpt lat="45.568975910717135" lon="10.802127026005364"><ele>192.2</ele><time>2026-03-28T13:19:20Z</time></trkpt><trkpt lat="45.56907698127583" lon="10.80213862063052"><ele>192.8</ele><time>2026-03-28T13:19:21Z</time></trkpt><trkpt lat="45.56916430804816" lon="10.8021552475818"><ele>193.39999999999998</ele><time>2026-03-28T13:19:22Z</time></trkpt><trkpt lat="45.569230537794255" lon="10.802171321799769"><ele>194.0</ele><time>2026-03-28T13:19:23Z</time></trkpt><trkpt lat="45.56931070161462" lon="10.802169812907328"><ele>194.0</ele><time>2026-03-28T13:19:26Z</time></trkpt><trkpt lat="45.56934581896473" lon="10.802090709830074"><ele>194.0</ele><time>2026-03-28T13:19:27Z</time></trkpt><trkpt lat="45.569365061901124" lon="10.801937721727192"><ele>194.0</ele><time>2026-03-28T13:19:28Z</time></trkpt><trkpt lat="45.56939375892856" lon="10.8017991060473"><ele>194.0</ele><time>2026-03-28T13:19:29Z</time></trkpt><trkpt lat="45.56943723380636" lon="10.801636909775056"><ele>194.0</ele><time>2026-03-28T13:19:30Z</time></trkpt><trkpt lat="45.56948716629096" lon="10.801457768320004"><ele>193.5</ele><time>2026-03-28T13:19:31Z</time></trkpt><trkpt lat="45.569538105276216" lon="10.801286402329092"><ele>193.0</ele><time>2026-03-28T13:19:32Z</time></trkpt><trkpt lat="45.569585897175735" lon="10.801109063675614"><ele>192.5</ele><time>2026-03-28T13:19:33Z</time></trkpt><trkpt lat="45.56963790942571" lon="10.800927302410727"><ele>192.0</ele><time>2026-03-28T13:19:34Z</time></trkpt><trkpt lat="45.569685208323946" lon="10.800749226215524"><ele>192.0</ele><time>2026-03-28T13:19:35Z</time></trkpt><trkpt lat="45.569721733402375" lon="10.800582699562192"><ele>192.0</ele><time>2026-03-28T13:19:36Z</time></trkpt><trkpt lat="45.569753490213365" lon="10.800424734099327"><ele>192.0</ele><time>2026-03-28T13:19:37Z</time></trkpt><trkpt lat="45.56979639673399" lon="10.800293699967359"><ele>192.0</ele><time>2026-03-28T13:19:38Z</time></trkpt><trkpt lat="45.56983917989687" lon="10.800188012459676"><ele>192.0</ele><time>2026-03-28T13:19:39Z</time></trkpt><trkpt lat="45.56988544848767" lon="10.800105860793687"><ele>192.33333333333334</ele><time>2026-03-28T13:19:40Z</time></trkpt><trkpt lat="45.56998945245848" lon="10.800035010593506"><ele>192.66666666666669</ele><time>2026-03-28T13:19:42Z</time></trkpt><trkpt lat="45.57006185494867" lon="10.800011766785504"><ele>193.0</ele><time>2026-03-28T13:19:43Z</time></trkpt><trkpt lat="45.57014368262603" lon="10.800006297768773"><ele>193.33333333333334</ele><time>2026-03-28T13:19:44Z</time></trkpt><trkpt lat="45.57022003146599" lon="10.799993995055814"><ele>193.66666666666669</ele><time>2026-03-28T13:19:45Z</time></trkpt><trkpt lat="45.570299346897016" lon="10.799976651168743"><ele>194.0</ele><time>2026-03-28T13:19:46Z</time></trkpt><trkpt lat="45.57036731702649" lon="10.799953244258361"><ele>194.6</ele><time>2026-03-28T13:19:47Z</time></trkpt><trkpt lat="45.570457546880014" lon="10.799930201349083"><ele>195.2</ele><time>2026-03-28T13:19:48Z</time></trkpt><trkpt lat="45.57054885471575" lon="10.799890564645967"><ele>195.79999999999998</ele><time>2026-03-28T13:19:49Z</time></trkpt><trkpt lat="45.57062793054344" lon="10.799835093117824"><ele>196.39999999999998</ele><time>2026-03-28T13:19:50Z</time></trkpt><trkpt lat="45.57070845147592" lon="10.799759113346909"><ele>197.0</ele><time>2026-03-28T13:19:51Z</time></trkpt><trkpt lat="45.5707900347489" lon="10.799686354612433"><ele>197.0</ele><time>2026-03-28T13:19:52Z</time></trkpt><trkpt lat="45.57086809655417" lon="10.799624240597987"><ele>197.0</ele><time>2026-03-28T13:19:53Z</time></trkpt><trkpt lat="45.570948434758094" lon="10.799568078340121"><ele>197.0</ele><time>2026-03-28T13:19:54Z</time></trkpt><trkpt lat="45.57104045310414" lon="10.799524310688746"><ele>197.0</ele><time>2026-03-28T13:19:55Z</time></trkpt><trkpt lat="45.57113195431616" lon="10.799470937412512"><ele>197.0</ele><time>2026-03-28T13:19:56Z</time></trkpt><trkpt lat="45.5712163798737" lon="10.799405523488414"><ele>197.0</ele><time>2026-03-28T13:19:57Z</time></trkpt><trkpt lat="45.571309281742295" lon="10.799336915752614"><ele>197.0</ele><time>2026-03-28T13:19:58Z</time></trkpt><trkpt lat="45.57140176042278" lon="10.799271958627337"><ele>197.0</ele><time>2026-03-28T13:19:59Z</time></trkpt><trkpt lat="45.5714940527882" lon="10.79919671260065"><ele>197.0</ele><time>2026-03-28T13:20:00Z</time></trkpt><trkpt lat="45.571584260723554" lon="10.79913329236012"><ele>197.0</ele><time>2026-03-28T13:20:01Z</time></trkpt><trkpt lat="45.57168162938361" lon="10.799057090096195"><ele>197.8</ele><time>2026-03-28T13:20:02Z</time></trkpt><trkpt lat="45.571776658872885" lon="10.798988453690287"><ele>198.6</ele><time>2026-03-28T13:20:03Z</time></trkpt><trkpt lat="45.5718607313031" lon="10.798922575844871"><ele>199.4</ele><time>2026-03-28T13:20:04Z</time></trkpt><trkpt lat="45.57193772170043" lon="10.798872275125495"><ele>200.20000000000002</ele><time>2026-03-28T13:20:05Z</time></trkpt><trkpt lat="45.572019574898164" lon="10.798816636276788"><ele>201.0</ele><time>2026-03-28T13:20:06Z</time></trkpt><trkpt lat="45.57208929218943" lon="10.798751075247273"><ele>201.0</ele><time>2026-03-28T13:20:07Z</time></trkpt><trkpt lat="45.57215395862839" lon="10.79867577447752"><ele>201.0</ele><time>2026-03-28T13:20:08Z</time></trkpt><trkpt lat="45.572223807871964" lon="10.798603782064763"><ele>201.0</ele><time>2026-03-28T13:20:09Z</time></trkpt><trkpt lat="45.57230549416547" lon="10.79854524001331"><ele>201.0</ele><time>2026-03-28T13:20:10Z</time></trkpt><trkpt lat="45.572406370477616" lon="10.798495833463287"><ele>201.0</ele><time>2026-03-28T13:20:11Z</time></trkpt><trkpt lat="45.57252090900712" lon="10.798432384687045"><ele>201.5</ele><time>2026-03-28T13:20:12Z</time></trkpt><trkpt lat="45.572632405361965" lon="10.798348781547585"><ele>202.0</ele><time>2026-03-28T13:20:13Z</time></trkpt><trkpt lat="45.572726108594736" lon="10.798273326477599"><ele>202.5</ele><time>2026-03-28T13:20:14Z</time></trkpt><trkpt lat="45.57282521796988" lon="10.798207333845367"><ele>203.0</ele><time>2026-03-28T13:20:15Z</time></trkpt><trkpt lat="45.57293620585259" lon="10.798157855076767"><ele>203.0</ele><time>2026-03-28T13:20:16Z</time></trkpt><trkpt lat="45.57304829977495" lon="10.798113469567674"><ele>203.0</ele><time>2026-03-28T13:20:17Z</time></trkpt><trkpt lat="45.57317401840714" lon="10.798064526968492"><ele>203.0</ele><time>2026-03-28T13:20:18Z</time></trkpt><trkpt lat="45.57330097230477" lon="10.798011621530547"><ele>203.0</ele><time>2026-03-28T13:20:19Z</time></trkpt><trkpt lat="45.573419588986596" lon="10.797955378158397"><ele>203.0</ele><time>2026-03-28T13:20:20Z</time></trkpt><trkpt lat="45.57353400539104" lon="10.797908853041083"><ele>203.0</ele><time>2026-03-28T13:20:21Z</time></trkpt><trkpt lat="45.57363902708759" lon="10.797867029788646"><ele>203.0</ele><time>2026-03-28T13:20:22Z</time></trkpt><trkpt lat="45.573743106463645" lon="10.797817605557904"><ele>203.0</ele><time>2026-03-28T13:20:23Z</time></trkpt><trkpt lat="45.573838687139876" lon="10.797776133922824"><ele>203.0</ele><time>2026-03-28T13:20:24Z</time></trkpt><trkpt lat="45.5739405870648" lon="10.797730886969429"><ele>202.0</ele><time>2026-03-28T13:20:25Z</time></trkpt><trkpt lat="45.574034955973545" lon="10.797689746490132"><ele>201.0</ele><time>2026-03-28T13:20:26Z</time></trkpt><trkpt lat="45.574129314018094" lon="10.79762793661033"><ele>200.0</ele><time>2026-03-28T13:20:27Z</time></trkpt><trkpt lat="45.57421965355055" lon="10.79756530964817"><ele>199.0</ele><time>2026-03-28T13:20:28Z</time></trkpt><trkpt lat="45.57430045336899" lon="10.797503212220024"><ele>198.0</ele><time>2026-03-28T13:20:29Z</time></trkpt><trkpt lat="45.57438225441583" lon="10.79741708303032"><ele>198.4</ele><time>2026-03-28T13:20:30Z</time></trkpt><trkpt lat="45.57444666367838" lon="10.797320219363979"><ele>198.8</ele><time>2026-03-28T13:20:31Z</time></trkpt><trkpt lat="45.574519121285014" lon="10.797202572943933"><ele>199.2</ele><time>2026-03-28T13:20:32Z</time></trkpt><trkpt lat="45.574594896004285" lon="10.79708128816744"><ele>199.6</ele><time>2026-03-28T13:20:33Z</time></trkpt><trkpt lat="45.57466714942368" lon="10.796984145598278"><ele>200.0</ele><time>2026-03-28T13:20:34Z</time></trkpt><trkpt lat="45.57476162956261" lon="10.796909360338992"><ele>202.75</ele><time>2026-03-28T13:20:35Z</time></trkpt><trkpt lat="45.57487725447528" lon="10.796827067906383"><ele>205.5</ele><time>2026-03-28T13:20:36Z</time></trkpt><trkpt lat="45.57499652646592" lon="10.79674097050313"><ele>208.25</ele><time>2026-03-28T13:20:37Z</time></trkpt><trkpt lat="45.575115022653996" lon="10.796647621187729"><ele>211.0</ele><time>2026-03-28T13:20:38Z</time></trkpt><trkpt lat="45.57520841561167" lon="10.796554617920208"><ele>211.0</ele><time>2026-03-28T13:20:39Z</time></trkpt><trkpt lat="45.57530365360213" lon="10.79646158321185"><ele>211.0</ele><time>2026-03-28T13:20:40Z</time></trkpt><trkpt lat="45.575404537334016" lon="10.796344884679591"><ele>211.0</ele><time>2026-03-28T13:20:41Z</time></trkpt><trkpt lat="45.57548759441271" lon="10.796214680147783"><ele>211.0</ele><time>2026-03-28T13:20:42Z</time></trkpt><trkpt lat="45.575569518047885" lon="10.79610846202683"><ele>209.25</ele><time>2026-03-28T13:20:43Z</time></trkpt><trkpt lat="45.57564785111678" lon="10.795991095103307"><ele>207.5</ele><time>2026-03-28T13:20:44Z</time></trkpt><trkpt lat="45.57572854660939" lon="10.795863295420629"><ele>205.75</ele><time>2026-03-28T13:20:45Z</time></trkpt><trkpt lat="45.575811795456936" lon="10.795723451833663"><ele>204.0</ele><time>2026-03-28T13:20:46Z</time></trkpt><trkpt lat="45.575871485845354" lon="10.795585357725715"><ele>204.0</ele><time>2026-03-28T13:20:47Z</time></trkpt><trkpt lat="45.57594207729539" lon="10.79546574571658"><ele>204.0</ele><time>2026-03-28T13:20:48Z</time></trkpt><trkpt lat="45.57601710019188" lon="10.795366757914806"><ele>204.0</ele><time>2026-03-28T13:20:49Z</time></trkpt><trkpt lat="45.57610172907788" lon="10.795288948011429"><ele>204.0</ele><time>2026-03-28T13:20:50Z</time></trkpt><trkpt lat="45.576183457886515" lon="10.79522446908362"><ele>204.0</ele><time>2026-03-28T13:20:51Z</time></trkpt><trkpt lat="45.5762573160583" lon="10.795171202845218"><ele>203.66666666666666</ele><time>2026-03-28T13:20:52Z</time></trkpt><trkpt lat="45.57634315625987" lon="10.795107619383359"><ele>203.33333333333331</ele><time>2026-03-28T13:20:54Z</time></trkpt><trkpt lat="45.57641335645326" lon="10.795123334601495"><ele>203.0</ele><time>2026-03-28T13:20:56Z</time></trkpt><trkpt lat="45.57647645632846" lon="10.795111920127296"><ele>202.66666666666666</ele><time>2026-03-28T13:20:59Z</time></trkpt><trkpt lat="45.576525633363566" lon="10.795028722066732"><ele>202.33333333333331</ele><time>2026-03-28T13:21:02Z</time></trkpt><trkpt lat="45.57651541289407" lon="10.794918236075334"><ele>202.0</ele><time>2026-03-28T13:21:03Z</time></trkpt><trkpt lat="45.576492288449835" lon="10.79477117207848"><ele>202.0</ele><time>2026-03-28T13:21:04Z</time></trkpt><trkpt lat="45.57649201549096" lon="10.794599490428553"><ele>202.0</ele><time>2026-03-28T13:21:05Z</time></trkpt><trkpt lat="45.57652509115384" lon="10.794415098040165"><ele>202.0</ele><time>2026-03-28T13:21:06Z</time></trkpt><trkpt lat="45.57653102377197" lon="10.794214392317405"><ele>202.0</ele><time>2026-03-28T13:21:07Z</time></trkpt><trkpt lat="45.576537340883064" lon="10.79400067888909"><ele>202.0</ele><time>2026-03-28T13:21:08Z</time></trkpt><trkpt lat="45.576545114156445" lon="10.793737702252976"><ele>202.0</ele><time>2026-03-28T13:21:09Z</time></trkpt><trkpt lat="45.57653619377962" lon="10.79342234851932"><ele>202.0</ele><time>2026-03-28T13:21:10Z</time></trkpt><trkpt lat="45.57654631041528" lon="10.79310578190754"><ele>202.0</ele><time>2026-03-28T13:21:11Z</time></trkpt><trkpt lat="45.57655809436839" lon="10.792798772925254"><ele>202.0</ele><time>2026-03-28T13:21:12Z</time></trkpt><trkpt lat="45.57656832254981" lon="10.792523260811693"><ele>202.0</ele><time>2026-03-28T13:21:13Z</time></trkpt><trkpt lat="45.57660036662692" lon="10.792272756678235"><ele>202.0</ele><time>2026-03-28T13:21:14Z</time></trkpt><trkpt lat="45.57660969095273" lon="10.792043197856222"><ele>202.0</ele><time>2026-03-28T13:21:15Z</time></trkpt><trkpt lat="45.5765893815068" lon="10.791822246822216"><ele>202.0</ele><time>2026-03-28T13:21:16Z</time></trkpt><trkpt lat="45.57656012293211" lon="10.791625491953301"><ele>202.0</ele><time>2026-03-28T13:21:17Z</time></trkpt><trkpt lat="45.57649983843229" lon="10.791429665878377"><ele>202.0</ele><time>2026-03-28T13:21:18Z</time></trkpt><trkpt lat="45.576413773529374" lon="10.791218969543891"><ele>202.0</ele><time>2026-03-28T13:21:19Z</time></trkpt><trkpt lat="45.57630812351774" lon="10.791013695500803"><ele>203.0</ele><time>2026-03-28T13:21:20Z</time></trkpt><trkpt lat="45.57618155863796" lon="10.79083623013729"><ele>204.0</ele><time>2026-03-28T13:21:21Z</time></trkpt><trkpt lat="45.57606959715699" lon="10.79062595642808"><ele>205.0</ele><time>2026-03-28T13:21:22Z</time></trkpt><trkpt lat="45.57596522471682" lon="10.790397399690637"><ele>206.33333333333331</ele><time>2026-03-28T13:21:23Z</time></trkpt><trkpt lat="45.575860555834765" lon="10.790155124488686"><ele>207.66666666666669</ele><time>2026-03-28T13:21:24Z</time></trkpt><trkpt lat="45.57575679823026" lon="10.789907715011232"><ele>209.0</ele><time>2026-03-28T13:21:25Z</time></trkpt><trkpt lat="45.575651499978655" lon="10.789656631868317"><ele>209.0</ele><time>2026-03-28T13:21:26Z</time></trkpt><trkpt lat="45.57556163446031" lon="10.789429235645136"><ele>209.0</ele><time>2026-03-28T13:21:27Z</time></trkpt><trkpt lat="45.57549996298557" lon="10.78921546465159"><ele>209.0</ele><time>2026-03-28T13:21:28Z</time></trkpt><trkpt lat="45.57546045002604" lon="10.789001592998654"><ele>212.33333333333334</ele><time>2026-03-28T13:21:29Z</time></trkpt><trkpt lat="45.575441141209375" lon="10.788773051852163"><ele>215.66666666666669</ele><time>2026-03-28T13:21:30Z</time></trkpt><trkpt lat="45.575444095208766" lon="10.788529471550607"><ele>219.0</ele><time>2026-03-28T13:21:31Z</time></trkpt><trkpt lat="45.575452096069135" lon="10.788271892785056"><ele>219.0</ele><time>2026-03-28T13:21:32Z</time></trkpt><trkpt lat="45.575453844490966" lon="10.788002434062191"><ele>219.0</ele><time>2026-03-28T13:21:33Z</time></trkpt><trkpt lat="45.5754745706641" lon="10.787719769929968"><ele>219.0</ele><time>2026-03-28T13:21:34Z</time></trkpt><trkpt lat="45.5755010107609" lon="10.787428285032993"><ele>219.0</ele><time>2026-03-28T13:21:35Z</time></trkpt><trkpt lat="45.57553933380175" lon="10.787133840302308"><ele>219.0</ele><time>2026-03-28T13:21:36Z</time></trkpt><trkpt lat="45.57558649897145" lon="10.786836994123885"><ele>219.0</ele><time>2026-03-28T13:21:37Z</time></trkpt><trkpt lat="45.575624928774374" lon="10.786559238279322"><ele>219.0</ele><time>2026-03-28T13:21:38Z</time></trkpt><trkpt lat="45.575644535978164" lon="10.786299310938716"><ele>219.0</ele><time>2026-03-28T13:21:39Z</time></trkpt><trkpt lat="45.575647472189" lon="10.786024766062335"><ele>219.0</ele><time>2026-03-28T13:21:40Z</time></trkpt><trkpt lat="45.575629685210856" lon="10.785736691012815"><ele>220.66666666666669</ele><time>2026-03-28T13:21:41Z</time></trkpt><trkpt lat="45.57559903462951" lon="10.785442284712355"><ele>222.33333333333334</ele><time>2026-03-28T13:21:42Z</time></trkpt><trkpt lat="45.575567571356515" lon="10.785137565015773"><ele>224.0</ele><time>2026-03-28T13:21:43Z</time></trkpt><trkpt lat="45.57552892234149" lon="10.784838559928982"><ele>226.33333333333334</ele><time>2026-03-28T13:21:44Z</time></trkpt><trkpt lat="45.57549472959734" lon="10.784524558279093"><ele>228.66666666666669</ele><time>2026-03-28T13:21:45Z</time></trkpt><trkpt lat="45.57544771182293" lon="10.784211676650077"><ele>231.0</ele><time>2026-03-28T13:21:46Z</time></trkpt><trkpt lat="45.57539708933308" lon="10.783900411391796"><ele>228.33333333333331</ele><time>2026-03-28T13:21:47Z</time></trkpt><trkpt lat="45.57534941719444" lon="10.783607383463105"><ele>225.66666666666666</ele><time>2026-03-28T13:21:48Z</time></trkpt><trkpt lat="45.57530202812505" lon="10.783345441599339"><ele>223.0</ele><time>2026-03-28T13:21:49Z</time></trkpt><trkpt lat="45.57531039425018" lon="10.783077424924821"><ele>223.0</ele><time>2026-03-28T13:21:50Z</time></trkpt><trkpt lat="45.575301779749815" lon="10.782804327954107"><ele>223.0</ele><time>2026-03-28T13:21:51Z</time></trkpt><trkpt lat="45.57529311354163" lon="10.782530185068675"><ele>223.0</ele><time>2026-03-28T13:21:52Z</time></trkpt><trkpt lat="45.5752737362313" lon="10.782259452561242"><ele>224.0</ele><time>2026-03-28T13:21:53Z</time></trkpt><trkpt lat="45.575271204934246" lon="10.782028585702662"><ele>225.0</ele><time>2026-03-28T13:21:54Z</time></trkpt><trkpt lat="45.57530518473163" lon="10.781843278196748"><ele>226.0</ele><time>2026-03-28T13:21:55Z</time></trkpt><trkpt lat="45.57534892194918" lon="10.781674490385948"><ele>227.0</ele><time>2026-03-28T13:21:56Z</time></trkpt><trkpt lat="45.575425378267184" lon="10.781485718112409"><ele>231.66666666666669</ele><time>2026-03-28T13:21:57Z</time></trkpt><trkpt lat="45.57552614907275" lon="10.781270988181832"><ele>236.33333333333331</ele><time>2026-03-28T13:21:58Z</time></trkpt><trkpt lat="45.57560752954342" lon="10.78105225379731"><ele>241.0</ele><time>2026-03-28T13:21:59Z</time></trkpt><trkpt lat="45.5756719067505" lon="10.780842348444208"><ele>241.0</ele><time>2026-03-28T13:22:00Z</time></trkpt><trkpt lat="45.57570417610753" lon="10.780604391073796"><ele>241.0</ele><time>2026-03-28T13:22:01Z</time></trkpt><trkpt lat="45.57570706876033" lon="10.780346005910914"><ele>241.0</ele><time>2026-03-28T13:22:02Z</time></trkpt><trkpt lat="45.575690315101504" lon="10.780103541510323"><ele>238.0</ele><time>2026-03-28T13:22:03Z</time></trkpt><trkpt lat="45.57565151902664" lon="10.779878397072418"><ele>235.0</ele><time>2026-03-28T13:22:04Z</time></trkpt><trkpt lat="45.575576619447546" lon="10.77964288460808"><ele>232.0</ele><time>2026-03-28T13:22:05Z</time></trkpt><trkpt lat="45.575468916562286" lon="10.779414155912121"><ele>232.33333333333331</ele><time>2026-03-28T13:22:06Z</time></trkpt><trkpt lat="45.57532895394323" lon="10.779183231810423"><ele>232.66666666666669</ele><time>2026-03-28T13:22:07Z</time></trkpt><trkpt lat="45.57516393813239" lon="10.778954117354939"><ele>233.0</ele><time>2026-03-28T13:22:08Z</time></trkpt><trkpt lat="45.57498982861926" lon="10.778699553709684"><ele>227.5</ele><time>2026-03-28T13:22:09Z</time></trkpt><trkpt lat="45.574846538856185" lon="10.778396402431875"><ele>222.0</ele><time>2026-03-28T13:22:10Z</time></trkpt><trkpt lat="45.57470111611362" lon="10.778088385496066"><ele>222.0</ele><time>2026-03-28T13:22:11Z</time></trkpt><trkpt lat="45.5745608274929" lon="10.777756725434926"><ele>222.0</ele><time>2026-03-28T13:22:12Z</time></trkpt><trkpt lat="45.57441955114992" lon="10.777412377407641"><ele>221.0</ele><time>2026-03-28T13:22:13Z</time></trkpt><trkpt lat="45.57427849547149" lon="10.777070167150615"><ele>220.0</ele><time>2026-03-28T13:22:14Z</time></trkpt><trkpt lat="45.57414279378591" lon="10.776733784512356"><ele>220.0</ele><time>2026-03-28T13:22:15Z</time></trkpt><trkpt lat="45.57401866260742" lon="10.77641362581913"><ele>220.0</ele><time>2026-03-28T13:22:16Z</time></trkpt><trkpt lat="45.573900335953276" lon="10.776090634670211"><ele>221.5</ele><time>2026-03-28T13:22:17Z</time></trkpt><trkpt lat="45.57379465233085" lon="10.775782000234027"><ele>223.0</ele><time>2026-03-28T13:22:18Z</time></trkpt><trkpt lat="45.57370214600785" lon="10.775494696589899"><ele>221.66666666666666</ele><time>2026-03-28T13:22:19Z</time></trkpt><trkpt lat="45.57360686490343" lon="10.775233839005015"><ele>220.33333333333331</ele><time>2026-03-28T13:22:20Z</time></trkpt><trkpt lat="45.573552017078846" lon="10.77496232332175"><ele>219.0</ele><time>2026-03-28T13:22:21Z</time></trkpt><trkpt lat="45.57349787903579" lon="10.774715952923144"><ele>218.0</ele><time>2026-03-28T13:22:22Z</time></trkpt><trkpt lat="45.573444723545684" lon="10.77449406724521"><ele>217.0</ele><time>2026-03-28T13:22:23Z</time></trkpt><trkpt lat="45.573426163487774" lon="10.774272396556983"><ele>216.0</ele><time>2026-03-28T13:22:24Z</time></trkpt><trkpt lat="45.573413901890575" lon="10.774070031854132"><ele>215.5</ele><time>2026-03-28T13:22:25Z</time></trkpt><trkpt lat="45.57340585558157" lon="10.77387835244486"><ele>215.0</ele><time>2026-03-28T13:22:26Z</time></trkpt><trkpt lat="45.57339928820354" lon="10.773676734830506"><ele>214.5</ele><time>2026-03-28T13:22:27Z</time></trkpt><trkpt lat="45.57339114211458" lon="10.773484201027188"><ele>214.0</ele><time>2026-03-28T13:22:28Z</time></trkpt><trkpt lat="45.57338165113212" lon="10.773309057683232"><ele>213.99999999999997</ele><time>2026-03-28T13:22:29Z</time></trkpt><trkpt lat="45.573374051623254" lon="10.773164190388343"><ele>214.0</ele><time>2026-03-28T13:22:30Z</time></trkpt><trkpt lat="45.573372094651745" lon="10.773047431632257"><ele>214.0</ele><time>2026-03-28T13:22:31Z</time></trkpt><trkpt lat="45.57337406681643" lon="10.772937142976339"><ele>214.0</ele><time>2026-03-28T13:22:32Z</time></trkpt><trkpt lat="45.573377938903384" lon="10.772831976631116"><ele>213.99999999999997</ele><time>2026-03-28T13:22:33Z</time></trkpt><trkpt lat="45.57338145082179" lon="10.772734672150492"><ele>214.0</ele><time>2026-03-28T13:22:34Z</time></trkpt><trkpt lat="45.57338655500513" lon="10.772641733213963"><ele>213.75</ele><time>2026-03-28T13:22:35Z</time></trkpt><trkpt lat="45.57339585463813" lon="10.772519083569026"><ele>213.5</ele><time>2026-03-28T13:22:36Z</time></trkpt><trkpt lat="45.57340880592558" lon="10.772328004658707"><ele>213.25</ele><time>2026-03-28T13:22:37Z</time></trkpt><trkpt lat="45.573423915287975" lon="10.772081382098529"><ele>213.0</ele><time>2026-03-28T13:22:38Z</time></trkpt><trkpt lat="45.57344681247324" lon="10.771799978892988"><ele>212.33333333333331</ele><time>2026-03-28T13:22:39Z</time></trkpt><trkpt lat="45.57348276017198" lon="10.771516951571394"><ele>211.66666666666666</ele><time>2026-03-28T13:22:40Z</time></trkpt><trkpt lat="45.573529772232625" lon="10.771225811191568"><ele>211.0</ele><time>2026-03-28T13:22:41Z</time></trkpt><trkpt lat="45.57358066695197" lon="10.770925619558811"><ele>210.66666666666666</ele><time>2026-03-28T13:22:42Z</time></trkpt><trkpt lat="45.5736216884091" lon="10.770647363389731"><ele>210.33333333333331</ele><time>2026-03-28T13:22:43Z</time></trkpt><trkpt lat="45.57364589153169" lon="10.770393608829885"><ele>210.0</ele><time>2026-03-28T13:22:44Z</time></trkpt><trkpt lat="45.57365324218968" lon="10.770124779372393"><ele>209.66666666666669</ele><time>2026-03-28T13:22:45Z</time></trkpt><trkpt lat="45.573646159914325" lon="10.769848566322963"><ele>209.33333333333334</ele><time>2026-03-28T13:22:46Z</time></trkpt><trkpt lat="45.57364199654632" lon="10.769558828290837"><ele>209.0</ele><time>2026-03-28T13:22:47Z</time></trkpt><trkpt lat="45.5736481610215" lon="10.769265274267502"><ele>208.66666666666669</ele><time>2026-03-28T13:22:48Z</time></trkpt><trkpt lat="45.57365589391652" lon="10.768971747243333"><ele>208.33333333333331</ele><time>2026-03-28T13:22:49Z</time></trkpt><trkpt lat="45.573663151685004" lon="10.76867757887514"><ele>208.0</ele><time>2026-03-28T13:22:50Z</time></trkpt><trkpt lat="45.573663031413375" lon="10.768370595740341"><ele>207.33333333333331</ele><time>2026-03-28T13:22:51Z</time></trkpt><trkpt lat="45.57365726116932" lon="10.768065399052668"><ele>206.66666666666669</ele><time>2026-03-28T13:22:52Z</time></trkpt><trkpt lat="45.573645997517644" lon="10.767770300562761"><ele>206.0</ele><time>2026-03-28T13:22:53Z</time></trkpt><trkpt lat="45.57363806580855" lon="10.767475285511981"><ele>205.66666666666669</ele><time>2026-03-28T13:22:54Z</time></trkpt><trkpt lat="45.57365899690141" lon="10.767178958029914"><ele>205.33333333333331</ele><time>2026-03-28T13:22:55Z</time></trkpt><trkpt lat="45.57367417981528" lon="10.766887811755073"><ele>205.0</ele><time>2026-03-28T13:22:56Z</time></trkpt><trkpt lat="45.57367799608874" lon="10.766605410382414"><ele>205.0</ele><time>2026-03-28T13:22:57Z</time></trkpt><trkpt lat="45.57369073259496" lon="10.76634911230703"><ele>205.0</ele><time>2026-03-28T13:22:58Z</time></trkpt><trkpt lat="45.57369361938479" lon="10.766120100192554"><ele>205.0</ele><time>2026-03-28T13:22:59Z</time></trkpt><trkpt lat="45.57368404141209" lon="10.76590301223256"><ele>205.0</ele><time>2026-03-28T13:23:00Z</time></trkpt><trkpt lat="45.57365607001019" lon="10.765710836519462"><ele>205.0</ele><time>2026-03-28T13:23:01Z</time></trkpt><trkpt lat="45.573602745440155" lon="10.765522797338907"><ele>205.0</ele><time>2026-03-28T13:23:02Z</time></trkpt><trkpt lat="45.57352811596534" lon="10.765335931914693"><ele>205.0</ele><time>2026-03-28T13:23:03Z</time></trkpt><trkpt lat="45.5734287092343" lon="10.76513112483561"><ele>205.66666666666666</ele><time>2026-03-28T13:23:04Z</time></trkpt><trkpt lat="45.57331617438787" lon="10.764928218496829"><ele>206.33333333333331</ele><time>2026-03-28T13:23:05Z</time></trkpt><trkpt lat="45.573211794492266" lon="10.76474094038091"><ele>207.0</ele><time>2026-03-28T13:23:06Z</time></trkpt><trkpt lat="45.573130350029174" lon="10.764564929607193"><ele>207.0</ele><time>2026-03-28T13:23:07Z</time></trkpt><trkpt lat="45.5730677926295" lon="10.76439472578094"><ele>207.0</ele><time>2026-03-28T13:23:08Z</time></trkpt><trkpt lat="45.57304468861602" lon="10.764185886533555"><ele>207.0</ele><time>2026-03-28T13:23:09Z</time></trkpt><trkpt lat="45.57301282969646" lon="10.763962318798951"><ele>207.0</ele><time>2026-03-28T13:23:10Z</time></trkpt><trkpt lat="45.572960965520366" lon="10.763705223790442"><ele>206.0</ele><time>2026-03-28T13:23:11Z</time></trkpt><trkpt lat="45.572927097100624" lon="10.763423944465472"><ele>205.0</ele><time>2026-03-28T13:23:12Z</time></trkpt><trkpt lat="45.57288719115474" lon="10.76313450225356"><ele>204.0</ele><time>2026-03-28T13:23:13Z</time></trkpt><trkpt lat="45.572842279977394" lon="10.76283744408632"><ele>203.33333333333331</ele><time>2026-03-28T13:23:14Z</time></trkpt><trkpt lat="45.572792931377236" lon="10.762530492490859"><ele>202.66666666666666</ele><time>2026-03-28T13:23:15Z</time></trkpt><trkpt lat="45.572741985179114" lon="10.762215535818928"><ele>202.0</ele><time>2026-03-28T13:23:16Z</time></trkpt><trkpt lat="45.572691873765706" lon="10.761919866338417"><ele>202.0</ele><time>2026-03-28T13:23:17Z</time></trkpt><trkpt lat="45.57264762375617" lon="10.761645869211764"><ele>202.0</ele><time>2026-03-28T13:23:18Z</time></trkpt><trkpt lat="45.57262112716596" lon="10.761387556532517"><ele>202.0</ele><time>2026-03-28T13:23:19Z</time></trkpt><trkpt lat="45.57256536449234" lon="10.761143328627227"><ele>202.0</ele><time>2026-03-28T13:23:20Z</time></trkpt><trkpt lat="45.572543590307056" lon="10.760904032992858"><ele>202.0</ele><time>2026-03-28T13:23:21Z</time></trkpt><trkpt lat="45.572494036521924" lon="10.760698639736836"><ele>202.0</ele><time>2026-03-28T13:23:22Z</time></trkpt><trkpt lat="45.572458868617595" lon="10.76048193452323"><ele>202.0</ele><time>2026-03-28T13:23:23Z</time></trkpt><trkpt lat="45.57242447359842" lon="10.7602812736707"><ele>202.0</ele><time>2026-03-28T13:23:24Z</time></trkpt><trkpt lat="45.57239285762931" lon="10.760083157070598"><ele>202.0</ele><time>2026-03-28T13:23:25Z</time></trkpt><trkpt lat="45.57236263510302" lon="10.75988273745727"><ele>202.0</ele><time>2026-03-28T13:23:26Z</time></trkpt><trkpt lat="45.57232737901604" lon="10.759695123543127"><ele>202.0</ele><time>2026-03-28T13:23:27Z</time></trkpt><trkpt lat="45.572304243912555" lon="10.75953394924442"><ele>202.0</ele><time>2026-03-28T13:23:28Z</time></trkpt><trkpt lat="45.57227666932808" lon="10.759386780188258"><ele>202.0</ele><time>2026-03-28T13:23:29Z</time></trkpt><trkpt lat="45.57225984803083" lon="10.75926593056772"><ele>202.0</ele><time>2026-03-28T13:23:30Z</time></trkpt><trkpt lat="45.572237279353004" lon="10.759175956373713"><ele>202.0</ele><time>2026-03-28T13:23:31Z</time></trkpt><trkpt lat="45.57221892377382" lon="10.759056100836968"><ele>202.33333333333331</ele><time>2026-03-28T13:23:33Z</time></trkpt><trkpt lat="45.57220205696193" lon="10.758966718627113"><ele>202.66666666666666</ele><time>2026-03-28T13:23:35Z</time></trkpt><trkpt lat="45.57218791296014" lon="10.758861291139489"><ele>203.0</ele><time>2026-03-28T13:23:45Z</time></trkpt><trkpt lat="45.57217076760249" lon="10.758742926798513"><ele>203.33333333333331</ele><time>2026-03-28T13:23:47Z</time></trkpt><trkpt lat="45.57217980263208" lon="10.758598971053528"><ele>203.66666666666666</ele><time>2026-03-28T13:23:49Z</time></trkpt><trkpt lat="45.57221949184213" lon="10.758515534854952"><ele>204.0</ele><time>2026-03-28T13:23:50Z</time></trkpt><trkpt lat="45.572265834027945" lon="10.75841934506862"><ele>204.6</ele><time>2026-03-28T13:23:51Z</time></trkpt><trkpt lat="45.57234744135572" lon="10.758327137707127"><ele>205.2</ele><time>2026-03-28T13:23:52Z</time></trkpt><trkpt lat="45.57244048111665" lon="10.758267926249637"><ele>205.79999999999998</ele><time>2026-03-28T13:23:53Z</time></trkpt><trkpt lat="45.57254380595561" lon="10.75822236843024"><ele>206.39999999999998</ele><time>2026-03-28T13:23:54Z</time></trkpt><trkpt lat="45.57266324778208" lon="10.758192353485232"><ele>207.0</ele><time>2026-03-28T13:23:55Z</time></trkpt><trkpt lat="45.57279143060254" lon="10.758160732617572"><ele>206.75</ele><time>2026-03-28T13:23:56Z</time></trkpt><trkpt lat="45.57292510157766" lon="10.75811540881349"><ele>206.5</ele><time>2026-03-28T13:23:57Z</time></trkpt><trkpt lat="45.573064926883724" lon="10.758068772996035"><ele>206.25</ele><time>2026-03-28T13:23:58Z</time></trkpt><trkpt lat="45.57321293445026" lon="10.758021610212623"><ele>206.0</ele><time>2026-03-28T13:23:59Z</time></trkpt><trkpt lat="45.57336232147835" lon="10.757971910048887"><ele>206.0</ele><time>2026-03-28T13:24:00Z</time></trkpt><trkpt lat="45.57351632073427" lon="10.757922350284487"><ele>206.0</ele><time>2026-03-28T13:24:01Z</time></trkpt><trkpt lat="45.573683893532696" lon="10.757868635033825"><ele>206.0</ele><time>2026-03-28T13:24:02Z</time></trkpt><trkpt lat="45.57386805470505" lon="10.757808562318758"><ele>205.66666666666669</ele><time>2026-03-28T13:24:03Z</time></trkpt><trkpt lat="45.57405820676997" lon="10.757747861991744"><ele>205.33333333333331</ele><time>2026-03-28T13:24:04Z</time></trkpt><trkpt lat="45.57423983419593" lon="10.757685077694806"><ele>205.0</ele><time>2026-03-28T13:24:05Z</time></trkpt><trkpt lat="45.574421808214986" lon="10.757627107652965"><ele>205.66666666666666</ele><time>2026-03-28T13:24:06Z</time></trkpt><trkpt lat="45.57460453364615" lon="10.75757218580363"><ele>206.33333333333331</ele><time>2026-03-28T13:24:07Z</time></trkpt><trkpt lat="45.57478949036512" lon="10.757516012425011"><ele>207.0</ele><time>2026-03-28T13:24:08Z</time></trkpt><trkpt lat="45.57497315077726" lon="10.75745419812138"><ele>207.0</ele><time>2026-03-28T13:24:09Z</time></trkpt><trkpt lat="45.57515984326299" lon="10.757385553457578"><ele>207.0</ele><time>2026-03-28T13:24:10Z</time></trkpt><trkpt lat="45.575342008383764" lon="10.757321253626085"><ele>207.0</ele><time>2026-03-28T13:24:11Z</time></trkpt><trkpt lat="45.575528286790565" lon="10.757257385279631"><ele>207.33333333333331</ele><time>2026-03-28T13:24:12Z</time></trkpt><trkpt lat="45.575706622024256" lon="10.75719868645654"><ele>207.66666666666666</ele><time>2026-03-28T13:24:13Z</time></trkpt><trkpt lat="45.57587244216581" lon="10.757144964046077"><ele>208.0</ele><time>2026-03-28T13:24:14Z</time></trkpt><trkpt lat="45.576020808270144" lon="10.757096720460154"><ele>208.0</ele><time>2026-03-28T13:24:15Z</time></trkpt><trkpt lat="45.57615625971323" lon="10.75704713395337"><ele>208.0</ele><time>2026-03-28T13:24:16Z</time></trkpt><trkpt lat="45.57628716803184" lon="10.756998453866249"><ele>208.0</ele><time>2026-03-28T13:24:17Z</time></trkpt><trkpt lat="45.57641870667316" lon="10.756954725441638"><ele>208.0</ele><time>2026-03-28T13:24:18Z</time></trkpt><trkpt lat="45.57653895573629" lon="10.756917215655168"><ele>207.60000000000002</ele><time>2026-03-28T13:24:19Z</time></trkpt><trkpt lat="45.57664828560523" lon="10.756882871144462"><ele>207.20000000000002</ele><time>2026-03-28T13:24:20Z</time></trkpt><trkpt lat="45.57674751145558" lon="10.756846480667177"><ele>206.8</ele><time>2026-03-28T13:24:21Z</time></trkpt><trkpt lat="45.576839202638354" lon="10.75680989148688"><ele>206.4</ele><time>2026-03-28T13:24:22Z</time></trkpt><trkpt lat="45.576919456983234" lon="10.756777723557981"><ele>206.0</ele><time>2026-03-28T13:24:23Z</time></trkpt><trkpt lat="45.577001467976274" lon="10.7567509770584"><ele>206.0</ele><time>2026-03-28T13:24:25Z</time></trkpt><trkpt lat="45.57706413297368" lon="10.756726078599938"><ele>206.0</ele><time>2026-03-28T13:24:35Z</time></trkpt><trkpt lat="45.57707833070799" lon="10.756457149467613"><ele>206.0</ele><time>2026-03-28T13:24:36Z</time></trkpt><trkpt lat="45.577137295685226" lon="10.756347642821945"><ele>206.0</ele><time>2026-03-28T13:24:37Z</time></trkpt><trkpt lat="45.5771769318042" lon="10.756240644720855"><ele>206.0</ele><time>2026-03-28T13:24:38Z</time></trkpt><trkpt lat="45.57720862476471" lon="10.756104285976216"><ele>206.0</ele><time>2026-03-28T13:24:39Z</time></trkpt><trkpt lat="45.57723260015709" lon="10.75595980985652"><ele>206.0</ele><time>2026-03-28T13:24:40Z</time></trkpt><trkpt lat="45.5772502133752" lon="10.755801288278155"><ele>206.0</ele><time>2026-03-28T13:24:41Z</time></trkpt><trkpt lat="45.57725414466708" lon="10.75564392532837"><ele>206.0</ele><time>2026-03-28T13:24:42Z</time></trkpt><trkpt lat="45.5772417583386" lon="10.755482924725795"><ele>206.0</ele><time>2026-03-28T13:24:43Z</time></trkpt><trkpt lat="45.57722277400549" lon="10.755325377179282"><ele>206.20000000000002</ele><time>2026-03-28T13:24:44Z</time></trkpt><trkpt lat="45.577197174393746" lon="10.755175707912219"><ele>206.4</ele><time>2026-03-28T13:24:45Z</time></trkpt><trkpt lat="45.577167276831915" lon="10.755031668511453"><ele>206.6</ele><time>2026-03-28T13:24:46Z</time></trkpt><trkpt lat="45.57714787792858" lon="10.754882494440608"><ele>206.8</ele><time>2026-03-28T13:24:47Z</time></trkpt><trkpt lat="45.57712467048982" lon="10.754725075559517"><ele>207.0</ele><time>2026-03-28T13:24:48Z</time></trkpt><trkpt lat="45.577104310261305" lon="10.754586730979817"><ele>207.0</ele><time>2026-03-28T13:24:49Z</time></trkpt><trkpt lat="45.577081616481216" lon="10.754461937874972"><ele>207.0</ele><time>2026-03-28T13:24:50Z</time></trkpt><trkpt lat="45.577053189170755" lon="10.754334379563874"><ele>207.0</ele><time>2026-03-28T13:24:51Z</time></trkpt><trkpt lat="45.57701787950271" lon="10.754239551485947"><ele>207.0</ele><time>2026-03-28T13:24:52Z</time></trkpt><trkpt lat="45.57693823431314" lon="10.754142714966626"><ele>207.0</ele><time>2026-03-28T13:24:54Z</time></trkpt><trkpt lat="45.576832856071775" lon="10.754145378523786"><ele>207.5</ele><time>2026-03-28T13:24:56Z</time></trkpt><trkpt lat="45.57678393919199" lon="10.754235854029371"><ele>208.0</ele><time>2026-03-28T13:24:58Z</time></trkpt><trkpt lat="45.576723438593234" lon="10.754142672796565"><ele>208.5</ele><time>2026-03-28T13:24:59Z</time></trkpt><trkpt lat="45.57669598772408" lon="10.75405075236579"><ele>209.0</ele><time>2026-03-28T13:25:04Z</time></trkpt><trkpt lat="45.57668927296631" lon="10.753951850981329"><ele>209.5</ele><time>2026-03-28T13:25:45Z</time></trkpt><trkpt lat="45.5767150235157" lon="10.754039479934697"><ele>210.0</ele><time>2026-03-28T13:26:03Z</time></trkpt><trkpt lat="45.57666286330259" lon="10.753948413854772"><ele>210.0</ele><time>2026-03-28T13:26:27Z</time></trkpt><trkpt lat="45.57663842191287" lon="10.753852438019106"><ele>210.0</ele><time>2026-03-28T13:26:34Z</time></trkpt><trkpt lat="45.57648611937127" lon="10.753644199634667"><ele>210.0</ele><time>2026-03-28T13:26:47.014Z</time></trkpt><trkpt lat="45.57666713136936" lon="10.753859092574867"><ele>210.0</ele><time>2026-03-28T13:27:05.005Z</time></trkpt><trkpt lat="45.57673090216105" lon="10.753926441274269"><ele>210.0</ele><time>2026-03-28T13:27:07.431Z</time></trkpt><trkpt lat="45.57666776810229" lon="10.753957295609785"><ele>210.0</ele><time>2026-03-28T13:32:19.999Z</time></trkpt></trkseg><trkseg><trkpt lat="45.5766519622427" lon="10.754133429275411"><ele>210.0</ele><time>2026-03-28T13:58:25Z</time></trkpt><trkpt lat="45.57660681769565" lon="10.754233360845802"><ele>210.0</ele><time>2026-03-28T13:58:27Z</time></trkpt><trkpt lat="45.57664407326693" lon="10.75433368369921"><ele>210.0</ele><time>2026-03-28T13:58:29Z</time></trkpt><trkpt lat="45.57672684077753" lon="10.75434219393569"><ele>210.0</ele><time>2026-03-28T13:58:31Z</time></trkpt><trkpt lat="45.5768098378336" lon="10.754250601464081"><ele>210.0</ele><time>2026-03-28T13:58:33Z</time></trkpt><trkpt lat="45.576906779098074" lon="10.754157531799773"><ele>210.0</ele><time>2026-03-28T13:58:35Z</time></trkpt><trkpt lat="45.5769808295623" lon="10.754182395321294"><ele>210.0</ele><time>2026-03-28T13:58:37Z</time></trkpt><trkpt lat="45.57702057149505" lon="10.754294914773988"><ele>210.0</ele><time>2026-03-28T13:58:39Z</time></trkpt><trkpt lat="45.577052126643025" lon="10.754421899649927"><ele>210.0</ele><time>2026-03-28T13:58:40Z</time></trkpt><trkpt lat="45.57708554343436" lon="10.754570259345329"><ele>210.0</ele><time>2026-03-28T13:58:41Z</time></trkpt><trkpt lat="45.57711269520388" lon="10.754736838655436"><ele>209.0</ele><time>2026-03-28T13:58:42Z</time></trkpt><trkpt lat="45.577143724436034" lon="10.754943136434855"><ele>208.0</ele><time>2026-03-28T13:58:43Z</time></trkpt><trkpt lat="45.57718144174912" lon="10.755184621806123"><ele>207.0</ele><time>2026-03-28T13:58:44Z</time></trkpt><trkpt lat="45.577212342428254" lon="10.755405364969064"><ele>206.8</ele><time>2026-03-28T13:58:45Z</time></trkpt><trkpt lat="45.57721548525375" lon="10.755581298343492"><ele>206.6</ele><time>2026-03-28T13:58:46Z</time></trkpt><trkpt lat="45.57723144581569" lon="10.755726246530811"><ele>206.4</ele><time>2026-03-28T13:58:47Z</time></trkpt><trkpt lat="45.577225357441556" lon="10.755879491905125"><ele>206.20000000000002</ele><time>2026-03-28T13:58:48Z</time></trkpt><trkpt lat="45.57718570708363" lon="10.7560344018681"><ele>206.0</ele><time>2026-03-28T13:58:49Z</time></trkpt><trkpt lat="45.57716873094217" lon="10.756185310117756"><ele>206.00000000000003</ele><time>2026-03-28T13:58:50Z</time></trkpt><trkpt lat="45.57712356664214" lon="10.75632851813616"><ele>206.0</ele><time>2026-03-28T13:58:51Z</time></trkpt><trkpt lat="45.57704661070763" lon="10.756437504504946"><ele>206.0</ele><time>2026-03-28T13:58:52Z</time></trkpt><trkpt lat="45.576992272752" lon="10.756533691593772"><ele>206.0</ele><time>2026-03-28T13:58:53Z</time></trkpt><trkpt lat="45.57695389232507" lon="10.756606738101892"><ele>206.00000000000003</ele><time>2026-03-28T13:58:54Z</time></trkpt><trkpt lat="45.57692515532859" lon="10.75668873961276"><ele>206.0</ele><time>2026-03-28T13:58:56Z</time></trkpt><trkpt lat="45.57707994905733" lon="10.756750617378836"><ele>206.0</ele><time>2026-03-28T13:59:28Z</time></trkpt><trkpt lat="45.57717645337795" lon="10.756716397872294"><ele>206.0</ele><time>2026-03-28T13:59:29Z</time></trkpt><trkpt lat="45.57728227049248" lon="10.756660008210662"><ele>206.0</ele><time>2026-03-28T13:59:30Z</time></trkpt><trkpt lat="45.57740981975922" lon="10.756612306474437"><ele>206.0</ele><time>2026-03-28T13:59:31Z</time></trkpt><trkpt lat="45.57752633291545" lon="10.756571996092866"><ele>206.0</ele><time>2026-03-28T13:59:32Z</time></trkpt><trkpt lat="45.577629319715854" lon="10.75653623966354"><ele>206.0</ele><time>2026-03-28T13:59:33Z</time></trkpt><trkpt lat="45.57776164523527" lon="10.756496562592673"><ele>206.0</ele><time>2026-03-28T13:59:34Z</time></trkpt><trkpt lat="45.57789748731181" lon="10.756452546748124"><ele>206.0</ele><time>2026-03-28T13:59:35Z</time></trkpt><trkpt lat="45.57805223388806" lon="10.756397734114914"><ele>205.66666666666669</ele><time>2026-03-28T13:59:36Z</time></trkpt><trkpt lat="45.57823857783373" lon="10.756334512978915"><ele>205.33333333333331</ele><time>2026-03-28T13:59:37Z</time></trkpt><trkpt lat="45.57840973594092" lon="10.756275799337212"><ele>205.0</ele><time>2026-03-28T13:59:38Z</time></trkpt><trkpt lat="45.57856461945664" lon="10.756222778442524"><ele>205.33333333333331</ele><time>2026-03-28T13:59:39Z</time></trkpt><trkpt lat="45.57873128331038" lon="10.756141859644918"><ele>205.66666666666669</ele><time>2026-03-28T13:59:40Z</time></trkpt><trkpt lat="45.57891598434701" lon="10.756034807375089"><ele>206.0</ele><time>2026-03-28T13:59:41Z</time></trkpt><trkpt lat="45.579096730853365" lon="10.755912610762476"><ele>206.33333333333334</ele><time>2026-03-28T13:59:42Z</time></trkpt><trkpt lat="45.57926334324834" lon="10.75577800577744"><ele>206.66666666666669</ele><time>2026-03-28T13:59:43Z</time></trkpt><trkpt lat="45.57942718776281" lon="10.755638551947367"><ele>207.0</ele><time>2026-03-28T13:59:44Z</time></trkpt><trkpt lat="45.57958736243764" lon="10.75550099285905"><ele>207.0</ele><time>2026-03-28T13:59:45Z</time></trkpt><trkpt lat="45.57973363941257" lon="10.755365539822225"><ele>207.0</ele><time>2026-03-28T13:59:46Z</time></trkpt><trkpt lat="45.579879361968054" lon="10.755229285726477"><ele>207.0</ele><time>2026-03-28T13:59:47Z</time></trkpt><trkpt lat="45.58002617223018" lon="10.75508918641362"><ele>207.33333333333331</ele><time>2026-03-28T13:59:48Z</time></trkpt><trkpt lat="45.58016767865895" lon="10.754954155379187"><ele>207.66666666666666</ele><time>2026-03-28T13:59:49Z</time></trkpt><trkpt lat="45.58030988813615" lon="10.75482210366413"><ele>208.0</ele><time>2026-03-28T13:59:50Z</time></trkpt><trkpt lat="45.58045070278032" lon="10.754689796109787"><ele>208.0</ele><time>2026-03-28T13:59:51Z</time></trkpt><trkpt lat="45.58057538466071" lon="10.75457085282236"><ele>208.0</ele><time>2026-03-28T13:59:52Z</time></trkpt><trkpt lat="45.58070273382493" lon="10.75445260165489"><ele>208.0</ele><time>2026-03-28T13:59:53Z</time></trkpt><trkpt lat="45.58082871727669" lon="10.754336983589395"><ele>208.0</ele><time>2026-03-28T13:59:54Z</time></trkpt><trkpt lat="45.58095818454101" lon="10.75421537334402"><ele>208.0</ele><time>2026-03-28T13:59:55Z</time></trkpt><trkpt lat="45.5810853884119" lon="10.754099378880678"><ele>208.0</ele><time>2026-03-28T13:59:56Z</time></trkpt><trkpt lat="45.58120149503892" lon="10.753992397874343"><ele>208.0</ele><time>2026-03-28T13:59:57Z</time></trkpt><trkpt lat="45.58130723763923" lon="10.753893306002025"><ele>208.25</ele><time>2026-03-28T13:59:58Z</time></trkpt><trkpt lat="45.58142036498203" lon="10.753793310374142"><ele>208.5</ele><time>2026-03-28T13:59:59Z</time></trkpt><trkpt lat="45.58153727549842" lon="10.753690900749755"><ele>208.75</ele><time>2026-03-28T14:00:00Z</time></trkpt><trkpt lat="45.58165729735139" lon="10.753587182441171"><ele>209.0</ele><time>2026-03-28T14:00:01Z</time></trkpt><trkpt lat="45.581777216488426" lon="10.753490493689798"><ele>209.0</ele><time>2026-03-28T14:00:02Z</time></trkpt><trkpt lat="45.581897198276984" lon="10.753394320570592"><ele>209.0</ele><time>2026-03-28T14:00:03Z</time></trkpt><trkpt lat="45.582012835568726" lon="10.753296008668235"><ele>209.0</ele><time>2026-03-28T14:00:04Z</time></trkpt><trkpt lat="45.58212754418938" lon="10.753192646671993"><ele>209.0</ele><time>2026-03-28T14:00:05Z</time></trkpt><trkpt lat="45.582237180888114" lon="10.753093616084506"><ele>209.33333333333334</ele><time>2026-03-28T14:00:06Z</time></trkpt><trkpt lat="45.582330665873535" lon="10.753012173987845"><ele>209.66666666666669</ele><time>2026-03-28T14:00:07Z</time></trkpt><trkpt lat="45.58240524047352" lon="10.75295019094618"><ele>210.0</ele><time>2026-03-28T14:00:08Z</time></trkpt><trkpt lat="45.58246330446991" lon="10.752914990159363"><ele>210.33333333333331</ele><time>2026-03-28T14:00:09Z</time></trkpt><trkpt lat="45.582523071655956" lon="10.753014407273996"><ele>210.66666666666666</ele><time>2026-03-28T14:00:11Z</time></trkpt><trkpt lat="45.58257425450059" lon="10.753104028231228"><ele>211.0</ele><time>2026-03-28T14:00:12Z</time></trkpt><trkpt lat="45.58264984790802" lon="10.753241809392431"><ele>211.0</ele><time>2026-03-28T14:00:13Z</time></trkpt><trkpt lat="45.58275816199915" lon="10.7534019644325"><ele>211.0</ele><time>2026-03-28T14:00:14Z</time></trkpt><trkpt lat="45.58285528714112" lon="10.753605141731121"><ele>211.0</ele><time>2026-03-28T14:00:15Z</time></trkpt><trkpt lat="45.582971649012244" lon="10.753810488961147"><ele>210.66666666666666</ele><time>2026-03-28T14:00:16Z</time></trkpt><trkpt lat="45.5830870974739" lon="10.75402150940322"><ele>210.33333333333331</ele><time>2026-03-28T14:00:17Z</time></trkpt><trkpt lat="45.583200740496494" lon="10.754237928537353"><ele>210.0</ele><time>2026-03-28T14:00:18Z</time></trkpt><trkpt lat="45.58332147539239" lon="10.754459469463981"><ele>210.0</ele><time>2026-03-28T14:00:19Z</time></trkpt><trkpt lat="45.58343524916855" lon="10.754664968829635"><ele>210.0</ele><time>2026-03-28T14:00:20Z</time></trkpt><trkpt lat="45.583532088076765" lon="10.754849754773746"><ele>210.0</ele><time>2026-03-28T14:00:21Z</time></trkpt><trkpt lat="45.58361523260017" lon="10.755003985001919"><ele>210.33333333333331</ele><time>2026-03-28T14:00:22Z</time></trkpt><trkpt lat="45.58368729428742" lon="10.755149840584373"><ele>210.66666666666666</ele><time>2026-03-28T14:00:23Z</time></trkpt><trkpt lat="45.58377361979841" lon="10.755350883744425"><ele>211.0</ele><time>2026-03-28T14:00:24Z</time></trkpt><trkpt lat="45.58394726191762" lon="10.755362564648568"><ele>211.0</ele><time>2026-03-28T14:00:25Z</time></trkpt><trkpt lat="45.58411034779401" lon="10.755542552903716"><ele>211.0</ele><time>2026-03-28T14:00:26Z</time></trkpt><trkpt lat="45.58421226119433" lon="10.755749288984818"><ele>211.0</ele><time>2026-03-28T14:00:27Z</time></trkpt><trkpt lat="45.58415147170615" lon="10.756131516702448"><ele>210.66666666666666</ele><time>2026-03-28T14:00:28Z</time></trkpt><trkpt lat="45.58425147110585" lon="10.756297323856964"><ele>210.33333333333331</ele><time>2026-03-28T14:00:29Z</time></trkpt><trkpt lat="45.58436127181401" lon="10.756476811463862"><ele>210.0</ele><time>2026-03-28T14:00:30Z</time></trkpt><trkpt lat="45.58445589161936" lon="10.756616094526697"><ele>209.75</ele><time>2026-03-28T14:00:31Z</time></trkpt><trkpt lat="45.58454896883745" lon="10.75675694571639"><ele>209.5</ele><time>2026-03-28T14:00:32Z</time></trkpt><trkpt lat="45.58462106104034" lon="10.756889031754021"><ele>209.25</ele><time>2026-03-28T14:00:33Z</time></trkpt><trkpt lat="45.58469783834412" lon="10.757008093833024"><ele>209.0</ele><time>2026-03-28T14:00:34Z</time></trkpt><trkpt lat="45.5847655396661" lon="10.757087200658157"><ele>209.00000000000003</ele><time>2026-03-28T14:00:35Z</time></trkpt><trkpt lat="45.58481697625622" lon="10.757152639390307"><ele>209.0</ele><time>2026-03-28T14:00:36Z</time></trkpt><trkpt lat="45.5848903796584" lon="10.757220092107298"><ele>209.0</ele><time>2026-03-28T14:00:37Z</time></trkpt><trkpt lat="45.58496839474482" lon="10.757292731649793"><ele>209.0</ele><time>2026-03-28T14:00:38Z</time></trkpt><trkpt lat="45.58504677333775" lon="10.757355417041529"><ele>209.00000000000003</ele><time>2026-03-28T14:00:39Z</time></trkpt><trkpt lat="45.5851310852121" lon="10.757419122148912"><ele>209.0</ele><time>2026-03-28T14:00:40Z</time></trkpt><trkpt lat="45.5851918288827" lon="10.757450157488"><ele>209.0</ele><time>2026-03-28T14:00:41Z</time></trkpt><trkpt lat="45.58527730299526" lon="10.757472358465742"><ele>209.0</ele><time>2026-03-28T14:00:42Z</time></trkpt><trkpt lat="45.58537349947663" lon="10.757509716335157"><ele>209.0</ele><time>2026-03-28T14:00:43Z</time></trkpt><trkpt lat="45.585472062123294" lon="10.757572745336063"><ele>209.0</ele><time>2026-03-28T14:00:44Z</time></trkpt><trkpt lat="45.58556542785343" lon="10.757659188406736"><ele>209.0</ele><time>2026-03-28T14:00:45Z</time></trkpt><trkpt lat="45.58567487294421" lon="10.757756774531694"><ele>209.2</ele><time>2026-03-28T14:00:46Z</time></trkpt><trkpt lat="45.58577668227206" lon="10.757841438757634"><ele>209.39999999999998</ele><time>2026-03-28T14:00:47Z</time></trkpt><trkpt lat="45.585869031447736" lon="10.757906772112129"><ele>209.6</ele><time>2026-03-28T14:00:48Z</time></trkpt><trkpt lat="45.5859612671158" lon="10.757951654370501"><ele>209.8</ele><time>2026-03-28T14:00:49Z</time></trkpt><trkpt lat="45.586055562266466" lon="10.757985389126729"><ele>210.0</ele><time>2026-03-28T14:00:50Z</time></trkpt><trkpt lat="45.586155309557526" lon="10.757998728241802"><ele>210.0</ele><time>2026-03-28T14:00:51Z</time></trkpt><trkpt lat="45.58629469814916" lon="10.75803191230619"><ele>210.0</ele><time>2026-03-28T14:00:52Z</time></trkpt><trkpt lat="45.58643030848186" lon="10.75806777292419"><ele>210.0</ele><time>2026-03-28T14:00:53Z</time></trkpt><trkpt lat="45.58659581772291" lon="10.758106313710112"><ele>210.0</ele><time>2026-03-28T14:00:54Z</time></trkpt><trkpt lat="45.58676186884981" lon="10.75815196670568"><ele>210.0</ele><time>2026-03-28T14:00:55Z</time></trkpt><trkpt lat="45.58690500785266" lon="10.758194355558487"><ele>210.0</ele><time>2026-03-28T14:00:56Z</time></trkpt><trkpt lat="45.58703802017452" lon="10.758228002829766"><ele>210.0</ele><time>2026-03-28T14:00:57Z</time></trkpt><trkpt lat="45.58716309579187" lon="10.75826724744718"><ele>210.0</ele><time>2026-03-28T14:00:58Z</time></trkpt><trkpt lat="45.58727575370811" lon="10.758294949422318"><ele>210.0</ele><time>2026-03-28T14:00:59Z</time></trkpt><trkpt lat="45.58737046077604" lon="10.75832719449074"><ele>210.0</ele><time>2026-03-28T14:01:00Z</time></trkpt><trkpt lat="45.58747912653882" lon="10.758418860059445"><ele>210.0</ele><time>2026-03-28T14:01:02Z</time></trkpt><trkpt lat="45.58753639772344" lon="10.758502059197646"><ele>210.0</ele><time>2026-03-28T14:01:03Z</time></trkpt><trkpt lat="45.58759483584353" lon="10.758622436773766"><ele>210.0</ele><time>2026-03-28T14:01:05Z</time></trkpt><trkpt lat="45.58760306090197" lon="10.758757282851912"><ele>210.0</ele><time>2026-03-28T14:01:07Z</time></trkpt><trkpt lat="45.587588035532136" lon="10.75887374044118"><ele>210.0</ele><time>2026-03-28T14:01:08Z</time></trkpt><trkpt lat="45.587564009701644" lon="10.759037287401558"><ele>210.0</ele><time>2026-03-28T14:01:09Z</time></trkpt><trkpt lat="45.58755343890563" lon="10.759247944767091"><ele>210.0</ele><time>2026-03-28T14:01:10Z</time></trkpt><trkpt lat="45.58752843153404" lon="10.759463891821923"><ele>209.66666666666669</ele><time>2026-03-28T14:01:11Z</time></trkpt><trkpt lat="45.58753859881869" lon="10.759682372289081"><ele>209.33333333333334</ele><time>2026-03-28T14:01:12Z</time></trkpt><trkpt lat="45.587535542344845" lon="10.759901542654827"><ele>209.0</ele><time>2026-03-28T14:01:13Z</time></trkpt><trkpt lat="45.58752297387222" lon="10.760153359299805"><ele>209.33333333333334</ele><time>2026-03-28T14:01:14Z</time></trkpt><trkpt lat="45.587520495281986" lon="10.760431961726304"><ele>209.66666666666669</ele><time>2026-03-28T14:01:15Z</time></trkpt><trkpt lat="45.58751657393651" lon="10.760737596036812"><ele>210.0</ele><time>2026-03-28T14:01:16Z</time></trkpt><trkpt lat="45.587525104141626" lon="10.761035398582539"><ele>210.33333333333331</ele><time>2026-03-28T14:01:17Z</time></trkpt><trkpt lat="45.58751403345102" lon="10.761305876804295"><ele>210.66666666666666</ele><time>2026-03-28T14:01:18Z</time></trkpt><trkpt lat="45.587482108725006" lon="10.761564819395662"><ele>211.0</ele><time>2026-03-28T14:01:19Z</time></trkpt><trkpt lat="45.587445696657014" lon="10.761818307370277"><ele>211.33333333333331</ele><time>2026-03-28T14:01:20Z</time></trkpt><trkpt lat="45.587412019472396" lon="10.762052263908382"><ele>211.66666666666669</ele><time>2026-03-28T14:01:21Z</time></trkpt><trkpt lat="45.58731879935387" lon="10.762284384728694"><ele>212.0</ele><time>2026-03-28T14:01:22Z</time></trkpt><trkpt lat="45.58721490160357" lon="10.762512649921813"><ele>212.0</ele><time>2026-03-28T14:01:23Z</time></trkpt><trkpt lat="45.58711643629823" lon="10.762685195668583"><ele>212.0</ele><time>2026-03-28T14:01:24Z</time></trkpt><trkpt lat="45.58705120342983" lon="10.762796281146558"><ele>212.0</ele><time>2026-03-28T14:01:25Z</time></trkpt><trkpt lat="45.58698263499889" lon="10.762905370935483"><ele>212.0</ele><time>2026-03-28T14:01:27Z</time></trkpt><trkpt lat="45.58691378348347" lon="10.763001823621762"><ele>211.8</ele><time>2026-03-28T14:01:29Z</time></trkpt><trkpt lat="45.58685775691093" lon="10.763065067280865"><ele>211.6</ele><time>2026-03-28T14:01:30Z</time></trkpt><trkpt lat="45.58678474438741" lon="10.763145053581171"><ele>211.4</ele><time>2026-03-28T14:01:31Z</time></trkpt><trkpt lat="45.58669240048913" lon="10.763240271966058"><ele>211.20000000000002</ele><time>2026-03-28T14:01:32Z</time></trkpt><trkpt lat="45.58656182017344" lon="10.763363708036728"><ele>211.0</ele><time>2026-03-28T14:01:33Z</time></trkpt><trkpt lat="45.58641957838793" lon="10.763522427226176"><ele>211.33333333333331</ele><time>2026-03-28T14:01:34Z</time></trkpt><trkpt lat="45.58627292393382" lon="10.763686124828565"><ele>211.66666666666669</ele><time>2026-03-28T14:01:35Z</time></trkpt><trkpt lat="45.5861446081097" lon="10.763879050270804"><ele>212.0</ele><time>2026-03-28T14:01:36Z</time></trkpt><trkpt lat="45.58602237101215" lon="10.76406504837961"><ele>212.0</ele><time>2026-03-28T14:01:37Z</time></trkpt><trkpt lat="45.585910366063246" lon="10.764244603560357"><ele>212.0</ele><time>2026-03-28T14:01:38Z</time></trkpt><trkpt lat="45.58580896815712" lon="10.764418221644622"><ele>212.0</ele><time>2026-03-28T14:01:39Z</time></trkpt><trkpt lat="45.58570373389508" lon="10.764623646830184"><ele>212.33333333333334</ele><time>2026-03-28T14:01:40Z</time></trkpt><trkpt lat="45.58560748782246" lon="10.764832942400812"><ele>212.66666666666669</ele><time>2026-03-28T14:01:41Z</time></trkpt><trkpt lat="45.58551368710715" lon="10.765044634224136"><ele>213.0</ele><time>2026-03-28T14:01:42Z</time></trkpt><trkpt lat="45.58540339241661" lon="10.765223792906637"><ele>213.0</ele><time>2026-03-28T14:01:43Z</time></trkpt><trkpt lat="45.585307364867525" lon="10.765405581550109"><ele>213.0</ele><time>2026-03-28T14:01:44Z</time></trkpt><trkpt lat="45.585213379593675" lon="10.76557989997683"><ele>213.0</ele><time>2026-03-28T14:01:45Z</time></trkpt><trkpt lat="45.58511188599006" lon="10.765761927576648"><ele>213.0</ele><time>2026-03-28T14:01:46Z</time></trkpt><trkpt lat="45.5850155386694" lon="10.765934725370494"><ele>213.0</ele><time>2026-03-28T14:01:47Z</time></trkpt><trkpt lat="45.584915568466485" lon="10.766114020776737"><ele>213.0</ele><time>2026-03-28T14:01:48Z</time></trkpt><trkpt lat="45.58481113078651" lon="10.7663013285362"><ele>213.0</ele><time>2026-03-28T14:01:49Z</time></trkpt><trkpt lat="45.58470778346094" lon="10.766493359850513"><ele>213.0</ele><time>2026-03-28T14:01:50Z</time></trkpt><trkpt lat="45.58460148118928" lon="10.766676474366927"><ele>213.0</ele><time>2026-03-28T14:01:51Z</time></trkpt><trkpt lat="45.58450686747976" lon="10.766827140048806"><ele>213.25</ele><time>2026-03-28T14:01:52Z</time></trkpt><trkpt lat="45.584404460307866" lon="10.76696083341488"><ele>213.5</ele><time>2026-03-28T14:01:53Z</time></trkpt><trkpt lat="45.58430930009827" lon="10.76706593185517"><ele>213.75</ele><time>2026-03-28T14:01:54Z</time></trkpt><trkpt lat="45.58419817602332" lon="10.767155242361797"><ele>214.0</ele><time>2026-03-28T14:01:55Z</time></trkpt><trkpt lat="45.58413155011368" lon="10.767266966849828"><ele>214.0</ele><time>2026-03-28T14:01:56Z</time></trkpt><trkpt lat="45.584070520874455" lon="10.767388294390376"><ele>214.0</ele><time>2026-03-28T14:01:57Z</time></trkpt><trkpt lat="45.58401620565124" lon="10.767566017070695"><ele>214.0</ele><time>2026-03-28T14:01:58Z</time></trkpt><trkpt lat="45.58397074394495" lon="10.767763770160693"><ele>214.0</ele><time>2026-03-28T14:01:59Z</time></trkpt><trkpt lat="45.583931140549375" lon="10.768010056809713"><ele>213.66666666666666</ele><time>2026-03-28T14:02:00Z</time></trkpt><trkpt lat="45.583898014905415" lon="10.768286321909635"><ele>213.33333333333331</ele><time>2026-03-28T14:02:01Z</time></trkpt><trkpt lat="45.58387420948634" lon="10.768578486304895"><ele>213.0</ele><time>2026-03-28T14:02:02Z</time></trkpt><trkpt lat="45.58385306610683" lon="10.768881814786146"><ele>214.0</ele><time>2026-03-28T14:02:03Z</time></trkpt><trkpt lat="45.58382515984267" lon="10.769195107629635"><ele>215.0</ele><time>2026-03-28T14:02:04Z</time></trkpt><trkpt lat="45.58378592269692" lon="10.769515258638076"><ele>216.0</ele><time>2026-03-28T14:02:05Z</time></trkpt><trkpt lat="45.58373928688651" lon="10.76984472889687"><ele>217.0</ele><time>2026-03-28T14:02:06Z</time></trkpt><trkpt lat="45.5836962320062" lon="10.770166936785511"><ele>218.0</ele><time>2026-03-28T14:02:07Z</time></trkpt><trkpt lat="45.583664064402996" lon="10.770486837961878"><ele>218.0</ele><time>2026-03-28T14:02:08Z</time></trkpt><trkpt lat="45.583638609827425" lon="10.770809398237706"><ele>218.0</ele><time>2026-03-28T14:02:09Z</time></trkpt><trkpt lat="45.58361847224129" lon="10.771137339627352"><ele>218.66666666666669</ele><time>2026-03-28T14:02:10Z</time></trkpt><trkpt lat="45.58359562538032" lon="10.771442998901088"><ele>219.33333333333331</ele><time>2026-03-28T14:02:11Z</time></trkpt><trkpt lat="45.58357262229467" lon="10.771704200642777"><ele>220.0</ele><time>2026-03-28T14:02:12Z</time></trkpt><trkpt lat="45.583551563770214" lon="10.771931926820452"><ele>221.0</ele><time>2026-03-28T14:02:13Z</time></trkpt><trkpt lat="45.58352787512711" lon="10.772142855385702"><ele>222.0</ele><time>2026-03-28T14:02:14Z</time></trkpt><trkpt lat="45.58348871259122" lon="10.772355178971385"><ele>223.0</ele><time>2026-03-28T14:02:15Z</time></trkpt><trkpt lat="45.58342749610801" lon="10.772565997960177"><ele>223.66666666666666</ele><time>2026-03-28T14:02:16Z</time></trkpt><trkpt lat="45.58333820330349" lon="10.7727619382808"><ele>224.33333333333331</ele><time>2026-03-28T14:02:17Z</time></trkpt><trkpt lat="45.583222338984584" lon="10.772968659891438"><ele>225.0</ele><time>2026-03-28T14:02:18Z</time></trkpt><trkpt lat="45.58308938601857" lon="10.773170549705139"><ele>225.0</ele><time>2026-03-28T14:02:19Z</time></trkpt><trkpt lat="45.58293877760754" lon="10.773363625820638"><ele>225.0</ele><time>2026-03-28T14:02:20Z</time></trkpt><trkpt lat="45.582794847486774" lon="10.773548442076477"><ele>225.0</ele><time>2026-03-28T14:02:21Z</time></trkpt><trkpt lat="45.582677107672865" lon="10.77373569188007"><ele>225.66666666666669</ele><time>2026-03-28T14:02:22Z</time></trkpt><trkpt lat="45.582585990252056" lon="10.773936581335862"><ele>226.33333333333334</ele><time>2026-03-28T14:02:23Z</time></trkpt><trkpt lat="45.58251172977738" lon="10.77418034118282"><ele>227.0</ele><time>2026-03-28T14:02:24Z</time></trkpt><trkpt lat="45.58246420519299" lon="10.774445304377872"><ele>227.33333333333334</ele><time>2026-03-28T14:02:25Z</time></trkpt><trkpt lat="45.58243358981144" lon="10.77473675961643"><ele>227.66666666666669</ele><time>2026-03-28T14:02:26Z</time></trkpt><trkpt lat="45.582409786084355" lon="10.775035497669588"><ele>228.0</ele><time>2026-03-28T14:02:27Z</time></trkpt><trkpt lat="45.58238338802669" lon="10.775285649189447"><ele>228.4</ele><time>2026-03-28T14:02:28Z</time></trkpt><trkpt lat="45.582361923717066" lon="10.775475763372949"><ele>228.8</ele><time>2026-03-28T14:02:29Z</time></trkpt><trkpt lat="45.582340106114714" lon="10.775633827209402"><ele>229.2</ele><time>2026-03-28T14:02:30Z</time></trkpt><trkpt lat="45.5823263297516" lon="10.77575200434159"><ele>229.6</ele><time>2026-03-28T14:02:31Z</time></trkpt><trkpt lat="45.58231748567588" lon="10.775865801128823"><ele>230.0</ele><time>2026-03-28T14:02:33Z</time></trkpt><trkpt lat="45.58239376006804" lon="10.77609141476015"><ele>230.0</ele><time>2026-03-28T14:02:35Z</time></trkpt><trkpt lat="45.58248419956762" lon="10.776234975013729"><ele>230.0</ele><time>2026-03-28T14:02:36Z</time></trkpt><trkpt lat="45.58258861241165" lon="10.77639735384178"><ele>230.0</ele><time>2026-03-28T14:02:37Z</time></trkpt><trkpt lat="45.58270160603211" lon="10.776584008487815"><ele>230.0</ele><time>2026-03-28T14:02:38Z</time></trkpt><trkpt lat="45.58281317432613" lon="10.776792524578154"><ele>230.0</ele><time>2026-03-28T14:02:39Z</time></trkpt><trkpt lat="45.58293121466269" lon="10.777025552671855"><ele>230.0</ele><time>2026-03-28T14:02:40Z</time></trkpt><trkpt lat="45.58305960350252" lon="10.777291846245548"><ele>232.0</ele><time>2026-03-28T14:02:41Z</time></trkpt><trkpt lat="45.58318783591348" lon="10.777562279973637"><ele>234.0</ele><time>2026-03-28T14:02:42Z</time></trkpt><trkpt lat="45.58330974431175" lon="10.777825846585545"><ele>234.0</ele><time>2026-03-28T14:02:43Z</time></trkpt><trkpt lat="45.583434614674246" lon="10.778082509710925"><ele>234.0</ele><time>2026-03-28T14:02:44Z</time></trkpt><trkpt lat="45.583571847009225" lon="10.778306809941947"><ele>234.0</ele><time>2026-03-28T14:02:45Z</time></trkpt><trkpt lat="45.58373553563265" lon="10.77852024731004"><ele>238.5</ele><time>2026-03-28T14:02:46Z</time></trkpt><trkpt lat="45.58391112485962" lon="10.778718730545428"><ele>243.0</ele><time>2026-03-28T14:02:47Z</time></trkpt><trkpt lat="45.58410647308053" lon="10.778900688692223"><ele>243.0</ele><time>2026-03-28T14:02:48Z</time></trkpt><trkpt lat="45.58431925912316" lon="10.77906951898801"><ele>243.0</ele><time>2026-03-28T14:02:49Z</time></trkpt><trkpt lat="45.58454131777159" lon="10.779224640927412"><ele>244.5</ele><time>2026-03-28T14:02:50Z</time></trkpt><trkpt lat="45.58476860131454" lon="10.779365985192692"><ele>246.0</ele><time>2026-03-28T14:02:51Z</time></trkpt><trkpt lat="45.585004778176874" lon="10.779515621886976"><ele>246.0</ele><time>2026-03-28T14:02:52Z</time></trkpt><trkpt lat="45.58523604247631" lon="10.779673450084426"><ele>246.0</ele><time>2026-03-28T14:02:53Z</time></trkpt><trkpt lat="45.58546860636306" lon="10.779836747246534"><ele>245.5</ele><time>2026-03-28T14:02:54Z</time></trkpt><trkpt lat="45.58569761130113" lon="10.780000685777779"><ele>245.0</ele><time>2026-03-28T14:02:55Z</time></trkpt><trkpt lat="45.58593180456734" lon="10.780165062261515"><ele>246.5</ele><time>2026-03-28T14:02:56Z</time></trkpt><trkpt lat="45.58615945469765" lon="10.780323648713532"><ele>248.0</ele><time>2026-03-28T14:02:57Z</time></trkpt><trkpt lat="45.58637675502437" lon="10.78047243546151"><ele>248.0</ele><time>2026-03-28T14:02:58Z</time></trkpt><trkpt lat="45.58659364814316" lon="10.780624530047499"><ele>248.0</ele><time>2026-03-28T14:02:59Z</time></trkpt><trkpt lat="45.5868143561105" lon="10.780777019146361"><ele>246.0</ele><time>2026-03-28T14:03:00Z</time></trkpt><trkpt lat="45.587040126043874" lon="10.78093453348769"><ele>244.0</ele><time>2026-03-28T14:03:01Z</time></trkpt><trkpt lat="45.58725457807986" lon="10.781115520330175"><ele>248.0</ele><time>2026-03-28T14:03:02Z</time></trkpt><trkpt lat="45.587484419551465" lon="10.781264764301048"><ele>252.0</ele><time>2026-03-28T14:03:03Z</time></trkpt><trkpt lat="45.58770249258885" lon="10.78143544433047"><ele>248.5</ele><time>2026-03-28T14:03:04Z</time></trkpt><trkpt lat="45.58792310695615" lon="10.781603571865633"><ele>245.0</ele><time>2026-03-28T14:03:05Z</time></trkpt><trkpt lat="45.58814270843794" lon="10.781762260256256"><ele>250.5</ele><time>2026-03-28T14:03:06Z</time></trkpt><trkpt lat="45.58835655418507" lon="10.781922873372128"><ele>256.0</ele><time>2026-03-28T14:03:07Z</time></trkpt><trkpt lat="45.588550487326884" lon="10.782069902759034"><ele>253.66666666666666</ele><time>2026-03-28T14:03:08Z</time></trkpt><trkpt lat="45.58871483546889" lon="10.782193183845637"><ele>251.33333333333331</ele><time>2026-03-28T14:03:09Z</time></trkpt><trkpt lat="45.58887180398046" lon="10.782315335798083"><ele>249.0</ele><time>2026-03-28T14:03:10Z</time></trkpt><trkpt lat="45.589012529600744" lon="10.78242513954644"><ele>249.0</ele><time>2026-03-28T14:03:11Z</time></trkpt><trkpt lat="45.589140503291276" lon="10.782521634930866"><ele>248.99999999999997</ele><time>2026-03-28T14:03:12Z</time></trkpt><trkpt lat="45.58924626780216" lon="10.782600604179299"><ele>248.99999999999997</ele><time>2026-03-28T14:03:13Z</time></trkpt><trkpt lat="45.58931752290708" lon="10.78266038977458"><ele>249.0</ele><time>2026-03-28T14:03:14Z</time></trkpt><trkpt lat="45.5893614233331" lon="10.78276170738503"><ele>249.0</ele><time>2026-03-28T14:03:16Z</time></trkpt><trkpt lat="45.589309702497" lon="10.782898658944653"><ele>250.75</ele><time>2026-03-28T14:03:18Z</time></trkpt><trkpt lat="45.58924932651788" lon="10.783005149793576"><ele>252.5</ele><time>2026-03-28T14:03:19Z</time></trkpt><trkpt lat="45.58916277977911" lon="10.783147120726266"><ele>254.25</ele><time>2026-03-28T14:03:20Z</time></trkpt><trkpt lat="45.589076376332955" lon="10.783297332395971"><ele>256.0</ele><time>2026-03-28T14:03:21Z</time></trkpt><trkpt lat="45.589001917084204" lon="10.783433997593523"><ele>256.75</ele><time>2026-03-28T14:03:22Z</time></trkpt><trkpt lat="45.588929104798524" lon="10.783579039123405"><ele>257.5</ele><time>2026-03-28T14:03:23Z</time></trkpt><trkpt lat="45.588858388056174" lon="10.783714663764355"><ele>258.25</ele><time>2026-03-28T14:03:24Z</time></trkpt><trkpt lat="45.58877946084116" lon="10.783847152598245"><ele>259.0</ele><time>2026-03-28T14:03:25Z</time></trkpt><trkpt lat="45.58869775532311" lon="10.783998398911274"><ele>258.8</ele><time>2026-03-28T14:03:26Z</time></trkpt><trkpt lat="45.58861821248485" lon="10.784140555802873"><ele>258.59999999999997</ele><time>2026-03-28T14:03:27Z</time></trkpt><trkpt lat="45.58854845786652" lon="10.784261514617452"><ele>258.4</ele><time>2026-03-28T14:03:28Z</time></trkpt><trkpt lat="45.5884801827832" lon="10.784372704890433"><ele>258.2</ele><time>2026-03-28T14:03:30Z</time></trkpt><trkpt lat="45.58853440512509" lon="10.784505022335885"><ele>258.0</ele><time>2026-03-28T14:03:33Z</time></trkpt><trkpt lat="45.5885952727411" lon="10.784568973038443"><ele>258.75</ele><time>2026-03-28T14:03:34Z</time></trkpt><trkpt lat="45.58866781994627" lon="10.784623761397603"><ele>259.5</ele><time>2026-03-28T14:03:35Z</time></trkpt><trkpt lat="45.588777521615036" lon="10.784691436241877"><ele>260.25</ele><time>2026-03-28T14:03:36Z</time></trkpt><trkpt lat="45.58890816094484" lon="10.784782478598391"><ele>261.0</ele><time>2026-03-28T14:03:37Z</time></trkpt><trkpt lat="45.58901440620767" lon="10.784869531168223"><ele>261.0</ele><time>2026-03-28T14:03:38Z</time></trkpt><trkpt lat="45.589108331963615" lon="10.784978726549175"><ele>261.0</ele><time>2026-03-28T14:03:39Z</time></trkpt><trkpt lat="45.589206648891754" lon="10.785105160242704"><ele>261.0</ele><time>2026-03-28T14:03:40Z</time></trkpt><trkpt lat="45.58932188670086" lon="10.785256130591804"><ele>261.0</ele><time>2026-03-28T14:03:41Z</time></trkpt><trkpt lat="45.58944884313987" lon="10.785421357519686"><ele>262.0</ele><time>2026-03-28T14:03:42Z</time></trkpt><trkpt lat="45.5895646798891" lon="10.785566084635692"><ele>263.0</ele><time>2026-03-28T14:03:43Z</time></trkpt><trkpt lat="45.58965980546517" lon="10.785690742557668"><ele>264.0</ele><time>2026-03-28T14:03:44Z</time></trkpt><trkpt lat="45.58975176317224" lon="10.785798283849454"><ele>265.0</ele><time>2026-03-28T14:03:45Z</time></trkpt><trkpt lat="45.58983869612217" lon="10.785931324518545"><ele>265.0</ele><time>2026-03-28T14:03:46Z</time></trkpt><trkpt lat="45.58995609973464" lon="10.785993142475016"><ele>265.0</ele><time>2026-03-28T14:03:47Z</time></trkpt><trkpt lat="45.590071321517605" lon="10.786097580360805"><ele>265.0</ele><time>2026-03-28T14:03:48Z</time></trkpt><trkpt lat="45.5901638309293" lon="10.786186001762609"><ele>265.0</ele><time>2026-03-28T14:03:49Z</time></trkpt><trkpt lat="45.590268061068876" lon="10.78630075594499"><ele>265.66666666666663</ele><time>2026-03-28T14:03:50Z</time></trkpt><trkpt lat="45.590384579865834" lon="10.786438663212344"><ele>266.3333333333333</ele><time>2026-03-28T14:03:51Z</time></trkpt><trkpt lat="45.59050663531502" lon="10.786586905415449"><ele>267.0</ele><time>2026-03-28T14:03:52Z</time></trkpt><trkpt lat="45.590624892203685" lon="10.786727412327588"><ele>268.5</ele><time>2026-03-28T14:03:53Z</time></trkpt><trkpt lat="45.590732556567126" lon="10.786857380574869"><ele>270.0</ele><time>2026-03-28T14:03:54Z</time></trkpt><trkpt lat="45.59083876527579" lon="10.78698622305962"><ele>271.5</ele><time>2026-03-28T14:03:55Z</time></trkpt><trkpt lat="45.590930915200126" lon="10.787110654368277"><ele>273.0</ele><time>2026-03-28T14:03:56Z</time></trkpt><trkpt lat="45.59102400883966" lon="10.78723993389981"><ele>273.0</ele><time>2026-03-28T14:03:57Z</time></trkpt><trkpt lat="45.59112833503655" lon="10.787373442671958"><ele>273.0</ele><time>2026-03-28T14:03:58Z</time></trkpt><trkpt lat="45.59125502445083" lon="10.78752274918835"><ele>273.0</ele><time>2026-03-28T14:03:59Z</time></trkpt><trkpt lat="45.5913827403218" lon="10.787668346947145"><ele>272.75</ele><time>2026-03-28T14:04:00Z</time></trkpt><trkpt lat="45.59149523704282" lon="10.787809831795213"><ele>272.5</ele><time>2026-03-28T14:04:01Z</time></trkpt><trkpt lat="45.59161090775812" lon="10.787961240796008"><ele>272.25</ele><time>2026-03-28T14:04:02Z</time></trkpt><trkpt lat="45.59172124753747" lon="10.788087589803176"><ele>272.0</ele><time>2026-03-28T14:04:03Z</time></trkpt><trkpt lat="45.591847149015315" lon="10.788208224258874"><ele>272.0</ele><time>2026-03-28T14:04:04Z</time></trkpt><trkpt lat="45.59196502834665" lon="10.788325330033587"><ele>272.0</ele><time>2026-03-28T14:04:05Z</time></trkpt><trkpt lat="45.592072885362455" lon="10.78844499986776"><ele>272.0</ele><time>2026-03-28T14:04:06Z</time></trkpt><trkpt lat="45.592168299926506" lon="10.788557442367306"><ele>272.0</ele><time>2026-03-28T14:04:07Z</time></trkpt><trkpt lat="45.592234674593755" lon="10.788663272150206"><ele>272.1666666666667</ele><time>2026-03-28T14:04:08Z</time></trkpt><trkpt lat="45.592294537958644" lon="10.788767494019792"><ele>272.33333333333337</ele><time>2026-03-28T14:04:09Z</time></trkpt><trkpt lat="45.59235457802909" lon="10.788852764473601"><ele>272.5</ele><time>2026-03-28T14:04:10Z</time></trkpt><trkpt lat="45.59242222763677" lon="10.788878465339707"><ele>272.6666666666667</ele><time>2026-03-28T14:04:11Z</time></trkpt><trkpt lat="45.59251845271135" lon="10.788915955360888"><ele>272.8333333333333</ele><time>2026-03-28T14:04:12Z</time></trkpt><trkpt lat="45.59260187191034" lon="10.788983649877363"><ele>273.0</ele><time>2026-03-28T14:04:13Z</time></trkpt><trkpt lat="45.59267739668888" lon="10.789075519774451"><ele>273.0</ele><time>2026-03-28T14:04:14Z</time></trkpt><trkpt lat="45.59275871622061" lon="10.789195286235445"><ele>273.0</ele><time>2026-03-28T14:04:15Z</time></trkpt><trkpt lat="45.59284185499704" lon="10.789304829384823"><ele>273.0</ele><time>2026-03-28T14:04:16Z</time></trkpt><trkpt lat="45.59291576122439" lon="10.78941003244327"><ele>273.0</ele><time>2026-03-28T14:04:17Z</time></trkpt><trkpt lat="45.59299244830584" lon="10.789514293616232"><ele>273.0</ele><time>2026-03-28T14:04:18Z</time></trkpt><trkpt lat="45.59304149327792" lon="10.789575329209645"><ele>273.3333333333333</ele><time>2026-03-28T14:04:19Z</time></trkpt><trkpt lat="45.593052691555414" lon="10.78968853173566"><ele>273.6666666666667</ele><time>2026-03-28T14:04:21Z</time></trkpt><trkpt lat="45.592990615181186" lon="10.789831184129607"><ele>274.0</ele><time>2026-03-28T14:04:23Z</time></trkpt><trkpt lat="45.59292814584676" lon="10.78988678825998"><ele>274.33333333333337</ele><time>2026-03-28T14:04:25Z</time></trkpt><trkpt lat="45.59287374366279" lon="10.78996892426031"><ele>274.6666666666667</ele><time>2026-03-28T14:04:30Z</time></trkpt><trkpt lat="45.59281213920385" lon="10.790046366021471"><ele>275.0</ele><time>2026-03-28T14:04:32Z</time></trkpt><trkpt lat="45.5929007229032" lon="10.79021021571311"><ele>276.0</ele><time>2026-03-28T14:04:37Z</time></trkpt><trkpt lat="45.59301068582824" lon="10.790330478499394"><ele>277.0</ele><time>2026-03-28T14:04:39Z</time></trkpt><trkpt lat="45.59307849212051" lon="10.790446959751907"><ele>278.0</ele><time>2026-03-28T14:04:40Z</time></trkpt><trkpt lat="45.59317651956205" lon="10.790549935791086"><ele>279.0</ele><time>2026-03-28T14:04:41Z</time></trkpt><trkpt lat="45.593237691416846" lon="10.790666062749455"><ele>279.0</ele><time>2026-03-28T14:04:42Z</time></trkpt><trkpt lat="45.59330511490237" lon="10.79075368071658"><ele>279.0</ele><time>2026-03-28T14:04:43Z</time></trkpt><trkpt lat="45.59338729175932" lon="10.790809719968854"><ele>279.0</ele><time>2026-03-28T14:04:44Z</time></trkpt><trkpt lat="45.59346667063343" lon="10.7908831876631"><ele>279.0</ele><time>2026-03-28T14:04:45Z</time></trkpt><trkpt lat="45.59348797478349" lon="10.791083274741469"><ele>279.0</ele><time>2026-03-28T14:04:46Z</time></trkpt><trkpt lat="45.59354245552537" lon="10.791172944457156"><ele>279.5</ele><time>2026-03-28T14:04:47Z</time></trkpt><trkpt lat="45.59359404621829" lon="10.791235290109881"><ele>280.0</ele><time>2026-03-28T14:04:48Z</time></trkpt><trkpt lat="45.59365882154587" lon="10.791294703601196"><ele>280.5</ele><time>2026-03-28T14:04:49Z</time></trkpt><trkpt lat="45.59373352741697" lon="10.79139030980535"><ele>281.0</ele><time>2026-03-28T14:04:50Z</time></trkpt><trkpt lat="45.59380608573189" lon="10.79148832551785"><ele>281.5</ele><time>2026-03-28T14:04:51Z</time></trkpt><trkpt lat="45.59386873989215" lon="10.791586584983273"><ele>282.0</ele><time>2026-03-28T14:04:52Z</time></trkpt><trkpt lat="45.59392279899712" lon="10.791678755214548"><ele>282.0</ele><time>2026-03-28T14:04:53Z</time></trkpt><trkpt lat="45.59396760611706" lon="10.79180277606344"><ele>282.0</ele><time>2026-03-28T14:04:54Z</time></trkpt><trkpt lat="45.594000896866206" lon="10.791947845893834"><ele>282.0</ele><time>2026-03-28T14:04:55Z</time></trkpt><trkpt lat="45.59404536282683" lon="10.792084241981163"><ele>282.0</ele><time>2026-03-28T14:04:56Z</time></trkpt><trkpt lat="45.59409600728798" lon="10.792185137289502"><ele>282.0</ele><time>2026-03-28T14:04:57Z</time></trkpt><trkpt lat="45.59417855750944" lon="10.79228605746673"><ele>282.6</ele><time>2026-03-28T14:04:58Z</time></trkpt><trkpt lat="45.59426354053833" lon="10.792350007180154"><ele>283.2</ele><time>2026-03-28T14:04:59Z</time></trkpt><trkpt lat="45.59434173339348" lon="10.792435291511575"><ele>283.8</ele><time>2026-03-28T14:05:00Z</time></trkpt><trkpt lat="45.59440954181895" lon="10.79253973629659"><ele>284.4</ele><time>2026-03-28T14:05:01Z</time></trkpt><trkpt lat="45.59446475887629" lon="10.79263103569429"><ele>285.0</ele><time>2026-03-28T14:05:02Z</time></trkpt><trkpt lat="45.59452852030505" lon="10.792726207764712"><ele>285.0</ele><time>2026-03-28T14:05:03Z</time></trkpt><trkpt lat="45.59459740382757" lon="10.792844623288323"><ele>285.0</ele><time>2026-03-28T14:05:04Z</time></trkpt><trkpt lat="45.594668294689576" lon="10.792983289057373"><ele>285.0</ele><time>2026-03-28T14:05:05Z</time></trkpt><trkpt lat="45.594734433233796" lon="10.793095005931413"><ele>285.0</ele><time>2026-03-28T14:05:06Z</time></trkpt><trkpt lat="45.59480036739906" lon="10.79323388559622"><ele>285.0</ele><time>2026-03-28T14:05:07Z</time></trkpt><trkpt lat="45.59486341603015" lon="10.793358682232924"><ele>285.0</ele><time>2026-03-28T14:05:08Z</time></trkpt><trkpt lat="45.59493750581945" lon="10.79347701301292"><ele>285.0</ele><time>2026-03-28T14:05:09Z</time></trkpt><trkpt lat="45.59500700733399" lon="10.79358145926668"><ele>285.0</ele><time>2026-03-28T14:05:10Z</time></trkpt><trkpt lat="45.59509135764319" lon="10.793684793683868"><ele>285.0</ele><time>2026-03-28T14:05:11Z</time></trkpt><trkpt lat="45.5951897755639" lon="10.793803720576728"><ele>284.4</ele><time>2026-03-28T14:05:12Z</time></trkpt><trkpt lat="45.595258437170564" lon="10.793906658240223"><ele>283.8</ele><time>2026-03-28T14:05:13Z</time></trkpt><trkpt lat="45.595329169324856" lon="10.793965586785236"><ele>283.2</ele><time>2026-03-28T14:05:14Z</time></trkpt><trkpt lat="45.59539397104569" lon="10.794074981886425"><ele>282.6</ele><time>2026-03-28T14:05:15Z</time></trkpt><trkpt lat="45.59545226269842" lon="10.794199183509336"><ele>282.0</ele><time>2026-03-28T14:05:16Z</time></trkpt><trkpt lat="45.59552943654684" lon="10.794315918227968"><ele>282.3333333333333</ele><time>2026-03-28T14:05:17Z</time></trkpt><trkpt lat="45.59557778183217" lon="10.794404404754506"><ele>282.6666666666667</ele><time>2026-03-28T14:05:18Z</time></trkpt><trkpt lat="45.59562281139943" lon="10.794494364424354"><ele>283.0</ele><time>2026-03-28T14:05:20Z</time></trkpt><trkpt lat="45.59570885211122" lon="10.794520267986464"><ele>283.33333333333337</ele><time>2026-03-28T14:05:22Z</time></trkpt><trkpt lat="45.595794276980165" lon="10.794512477670732"><ele>283.6666666666667</ele><time>2026-03-28T14:05:23Z</time></trkpt><trkpt lat="45.59590261032319" lon="10.794485281747042"><ele>284.0</ele><time>2026-03-28T14:05:24Z</time></trkpt><trkpt lat="45.59601456178581" lon="10.794438622788105"><ele>284.0</ele><time>2026-03-28T14:05:25Z</time></trkpt><trkpt lat="45.59613493946815" lon="10.794431167572666"><ele>284.0</ele><time>2026-03-28T14:05:26Z</time></trkpt><trkpt lat="45.59624944535215" lon="10.794408167231929"><ele>284.0</ele><time>2026-03-28T14:05:27Z</time></trkpt><trkpt lat="45.596356870283536" lon="10.7943725007363"><ele>284.0</ele><time>2026-03-28T14:05:28Z</time></trkpt><trkpt lat="45.59645995744741" lon="10.794346743247635"><ele>281.5</ele><time>2026-03-28T14:05:29Z</time></trkpt><trkpt lat="45.596564637902205" lon="10.794324644840634"><ele>279.0</ele><time>2026-03-28T14:05:30Z</time></trkpt><trkpt lat="45.59668529708433" lon="10.794292112509941"><ele>276.5</ele><time>2026-03-28T14:05:31Z</time></trkpt><trkpt lat="45.59681347074254" lon="10.794283275063107"><ele>274.0</ele><time>2026-03-28T14:05:32Z</time></trkpt><trkpt lat="45.5969260284997" lon="10.794278432501086"><ele>272.66666666666663</ele><time>2026-03-28T14:05:33Z</time></trkpt><trkpt lat="45.59701142664613" lon="10.794279751206988"><ele>271.3333333333333</ele><time>2026-03-28T14:05:34Z</time></trkpt><trkpt lat="45.59708347150375" lon="10.794287590513775"><ele>270.0</ele><time>2026-03-28T14:05:35Z</time></trkpt><trkpt lat="45.59716466316411" lon="10.79429721610034"><ele>268.6666666666667</ele><time>2026-03-28T14:05:36Z</time></trkpt><trkpt lat="45.59725112804341" lon="10.794350162735839"><ele>267.33333333333337</ele><time>2026-03-28T14:05:37Z</time></trkpt><trkpt lat="45.597353992487236" lon="10.794403888000588"><ele>266.0</ele><time>2026-03-28T14:05:38Z</time></trkpt><trkpt lat="45.59747445206802" lon="10.794508536028243"><ele>266.0</ele><time>2026-03-28T14:05:39Z</time></trkpt><trkpt lat="45.59760860514342" lon="10.794609022869631"><ele>266.0</ele><time>2026-03-28T14:05:40Z</time></trkpt><trkpt lat="45.59774425324736" lon="10.794694597823819"><ele>266.0</ele><time>2026-03-28T14:05:41Z</time></trkpt><trkpt lat="45.59786675267209" lon="10.794771622824777"><ele>266.0</ele><time>2026-03-28T14:05:42Z</time></trkpt><trkpt lat="45.597966701981285" lon="10.79482569395635"><ele>264.83333333333337</ele><time>2026-03-28T14:05:43Z</time></trkpt><trkpt lat="45.598029945699324" lon="10.79486075409185"><ele>263.6666666666667</ele><time>2026-03-28T14:05:44Z</time></trkpt><trkpt lat="45.59809201415619" lon="10.794912968378135"><ele>262.5</ele><time>2026-03-28T14:05:45Z</time></trkpt><trkpt lat="45.598137504220524" lon="10.794990004834371"><ele>261.3333333333333</ele><time>2026-03-28T14:05:46Z</time></trkpt><trkpt lat="45.598182759416524" lon="10.795073599719272"><ele>260.16666666666663</ele><time>2026-03-28T14:05:47Z</time></trkpt><trkpt lat="45.59823550224034" lon="10.795179154806114"><ele>259.0</ele><time>2026-03-28T14:05:49Z</time></trkpt><trkpt lat="45.598160514862776" lon="10.795247552194896"><ele>259.0</ele><time>2026-03-28T14:05:51Z</time></trkpt><trkpt lat="45.59810831866329" lon="10.79533361810262"><ele>259.0</ele><time>2026-03-28T14:05:52Z</time></trkpt><trkpt lat="45.5980337433018" lon="10.79535635271143"><ele>259.0</ele><time>2026-03-28T14:05:53Z</time></trkpt><trkpt lat="45.59794552782049" lon="10.795354551202987"><ele>259.0</ele><time>2026-03-28T14:05:54Z</time></trkpt><trkpt lat="45.597843490909945" lon="10.795340761352694"><ele>259.0</ele><time>2026-03-28T14:05:55Z</time></trkpt><trkpt lat="45.59772465796591" lon="10.795352977661857"><ele>262.0</ele><time>2026-03-28T14:05:56Z</time></trkpt><trkpt lat="45.59758768522671" lon="10.79541250122638"><ele>265.0</ele><time>2026-03-28T14:05:57Z</time></trkpt><trkpt lat="45.597471012597055" lon="10.79545614148221"><ele>268.0</ele><time>2026-03-28T14:05:58Z</time></trkpt><trkpt lat="45.59739343394339" lon="10.79552748824812"><ele>271.0</ele><time>2026-03-28T14:05:59Z</time></trkpt><trkpt lat="45.597340665482186" lon="10.795601033018531"><ele>274.0</ele><time>2026-03-28T14:06:00Z</time></trkpt><trkpt lat="45.59728920153243" lon="10.795665853382575"><ele>274.0</ele><time>2026-03-28T14:06:01Z</time></trkpt><trkpt lat="45.597236597229006" lon="10.795735882397684"><ele>274.0</ele><time>2026-03-28T14:06:02Z</time></trkpt><trkpt lat="45.59718609144758" lon="10.795865804743775"><ele>274.0</ele><time>2026-03-28T14:06:03Z</time></trkpt><trkpt lat="45.59709772280075" lon="10.796005679320256"><ele>274.0</ele><time>2026-03-28T14:06:04Z</time></trkpt><trkpt lat="45.597037006360175" lon="10.79616138828802"><ele>274.0</ele><time>2026-03-28T14:06:05Z</time></trkpt><trkpt lat="45.596966500806694" lon="10.796323065051283"><ele>275.0</ele><time>2026-03-28T14:06:06Z</time></trkpt><trkpt lat="45.5968995536556" lon="10.796470333323434"><ele>276.0</ele><time>2026-03-28T14:06:07Z</time></trkpt><trkpt lat="45.596854523051356" lon="10.796600480375387"><ele>277.0</ele><time>2026-03-28T14:06:08Z</time></trkpt><trkpt lat="45.59680174921702" lon="10.796719209011801"><ele>278.0</ele><time>2026-03-28T14:06:09Z</time></trkpt><trkpt lat="45.59675004701768" lon="10.796852085961287"><ele>279.0</ele><time>2026-03-28T14:06:10Z</time></trkpt><trkpt lat="45.59670819594164" lon="10.79695964508072"><ele>280.59999999999997</ele><time>2026-03-28T14:06:11Z</time></trkpt><trkpt lat="45.59677317397724" lon="10.797121743589265"><ele>282.2</ele><time>2026-03-28T14:06:12Z</time></trkpt><trkpt lat="45.59679811144028" lon="10.797302382469029"><ele>283.79999999999995</ele><time>2026-03-28T14:06:14Z</time></trkpt><trkpt lat="45.59681909171445" lon="10.7974075244585"><ele>285.4</ele><time>2026-03-28T14:06:15Z</time></trkpt><trkpt lat="45.5968375650326" lon="10.797529065958654"><ele>287.0</ele><time>2026-03-28T14:06:16Z</time></trkpt><trkpt lat="45.596861095397685" lon="10.79762532664848"><ele>287.33333333333337</ele><time>2026-03-28T14:06:17Z</time></trkpt><trkpt lat="45.59686893386657" lon="10.797768092590504"><ele>287.6666666666667</ele><time>2026-03-28T14:06:19Z</time></trkpt><trkpt lat="45.59687091431191" lon="10.79785985408062"><ele>288.0</ele><time>2026-03-28T14:06:20Z</time></trkpt><trkpt lat="45.5968523471284" lon="10.797971762344003"><ele>288.3333333333333</ele><time>2026-03-28T14:06:21Z</time></trkpt><trkpt lat="45.59684344216369" lon="10.798093425859948"><ele>288.66666666666663</ele><time>2026-03-28T14:06:22Z</time></trkpt><trkpt lat="45.59682764733318" lon="10.798198653123544"><ele>289.0</ele><time>2026-03-28T14:06:23Z</time></trkpt><trkpt lat="45.596781480375284" lon="10.798318930916569"><ele>289.0</ele><time>2026-03-28T14:06:24Z</time></trkpt><trkpt lat="45.59675422655342" lon="10.798440024920636"><ele>289.0</ele><time>2026-03-28T14:06:25Z</time></trkpt><trkpt lat="45.596722512015184" lon="10.798519022242157"><ele>289.0</ele><time>2026-03-28T14:06:26Z</time></trkpt><trkpt lat="45.59666277613663" lon="10.798696879920222"><ele>289.0</ele><time>2026-03-28T14:06:28Z</time></trkpt><trkpt lat="45.59663844559189" lon="10.79878128030425"><ele>289.0</ele><time>2026-03-28T14:06:29Z</time></trkpt><trkpt lat="45.596581003440946" lon="10.798968068079825"><ele>289.59999999999997</ele><time>2026-03-28T14:06:31Z</time></trkpt><trkpt lat="45.59656231540116" lon="10.799070797972776"><ele>290.2</ele><time>2026-03-28T14:06:32Z</time></trkpt><trkpt lat="45.596499885986745" lon="10.799209173013095"><ele>290.79999999999995</ele><time>2026-03-28T14:06:34Z</time></trkpt><trkpt lat="45.596384616901965" lon="10.799327129266187"><ele>291.4</ele><time>2026-03-28T14:06:36Z</time></trkpt><trkpt lat="45.59632026562545" lon="10.799430893274804"><ele>292.0</ele><time>2026-03-28T14:06:37Z</time></trkpt><trkpt lat="45.59627307928067" lon="10.799542708403436"><ele>293.0</ele><time>2026-03-28T14:06:38Z</time></trkpt><trkpt lat="45.59621801301103" lon="10.79965608288425"><ele>294.0</ele><time>2026-03-28T14:06:39Z</time></trkpt><trkpt lat="45.59615683987501" lon="10.799753904550343"><ele>295.0</ele><time>2026-03-28T14:06:40Z</time></trkpt><trkpt lat="45.596077000806225" lon="10.79981808185392"><ele>296.0</ele><time>2026-03-28T14:06:41Z</time></trkpt><trkpt lat="45.595977602059016" lon="10.799889689488719"><ele>297.0</ele><time>2026-03-28T14:06:42Z</time></trkpt><trkpt lat="45.595871522093965" lon="10.799959791564145"><ele>299.25</ele><time>2026-03-28T14:06:43Z</time></trkpt><trkpt lat="45.59575481817213" lon="10.800054679924612"><ele>301.5</ele><time>2026-03-28T14:06:44Z</time></trkpt><trkpt lat="45.59564077002377" lon="10.80013180017757"><ele>303.75</ele><time>2026-03-28T14:06:45Z</time></trkpt><trkpt lat="45.59552486338722" lon="10.800201061491066"><ele>306.0</ele><time>2026-03-28T14:06:46Z</time></trkpt><trkpt lat="45.59543181146539" lon="10.80026229326763"><ele>306.3333333333333</ele><time>2026-03-28T14:06:47Z</time></trkpt><trkpt lat="45.59534991903775" lon="10.800277230366664"><ele>306.6666666666667</ele><time>2026-03-28T14:06:48Z</time></trkpt><trkpt lat="45.59528227701982" lon="10.800304265847359"><ele>307.0</ele><time>2026-03-28T14:06:49Z</time></trkpt><trkpt lat="45.595260021063744" lon="10.800477115581572"><ele>307.33333333333337</ele><time>2026-03-28T14:06:50Z</time></trkpt><trkpt lat="45.5952272577237" lon="10.80056573762908"><ele>307.6666666666667</ele><time>2026-03-28T14:06:51Z</time></trkpt><trkpt lat="45.59521519965299" lon="10.800663266110725"><ele>308.0</ele><time>2026-03-28T14:06:52Z</time></trkpt><trkpt lat="45.595214627568865" lon="10.800765838789179"><ele>307.2</ele><time>2026-03-28T14:06:53Z</time></trkpt><trkpt lat="45.59524807272933" lon="10.800954043268115"><ele>306.4</ele><time>2026-03-28T14:06:55Z</time></trkpt><trkpt lat="45.59528287765113" lon="10.801098273552169"><ele>305.59999999999997</ele><time>2026-03-28T14:06:56Z</time></trkpt><trkpt lat="45.595298263863555" lon="10.801250890286079"><ele>304.8</ele><time>2026-03-28T14:06:57Z</time></trkpt><trkpt lat="45.59532651434904" lon="10.801384689426428"><ele>304.0</ele><time>2026-03-28T14:06:58Z</time></trkpt><trkpt lat="45.59535606730933" lon="10.801483817988123"><ele>304.0</ele><time>2026-03-28T14:06:59Z</time></trkpt><trkpt lat="45.59535583743284" lon="10.80158695060222"><ele>304.0</ele><time>2026-03-28T14:07:00Z</time></trkpt><trkpt lat="45.595329060758104" lon="10.801695665980551"><ele>304.0</ele><time>2026-03-28T14:07:01Z</time></trkpt><trkpt lat="45.59526611664023" lon="10.801813816636054"><ele>304.0</ele><time>2026-03-28T14:07:02Z</time></trkpt><trkpt lat="45.59526532358131" lon="10.801927147183955"><ele>304.0</ele><time>2026-03-28T14:07:03Z</time></trkpt><trkpt lat="45.5952665673105" lon="10.802027696864872"><ele>304.0</ele><time>2026-03-28T14:07:04Z</time></trkpt><trkpt lat="45.59531745176791" lon="10.802185608331337"><ele>304.59999999999997</ele><time>2026-03-28T14:07:06Z</time></trkpt><trkpt lat="45.59541234941705" lon="10.80226231671054"><ele>305.2</ele><time>2026-03-28T14:07:08Z</time></trkpt><trkpt lat="45.59550749660926" lon="10.80216411272782"><ele>305.79999999999995</ele><time>2026-03-28T14:07:10Z</time></trkpt><trkpt lat="45.595573979149925" lon="10.802157770478638"><ele>306.4</ele><time>2026-03-28T14:07:11Z</time></trkpt><trkpt lat="45.5956568898291" lon="10.802113275184126"><ele>307.0</ele><time>2026-03-28T14:07:12Z</time></trkpt><trkpt lat="45.595744192197685" lon="10.802090082785606"><ele>307.0</ele><time>2026-03-28T14:07:13Z</time></trkpt><trkpt lat="45.59583124959666" lon="10.802081568166827"><ele>307.0</ele><time>2026-03-28T14:07:14Z</time></trkpt><trkpt lat="45.5959047738172" lon="10.802087968754249"><ele>307.0</ele><time>2026-03-28T14:07:15Z</time></trkpt><trkpt lat="45.59596781037775" lon="10.802132781620559"><ele>307.0</ele><time>2026-03-28T14:07:16Z</time></trkpt><trkpt lat="45.596033034288986" lon="10.802180551633144"><ele>307.0</ele><time>2026-03-28T14:07:17Z</time></trkpt><trkpt lat="45.59609221938323" lon="10.802229362627354"><ele>307.0</ele><time>2026-03-28T14:07:18Z</time></trkpt><trkpt lat="45.59615213818277" lon="10.802323735102167"><ele>306.4</ele><time>2026-03-28T14:07:19Z</time></trkpt><trkpt lat="45.59620301987232" lon="10.802448965070925"><ele>305.79999999999995</ele><time>2026-03-28T14:07:20Z</time></trkpt><trkpt lat="45.59623584731686" lon="10.802574901795683"><ele>305.2</ele><time>2026-03-28T14:07:21Z</time></trkpt><trkpt lat="45.596287190009356" lon="10.802687140341416"><ele>304.59999999999997</ele><time>2026-03-28T14:07:22Z</time></trkpt><trkpt lat="45.59632361101324" lon="10.802808447278224"><ele>304.0</ele><time>2026-03-28T14:07:23Z</time></trkpt><trkpt lat="45.596352438504915" lon="10.802920815164525"><ele>303.66666666666663</ele><time>2026-03-28T14:07:24Z</time></trkpt><trkpt lat="45.59638237593055" lon="10.803051056276734"><ele>303.3333333333333</ele><time>2026-03-28T14:07:25Z</time></trkpt><trkpt lat="45.59639361634639" lon="10.803189651274959"><ele>303.0</ele><time>2026-03-28T14:07:26Z</time></trkpt><trkpt lat="45.596417437774285" lon="10.803308997614884"><ele>302.6666666666667</ele><time>2026-03-28T14:07:27Z</time></trkpt><trkpt lat="45.59644132377125" lon="10.803434359155224"><ele>302.33333333333337</ele><time>2026-03-28T14:07:28Z</time></trkpt><trkpt lat="45.596461650691154" lon="10.803541588011246"><ele>302.0</ele><time>2026-03-28T14:07:29Z</time></trkpt><trkpt lat="45.59648230222835" lon="10.80365052932568"><ele>301.8571428571429</ele><time>2026-03-28T14:07:30Z</time></trkpt><trkpt lat="45.59650282648685" lon="10.803762233758981"><ele>301.7142857142857</ele><time>2026-03-28T14:07:31Z</time></trkpt><trkpt lat="45.5965318302133" lon="10.803869058078615"><ele>301.57142857142856</ele><time>2026-03-28T14:07:32Z</time></trkpt><trkpt lat="45.59655003948488" lon="10.803957587367014"><ele>301.42857142857144</ele><time>2026-03-28T14:07:33Z</time></trkpt><trkpt lat="45.59657035503823" lon="10.804064085640432"><ele>301.2857142857143</ele><time>2026-03-28T14:07:34Z</time></trkpt><trkpt lat="45.596575505018706" lon="10.804169466239257"><ele>301.14285714285717</ele><time>2026-03-28T14:07:35Z</time></trkpt><trkpt lat="45.59659154942301" lon="10.804267111071779"><ele>301.0</ele><time>2026-03-28T14:07:36Z</time></trkpt><trkpt lat="45.59660517291936" lon="10.804356650366993"><ele>300.0</ele><time>2026-03-28T14:07:37Z</time></trkpt><trkpt lat="45.59662018990201" lon="10.804457076440707"><ele>299.0</ele><time>2026-03-28T14:07:38Z</time></trkpt><trkpt lat="45.596634211744586" lon="10.804550847548406"><ele>298.0</ele><time>2026-03-28T14:07:39Z</time></trkpt><trkpt lat="45.59665673397286" lon="10.804635628662023"><ele>297.0</ele><time>2026-03-28T14:07:40Z</time></trkpt><trkpt lat="45.59667866846778" lon="10.804768269051984"><ele>296.0</ele><time>2026-03-28T14:07:42Z</time></trkpt><trkpt lat="45.596704679907546" lon="10.804900787108545"><ele>295.0</ele><time>2026-03-28T14:07:44Z</time></trkpt><trkpt lat="45.59671824427047" lon="10.80499018009491"><ele>295.0</ele><time>2026-03-28T14:07:46Z</time></trkpt><trkpt lat="45.596869011114244" lon="10.804913847460831"><ele>295.0</ele><time>2026-03-28T14:07:48Z</time></trkpt><trkpt lat="45.59697026247588" lon="10.804907767339646"><ele>295.0</ele><time>2026-03-28T14:07:49Z</time></trkpt><trkpt lat="45.59707828092352" lon="10.804865405865907"><ele>295.0</ele><time>2026-03-28T14:07:50Z</time></trkpt><trkpt lat="45.59716644554807" lon="10.804802181167625"><ele>293.4</ele><time>2026-03-28T14:07:51Z</time></trkpt><trkpt lat="45.5972224089626" lon="10.8047470074902"><ele>291.8</ele><time>2026-03-28T14:07:52Z</time></trkpt><trkpt lat="45.59727914910391" lon="10.80464500875598"><ele>290.2</ele><time>2026-03-28T14:07:53Z</time></trkpt><trkpt lat="45.59733204820162" lon="10.804522540189012"><ele>288.6</ele><time>2026-03-28T14:07:54Z</time></trkpt><trkpt lat="45.59738687249065" lon="10.804377020934258"><ele>287.0</ele><time>2026-03-28T14:07:55Z</time></trkpt><trkpt lat="45.597446248417214" lon="10.804221143930445"><ele>287.0</ele><time>2026-03-28T14:07:56Z</time></trkpt><trkpt lat="45.59751185473315" lon="10.804059585712587"><ele>287.0</ele><time>2026-03-28T14:07:57Z</time></trkpt><trkpt lat="45.597574466364954" lon="10.80392971465287"><ele>287.0</ele><time>2026-03-28T14:07:58Z</time></trkpt><trkpt lat="45.59764225036381" lon="10.803806748413308"><ele>287.0</ele><time>2026-03-28T14:07:59Z</time></trkpt><trkpt lat="45.5977069208273" lon="10.803674575986753"><ele>287.0</ele><time>2026-03-28T14:08:00Z</time></trkpt><trkpt lat="45.597779187629804" lon="10.803581618419758"><ele>287.0</ele><time>2026-03-28T14:08:01Z</time></trkpt><trkpt lat="45.59786339243115" lon="10.803519620257479"><ele>287.0</ele><time>2026-03-28T14:08:02Z</time></trkpt><trkpt lat="45.597977495261794" lon="10.803503062394018"><ele>287.0</ele><time>2026-03-28T14:08:03Z</time></trkpt><trkpt lat="45.59810434472504" lon="10.803512809965152"><ele>287.0</ele><time>2026-03-28T14:08:04Z</time></trkpt><trkpt lat="45.598240557763944" lon="10.803515643357779"><ele>285.25</ele><time>2026-03-28T14:08:05Z</time></trkpt><trkpt lat="45.59836987425386" lon="10.803529146189417"><ele>283.5</ele><time>2026-03-28T14:08:06Z</time></trkpt><trkpt lat="45.59850146349785" lon="10.80356832519044"><ele>281.75</ele><time>2026-03-28T14:08:07Z</time></trkpt><trkpt lat="45.59861655080249" lon="10.80355315307608"><ele>280.0</ele><time>2026-03-28T14:08:08Z</time></trkpt><trkpt lat="45.59875362202198" lon="10.803544547691109"><ele>278.0</ele><time>2026-03-28T14:08:09Z</time></trkpt><trkpt lat="45.59888808443855" lon="10.803532435418735"><ele>276.0</ele><time>2026-03-28T14:08:10Z</time></trkpt><trkpt lat="45.59899653286333" lon="10.803525075489361"><ele>274.0</ele><time>2026-03-28T14:08:11Z</time></trkpt><trkpt lat="45.59907865444222" lon="10.803521531037626"><ele>272.0</ele><time>2026-03-28T14:08:12Z</time></trkpt><trkpt lat="45.59919947213082" lon="10.803438697196443"><ele>271.4</ele><time>2026-03-28T14:08:14Z</time></trkpt><trkpt lat="45.59925492689405" lon="10.803301940902598"><ele>270.79999999999995</ele><time>2026-03-28T14:08:15Z</time></trkpt><trkpt lat="45.59932344775625" lon="10.803231931527206"><ele>270.2</ele><time>2026-03-28T14:08:16Z</time></trkpt><trkpt lat="45.599425065033316" lon="10.803193359176687"><ele>269.59999999999997</ele><time>2026-03-28T14:08:17Z</time></trkpt><trkpt lat="45.599536784433454" lon="10.803157976157728"><ele>269.0</ele><time>2026-03-28T14:08:18Z</time></trkpt><trkpt lat="45.59965871068924" lon="10.80311771230121"><ele>268.0</ele><time>2026-03-28T14:08:19Z</time></trkpt><trkpt lat="45.59977601726134" lon="10.803078974035731"><ele>267.0</ele><time>2026-03-28T14:08:20Z</time></trkpt><trkpt lat="45.59987795558267" lon="10.80305513778949"><ele>266.0</ele><time>2026-03-28T14:08:21Z</time></trkpt><trkpt lat="45.59998119559886" lon="10.80305011004677"><ele>265.0</ele><time>2026-03-28T14:08:22Z</time></trkpt><trkpt lat="45.600059147637026" lon="10.803072169643222"><ele>264.0</ele><time>2026-03-28T14:08:23Z</time></trkpt><trkpt lat="45.60015284683753" lon="10.803114451981843"><ele>264.0</ele><time>2026-03-28T14:08:24Z</time></trkpt><trkpt lat="45.60028169495673" lon="10.803168178357572"><ele>264.0</ele><time>2026-03-28T14:08:25Z</time></trkpt><trkpt lat="45.60042947666883" lon="10.803166069665119"><ele>264.0</ele><time>2026-03-28T14:08:26Z</time></trkpt><trkpt lat="45.600553480965765" lon="10.80317325430346"><ele>264.0</ele><time>2026-03-28T14:08:27Z</time></trkpt><trkpt lat="45.60065248833637" lon="10.803171050041051"><ele>262.8</ele><time>2026-03-28T14:08:28Z</time></trkpt><trkpt lat="45.60072206399347" lon="10.803188898126097"><ele>261.59999999999997</ele><time>2026-03-28T14:08:29Z</time></trkpt><trkpt lat="45.60080960822713" lon="10.803176232805173"><ele>260.4</ele><time>2026-03-28T14:08:31Z</time></trkpt><trkpt lat="45.600833053430215" lon="10.802929177939163"><ele>259.2</ele><time>2026-03-28T14:08:34Z</time></trkpt><trkpt lat="45.60080778295773" lon="10.802779673716767"><ele>258.0</ele><time>2026-03-28T14:08:35Z</time></trkpt><trkpt lat="45.60075741918151" lon="10.80259302552782"><ele>257.0</ele><time>2026-03-28T14:08:36Z</time></trkpt><trkpt lat="45.6006926929206" lon="10.802376344863356"><ele>256.0</ele><time>2026-03-28T14:08:37Z</time></trkpt><trkpt lat="45.60062728982216" lon="10.802151524079363"><ele>255.0</ele><time>2026-03-28T14:08:38Z</time></trkpt><trkpt lat="45.6005595599921" lon="10.801899896612959"><ele>254.66666666666669</ele><time>2026-03-28T14:08:39Z</time></trkpt><trkpt lat="45.6004917442306" lon="10.80164082734082"><ele>254.33333333333334</ele><time>2026-03-28T14:08:40Z</time></trkpt><trkpt lat="45.60042830239585" lon="10.801389577074369"><ele>254.0</ele><time>2026-03-28T14:08:41Z</time></trkpt><trkpt lat="45.600372748212884" lon="10.801151345578239"><ele>256.0</ele><time>2026-03-28T14:08:42Z</time></trkpt><trkpt lat="45.600314097599664" lon="10.80091649253807"><ele>258.0</ele><time>2026-03-28T14:08:43Z</time></trkpt><trkpt lat="45.60024944674608" lon="10.800665706684452"><ele>260.0</ele><time>2026-03-28T14:08:44Z</time></trkpt><trkpt lat="45.60018467380637" lon="10.800407352472016"><ele>259.33333333333337</ele><time>2026-03-28T14:08:45Z</time></trkpt><trkpt lat="45.600117091364275" lon="10.800132582083688"><ele>258.6666666666667</ele><time>2026-03-28T14:08:46Z</time></trkpt><trkpt lat="45.60005564263014" lon="10.799851219960244"><ele>258.0</ele><time>2026-03-28T14:08:47Z</time></trkpt><trkpt lat="45.60000239091298" lon="10.799553604040417"><ele>257.0</ele><time>2026-03-28T14:08:48Z</time></trkpt><trkpt lat="45.59995680478982" lon="10.799244247822251"><ele>256.0</ele><time>2026-03-28T14:08:49Z</time></trkpt><trkpt lat="45.59991553023899" lon="10.798930243615686"><ele>255.0</ele><time>2026-03-28T14:08:50Z</time></trkpt><trkpt lat="45.59988041125799" lon="10.798619438502218"><ele>254.0</ele><time>2026-03-28T14:08:51Z</time></trkpt><trkpt lat="45.59984684230607" lon="10.798303015437622"><ele>253.0</ele><time>2026-03-28T14:08:52Z</time></trkpt><trkpt lat="45.59981741148664" lon="10.797998996709886"><ele>252.0</ele><time>2026-03-28T14:08:53Z</time></trkpt><trkpt lat="45.59978878950178" lon="10.79772634480275"><ele>252.0</ele><time>2026-03-28T14:08:54Z</time></trkpt><trkpt lat="45.599758275035725" lon="10.797460721323803"><ele>252.0</ele><time>2026-03-28T14:08:55Z</time></trkpt><trkpt lat="45.59973951886537" lon="10.79721488029072"><ele>252.0</ele><time>2026-03-28T14:08:56Z</time></trkpt><trkpt lat="45.59974454246317" lon="10.79693923881557"><ele>251.66666666666669</ele><time>2026-03-28T14:08:57Z</time></trkpt><trkpt lat="45.59975919350415" lon="10.796657371181913"><ele>251.33333333333334</ele><time>2026-03-28T14:08:58Z</time></trkpt><trkpt lat="45.59977071874025" lon="10.796365037471261"><ele>251.0</ele><time>2026-03-28T14:08:59Z</time></trkpt><trkpt lat="45.599780791366314" lon="10.796108004111842"><ele>250.66666666666669</ele><time>2026-03-28T14:09:00Z</time></trkpt><trkpt lat="45.59979135088279" lon="10.795830451700022"><ele>250.33333333333331</ele><time>2026-03-28T14:09:01Z</time></trkpt><trkpt lat="45.599804125002336" lon="10.795545748774718"><ele>250.0</ele><time>2026-03-28T14:09:02Z</time></trkpt><trkpt lat="45.59981664974174" lon="10.795284409809073"><ele>249.8</ele><time>2026-03-28T14:09:03Z</time></trkpt><trkpt lat="45.59982678030851" lon="10.795071212879725"><ele>249.6</ele><time>2026-03-28T14:09:04Z</time></trkpt><trkpt lat="45.59983460528932" lon="10.794892799689139"><ele>249.39999999999998</ele><time>2026-03-28T14:09:05Z</time></trkpt><trkpt lat="45.59984034209712" lon="10.79475101518745"><ele>249.2</ele><time>2026-03-28T14:09:06Z</time></trkpt><trkpt lat="45.599848976787506" lon="10.794644049244953"><ele>249.0</ele><time>2026-03-28T14:09:08Z</time></trkpt><trkpt lat="45.60000962575546" lon="10.79466387302538"><ele>249.0</ele><time>2026-03-28T14:09:11Z</time></trkpt><trkpt lat="45.60012685809287" lon="10.794645378656925"><ele>249.0</ele><time>2026-03-28T14:09:12Z</time></trkpt><trkpt lat="45.60027010654072" lon="10.794614629838312"><ele>249.0</ele><time>2026-03-28T14:09:13Z</time></trkpt><trkpt lat="45.60041299390327" lon="10.794577456352236"><ele>249.0</ele><time>2026-03-28T14:09:14Z</time></trkpt><trkpt lat="45.60053778113763" lon="10.794548473114142"><ele>249.0</ele><time>2026-03-28T14:09:15Z</time></trkpt><trkpt lat="45.60062678059282" lon="10.794525923080776"><ele>248.99999999999997</ele><time>2026-03-28T14:09:16Z</time></trkpt><trkpt lat="45.60069360045566" lon="10.794503702938375"><ele>248.99999999999997</ele><time>2026-03-28T14:09:17Z</time></trkpt><trkpt lat="45.60076489198238" lon="10.794455612186962"><ele>249.0</ele><time>2026-03-28T14:09:19Z</time></trkpt><trkpt lat="45.6009038492933" lon="10.794623414263961"><ele>249.0</ele><time>2026-03-28T14:09:21Z</time></trkpt><trkpt lat="45.60099888653006" lon="10.794760970724912"><ele>249.0</ele><time>2026-03-28T14:09:22Z</time></trkpt><trkpt lat="45.601111338502875" lon="10.794903343117019"><ele>249.0</ele><time>2026-03-28T14:09:23Z</time></trkpt><trkpt lat="45.601238011526796" lon="10.795019988308383"><ele>249.0</ele><time>2026-03-28T14:09:24Z</time></trkpt><trkpt lat="45.60136601276495" lon="10.795114754138186"><ele>249.0</ele><time>2026-03-28T14:09:25Z</time></trkpt><trkpt lat="45.60149286837562" lon="10.795179459953555"><ele>249.33333333333331</ele><time>2026-03-28T14:09:26Z</time></trkpt><trkpt lat="45.60162998185001" lon="10.795200058024426"><ele>249.66666666666666</ele><time>2026-03-28T14:09:27Z</time></trkpt><trkpt lat="45.60179247219672" lon="10.795194960812768"><ele>250.0</ele><time>2026-03-28T14:09:28Z</time></trkpt><trkpt lat="45.60196777264125" lon="10.795175344646987"><ele>250.25</ele><time>2026-03-28T14:09:29Z</time></trkpt><trkpt lat="45.60214367542747" lon="10.795173973009321"><ele>250.5</ele><time>2026-03-28T14:09:30Z</time></trkpt><trkpt lat="45.602292626681816" lon="10.795178883507802"><ele>250.75</ele><time>2026-03-28T14:09:31Z</time></trkpt><trkpt lat="45.60241576846711" lon="10.795190116854219"><ele>251.0</ele><time>2026-03-28T14:09:32Z</time></trkpt><trkpt lat="45.602499019765894" lon="10.79522206415218"><ele>251.0</ele><time>2026-03-28T14:09:33Z</time></trkpt><trkpt lat="45.60257068935105" lon="10.795278017084842"><ele>251.00000000000003</ele><time>2026-03-28T14:09:34Z</time></trkpt><trkpt lat="45.602636298721976" lon="10.79537005073422"><ele>251.00000000000003</ele><time>2026-03-28T14:09:35Z</time></trkpt><trkpt lat="45.60269389835444" lon="10.795491238339274"><ele>251.0</ele><time>2026-03-28T14:09:36Z</time></trkpt><trkpt lat="45.602703738149735" lon="10.795630427558526"><ele>251.0</ele><time>2026-03-28T14:09:37Z</time></trkpt><trkpt lat="45.60273301569557" lon="10.79575735524717"><ele>251.0</ele><time>2026-03-28T14:09:38Z</time></trkpt><trkpt lat="45.602744740576036" lon="10.795931072423835"><ele>251.0</ele><time>2026-03-28T14:09:39Z</time></trkpt><trkpt lat="45.6027439000467" lon="10.796147621812615"><ele>251.0</ele><time>2026-03-28T14:09:40Z</time></trkpt><trkpt lat="45.60273484349233" lon="10.796370354953375"><ele>251.0</ele><time>2026-03-28T14:09:41Z</time></trkpt><trkpt lat="45.60273489184327" lon="10.796590669182503"><ele>251.0</ele><time>2026-03-28T14:09:42Z</time></trkpt><trkpt lat="45.60274937676884" lon="10.796789079481357"><ele>251.0</ele><time>2026-03-28T14:09:43Z</time></trkpt><trkpt lat="45.60276560382732" lon="10.796970926457918"><ele>251.0</ele><time>2026-03-28T14:09:44Z</time></trkpt><trkpt lat="45.602783266434216" lon="10.797104971967132"><ele>251.0</ele><time>2026-03-28T14:09:45Z</time></trkpt><trkpt lat="45.602831629304056" lon="10.79720816776316"><ele>250.8</ele><time>2026-03-28T14:09:46Z</time></trkpt><trkpt lat="45.60291407380015" lon="10.7972886648299"><ele>250.60000000000002</ele><time>2026-03-28T14:09:47Z</time></trkpt><trkpt lat="45.60302594911036" lon="10.79734068495992"><ele>250.4</ele><time>2026-03-28T14:09:48Z</time></trkpt><trkpt lat="45.6031309131582" lon="10.7973846356782"><ele>250.2</ele><time>2026-03-28T14:09:49Z</time></trkpt><trkpt lat="45.60319260128874" lon="10.797443719352403"><ele>250.0</ele><time>2026-03-28T14:09:50Z</time></trkpt><trkpt lat="45.60321132530222" lon="10.797535525598812"><ele>250.0</ele><time>2026-03-28T14:09:51Z</time></trkpt><trkpt lat="45.60319156244382" lon="10.797658383744707"><ele>250.0</ele><time>2026-03-28T14:09:52Z</time></trkpt><trkpt lat="45.603203509262826" lon="10.797825725466383"><ele>250.0</ele><time>2026-03-28T14:09:53Z</time></trkpt><trkpt lat="45.60318973044348" lon="10.797985977202293"><ele>250.0</ele><time>2026-03-28T14:09:54Z</time></trkpt><trkpt lat="45.60321950529615" lon="10.798103523101966"><ele>250.0</ele><time>2026-03-28T14:09:55Z</time></trkpt><trkpt lat="45.60328139507776" lon="10.798186993392191"><ele>250.25</ele><time>2026-03-28T14:09:56Z</time></trkpt><trkpt lat="45.60337876157514" lon="10.798236413028993"><ele>250.5</ele><time>2026-03-28T14:09:57Z</time></trkpt><trkpt lat="45.60351371746101" lon="10.798291887734475"><ele>250.75</ele><time>2026-03-28T14:09:58Z</time></trkpt><trkpt lat="45.60367111816654" lon="10.79835116323813"><ele>251.0</ele><time>2026-03-28T14:09:59Z</time></trkpt><trkpt lat="45.603829854008374" lon="10.798422239038949"><ele>251.25</ele><time>2026-03-28T14:10:00Z</time></trkpt><trkpt lat="45.60397670777397" lon="10.798498798515261"><ele>251.5</ele><time>2026-03-28T14:10:01Z</time></trkpt><trkpt lat="45.60411805065987" lon="10.798580715863585"><ele>251.75</ele><time>2026-03-28T14:10:02Z</time></trkpt><trkpt lat="45.60424238778216" lon="10.798657272602428"><ele>252.0</ele><time>2026-03-28T14:10:03Z</time></trkpt><trkpt lat="45.60435804696044" lon="10.798726219597675"><ele>252.0</ele><time>2026-03-28T14:10:04Z</time></trkpt><trkpt lat="45.604463574645344" lon="10.798787670603962"><ele>252.0</ele><time>2026-03-28T14:10:05Z</time></trkpt><trkpt lat="45.6045673050143" lon="10.79884769759063"><ele>252.0</ele><time>2026-03-28T14:10:06Z</time></trkpt><trkpt lat="45.60466142325651" lon="10.798899368965996"><ele>252.0</ele><time>2026-03-28T14:10:07Z</time></trkpt><trkpt lat="45.604770603973456" lon="10.79895792165568"><ele>252.0</ele><time>2026-03-28T14:10:08Z</time></trkpt><trkpt lat="45.60488235326535" lon="10.799019985000665"><ele>252.0</ele><time>2026-03-28T14:10:09Z</time></trkpt><trkpt lat="45.605015492828194" lon="10.799090780315636"><ele>252.0</ele><time>2026-03-28T14:10:10Z</time></trkpt><trkpt lat="45.605160116872675" lon="10.79918298655489"><ele>252.0</ele><time>2026-03-28T14:10:11Z</time></trkpt><trkpt lat="45.605287759022254" lon="10.799265219920414"><ele>252.0</ele><time>2026-03-28T14:10:12Z</time></trkpt><trkpt lat="45.60538771829143" lon="10.79935443049063"><ele>254.25</ele><time>2026-03-28T14:10:13Z</time></trkpt><trkpt lat="45.60547210333772" lon="10.799361301014159"><ele>256.5</ele><time>2026-03-28T14:10:14Z</time></trkpt><trkpt lat="45.60552040940372" lon="10.799613654125869"><ele>258.75</ele><time>2026-03-28T14:10:16Z</time></trkpt><trkpt lat="45.6055323509988" lon="10.799775741611102"><ele>261.0</ele><time>2026-03-28T14:10:17Z</time></trkpt><trkpt lat="45.60552497430916" lon="10.799979693876423"><ele>261.6666666666667</ele><time>2026-03-28T14:10:18Z</time></trkpt><trkpt lat="45.60550210066033" lon="10.800212757128735"><ele>262.33333333333337</ele><time>2026-03-28T14:10:19Z</time></trkpt><trkpt lat="45.60546458497711" lon="10.800449332567403"><ele>263.0</ele><time>2026-03-28T14:10:20Z</time></trkpt><trkpt lat="45.605429340862386" lon="10.800703658247157"><ele>263.0</ele><time>2026-03-28T14:10:21Z</time></trkpt><trkpt lat="45.60540218638301" lon="10.80096589971848"><ele>263.0</ele><time>2026-03-28T14:10:22Z</time></trkpt><trkpt lat="45.6053573387151" lon="10.801235125320181"><ele>263.0</ele><time>2026-03-28T14:10:23Z</time></trkpt><trkpt lat="45.605349953090524" lon="10.80151791978091"><ele>261.0</ele><time>2026-03-28T14:10:24Z</time></trkpt><trkpt lat="45.605328721832514" lon="10.801759976755232"><ele>259.0</ele><time>2026-03-28T14:10:25Z</time></trkpt><trkpt lat="45.605308603301225" lon="10.801978957490814"><ele>257.0</ele><time>2026-03-28T14:10:26Z</time></trkpt><trkpt lat="45.60528565054204" lon="10.802172760609752"><ele>257.0</ele><time>2026-03-28T14:10:27Z</time></trkpt><trkpt lat="45.6052470023848" lon="10.802353783683808"><ele>257.0</ele><time>2026-03-28T14:10:28Z</time></trkpt><trkpt lat="45.60523541000907" lon="10.802519778705452"><ele>257.0</ele><time>2026-03-28T14:10:29Z</time></trkpt><trkpt lat="45.60522340131674" lon="10.802668847510025"><ele>257.0</ele><time>2026-03-28T14:10:30Z</time></trkpt><trkpt lat="45.605214298742126" lon="10.80279176228172"><ele>257.0</ele><time>2026-03-28T14:10:31Z</time></trkpt><trkpt lat="45.60520885009216" lon="10.802892735896988"><ele>257.0</ele><time>2026-03-28T14:10:32Z</time></trkpt><trkpt lat="45.605207869323856" lon="10.802994883973122"><ele>257.0</ele><time>2026-03-28T14:10:33Z</time></trkpt><trkpt lat="45.60520524876353" lon="10.803123777403734"><ele>257.0</ele><time>2026-03-28T14:10:34Z</time></trkpt><trkpt lat="45.605229549575" lon="10.803261178384906"><ele>257.0</ele><time>2026-03-28T14:10:35Z</time></trkpt><trkpt lat="45.605204145221265" lon="10.80340946496954"><ele>257.0</ele><time>2026-03-28T14:10:36Z</time></trkpt><trkpt lat="45.60519029597372" lon="10.803589004739122"><ele>258.0</ele><time>2026-03-28T14:10:37Z</time></trkpt><trkpt lat="45.6051728874484" lon="10.803790647602042"><ele>259.0</ele><time>2026-03-28T14:10:38Z</time></trkpt><trkpt lat="45.60516640752187" lon="10.804018217593518"><ele>260.0</ele><time>2026-03-28T14:10:39Z</time></trkpt><trkpt lat="45.605136096719214" lon="10.804272148902342"><ele>260.6666666666667</ele><time>2026-03-28T14:10:40Z</time></trkpt><trkpt lat="45.60511134029395" lon="10.804519994207528"><ele>261.3333333333333</ele><time>2026-03-28T14:10:41Z</time></trkpt><trkpt lat="45.605110695867474" lon="10.804752069160147"><ele>262.0</ele><time>2026-03-28T14:10:42Z</time></trkpt><trkpt lat="45.60510556287691" lon="10.804930942617325"><ele>262.0</ele><time>2026-03-28T14:10:43Z</time></trkpt><trkpt lat="45.605111221605426" lon="10.805022904930302"><ele>262.0</ele><time>2026-03-28T14:10:44Z</time></trkpt><trkpt lat="45.605129859288084" lon="10.805117056010792"><ele>262.0</ele><time>2026-03-28T14:10:46Z</time></trkpt><trkpt lat="45.60516493159394" lon="10.805303618863578"><ele>262.0</ele><time>2026-03-28T14:10:48Z</time></trkpt><trkpt lat="45.60522885657312" lon="10.805381539925206"><ele>262.0</ele><time>2026-03-28T14:10:49Z</time></trkpt><trkpt lat="45.60530977028144" lon="10.805453022831149"><ele>262.0</ele><time>2026-03-28T14:10:50Z</time></trkpt><trkpt lat="45.60538076365523" lon="10.80555645695962"><ele>262.6</ele><time>2026-03-28T14:10:51Z</time></trkpt><trkpt lat="45.605456721405574" lon="10.805653179015136"><ele>263.2</ele><time>2026-03-28T14:10:52Z</time></trkpt><trkpt lat="45.605507651935994" lon="10.80575679986475"><ele>263.8</ele><time>2026-03-28T14:10:53Z</time></trkpt><trkpt lat="45.605548103346756" lon="10.805875771183345"><ele>264.4</ele><time>2026-03-28T14:10:54Z</time></trkpt><trkpt lat="45.6055820396066" lon="10.805997955331252"><ele>265.0</ele><time>2026-03-28T14:10:55Z</time></trkpt><trkpt lat="45.605613302800464" lon="10.8061124628855"><ele>265.0</ele><time>2026-03-28T14:10:56Z</time></trkpt><trkpt lat="45.60564523765865" lon="10.806222921477614"><ele>265.0</ele><time>2026-03-28T14:10:57Z</time></trkpt><trkpt lat="45.60568049581173" lon="10.80633975355041"><ele>265.0</ele><time>2026-03-28T14:10:58Z</time></trkpt><trkpt lat="45.60573049187412" lon="10.80645660038619"><ele>265.0</ele><time>2026-03-28T14:10:59Z</time></trkpt><trkpt lat="45.605758323238774" lon="10.806583389186443"><ele>265.0</ele><time>2026-03-28T14:11:00Z</time></trkpt><trkpt lat="45.605794553441775" lon="10.806711582004862"><ele>264.8</ele><time>2026-03-28T14:11:01Z</time></trkpt><trkpt lat="45.605827656403626" lon="10.80684663951484"><ele>264.6</ele><time>2026-03-28T14:11:02Z</time></trkpt><trkpt lat="45.605864081354056" lon="10.806991008822738"><ele>264.4</ele><time>2026-03-28T14:11:03Z</time></trkpt><trkpt lat="45.60588534998327" lon="10.807139436004704"><ele>264.2</ele><time>2026-03-28T14:11:04Z</time></trkpt><trkpt lat="45.605916154632105" lon="10.807276455181558"><ele>264.0</ele><time>2026-03-28T14:11:05Z</time></trkpt><trkpt lat="45.60595172515831" lon="10.807420294778428"><ele>264.0</ele><time>2026-03-28T14:11:06Z</time></trkpt><trkpt lat="45.6060094063864" lon="10.807579416198404"><ele>264.0</ele><time>2026-03-28T14:11:07Z</time></trkpt><trkpt lat="45.60605669854454" lon="10.80776194619726"><ele>264.0</ele><time>2026-03-28T14:11:08Z</time></trkpt><trkpt lat="45.606110954141265" lon="10.807947492966878"><ele>264.0</ele><time>2026-03-28T14:11:09Z</time></trkpt><trkpt lat="45.606155184930245" lon="10.808122094581575"><ele>264.59999999999997</ele><time>2026-03-28T14:11:10Z</time></trkpt><trkpt lat="45.60618495438469" lon="10.808273093652964"><ele>265.2</ele><time>2026-03-28T14:11:11Z</time></trkpt><trkpt lat="45.606210706728604" lon="10.808421415649706"><ele>265.79999999999995</ele><time>2026-03-28T14:11:12Z</time></trkpt><trkpt lat="45.606236593881356" lon="10.808536718708295"><ele>266.4</ele><time>2026-03-28T14:11:13Z</time></trkpt><trkpt lat="45.60628812094281" lon="10.808657046967815"><ele>267.0</ele><time>2026-03-28T14:11:14Z</time></trkpt><trkpt lat="45.606376318007435" lon="10.808787698557568"><ele>267.0</ele><time>2026-03-28T14:11:15Z</time></trkpt><trkpt lat="45.6064777090926" lon="10.808917066221962"><ele>267.0</ele><time>2026-03-28T14:11:16Z</time></trkpt><trkpt lat="45.60657549761555" lon="10.809065942278844"><ele>267.0</ele><time>2026-03-28T14:11:17Z</time></trkpt><trkpt lat="45.60667227531228" lon="10.809188274564825"><ele>267.0</ele><time>2026-03-28T14:11:18Z</time></trkpt><trkpt lat="45.60676693151993" lon="10.80927672950664"><ele>267.0</ele><time>2026-03-28T14:11:19Z</time></trkpt><trkpt lat="45.606831031471295" lon="10.809389996560345"><ele>267.0</ele><time>2026-03-28T14:11:20Z</time></trkpt><trkpt lat="45.606900247355746" lon="10.809496059063212"><ele>267.0</ele><time>2026-03-28T14:11:21Z</time></trkpt><trkpt lat="45.60695997806498" lon="10.809593121500873"><ele>267.0</ele><time>2026-03-28T14:11:22Z</time></trkpt><trkpt lat="45.60702251122965" lon="10.809652740267914"><ele>267.0</ele><time>2026-03-28T14:11:23Z</time></trkpt><trkpt lat="45.60706698673943" lon="10.80972189583852"><ele>267.0</ele><time>2026-03-28T14:11:25Z</time></trkpt><trkpt lat="45.60688918420848" lon="10.80991677874214"><ele>267.0</ele><time>2026-03-28T14:11:32Z</time></trkpt><trkpt lat="45.60680794877622" lon="10.809968219101512"><ele>267.0</ele><time>2026-03-28T14:11:33Z</time></trkpt><trkpt lat="45.606721873520485" lon="10.809996833707741"><ele>267.0</ele><time>2026-03-28T14:11:34Z</time></trkpt><trkpt lat="45.60662890968958" lon="10.810054984946138"><ele>267.0</ele><time>2026-03-28T14:11:35Z</time></trkpt><trkpt lat="45.60656487826847" lon="10.810103408009468"><ele>267.0</ele><time>2026-03-28T14:11:36Z</time></trkpt><trkpt lat="45.606485565369056" lon="10.810225295036846"><ele>267.2</ele><time>2026-03-28T14:11:38Z</time></trkpt><trkpt lat="45.606430779306514" lon="10.81038649987652"><ele>267.4</ele><time>2026-03-28T14:11:40Z</time></trkpt><trkpt lat="45.60637597692341" lon="10.810507304037422"><ele>267.6</ele><time>2026-03-28T14:11:41Z</time></trkpt><trkpt lat="45.60633424663367" lon="10.810611528522516"><ele>267.8</ele><time>2026-03-28T14:11:42Z</time></trkpt><trkpt lat="45.606272877498576" lon="10.810719208274998"><ele>268.0</ele><time>2026-03-28T14:11:43Z</time></trkpt><trkpt lat="45.6062066075935" lon="10.810845125941663"><ele>267.75</ele><time>2026-03-28T14:11:44Z</time></trkpt><trkpt lat="45.60612993778006" lon="10.810977627965972"><ele>267.5</ele><time>2026-03-28T14:11:45Z</time></trkpt><trkpt lat="45.606052112936716" lon="10.811110293178452"><ele>267.25</ele><time>2026-03-28T14:11:46Z</time></trkpt><trkpt lat="45.60598638566972" lon="10.81124048934227"><ele>267.0</ele><time>2026-03-28T14:11:47Z</time></trkpt><trkpt lat="45.60589064212498" lon="10.811368690499283"><ele>267.4</ele><time>2026-03-28T14:11:48Z</time></trkpt><trkpt lat="45.60581912327153" lon="10.811492763491936"><ele>267.79999999999995</ele><time>2026-03-28T14:11:49Z</time></trkpt><trkpt lat="45.605748623675225" lon="10.811592420022455"><ele>268.2</ele><time>2026-03-28T14:11:50Z</time></trkpt><trkpt lat="45.60569438819941" lon="10.811692351791335"><ele>268.59999999999997</ele><time>2026-03-28T14:11:51Z</time></trkpt><trkpt lat="45.60565221582951" lon="10.811792117152317"><ele>269.0</ele><time>2026-03-28T14:11:52Z</time></trkpt><trkpt lat="45.60562343806179" lon="10.811887257392675"><ele>269.2</ele><time>2026-03-28T14:11:53Z</time></trkpt><trkpt lat="45.60560510045514" lon="10.812022502055635"><ele>269.4</ele><time>2026-03-28T14:11:54Z</time></trkpt><trkpt lat="45.60558897192392" lon="10.812166967558406"><ele>269.6</ele><time>2026-03-28T14:11:55Z</time></trkpt><trkpt lat="45.605562045631196" lon="10.812289159863955"><ele>269.8</ele><time>2026-03-28T14:11:56Z</time></trkpt><trkpt lat="45.605527051826925" lon="10.812418870805192"><ele>270.0</ele><time>2026-03-28T14:11:58Z</time></trkpt><trkpt lat="45.60546060694036" lon="10.812554401530273"><ele>270.0</ele><time>2026-03-28T14:12:01Z</time></trkpt><trkpt lat="45.60537044694851" lon="10.8126453956675"><ele>270.0</ele><time>2026-03-28T14:12:03Z</time></trkpt><trkpt lat="45.60529805764367" lon="10.812799250744973"><ele>270.0</ele><time>2026-03-28T14:12:05Z</time></trkpt><trkpt lat="45.60524957337983" lon="10.812931484747123"><ele>270.0</ele><time>2026-03-28T14:12:06Z</time></trkpt><trkpt lat="45.60520213543272" lon="10.81307215396274"><ele>269.5</ele><time>2026-03-28T14:12:07Z</time></trkpt><trkpt lat="45.60515111048689" lon="10.813222302146693"><ele>269.0</ele><time>2026-03-28T14:12:08Z</time></trkpt><trkpt lat="45.60510239972168" lon="10.813370855529493"><ele>268.5</ele><time>2026-03-28T14:12:09Z</time></trkpt><trkpt lat="45.6050579928071" lon="10.81351861295271"><ele>268.0</ele><time>2026-03-28T14:12:10Z</time></trkpt><trkpt lat="45.60501714335745" lon="10.813666854504397"><ele>268.0</ele><time>2026-03-28T14:12:11Z</time></trkpt><trkpt lat="45.60498509096863" lon="10.813804490917697"><ele>268.0</ele><time>2026-03-28T14:12:12Z</time></trkpt><trkpt lat="45.604953587768826" lon="10.813929302007033"><ele>268.0</ele><time>2026-03-28T14:12:13Z</time></trkpt><trkpt lat="45.60491721300762" lon="10.814071427927024"><ele>268.0</ele><time>2026-03-28T14:12:14Z</time></trkpt><trkpt lat="45.60488085875537" lon="10.814218897525782"><ele>268.0</ele><time>2026-03-28T14:12:15Z</time></trkpt><trkpt lat="45.604841489120155" lon="10.814372622152282"><ele>268.2</ele><time>2026-03-28T14:12:16Z</time></trkpt><trkpt lat="45.60480559497568" lon="10.81452684111316"><ele>268.4</ele><time>2026-03-28T14:12:17Z</time></trkpt><trkpt lat="45.60477100232949" lon="10.814673548230756"><ele>268.59999999999997</ele><time>2026-03-28T14:12:18Z</time></trkpt><trkpt lat="45.604748547914504" lon="10.814821475389138"><ele>268.8</ele><time>2026-03-28T14:12:19Z</time></trkpt><trkpt lat="45.60471779733528" lon="10.814968234609157"><ele>269.0</ele><time>2026-03-28T14:12:20Z</time></trkpt><trkpt lat="45.60468427742168" lon="10.8151302218376"><ele>269.2</ele><time>2026-03-28T14:12:21Z</time></trkpt><trkpt lat="45.604660363583015" lon="10.81527716831024"><ele>269.4</ele><time>2026-03-28T14:12:22Z</time></trkpt><trkpt lat="45.604640475768456" lon="10.815429294290215"><ele>269.6</ele><time>2026-03-28T14:12:23Z</time></trkpt><trkpt lat="45.60462641579427" lon="10.815563648842893"><ele>269.8</ele><time>2026-03-28T14:12:24Z</time></trkpt><trkpt lat="45.60462380170605" lon="10.815668771267253"><ele>270.0</ele><time>2026-03-28T14:12:25Z</time></trkpt><trkpt lat="45.60462046840962" lon="10.815768107672449"><ele>270.0</ele><time>2026-03-28T14:12:26Z</time></trkpt><trkpt lat="45.60469035142291" lon="10.815931343672968"><ele>270.0</ele><time>2026-03-28T14:12:28Z</time></trkpt><trkpt lat="45.604656393147415" lon="10.816020032556409"><ele>270.0</ele><time>2026-03-28T14:12:31Z</time></trkpt><trkpt lat="45.60465511823305" lon="10.816112860425541"><ele>270.0</ele><time>2026-03-28T14:12:33Z</time></trkpt><trkpt lat="45.6046375260752" lon="10.816270198477044"><ele>270.0</ele><time>2026-03-28T14:12:35Z</time></trkpt><trkpt lat="45.60462784288412" lon="10.816418065583594"><ele>269.75</ele><time>2026-03-28T14:12:36Z</time></trkpt><trkpt lat="45.60462781067886" lon="10.816582678258593"><ele>269.5</ele><time>2026-03-28T14:12:37Z</time></trkpt><trkpt lat="45.604649953932615" lon="10.81676031866516"><ele>269.25</ele><time>2026-03-28T14:12:38Z</time></trkpt><trkpt lat="45.604666472700146" lon="10.816930327497918"><ele>269.0</ele><time>2026-03-28T14:12:39Z</time></trkpt><trkpt lat="45.60469245475688" lon="10.817081111833367"><ele>269.6666666666667</ele><time>2026-03-28T14:12:40Z</time></trkpt><trkpt lat="45.604721020725265" lon="10.817210389351544"><ele>270.33333333333337</ele><time>2026-03-28T14:12:41Z</time></trkpt><trkpt lat="45.60475003894675" lon="10.817328915898173"><ele>271.0</ele><time>2026-03-28T14:12:42Z</time></trkpt><trkpt lat="45.604780907515014" lon="10.817441098532258"><ele>271.6666666666667</ele><time>2026-03-28T14:12:43Z</time></trkpt><trkpt lat="45.60479604454594" lon="10.817561389783805"><ele>272.3333333333333</ele><time>2026-03-28T14:12:44Z</time></trkpt><trkpt lat="45.60479396434662" lon="10.817696922126153"><ele>273.0</ele><time>2026-03-28T14:12:45Z</time></trkpt><trkpt lat="45.60474769466177" lon="10.81780445022157"><ele>273.1666666666667</ele><time>2026-03-28T14:12:46Z</time></trkpt><trkpt lat="45.60470867595587" lon="10.81791665212899"><ele>273.3333333333333</ele><time>2026-03-28T14:12:47Z</time></trkpt><trkpt lat="45.604668811230965" lon="10.818015407760953"><ele>273.5</ele><time>2026-03-28T14:12:48Z</time></trkpt><trkpt lat="45.604641337870646" lon="10.818109302385254"><ele>273.66666666666663</ele><time>2026-03-28T14:12:49Z</time></trkpt><trkpt lat="45.60460183980305" lon="10.818198558303106"><ele>273.8333333333333</ele><time>2026-03-28T14:12:50Z</time></trkpt><trkpt lat="45.604550337880205" lon="10.818358364450242"><ele>274.0</ele><time>2026-03-28T14:12:52Z</time></trkpt><trkpt lat="45.60449703118414" lon="10.818452422097543"><ele>273.5</ele><time>2026-03-28T14:12:53Z</time></trkpt><trkpt lat="45.60445963810217" lon="10.818560472809978"><ele>273.0</ele><time>2026-03-28T14:12:54Z</time></trkpt><trkpt lat="45.6044313506983" lon="10.818682968406502"><ele>272.5</ele><time>2026-03-28T14:12:55Z</time></trkpt><trkpt lat="45.604409300513794" lon="10.818783560614444"><ele>272.0</ele><time>2026-03-28T14:12:56Z</time></trkpt><trkpt lat="45.604399792548016" lon="10.818877336656383"><ele>271.5</ele><time>2026-03-28T14:12:57Z</time></trkpt><trkpt lat="45.6043944650599" lon="10.818979110961351"><ele>271.0</ele><time>2026-03-28T14:12:58Z</time></trkpt><trkpt lat="45.60438813101687" lon="10.819091393378438"><ele>271.0</ele><time>2026-03-28T14:12:59Z</time></trkpt><trkpt lat="45.60437924004518" lon="10.81923606672671"><ele>271.0</ele><time>2026-03-28T14:13:01Z</time></trkpt><trkpt lat="45.60404257467957" lon="10.819225717138693"><ele>271.0</ele><time>2026-03-28T14:13:03Z</time></trkpt><trkpt lat="45.60396554472018" lon="10.819172181064975"><ele>271.0</ele><time>2026-03-28T14:13:04Z</time></trkpt><trkpt lat="45.603900659617175" lon="10.819110688340213"><ele>271.0</ele><time>2026-03-28T14:13:05Z</time></trkpt><trkpt lat="45.603811271938035" lon="10.819107106857365"><ele>271.0</ele><time>2026-03-28T14:13:07Z</time></trkpt><trkpt lat="45.603713535929714" lon="10.819241248493103"><ele>271.0</ele><time>2026-03-28T14:13:09Z</time></trkpt><trkpt lat="45.60364585591068" lon="10.819347017359947"><ele>271.0</ele><time>2026-03-28T14:13:10Z</time></trkpt><trkpt lat="45.60355345917172" lon="10.819462408563364"><ele>270.75</ele><time>2026-03-28T14:13:11Z</time></trkpt><trkpt lat="45.60345600853624" lon="10.819582325276501"><ele>270.5</ele><time>2026-03-28T14:13:12Z</time></trkpt><trkpt lat="45.60334848446659" lon="10.819708754510472"><ele>270.25</ele><time>2026-03-28T14:13:13Z</time></trkpt><trkpt lat="45.60324234305654" lon="10.819837349580926"><ele>270.0</ele><time>2026-03-28T14:13:14Z</time></trkpt><trkpt lat="45.60312215343712" lon="10.819984671788411"><ele>270.0</ele><time>2026-03-28T14:13:15Z</time></trkpt><trkpt lat="45.60298565438463" lon="10.820140198427726"><ele>270.0</ele><time>2026-03-28T14:13:16Z</time></trkpt><trkpt lat="45.60284752062677" lon="10.820302068615323"><ele>270.0</ele><time>2026-03-28T14:13:17Z</time></trkpt><trkpt lat="45.602713168539815" lon="10.820459437910834"><ele>270.0</ele><time>2026-03-28T14:13:18Z</time></trkpt><trkpt lat="45.602586796045024" lon="10.82061178331439"><ele>270.0</ele><time>2026-03-28T14:13:19Z</time></trkpt><trkpt lat="45.60247043365106" lon="10.820756740520228"><ele>270.0</ele><time>2026-03-28T14:13:20Z</time></trkpt><trkpt lat="45.60234731608969" lon="10.820908782998117"><ele>269.6666666666667</ele><time>2026-03-28T14:13:21Z</time></trkpt><trkpt lat="45.60221652396208" lon="10.821065656794637"><ele>269.33333333333337</ele><time>2026-03-28T14:13:22Z</time></trkpt><trkpt lat="45.60210092444694" lon="10.821204450168198"><ele>269.0</ele><time>2026-03-28T14:13:23Z</time></trkpt><trkpt lat="45.60199363921797" lon="10.821326432564796"><ele>269.0</ele><time>2026-03-28T14:13:24Z</time></trkpt><trkpt lat="45.601891547335676" lon="10.821445789012516"><ele>269.0</ele><time>2026-03-28T14:13:25Z</time></trkpt><trkpt lat="45.601788825655284" lon="10.821570675455131"><ele>269.0</ele><time>2026-03-28T14:13:26Z</time></trkpt><trkpt lat="45.60168761820478" lon="10.82169682800104"><ele>269.0</ele><time>2026-03-28T14:13:27Z</time></trkpt><trkpt lat="45.60161718429375" lon="10.821785150843342"><ele>270.0</ele><time>2026-03-28T14:13:28Z</time></trkpt><trkpt lat="45.601521631661846" lon="10.8219149443247"><ele>271.0</ele><time>2026-03-28T14:13:30Z</time></trkpt><trkpt lat="45.601452371061285" lon="10.822019495983454"><ele>272.0</ele><time>2026-03-28T14:13:32Z</time></trkpt><trkpt lat="45.60145220416894" lon="10.822120388998451"><ele>273.0</ele><time>2026-03-28T14:13:34Z</time></trkpt><trkpt lat="45.60154081311766" lon="10.822270954290016"><ele>274.0</ele><time>2026-03-28T14:13:36Z</time></trkpt><trkpt lat="45.60161716837057" lon="10.822377583316669"><ele>274.0</ele><time>2026-03-28T14:13:37Z</time></trkpt><trkpt lat="45.6016996400698" lon="10.822511575278872"><ele>274.0</ele><time>2026-03-28T14:13:38Z</time></trkpt><trkpt lat="45.60178062485625" lon="10.822663725746631"><ele>274.0</ele><time>2026-03-28T14:13:39Z</time></trkpt><trkpt lat="45.601843891433134" lon="10.822793117440746"><ele>274.0</ele><time>2026-03-28T14:13:40Z</time></trkpt><trkpt lat="45.601892670462476" lon="10.822892632275952"><ele>275.2</ele><time>2026-03-28T14:13:41Z</time></trkpt><trkpt lat="45.60197616276246" lon="10.822977313329023"><ele>276.4</ele><time>2026-03-28T14:13:43Z</time></trkpt><trkpt lat="45.602090380494865" lon="10.822972201614915"><ele>277.6</ele><time>2026-03-28T14:13:45Z</time></trkpt><trkpt lat="45.60219096423734" lon="10.822880089756286"><ele>278.8</ele><time>2026-03-28T14:13:47Z</time></trkpt><trkpt lat="45.602282197969906" lon="10.82280331847814"><ele>280.0</ele><time>2026-03-28T14:13:48Z</time></trkpt><trkpt lat="45.602387737888854" lon="10.822724705782658"><ele>280.25</ele><time>2026-03-28T14:13:49Z</time></trkpt><trkpt lat="45.60249018919709" lon="10.822650600910388"><ele>280.5</ele><time>2026-03-28T14:13:50Z</time></trkpt><trkpt lat="45.60258666496312" lon="10.822586573778306"><ele>280.75</ele><time>2026-03-28T14:13:51Z</time></trkpt><trkpt lat="45.602683404024496" lon="10.822521599686027"><ele>281.0</ele><time>2026-03-28T14:13:52Z</time></trkpt><trkpt lat="45.60280701903538" lon="10.822468155691523"><ele>280.40000000000003</ele><time>2026-03-28T14:13:53Z</time></trkpt><trkpt lat="45.60291472866047" lon="10.822421460181028"><ele>279.8</ele><time>2026-03-28T14:13:54Z</time></trkpt><trkpt lat="45.60301477162488" lon="10.8223650584659"><ele>279.20000000000005</ele><time>2026-03-28T14:13:55Z</time></trkpt><trkpt lat="45.60310321167546" lon="10.822315911478393"><ele>278.6</ele><time>2026-03-28T14:13:56Z</time></trkpt><trkpt lat="45.6032000129294" lon="10.822273213312066"><ele>278.0</ele><time>2026-03-28T14:13:57Z</time></trkpt><trkpt lat="45.60330463293791" lon="10.822233120576838"><ele>278.0</ele><time>2026-03-28T14:13:58Z</time></trkpt><trkpt lat="45.60339648730264" lon="10.822194201500157"><ele>278.0</ele><time>2026-03-28T14:13:59Z</time></trkpt><trkpt lat="45.60349430731156" lon="10.822170680828572"><ele>278.0</ele><time>2026-03-28T14:14:00Z</time></trkpt><trkpt lat="45.60359859548761" lon="10.82214303137081"><ele>278.0</ele><time>2026-03-28T14:14:01Z</time></trkpt><trkpt lat="45.60371374437352" lon="10.822121374658435"><ele>278.0</ele><time>2026-03-28T14:14:02Z</time></trkpt><trkpt lat="45.60380805924439" lon="10.822098701480463"><ele>279.2</ele><time>2026-03-28T14:14:03Z</time></trkpt><trkpt lat="45.60390697808664" lon="10.822072548713527"><ele>280.4</ele><time>2026-03-28T14:14:04Z</time></trkpt><trkpt lat="45.60400973703072" lon="10.822063935147687"><ele>281.59999999999997</ele><time>2026-03-28T14:14:05Z</time></trkpt><trkpt lat="45.6041241151444" lon="10.822066971631594"><ele>282.8</ele><time>2026-03-28T14:14:06Z</time></trkpt><trkpt lat="45.60422291841151" lon="10.82206788619903"><ele>284.0</ele><time>2026-03-28T14:14:07Z</time></trkpt><trkpt lat="45.60428581987673" lon="10.822050634212797"><ele>284.0</ele><time>2026-03-28T14:14:08Z</time></trkpt><trkpt lat="45.60438015726762" lon="10.821941138282355"><ele>284.0</ele><time>2026-03-28T14:14:10Z</time></trkpt><trkpt lat="45.60445540133085" lon="10.821825372425474"><ele>284.0</ele><time>2026-03-28T14:14:12Z</time></trkpt><trkpt lat="45.60452157805373" lon="10.821804278212564"><ele>284.0</ele><time>2026-03-28T14:14:13Z</time></trkpt><trkpt lat="45.60460864273101" lon="10.821779192976004"><ele>284.0</ele><time>2026-03-28T14:14:14Z</time></trkpt><trkpt lat="45.60468172578234" lon="10.821757788051618"><ele>286.0</ele><time>2026-03-28T14:14:15Z</time></trkpt><trkpt lat="45.604777551039234" lon="10.821739732759452"><ele>288.0</ele><time>2026-03-28T14:14:16Z</time></trkpt><trkpt lat="45.604865736446726" lon="10.82174750361342"><ele>290.0</ele><time>2026-03-28T14:14:17Z</time></trkpt><trkpt lat="45.60493001418209" lon="10.821757182387767"><ele>292.0</ele><time>2026-03-28T14:14:18Z</time></trkpt><trkpt lat="45.60500662142223" lon="10.821767626649535"><ele>294.0</ele><time>2026-03-28T14:14:19Z</time></trkpt><trkpt lat="45.60510303968279" lon="10.821773393382532"><ele>296.0</ele><time>2026-03-28T14:14:20Z</time></trkpt><trkpt lat="45.605179656843546" lon="10.821732165965848"><ele>296.0</ele><time>2026-03-28T14:14:21Z</time></trkpt><trkpt lat="45.60522590197644" lon="10.821652018642002"><ele>296.0</ele><time>2026-03-28T14:14:22Z</time></trkpt><trkpt lat="45.605260736694234" lon="10.821543339427105"><ele>296.0</ele><time>2026-03-28T14:14:23Z</time></trkpt><trkpt lat="45.60527780011517" lon="10.821444853334638"><ele>296.0</ele><time>2026-03-28T14:14:24Z</time></trkpt><trkpt lat="45.60534456621491" lon="10.821479109409843"><ele>296.0</ele><time>2026-03-28T14:14:27Z</time></trkpt><trkpt lat="45.60533589250086" lon="10.82168380220148"><ele>296.0</ele><time>2026-03-28T14:14:29Z</time></trkpt><trkpt lat="45.605299822581294" lon="10.821869758844525"><ele>296.0</ele><time>2026-03-28T14:14:30Z</time></trkpt><trkpt lat="45.6052897203318" lon="10.822073032837372"><ele>296.0</ele><time>2026-03-28T14:14:31Z</time></trkpt><trkpt lat="45.60530420567918" lon="10.82231745495066"><ele>296.0</ele><time>2026-03-28T14:14:32Z</time></trkpt><trkpt lat="45.60532291034907" lon="10.822589127759501"><ele>300.6666666666667</ele><time>2026-03-28T14:14:33Z</time></trkpt><trkpt lat="45.605348905289844" lon="10.82287915745662"><ele>305.3333333333333</ele><time>2026-03-28T14:14:34Z</time></trkpt><trkpt lat="45.605369490857186" lon="10.823180951936484"><ele>310.0</ele><time>2026-03-28T14:14:35Z</time></trkpt><trkpt lat="45.605380563826685" lon="10.823475701782892"><ele>309.3333333333333</ele><time>2026-03-28T14:14:36Z</time></trkpt><trkpt lat="45.60539221304823" lon="10.823743172424711"><ele>308.6666666666667</ele><time>2026-03-28T14:14:37Z</time></trkpt><trkpt lat="45.605401870687515" lon="10.823991222328797"><ele>308.0</ele><time>2026-03-28T14:14:38Z</time></trkpt><trkpt lat="45.60540858671885" lon="10.824200873503333"><ele>307.8</ele><time>2026-03-28T14:14:39Z</time></trkpt><trkpt lat="45.60540108599158" lon="10.824379494123741"><ele>307.6</ele><time>2026-03-28T14:14:40Z</time></trkpt><trkpt lat="45.605343333065356" lon="10.824506333652618"><ele>307.4</ele><time>2026-03-28T14:14:41Z</time></trkpt><trkpt lat="45.60526177016447" lon="10.824594872165358"><ele>307.2</ele><time>2026-03-28T14:14:42Z</time></trkpt><trkpt lat="45.60516868973758" lon="10.824689804171253"><ele>307.0</ele><time>2026-03-28T14:14:43Z</time></trkpt><trkpt lat="45.60505482877271" lon="10.824790771768601"><ele>305.25</ele><time>2026-03-28T14:14:44Z</time></trkpt><trkpt lat="45.60492390279843" lon="10.824855091376577"><ele>303.5</ele><time>2026-03-28T14:14:45Z</time></trkpt><trkpt lat="45.6047908663788" lon="10.824876133232713"><ele>301.75</ele><time>2026-03-28T14:14:46Z</time></trkpt><trkpt lat="45.604691115034896" lon="10.824929715846569"><ele>300.0</ele><time>2026-03-28T14:14:47Z</time></trkpt><trkpt lat="45.60460293732323" lon="10.825008004214302"><ele>300.0</ele><time>2026-03-28T14:14:48Z</time></trkpt><trkpt lat="45.604534720128235" lon="10.82516569641605"><ele>300.0</ele><time>2026-03-28T14:14:49Z</time></trkpt><trkpt lat="45.60448549740873" lon="10.82535315286522"><ele>300.0</ele><time>2026-03-28T14:14:50Z</time></trkpt><trkpt lat="45.60444220544271" lon="10.825565278604415"><ele>300.0</ele><time>2026-03-28T14:14:51Z</time></trkpt><trkpt lat="45.60438222239461" lon="10.825768067323779"><ele>300.0</ele><time>2026-03-28T14:14:52Z</time></trkpt><trkpt lat="45.60428557781852" lon="10.825931163204945"><ele>300.0</ele><time>2026-03-28T14:14:53Z</time></trkpt><trkpt lat="45.60415252007583" lon="10.826056401603537"><ele>300.0</ele><time>2026-03-28T14:14:54Z</time></trkpt><trkpt lat="45.60398580896585" lon="10.82617528476809"><ele>301.0</ele><time>2026-03-28T14:14:55Z</time></trkpt><trkpt lat="45.60381150054889" lon="10.826280498546335"><ele>302.0</ele><time>2026-03-28T14:14:56Z</time></trkpt><trkpt lat="45.60363758846493" lon="10.826356990469879"><ele>303.0</ele><time>2026-03-28T14:14:57Z</time></trkpt><trkpt lat="45.603486117448895" lon="10.826445536603089"><ele>303.0</ele><time>2026-03-28T14:14:58Z</time></trkpt><trkpt lat="45.60334269846085" lon="10.82653869226393"><ele>303.0</ele><time>2026-03-28T14:14:59Z</time></trkpt><trkpt lat="45.60318251902975" lon="10.826602173526728"><ele>303.0</ele><time>2026-03-28T14:15:00Z</time></trkpt><trkpt lat="45.603061800591114" lon="10.826630776868651"><ele>303.0</ele><time>2026-03-28T14:15:01Z</time></trkpt><trkpt lat="45.60297622948186" lon="10.826631051713052"><ele>303.0</ele><time>2026-03-28T14:15:02Z</time></trkpt><trkpt lat="45.60290059150247" lon="10.826619271177021"><ele>303.0</ele><time>2026-03-28T14:15:04Z</time></trkpt><trkpt lat="45.60297470716355" lon="10.826725463351227"><ele>303.0</ele><time>2026-03-28T14:15:06Z</time></trkpt><trkpt lat="45.603078794220096" lon="10.826891176697403"><ele>303.0</ele><time>2026-03-28T14:15:08Z</time></trkpt><trkpt lat="45.603172024642056" lon="10.826984987155027"><ele>306.25</ele><time>2026-03-28T14:15:09Z</time></trkpt><trkpt lat="45.60327823663186" lon="10.827041679236054"><ele>309.5</ele><time>2026-03-28T14:15:10Z</time></trkpt><trkpt lat="45.6034097628268" lon="10.827089912674046"><ele>312.75</ele><time>2026-03-28T14:15:11Z</time></trkpt><trkpt lat="45.603535043458685" lon="10.827175390706106"><ele>316.0</ele><time>2026-03-28T14:15:12Z</time></trkpt><trkpt lat="45.60365485191764" lon="10.82723703263719"><ele>315.8</ele><time>2026-03-28T14:15:13Z</time></trkpt><trkpt lat="45.60377634652252" lon="10.82726261431647"><ele>315.6</ele><time>2026-03-28T14:15:14Z</time></trkpt><trkpt lat="45.60387571688232" lon="10.827276742092925"><ele>315.4</ele><time>2026-03-28T14:15:15Z</time></trkpt><trkpt lat="45.60394157159231" lon="10.82726906552777"><ele>315.2</ele><time>2026-03-28T14:15:16Z</time></trkpt><trkpt lat="45.604036497097404" lon="10.82723435983992"><ele>315.0</ele><time>2026-03-28T14:15:18Z</time></trkpt><trkpt lat="45.60410719904861" lon="10.827228078025701"><ele>315.0</ele><time>2026-03-28T14:15:20Z</time></trkpt><trkpt lat="45.60424519626308" lon="10.827181570643685"><ele>315.0</ele><time>2026-03-28T14:15:22Z</time></trkpt><trkpt lat="45.60431876308482" lon="10.827087635285448"><ele>315.0</ele><time>2026-03-28T14:15:23Z</time></trkpt><trkpt lat="45.604414343107415" lon="10.826969721524733"><ele>315.0</ele><time>2026-03-28T14:15:24Z</time></trkpt><trkpt lat="45.604510103086575" lon="10.826845157832896"><ele>314.4</ele><time>2026-03-28T14:15:25Z</time></trkpt><trkpt lat="45.6046086182851" lon="10.826714054544572"><ele>313.8</ele><time>2026-03-28T14:15:26Z</time></trkpt><trkpt lat="45.604659102719125" lon="10.826625654196576"><ele>313.2</ele><time>2026-03-28T14:15:27Z</time></trkpt><trkpt lat="45.604750878685245" lon="10.826535839199218"><ele>312.6</ele><time>2026-03-28T14:15:29Z</time></trkpt><trkpt lat="45.60481670581286" lon="10.826473485236054"><ele>312.0</ele><time>2026-03-28T14:15:30Z</time></trkpt><trkpt lat="45.604915728246816" lon="10.826459856705256"><ele>312.0</ele><time>2026-03-28T14:15:31Z</time></trkpt><trkpt lat="45.60502121430844" lon="10.826462902849537"><ele>312.0</ele><time>2026-03-28T14:15:32Z</time></trkpt><trkpt lat="45.60510012199846" lon="10.82644572492843"><ele>312.0</ele><time>2026-03-28T14:15:33Z</time></trkpt><trkpt lat="45.60515548283385" lon="10.826367943227773"><ele>312.0</ele><time>2026-03-28T14:15:34Z</time></trkpt><trkpt lat="45.60521851199763" lon="10.82623399151019"><ele>312.0</ele><time>2026-03-28T14:15:35Z</time></trkpt><trkpt lat="45.60529893790523" lon="10.82609839986391"><ele>313.5</ele><time>2026-03-28T14:15:36Z</time></trkpt><trkpt lat="45.60538523075331" lon="10.826025181394883"><ele>315.0</ele><time>2026-03-28T14:15:37Z</time></trkpt><trkpt lat="45.60547277127708" lon="10.826039463243793"><ele>316.5</ele><time>2026-03-28T14:15:38Z</time></trkpt><trkpt lat="45.60556925958258" lon="10.826029767820042"><ele>318.0</ele><time>2026-03-28T14:15:39Z</time></trkpt><trkpt lat="45.6056487754939" lon="10.826006156394183"><ele>319.5</ele><time>2026-03-28T14:15:40Z</time></trkpt><trkpt lat="45.605711568889895" lon="10.826018619528279"><ele>321.0</ele><time>2026-03-28T14:15:41Z</time></trkpt><trkpt lat="45.605850268463705" lon="10.826141745671862"><ele>321.0</ele><time>2026-03-28T14:15:43Z</time></trkpt><trkpt lat="45.6059819337649" lon="10.82624887523031"><ele>321.0</ele><time>2026-03-28T14:15:44Z</time></trkpt><trkpt lat="45.60613063258954" lon="10.826331901965814"><ele>321.0</ele><time>2026-03-28T14:15:45Z</time></trkpt><trkpt lat="45.606295441431804" lon="10.826402441450936"><ele>322.3333333333333</ele><time>2026-03-28T14:15:46Z</time></trkpt><trkpt lat="45.60646849174901" lon="10.826479998593035"><ele>323.66666666666663</ele><time>2026-03-28T14:15:47Z</time></trkpt><trkpt lat="45.6066237694209" lon="10.826563475774686"><ele>325.0</ele><time>2026-03-28T14:15:48Z</time></trkpt><trkpt lat="45.60677790403967" lon="10.826652802384789"><ele>325.0</ele><time>2026-03-28T14:15:49Z</time></trkpt><trkpt lat="45.606936263020955" lon="10.826749656904598"><ele>325.0</ele><time>2026-03-28T14:15:50Z</time></trkpt><trkpt lat="45.607094190395024" lon="10.826842547641661"><ele>325.0</ele><time>2026-03-28T14:15:51Z</time></trkpt><trkpt lat="45.60723244344229" lon="10.826924476105066"><ele>328.0</ele><time>2026-03-28T14:15:52Z</time></trkpt><trkpt lat="45.607366634669944" lon="10.826988715405578"><ele>331.0</ele><time>2026-03-28T14:15:53Z</time></trkpt><trkpt lat="45.60752072488915" lon="10.827020431458761"><ele>334.0</ele><time>2026-03-28T14:15:54Z</time></trkpt><trkpt lat="45.60766596356225" lon="10.827026715656505"><ele>337.0</ele><time>2026-03-28T14:15:55Z</time></trkpt><trkpt lat="45.60779363830806" lon="10.827067978337492"><ele>336.6</ele><time>2026-03-28T14:15:56Z</time></trkpt><trkpt lat="45.607890943319454" lon="10.827096853046088"><ele>336.20000000000005</ele><time>2026-03-28T14:15:57Z</time></trkpt><trkpt lat="45.60798599614662" lon="10.827107250044692"><ele>335.8</ele><time>2026-03-28T14:15:58Z</time></trkpt><trkpt lat="45.608071057014776" lon="10.827142186255704"><ele>335.4</ele><time>2026-03-28T14:15:59Z</time></trkpt><trkpt lat="45.6081532772592" lon="10.827167456909175"><ele>335.0</ele><time>2026-03-28T14:16:00Z</time></trkpt><trkpt lat="45.608243458594174" lon="10.82719425969984"><ele>335.0</ele><time>2026-03-28T14:16:02Z</time></trkpt><trkpt lat="45.608344090149764" lon="10.827136616968641"><ele>335.0</ele><time>2026-03-28T14:16:04Z</time></trkpt><trkpt lat="45.60840038022752" lon="10.827047505020857"><ele>335.0</ele><time>2026-03-28T14:16:05Z</time></trkpt><trkpt lat="45.60845436779915" lon="10.826909521955379"><ele>335.0</ele><time>2026-03-28T14:16:06Z</time></trkpt><trkpt lat="45.60852599697442" lon="10.826743654912827"><ele>335.0</ele><time>2026-03-28T14:16:07Z</time></trkpt><trkpt lat="45.60853697786233" lon="10.82655304760879"><ele>333.0</ele><time>2026-03-28T14:16:08Z</time></trkpt><trkpt lat="45.608534254427134" lon="10.826336401571941"><ele>331.0</ele><time>2026-03-28T14:16:09Z</time></trkpt><trkpt lat="45.608515353680154" lon="10.826117683870669"><ele>329.0</ele><time>2026-03-28T14:16:10Z</time></trkpt><trkpt lat="45.60852642652323" lon="10.825911680316855"><ele>329.0</ele><time>2026-03-28T14:16:11Z</time></trkpt><trkpt lat="45.608528802819656" lon="10.82573463129591"><ele>329.0</ele><time>2026-03-28T14:16:12Z</time></trkpt><trkpt lat="45.60853154957023" lon="10.82554790826057"><ele>329.0</ele><time>2026-03-28T14:16:13Z</time></trkpt><trkpt lat="45.60855432266711" lon="10.825351315712771"><ele>329.0</ele><time>2026-03-28T14:16:14Z</time></trkpt><trkpt lat="45.608585460344926" lon="10.825136887976193"><ele>328.5</ele><time>2026-03-28T14:16:15Z</time></trkpt><trkpt lat="45.60861288453727" lon="10.824935746142783"><ele>328.0</ele><time>2026-03-28T14:16:16Z</time></trkpt><trkpt lat="45.60863068663368" lon="10.824757109394339"><ele>327.5</ele><time>2026-03-28T14:16:17Z</time></trkpt><trkpt lat="45.60861887079779" lon="10.824585719974609"><ele>327.0</ele><time>2026-03-28T14:16:18Z</time></trkpt><trkpt lat="45.608577662381265" lon="10.824432299825842"><ele>326.5</ele><time>2026-03-28T14:16:19Z</time></trkpt><trkpt lat="45.60851804146546" lon="10.824296365016119"><ele>326.0</ele><time>2026-03-28T14:16:20Z</time></trkpt><trkpt lat="45.60845777103081" lon="10.82416248308938"><ele>325.5</ele><time>2026-03-28T14:16:21Z</time></trkpt><trkpt lat="45.608380510446835" lon="10.824024699132979"><ele>325.0</ele><time>2026-03-28T14:16:22Z</time></trkpt><trkpt lat="45.60828397708934" lon="10.823858347748054"><ele>325.0</ele><time>2026-03-28T14:16:23Z</time></trkpt><trkpt lat="45.60818854552558" lon="10.823659484744821"><ele>325.0</ele><time>2026-03-28T14:16:24Z</time></trkpt><trkpt lat="45.608081024910746" lon="10.823449713999713"><ele>325.0</ele><time>2026-03-28T14:16:25Z</time></trkpt><trkpt lat="45.60796648824355" lon="10.823224999724035"><ele>324.66666666666663</ele><time>2026-03-28T14:16:26Z</time></trkpt><trkpt lat="45.607858885715444" lon="10.82299356177657"><ele>324.3333333333333</ele><time>2026-03-28T14:16:27Z</time></trkpt><trkpt lat="45.607748197365645" lon="10.822744552801494"><ele>324.0</ele><time>2026-03-28T14:16:28Z</time></trkpt><trkpt lat="45.60765912644129" lon="10.822510203204674"><ele>322.0</ele><time>2026-03-28T14:16:29Z</time></trkpt><trkpt lat="45.60756502085658" lon="10.822264363846253"><ele>320.0</ele><time>2026-03-28T14:16:30Z</time></trkpt><trkpt lat="45.60747742388241" lon="10.822011285276067"><ele>318.0</ele><time>2026-03-28T14:16:31Z</time></trkpt><trkpt lat="45.607408324965434" lon="10.821766582175648"><ele>315.0</ele><time>2026-03-28T14:16:32Z</time></trkpt><trkpt lat="45.6073595456557" lon="10.821537549716705"><ele>312.0</ele><time>2026-03-28T14:16:33Z</time></trkpt><trkpt lat="45.60730907958468" lon="10.821317042066703"><ele>309.0</ele><time>2026-03-28T14:16:34Z</time></trkpt><trkpt lat="45.60724914474355" lon="10.821116348296318"><ele>307.75</ele><time>2026-03-28T14:16:35Z</time></trkpt><trkpt lat="45.607188540904744" lon="10.820919458129195"><ele>306.5</ele><time>2026-03-28T14:16:36Z</time></trkpt><trkpt lat="45.60713510648137" lon="10.820721123967118"><ele>305.25</ele><time>2026-03-28T14:16:37Z</time></trkpt><trkpt lat="45.60709534299955" lon="10.820526020177699"><ele>304.0</ele><time>2026-03-28T14:16:38Z</time></trkpt><trkpt lat="45.60707348718247" lon="10.820340941171878"><ele>304.0</ele><time>2026-03-28T14:16:39Z</time></trkpt><trkpt lat="45.607074103390346" lon="10.820171599617963"><ele>304.0</ele><time>2026-03-28T14:16:40Z</time></trkpt><trkpt lat="45.607141606037" lon="10.819986130083823"><ele>304.0</ele><time>2026-03-28T14:16:41Z</time></trkpt><trkpt lat="45.60721538780376" lon="10.819757415733376"><ele>304.0</ele><time>2026-03-28T14:16:42Z</time></trkpt><trkpt lat="45.60730073312848" lon="10.819535916972512"><ele>302.3333333333333</ele><time>2026-03-28T14:16:43Z</time></trkpt><trkpt lat="45.607367982084476" lon="10.81932266247444"><ele>300.6666666666667</ele><time>2026-03-28T14:16:44Z</time></trkpt><trkpt lat="45.607412065010664" lon="10.819119637591477"><ele>299.0</ele><time>2026-03-28T14:16:45Z</time></trkpt><trkpt lat="45.607493845886964" lon="10.818909325637318"><ele>297.6666666666667</ele><time>2026-03-28T14:16:46Z</time></trkpt><trkpt lat="45.60755160157177" lon="10.818682843248366"><ele>296.3333333333333</ele><time>2026-03-28T14:16:47Z</time></trkpt><trkpt lat="45.6076080703005" lon="10.818439814672791"><ele>295.0</ele><time>2026-03-28T14:16:48Z</time></trkpt><trkpt lat="45.607657975864214" lon="10.818191720728"><ele>294.0</ele><time>2026-03-28T14:16:49Z</time></trkpt><trkpt lat="45.60770582675006" lon="10.81795006064288"><ele>293.0</ele><time>2026-03-28T14:16:50Z</time></trkpt><trkpt lat="45.60775107131911" lon="10.817715377456514"><ele>292.0</ele><time>2026-03-28T14:16:51Z</time></trkpt><trkpt lat="45.607799190365824" lon="10.817495029348601"><ele>290.25</ele><time>2026-03-28T14:16:52Z</time></trkpt><trkpt lat="45.60784049771317" lon="10.81729711679046"><ele>288.5</ele><time>2026-03-28T14:16:53Z</time></trkpt><trkpt lat="45.60788837371401" lon="10.817124770777088"><ele>286.75</ele><time>2026-03-28T14:16:54Z</time></trkpt><trkpt lat="45.60792631168505" lon="10.816989586928951"><ele>285.0</ele><time>2026-03-28T14:16:55Z</time></trkpt><trkpt lat="45.6079683646996" lon="10.816881290995326"><ele>284.4</ele><time>2026-03-28T14:16:56Z</time></trkpt><trkpt lat="45.60801519067996" lon="10.81678042028351"><ele>283.8</ele><time>2026-03-28T14:16:58Z</time></trkpt><trkpt lat="45.60805119538179" lon="10.816674411422447"><ele>283.2</ele><time>2026-03-28T14:17:07Z</time></trkpt><trkpt lat="45.608130704574485" lon="10.81658314147018"><ele>282.6</ele><time>2026-03-28T14:17:08Z</time></trkpt><trkpt lat="45.60821215410338" lon="10.81646270216403"><ele>282.0</ele><time>2026-03-28T14:17:09Z</time></trkpt><trkpt lat="45.60826123695391" lon="10.81631058055796"><ele>282.0</ele><time>2026-03-28T14:17:10Z</time></trkpt><trkpt lat="45.6083131653096" lon="10.816140031881858"><ele>282.0</ele><time>2026-03-28T14:17:11Z</time></trkpt><trkpt lat="45.60838723115553" lon="10.815991663091905"><ele>282.0</ele><time>2026-03-28T14:17:12Z</time></trkpt><trkpt lat="45.60844536274385" lon="10.815840848453403"><ele>282.0</ele><time>2026-03-28T14:17:13Z</time></trkpt><trkpt lat="45.608509482306744" lon="10.8156925560711"><ele>282.0</ele><time>2026-03-28T14:17:14Z</time></trkpt><trkpt lat="45.60859130790022" lon="10.815577086088576"><ele>282.0</ele><time>2026-03-28T14:17:15Z</time></trkpt><trkpt lat="45.608680931383255" lon="10.815464447642801"><ele>282.0</ele><time>2026-03-28T14:17:16Z</time></trkpt><trkpt lat="45.60876435740569" lon="10.815324013075625"><ele>282.0</ele><time>2026-03-28T14:17:17Z</time></trkpt><trkpt lat="45.608795719227764" lon="10.815154042225288"><ele>282.0</ele><time>2026-03-28T14:17:18Z</time></trkpt><trkpt lat="45.60881855748875" lon="10.814964569374638"><ele>282.0</ele><time>2026-03-28T14:17:19Z</time></trkpt><trkpt lat="45.60885595302129" lon="10.814764499108792"><ele>282.0</ele><time>2026-03-28T14:17:20Z</time></trkpt><trkpt lat="45.608877429143426" lon="10.814545655150694"><ele>282.0</ele><time>2026-03-28T14:17:21Z</time></trkpt><trkpt lat="45.60890309011179" lon="10.814310237019528"><ele>281.6666666666667</ele><time>2026-03-28T14:17:22Z</time></trkpt><trkpt lat="45.608934668085496" lon="10.814054732080182"><ele>281.33333333333337</ele><time>2026-03-28T14:17:23Z</time></trkpt><trkpt lat="45.608969193892946" lon="10.813780688404103"><ele>281.0</ele><time>2026-03-28T14:17:24Z</time></trkpt><trkpt lat="45.609031372266685" lon="10.813499234186578"><ele>280.6666666666667</ele><time>2026-03-28T14:17:25Z</time></trkpt><trkpt lat="45.60908959825243" lon="10.813216234949843"><ele>280.3333333333333</ele><time>2026-03-28T14:17:26Z</time></trkpt><trkpt lat="45.60913818761615" lon="10.812950788419526"><ele>280.0</ele><time>2026-03-28T14:17:27Z</time></trkpt><trkpt lat="45.60917343918131" lon="10.812701809356607"><ele>281.25</ele><time>2026-03-28T14:17:28Z</time></trkpt><trkpt lat="45.60918865130829" lon="10.812475286220455"><ele>282.5</ele><time>2026-03-28T14:17:29Z</time></trkpt><trkpt lat="45.60919436779914" lon="10.81225492182504"><ele>283.75</ele><time>2026-03-28T14:17:30Z</time></trkpt><trkpt lat="45.609214001282155" lon="10.812068102138198"><ele>285.0</ele><time>2026-03-28T14:17:31Z</time></trkpt><trkpt lat="45.609259314926476" lon="10.811922658780176"><ele>284.8</ele><time>2026-03-28T14:17:32Z</time></trkpt><trkpt lat="45.60931823004789" lon="10.811801980387392"><ele>284.6</ele><time>2026-03-28T14:17:33Z</time></trkpt><trkpt lat="45.60938993500141" lon="10.811734836523998"><ele>284.4</ele><time>2026-03-28T14:17:34Z</time></trkpt><trkpt lat="45.60948699248222" lon="10.811669466352747"><ele>284.2</ele><time>2026-03-28T14:17:35Z</time></trkpt><trkpt lat="45.609603718708996" lon="10.811561699124939"><ele>284.0</ele><time>2026-03-28T14:17:36Z</time></trkpt><trkpt lat="45.60972249329476" lon="10.81146895923789"><ele>284.8</ele><time>2026-03-28T14:17:37Z</time></trkpt><trkpt lat="45.60981222564946" lon="10.811324575182203"><ele>285.59999999999997</ele><time>2026-03-28T14:17:38Z</time></trkpt><trkpt lat="45.60987859147355" lon="10.811219295714357"><ele>286.4</ele><time>2026-03-28T14:17:39Z</time></trkpt><trkpt lat="45.60992179879694" lon="10.811148557301259"><ele>287.2</ele><time>2026-03-28T14:17:40Z</time></trkpt><trkpt lat="45.6099761063551" lon="10.811057998615196"><ele>288.0</ele><time>2026-03-28T14:17:42Z</time></trkpt><trkpt lat="45.61015825984399" lon="10.811233797710091"><ele>288.0</ele><time>2026-03-28T14:17:43Z</time></trkpt><trkpt lat="45.61030202530646" lon="10.81127240117598"><ele>288.0</ele><time>2026-03-28T14:17:44Z</time></trkpt><trkpt lat="45.610477825066354" lon="10.811341338219838"><ele>288.0</ele><time>2026-03-28T14:17:45Z</time></trkpt><trkpt lat="45.610659816779716" lon="10.811391352965478"><ele>289.3333333333333</ele><time>2026-03-28T14:17:46Z</time></trkpt><trkpt lat="45.61084751887366" lon="10.811418320283948"><ele>290.66666666666663</ele><time>2026-03-28T14:17:47Z</time></trkpt><trkpt lat="45.611042712803666" lon="10.811448114139148"><ele>292.0</ele><time>2026-03-28T14:17:48Z</time></trkpt><trkpt lat="45.611206059209486" lon="10.811480826456144"><ele>294.6</ele><time>2026-03-28T14:17:49Z</time></trkpt><trkpt lat="45.611333384782284" lon="10.81152791870058"><ele>297.2</ele><time>2026-03-28T14:17:50Z</time></trkpt><trkpt lat="45.611425850984475" lon="10.811582377011694"><ele>299.8</ele><time>2026-03-28T14:17:51Z</time></trkpt><trkpt lat="45.61149747753207" lon="10.811648304732627"><ele>302.4</ele><time>2026-03-28T14:17:53Z</time></trkpt><trkpt lat="45.61147988381452" lon="10.81148746766769"><ele>305.0</ele><time>2026-03-28T14:17:56Z</time></trkpt><trkpt lat="45.611399675044" lon="10.811327054759104"><ele>305.0</ele><time>2026-03-28T14:17:57Z</time></trkpt><trkpt lat="45.6113346135389" lon="10.811156547655656"><ele>305.0</ele><time>2026-03-28T14:17:58Z</time></trkpt><trkpt lat="45.61129952148947" lon="10.810987076865635"><ele>305.0</ele><time>2026-03-28T14:17:59Z</time></trkpt><trkpt lat="45.611278683624825" lon="10.81082698453724"><ele>305.0</ele><time>2026-03-28T14:18:00Z</time></trkpt><trkpt lat="45.6112450539516" lon="10.810655777557088"><ele>307.4</ele><time>2026-03-28T14:18:01Z</time></trkpt><trkpt lat="45.61123436434786" lon="10.810485432477028"><ele>309.8</ele><time>2026-03-28T14:18:02Z</time></trkpt><trkpt lat="45.611226395792116" lon="10.810346410663142"><ele>312.2</ele><time>2026-03-28T14:18:03Z</time></trkpt><trkpt lat="45.61123458456823" lon="10.810228003649419"><ele>314.6</ele><time>2026-03-28T14:18:04Z</time></trkpt><trkpt lat="45.611246853910934" lon="10.810096278349128"><ele>317.0</ele><time>2026-03-28T14:18:05Z</time></trkpt><trkpt lat="45.61126358297467" lon="10.809950703262128"><ele>319.0</ele><time>2026-03-28T14:18:06Z</time></trkpt><trkpt lat="45.611279746329046" lon="10.809786113408347"><ele>321.0</ele><time>2026-03-28T14:18:07Z</time></trkpt><trkpt lat="45.61130004843701" lon="10.809614050547038"><ele>323.0</ele><time>2026-03-28T14:18:08Z</time></trkpt><trkpt lat="45.611344062169756" lon="10.80943165996598"><ele>325.0</ele><time>2026-03-28T14:18:09Z</time></trkpt><trkpt lat="45.61139344251949" lon="10.809252760416598"><ele>325.0</ele><time>2026-03-28T14:18:10Z</time></trkpt><trkpt lat="45.6114372483177" lon="10.809059379103083"><ele>325.0</ele><time>2026-03-28T14:18:11Z</time></trkpt><trkpt lat="45.61149230799707" lon="10.80887851493602"><ele>325.0</ele><time>2026-03-28T14:18:12Z</time></trkpt><trkpt lat="45.61153634172955" lon="10.808717070336664"><ele>325.0</ele><time>2026-03-28T14:18:13Z</time></trkpt><trkpt lat="45.611559784344514" lon="10.80856412906037"><ele>323.8333333333333</ele><time>2026-03-28T14:18:14Z</time></trkpt><trkpt lat="45.61158616839736" lon="10.8084249062668"><ele>322.66666666666663</ele><time>2026-03-28T14:18:15Z</time></trkpt><trkpt lat="45.611597116001974" lon="10.80827827310934"><ele>321.5</ele><time>2026-03-28T14:18:16Z</time></trkpt><trkpt lat="45.61161890804069" lon="10.808137568575733"><ele>320.3333333333333</ele><time>2026-03-28T14:18:17Z</time></trkpt><trkpt lat="45.611647427064334" lon="10.80804215481482"><ele>319.1666666666667</ele><time>2026-03-28T14:18:18Z</time></trkpt><trkpt lat="45.611693489269534" lon="10.807974320806146"><ele>318.0</ele><time>2026-03-28T14:18:19Z</time></trkpt><trkpt lat="45.611784794922535" lon="10.80792903919505"><ele>318.0</ele><time>2026-03-28T14:18:21Z</time></trkpt><trkpt lat="45.61184054559733" lon="10.807863443189426"><ele>318.0</ele><time>2026-03-28T14:18:23Z</time></trkpt><trkpt lat="45.61187209337303" lon="10.807780498470217"><ele>318.0</ele><time>2026-03-28T14:18:24Z</time></trkpt><trkpt lat="45.61190006738134" lon="10.807679128222969"><ele>318.0</ele><time>2026-03-28T14:18:25Z</time></trkpt><trkpt lat="45.611950469921716" lon="10.807562058695513"><ele>318.0</ele><time>2026-03-28T14:18:27Z</time></trkpt><trkpt lat="45.612079242521546" lon="10.80761770533631"><ele>318.0</ele><time>2026-03-28T14:18:28Z</time></trkpt><trkpt lat="45.61219413509329" lon="10.807591891336465"><ele>318.3333333333333</ele><time>2026-03-28T14:18:29Z</time></trkpt><trkpt lat="45.612325231432614" lon="10.807540690561437"><ele>318.66666666666663</ele><time>2026-03-28T14:18:30Z</time></trkpt><trkpt lat="45.61248219221149" lon="10.807525872472567"><ele>319.0</ele><time>2026-03-28T14:18:31Z</time></trkpt><trkpt lat="45.61265548906037" lon="10.807509787157372"><ele>321.66666666666663</ele><time>2026-03-28T14:18:32Z</time></trkpt><trkpt lat="45.61282647876545" lon="10.807520557705317"><ele>324.3333333333333</ele><time>2026-03-28T14:18:33Z</time></trkpt><trkpt lat="45.61298663174816" lon="10.807479715905034"><ele>327.0</ele><time>2026-03-28T14:18:34Z</time></trkpt><trkpt lat="45.613144116140994" lon="10.807445695487331"><ele>327.0</ele><time>2026-03-28T14:18:35Z</time></trkpt><trkpt lat="45.61329187511629" lon="10.807425100988247"><ele>327.0</ele><time>2026-03-28T14:18:36Z</time></trkpt><trkpt lat="45.613437880403644" lon="10.807421824215952"><ele>327.0</ele><time>2026-03-28T14:18:37Z</time></trkpt><trkpt lat="45.6135652141771" lon="10.80744861915856"><ele>327.0</ele><time>2026-03-28T14:18:38Z</time></trkpt><trkpt lat="45.61368261177547" lon="10.807524868173614"><ele>327.75</ele><time>2026-03-28T14:18:39Z</time></trkpt><trkpt lat="45.61379453830806" lon="10.807608106748217"><ele>328.5</ele><time>2026-03-28T14:18:40Z</time></trkpt><trkpt lat="45.613920485857875" lon="10.807668283825262"><ele>329.25</ele><time>2026-03-28T14:18:41Z</time></trkpt><trkpt lat="45.61400766970957" lon="10.807710997290693"><ele>330.0</ele><time>2026-03-28T14:18:42Z</time></trkpt><trkpt lat="45.61412516963494" lon="10.807636445923391"><ele>330.0</ele><time>2026-03-28T14:18:44Z</time></trkpt><trkpt lat="45.61419394529107" lon="10.807525442615528"><ele>330.0</ele><time>2026-03-28T14:18:45Z</time></trkpt><trkpt lat="45.61428445609194" lon="10.807380932873393"><ele>330.0</ele><time>2026-03-28T14:18:46Z</time></trkpt><trkpt lat="45.6143628219829" lon="10.80730060729568"><ele>330.0</ele><time>2026-03-28T14:18:47Z</time></trkpt><trkpt lat="45.614449101639046" lon="10.807272933420217"><ele>330.0</ele><time>2026-03-28T14:18:48Z</time></trkpt><trkpt lat="45.61454596864832" lon="10.807310322866797"><ele>333.0</ele><time>2026-03-28T14:18:49Z</time></trkpt><trkpt lat="45.61465910967202" lon="10.807361041669408"><ele>336.0</ele><time>2026-03-28T14:18:50Z</time></trkpt><trkpt lat="45.614803451778855" lon="10.807439242911801"><ele>339.0</ele><time>2026-03-28T14:18:51Z</time></trkpt><trkpt lat="45.61495918498683" lon="10.807511838501497"><ele>342.0</ele><time>2026-03-28T14:18:52Z</time></trkpt><trkpt lat="45.61512014236395" lon="10.807606044457591"><ele>343.0</ele><time>2026-03-28T14:18:53Z</time></trkpt><trkpt lat="45.61526419341086" lon="10.807716574199409"><ele>344.0</ele><time>2026-03-28T14:18:54Z</time></trkpt><trkpt lat="45.61537808230822" lon="10.807826599026244"><ele>345.0</ele><time>2026-03-28T14:18:55Z</time></trkpt><trkpt lat="45.61549771732083" lon="10.807918545525673"><ele>346.0</ele><time>2026-03-28T14:18:56Z</time></trkpt><trkpt lat="45.615637544276524" lon="10.80798354265361"><ele>348.0</ele><time>2026-03-28T14:18:57Z</time></trkpt><trkpt lat="45.615794106281534" lon="10.808029425274768"><ele>350.0</ele><time>2026-03-28T14:18:58Z</time></trkpt><trkpt lat="45.6159462755646" lon="10.808046779370477"><ele>352.0</ele><time>2026-03-28T14:18:59Z</time></trkpt><trkpt lat="45.61608312145331" lon="10.808074948480996"><ele>354.75</ele><time>2026-03-28T14:19:00Z</time></trkpt><trkpt lat="45.61620732373695" lon="10.80813046597354"><ele>357.5</ele><time>2026-03-28T14:19:01Z</time></trkpt><trkpt lat="45.61633106458702" lon="10.80822867229701"><ele>360.25</ele><time>2026-03-28T14:19:02Z</time></trkpt><trkpt lat="45.61647064941639" lon="10.80835858909614"><ele>363.0</ele><time>2026-03-28T14:19:03Z</time></trkpt><trkpt lat="45.6166199847161" lon="10.808499690281563"><ele>365.3333333333333</ele><time>2026-03-28T14:19:04Z</time></trkpt><trkpt lat="45.6167643392636" lon="10.808660056026287"><ele>367.66666666666663</ele><time>2026-03-28T14:19:05Z</time></trkpt><trkpt lat="45.61689492221729" lon="10.808820630515946"><ele>370.0</ele><time>2026-03-28T14:19:06Z</time></trkpt><trkpt lat="45.61700782351252" lon="10.808962736882249"><ele>370.75</ele><time>2026-03-28T14:19:07Z</time></trkpt><trkpt lat="45.61711614948903" lon="10.809060232414934"><ele>371.5</ele><time>2026-03-28T14:19:08Z</time></trkpt><trkpt lat="45.61723934765301" lon="10.809126651875252"><ele>372.25</ele><time>2026-03-28T14:19:09Z</time></trkpt><trkpt lat="45.617389529863225" lon="10.809199109429866"><ele>373.0</ele><time>2026-03-28T14:19:10Z</time></trkpt><trkpt lat="45.617545004022695" lon="10.809305503016622"><ele>374.0</ele><time>2026-03-28T14:19:11Z</time></trkpt><trkpt lat="45.6176972850694" lon="10.809481604093584"><ele>375.0</ele><time>2026-03-28T14:19:12Z</time></trkpt><trkpt lat="45.617861060115594" lon="10.809600161720356"><ele>376.0</ele><time>2026-03-28T14:19:13Z</time></trkpt><trkpt lat="45.61797932560117" lon="10.809701267987105"><ele>377.5</ele><time>2026-03-28T14:19:14Z</time></trkpt><trkpt lat="45.6180598374797" lon="10.809775405112266"><ele>379.0</ele><time>2026-03-28T14:19:15Z</time></trkpt><trkpt lat="45.61813688821762" lon="10.80986933259121"><ele>380.5</ele><time>2026-03-28T14:19:16Z</time></trkpt><trkpt lat="45.618203859732944" lon="10.810050583498255"><ele>382.0</ele><time>2026-03-28T14:19:17Z</time></trkpt><trkpt lat="45.61829810535477" lon="10.810226448531747"><ele>382.0</ele><time>2026-03-28T14:19:18Z</time></trkpt><trkpt lat="45.618368830821886" lon="10.810380737123166"><ele>382.0</ele><time>2026-03-28T14:19:19Z</time></trkpt><trkpt lat="45.61846139394734" lon="10.810499522442639"><ele>382.0</ele><time>2026-03-28T14:19:20Z</time></trkpt><trkpt lat="45.61859375922801" lon="10.810615647637777"><ele>382.0</ele><time>2026-03-28T14:19:21Z</time></trkpt><trkpt lat="45.61876155034889" lon="10.810715313220925"><ele>386.3333333333333</ele><time>2026-03-28T14:19:22Z</time></trkpt><trkpt lat="45.618915522784654" lon="10.810855062707613"><ele>390.66666666666663</ele><time>2026-03-28T14:19:23Z</time></trkpt><trkpt lat="45.619073344822354" lon="10.811017632911934"><ele>395.0</ele><time>2026-03-28T14:19:24Z</time></trkpt><trkpt lat="45.61921435771663" lon="10.811186301350146"><ele>395.0</ele><time>2026-03-28T14:19:25Z</time></trkpt><trkpt lat="45.61932408909316" lon="10.811336669806247"><ele>395.0</ele><time>2026-03-28T14:19:26Z</time></trkpt><trkpt lat="45.61941266861887" lon="10.811471494309137"><ele>395.0</ele><time>2026-03-28T14:19:27Z</time></trkpt><trkpt lat="45.61947589865192" lon="10.811645857863034"><ele>395.0</ele><time>2026-03-28T14:19:28Z</time></trkpt><trkpt lat="45.61956695152866" lon="10.811825743067425"><ele>400.66666666666663</ele><time>2026-03-28T14:19:29Z</time></trkpt><trkpt lat="45.61964991338411" lon="10.812016631865765"><ele>406.33333333333337</ele><time>2026-03-28T14:19:30Z</time></trkpt><trkpt lat="45.619758187356766" lon="10.812208357334839"><ele>412.0</ele><time>2026-03-28T14:19:31Z</time></trkpt><trkpt lat="45.61988462979677" lon="10.812397197066359"><ele>412.0</ele><time>2026-03-28T14:19:32Z</time></trkpt><trkpt lat="45.620023398376546" lon="10.812599319781956"><ele>412.0</ele><time>2026-03-28T14:19:33Z</time></trkpt><trkpt lat="45.62015637353435" lon="10.81281414636293"><ele>412.0</ele><time>2026-03-28T14:19:34Z</time></trkpt><trkpt lat="45.62026656364156" lon="10.813032991548267"><ele>415.25</ele><time>2026-03-28T14:19:35Z</time></trkpt><trkpt lat="45.62034214249543" lon="10.81322017089451"><ele>418.5</ele><time>2026-03-28T14:19:36Z</time></trkpt><trkpt lat="45.620420649884" lon="10.813392092368"><ele>421.75</ele><time>2026-03-28T14:19:37Z</time></trkpt><trkpt lat="45.620510899048945" lon="10.813544338038534"><ele>425.0</ele><time>2026-03-28T14:19:38Z</time></trkpt><trkpt lat="45.62061998553316" lon="10.813654377630687"><ele>425.75</ele><time>2026-03-28T14:19:39Z</time></trkpt><trkpt lat="45.62073673746231" lon="10.813731637372486"><ele>426.5</ele><time>2026-03-28T14:19:40Z</time></trkpt><trkpt lat="45.62086972003217" lon="10.813790447102576"><ele>427.25</ele><time>2026-03-28T14:19:41Z</time></trkpt><trkpt lat="45.621040553319816" lon="10.813832532181964"><ele>428.0</ele><time>2026-03-28T14:19:42Z</time></trkpt><trkpt lat="45.621206638708394" lon="10.813903041640021"><ele>429.3333333333333</ele><time>2026-03-28T14:19:43Z</time></trkpt><trkpt lat="45.621332099571816" lon="10.813977820051598"><ele>430.66666666666663</ele><time>2026-03-28T14:19:44Z</time></trkpt><trkpt lat="45.62140442992062" lon="10.814029750690874"><ele>432.0</ele><time>2026-03-28T14:19:45Z</time></trkpt><trkpt lat="45.62144444826969" lon="10.814106046139804"><ele>433.33333333333337</ele><time>2026-03-28T14:19:46Z</time></trkpt><trkpt lat="45.62146741213491" lon="10.814208884026366"><ele>434.6666666666667</ele><time>2026-03-28T14:19:47Z</time></trkpt><trkpt lat="45.62140876928887" lon="10.814306795729726"><ele>436.0</ele><time>2026-03-28T14:19:48Z</time></trkpt><trkpt lat="45.62140462506217" lon="10.814472377069167"><ele>436.0</ele><time>2026-03-28T14:19:50Z</time></trkpt><trkpt lat="45.62140557162208" lon="10.814601643391294"><ele>436.0</ele><time>2026-03-28T14:19:51Z</time></trkpt><trkpt lat="45.62139310276129" lon="10.814752582715474"><ele>436.0</ele><time>2026-03-28T14:19:52Z</time></trkpt><trkpt lat="45.62142067267934" lon="10.814907378739413"><ele>436.0</ele><time>2026-03-28T14:19:53Z</time></trkpt><trkpt lat="45.62145186571545" lon="10.81506988379695"><ele>436.0</ele><time>2026-03-28T14:19:54Z</time></trkpt><trkpt lat="45.62148783925172" lon="10.81523273234597"><ele>437.25</ele><time>2026-03-28T14:19:55Z</time></trkpt><trkpt lat="45.62152444233438" lon="10.81539828680439"><ele>438.5</ele><time>2026-03-28T14:19:56Z</time></trkpt><trkpt lat="45.621560415292514" lon="10.815568977372909"><ele>439.75</ele><time>2026-03-28T14:19:57Z</time></trkpt><trkpt lat="45.62160122967913" lon="10.815748698537137"><ele>441.0</ele><time>2026-03-28T14:19:58Z</time></trkpt><trkpt lat="45.621650807964045" lon="10.81591763138475"><ele>442.4</ele><time>2026-03-28T14:19:59Z</time></trkpt><trkpt lat="45.62170076371269" lon="10.816062246958454"><ele>443.8</ele><time>2026-03-28T14:20:00Z</time></trkpt><trkpt lat="45.6217380687809" lon="10.816191295662128"><ele>445.19999999999993</ele><time>2026-03-28T14:20:01Z</time></trkpt><trkpt lat="45.621791386624075" lon="10.816316867752992"><ele>446.59999999999997</ele><time>2026-03-28T14:20:02Z</time></trkpt><trkpt lat="45.621865578162684" lon="10.816440915299756"><ele>448.0</ele><time>2026-03-28T14:20:03Z</time></trkpt><trkpt lat="45.62192139814606" lon="10.816552222468296"><ele>448.00000000000006</ele><time>2026-03-28T14:20:04Z</time></trkpt><trkpt lat="45.6219760281119" lon="10.816641106359034"><ele>448.0</ele><time>2026-03-28T14:20:05Z</time></trkpt><trkpt lat="45.622034808600674" lon="10.81670938654842"><ele>448.0</ele><time>2026-03-28T14:20:06Z</time></trkpt><trkpt lat="45.62211732831024" lon="10.816774658081052"><ele>448.0</ele><time>2026-03-28T14:20:07Z</time></trkpt><trkpt lat="45.6222027350488" lon="10.816833637343263"><ele>448.00000000000006</ele><time>2026-03-28T14:20:08Z</time></trkpt><trkpt lat="45.62229109841332" lon="10.816888803688492"><ele>448.0</ele><time>2026-03-28T14:20:09Z</time></trkpt><trkpt lat="45.6223432171362" lon="10.816986628206298"><ele>447.75</ele><time>2026-03-28T14:20:10Z</time></trkpt><trkpt lat="45.622415412233565" lon="10.817049042131455"><ele>447.5</ele><time>2026-03-28T14:20:12Z</time></trkpt><trkpt lat="45.6224851563895" lon="10.816843190071207"><ele>447.25</ele><time>2026-03-28T14:20:15Z</time></trkpt><trkpt lat="45.622497871578744" lon="10.816712775776885"><ele>447.0</ele><time>2026-03-28T14:20:16Z</time></trkpt><trkpt lat="45.62251641730818" lon="10.816549390152487"><ele>448.0</ele><time>2026-03-28T14:20:17Z</time></trkpt><trkpt lat="45.62253910613836" lon="10.816378115019148"><ele>449.0</ele><time>2026-03-28T14:20:18Z</time></trkpt><trkpt lat="45.6225474382781" lon="10.816218027416673"><ele>450.0</ele><time>2026-03-28T14:20:19Z</time></trkpt><trkpt lat="45.62253332612086" lon="10.816042191128814"><ele>451.0</ele><time>2026-03-28T14:20:20Z</time></trkpt><trkpt lat="45.622504535623385" lon="10.815870415893"><ele>451.0</ele><time>2026-03-28T14:20:21Z</time></trkpt><trkpt lat="45.62248000061472" lon="10.815738323578536"><ele>451.0</ele><time>2026-03-28T14:20:22Z</time></trkpt><trkpt lat="45.62243784846942" lon="10.815600061604375"><ele>451.0</ele><time>2026-03-28T14:20:23Z</time></trkpt><trkpt lat="45.622396522776576" lon="10.815468872342608"><ele>451.0</ele><time>2026-03-28T14:20:24Z</time></trkpt><trkpt lat="45.62235510036978" lon="10.815355843230453"><ele>451.0</ele><time>2026-03-28T14:20:25Z</time></trkpt><trkpt lat="45.62236162646268" lon="10.815236106090348"><ele>451.50000000000006</ele><time>2026-03-28T14:20:26Z</time></trkpt><trkpt lat="45.62237904025149" lon="10.815125098302197"><ele>452.0</ele><time>2026-03-28T14:20:27Z</time></trkpt><trkpt lat="45.62237810396863" lon="10.815017055218542"><ele>452.5</ele><time>2026-03-28T14:20:28Z</time></trkpt><trkpt lat="45.62238012899424" lon="10.814922031524077"><ele>453.0</ele><time>2026-03-28T14:20:29Z</time></trkpt><trkpt lat="45.62236561966827" lon="10.814799604163765"><ele>453.50000000000006</ele><time>2026-03-28T14:20:30Z</time></trkpt><trkpt lat="45.62235733723255" lon="10.814653912891734"><ele>454.0</ele><time>2026-03-28T14:20:31Z</time></trkpt><trkpt lat="45.622363053910995" lon="10.814510637819938"><ele>454.0</ele><time>2026-03-28T14:20:32Z</time></trkpt><trkpt lat="45.622363211655426" lon="10.81438781191502"><ele>454.0</ele><time>2026-03-28T14:20:33Z</time></trkpt><trkpt lat="45.62236826564448" lon="10.814234915857789"><ele>454.0</ele><time>2026-03-28T14:20:35Z</time></trkpt><trkpt lat="45.62240322817578" lon="10.814083988966377"><ele>454.0</ele><time>2026-03-28T14:20:37Z</time></trkpt><trkpt lat="45.6224925515965" lon="10.814048218353982"><ele>454.0</ele><time>2026-03-28T14:20:38Z</time></trkpt><trkpt lat="45.622545847738515" lon="10.81396056453005"><ele>454.2</ele><time>2026-03-28T14:20:39Z</time></trkpt><trkpt lat="45.622555844622575" lon="10.813831476677663"><ele>454.4</ele><time>2026-03-28T14:20:41Z</time></trkpt><trkpt lat="45.62251591515636" lon="10.813751411096431"><ele>454.6</ele><time>2026-03-28T14:20:42Z</time></trkpt><trkpt lat="45.622510768137964" lon="10.813632107604809"><ele>454.8</ele><time>2026-03-28T14:20:44Z</time></trkpt><trkpt lat="45.622367057676534" lon="10.813584785233216"><ele>455.0</ele><time>2026-03-28T14:20:45Z</time></trkpt><trkpt lat="45.622294441726005" lon="10.81358921077747"><ele>454.99999999999994</ele><time>2026-03-28T14:20:46Z</time></trkpt><trkpt lat="45.62225960250923" lon="10.813502733155895"><ele>455.0</ele><time>2026-03-28T14:20:47Z</time></trkpt><trkpt lat="45.62225020131978" lon="10.813409503054487"><ele>455.0</ele><time>2026-03-28T14:20:48Z</time></trkpt><trkpt lat="45.622259544287346" lon="10.81329987042079"><ele>455.0</ele><time>2026-03-28T14:20:49Z</time></trkpt><trkpt lat="45.62229925651235" lon="10.813193966788088"><ele>454.99999999999994</ele><time>2026-03-28T14:20:50Z</time></trkpt><trkpt lat="45.62227679590514" lon="10.813084306676378"><ele>455.0</ele><time>2026-03-28T14:20:51Z</time></trkpt><trkpt lat="45.6221960855181" lon="10.813049688198335"><ele>456.5</ele><time>2026-03-28T14:20:52Z</time></trkpt><trkpt lat="45.62231833577177" lon="10.81297354139353"><ele>458.0</ele><time>2026-03-28T14:20:54Z</time></trkpt><trkpt lat="45.622340975269594" lon="10.81281888814473"><ele>459.5</ele><time>2026-03-28T14:20:59Z</time></trkpt><trkpt lat="45.62214501727194" lon="10.812867909720504"><ele>461.0</ele><time>2026-03-28T14:21:01Z</time></trkpt><trkpt lat="45.62210645645747" lon="10.812755215673405"><ele>463.20000000000005</ele><time>2026-03-28T14:21:03Z</time></trkpt><trkpt lat="45.62206827295673" lon="10.812653693507736"><ele>465.40000000000003</ele><time>2026-03-28T14:21:05Z</time></trkpt><trkpt lat="45.62200158324971" lon="10.812506205041052"><ele>467.6</ele><time>2026-03-28T14:21:07Z</time></trkpt><trkpt lat="45.621960627825906" lon="10.812389839867368"><ele>469.8</ele><time>2026-03-28T14:21:08Z</time></trkpt><trkpt lat="45.621915763124896" lon="10.81225362225048"><ele>472.0</ele><time>2026-03-28T14:21:09Z</time></trkpt><trkpt lat="45.62187280773226" lon="10.812116486875246"><ele>469.00000000000006</ele><time>2026-03-28T14:21:10Z</time></trkpt><trkpt lat="45.62183912837089" lon="10.812006057913594"><ele>466.0</ele><time>2026-03-28T14:21:11Z</time></trkpt><trkpt lat="45.621803124977" lon="10.81189635432924"><ele>463.0</ele><time>2026-03-28T14:21:12Z</time></trkpt><trkpt lat="45.621771494203564" lon="10.811799420258948"><ele>460.0</ele><time>2026-03-28T14:21:13Z</time></trkpt><trkpt lat="45.62173659688318" lon="10.811692475651098"><ele>457.00000000000006</ele><time>2026-03-28T14:21:14Z</time></trkpt><trkpt lat="45.621700887781905" lon="10.811590103652922"><ele>454.0</ele><time>2026-03-28T14:21:15Z</time></trkpt><trkpt lat="45.62166620750666" lon="10.811493977811974"><ele>454.00000000000006</ele><time>2026-03-28T14:21:16Z</time></trkpt><trkpt lat="45.62163306473547" lon="10.811406757000178"><ele>454.0</ele><time>2026-03-28T14:21:17Z</time></trkpt><trkpt lat="45.621598576526495" lon="10.811312960276034"><ele>454.0</ele><time>2026-03-28T14:21:18Z</time></trkpt><trkpt lat="45.62155762399766" lon="10.811182397300936"><ele>454.0</ele><time>2026-03-28T14:21:19Z</time></trkpt><trkpt lat="45.62153283680974" lon="10.811098638285392"><ele>454.00000000000006</ele><time>2026-03-28T14:21:20Z</time></trkpt><trkpt lat="45.62150702883996" lon="10.81101590087937"><ele>454.0</ele><time>2026-03-28T14:21:22Z</time></trkpt><trkpt lat="45.62181772574821" lon="10.810602696281565"><ele>456.75</ele><time>2026-03-28T14:21:24Z</time></trkpt><trkpt lat="45.62188869646217" lon="10.810604701140072"><ele>459.5</ele><time>2026-03-28T14:21:28Z</time></trkpt><trkpt lat="45.62200599446715" lon="10.810974033286183"><ele>462.25</ele><time>2026-03-28T14:21:30Z</time></trkpt><trkpt lat="45.622067704460214" lon="10.811056084257764"><ele>465.0</ele><time>2026-03-28T14:21:32Z</time></trkpt><trkpt lat="45.622110203412554" lon="10.81114214048443"><ele>465.0</ele><time>2026-03-28T14:21:36Z</time></trkpt><trkpt lat="45.622175573735156" lon="10.811202963448823"><ele>465.0</ele><time>2026-03-28T14:21:39Z</time></trkpt><trkpt lat="45.62211544081822" lon="10.811142745718044"><ele>465.0</ele><time>2026-03-28T14:21:50Z</time></trkpt><trkpt lat="45.622058691492214" lon="10.811079819651932"><ele>465.0</ele><time>2026-03-28T14:21:52Z</time></trkpt><trkpt lat="45.622001809809724" lon="10.810987192309378"><ele>465.0</ele><time>2026-03-28T14:21:59Z</time></trkpt><trkpt lat="45.621947856902516" lon="10.810916992202046"><ele>465.0</ele><time>2026-03-28T14:22:00Z</time></trkpt><trkpt lat="45.62188430912536" lon="10.810833188294493"><ele>465.0</ele><time>2026-03-28T14:22:02Z</time></trkpt><trkpt lat="45.62181933395588" lon="10.81084906214247"><ele>465.0</ele><time>2026-03-28T14:22:06Z</time></trkpt><trkpt lat="45.62184295416223" lon="10.81094500021366"><ele>465.0</ele><time>2026-03-28T14:22:09Z</time></trkpt><trkpt lat="45.62192005420978" lon="10.811020420757199"><ele>465.0</ele><time>2026-03-28T14:22:11Z</time></trkpt><trkpt lat="45.62199406193175" lon="10.811124686420287"><ele>465.0</ele><time>2026-03-28T14:22:13Z</time></trkpt><trkpt lat="45.62204680878232" lon="10.811272440730532"><ele>466.1666666666667</ele><time>2026-03-28T14:22:15Z</time></trkpt><trkpt lat="45.622071054545366" lon="10.811362160197637"><ele>467.33333333333337</ele><time>2026-03-28T14:22:16Z</time></trkpt><trkpt lat="45.62211177126045" lon="10.811491663210427"><ele>468.5</ele><time>2026-03-28T14:22:18Z</time></trkpt><trkpt lat="45.62213913708716" lon="10.811611996291342"><ele>469.6666666666667</ele><time>2026-03-28T14:22:20Z</time></trkpt><trkpt lat="45.62215948329182" lon="10.811725045787124"><ele>470.83333333333337</ele><time>2026-03-28T14:22:21Z</time></trkpt><trkpt lat="45.6221900816964" lon="10.81183610881531"><ele>472.0</ele><time>2026-03-28T14:22:22Z</time></trkpt><trkpt lat="45.62220578428859" lon="10.811946447873666"><ele>472.0</ele><time>2026-03-28T14:22:23Z</time></trkpt><trkpt lat="45.622232069008106" lon="10.812059133939432"><ele>472.00000000000006</ele><time>2026-03-28T14:22:24Z</time></trkpt><trkpt lat="45.622258972014336" lon="10.81216489627379"><ele>472.00000000000006</ele><time>2026-03-28T14:22:25Z</time></trkpt><trkpt lat="45.62229036235958" lon="10.812274857057613"><ele>472.0</ele><time>2026-03-28T14:22:26Z</time></trkpt><trkpt lat="45.62231860189174" lon="10.812386907765923"><ele>472.0</ele><time>2026-03-28T14:22:27Z</time></trkpt><trkpt lat="45.62239810999998" lon="10.812570682859265"><ele>472.00000000000006</ele><time>2026-03-28T14:22:29Z</time></trkpt><trkpt lat="45.62243710742035" lon="10.8126558098708"><ele>472.0</ele><time>2026-03-28T14:22:30Z</time></trkpt><trkpt lat="45.62245975092559" lon="10.812760083428257"><ele>472.0</ele><time>2026-03-28T14:22:32Z</time></trkpt><trkpt lat="45.62242524104471" lon="10.81286291127381"><ele>472.0</ele><time>2026-03-28T14:22:34Z</time></trkpt><trkpt lat="45.62235726544614" lon="10.81293928808391"><ele>472.00000000000006</ele><time>2026-03-28T14:22:36Z</time></trkpt><trkpt lat="45.622289475073174" lon="10.813003261063733"><ele>472.0</ele><time>2026-03-28T14:22:38Z</time></trkpt><trkpt lat="45.62223581564261" lon="10.813107804568922"><ele>470.1666666666667</ele><time>2026-03-28T14:22:41Z</time></trkpt><trkpt lat="45.62222946807697" lon="10.81320509911726"><ele>468.33333333333337</ele><time>2026-03-28T14:22:45Z</time></trkpt><trkpt lat="45.62228099293467" lon="10.813318574975863"><ele>466.5</ele><time>2026-03-28T14:22:50Z</time></trkpt><trkpt lat="45.62225911113966" lon="10.813404390564026"><ele>464.66666666666663</ele><time>2026-03-28T14:22:51Z</time></trkpt><trkpt lat="45.62228759977991" lon="10.813549713108054"><ele>462.8333333333333</ele><time>2026-03-28T14:22:53Z</time></trkpt><trkpt lat="45.62233220730629" lon="10.813615546764318"><ele>461.0</ele><time>2026-03-28T14:22:54Z</time></trkpt><trkpt lat="45.62238943039152" lon="10.813661206761726"><ele>460.14285714285717</ele><time>2026-03-28T14:22:55Z</time></trkpt><trkpt lat="45.62248000915668" lon="10.813734329049055"><ele>459.28571428571433</ele><time>2026-03-28T14:22:57Z</time></trkpt><trkpt lat="45.62252270659876" lon="10.813806999675743"><ele>458.42857142857144</ele><time>2026-03-28T14:23:01Z</time></trkpt><trkpt lat="45.62248132595796" lon="10.81373580169101"><ele>457.57142857142856</ele><time>2026-03-28T14:23:09Z</time></trkpt><trkpt lat="45.622424927754466" lon="10.81368084409723"><ele>456.7142857142857</ele><time>2026-03-28T14:23:12Z</time></trkpt><trkpt lat="45.62237094660257" lon="10.81362644270467"><ele>455.8571428571429</ele><time>2026-03-28T14:23:15Z</time></trkpt><trkpt lat="45.62231067051839" lon="10.813561970787072"><ele>455.0</ele><time>2026-03-28T14:23:20Z</time></trkpt><trkpt lat="45.62214174127416" lon="10.813610284972315"><ele>455.0</ele><time>2026-03-28T14:23:22Z</time></trkpt><trkpt lat="45.62210257682544" lon="10.813533235048023"><ele>455.0</ele><time>2026-03-28T14:23:23Z</time></trkpt><trkpt lat="45.62206764137148" lon="10.813441315512522"><ele>455.0</ele><time>2026-03-28T14:23:25Z</time></trkpt><trkpt lat="45.62207288897188" lon="10.81279497443758"><ele>454.0</ele><time>2026-03-28T14:23:34Z</time></trkpt><trkpt lat="45.62201743217146" lon="10.812670222458587"><ele>453.0</ele><time>2026-03-28T14:23:36Z</time></trkpt><trkpt lat="45.622002841187744" lon="10.812534375073959"><ele>452.0</ele><time>2026-03-28T14:23:38Z</time></trkpt><trkpt lat="45.621950669152156" lon="10.812387725738285"><ele>451.0</ele><time>2026-03-28T14:23:40Z</time></trkpt><trkpt lat="45.62189889837345" lon="10.812230282121888"><ele>450.0</ele><time>2026-03-28T14:23:42Z</time></trkpt><trkpt lat="45.621872575520065" lon="10.812145477313823"><ele>450.0</ele><time>2026-03-28T14:23:43Z</time></trkpt><trkpt lat="45.621846952190545" lon="10.812061462767838"><ele>450.0</ele><time>2026-03-28T14:23:44Z</time></trkpt><trkpt lat="45.62179098574303" lon="10.811887278447095"><ele>450.0</ele><time>2026-03-28T14:23:46Z</time></trkpt><trkpt lat="45.62174213083719" lon="10.811736678302793"><ele>450.0</ele><time>2026-03-28T14:23:48Z</time></trkpt><trkpt lat="45.621710223208865" lon="10.811644093828294"><ele>450.0</ele><time>2026-03-28T14:23:49Z</time></trkpt><trkpt lat="45.62167341050237" lon="10.81153727659307"><ele>450.57142857142867</ele><time>2026-03-28T14:23:50Z</time></trkpt><trkpt lat="45.62164037092155" lon="10.811450889714806"><ele>451.14285714285717</ele><time>2026-03-28T14:23:51Z</time></trkpt><trkpt lat="45.62160972148048" lon="10.811369347853201"><ele>451.7142857142858</ele><time>2026-03-28T14:23:52Z</time></trkpt><trkpt lat="45.62156253867549" lon="10.811285941892807"><ele>452.28571428571433</ele><time>2026-03-28T14:23:53Z</time></trkpt><trkpt lat="45.62153400604208" lon="10.811187697040747"><ele>452.8571428571429</ele><time>2026-03-28T14:23:54Z</time></trkpt><trkpt lat="45.62150855376157" lon="10.811082960061336"><ele>453.42857142857144</ele><time>2026-03-28T14:23:55Z</time></trkpt><trkpt lat="45.621476743810675" lon="10.810981174914039"><ele>454.0</ele><time>2026-03-28T14:23:56Z</time></trkpt><trkpt lat="45.62146064827249" lon="10.810878147301143"><ele>456.2</ele><time>2026-03-28T14:23:57Z</time></trkpt><trkpt lat="45.62144285799438" lon="10.810790245087402"><ele>458.4</ele><time>2026-03-28T14:23:58Z</time></trkpt><trkpt lat="45.621407161867545" lon="10.81065432103309"><ele>460.6</ele><time>2026-03-28T14:24:00Z</time></trkpt><trkpt lat="45.62139155661515" lon="10.810467611754639"><ele>462.8</ele><time>2026-03-28T14:24:02Z</time></trkpt><trkpt lat="45.62138144619279" lon="10.810360653787956"><ele>465.0</ele><time>2026-03-28T14:24:03Z</time></trkpt><trkpt lat="45.6212563446774" lon="10.810284738090155"><ele>465.0</ele><time>2026-03-28T14:24:04Z</time></trkpt><trkpt lat="45.62117212370367" lon="10.810179942502653"><ele>465.0</ele><time>2026-03-28T14:24:06Z</time></trkpt><trkpt lat="45.62107847041755" lon="10.810080075226269"><ele>465.0</ele><time>2026-03-28T14:24:08Z</time></trkpt><trkpt lat="45.62100514373813" lon="10.810042330437154"><ele>465.0</ele><time>2026-03-28T14:24:09Z</time></trkpt><trkpt lat="45.62093395026822" lon="10.809983120477856"><ele>465.0</ele><time>2026-03-28T14:24:10Z</time></trkpt><trkpt lat="45.62083448535245" lon="10.80987840846139"><ele>462.6666666666667</ele><time>2026-03-28T14:24:12Z</time></trkpt><trkpt lat="45.620727857402954" lon="10.80979787244787"><ele>460.33333333333337</ele><time>2026-03-28T14:24:14Z</time></trkpt><trkpt lat="45.62067320797195" lon="10.80974057461903"><ele>458.0</ele><time>2026-03-28T14:24:15Z</time></trkpt><trkpt lat="45.62062755998818" lon="10.809662485964168"><ele>455.6666666666667</ele><time>2026-03-28T14:24:16Z</time></trkpt><trkpt lat="45.6205749823271" lon="10.809606826588965"><ele>453.33333333333337</ele><time>2026-03-28T14:24:17Z</time></trkpt><trkpt lat="45.62050021381238" lon="10.809528764852608"><ele>451.0</ele><time>2026-03-28T14:24:19Z</time></trkpt><trkpt lat="45.62043219577627" lon="10.80948202069878"><ele>451.00000000000006</ele><time>2026-03-28T14:24:21Z</time></trkpt><trkpt lat="45.62037460450423" lon="10.809440577362547"><ele>451.0</ele><time>2026-03-28T14:24:23Z</time></trkpt><trkpt lat="45.6203127869886" lon="10.8093984960679"><ele>451.0</ele><time>2026-03-28T14:24:25Z</time></trkpt><trkpt lat="45.62020047562792" lon="10.809343608327422"><ele>451.0</ele><time>2026-03-28T14:24:27Z</time></trkpt><trkpt lat="45.62012000521668" lon="10.809297569641542"><ele>451.00000000000006</ele><time>2026-03-28T14:24:28Z</time></trkpt><trkpt lat="45.62005939261942" lon="10.809256026089447"><ele>451.0</ele><time>2026-03-28T14:24:29Z</time></trkpt><trkpt lat="45.6200011220288" lon="10.809210694038182"><ele>450.83333333333337</ele><time>2026-03-28T14:24:30Z</time></trkpt><trkpt lat="45.61993582828904" lon="10.809152449207138"><ele>450.6666666666667</ele><time>2026-03-28T14:24:31Z</time></trkpt><trkpt lat="45.619863274133614" lon="10.809098320753515"><ele>450.5</ele><time>2026-03-28T14:24:32Z</time></trkpt><trkpt lat="45.619798551539375" lon="10.80903455337377"><ele>450.33333333333337</ele><time>2026-03-28T14:24:33Z</time></trkpt><trkpt lat="45.61973595430461" lon="10.80895075368239"><ele>450.1666666666667</ele><time>2026-03-28T14:24:34Z</time></trkpt><trkpt lat="45.61967109274058" lon="10.80886064238515"><ele>450.0</ele><time>2026-03-28T14:24:35Z</time></trkpt><trkpt lat="45.61960484719932" lon="10.808782353446047"><ele>450.0</ele><time>2026-03-28T14:24:36Z</time></trkpt><trkpt lat="45.619550841788396" lon="10.808704391817852"><ele>450.0</ele><time>2026-03-28T14:24:37Z</time></trkpt><trkpt lat="45.619505063126326" lon="10.808624202777578"><ele>450.0</ele><time>2026-03-28T14:24:38Z</time></trkpt><trkpt lat="45.61946040309472" lon="10.808530717139627"><ele>450.0</ele><time>2026-03-28T14:24:39Z</time></trkpt><trkpt lat="45.61941481449805" lon="10.808427459284552"><ele>450.0</ele><time>2026-03-28T14:24:40Z</time></trkpt><trkpt lat="45.619383155395525" lon="10.808314566722293"><ele>450.0</ele><time>2026-03-28T14:24:41Z</time></trkpt><trkpt lat="45.619341501901" lon="10.808218247979502"><ele>449.6</ele><time>2026-03-28T14:24:42Z</time></trkpt><trkpt lat="45.6192840189783" lon="10.808120032479989"><ele>449.2</ele><time>2026-03-28T14:24:43Z</time></trkpt><trkpt lat="45.61921471542147" lon="10.808008638574544"><ele>448.79999999999995</ele><time>2026-03-28T14:24:44Z</time></trkpt><trkpt lat="45.61915871693961" lon="10.80790877542622"><ele>448.4</ele><time>2026-03-28T14:24:45Z</time></trkpt><trkpt lat="45.61908063531483" lon="10.807783136834265"><ele>448.0</ele><time>2026-03-28T14:24:47Z</time></trkpt><trkpt lat="45.61902126039652" lon="10.807728500299726"><ele>448.00000000000006</ele><time>2026-03-28T14:24:48Z</time></trkpt><trkpt lat="45.618950661265316" lon="10.807674742517788"><ele>448.0</ele><time>2026-03-28T14:24:49Z</time></trkpt><trkpt lat="45.61888471477642" lon="10.807603776530113"><ele>448.0</ele><time>2026-03-28T14:24:50Z</time></trkpt><trkpt lat="45.61883489251214" lon="10.807526535659669"><ele>448.0</ele><time>2026-03-28T14:24:51Z</time></trkpt><trkpt lat="45.618783062172" lon="10.807438878269071"><ele>448.00000000000006</ele><time>2026-03-28T14:24:53Z</time></trkpt><trkpt lat="45.618727682529155" lon="10.807354766454363"><ele>448.0</ele><time>2026-03-28T14:24:55Z</time></trkpt><trkpt lat="45.61866706419301" lon="10.807191861474132"><ele>447.0</ele><time>2026-03-28T14:24:57Z</time></trkpt><trkpt lat="45.61862091470072" lon="10.807107122739314"><ele>446.0</ele><time>2026-03-28T14:24:58Z</time></trkpt><trkpt lat="45.61857933929889" lon="10.807015313740564"><ele>445.0</ele><time>2026-03-28T14:24:59Z</time></trkpt><trkpt lat="45.61854154012213" lon="10.806910886904355"><ele>444.0</ele><time>2026-03-28T14:25:00Z</time></trkpt><trkpt lat="45.618521427264604" lon="10.806821697321562"><ele>443.0</ele><time>2026-03-28T14:25:01Z</time></trkpt><trkpt lat="45.61848875843869" lon="10.806742787686787"><ele>442.0</ele><time>2026-03-28T14:25:02Z</time></trkpt><trkpt lat="45.61845604581336" lon="10.806660102587486"><ele>441.0</ele><time>2026-03-28T14:25:03Z</time></trkpt><trkpt lat="45.618419633320016" lon="10.806565274872957"><ele>441.0</ele><time>2026-03-28T14:25:04Z</time></trkpt><trkpt lat="45.61839341017071" lon="10.80646868823553"><ele>441.0</ele><time>2026-03-28T14:25:05Z</time></trkpt><trkpt lat="45.61835080211122" lon="10.806383782860863"><ele>441.0</ele><time>2026-03-28T14:25:06Z</time></trkpt><trkpt lat="45.618319094203564" lon="10.806300402631166"><ele>441.0</ele><time>2026-03-28T14:25:07Z</time></trkpt><trkpt lat="45.618279146522426" lon="10.806189530871354"><ele>441.0</ele><time>2026-03-28T14:25:08Z</time></trkpt><trkpt lat="45.618252085880435" lon="10.806093831098634"><ele>441.0</ele><time>2026-03-28T14:25:09Z</time></trkpt><trkpt lat="45.618213652866224" lon="10.805988260316271"><ele>442.6666666666667</ele><time>2026-03-28T14:25:10Z</time></trkpt><trkpt lat="45.61817251762185" lon="10.805903660287296"><ele>444.33333333333337</ele><time>2026-03-28T14:25:11Z</time></trkpt><trkpt lat="45.61813698782583" lon="10.805828653078256"><ele>446.0</ele><time>2026-03-28T14:25:12Z</time></trkpt><trkpt lat="45.61806931318881" lon="10.80568346821997"><ele>447.6666666666667</ele><time>2026-03-28T14:25:14Z</time></trkpt><trkpt lat="45.61805502781712" lon="10.805559990940132"><ele>449.33333333333337</ele><time>2026-03-28T14:25:16Z</time></trkpt><trkpt lat="45.61803616717757" lon="10.805458138630158"><ele>451.0</ele><time>2026-03-28T14:25:18Z</time></trkpt><trkpt lat="45.618027808786344" lon="10.805349271387701"><ele>451.00000000000006</ele><time>2026-03-28T14:25:20Z</time></trkpt><trkpt lat="45.61799394715535" lon="10.805233740532637"><ele>451.0</ele><time>2026-03-28T14:25:22Z</time></trkpt><trkpt lat="45.61797625914794" lon="10.805123071141052"><ele>451.0</ele><time>2026-03-28T14:25:24Z</time></trkpt><trkpt lat="45.617936965219286" lon="10.805039949683724"><ele>451.0</ele><time>2026-03-28T14:25:36Z</time></trkpt><trkpt lat="45.617879760375196" lon="10.804972520639243"><ele>451.00000000000006</ele><time>2026-03-28T14:25:59Z</time></trkpt><trkpt lat="45.61777797406809" lon="10.804894412057196"><ele>451.0</ele><time>2026-03-28T14:26:11Z</time></trkpt><trkpt lat="45.61772759365288" lon="10.804829269555503"><ele>448.0</ele><time>2026-03-28T14:26:12Z</time></trkpt><trkpt lat="45.617685762758256" lon="10.804752244475356"><ele>445.0</ele><time>2026-03-28T14:26:13Z</time></trkpt><trkpt lat="45.61758180310792" lon="10.804635592504518"><ele>442.0</ele><time>2026-03-28T14:26:15Z</time></trkpt><trkpt lat="45.61750871619808" lon="10.804574764376566"><ele>439.0</ele><time>2026-03-28T14:26:16Z</time></trkpt><trkpt lat="45.61743557432612" lon="10.804516515341529"><ele>436.0</ele><time>2026-03-28T14:26:17Z</time></trkpt><trkpt lat="45.61736137013261" lon="10.80443202790288"><ele>436.00000000000006</ele><time>2026-03-28T14:26:18Z</time></trkpt><trkpt lat="45.61730247509442" lon="10.804353770637462"><ele>436.0</ele><time>2026-03-28T14:26:19Z</time></trkpt><trkpt lat="45.617235959776416" lon="10.804285895915212"><ele>436.0</ele><time>2026-03-28T14:26:20Z</time></trkpt><trkpt lat="45.61716331633548" lon="10.804220874242366"><ele>436.0</ele><time>2026-03-28T14:26:21Z</time></trkpt><trkpt lat="45.617061518912976" lon="10.804176070080093"><ele>436.00000000000006</ele><time>2026-03-28T14:26:23Z</time></trkpt><trkpt lat="45.61700351045249" lon="10.804120930794822"><ele>436.0</ele><time>2026-03-28T14:26:24Z</time></trkpt><trkpt lat="45.6169099406215" lon="10.804033344697883"><ele>437.50000000000006</ele><time>2026-03-28T14:26:25Z</time></trkpt><trkpt lat="45.616840214253244" lon="10.803945766087141"><ele>439.0</ele><time>2026-03-28T14:26:26Z</time></trkpt><trkpt lat="45.6167831434205" lon="10.803873698805017"><ele>440.5</ele><time>2026-03-28T14:26:27Z</time></trkpt><trkpt lat="45.616710154426485" lon="10.803809682891824"><ele>442.0</ele><time>2026-03-28T14:26:28Z</time></trkpt><trkpt lat="45.61665074719054" lon="10.803749140756858"><ele>443.50000000000006</ele><time>2026-03-28T14:26:29Z</time></trkpt><trkpt lat="45.61655762105065" lon="10.8036733582681"><ele>445.0</ele><time>2026-03-28T14:26:31Z</time></trkpt><trkpt lat="45.616478263793475" lon="10.803606698253809"><ele>445.00000000000006</ele><time>2026-03-28T14:26:33Z</time></trkpt><trkpt lat="45.61643324085847" lon="10.803539374871846"><ele>445.0</ele><time>2026-03-28T14:28:31Z</time></trkpt><trkpt lat="45.61635295338118" lon="10.803429913815652"><ele>445.0</ele><time>2026-03-28T14:28:34Z</time></trkpt><trkpt lat="45.61627342077323" lon="10.803308649424274"><ele>445.0</ele><time>2026-03-28T14:28:36Z</time></trkpt><trkpt lat="45.61622749326345" lon="10.803235294073625"><ele>445.00000000000006</ele><time>2026-03-28T14:28:37Z</time></trkpt><trkpt lat="45.61616821111064" lon="10.803195029958227"><ele>445.0</ele><time>2026-03-28T14:28:38Z</time></trkpt><trkpt lat="45.61608081034443" lon="10.80307171401594"><ele>445.4</ele><time>2026-03-28T14:28:40Z</time></trkpt><trkpt lat="45.61602281607319" lon="10.80300882029516"><ele>445.8</ele><time>2026-03-28T14:28:41Z</time></trkpt><trkpt lat="45.61593434751639" lon="10.802912877773501"><ele>446.20000000000005</ele><time>2026-03-28T14:28:43Z</time></trkpt><trkpt lat="45.615844949758156" lon="10.802851438249888"><ele>446.6</ele><time>2026-03-28T14:28:45Z</time></trkpt><trkpt lat="45.61576104719824" lon="10.802759425403814"><ele>447.0</ele><time>2026-03-28T14:28:47Z</time></trkpt><trkpt lat="45.61571303264377" lon="10.802610341047028"><ele>445.6</ele><time>2026-03-28T14:28:49Z</time></trkpt><trkpt lat="45.61565090485674" lon="10.802454735696985"><ele>444.20000000000005</ele><time>2026-03-28T14:28:51Z</time></trkpt><trkpt lat="45.615626339114755" lon="10.802365437698764"><ele>442.8</ele><time>2026-03-28T14:28:52Z</time></trkpt><trkpt lat="45.615587999545866" lon="10.802201126981503"><ele>441.4</ele><time>2026-03-28T14:28:54Z</time></trkpt><trkpt lat="45.61556774674004" lon="10.802101355540831"><ele>440.0</ele><time>2026-03-28T14:28:55Z</time></trkpt><trkpt lat="45.615544266442434" lon="10.80201577928481"><ele>440.0</ele><time>2026-03-28T14:28:56Z</time></trkpt><trkpt lat="45.615506380521694" lon="10.801859812905471"><ele>440.0</ele><time>2026-03-28T14:28:58Z</time></trkpt><trkpt lat="45.61544564268376" lon="10.80175264907275"><ele>440.0</ele><time>2026-03-28T14:29:00Z</time></trkpt><trkpt lat="45.61540831115473" lon="10.801673757985819"><ele>440.0</ele><time>2026-03-28T14:29:01Z</time></trkpt><trkpt lat="45.61532393788479" lon="10.80154580715858"><ele>440.0</ele><time>2026-03-28T14:29:03Z</time></trkpt><trkpt lat="45.615251737042904" lon="10.801435652313845"><ele>438.0</ele><time>2026-03-28T14:29:05Z</time></trkpt><trkpt lat="45.61524080141997" lon="10.801282053816946"><ele>436.0</ele><time>2026-03-28T14:29:07Z</time></trkpt><trkpt lat="45.61523354392944" lon="10.801188609083393"><ele>434.0</ele><time>2026-03-28T14:29:08Z</time></trkpt><trkpt lat="45.61522243814458" lon="10.800977877056823"><ele>432.0</ele><time>2026-03-28T14:29:10Z</time></trkpt><trkpt lat="45.6152164229328" lon="10.800874802477532"><ele>430.0</ele><time>2026-03-28T14:29:11Z</time></trkpt><trkpt lat="45.615190058528164" lon="10.800720299208605"><ele>428.6666666666667</ele><time>2026-03-28T14:29:13Z</time></trkpt><trkpt lat="45.615186151399456" lon="10.800628176435"><ele>427.33333333333337</ele><time>2026-03-28T14:29:14Z</time></trkpt><trkpt lat="45.615177329582" lon="10.8004628042479"><ele>426.0</ele><time>2026-03-28T14:29:16Z</time></trkpt><trkpt lat="45.61516133650377" lon="10.800372105797193"><ele>424.66666666666663</ele><time>2026-03-28T14:29:17Z</time></trkpt><trkpt lat="45.6151754481058" lon="10.80023630133942"><ele>423.3333333333333</ele><time>2026-03-28T14:29:19Z</time></trkpt><trkpt lat="45.615208152308576" lon="10.800109056197934"><ele>422.0</ele><time>2026-03-28T14:29:21Z</time></trkpt><trkpt lat="45.61524513971571" lon="10.800012370999648"><ele>420.0</ele><time>2026-03-28T14:29:22Z</time></trkpt><trkpt lat="45.61530971167504" lon="10.799855059766678"><ele>418.0</ele><time>2026-03-28T14:29:24Z</time></trkpt><trkpt lat="45.61534348040835" lon="10.799764062736006"><ele>416.0</ele><time>2026-03-28T14:29:25Z</time></trkpt><trkpt lat="45.615383829249986" lon="10.799663789582397"><ele>414.0</ele><time>2026-03-28T14:29:26Z</time></trkpt><trkpt lat="45.615380491785864" lon="10.79949462083086"><ele>412.0</ele><time>2026-03-28T14:29:28Z</time></trkpt><trkpt lat="45.615361524412414" lon="10.79938016324506"><ele>411.00000000000006</ele><time>2026-03-28T14:29:29Z</time></trkpt><trkpt lat="45.61534441788905" lon="10.799255855477455"><ele>410.0</ele><time>2026-03-28T14:29:30Z</time></trkpt><trkpt lat="45.615323528061154" lon="10.799129475633677"><ele>409.0</ele><time>2026-03-28T14:29:31Z</time></trkpt><trkpt lat="45.61529747920107" lon="10.799020254787846"><ele>408.0</ele><time>2026-03-28T14:29:32Z</time></trkpt><trkpt lat="45.61527617997846" lon="10.798910543640762"><ele>407.00000000000006</ele><time>2026-03-28T14:29:33Z</time></trkpt><trkpt lat="45.615246639509074" lon="10.798819959108075"><ele>406.0</ele><time>2026-03-28T14:29:34Z</time></trkpt><trkpt lat="45.61522959200168" lon="10.79871826767175"><ele>406.0</ele><time>2026-03-28T14:29:35Z</time></trkpt><trkpt lat="45.61520343916874" lon="10.79862712715752"><ele>406.0</ele><time>2026-03-28T14:29:36Z</time></trkpt><trkpt lat="45.615175977339405" lon="10.798524101069955"><ele>406.0</ele><time>2026-03-28T14:29:37Z</time></trkpt><trkpt lat="45.61514905166131" lon="10.798421847234284"><ele>406.0</ele><time>2026-03-28T14:29:38Z</time></trkpt><trkpt lat="45.6151226843359" lon="10.798321713843285"><ele>406.0</ele><time>2026-03-28T14:29:39Z</time></trkpt><trkpt lat="45.615095234944064" lon="10.798223165545743"><ele>406.0</ele><time>2026-03-28T14:29:40Z</time></trkpt><trkpt lat="45.61504705217002" lon="10.798145598332153"><ele>406.0</ele><time>2026-03-28T14:29:41Z</time></trkpt><trkpt lat="45.61503427824379" lon="10.79805535827813"><ele>406.33333333333337</ele><time>2026-03-28T14:29:42Z</time></trkpt><trkpt lat="45.6150114871841" lon="10.797970915321516"><ele>406.6666666666667</ele><time>2026-03-28T14:29:43Z</time></trkpt><trkpt lat="45.61499264701362" lon="10.797884631700759"><ele>407.0</ele><time>2026-03-28T14:29:44Z</time></trkpt><trkpt lat="45.614961057122834" lon="10.797763688471719"><ele>407.33333333333337</ele><time>2026-03-28T14:29:45Z</time></trkpt><trkpt lat="45.614939306748134" lon="10.797661421833975"><ele>407.6666666666667</ele><time>2026-03-28T14:29:46Z</time></trkpt><trkpt lat="45.614912357067126" lon="10.797502855330064"><ele>408.0</ele><time>2026-03-28T14:29:48Z</time></trkpt><trkpt lat="45.614861035416745" lon="10.797288339103263"><ele>408.0</ele><time>2026-03-28T14:29:50Z</time></trkpt><trkpt lat="45.61483820226314" lon="10.797099223649653"><ele>408.0</ele><time>2026-03-28T14:29:52Z</time></trkpt><trkpt lat="45.614849088459486" lon="10.796919998505885"><ele>408.0</ele><time>2026-03-28T14:29:54Z</time></trkpt><trkpt lat="45.61484729043678" lon="10.79682263259456"><ele>408.0</ele><time>2026-03-28T14:29:55Z</time></trkpt><trkpt lat="45.61484561717131" lon="10.796727980384372"><ele>408.0</ele><time>2026-03-28T14:29:56Z</time></trkpt><trkpt lat="45.614828719769434" lon="10.796542668151067"><ele>407.59999999999997</ele><time>2026-03-28T14:29:58Z</time></trkpt><trkpt lat="45.61476353518825" lon="10.796397441967937"><ele>407.2</ele><time>2026-03-28T14:30:00Z</time></trkpt><trkpt lat="45.614737057712986" lon="10.796243837017236"><ele>406.8</ele><time>2026-03-28T14:30:02Z</time></trkpt><trkpt lat="45.61465124354823" lon="10.796136945680601"><ele>406.4</ele><time>2026-03-28T14:30:04Z</time></trkpt><trkpt lat="45.61457207369922" lon="10.79611596210187"><ele>406.0</ele><time>2026-03-28T14:30:05Z</time></trkpt><trkpt lat="45.61448518209723" lon="10.796097264650616"><ele>402.33333333333337</ele><time>2026-03-28T14:30:06Z</time></trkpt><trkpt lat="45.61440269997011" lon="10.796077815843029"><ele>398.6666666666667</ele><time>2026-03-28T14:30:07Z</time></trkpt><trkpt lat="45.61433093513373" lon="10.796062591007418"><ele>395.0</ele><time>2026-03-28T14:30:08Z</time></trkpt><trkpt lat="45.61426122100608" lon="10.796061644922165"><ele>391.33333333333337</ele><time>2026-03-28T14:30:09Z</time></trkpt><trkpt lat="45.61419768662235" lon="10.796045006749555"><ele>387.6666666666667</ele><time>2026-03-28T14:30:10Z</time></trkpt><trkpt lat="45.61412494452066" lon="10.79601644998686"><ele>384.0</ele><time>2026-03-28T14:30:11Z</time></trkpt><trkpt lat="45.61405684965945" lon="10.795946242635067"><ele>384.0</ele><time>2026-03-28T14:30:12Z</time></trkpt><trkpt lat="45.613954848320866" lon="10.795883038896326"><ele>384.0</ele><time>2026-03-28T14:30:14Z</time></trkpt><trkpt lat="45.61388260151415" lon="10.79581052694316"><ele>384.0</ele><time>2026-03-28T14:30:17Z</time></trkpt><trkpt lat="45.61384361003829" lon="10.795663521852944"><ele>384.0</ele><time>2026-03-28T14:30:20Z</time></trkpt><trkpt lat="45.61380053090811" lon="10.795503206023387"><ele>384.0</ele><time>2026-03-28T14:30:22Z</time></trkpt><trkpt lat="45.613777660900304" lon="10.795403411986118"><ele>384.0</ele><time>2026-03-28T14:30:23Z</time></trkpt><trkpt lat="45.61376265757185" lon="10.79530172871959"><ele>384.0</ele><time>2026-03-28T14:30:24Z</time></trkpt><trkpt lat="45.61373751423735" lon="10.795187795705308"><ele>384.0</ele><time>2026-03-28T14:30:25Z</time></trkpt><trkpt lat="45.61370125048935" lon="10.795064046003839"><ele>384.0</ele><time>2026-03-28T14:30:26Z</time></trkpt><trkpt lat="45.61364825014412" lon="10.794960003429184"><ele>384.0</ele><time>2026-03-28T14:30:27Z</time></trkpt><trkpt lat="45.61362672279654" lon="10.794831188857614"><ele>384.0</ele><time>2026-03-28T14:30:28Z</time></trkpt><trkpt lat="45.61360409738449" lon="10.794727130873685"><ele>383.4</ele><time>2026-03-28T14:30:29Z</time></trkpt><trkpt lat="45.6135866848071" lon="10.794628211141129"><ele>382.79999999999995</ele><time>2026-03-28T14:30:30Z</time></trkpt><trkpt lat="45.613553435537106" lon="10.7944502321509"><ele>382.20000000000005</ele><time>2026-03-28T14:30:32Z</time></trkpt><trkpt lat="45.61352177646647" lon="10.794297420292983"><ele>381.6</ele><time>2026-03-28T14:30:33Z</time></trkpt><trkpt lat="45.61348550640448" lon="10.794143385162858"><ele>381.0</ele><time>2026-03-28T14:30:34Z</time></trkpt><trkpt lat="45.61345232574981" lon="10.794019380314198"><ele>381.0</ele><time>2026-03-28T14:30:35Z</time></trkpt><trkpt lat="45.613388454944584" lon="10.793903585307064"><ele>381.0</ele><time>2026-03-28T14:30:36Z</time></trkpt><trkpt lat="45.61332355203327" lon="10.793776767846598"><ele>381.0</ele><time>2026-03-28T14:30:37Z</time></trkpt><trkpt lat="45.61326354264819" lon="10.793654152343628"><ele>381.0</ele><time>2026-03-28T14:30:38Z</time></trkpt><trkpt lat="45.61320663467689" lon="10.793554187301918"><ele>381.0</ele><time>2026-03-28T14:30:39Z</time></trkpt><trkpt lat="45.61316782419787" lon="10.793465686621301"><ele>383.4</ele><time>2026-03-28T14:30:40Z</time></trkpt><trkpt lat="45.61309165724957" lon="10.793397022247122"><ele>385.8</ele><time>2026-03-28T14:30:41Z</time></trkpt><trkpt lat="45.61303328927859" lon="10.79335584554332"><ele>388.2</ele><time>2026-03-28T14:30:42Z</time></trkpt><trkpt lat="45.61295856378528" lon="10.793280917543694"><ele>390.59999999999997</ele><time>2026-03-28T14:30:43Z</time></trkpt><trkpt lat="45.61286266918057" lon="10.793184483089785"><ele>393.0</ele><time>2026-03-28T14:30:44Z</time></trkpt><trkpt lat="45.61279225627197" lon="10.793078253931084"><ele>390.1666666666667</ele><time>2026-03-28T14:30:45Z</time></trkpt><trkpt lat="45.61272818652478" lon="10.792973077973862"><ele>387.3333333333333</ele><time>2026-03-28T14:30:46Z</time></trkpt><trkpt lat="45.61267622300601" lon="10.792875829677614"><ele>384.5</ele><time>2026-03-28T14:30:47Z</time></trkpt><trkpt lat="45.61262446450531" lon="10.792762151407825"><ele>381.66666666666663</ele><time>2026-03-28T14:30:48Z</time></trkpt><trkpt lat="45.612591386046056" lon="10.792648425322275"><ele>378.8333333333333</ele><time>2026-03-28T14:30:49Z</time></trkpt><trkpt lat="45.612573391001405" lon="10.792549850925687"><ele>376.0</ele><time>2026-03-28T14:30:50Z</time></trkpt><trkpt lat="45.61255802150152" lon="10.792442877752178"><ele>376.0</ele><time>2026-03-28T14:30:51Z</time></trkpt><trkpt lat="45.612554347660236" lon="10.792351567168183"><ele>376.0</ele><time>2026-03-28T14:30:52Z</time></trkpt><trkpt lat="45.61254304925554" lon="10.792237073802287"><ele>376.0</ele><time>2026-03-28T14:30:53Z</time></trkpt><trkpt lat="45.61256377712824" lon="10.792115940013401"><ele>376.0</ele><time>2026-03-28T14:30:54Z</time></trkpt><trkpt lat="45.61259762834672" lon="10.79201593068797"><ele>376.0</ele><time>2026-03-28T14:30:55Z</time></trkpt><trkpt lat="45.612646204921255" lon="10.79194225423498"><ele>376.0</ele><time>2026-03-28T14:30:56Z</time></trkpt><trkpt lat="45.61269814338434" lon="10.791857480945243"><ele>375.4</ele><time>2026-03-28T14:30:57Z</time></trkpt><trkpt lat="45.61269185562921" lon="10.791702842929503"><ele>374.8</ele><time>2026-03-28T14:30:59Z</time></trkpt><trkpt lat="45.612676545389974" lon="10.791580147479088"><ele>374.2</ele><time>2026-03-28T14:31:00Z</time></trkpt><trkpt lat="45.61266682375461" lon="10.791435549218946"><ele>373.59999999999997</ele><time>2026-03-28T14:31:01Z</time></trkpt><trkpt lat="45.61265172960791" lon="10.791295939437864"><ele>373.0</ele><time>2026-03-28T14:31:02Z</time></trkpt><trkpt lat="45.61264465494758" lon="10.791170028517035"><ele>373.0</ele><time>2026-03-28T14:31:03Z</time></trkpt><trkpt lat="45.61263492498594" lon="10.791035156734475"><ele>373.0</ele><time>2026-03-28T14:31:04Z</time></trkpt><trkpt lat="45.612616603939216" lon="10.790915388695081"><ele>373.0</ele><time>2026-03-28T14:31:05Z</time></trkpt><trkpt lat="45.61261284482028" lon="10.790783313192991"><ele>373.0</ele><time>2026-03-28T14:31:06Z</time></trkpt><trkpt lat="45.61260293594634" lon="10.790668559790946"><ele>373.0</ele><time>2026-03-28T14:31:07Z</time></trkpt><trkpt lat="45.61260132790598" lon="10.790544198853485"><ele>373.0</ele><time>2026-03-28T14:31:08Z</time></trkpt><trkpt lat="45.61257921574886" lon="10.790415425500628"><ele>372.5</ele><time>2026-03-28T14:31:09Z</time></trkpt><trkpt lat="45.61253868888665" lon="10.790298358949556"><ele>372.0</ele><time>2026-03-28T14:31:10Z</time></trkpt><trkpt lat="45.61247713412811" lon="10.790153094649302"><ele>371.5</ele><time>2026-03-28T14:31:11Z</time></trkpt><trkpt lat="45.61240642754596" lon="10.789972140153516"><ele>371.0</ele><time>2026-03-28T14:31:12Z</time></trkpt><trkpt lat="45.61234348043381" lon="10.789839080318005"><ele>371.0</ele><time>2026-03-28T14:31:13Z</time></trkpt><trkpt lat="45.6122766177083" lon="10.789726011352464"><ele>371.0</ele><time>2026-03-28T14:31:14Z</time></trkpt><trkpt lat="45.61217857516316" lon="10.789604356661059"><ele>371.0</ele><time>2026-03-28T14:31:15Z</time></trkpt><trkpt lat="45.612062461966254" lon="10.789453947932607"><ele>371.0</ele><time>2026-03-28T14:31:16Z</time></trkpt><trkpt lat="45.61197405625564" lon="10.789307265838962"><ele>367.5</ele><time>2026-03-28T14:31:17Z</time></trkpt><trkpt lat="45.61188423336752" lon="10.789208059254944"><ele>364.0</ele><time>2026-03-28T14:31:18Z</time></trkpt><trkpt lat="45.61181421181894" lon="10.78910640205963"><ele>360.5</ele><time>2026-03-28T14:31:19Z</time></trkpt><trkpt lat="45.61175390361527" lon="10.789014207936418"><ele>357.0</ele><time>2026-03-28T14:31:20Z</time></trkpt><trkpt lat="45.611686048350194" lon="10.788818554099691"><ele>357.0</ele><time>2026-03-28T14:31:22Z</time></trkpt><trkpt lat="45.61167612500541" lon="10.788668984434555"><ele>357.0</ele><time>2026-03-28T14:31:23Z</time></trkpt><trkpt lat="45.611671095271326" lon="10.788559056766301"><ele>357.0</ele><time>2026-03-28T14:31:24Z</time></trkpt><trkpt lat="45.61168032250838" lon="10.788423814903515"><ele>357.0</ele><time>2026-03-28T14:31:25Z</time></trkpt><trkpt lat="45.61170371767073" lon="10.78827618627204"><ele>357.0</ele><time>2026-03-28T14:31:26Z</time></trkpt><trkpt lat="45.61172111390734" lon="10.788147738254874"><ele>357.0</ele><time>2026-03-28T14:31:27Z</time></trkpt><trkpt lat="45.61174041455671" lon="10.788037232023417"><ele>357.0</ele><time>2026-03-28T14:31:28Z</time></trkpt><trkpt lat="45.61179234857411" lon="10.787905348902019"><ele>357.0</ele><time>2026-03-28T14:31:29Z</time></trkpt><trkpt lat="45.61188333438013" lon="10.787770172035575"><ele>357.0</ele><time>2026-03-28T14:31:30Z</time></trkpt><trkpt lat="45.61195818928557" lon="10.787651765566201"><ele>357.0</ele><time>2026-03-28T14:31:31Z</time></trkpt><trkpt lat="45.61199612757569" lon="10.78751271028026"><ele>355.8</ele><time>2026-03-28T14:31:32Z</time></trkpt><trkpt lat="45.612005079814466" lon="10.78737360263818"><ele>354.6</ele><time>2026-03-28T14:31:33Z</time></trkpt><trkpt lat="45.61198729539831" lon="10.787234652063601"><ele>353.40000000000003</ele><time>2026-03-28T14:31:34Z</time></trkpt><trkpt lat="45.61195741920587" lon="10.787088921158961"><ele>352.20000000000005</ele><time>2026-03-28T14:31:35Z</time></trkpt><trkpt lat="45.61193408563156" lon="10.786962211452021"><ele>351.0</ele><time>2026-03-28T14:31:36Z</time></trkpt><trkpt lat="45.61189028418094" lon="10.786882600913419"><ele>351.25</ele><time>2026-03-28T14:31:37Z</time></trkpt><trkpt lat="45.611829612180586" lon="10.786795745172277"><ele>351.5</ele><time>2026-03-28T14:31:38Z</time></trkpt><trkpt lat="45.611732338376086" lon="10.786729473233494"><ele>351.75</ele><time>2026-03-28T14:31:39Z</time></trkpt><trkpt lat="45.61161080271384" lon="10.786638405019312"><ele>352.0</ele><time>2026-03-28T14:31:40Z</time></trkpt><trkpt lat="45.61151197345689" lon="10.786531715464964"><ele>352.0</ele><time>2026-03-28T14:31:41Z</time></trkpt><trkpt lat="45.61141890057718" lon="10.786409417325231"><ele>352.0</ele><time>2026-03-28T14:31:42Z</time></trkpt><trkpt lat="45.61133332369944" lon="10.786287596394526"><ele>352.0</ele><time>2026-03-28T14:31:43Z</time></trkpt><trkpt lat="45.61124468063316" lon="10.786156654696384"><ele>352.0</ele><time>2026-03-28T14:31:44Z</time></trkpt><trkpt lat="45.611164093350006" lon="10.78602647418129"><ele>349.25</ele><time>2026-03-28T14:31:45Z</time></trkpt><trkpt lat="45.61112814559065" lon="10.785880872907434"><ele>346.5</ele><time>2026-03-28T14:31:46Z</time></trkpt><trkpt lat="45.611083920188655" lon="10.785701253272535"><ele>343.75</ele><time>2026-03-28T14:31:47Z</time></trkpt><trkpt lat="45.61101838347613" lon="10.785539572582534"><ele>341.0</ele><time>2026-03-28T14:31:48Z</time></trkpt><trkpt lat="45.61097900963605" lon="10.785423707773573"><ele>345.25</ele><time>2026-03-28T14:31:49Z</time></trkpt><trkpt lat="45.61116261783012" lon="10.785432707439393"><ele>349.5</ele><time>2026-03-28T14:31:55Z</time></trkpt><trkpt lat="45.611275021200974" lon="10.785493223968802"><ele>353.75</ele><time>2026-03-28T14:31:56Z</time></trkpt><trkpt lat="45.61139357433388" lon="10.785474839334837"><ele>358.0</ele><time>2026-03-28T14:31:57Z</time></trkpt><trkpt lat="45.611528186698976" lon="10.785396340168953"><ele>358.0</ele><time>2026-03-28T14:31:58Z</time></trkpt><trkpt lat="45.611642866854794" lon="10.78528659301362"><ele>358.0</ele><time>2026-03-28T14:31:59Z</time></trkpt><trkpt lat="45.61171939921838" lon="10.785151537088764"><ele>358.0</ele><time>2026-03-28T14:32:00Z</time></trkpt><trkpt lat="45.61176601257107" lon="10.784977276495024"><ele>358.0</ele><time>2026-03-28T14:32:01Z</time></trkpt><trkpt lat="45.61177859356703" lon="10.784775991811243"><ele>358.3333333333333</ele><time>2026-03-28T14:32:02Z</time></trkpt><trkpt lat="45.61175499839681" lon="10.784534605312729"><ele>358.6666666666667</ele><time>2026-03-28T14:32:03Z</time></trkpt><trkpt lat="45.61172354929819" lon="10.784237544471173"><ele>359.0</ele><time>2026-03-28T14:32:04Z</time></trkpt><trkpt lat="45.61169202717744" lon="10.78393339126161"><ele>359.6666666666667</ele><time>2026-03-28T14:32:05Z</time></trkpt><trkpt lat="45.611671410145874" lon="10.783639399928074"><ele>360.3333333333333</ele><time>2026-03-28T14:32:06Z</time></trkpt><trkpt lat="45.61164921029403" lon="10.783343569925847"><ele>361.0</ele><time>2026-03-28T14:32:07Z</time></trkpt><trkpt lat="45.61162240281441" lon="10.783056519705926"><ele>362.0</ele><time>2026-03-28T14:32:08Z</time></trkpt><trkpt lat="45.61159981010767" lon="10.782765210006877"><ele>363.0</ele><time>2026-03-28T14:32:09Z</time></trkpt><trkpt lat="45.61158547035123" lon="10.782480549856178"><ele>364.0</ele><time>2026-03-28T14:32:10Z</time></trkpt><trkpt lat="45.61157533655539" lon="10.782184467413922"><ele>366.0</ele><time>2026-03-28T14:32:11Z</time></trkpt><trkpt lat="45.61157051711968" lon="10.781886429611768"><ele>368.0</ele><time>2026-03-28T14:32:12Z</time></trkpt><trkpt lat="45.61156947891721" lon="10.781587807602309"><ele>370.0</ele><time>2026-03-28T14:32:13Z</time></trkpt><trkpt lat="45.61157246877265" lon="10.781332073964235"><ele>370.66666666666663</ele><time>2026-03-28T14:32:14Z</time></trkpt><trkpt lat="45.61157351143804" lon="10.781098416350849"><ele>371.3333333333333</ele><time>2026-03-28T14:32:15Z</time></trkpt><trkpt lat="45.61155834626597" lon="10.780867783139405"><ele>372.0</ele><time>2026-03-28T14:32:16Z</time></trkpt><trkpt lat="45.61151544029984" lon="10.780634224742336"><ele>373.0</ele><time>2026-03-28T14:32:17Z</time></trkpt><trkpt lat="45.61143450867383" lon="10.780420150470594"><ele>374.0</ele><time>2026-03-28T14:32:18Z</time></trkpt><trkpt lat="45.61134696207166" lon="10.780244825684884"><ele>375.0</ele><time>2026-03-28T14:32:19Z</time></trkpt><trkpt lat="45.61129413384589" lon="10.780134449363528"><ele>376.0</ele><time>2026-03-28T14:32:20Z</time></trkpt><trkpt lat="45.61120290039024" lon="10.780130340825268"><ele>374.8</ele><time>2026-03-28T14:32:27Z</time></trkpt><trkpt lat="45.61109829390125" lon="10.780157111880737"><ele>373.6</ele><time>2026-03-28T14:32:29Z</time></trkpt><trkpt lat="45.61099584693337" lon="10.78017061557902"><ele>372.4</ele><time>2026-03-28T14:32:30Z</time></trkpt><trkpt lat="45.61090707241447" lon="10.780174834741095"><ele>371.2</ele><time>2026-03-28T14:32:31Z</time></trkpt><trkpt lat="45.6108170857288" lon="10.780145024264128"><ele>370.0</ele><time>2026-03-28T14:32:33Z</time></trkpt><trkpt lat="45.610672396559586" lon="10.780019089315907"><ele>370.0</ele><time>2026-03-28T14:32:35Z</time></trkpt><trkpt lat="45.61056498968415" lon="10.779958151691076"><ele>370.0</ele><time>2026-03-28T14:32:36Z</time></trkpt><trkpt lat="45.61045578717496" lon="10.779916617489171"><ele>370.0</ele><time>2026-03-28T14:32:37Z</time></trkpt><trkpt lat="45.610346312495416" lon="10.77988079209507"><ele>370.0</ele><time>2026-03-28T14:32:38Z</time></trkpt><trkpt lat="45.6102429215064" lon="10.77984919712712"><ele>370.0</ele><time>2026-03-28T14:32:39Z</time></trkpt><trkpt lat="45.61014318801324" lon="10.779821472152374"><ele>367.2</ele><time>2026-03-28T14:32:40Z</time></trkpt><trkpt lat="45.61005911367142" lon="10.779794920501894"><ele>364.4</ele><time>2026-03-28T14:32:41Z</time></trkpt><trkpt lat="45.609937398690036" lon="10.77974168177045"><ele>361.6</ele><time>2026-03-28T14:32:43Z</time></trkpt><trkpt lat="45.609862242228466" lon="10.779713575174718"><ele>358.8</ele><time>2026-03-28T14:32:44Z</time></trkpt><trkpt lat="45.609777572080056" lon="10.779697304962179"><ele>356.0</ele><time>2026-03-28T14:32:45Z</time></trkpt><trkpt lat="45.609682586552694" lon="10.779728419353196"><ele>356.0</ele><time>2026-03-28T14:32:46Z</time></trkpt><trkpt lat="45.6095875782111" lon="10.779757216857393"><ele>356.0</ele><time>2026-03-28T14:32:47Z</time></trkpt><trkpt lat="45.60949252337455" lon="10.779786028460151"><ele>356.0</ele><time>2026-03-28T14:32:48Z</time></trkpt><trkpt lat="45.609414305988345" lon="10.779805989465128"><ele>356.0</ele><time>2026-03-28T14:32:49Z</time></trkpt><trkpt lat="45.60933785940262" lon="10.779812768096297"><ele>356.0</ele><time>2026-03-28T14:32:50Z</time></trkpt><trkpt lat="45.609254999315915" lon="10.77977961214742"><ele>356.0</ele><time>2026-03-28T14:32:51Z</time></trkpt><trkpt lat="45.60915850703994" lon="10.779755523579679"><ele>352.4</ele><time>2026-03-28T14:32:52Z</time></trkpt><trkpt lat="45.60904810853722" lon="10.7797365257908"><ele>348.8</ele><time>2026-03-28T14:32:53Z</time></trkpt><trkpt lat="45.608939288993795" lon="10.779716728382246"><ele>345.2</ele><time>2026-03-28T14:32:54Z</time></trkpt><trkpt lat="45.60885708282496" lon="10.779691148175395"><ele>341.59999999999997</ele><time>2026-03-28T14:32:55Z</time></trkpt><trkpt lat="45.60877774254685" lon="10.779638863513892"><ele>338.0</ele><time>2026-03-28T14:32:56Z</time></trkpt><trkpt lat="45.60868413409657" lon="10.779574486225878"><ele>336.0</ele><time>2026-03-28T14:32:57Z</time></trkpt><trkpt lat="45.60857193632964" lon="10.779525273746847"><ele>334.0</ele><time>2026-03-28T14:32:58Z</time></trkpt><trkpt lat="45.60846890334873" lon="10.779452457567738"><ele>332.0</ele><time>2026-03-28T14:32:59Z</time></trkpt><trkpt lat="45.60836059111358" lon="10.779381540109851"><ele>330.0</ele><time>2026-03-28T14:33:00Z</time></trkpt><trkpt lat="45.60824106432103" lon="10.779343194163339"><ele>330.0</ele><time>2026-03-28T14:33:01Z</time></trkpt><trkpt lat="45.608131772696396" lon="10.779295769307613"><ele>330.0</ele><time>2026-03-28T14:33:02Z</time></trkpt><trkpt lat="45.608019511505994" lon="10.779241284109878"><ele>330.0</ele><time>2026-03-28T14:33:03Z</time></trkpt><trkpt lat="45.60792625315317" lon="10.779182646162692"><ele>330.0</ele><time>2026-03-28T14:33:04Z</time></trkpt><trkpt lat="45.60784125308346" lon="10.779120170324923"><ele>330.0</ele><time>2026-03-28T14:33:05Z</time></trkpt><trkpt lat="45.60775208792574" lon="10.77909293319566"><ele>328.8</ele><time>2026-03-28T14:33:06Z</time></trkpt><trkpt lat="45.60768108871117" lon="10.779044010194745"><ele>327.6</ele><time>2026-03-28T14:33:07Z</time></trkpt><trkpt lat="45.6075838889953" lon="10.778989071494228"><ele>326.4</ele><time>2026-03-28T14:33:08Z</time></trkpt><trkpt lat="45.607493673531266" lon="10.778931333349831"><ele>325.2</ele><time>2026-03-28T14:33:09Z</time></trkpt><trkpt lat="45.607393311487" lon="10.778892064398915"><ele>324.0</ele><time>2026-03-28T14:33:10Z</time></trkpt><trkpt lat="45.60727764822464" lon="10.778849011142558"><ele>324.0</ele><time>2026-03-28T14:33:11Z</time></trkpt><trkpt lat="45.60716064344313" lon="10.778792753709972"><ele>324.0</ele><time>2026-03-28T14:33:12Z</time></trkpt><trkpt lat="45.607033997663386" lon="10.778806704644571"><ele>324.0</ele><time>2026-03-28T14:33:13Z</time></trkpt><trkpt lat="45.60691520633698" lon="10.778813162168687"><ele>324.0</ele><time>2026-03-28T14:33:14Z</time></trkpt><trkpt lat="45.60679545032401" lon="10.778783003155413"><ele>321.59999999999997</ele><time>2026-03-28T14:33:15Z</time></trkpt><trkpt lat="45.6066781813745" lon="10.77875195971"><ele>319.2</ele><time>2026-03-28T14:33:16Z</time></trkpt><trkpt lat="45.60657000304585" lon="10.778708406092804"><ele>316.79999999999995</ele><time>2026-03-28T14:33:17Z</time></trkpt><trkpt lat="45.606481834108685" lon="10.778670908316226"><ele>314.4</ele><time>2026-03-28T14:33:18Z</time></trkpt><trkpt lat="45.60642460781927" lon="10.77860996049549"><ele>312.0</ele><time>2026-03-28T14:33:19Z</time></trkpt><trkpt lat="45.6063483049623" lon="10.778585242473422"><ele>312.0</ele><time>2026-03-28T14:33:20Z</time></trkpt><trkpt lat="45.60622932553951" lon="10.778540597446582"><ele>312.0</ele><time>2026-03-28T14:33:21Z</time></trkpt><trkpt lat="45.60615286465256" lon="10.778517122067248"><ele>312.0</ele><time>2026-03-28T14:33:23Z</time></trkpt><trkpt lat="45.6060471595244" lon="10.778483303711106"><ele>312.0</ele><time>2026-03-28T14:33:25Z</time></trkpt><trkpt lat="45.60594609877936" lon="10.778450433443169"><ele>312.0</ele><time>2026-03-28T14:33:27Z</time></trkpt><trkpt lat="45.6058643612094" lon="10.77842700927865"><ele>307.6</ele><time>2026-03-28T14:33:29Z</time></trkpt><trkpt lat="45.60578172257222" lon="10.778407404897273"><ele>303.2</ele><time>2026-03-28T14:33:31Z</time></trkpt><trkpt lat="45.60569582719294" lon="10.778394604885644"><ele>298.8</ele><time>2026-03-28T14:33:33Z</time></trkpt><trkpt lat="45.60559229848913" lon="10.77838231012436"><ele>294.4</ele><time>2026-03-28T14:33:36Z</time></trkpt><trkpt lat="45.60549382999404" lon="10.77837226831748"><ele>290.0</ele><time>2026-03-28T14:33:38Z</time></trkpt><trkpt lat="45.60540257903239" lon="10.778366220297865"><ele>287.33333333333337</ele><time>2026-03-28T14:33:40Z</time></trkpt><trkpt lat="45.60530660677217" lon="10.778368636255271"><ele>284.6666666666667</ele><time>2026-03-28T14:33:42Z</time></trkpt><trkpt lat="45.60522067479404" lon="10.778383170484645"><ele>282.0</ele><time>2026-03-28T14:33:44Z</time></trkpt><trkpt lat="45.60514186279227" lon="10.778396463518796"><ele>279.3333333333333</ele><time>2026-03-28T14:33:46Z</time></trkpt><trkpt lat="45.60503713292705" lon="10.778377327624778"><ele>276.66666666666663</ele><time>2026-03-28T14:33:48Z</time></trkpt><trkpt lat="45.60497338845549" lon="10.778350889152037"><ele>274.0</ele><time>2026-03-28T14:33:50Z</time></trkpt><trkpt lat="45.60485093480767" lon="10.778303346182321"><ele>274.0</ele><time>2026-03-28T14:33:52Z</time></trkpt><trkpt lat="45.60476672616733" lon="10.778276904552499"><ele>274.0</ele><time>2026-03-28T14:33:54Z</time></trkpt><trkpt lat="45.60469666009325" lon="10.778255912559317"><ele>274.0</ele><time>2026-03-28T14:33:56Z</time></trkpt><trkpt lat="45.60460302972924" lon="10.778256334311944"><ele>274.0</ele><time>2026-03-28T14:33:58Z</time></trkpt><trkpt lat="45.60453028204029" lon="10.778209686412978"><ele>274.0</ele><time>2026-03-28T14:34:04Z</time></trkpt><trkpt lat="45.604470578062255" lon="10.778175115784288"><ele>274.0</ele><time>2026-03-28T14:34:06Z</time></trkpt><trkpt lat="45.604399927644955" lon="10.778172580616449"><ele>271.59999999999997</ele><time>2026-03-28T14:34:08Z</time></trkpt><trkpt lat="45.60428920985254" lon="10.778194601792364"><ele>269.2</ele><time>2026-03-28T14:34:10Z</time></trkpt><trkpt lat="45.60418496547966" lon="10.778139149404188"><ele>266.79999999999995</ele><time>2026-03-28T14:34:12Z</time></trkpt><trkpt lat="45.604064543477264" lon="10.778146132130049"><ele>264.4</ele><time>2026-03-28T14:34:14Z</time></trkpt><trkpt lat="45.60397127931386" lon="10.77813176830029"><ele>262.0</ele><time>2026-03-28T14:34:16Z</time></trkpt><trkpt lat="45.60388615313805" lon="10.778109487500934"><ele>262.0</ele><time>2026-03-28T14:34:19Z</time></trkpt><trkpt lat="45.6037723711328" lon="10.778077827146003"><ele>262.0</ele><time>2026-03-28T14:34:21Z</time></trkpt><trkpt lat="45.60363978986293" lon="10.778065591283037"><ele>262.0</ele><time>2026-03-28T14:34:23Z</time></trkpt><trkpt lat="45.60354708512939" lon="10.778061847993069"><ele>262.0</ele><time>2026-03-28T14:34:24Z</time></trkpt><trkpt lat="45.603448553096385" lon="10.778036127113738"><ele>262.0</ele><time>2026-03-28T14:34:25Z</time></trkpt><trkpt lat="45.60335612309117" lon="10.778035550252786"><ele>259.25</ele><time>2026-03-28T14:34:26Z</time></trkpt><trkpt lat="45.60328385798614" lon="10.778035099241752"><ele>256.5</ele><time>2026-03-28T14:34:27Z</time></trkpt><trkpt lat="45.60319838616299" lon="10.778040060587672"><ele>253.75</ele><time>2026-03-28T14:34:29Z</time></trkpt><trkpt lat="45.603165250873246" lon="10.778333121700614"><ele>251.0</ele><time>2026-03-28T14:34:38Z</time></trkpt><trkpt lat="45.60322097504428" lon="10.778448614236897"><ele>250.25</ele><time>2026-03-28T14:34:39Z</time></trkpt><trkpt lat="45.60326921193021" lon="10.778578575723085"><ele>249.5</ele><time>2026-03-28T14:34:40Z</time></trkpt><trkpt lat="45.60330747629683" lon="10.778726819869044"><ele>248.75</ele><time>2026-03-28T14:34:41Z</time></trkpt><trkpt lat="45.60334862604613" lon="10.778888660564043"><ele>248.0</ele><time>2026-03-28T14:34:42Z</time></trkpt><trkpt lat="45.603394051014966" lon="10.779056752107104"><ele>248.0</ele><time>2026-03-28T14:34:43Z</time></trkpt><trkpt lat="45.60341346675445" lon="10.779212868013198"><ele>248.0</ele><time>2026-03-28T14:34:44Z</time></trkpt><trkpt lat="45.603448583049314" lon="10.779384833137671"><ele>248.0</ele><time>2026-03-28T14:34:45Z</time></trkpt><trkpt lat="45.603484678498894" lon="10.779595957298461"><ele>248.0</ele><time>2026-03-28T14:34:46Z</time></trkpt><trkpt lat="45.603522673323" lon="10.779844935310386"><ele>247.0</ele><time>2026-03-28T14:34:47Z</time></trkpt><trkpt lat="45.603571447162864" lon="10.780098178701573"><ele>246.0</ele><time>2026-03-28T14:34:48Z</time></trkpt><trkpt lat="45.60359973951896" lon="10.780351044654184"><ele>245.0</ele><time>2026-03-28T14:34:49Z</time></trkpt><trkpt lat="45.60363391343504" lon="10.780575471430911"><ele>247.25</ele><time>2026-03-28T14:34:50Z</time></trkpt><trkpt lat="45.60366444299551" lon="10.780775966519284"><ele>249.5</ele><time>2026-03-28T14:34:51Z</time></trkpt><trkpt lat="45.603707187209004" lon="10.780937011112275"><ele>251.75</ele><time>2026-03-28T14:34:52Z</time></trkpt><trkpt lat="45.60372532645979" lon="10.781067848701838"><ele>254.0</ele><time>2026-03-28T14:34:53Z</time></trkpt><trkpt lat="45.60370329640736" lon="10.781200867156024"><ele>252.6</ele><time>2026-03-28T14:34:55Z</time></trkpt><trkpt lat="45.60364742679635" lon="10.781280450749192"><ele>251.2</ele><time>2026-03-28T14:34:56Z</time></trkpt><trkpt lat="45.60356428015818" lon="10.78134849007897"><ele>249.79999999999998</ele><time>2026-03-28T14:34:57Z</time></trkpt><trkpt lat="45.603468213938605" lon="10.781376133825457"><ele>248.39999999999998</ele><time>2026-03-28T14:34:58Z</time></trkpt><trkpt lat="45.60334958249165" lon="10.78138020406021"><ele>247.0</ele><time>2026-03-28T14:34:59Z</time></trkpt><trkpt lat="45.60323422196904" lon="10.781381079098294"><ele>247.0</ele><time>2026-03-28T14:35:00Z</time></trkpt><trkpt lat="45.60309876957092" lon="10.781392954231077"><ele>247.0</ele><time>2026-03-28T14:35:01Z</time></trkpt><trkpt lat="45.602960102056464" lon="10.781426301795667"><ele>247.0</ele><time>2026-03-28T14:35:02Z</time></trkpt><trkpt lat="45.6028365497701" lon="10.781460378080954"><ele>247.0</ele><time>2026-03-28T14:35:03Z</time></trkpt><trkpt lat="45.60274551891734" lon="10.781504265746468"><ele>245.8</ele><time>2026-03-28T14:35:04Z</time></trkpt><trkpt lat="45.60262618208848" lon="10.781516784534078"><ele>244.6</ele><time>2026-03-28T14:35:06Z</time></trkpt><trkpt lat="45.60250273637969" lon="10.781552663503556"><ele>243.40000000000003</ele><time>2026-03-28T14:35:08Z</time></trkpt><trkpt lat="45.60241551181628" lon="10.781587665855108"><ele>242.20000000000002</ele><time>2026-03-28T14:35:09Z</time></trkpt><trkpt lat="45.602332613494774" lon="10.781631445944699"><ele>241.0</ele><time>2026-03-28T14:35:10Z</time></trkpt><trkpt lat="45.60226160361884" lon="10.7816521300235"><ele>241.0</ele><time>2026-03-28T14:35:11Z</time></trkpt><trkpt lat="45.60218584005161" lon="10.781696509821026"><ele>241.00000000000003</ele><time>2026-03-28T14:35:13Z</time></trkpt><trkpt lat="45.60216827684831" lon="10.781813163886909"><ele>241.00000000000003</ele><time>2026-03-28T14:35:15Z</time></trkpt><trkpt lat="45.60220233086447" lon="10.782013329360554"><ele>241.0</ele><time>2026-03-28T14:35:17Z</time></trkpt><trkpt lat="45.60224072740906" lon="10.782156842300658"><ele>241.0</ele><time>2026-03-28T14:35:18Z</time></trkpt><trkpt lat="45.602277153404856" lon="10.78228908227989"><ele>241.4</ele><time>2026-03-28T14:35:19Z</time></trkpt><trkpt lat="45.602303317040175" lon="10.782400056889195"><ele>241.8</ele><time>2026-03-28T14:35:20Z</time></trkpt><trkpt lat="45.60232463806082" lon="10.782492989730121"><ele>242.20000000000002</ele><time>2026-03-28T14:35:21Z</time></trkpt><trkpt lat="45.602312820835884" lon="10.78262612292109"><ele>242.60000000000002</ele><time>2026-03-28T14:35:23Z</time></trkpt><trkpt lat="45.60219524823357" lon="10.782673900930716"><ele>243.0</ele><time>2026-03-28T14:35:25Z</time></trkpt><trkpt lat="45.602085116653704" lon="10.782707859188227"><ele>241.75</ele><time>2026-03-28T14:35:26Z</time></trkpt><trkpt lat="45.60196135380136" lon="10.782761453424893"><ele>240.5</ele><time>2026-03-28T14:35:27Z</time></trkpt><trkpt lat="45.601837692391605" lon="10.782833617616818"><ele>239.25</ele><time>2026-03-28T14:35:28Z</time></trkpt><trkpt lat="45.60170745111507" lon="10.782902125354376"><ele>238.0</ele><time>2026-03-28T14:35:29Z</time></trkpt><trkpt lat="45.601577050592375" lon="10.782966465000577"><ele>238.0</ele><time>2026-03-28T14:35:30Z</time></trkpt><trkpt lat="45.60143012658429" lon="10.78303845272021"><ele>238.0</ele><time>2026-03-28T14:35:31Z</time></trkpt><trkpt lat="45.60130373718607" lon="10.78310526086637"><ele>238.0</ele><time>2026-03-28T14:35:32Z</time></trkpt><trkpt lat="45.60119478802043" lon="10.783164195027144"><ele>238.0</ele><time>2026-03-28T14:35:33Z</time></trkpt><trkpt lat="45.60108762576828" lon="10.78321367949376"><ele>237.49999999999997</ele><time>2026-03-28T14:35:34Z</time></trkpt><trkpt lat="45.601008012352786" lon="10.783257563266663"><ele>237.0</ele><time>2026-03-28T14:35:35Z</time></trkpt><trkpt lat="45.60093984360543" lon="10.783292400816636"><ele>236.5</ele><time>2026-03-28T14:35:36Z</time></trkpt><trkpt lat="45.600860233547294" lon="10.783326633100172"><ele>236.0</ele><time>2026-03-28T14:35:37Z</time></trkpt><trkpt lat="45.60078136432821" lon="10.78337002833584"><ele>235.49999999999997</ele><time>2026-03-28T14:35:38Z</time></trkpt><trkpt lat="45.60070715893122" lon="10.783373993522945"><ele>235.0</ele><time>2026-03-28T14:35:40Z</time></trkpt><trkpt lat="45.60064075117043" lon="10.783252707804863"><ele>235.0</ele><time>2026-03-28T14:35:42Z</time></trkpt><trkpt lat="45.600616619594014" lon="10.783153708740905"><ele>235.0</ele><time>2026-03-28T14:35:43Z</time></trkpt><trkpt lat="45.60059067961228" lon="10.783033916986573"><ele>235.0</ele><time>2026-03-28T14:35:44Z</time></trkpt><trkpt lat="45.6005532672958" lon="10.782897749767413"><ele>235.0</ele><time>2026-03-28T14:35:45Z</time></trkpt><trkpt lat="45.60049982736091" lon="10.782743202110986"><ele>235.0</ele><time>2026-03-28T14:35:46Z</time></trkpt><trkpt lat="45.60045167304793" lon="10.782588333956292"><ele>234.5</ele><time>2026-03-28T14:35:47Z</time></trkpt><trkpt lat="45.60040448473452" lon="10.782441126801084"><ele>234.0</ele><time>2026-03-28T14:35:48Z</time></trkpt><trkpt lat="45.60034573182431" lon="10.782293341508584"><ele>233.5</ele><time>2026-03-28T14:35:49Z</time></trkpt><trkpt lat="45.60027657369358" lon="10.782117450774633"><ele>233.0</ele><time>2026-03-28T14:35:50Z</time></trkpt><trkpt lat="45.60019862621093" lon="10.781957223166012"><ele>232.5</ele><time>2026-03-28T14:35:51Z</time></trkpt><trkpt lat="45.60008418204949" lon="10.781806822066576"><ele>232.0</ele><time>2026-03-28T14:35:52Z</time></trkpt><trkpt lat="45.60001374236828" lon="10.781620701785998"><ele>231.5</ele><time>2026-03-28T14:35:53Z</time></trkpt><trkpt lat="45.599945796120686" lon="10.78144331284209"><ele>231.0</ele><time>2026-03-28T14:35:54Z</time></trkpt><trkpt lat="45.599887851198986" lon="10.781292751775798"><ele>231.0</ele><time>2026-03-28T14:35:55Z</time></trkpt><trkpt lat="45.5998367602939" lon="10.781112685206711"><ele>231.0</ele><time>2026-03-28T14:35:56Z</time></trkpt><trkpt lat="45.59975498065748" lon="10.780947506610465"><ele>231.0</ele><time>2026-03-28T14:35:57Z</time></trkpt><trkpt lat="45.59970315645754" lon="10.780774248351385"><ele>231.0</ele><time>2026-03-28T14:35:58Z</time></trkpt><trkpt lat="45.59962997152254" lon="10.780604559060007"><ele>231.0</ele><time>2026-03-28T14:35:59Z</time></trkpt><trkpt lat="45.5995650922453" lon="10.7804232254402"><ele>231.00000000000003</ele><time>2026-03-28T14:36:00Z</time></trkpt><trkpt lat="45.59950756300768" lon="10.78027283822189"><ele>231.00000000000003</ele><time>2026-03-28T14:36:01Z</time></trkpt><trkpt lat="45.59946758983332" lon="10.78015091514874"><ele>231.0</ele><time>2026-03-28T14:36:02Z</time></trkpt><trkpt lat="45.599428262377785" lon="10.78005887777307"><ele>231.0</ele><time>2026-03-28T14:36:03Z</time></trkpt><trkpt lat="45.59938629897272" lon="10.779973564604054"><ele>231.0</ele><time>2026-03-28T14:36:04Z</time></trkpt><trkpt lat="45.599324400466706" lon="10.779869411165132"><ele>231.00000000000003</ele><time>2026-03-28T14:36:07Z</time></trkpt><trkpt lat="45.599275989678645" lon="10.779794400460881"><ele>231.00000000000003</ele><time>2026-03-28T14:36:08Z</time></trkpt><trkpt lat="45.59920168771702" lon="10.779671765734399"><ele>231.0</ele><time>2026-03-28T14:36:09Z</time></trkpt><trkpt lat="45.59912233791293" lon="10.779493740027336"><ele>231.0</ele><time>2026-03-28T14:36:10Z</time></trkpt><trkpt lat="45.59903489182384" lon="10.779287483566042"><ele>231.33333333333331</ele><time>2026-03-28T14:36:11Z</time></trkpt><trkpt lat="45.598933425167445" lon="10.779072984618466"><ele>231.66666666666666</ele><time>2026-03-28T14:36:12Z</time></trkpt><trkpt lat="45.598824551700005" lon="10.778857315454372"><ele>232.0</ele><time>2026-03-28T14:36:13Z</time></trkpt><trkpt lat="45.5987087220806" lon="10.77864043978298"><ele>231.0</ele><time>2026-03-28T14:36:14Z</time></trkpt><trkpt lat="45.59859095076722" lon="10.778411070885536"><ele>230.0</ele><time>2026-03-28T14:36:15Z</time></trkpt><trkpt lat="45.59847313506179" lon="10.778175315097569"><ele>229.0</ele><time>2026-03-28T14:36:16Z</time></trkpt><trkpt lat="45.5983541094927" lon="10.77792227852093"><ele>230.0</ele><time>2026-03-28T14:36:17Z</time></trkpt><trkpt lat="45.59823707031303" lon="10.777657630511635"><ele>231.0</ele><time>2026-03-28T14:36:18Z</time></trkpt><trkpt lat="45.598125638135805" lon="10.777389231701227"><ele>232.0</ele><time>2026-03-28T14:36:19Z</time></trkpt><trkpt lat="45.59802506961873" lon="10.77711094718008"><ele>232.5</ele><time>2026-03-28T14:36:20Z</time></trkpt><trkpt lat="45.59792976182495" lon="10.77681512793638"><ele>233.0</ele><time>2026-03-28T14:36:21Z</time></trkpt><trkpt lat="45.59783466134961" lon="10.776517609786417"><ele>232.0</ele><time>2026-03-28T14:36:22Z</time></trkpt><trkpt lat="45.59773983525802" lon="10.776220829444563"><ele>231.0</ele><time>2026-03-28T14:36:23Z</time></trkpt><trkpt lat="45.597643266886706" lon="10.775916701418588"><ele>229.5</ele><time>2026-03-28T14:36:24Z</time></trkpt><trkpt lat="45.5975446732042" lon="10.775615751087734"><ele>228.0</ele><time>2026-03-28T14:36:25Z</time></trkpt><trkpt lat="45.5974662729223" lon="10.775321050209943"><ele>227.66666666666669</ele><time>2026-03-28T14:36:26Z</time></trkpt><trkpt lat="45.597372309008364" lon="10.775076827841136"><ele>227.33333333333334</ele><time>2026-03-28T14:36:27Z</time></trkpt><trkpt lat="45.597308681866636" lon="10.774871286297351"><ele>227.0</ele><time>2026-03-28T14:36:28Z</time></trkpt><trkpt lat="45.5972479548296" lon="10.77467613851839"><ele>227.0</ele><time>2026-03-28T14:36:29Z</time></trkpt><trkpt lat="45.59720129062044" lon="10.774507251452393"><ele>227.0</ele><time>2026-03-28T14:36:30Z</time></trkpt><trkpt lat="45.597163584884214" lon="10.774338110701516"><ele>227.0</ele><time>2026-03-28T14:36:31Z</time></trkpt><trkpt lat="45.59714432450806" lon="10.774171868846397"><ele>227.0</ele><time>2026-03-28T14:36:32Z</time></trkpt><trkpt lat="45.59711946377547" lon="10.774052287542645"><ele>227.16666666666669</ele><time>2026-03-28T14:36:33Z</time></trkpt><trkpt lat="45.597085716412614" lon="10.773954576395756"><ele>227.33333333333334</ele><time>2026-03-28T14:36:34Z</time></trkpt><trkpt lat="45.59705677055197" lon="10.77387038860309"><ele>227.5</ele><time>2026-03-28T14:36:35Z</time></trkpt><trkpt lat="45.596973246998324" lon="10.773824094520046"><ele>227.66666666666669</ele><time>2026-03-28T14:36:37Z</time></trkpt><trkpt lat="45.59687813777964" lon="10.773916191587805"><ele>227.83333333333334</ele><time>2026-03-28T14:36:38Z</time></trkpt><trkpt lat="45.5967891529421" lon="10.77391839802537"><ele>228.0</ele><time>2026-03-28T14:36:39Z</time></trkpt><trkpt lat="45.59667445808342" lon="10.773978960121616"><ele>226.66666666666669</ele><time>2026-03-28T14:36:40Z</time></trkpt><trkpt lat="45.59654645329977" lon="10.7740913262798"><ele>225.33333333333334</ele><time>2026-03-28T14:36:41Z</time></trkpt><trkpt lat="45.59642284848695" lon="10.774237817003835"><ele>224.0</ele><time>2026-03-28T14:36:42Z</time></trkpt><trkpt lat="45.59630327694649" lon="10.774398678105054"><ele>224.0</ele><time>2026-03-28T14:36:43Z</time></trkpt><trkpt lat="45.59619756879583" lon="10.774599236280524"><ele>224.0</ele><time>2026-03-28T14:36:44Z</time></trkpt><trkpt lat="45.59607670424914" lon="10.774806848411306"><ele>224.0</ele><time>2026-03-28T14:36:45Z</time></trkpt><trkpt lat="45.595948897234145" lon="10.77498424467435"><ele>223.66666666666669</ele><time>2026-03-28T14:36:46Z</time></trkpt><trkpt lat="45.595817390968215" lon="10.775124966501023"><ele>223.33333333333331</ele><time>2026-03-28T14:36:47Z</time></trkpt><trkpt lat="45.5956616653212" lon="10.77524533407662"><ele>223.0</ele><time>2026-03-28T14:36:48Z</time></trkpt><trkpt lat="45.59550123249203" lon="10.775366258210285"><ele>224.0</ele><time>2026-03-28T14:36:49Z</time></trkpt><trkpt lat="45.59533422150068" lon="10.775499170830926"><ele>225.0</ele><time>2026-03-28T14:36:50Z</time></trkpt><trkpt lat="45.59518234074014" lon="10.775668874347407"><ele>226.0</ele><time>2026-03-28T14:36:51Z</time></trkpt><trkpt lat="45.595014852637405" lon="10.77580719601406"><ele>226.0</ele><time>2026-03-28T14:36:52Z</time></trkpt><trkpt lat="45.594871434190416" lon="10.775948857261708"><ele>226.0</ele><time>2026-03-28T14:36:53Z</time></trkpt><trkpt lat="45.59474894402931" lon="10.776081018320543"><ele>226.0</ele><time>2026-03-28T14:36:54Z</time></trkpt><trkpt lat="45.59467092408218" lon="10.77619735967446"><ele>226.0</ele><time>2026-03-28T14:36:55Z</time></trkpt><trkpt lat="45.59459389536681" lon="10.77626080750772"><ele>226.16666666666666</ele><time>2026-03-28T14:36:56Z</time></trkpt><trkpt lat="45.594518308551805" lon="10.776350304235747"><ele>226.33333333333331</ele><time>2026-03-28T14:36:57Z</time></trkpt><trkpt lat="45.59444507133585" lon="10.776439643350455"><ele>226.5</ele><time>2026-03-28T14:36:58Z</time></trkpt><trkpt lat="45.59437303966059" lon="10.776534148683012"><ele>226.66666666666669</ele><time>2026-03-28T14:36:59Z</time></trkpt><trkpt lat="45.59432161430453" lon="10.776591859067816"><ele>226.83333333333334</ele><time>2026-03-28T14:37:00Z</time></trkpt><trkpt lat="45.59426141811798" lon="10.776676602290875"><ele>227.0</ele><time>2026-03-28T14:37:02Z</time></trkpt><trkpt lat="45.594309688966874" lon="10.776617127958781"><ele>227.0</ele><time>2026-03-28T14:37:05Z</time></trkpt><trkpt lat="45.59441193479867" lon="10.776596071498105"><ele>227.0</ele><time>2026-03-28T14:37:06Z</time></trkpt><trkpt lat="45.59450462181954" lon="10.776436032486234"><ele>227.0</ele><time>2026-03-28T14:37:07Z</time></trkpt><trkpt lat="45.594585125466985" lon="10.776319432009236"><ele>227.0</ele><time>2026-03-28T14:37:08Z</time></trkpt><trkpt lat="45.59466284646401" lon="10.776248543005792"><ele>227.0</ele><time>2026-03-28T14:37:09Z</time></trkpt><trkpt lat="45.5947228183947" lon="10.776179882680344"><ele>227.0</ele><time>2026-03-28T14:37:10Z</time></trkpt><trkpt lat="45.594593444699655" lon="10.776094039137703"><ele>227.0</ele><time>2026-03-28T14:37:16Z</time></trkpt><trkpt lat="45.594495120271645" lon="10.776066907312886"><ele>227.0</ele><time>2026-03-28T14:37:18Z</time></trkpt><trkpt lat="45.594428622067504" lon="10.775991493784826"><ele>227.0</ele><time>2026-03-28T14:37:19Z</time></trkpt><trkpt lat="45.59434720682461" lon="10.775875385746108"><ele>226.5</ele><time>2026-03-28T14:37:20Z</time></trkpt><trkpt lat="45.59425512780179" lon="10.775739404310634"><ele>226.0</ele><time>2026-03-28T14:37:21Z</time></trkpt><trkpt lat="45.59415418112259" lon="10.775590739896634"><ele>225.5</ele><time>2026-03-28T14:37:22Z</time></trkpt><trkpt lat="45.594047011147936" lon="10.775445625053608"><ele>225.0</ele><time>2026-03-28T14:37:23Z</time></trkpt><trkpt lat="45.59394297640869" lon="10.775312070298751"><ele>225.0</ele><time>2026-03-28T14:37:24Z</time></trkpt><trkpt lat="45.59384861281132" lon="10.77518751197826"><ele>225.0</ele><time>2026-03-28T14:37:25Z</time></trkpt><trkpt lat="45.593760368097456" lon="10.775059637821888"><ele>225.0</ele><time>2026-03-28T14:37:26Z</time></trkpt><trkpt lat="45.59366338092021" lon="10.7749410366751"><ele>225.0</ele><time>2026-03-28T14:37:27Z</time></trkpt><trkpt lat="45.59359051776209" lon="10.774853281482441"><ele>224.8</ele><time>2026-03-28T14:37:28Z</time></trkpt><trkpt lat="45.59351019556488" lon="10.774770510366134"><ele>224.6</ele><time>2026-03-28T14:37:29Z</time></trkpt><trkpt lat="45.59342517310412" lon="10.774696098454779"><ele>224.39999999999998</ele><time>2026-03-28T14:37:30Z</time></trkpt><trkpt lat="45.593326764172666" lon="10.774634478030846"><ele>224.2</ele><time>2026-03-28T14:37:31Z</time></trkpt><trkpt lat="45.59321245439254" lon="10.774581776435921"><ele>224.0</ele><time>2026-03-28T14:37:32Z</time></trkpt><trkpt lat="45.59310752704674" lon="10.774535052285872"><ele>224.00000000000003</ele><time>2026-03-28T14:37:33Z</time></trkpt><trkpt lat="45.59301785679357" lon="10.774495971238501"><ele>224.0</ele><time>2026-03-28T14:37:34Z</time></trkpt><trkpt lat="45.592931032569126" lon="10.774456650930317"><ele>224.0</ele><time>2026-03-28T14:37:35Z</time></trkpt><trkpt lat="45.59284652251338" lon="10.774410234646846"><ele>224.0</ele><time>2026-03-28T14:37:36Z</time></trkpt><trkpt lat="45.59276326905623" lon="10.774364749747717"><ele>224.00000000000003</ele><time>2026-03-28T14:37:37Z</time></trkpt><trkpt lat="45.59269896720229" lon="10.774329342522561"><ele>224.0</ele><time>2026-03-28T14:37:38Z</time></trkpt><trkpt lat="45.59258432710412" lon="10.774263777123942"><ele>224.2</ele><time>2026-03-28T14:37:40Z</time></trkpt><trkpt lat="45.59249402013393" lon="10.774212190235023"><ele>224.39999999999998</ele><time>2026-03-28T14:37:42Z</time></trkpt><trkpt lat="45.59238642345442" lon="10.774149836736164"><ele>224.6</ele><time>2026-03-28T14:37:44Z</time></trkpt><trkpt lat="45.592267307035854" lon="10.77407039795945"><ele>224.8</ele><time>2026-03-28T14:37:46Z</time></trkpt><trkpt lat="45.592190260884976" lon="10.774024717081392"><ele>225.0</ele><time>2026-03-28T14:37:47Z</time></trkpt><trkpt lat="45.59209073700202" lon="10.773971295749776"><ele>224.5</ele><time>2026-03-28T14:37:48Z</time></trkpt><trkpt lat="45.591972351895194" lon="10.77390937866648"><ele>224.0</ele><time>2026-03-28T14:37:49Z</time></trkpt><trkpt lat="45.5918568601367" lon="10.773851657911965"><ele>223.5</ele><time>2026-03-28T14:37:50Z</time></trkpt><trkpt lat="45.59173875444107" lon="10.773791739069793"><ele>223.0</ele><time>2026-03-28T14:37:51Z</time></trkpt><trkpt lat="45.5916325920094" lon="10.773732752928835"><ele>223.0</ele><time>2026-03-28T14:37:52Z</time></trkpt><trkpt lat="45.591524327435366" lon="10.773671184045991"><ele>223.0</ele><time>2026-03-28T14:37:53Z</time></trkpt><trkpt lat="45.59140898044309" lon="10.773619191843874"><ele>223.0</ele><time>2026-03-28T14:37:54Z</time></trkpt><trkpt lat="45.591292467420196" lon="10.77355804415819"><ele>223.0</ele><time>2026-03-28T14:37:55Z</time></trkpt><trkpt lat="45.5911733299042" lon="10.77349874392261"><ele>222.5</ele><time>2026-03-28T14:37:56Z</time></trkpt><trkpt lat="45.59105775777388" lon="10.773430188616357"><ele>222.0</ele><time>2026-03-28T14:37:57Z</time></trkpt><trkpt lat="45.590954082920064" lon="10.773368687602597"><ele>221.5</ele><time>2026-03-28T14:37:58Z</time></trkpt><trkpt lat="45.59086114622789" lon="10.77330162771183"><ele>221.0</ele><time>2026-03-28T14:37:59Z</time></trkpt><trkpt lat="45.59076782379563" lon="10.773221612695897"><ele>221.0</ele><time>2026-03-28T14:38:00Z</time></trkpt><trkpt lat="45.59067734045266" lon="10.77311822196369"><ele>221.00000000000003</ele><time>2026-03-28T14:38:01Z</time></trkpt><trkpt lat="45.59058502342929" lon="10.773005214354972"><ele>221.00000000000003</ele><time>2026-03-28T14:38:02Z</time></trkpt><trkpt lat="45.590509689409735" lon="10.772899347988204"><ele>221.0</ele><time>2026-03-28T14:38:03Z</time></trkpt><trkpt lat="45.59045920991312" lon="10.77282357626322"><ele>221.0</ele><time>2026-03-28T14:38:04Z</time></trkpt><trkpt lat="45.59041671151393" lon="10.7726989747745"><ele>221.0</ele><time>2026-03-28T14:38:06Z</time></trkpt><trkpt lat="45.59043897293034" lon="10.77253893610701"><ele>221.00000000000003</ele><time>2026-03-28T14:38:08Z</time></trkpt><trkpt lat="45.59049256424594" lon="10.772417292680453"><ele>221.00000000000003</ele><time>2026-03-28T14:38:09Z</time></trkpt><trkpt lat="45.59055887974915" lon="10.772294414000347"><ele>221.0</ele><time>2026-03-28T14:38:10Z</time></trkpt><trkpt lat="45.59063755272463" lon="10.772180532585796"><ele>221.0</ele><time>2026-03-28T14:38:11Z</time></trkpt><trkpt lat="45.59071556607486" lon="10.772057631076976"><ele>221.0</ele><time>2026-03-28T14:38:12Z</time></trkpt><trkpt lat="45.59078240800855" lon="10.771915687236799"><ele>221.00000000000003</ele><time>2026-03-28T14:38:13Z</time></trkpt><trkpt lat="45.59083674378627" lon="10.771796974800122"><ele>221.00000000000003</ele><time>2026-03-28T14:38:14Z</time></trkpt><trkpt lat="45.59088253715475" lon="10.771705069677305"><ele>221.0</ele><time>2026-03-28T14:38:15Z</time></trkpt><trkpt lat="45.590928764856166" lon="10.771591925067996"><ele>221.0</ele><time>2026-03-28T14:38:16Z</time></trkpt><trkpt lat="45.59097987389337" lon="10.77146611993261"><ele>220.60000000000002</ele><time>2026-03-28T14:38:17Z</time></trkpt><trkpt lat="45.591038437034854" lon="10.771341496301261"><ele>220.20000000000002</ele><time>2026-03-28T14:38:18Z</time></trkpt><trkpt lat="45.59108251840351" lon="10.771177060983904"><ele>219.79999999999998</ele><time>2026-03-28T14:38:20Z</time></trkpt><trkpt lat="45.59108122280037" lon="10.7710635106389"><ele>219.39999999999998</ele><time>2026-03-28T14:38:21Z</time></trkpt><trkpt lat="45.59107341959641" lon="10.770903702551303"><ele>219.0</ele><time>2026-03-28T14:38:22Z</time></trkpt><trkpt lat="45.59104958282058" lon="10.770767719206757"><ele>219.0</ele><time>2026-03-28T14:38:23Z</time></trkpt><trkpt lat="45.591033021897374" lon="10.770615190223017"><ele>218.99999999999997</ele><time>2026-03-28T14:38:24Z</time></trkpt><trkpt lat="45.59103265938331" lon="10.770466325688162"><ele>218.99999999999997</ele><time>2026-03-28T14:38:25Z</time></trkpt><trkpt lat="45.5910377361364" lon="10.77034670282932"><ele>219.0</ele><time>2026-03-28T14:38:26Z</time></trkpt><trkpt lat="45.59105932887674" lon="10.770217484704531"><ele>219.0</ele><time>2026-03-28T14:38:27Z</time></trkpt><trkpt lat="45.59109020052734" lon="10.770070572881764"><ele>219.0</ele><time>2026-03-28T14:38:28Z</time></trkpt><trkpt lat="45.59113305939977" lon="10.769903079431995"><ele>219.0</ele><time>2026-03-28T14:38:29Z</time></trkpt><trkpt lat="45.591179336954674" lon="10.769718344897909"><ele>219.0</ele><time>2026-03-28T14:38:30Z</time></trkpt><trkpt lat="45.59123521568929" lon="10.769546536477886"><ele>219.0</ele><time>2026-03-28T14:38:31Z</time></trkpt><trkpt lat="45.59129246487313" lon="10.769394000865686"><ele>218.5</ele><time>2026-03-28T14:38:32Z</time></trkpt><trkpt lat="45.59135075239574" lon="10.769219255319179"><ele>218.0</ele><time>2026-03-28T14:38:33Z</time></trkpt><trkpt lat="45.59140021661666" lon="10.769072006980572"><ele>217.5</ele><time>2026-03-28T14:38:34Z</time></trkpt><trkpt lat="45.591435992851764" lon="10.768935452604392"><ele>217.0</ele><time>2026-03-28T14:38:35Z</time></trkpt><trkpt lat="45.59146942752121" lon="10.768797605810521"><ele>216.99999999999997</ele><time>2026-03-28T14:38:36Z</time></trkpt><trkpt lat="45.59148927899708" lon="10.768674638244198"><ele>217.0</ele><time>2026-03-28T14:38:37Z</time></trkpt><trkpt lat="45.59151243235511" lon="10.768559711554952"><ele>217.0</ele><time>2026-03-28T14:38:38Z</time></trkpt><trkpt lat="45.59152605421909" lon="10.768456346791648"><ele>217.0</ele><time>2026-03-28T14:38:39Z</time></trkpt><trkpt lat="45.591535617205" lon="10.768335212365306"><ele>216.99999999999997</ele><time>2026-03-28T14:38:40Z</time></trkpt><trkpt lat="45.5915418284309" lon="10.768214934336148"><ele>217.0</ele><time>2026-03-28T14:38:41Z</time></trkpt><trkpt lat="45.591537406460276" lon="10.76809321384533"><ele>217.0</ele><time>2026-03-28T14:38:42Z</time></trkpt><trkpt lat="45.5915309465329" lon="10.767944458513174"><ele>217.0</ele><time>2026-03-28T14:38:43Z</time></trkpt><trkpt lat="45.59151007340913" lon="10.767793694195277"><ele>217.0</ele><time>2026-03-28T14:38:44Z</time></trkpt><trkpt lat="45.59149832885005" lon="10.767622137448189"><ele>217.0</ele><time>2026-03-28T14:38:45Z</time></trkpt><trkpt lat="45.59150615213046" lon="10.767470472259927"><ele>217.0</ele><time>2026-03-28T14:38:46Z</time></trkpt><trkpt lat="45.591528430480984" lon="10.767305489805256"><ele>217.25</ele><time>2026-03-28T14:38:47Z</time></trkpt><trkpt lat="45.591552019187674" lon="10.767151934335002"><ele>217.5</ele><time>2026-03-28T14:38:48Z</time></trkpt><trkpt lat="45.59158888624119" lon="10.76698485218701"><ele>217.75</ele><time>2026-03-28T14:38:49Z</time></trkpt><trkpt lat="45.59164384157489" lon="10.76683271955398"><ele>218.0</ele><time>2026-03-28T14:38:50Z</time></trkpt><trkpt lat="45.591709368808665" lon="10.76667996262911"><ele>217.5</ele><time>2026-03-28T14:38:51Z</time></trkpt><trkpt lat="45.591787614335786" lon="10.766513029272458"><ele>217.0</ele><time>2026-03-28T14:38:52Z</time></trkpt><trkpt lat="45.59185955834659" lon="10.766330470993395"><ele>216.5</ele><time>2026-03-28T14:38:53Z</time></trkpt><trkpt lat="45.59191953288138" lon="10.766180669942818"><ele>216.0</ele><time>2026-03-28T14:38:54Z</time></trkpt><trkpt lat="45.59197488230755" lon="10.76604632199721"><ele>216.0</ele><time>2026-03-28T14:38:55Z</time></trkpt><trkpt lat="45.59203671405751" lon="10.765908442403447"><ele>216.0</ele><time>2026-03-28T14:38:56Z</time></trkpt><trkpt lat="45.592106803759286" lon="10.765774327393313"><ele>216.0</ele><time>2026-03-28T14:38:57Z</time></trkpt><trkpt lat="45.59218738111834" lon="10.765641836866674"><ele>216.0</ele><time>2026-03-28T14:38:58Z</time></trkpt><trkpt lat="45.59228598997963" lon="10.76549782686034"><ele>216.0</ele><time>2026-03-28T14:38:59Z</time></trkpt><trkpt lat="45.59236409062405" lon="10.765375173517752"><ele>216.00000000000003</ele><time>2026-03-28T14:39:00Z</time></trkpt><trkpt lat="45.59243349513187" lon="10.765256849783478"><ele>216.00000000000003</ele><time>2026-03-28T14:39:01Z</time></trkpt><trkpt lat="45.59250129980413" lon="10.765136754892879"><ele>216.0</ele><time>2026-03-28T14:39:02Z</time></trkpt><trkpt lat="45.59256358353435" lon="10.765014959203812"><ele>216.0</ele><time>2026-03-28T14:39:03Z</time></trkpt><trkpt lat="45.59260497322137" lon="10.7649248188997"><ele>216.0</ele><time>2026-03-28T14:39:04Z</time></trkpt><trkpt lat="45.59263426803172" lon="10.764783223120114"><ele>216.0</ele><time>2026-03-28T14:39:06Z</time></trkpt><trkpt lat="45.59262535923973" lon="10.764678150235195"><ele>216.0</ele><time>2026-03-28T14:39:08Z</time></trkpt><trkpt lat="45.59260725112057" lon="10.764583706670711"><ele>216.0</ele><time>2026-03-28T14:39:16Z</time></trkpt><trkpt lat="45.59267829538" lon="10.764454787241572"><ele>216.0</ele><time>2026-03-28T14:39:18Z</time></trkpt><trkpt lat="45.59273384000211" lon="10.76437643986523"><ele>216.0</ele><time>2026-03-28T14:39:20Z</time></trkpt><trkpt lat="45.592794215632296" lon="10.764280829003011"><ele>216.0</ele><time>2026-03-28T14:39:22Z</time></trkpt><trkpt lat="45.59285488823316" lon="10.76418003826906"><ele>216.0</ele><time>2026-03-28T14:39:24Z</time></trkpt><trkpt lat="45.592912000848905" lon="10.764104970720348"><ele>216.0</ele><time>2026-03-28T14:39:25Z</time></trkpt><trkpt lat="45.59297163465077" lon="10.764030477378348"><ele>216.0</ele><time>2026-03-28T14:39:26Z</time></trkpt><trkpt lat="45.59304655143204" lon="10.763962545250335"><ele>216.0</ele><time>2026-03-28T14:39:27Z</time></trkpt><trkpt lat="45.593111585374366" lon="10.76389788170476"><ele>216.0</ele><time>2026-03-28T14:39:28Z</time></trkpt><trkpt lat="45.59316958195952" lon="10.763836778770973"><ele>216.0</ele><time>2026-03-28T14:39:31Z</time></trkpt><trkpt lat="45.59321977777504" lon="10.76371698655096"><ele>216.00000000000003</ele><time>2026-03-28T14:39:33Z</time></trkpt><trkpt lat="45.59325820690541" lon="10.76360476430942"><ele>216.00000000000003</ele><time>2026-03-28T14:39:34Z</time></trkpt><trkpt lat="45.59329567716893" lon="10.763516954702785"><ele>216.0</ele><time>2026-03-28T14:39:35Z</time></trkpt><trkpt lat="45.59333958988877" lon="10.763395336080304"><ele>216.0</ele><time>2026-03-28T14:39:36Z</time></trkpt><trkpt lat="45.593390180187825" lon="10.763250280774031"><ele>216.0</ele><time>2026-03-28T14:39:37Z</time></trkpt><trkpt lat="45.59343886488174" lon="10.763102222282955"><ele>216.0</ele><time>2026-03-28T14:39:38Z</time></trkpt><trkpt lat="45.593488844266425" lon="10.762947380367677"><ele>216.0</ele><time>2026-03-28T14:39:39Z</time></trkpt><trkpt lat="45.59352816896577" lon="10.762793102442332"><ele>216.0</ele><time>2026-03-28T14:39:40Z</time></trkpt><trkpt lat="45.593561130586" lon="10.762643340444535"><ele>216.0</ele><time>2026-03-28T14:39:41Z</time></trkpt><trkpt lat="45.59358833066563" lon="10.762495303602076"><ele>216.0</ele><time>2026-03-28T14:39:42Z</time></trkpt><trkpt lat="45.59360958262499" lon="10.762317417721317"><ele>216.0</ele><time>2026-03-28T14:39:43Z</time></trkpt><trkpt lat="45.593635196095406" lon="10.762130595033502"><ele>216.0</ele><time>2026-03-28T14:39:44Z</time></trkpt><trkpt lat="45.593660804615816" lon="10.761947695460176"><ele>216.0</ele><time>2026-03-28T14:39:45Z</time></trkpt><trkpt lat="45.59367912230672" lon="10.76177792239597"><ele>216.0</ele><time>2026-03-28T14:39:46Z</time></trkpt><trkpt lat="45.59368939816961" lon="10.76162775633085"><ele>216.0</ele><time>2026-03-28T14:39:47Z</time></trkpt><trkpt lat="45.59369914241542" lon="10.761450506142456"><ele>216.0</ele><time>2026-03-28T14:39:48Z</time></trkpt><trkpt lat="45.5936996243294" lon="10.761273370448764"><ele>216.0</ele><time>2026-03-28T14:39:49Z</time></trkpt><trkpt lat="45.59369993645922" lon="10.761098623898846"><ele>216.0</ele><time>2026-03-28T14:39:50Z</time></trkpt><trkpt lat="45.593702725667505" lon="10.760907806180048"><ele>216.0</ele><time>2026-03-28T14:39:51Z</time></trkpt><trkpt lat="45.59371049245243" lon="10.760689877871416"><ele>216.0</ele><time>2026-03-28T14:39:52Z</time></trkpt><trkpt lat="45.59371338677004" lon="10.760466546284334"><ele>216.0</ele><time>2026-03-28T14:39:53Z</time></trkpt><trkpt lat="45.593715539801295" lon="10.760258846039319"><ele>216.0</ele><time>2026-03-28T14:39:54Z</time></trkpt><trkpt lat="45.5937176984172" lon="10.760049249249949"><ele>216.0</ele><time>2026-03-28T14:39:55Z</time></trkpt><trkpt lat="45.593728026890616" lon="10.75985925863749"><ele>216.0</ele><time>2026-03-28T14:39:56Z</time></trkpt><trkpt lat="45.5937359869247" lon="10.759679998571675"><ele>216.5</ele><time>2026-03-28T14:39:57Z</time></trkpt><trkpt lat="45.59374003248874" lon="10.759500124219516"><ele>217.0</ele><time>2026-03-28T14:39:58Z</time></trkpt><trkpt lat="45.59375371266654" lon="10.759321586191177"><ele>217.5</ele><time>2026-03-28T14:39:59Z</time></trkpt><trkpt lat="45.59377778334217" lon="10.759125871650397"><ele>218.0</ele><time>2026-03-28T14:40:00Z</time></trkpt><trkpt lat="45.59380048948731" lon="10.758956070589502"><ele>218.4</ele><time>2026-03-28T14:40:01Z</time></trkpt><trkpt lat="45.59381326876349" lon="10.758816247433387"><ele>218.8</ele><time>2026-03-28T14:40:02Z</time></trkpt><trkpt lat="45.593827790580804" lon="10.758675082206228"><ele>219.2</ele><time>2026-03-28T14:40:03Z</time></trkpt><trkpt lat="45.593836785029495" lon="10.75854904402802"><ele>219.6</ele><time>2026-03-28T14:40:04Z</time></trkpt><trkpt lat="45.593875496659614" lon="10.758386488152508"><ele>220.0</ele><time>2026-03-28T14:40:06Z</time></trkpt><trkpt lat="45.593953139022794" lon="10.758271566352908"><ele>220.0</ele><time>2026-03-28T14:40:08Z</time></trkpt><trkpt lat="45.593978205555736" lon="10.758179059379254"><ele>220.0</ele><time>2026-03-28T14:40:09Z</time></trkpt><trkpt lat="45.594004893141616" lon="10.758048545560372"><ele>220.0</ele><time>2026-03-28T14:40:10Z</time></trkpt><trkpt lat="45.5940481054161" lon="10.757872286483758"><ele>220.0</ele><time>2026-03-28T14:40:11Z</time></trkpt><trkpt lat="45.59410230500974" lon="10.75767426547121"><ele>220.0</ele><time>2026-03-28T14:40:12Z</time></trkpt><trkpt lat="45.594159010649676" lon="10.757459431869526"><ele>220.0</ele><time>2026-03-28T14:40:13Z</time></trkpt><trkpt lat="45.59421820202321" lon="10.757246365839505"><ele>220.0</ele><time>2026-03-28T14:40:14Z</time></trkpt><trkpt lat="45.594272212049994" lon="10.757030070522678"><ele>220.0</ele><time>2026-03-28T14:40:15Z</time></trkpt><trkpt lat="45.59432565108831" lon="10.756849494321596"><ele>220.0</ele><time>2026-03-28T14:40:16Z</time></trkpt><trkpt lat="45.59436635308888" lon="10.756706893217252"><ele>220.0</ele><time>2026-03-28T14:40:17Z</time></trkpt><trkpt lat="45.59439950372214" lon="10.756577747916555"><ele>220.0</ele><time>2026-03-28T14:40:18Z</time></trkpt><trkpt lat="45.59443217528416" lon="10.756428299340485"><ele>220.0</ele><time>2026-03-28T14:40:19Z</time></trkpt><trkpt lat="45.594470024806554" lon="10.756256168668846"><ele>220.0</ele><time>2026-03-28T14:40:20Z</time></trkpt><trkpt lat="45.59452573887671" lon="10.75608244673918"><ele>221.25</ele><time>2026-03-28T14:40:21Z</time></trkpt><trkpt lat="45.59458375768991" lon="10.75590367176328"><ele>222.5</ele><time>2026-03-28T14:40:22Z</time></trkpt><trkpt lat="45.594649138513475" lon="10.755728387473194"><ele>223.75</ele><time>2026-03-28T14:40:23Z</time></trkpt><trkpt lat="45.59473809616023" lon="10.755562451309329"><ele>225.0</ele><time>2026-03-28T14:40:24Z</time></trkpt><trkpt lat="45.59481520932624" lon="10.755376368720949"><ele>225.25</ele><time>2026-03-28T14:40:25Z</time></trkpt><trkpt lat="45.59487724892479" lon="10.755189409471473"><ele>225.5</ele><time>2026-03-28T14:40:26Z</time></trkpt><trkpt lat="45.59494089566105" lon="10.755036462444556"><ele>225.75</ele><time>2026-03-28T14:40:27Z</time></trkpt><trkpt lat="45.595003490343736" lon="10.754878341231334"><ele>226.0</ele><time>2026-03-28T14:40:28Z</time></trkpt><trkpt lat="45.59506360237872" lon="10.754688466920392"><ele>226.0</ele><time>2026-03-28T14:40:29Z</time></trkpt><trkpt lat="45.5951198971546" lon="10.754499930172274"><ele>226.0</ele><time>2026-03-28T14:40:30Z</time></trkpt><trkpt lat="45.595170664414205" lon="10.754307582249679"><ele>226.0</ele><time>2026-03-28T14:40:31Z</time></trkpt><trkpt lat="45.59521753969344" lon="10.754109515070194"><ele>226.0</ele><time>2026-03-28T14:40:32Z</time></trkpt><trkpt lat="45.59525480704171" lon="10.753911709117164"><ele>226.20000000000002</ele><time>2026-03-28T14:40:33Z</time></trkpt><trkpt lat="45.59529195631662" lon="10.75372803873149"><ele>226.40000000000003</ele><time>2026-03-28T14:40:34Z</time></trkpt><trkpt lat="45.595323479165586" lon="10.753556983600577"><ele>226.6</ele><time>2026-03-28T14:40:35Z</time></trkpt><trkpt lat="45.59534693523437" lon="10.75341773322229"><ele>226.8</ele><time>2026-03-28T14:40:36Z</time></trkpt><trkpt lat="45.59536530044423" lon="10.753314000076589"><ele>227.0</ele><time>2026-03-28T14:40:37Z</time></trkpt><trkpt lat="45.59549246550819" lon="10.753213105454716"><ele>228.39999999999998</ele><time>2026-03-28T14:40:40Z</time></trkpt><trkpt lat="45.59559776090745" lon="10.753186795054106"><ele>229.79999999999998</ele><time>2026-03-28T14:40:41Z</time></trkpt><trkpt lat="45.59572045355748" lon="10.753158098617005"><ele>231.2</ele><time>2026-03-28T14:40:42Z</time></trkpt><trkpt lat="45.5958216181604" lon="10.753120559792091"><ele>232.6</ele><time>2026-03-28T14:40:43Z</time></trkpt><trkpt lat="45.59588644360912" lon="10.75309519849787"><ele>234.0</ele><time>2026-03-28T14:40:44Z</time></trkpt><trkpt lat="45.59590510890002" lon="10.752938847375598"><ele>234.0</ele><time>2026-03-28T14:40:47Z</time></trkpt><trkpt lat="45.59577874519294" lon="10.752828836005289"><ele>234.0</ele><time>2026-03-28T14:40:49Z</time></trkpt><trkpt lat="45.59567886450427" lon="10.752760695146556"><ele>234.0</ele><time>2026-03-28T14:40:50Z</time></trkpt><trkpt lat="45.595542939589166" lon="10.752661511784707"><ele>234.0</ele><time>2026-03-28T14:40:51Z</time></trkpt><trkpt lat="45.59539297424107" lon="10.752538797607993"><ele>231.5</ele><time>2026-03-28T14:40:52Z</time></trkpt><trkpt lat="45.59521609790477" lon="10.752358315608893"><ele>229.0</ele><time>2026-03-28T14:40:53Z</time></trkpt><trkpt lat="45.595023489276166" lon="10.75217138786487"><ele>229.0</ele><time>2026-03-28T14:40:54Z</time></trkpt><trkpt lat="45.59481590494687" lon="10.75196318397513"><ele>229.0</ele><time>2026-03-28T14:40:55Z</time></trkpt><trkpt lat="45.594598722204594" lon="10.751745176367553"><ele>226.5</ele><time>2026-03-28T14:40:56Z</time></trkpt><trkpt lat="45.594372699864145" lon="10.751515945255179"><ele>224.0</ele><time>2026-03-28T14:40:57Z</time></trkpt><trkpt lat="45.59415121537216" lon="10.75129093521411"><ele>224.0</ele><time>2026-03-28T14:40:58Z</time></trkpt><trkpt lat="45.593927951411786" lon="10.751064117337275"><ele>224.0</ele><time>2026-03-28T14:40:59Z</time></trkpt><trkpt lat="45.593724980191354" lon="10.750856567366258"><ele>224.0</ele><time>2026-03-28T14:41:00Z</time></trkpt><trkpt lat="45.593533687201536" lon="10.750661740678877"><ele>224.0</ele><time>2026-03-28T14:41:01Z</time></trkpt><trkpt lat="45.59332362780386" lon="10.750480509674814"><ele>224.0</ele><time>2026-03-28T14:41:02Z</time></trkpt><trkpt lat="45.59310118780498" lon="10.750312296326326"><ele>224.0</ele><time>2026-03-28T14:41:03Z</time></trkpt><trkpt lat="45.59286317988695" lon="10.750167587959886"><ele>223.0</ele><time>2026-03-28T14:41:04Z</time></trkpt><trkpt lat="45.592624995886815" lon="10.7500057352177"><ele>222.0</ele><time>2026-03-28T14:41:05Z</time></trkpt><trkpt lat="45.59239367040998" lon="10.749843017233259"><ele>222.0</ele><time>2026-03-28T14:41:06Z</time></trkpt><trkpt lat="45.59217348637775" lon="10.74965705948536"><ele>222.0</ele><time>2026-03-28T14:41:07Z</time></trkpt><trkpt lat="45.59194549192925" lon="10.749480570020065"><ele>222.0</ele><time>2026-03-28T14:41:08Z</time></trkpt><trkpt lat="45.591722335226784" lon="10.749296385897823"><ele>222.0</ele><time>2026-03-28T14:41:09Z</time></trkpt><trkpt lat="45.59149952458657" lon="10.749106868075911"><ele>222.0</ele><time>2026-03-28T14:41:10Z</time></trkpt><trkpt lat="45.59127568849981" lon="10.74891845228708"><ele>222.0</ele><time>2026-03-28T14:41:11Z</time></trkpt><trkpt lat="45.59105848289572" lon="10.748736686292203"><ele>222.0</ele><time>2026-03-28T14:41:12Z</time></trkpt><trkpt lat="45.59086627605302" lon="10.74857579813621"><ele>222.0</ele><time>2026-03-28T14:41:13Z</time></trkpt><trkpt lat="45.590679103027796" lon="10.748419098669093"><ele>222.0</ele><time>2026-03-28T14:41:14Z</time></trkpt><trkpt lat="45.590490793163326" lon="10.748262155854231"><ele>222.0</ele><time>2026-03-28T14:41:15Z</time></trkpt><trkpt lat="45.59030663998972" lon="10.748116167520433"><ele>222.0</ele><time>2026-03-28T14:41:16Z</time></trkpt><trkpt lat="45.5901130850892" lon="10.748006347137961"><ele>222.0</ele><time>2026-03-28T14:41:17Z</time></trkpt><trkpt lat="45.58992336457677" lon="10.747861577002922"><ele>222.0</ele><time>2026-03-28T14:41:18Z</time></trkpt><trkpt lat="45.58972658193731" lon="10.747741601709901"><ele>222.0</ele><time>2026-03-28T14:41:19Z</time></trkpt><trkpt lat="45.58954148916761" lon="10.74763010515198"><ele>222.0</ele><time>2026-03-28T14:41:20Z</time></trkpt><trkpt lat="45.58937827514893" lon="10.747531786799913"><ele>221.66666666666669</ele><time>2026-03-28T14:41:21Z</time></trkpt><trkpt lat="45.5892236260788" lon="10.747438627438843"><ele>221.33333333333334</ele><time>2026-03-28T14:41:22Z</time></trkpt><trkpt lat="45.58908458527466" lon="10.747354870506548"><ele>221.0</ele><time>2026-03-28T14:41:23Z</time></trkpt><trkpt lat="45.58895954002735" lon="10.747279955159184"><ele>221.0</ele><time>2026-03-28T14:41:24Z</time></trkpt><trkpt lat="45.5888386658425" lon="10.747207543708893"><ele>221.0</ele><time>2026-03-28T14:41:25Z</time></trkpt><trkpt lat="45.588723200442004" lon="10.747138372352556"><ele>221.0</ele><time>2026-03-28T14:41:26Z</time></trkpt><trkpt lat="45.58861648335852" lon="10.747074441700697"><ele>221.0</ele><time>2026-03-28T14:41:27Z</time></trkpt><trkpt lat="45.58850960109757" lon="10.747011908113954"><ele>221.0</ele><time>2026-03-28T14:41:28Z</time></trkpt><trkpt lat="45.588406875027765" lon="10.74695438348974"><ele>221.00000000000003</ele><time>2026-03-28T14:41:29Z</time></trkpt><trkpt lat="45.58831525331689" lon="10.746928750366301"><ele>221.00000000000003</ele><time>2026-03-28T14:41:30Z</time></trkpt><trkpt lat="45.588253022085205" lon="10.74687626693119"><ele>221.0</ele><time>2026-03-28T14:41:31Z</time></trkpt><trkpt lat="45.5881744304534" lon="10.746754016752224"><ele>221.0</ele><time>2026-03-28T14:41:33Z</time></trkpt><trkpt lat="45.58812588190948" lon="10.74662175920574"><ele>221.60000000000002</ele><time>2026-03-28T14:41:35Z</time></trkpt><trkpt lat="45.58801505681955" lon="10.746533447848526"><ele>222.20000000000002</ele><time>2026-03-28T14:41:37Z</time></trkpt><trkpt lat="45.587940781904415" lon="10.746533652663851"><ele>222.79999999999998</ele><time>2026-03-28T14:41:38Z</time></trkpt><trkpt lat="45.58786495365906" lon="10.74659134198986"><ele>223.39999999999998</ele><time>2026-03-28T14:41:39Z</time></trkpt><trkpt lat="45.58779214524712" lon="10.746703648472446"><ele>224.0</ele><time>2026-03-28T14:41:40Z</time></trkpt><trkpt lat="45.58774926851073" lon="10.746868839535358"><ele>224.0</ele><time>2026-03-28T14:41:41Z</time></trkpt><trkpt lat="45.58768375759717" lon="10.747029803462263"><ele>224.0</ele><time>2026-03-28T14:41:42Z</time></trkpt><trkpt lat="45.58759958513885" lon="10.747173567568717"><ele>224.0</ele><time>2026-03-28T14:41:43Z</time></trkpt><trkpt lat="45.58751110895784" lon="10.747302152157424"><ele>224.0</ele><time>2026-03-28T14:41:44Z</time></trkpt><trkpt lat="45.58742527036894" lon="10.747431053507944"><ele>224.0</ele><time>2026-03-28T14:41:45Z</time></trkpt><trkpt lat="45.58733421740546" lon="10.747554689513501"><ele>224.0</ele><time>2026-03-28T14:41:46Z</time></trkpt><trkpt lat="45.58724113852079" lon="10.74766822854586"><ele>224.0</ele><time>2026-03-28T14:41:47Z</time></trkpt><trkpt lat="45.587142563264216" lon="10.747771545028634"><ele>224.0</ele><time>2026-03-28T14:41:48Z</time></trkpt><trkpt lat="45.587060799575724" lon="10.747851970965213"><ele>223.79999999999998</ele><time>2026-03-28T14:41:49Z</time></trkpt><trkpt lat="45.58699117964757" lon="10.747914542649388"><ele>223.59999999999997</ele><time>2026-03-28T14:41:50Z</time></trkpt><trkpt lat="45.586901676075705" lon="10.747935174599837"><ele>223.4</ele><time>2026-03-28T14:41:51Z</time></trkpt><trkpt lat="45.5868227189216" lon="10.74801405833504"><ele>223.2</ele><time>2026-03-28T14:41:52Z</time></trkpt><trkpt lat="45.58674928285438" lon="10.748081497240145"><ele>223.0</ele><time>2026-03-28T14:41:53Z</time></trkpt><trkpt lat="45.58666342477445" lon="10.748182323043775"><ele>223.0</ele><time>2026-03-28T14:41:54Z</time></trkpt><trkpt lat="45.58656347195589" lon="10.748294594850197"><ele>223.0</ele><time>2026-03-28T14:41:55Z</time></trkpt><trkpt lat="45.58645386790907" lon="10.748402339398206"><ele>223.0</ele><time>2026-03-28T14:41:56Z</time></trkpt><trkpt lat="45.58634049826676" lon="10.748502630944921"><ele>223.0</ele><time>2026-03-28T14:41:57Z</time></trkpt><trkpt lat="45.58623686633528" lon="10.748596976721451"><ele>222.5</ele><time>2026-03-28T14:41:58Z</time></trkpt><trkpt lat="45.58614244242692" lon="10.748690204118022"><ele>222.0</ele><time>2026-03-28T14:41:59Z</time></trkpt><trkpt lat="45.58603233977232" lon="10.748763794747914"><ele>221.5</ele><time>2026-03-28T14:42:00Z</time></trkpt><trkpt lat="45.58593310541893" lon="10.748871340850007"><ele>221.0</ele><time>2026-03-28T14:42:01Z</time></trkpt><trkpt lat="45.585834005817375" lon="10.74896198879808"><ele>221.0</ele><time>2026-03-28T14:42:02Z</time></trkpt><trkpt lat="45.5857466995517" lon="10.749035788197682"><ele>221.00000000000003</ele><time>2026-03-28T14:42:03Z</time></trkpt><trkpt lat="45.58567845755185" lon="10.749099277885502"><ele>221.00000000000003</ele><time>2026-03-28T14:42:04Z</time></trkpt><trkpt lat="45.58560763672854" lon="10.749121656344418"><ele>221.0</ele><time>2026-03-28T14:42:06Z</time></trkpt><trkpt lat="45.585555417449086" lon="10.74888218796522"><ele>221.0</ele><time>2026-03-28T14:42:09Z</time></trkpt><trkpt lat="45.58552590011872" lon="10.748801979264165"><ele>221.66666666666669</ele><time>2026-03-28T14:42:10Z</time></trkpt><trkpt lat="45.585219676396" lon="10.74891337645619"><ele>222.33333333333331</ele><time>2026-03-28T14:42:12Z</time></trkpt><trkpt lat="45.58512721467592" lon="10.748951720447291"><ele>223.0</ele><time>2026-03-28T14:42:13Z</time></trkpt><trkpt lat="45.58502926587372" lon="10.749011259307943"><ele>223.0</ele><time>2026-03-28T14:42:14Z</time></trkpt><trkpt lat="45.58493690209467" lon="10.749098112502095"><ele>223.0</ele><time>2026-03-28T14:42:15Z</time></trkpt><trkpt lat="45.5848505943923" lon="10.749215170607426"><ele>223.0</ele><time>2026-03-28T14:42:16Z</time></trkpt><trkpt lat="45.584764933542935" lon="10.749340982617213"><ele>223.0</ele><time>2026-03-28T14:42:17Z</time></trkpt><trkpt lat="45.584682789302924" lon="10.749454407190637"><ele>223.2</ele><time>2026-03-28T14:42:18Z</time></trkpt><trkpt lat="45.58460888541079" lon="10.74953402033208"><ele>223.4</ele><time>2026-03-28T14:42:19Z</time></trkpt><trkpt lat="45.584534010601175" lon="10.749591019529332"><ele>223.59999999999997</ele><time>2026-03-28T14:42:20Z</time></trkpt><trkpt lat="45.584456028440194" lon="10.749620384572415"><ele>223.79999999999998</ele><time>2026-03-28T14:42:21Z</time></trkpt><trkpt lat="45.58436384735838" lon="10.749626893000645"><ele>224.0</ele><time>2026-03-28T14:42:22Z</time></trkpt><trkpt lat="45.58425154158504" lon="10.749617867645537"><ele>224.0</ele><time>2026-03-28T14:42:23Z</time></trkpt><trkpt lat="45.584134452197496" lon="10.749608008509057"><ele>224.0</ele><time>2026-03-28T14:42:24Z</time></trkpt><trkpt lat="45.58401082602704" lon="10.74960502924793"><ele>224.0</ele><time>2026-03-28T14:42:25Z</time></trkpt><trkpt lat="45.58388041458237" lon="10.749609582631376"><ele>224.0</ele><time>2026-03-28T14:42:26Z</time></trkpt><trkpt lat="45.583739056706285" lon="10.749612217033754"><ele>224.75</ele><time>2026-03-28T14:42:27Z</time></trkpt><trkpt lat="45.58361035031978" lon="10.749632493008951"><ele>225.5</ele><time>2026-03-28T14:42:28Z</time></trkpt><trkpt lat="45.58348875076587" lon="10.749661017247517"><ele>226.25</ele><time>2026-03-28T14:42:29Z</time></trkpt><trkpt lat="45.58336143474483" lon="10.749696877044677"><ele>227.0</ele><time>2026-03-28T14:42:30Z</time></trkpt><trkpt lat="45.58324123778566" lon="10.74973035840943"><ele>227.0</ele><time>2026-03-28T14:42:31Z</time></trkpt><trkpt lat="45.58312431582161" lon="10.749756467878548"><ele>227.0</ele><time>2026-03-28T14:42:32Z</time></trkpt><trkpt lat="45.58299736833546" lon="10.749758492263343"><ele>227.0</ele><time>2026-03-28T14:42:33Z</time></trkpt><trkpt lat="45.58287333240761" lon="10.749739696346637"><ele>227.0</ele><time>2026-03-28T14:42:34Z</time></trkpt><trkpt lat="45.58274938791943" lon="10.749717049486895"><ele>226.5</ele><time>2026-03-28T14:42:35Z</time></trkpt><trkpt lat="45.58260718064565" lon="10.749680017899044"><ele>226.0</ele><time>2026-03-28T14:42:36Z</time></trkpt><trkpt lat="45.5824594899619" lon="10.749632421983103"><ele>225.5</ele><time>2026-03-28T14:42:37Z</time></trkpt><trkpt lat="45.58232276944637" lon="10.749595353366296"><ele>225.0</ele><time>2026-03-28T14:42:38Z</time></trkpt><trkpt lat="45.58218670336747" lon="10.749561274055736"><ele>225.0</ele><time>2026-03-28T14:42:39Z</time></trkpt><trkpt lat="45.58205481310095" lon="10.749525717076091"><ele>225.0</ele><time>2026-03-28T14:42:40Z</time></trkpt><trkpt lat="45.581923699225655" lon="10.749490055460983"><ele>225.0</ele><time>2026-03-28T14:42:41Z</time></trkpt><trkpt lat="45.581786434158076" lon="10.749459108284677"><ele>225.0</ele><time>2026-03-28T14:42:42Z</time></trkpt><trkpt lat="45.58165518189137" lon="10.74944803609836"><ele>224.25</ele><time>2026-03-28T14:42:43Z</time></trkpt><trkpt lat="45.58151366188657" lon="10.749431468789842"><ele>223.5</ele><time>2026-03-28T14:42:44Z</time></trkpt><trkpt lat="45.58137403002247" lon="10.749408006247135"><ele>222.75</ele><time>2026-03-28T14:42:45Z</time></trkpt><trkpt lat="45.58124640747854" lon="10.749388740277723"><ele>222.0</ele><time>2026-03-28T14:42:46Z</time></trkpt><trkpt lat="45.58113253529456" lon="10.749361327021441"><ele>222.25</ele><time>2026-03-28T14:42:47Z</time></trkpt><trkpt lat="45.58102371987464" lon="10.749356406091156"><ele>222.5</ele><time>2026-03-28T14:42:48Z</time></trkpt><trkpt lat="45.5809067476293" lon="10.749383279940162"><ele>222.75</ele><time>2026-03-28T14:42:49Z</time></trkpt><trkpt lat="45.580780630420165" lon="10.749433425000644"><ele>223.0</ele><time>2026-03-28T14:42:50Z</time></trkpt><trkpt lat="45.58064287320593" lon="10.74951411498038"><ele>223.0</ele><time>2026-03-28T14:42:51Z</time></trkpt><trkpt lat="45.58053092031802" lon="10.749588779729121"><ele>223.0</ele><time>2026-03-28T14:42:52Z</time></trkpt><trkpt lat="45.58043287988348" lon="10.749642332422717"><ele>223.0</ele><time>2026-03-28T14:42:53Z</time></trkpt><trkpt lat="45.58035303081007" lon="10.749686512684514"><ele>223.0</ele><time>2026-03-28T14:42:54Z</time></trkpt><trkpt lat="45.58027946431145" lon="10.749728917122283"><ele>223.0</ele><time>2026-03-28T14:42:55Z</time></trkpt><trkpt lat="45.58021130716934" lon="10.749829665183404"><ele>224.4</ele><time>2026-03-28T14:42:57Z</time></trkpt><trkpt lat="45.580151295705335" lon="10.74993381503843"><ele>225.8</ele><time>2026-03-28T14:42:59Z</time></trkpt><trkpt lat="45.580056163701414" lon="10.749997111936219"><ele>227.2</ele><time>2026-03-28T14:43:00Z</time></trkpt><trkpt lat="45.57995369510216" lon="10.750042139146279"><ele>228.6</ele><time>2026-03-28T14:43:01Z</time></trkpt><trkpt lat="45.57983485475747" lon="10.750120885162247"><ele>230.0</ele><time>2026-03-28T14:43:02Z</time></trkpt><trkpt lat="45.57973310921131" lon="10.750188023833347"><ele>229.75</ele><time>2026-03-28T14:43:03Z</time></trkpt><trkpt lat="45.57962216942334" lon="10.750253631184906"><ele>229.5</ele><time>2026-03-28T14:43:04Z</time></trkpt><trkpt lat="45.57951364719116" lon="10.750326901525451"><ele>229.25</ele><time>2026-03-28T14:43:05Z</time></trkpt><trkpt lat="45.579397356990206" lon="10.750404657629614"><ele>229.0</ele><time>2026-03-28T14:43:06Z</time></trkpt><trkpt lat="45.57927079198843" lon="10.750485138689989"><ele>229.0</ele><time>2026-03-28T14:43:07Z</time></trkpt><trkpt lat="45.579177987774536" lon="10.750549756844636"><ele>228.99999999999997</ele><time>2026-03-28T14:43:08Z</time></trkpt><trkpt lat="45.57907912618542" lon="10.750612377731763"><ele>228.99999999999997</ele><time>2026-03-28T14:43:09Z</time></trkpt><trkpt lat="45.57898371059942" lon="10.750677474008961"><ele>229.0</ele><time>2026-03-28T14:43:10Z</time></trkpt><trkpt lat="45.57889360024888" lon="10.750746640759784"><ele>229.0</ele><time>2026-03-28T14:43:11Z</time></trkpt><trkpt lat="45.57882314375802" lon="10.750801308817469"><ele>229.0</ele><time>2026-03-28T14:43:12Z</time></trkpt><trkpt lat="45.578748900055245" lon="10.750850311263838"><ele>229.0</ele><time>2026-03-28T14:43:13Z</time></trkpt><trkpt lat="45.57860835370496" lon="10.750753237524716"><ele>229.0</ele><time>2026-03-28T14:43:14Z</time></trkpt><trkpt lat="45.578512631502086" lon="10.75081517039381"><ele>229.0</ele><time>2026-03-28T14:43:16Z</time></trkpt><trkpt lat="45.578391161048785" lon="10.751308009916537"><ele>228.0</ele><time>2026-03-28T14:43:19Z</time></trkpt><trkpt lat="45.57862043316733" lon="10.751233441155472"><ele>227.0</ele><time>2026-03-28T14:43:20Z</time></trkpt><trkpt lat="45.57866447299076" lon="10.751335372396904"><ele>226.0</ele><time>2026-03-28T14:43:21Z</time></trkpt><trkpt lat="45.578707407102094" lon="10.751422371167918"><ele>225.0</ele><time>2026-03-28T14:43:22Z</time></trkpt><trkpt lat="45.57872975460475" lon="10.751528945974544"><ele>225.0</ele><time>2026-03-28T14:43:23Z</time></trkpt><trkpt lat="45.57859136826214" lon="10.75169824946532"><ele>225.0</ele><time>2026-03-28T14:43:24Z</time></trkpt><trkpt lat="45.57875174772857" lon="10.751811554052633"><ele>225.0</ele><time>2026-03-28T14:43:26Z</time></trkpt><trkpt lat="45.57873350401738" lon="10.75194418884888"><ele>223.6</ele><time>2026-03-28T14:43:28Z</time></trkpt><trkpt lat="45.57870783410889" lon="10.752108602442163"><ele>222.2</ele><time>2026-03-28T14:43:30Z</time></trkpt><trkpt lat="45.57868148564046" lon="10.752304296851507"><ele>220.8</ele><time>2026-03-28T14:43:32Z</time></trkpt><trkpt lat="45.5786690575094" lon="10.752414661057868"><ele>219.4</ele><time>2026-03-28T14:43:33Z</time></trkpt><trkpt lat="45.57865659229181" lon="10.75250837860396"><ele>218.0</ele><time>2026-03-28T14:43:34Z</time></trkpt><trkpt lat="45.578534146057166" lon="10.752529824078376"><ele>218.0</ele><time>2026-03-28T14:43:36Z</time></trkpt><trkpt lat="45.57844361581549" lon="10.752616107260133"><ele>218.0</ele><time>2026-03-28T14:43:39Z</time></trkpt><trkpt lat="45.57847647252385" lon="10.752822070225454"><ele>218.0</ele><time>2026-03-28T14:43:40Z</time></trkpt><trkpt lat="45.57846855118583" lon="10.75296380803534"><ele>218.0</ele><time>2026-03-28T14:43:41Z</time></trkpt><trkpt lat="45.57844011751219" lon="10.753141867026407"><ele>217.0</ele><time>2026-03-28T14:43:42Z</time></trkpt><trkpt lat="45.57842935366838" lon="10.75330427028695"><ele>216.0</ele><time>2026-03-28T14:43:43Z</time></trkpt><trkpt lat="45.57843038154976" lon="10.753450599582061"><ele>215.0</ele><time>2026-03-28T14:43:44Z</time></trkpt><trkpt lat="45.57845404095279" lon="10.753605671756304"><ele>214.0</ele><time>2026-03-28T14:43:45Z</time></trkpt><trkpt lat="45.578510092409374" lon="10.753748800401015"><ele>213.0</ele><time>2026-03-28T14:43:46Z</time></trkpt><trkpt lat="45.578557702414564" lon="10.753887588970757"><ele>212.2</ele><time>2026-03-28T14:43:47Z</time></trkpt><trkpt lat="45.57858488447385" lon="10.754012681835311"><ele>211.4</ele><time>2026-03-28T14:43:48Z</time></trkpt><trkpt lat="45.57861104190683" lon="10.75413017793871"><ele>210.6</ele><time>2026-03-28T14:43:50Z</time></trkpt><trkpt lat="45.57852910062424" lon="10.754117919247504"><ele>209.79999999999998</ele><time>2026-03-28T14:43:54Z</time></trkpt><trkpt lat="45.578430466249145" lon="10.754044403035529"><ele>209.0</ele><time>2026-03-28T14:43:56Z</time></trkpt><trkpt lat="45.57835217725632" lon="10.75398864017864"><ele>209.0</ele><time>2026-03-28T14:43:57Z</time></trkpt><trkpt lat="45.57825205857502" lon="10.753939802500732"><ele>209.0</ele><time>2026-03-28T14:43:58Z</time></trkpt><trkpt lat="45.57813328879438" lon="10.753838273183279"><ele>209.0</ele><time>2026-03-28T14:43:59Z</time></trkpt><trkpt lat="45.578007179641915" lon="10.75374692805071"><ele>209.0</ele><time>2026-03-28T14:44:00Z</time></trkpt><trkpt lat="45.577899867882635" lon="10.753655072058912"><ele>209.25</ele><time>2026-03-28T14:44:01Z</time></trkpt><trkpt lat="45.57780535968434" lon="10.753557179814166"><ele>209.5</ele><time>2026-03-28T14:44:02Z</time></trkpt><trkpt lat="45.57770082745645" lon="10.753469293105372"><ele>209.75</ele><time>2026-03-28T14:44:03Z</time></trkpt><trkpt lat="45.57761590469301" lon="10.75336453829793"><ele>210.0</ele><time>2026-03-28T14:44:04Z</time></trkpt><trkpt lat="45.577518316735826" lon="10.753265783468928"><ele>210.0</ele><time>2026-03-28T14:44:05Z</time></trkpt><trkpt lat="45.5774494349547" lon="10.753142144760742"><ele>210.0</ele><time>2026-03-28T14:44:06Z</time></trkpt><trkpt lat="45.577368283770944" lon="10.753011171310925"><ele>210.0</ele><time>2026-03-28T14:44:07Z</time></trkpt><trkpt lat="45.577285158939986" lon="10.75285167763568"><ele>210.0</ele><time>2026-03-28T14:44:08Z</time></trkpt><trkpt lat="45.577199985490545" lon="10.7526718718487"><ele>210.0</ele><time>2026-03-28T14:44:09Z</time></trkpt><trkpt lat="45.57710647484662" lon="10.752489794145015"><ele>210.0</ele><time>2026-03-28T14:44:10Z</time></trkpt><trkpt lat="45.57703217513128" lon="10.752318511332446"><ele>210.0</ele><time>2026-03-28T14:44:11Z</time></trkpt><trkpt lat="45.57695308518161" lon="10.752157687805413"><ele>210.0</ele><time>2026-03-28T14:44:12Z</time></trkpt><trkpt lat="45.57687479792621" lon="10.751987031522912"><ele>210.0</ele><time>2026-03-28T14:44:13Z</time></trkpt><trkpt lat="45.57679857843821" lon="10.751832244696482"><ele>210.0</ele><time>2026-03-28T14:44:14Z</time></trkpt><trkpt lat="45.576738431882184" lon="10.751711318032527"><ele>210.0</ele><time>2026-03-28T14:44:15Z</time></trkpt><trkpt lat="45.57668114834022" lon="10.751627058273867"><ele>210.0</ele><time>2026-03-28T14:44:16Z</time></trkpt><trkpt lat="45.57662889916226" lon="10.751547850504707"><ele>210.0</ele><time>2026-03-28T14:44:17Z</time></trkpt><trkpt lat="45.576587411982985" lon="10.751450000335197"><ele>210.0</ele><time>2026-03-28T14:44:19Z</time></trkpt><trkpt lat="45.57654400432045" lon="10.751355311218418"><ele>210.0</ele><time>2026-03-28T14:44:21Z</time></trkpt><trkpt lat="45.576463040048274" lon="10.75124037469347"><ele>210.0</ele><time>2026-03-28T14:44:23Z</time></trkpt><trkpt lat="45.576390946274735" lon="10.751115806752091"><ele>210.0</ele><time>2026-03-28T14:44:25Z</time></trkpt><trkpt lat="45.57632772968277" lon="10.751001167057302"><ele>210.0</ele><time>2026-03-28T14:44:27Z</time></trkpt><trkpt lat="45.5762366757182" lon="10.75087242456314"><ele>210.0</ele><time>2026-03-28T14:44:29Z</time></trkpt><trkpt lat="45.57619622483882" lon="10.750789574095723"><ele>210.0</ele><time>2026-03-28T14:44:30Z</time></trkpt><trkpt lat="45.57614803126103" lon="10.75070562010505"><ele>210.0</ele><time>2026-03-28T14:44:31Z</time></trkpt><trkpt lat="45.57609610446314" lon="10.750618488114467"><ele>210.0</ele><time>2026-03-28T14:44:32Z</time></trkpt><trkpt lat="45.57603995201917" lon="10.750526172904976"><ele>210.0</ele><time>2026-03-28T14:44:33Z</time></trkpt><trkpt lat="45.575990722235474" lon="10.750434412271499"><ele>210.0</ele><time>2026-03-28T14:44:34Z</time></trkpt><trkpt lat="45.57594380740937" lon="10.750347058568554"><ele>210.0</ele><time>2026-03-28T14:44:35Z</time></trkpt><trkpt lat="45.57589180565369" lon="10.750272752963003"><ele>210.0</ele><time>2026-03-28T14:44:36Z</time></trkpt><trkpt lat="45.575851764455166" lon="10.750185251356882"><ele>210.0</ele><time>2026-03-28T14:44:37Z</time></trkpt><trkpt lat="45.57580435712957" lon="10.750120558776453"><ele>210.0</ele><time>2026-03-28T14:44:38Z</time></trkpt><trkpt lat="45.57574850599345" lon="10.750055753494662"><ele>210.0</ele><time>2026-03-28T14:44:39Z</time></trkpt><trkpt lat="45.57567953843067" lon="10.749984435877273"><ele>210.0</ele><time>2026-03-28T14:44:40Z</time></trkpt><trkpt lat="45.575603479722524" lon="10.749919399358019"><ele>210.0</ele><time>2026-03-28T14:44:41Z</time></trkpt><trkpt lat="45.57551766752367" lon="10.749854698877469"><ele>210.0</ele><time>2026-03-28T14:44:42Z</time></trkpt><trkpt lat="45.5754438058171" lon="10.749801700076679"><ele>210.0</ele><time>2026-03-28T14:44:43Z</time></trkpt><trkpt lat="45.57536757876435" lon="10.749747004058127"><ele>210.0</ele><time>2026-03-28T14:44:44Z</time></trkpt><trkpt lat="45.575284300917794" lon="10.749682373478185"><ele>210.0</ele><time>2026-03-28T14:44:45Z</time></trkpt><trkpt lat="45.57520453249359" lon="10.749619522362856"><ele>210.2</ele><time>2026-03-28T14:44:46Z</time></trkpt><trkpt lat="45.57511829014094" lon="10.749551310362568"><ele>210.4</ele><time>2026-03-28T14:44:47Z</time></trkpt><trkpt lat="45.57503183062644" lon="10.749482883851831"><ele>210.60000000000002</ele><time>2026-03-28T14:44:48Z</time></trkpt><trkpt lat="45.57494606563103" lon="10.749411716634805"><ele>210.8</ele><time>2026-03-28T14:44:49Z</time></trkpt><trkpt lat="45.5748556258727" lon="10.749363755695038"><ele>211.0</ele><time>2026-03-28T14:44:50Z</time></trkpt><trkpt lat="45.57478844323205" lon="10.749280923941292"><ele>211.0</ele><time>2026-03-28T14:44:51Z</time></trkpt><trkpt lat="45.57471780104956" lon="10.749224368813321"><ele>211.0</ele><time>2026-03-28T14:44:52Z</time></trkpt><trkpt lat="45.57464947587038" lon="10.749171038237682"><ele>211.0</ele><time>2026-03-28T14:44:53Z</time></trkpt><trkpt lat="45.57456306924993" lon="10.749104807848576"><ele>211.0</ele><time>2026-03-28T14:44:55Z</time></trkpt><trkpt lat="45.57448213488072" lon="10.74904543348615"><ele>211.0</ele><time>2026-03-28T14:44:57Z</time></trkpt><trkpt lat="45.57436378433914" lon="10.748970593439706"><ele>210.28571428571428</ele><time>2026-03-28T14:44:59Z</time></trkpt><trkpt lat="45.574296474605305" lon="10.748952760938844"><ele>209.57142857142858</ele><time>2026-03-28T14:45:00Z</time></trkpt><trkpt lat="45.57422880298355" lon="10.748909523326391"><ele>208.85714285714283</ele><time>2026-03-28T14:45:01Z</time></trkpt><trkpt lat="45.57415694452207" lon="10.74887032331827"><ele>208.14285714285714</ele><time>2026-03-28T14:45:02Z</time></trkpt><trkpt lat="45.574085732763166" lon="10.748825107410182"><ele>207.42857142857142</ele><time>2026-03-28T14:45:03Z</time></trkpt><trkpt lat="45.574013257477496" lon="10.74877710726461"><ele>206.7142857142857</ele><time>2026-03-28T14:45:04Z</time></trkpt><trkpt lat="45.57395074122382" lon="10.748735147641074"><ele>206.0</ele><time>2026-03-28T14:45:05Z</time></trkpt><trkpt lat="45.57389593264765" lon="10.748656683292811"><ele>206.00000000000003</ele><time>2026-03-28T14:45:06Z</time></trkpt><trkpt lat="45.57383534778739" lon="10.748593135035517"><ele>206.0</ele><time>2026-03-28T14:45:07Z</time></trkpt><trkpt lat="45.57377000481594" lon="10.74852081112221"><ele>206.0</ele><time>2026-03-28T14:45:08Z</time></trkpt><trkpt lat="45.573703344877124" lon="10.74844400345567"><ele>206.0</ele><time>2026-03-28T14:45:09Z</time></trkpt><trkpt lat="45.57363778851886" lon="10.748367756104722"><ele>206.00000000000003</ele><time>2026-03-28T14:45:10Z</time></trkpt><trkpt lat="45.57357273070432" lon="10.748295190125171"><ele>206.0</ele><time>2026-03-28T14:45:11Z</time></trkpt><trkpt lat="45.57351548134924" lon="10.748227221874737"><ele>206.16666666666669</ele><time>2026-03-28T14:45:12Z</time></trkpt><trkpt lat="45.57345723365435" lon="10.748160795488674"><ele>206.33333333333334</ele><time>2026-03-28T14:45:13Z</time></trkpt><trkpt lat="45.57339943130721" lon="10.748099619951342"><ele>206.5</ele><time>2026-03-28T14:45:14Z</time></trkpt><trkpt lat="45.57332877655468" lon="10.747998843518873"><ele>206.66666666666669</ele><time>2026-03-28T14:45:16Z</time></trkpt><trkpt lat="45.57320594047261" lon="10.748024444486942"><ele>206.83333333333334</ele><time>2026-03-28T14:45:19Z</time></trkpt><trkpt lat="45.573140478220715" lon="10.748060850186434"><ele>207.0</ele><time>2026-03-28T14:45:20Z</time></trkpt><trkpt lat="45.57304468674311" lon="10.748144719303037"><ele>207.0</ele><time>2026-03-28T14:45:21Z</time></trkpt><trkpt lat="45.57294809646963" lon="10.748228215045348"><ele>207.0</ele><time>2026-03-28T14:45:22Z</time></trkpt><trkpt lat="45.57285283498322" lon="10.748310562134565"><ele>207.0</ele><time>2026-03-28T14:45:23Z</time></trkpt><trkpt lat="45.57275491023938" lon="10.748396918522692"><ele>207.0</ele><time>2026-03-28T14:45:24Z</time></trkpt><trkpt lat="45.57264536167146" lon="10.748497921786727"><ele>207.2</ele><time>2026-03-28T14:45:25Z</time></trkpt><trkpt lat="45.57253990084551" lon="10.748596641212345"><ele>207.39999999999998</ele><time>2026-03-28T14:45:26Z</time></trkpt><trkpt lat="45.57244320870949" lon="10.748696750294785"><ele>207.60000000000002</ele><time>2026-03-28T14:45:27Z</time></trkpt><trkpt lat="45.57236740966676" lon="10.748780039656728"><ele>207.8</ele><time>2026-03-28T14:45:28Z</time></trkpt><trkpt lat="45.57227987276189" lon="10.748849933095473"><ele>208.0</ele><time>2026-03-28T14:45:29Z</time></trkpt><trkpt lat="45.572206904678005" lon="10.748879338781826"><ele>207.99999999999997</ele><time>2026-03-28T14:45:30Z</time></trkpt><trkpt lat="45.572137886301185" lon="10.748858794787614"><ele>208.0</ele><time>2026-03-28T14:45:31Z</time></trkpt><trkpt lat="45.572062744687706" lon="10.74883119717161"><ele>208.0</ele><time>2026-03-28T14:45:32Z</time></trkpt><trkpt lat="45.571987723607954" lon="10.748807248793906"><ele>208.0</ele><time>2026-03-28T14:45:33Z</time></trkpt><trkpt lat="45.57191328349823" lon="10.748768984908422"><ele>207.99999999999997</ele><time>2026-03-28T14:45:34Z</time></trkpt><trkpt lat="45.571828753666644" lon="10.748724150402298"><ele>208.0</ele><time>2026-03-28T14:45:35Z</time></trkpt><trkpt lat="45.571735679282014" lon="10.748678906023594"><ele>208.2</ele><time>2026-03-28T14:45:36Z</time></trkpt><trkpt lat="45.57163806935626" lon="10.748624533534473"><ele>208.4</ele><time>2026-03-28T14:45:37Z</time></trkpt><trkpt lat="45.57154123448114" lon="10.748570030247592"><ele>208.6</ele><time>2026-03-28T14:45:38Z</time></trkpt><trkpt lat="45.57143599582934" lon="10.74848924784807"><ele>208.79999999999998</ele><time>2026-03-28T14:45:39Z</time></trkpt><trkpt lat="45.57134558111286" lon="10.748409389245879"><ele>209.0</ele><time>2026-03-28T14:45:40Z</time></trkpt><trkpt lat="45.571251937051116" lon="10.74833726752982"><ele>208.6</ele><time>2026-03-28T14:45:41Z</time></trkpt><trkpt lat="45.571162462953374" lon="10.748267806269881"><ele>208.2</ele><time>2026-03-28T14:45:42Z</time></trkpt><trkpt lat="45.57107128589477" lon="10.748193220448877"><ele>207.79999999999998</ele><time>2026-03-28T14:45:43Z</time></trkpt><trkpt lat="45.57098145466601" lon="10.748106471725489"><ele>207.39999999999998</ele><time>2026-03-28T14:45:44Z</time></trkpt><trkpt lat="45.57090069133157" lon="10.748041698086507"><ele>207.0</ele><time>2026-03-28T14:45:45Z</time></trkpt><trkpt lat="45.57083871755793" lon="10.747985874523927"><ele>207.0</ele><time>2026-03-28T14:45:46Z</time></trkpt><trkpt lat="45.57076924451058" lon="10.747965084980391"><ele>207.0</ele><time>2026-03-28T14:45:47Z</time></trkpt><trkpt lat="45.57068621427199" lon="10.747973700496777"><ele>207.0</ele><time>2026-03-28T14:45:48Z</time></trkpt><trkpt lat="45.57061093011501" lon="10.748026946640188"><ele>207.0</ele><time>2026-03-28T14:45:49Z</time></trkpt><trkpt lat="45.570535464242305" lon="10.74812423479381"><ele>207.0</ele><time>2026-03-28T14:45:50Z</time></trkpt><trkpt lat="45.570463034838475" lon="10.748225140618912"><ele>207.0</ele><time>2026-03-28T14:45:51Z</time></trkpt><trkpt lat="45.57037679305696" lon="10.748330986857324"><ele>211.25</ele><time>2026-03-28T14:45:52Z</time></trkpt><trkpt lat="45.570297705395724" lon="10.748467787495953"><ele>215.5</ele><time>2026-03-28T14:45:53Z</time></trkpt><trkpt lat="45.57022481483813" lon="10.748613357640263"><ele>219.75</ele><time>2026-03-28T14:45:54Z</time></trkpt><trkpt lat="45.57016927582541" lon="10.74875460597682"><ele>224.0</ele><time>2026-03-28T14:45:55Z</time></trkpt><trkpt lat="45.57012552180192" lon="10.748907431710915"><ele>224.00000000000003</ele><time>2026-03-28T14:45:56Z</time></trkpt><trkpt lat="45.57010017013928" lon="10.749061713071814"><ele>224.0</ele><time>2026-03-28T14:45:57Z</time></trkpt><trkpt lat="45.57009215951801" lon="10.749187241598115"><ele>224.0</ele><time>2026-03-28T14:45:58Z</time></trkpt><trkpt lat="45.57007768227038" lon="10.74928558153205"><ele>224.0</ele><time>2026-03-28T14:45:59Z</time></trkpt><trkpt lat="45.570078362017036" lon="10.749380005168598"><ele>224.00000000000003</ele><time>2026-03-28T14:46:00Z</time></trkpt><trkpt lat="45.57008927424623" lon="10.749478989136689"><ele>224.0</ele><time>2026-03-28T14:46:01Z</time></trkpt><trkpt lat="45.570062610646154" lon="10.74957473472823"><ele>224.6</ele><time>2026-03-28T14:46:02Z</time></trkpt><trkpt lat="45.570039225563356" lon="10.749692385733066"><ele>225.2</ele><time>2026-03-28T14:46:03Z</time></trkpt><trkpt lat="45.57000424353489" lon="10.749817809995779"><ele>225.79999999999998</ele><time>2026-03-28T14:46:04Z</time></trkpt><trkpt lat="45.569958890371396" lon="10.749919526374407"><ele>226.39999999999998</ele><time>2026-03-28T14:46:05Z</time></trkpt><trkpt lat="45.569920245034965" lon="10.749999933155545"><ele>227.0</ele><time>2026-03-28T14:46:06Z</time></trkpt><trkpt lat="45.56985231578076" lon="10.750139256982905"><ele>227.0</ele><time>2026-03-28T14:46:08Z</time></trkpt><trkpt lat="45.56980536021277" lon="10.750213889843822"><ele>227.0</ele><time>2026-03-28T14:46:09Z</time></trkpt><trkpt lat="45.56976756908579" lon="10.750286398364533"><ele>227.0</ele><time>2026-03-28T14:46:10Z</time></trkpt><trkpt lat="45.56970926882212" lon="10.750324363003033"><ele>227.0</ele><time>2026-03-28T14:46:14Z</time></trkpt><trkpt lat="45.569654576500135" lon="10.750118810214257"><ele>227.0</ele><time>2026-03-28T14:46:16Z</time></trkpt><trkpt lat="45.569623892861095" lon="10.749969546161767"><ele>227.0</ele><time>2026-03-28T14:46:17Z</time></trkpt><trkpt lat="45.56957561141308" lon="10.749806532075546"><ele>227.0</ele><time>2026-03-28T14:46:18Z</time></trkpt><trkpt lat="45.569522609013646" lon="10.749623716038242"><ele>227.0</ele><time>2026-03-28T14:46:19Z</time></trkpt><trkpt lat="45.56948083442799" lon="10.749428161419413"><ele>227.0</ele><time>2026-03-28T14:46:20Z</time></trkpt><trkpt lat="45.56945237447457" lon="10.749220220963418"><ele>226.75</ele><time>2026-03-28T14:46:21Z</time></trkpt><trkpt lat="45.56943036420814" lon="10.749018712460396"><ele>226.5</ele><time>2026-03-28T14:46:22Z</time></trkpt><trkpt lat="45.56940925230351" lon="10.748822684158743"><ele>226.25</ele><time>2026-03-28T14:46:23Z</time></trkpt><trkpt lat="45.56938972321929" lon="10.74864123726587"><ele>226.0</ele><time>2026-03-28T14:46:24Z</time></trkpt><trkpt lat="45.56938083455966" lon="10.74847906794041"><ele>225.75</ele><time>2026-03-28T14:46:25Z</time></trkpt><trkpt lat="45.56937743680644" lon="10.748352244658438"><ele>225.5</ele><time>2026-03-28T14:46:26Z</time></trkpt><trkpt lat="45.56931426609295" lon="10.748176928119527"><ele>225.25</ele><time>2026-03-28T14:46:28Z</time></trkpt><trkpt lat="45.56922271820045" lon="10.74810814169899"><ele>225.0</ele><time>2026-03-28T14:46:29Z</time></trkpt><trkpt lat="45.5691178315831" lon="10.747976256631267"><ele>225.0</ele><time>2026-03-28T14:46:30Z</time></trkpt><trkpt lat="45.56899667946622" lon="10.747826772788002"><ele>225.0</ele><time>2026-03-28T14:46:31Z</time></trkpt><trkpt lat="45.568883680157185" lon="10.74768689487178"><ele>225.0</ele><time>2026-03-28T14:46:32Z</time></trkpt><trkpt lat="45.56878900142025" lon="10.747569715588407"><ele>225.0</ele><time>2026-03-28T14:46:33Z</time></trkpt><trkpt lat="45.568709193578954" lon="10.747467977105625"><ele>226.5</ele><time>2026-03-28T14:46:34Z</time></trkpt><trkpt lat="45.56859292578905" lon="10.74744989648035"><ele>228.0</ele><time>2026-03-28T14:46:35Z</time></trkpt><trkpt lat="45.56848237450944" lon="10.747413338842811"><ele>229.5</ele><time>2026-03-28T14:46:36Z</time></trkpt><trkpt lat="45.56835792959342" lon="10.74735321043096"><ele>231.0</ele><time>2026-03-28T14:46:37Z</time></trkpt><trkpt lat="45.568248826248784" lon="10.747322111720955"><ele>231.0</ele><time>2026-03-28T14:46:38Z</time></trkpt><trkpt lat="45.5681405335217" lon="10.747265154984875"><ele>231.00000000000003</ele><time>2026-03-28T14:46:39Z</time></trkpt><trkpt lat="45.568042863086646" lon="10.747270881483894"><ele>231.00000000000003</ele><time>2026-03-28T14:46:40Z</time></trkpt><trkpt lat="45.56796453278173" lon="10.747304068999982"><ele>231.0</ele><time>2026-03-28T14:46:41Z</time></trkpt><trkpt lat="45.56786983592623" lon="10.747305432874871"><ele>231.0</ele><time>2026-03-28T14:46:42Z</time></trkpt><trkpt lat="45.567777586633866" lon="10.747312608686274"><ele>232.0</ele><time>2026-03-28T14:46:44Z</time></trkpt><trkpt lat="45.56768292332074" lon="10.747295536592219"><ele>233.00000000000003</ele><time>2026-03-28T14:46:46Z</time></trkpt><trkpt lat="45.567583829904486" lon="10.747308206430205"><ele>234.00000000000003</ele><time>2026-03-28T14:46:48Z</time></trkpt><trkpt lat="45.56747339657801" lon="10.74731699408696"><ele>235.0</ele><time>2026-03-28T14:46:50Z</time></trkpt><trkpt lat="45.56737187328288" lon="10.747366009766163"><ele>236.0</ele><time>2026-03-28T14:46:52Z</time></trkpt><trkpt lat="45.56726527517974" lon="10.747374311770058"><ele>236.00000000000003</ele><time>2026-03-28T14:46:55Z</time></trkpt><trkpt lat="45.5671563286907" lon="10.74739035801115"><ele>236.0</ele><time>2026-03-28T14:46:57Z</time></trkpt><trkpt lat="45.56709286089793" lon="10.747369633785693"><ele>236.0</ele><time>2026-03-28T14:46:59Z</time></trkpt><trkpt lat="45.56698052764692" lon="10.747352349493285"><ele>236.0</ele><time>2026-03-28T14:47:01Z</time></trkpt><trkpt lat="45.56691412125785" lon="10.74733887120399"><ele>236.00000000000003</ele><time>2026-03-28T14:47:02Z</time></trkpt><trkpt lat="45.566843272935806" lon="10.747351532396637"><ele>236.0</ele><time>2026-03-28T14:47:04Z</time></trkpt><trkpt lat="45.566729310720866" lon="10.747398618525182"><ele>238.00000000000003</ele><time>2026-03-28T14:47:14Z</time></trkpt><trkpt lat="45.566668001384194" lon="10.747432722637798"><ele>240.0</ele><time>2026-03-28T14:47:15Z</time></trkpt><trkpt lat="45.5666033351519" lon="10.747479959730171"><ele>242.0</ele><time>2026-03-28T14:47:16Z</time></trkpt><trkpt lat="45.56655301829705" lon="10.747542155944366"><ele>244.0</ele><time>2026-03-28T14:47:18Z</time></trkpt><trkpt lat="45.566460658599595" lon="10.747603602033132"><ele>246.00000000000003</ele><time>2026-03-28T14:47:26Z</time></trkpt><trkpt lat="45.5663646860482" lon="10.747722332326576"><ele>248.0</ele><time>2026-03-28T14:47:28Z</time></trkpt><trkpt lat="45.56632610481355" lon="10.747888664435276"><ele>249.2</ele><time>2026-03-28T14:47:30Z</time></trkpt><trkpt lat="45.566337632600536" lon="10.748096487204515"><ele>250.4</ele><time>2026-03-28T14:47:32Z</time></trkpt><trkpt lat="45.56636705902877" lon="10.748225232530702"><ele>251.59999999999997</ele><time>2026-03-28T14:47:33Z</time></trkpt><trkpt lat="45.56640454374712" lon="10.748361824741172"><ele>252.79999999999998</ele><time>2026-03-28T14:47:34Z</time></trkpt><trkpt lat="45.56644621408669" lon="10.748498387213964"><ele>254.0</ele><time>2026-03-28T14:47:35Z</time></trkpt><trkpt lat="45.56649895378695" lon="10.748632603099622"><ele>256.1666666666667</ele><time>2026-03-28T14:47:36Z</time></trkpt><trkpt lat="45.566555262757895" lon="10.748733188901916"><ele>258.33333333333337</ele><time>2026-03-28T14:47:37Z</time></trkpt><trkpt lat="45.566590469400026" lon="10.748809139780596"><ele>260.5</ele><time>2026-03-28T14:47:38Z</time></trkpt><trkpt lat="45.56665651137835" lon="10.748900214230025"><ele>262.6666666666667</ele><time>2026-03-28T14:47:39Z</time></trkpt><trkpt lat="45.56669341373478" lon="10.749070897536495"><ele>264.8333333333333</ele><time>2026-03-28T14:47:41Z</time></trkpt><trkpt lat="45.566706604020844" lon="10.749169851580806"><ele>267.0</ele><time>2026-03-28T14:47:42Z</time></trkpt><trkpt lat="45.56670985545413" lon="10.74930021020518"><ele>268.0</ele><time>2026-03-28T14:47:44Z</time></trkpt><trkpt lat="45.566663769580096" lon="10.749391008879535"><ele>269.0</ele><time>2026-03-28T14:47:46Z</time></trkpt><trkpt lat="45.56656382622863" lon="10.749528487674914"><ele>270.0</ele><time>2026-03-28T14:47:48Z</time></trkpt><trkpt lat="45.566499573485785" lon="10.749598844502632"><ele>271.0</ele><time>2026-03-28T14:47:49Z</time></trkpt><trkpt lat="45.566440012342724" lon="10.749659683409194"><ele>272.0</ele><time>2026-03-28T14:47:50Z</time></trkpt><trkpt lat="45.56632965665091" lon="10.749771785179572"><ele>272.0</ele><time>2026-03-28T14:47:52Z</time></trkpt><trkpt lat="45.56627187838493" lon="10.74983047948012"><ele>272.0</ele><time>2026-03-28T14:47:53Z</time></trkpt><trkpt lat="45.566181557375224" lon="10.749917605130749"><ele>272.0</ele><time>2026-03-28T14:47:55Z</time></trkpt><trkpt lat="45.56610982024034" lon="10.749986141343882"><ele>272.0</ele><time>2026-03-28T14:47:57Z</time></trkpt><trkpt lat="45.56604858516067" lon="10.750044644171034"><ele>272.0</ele><time>2026-03-28T14:47:59Z</time></trkpt><trkpt lat="45.56597792374778" lon="10.750112152630724"><ele>272.0</ele><time>2026-03-28T14:48:01Z</time></trkpt><trkpt lat="45.56588037424978" lon="10.750208922491629"><ele>272.2</ele><time>2026-03-28T14:48:03Z</time></trkpt><trkpt lat="45.565781515867165" lon="10.750337711395385"><ele>272.4</ele><time>2026-03-28T14:48:05Z</time></trkpt><trkpt lat="45.565716722111226" lon="10.750393794816311"><ele>272.6</ele><time>2026-03-28T14:48:06Z</time></trkpt><trkpt lat="45.56565016408115" lon="10.750463543374153"><ele>272.8</ele><time>2026-03-28T14:48:07Z</time></trkpt><trkpt lat="45.56554996062441" lon="10.750552480066878"><ele>273.0</ele><time>2026-03-28T14:48:09Z</time></trkpt><trkpt lat="45.56545243669506" lon="10.750663989823185"><ele>273.0</ele><time>2026-03-28T14:48:11Z</time></trkpt><trkpt lat="45.565380903332304" lon="10.750686778358935"><ele>273.0</ele><time>2026-03-28T14:48:12Z</time></trkpt><trkpt lat="45.5652981488516" lon="10.750731312350016"><ele>273.0</ele><time>2026-03-28T14:48:13Z</time></trkpt><trkpt lat="45.56519257058404" lon="10.750787048570219"><ele>273.0</ele><time>2026-03-28T14:48:14Z</time></trkpt><trkpt lat="45.56508398718967" lon="10.750863240744078"><ele>273.0</ele><time>2026-03-28T14:48:15Z</time></trkpt><trkpt lat="45.564977608796106" lon="10.750930858319432"><ele>273.4</ele><time>2026-03-28T14:48:16Z</time></trkpt><trkpt lat="45.56489379479001" lon="10.7510214066686"><ele>273.8</ele><time>2026-03-28T14:48:17Z</time></trkpt><trkpt lat="45.564820671955495" lon="10.75114842566976"><ele>274.2</ele><time>2026-03-28T14:48:18Z</time></trkpt><trkpt lat="45.564765450969766" lon="10.751286143668931"><ele>274.6</ele><time>2026-03-28T14:48:19Z</time></trkpt><trkpt lat="45.56468492548129" lon="10.751392604248604"><ele>275.0</ele><time>2026-03-28T14:48:20Z</time></trkpt><trkpt lat="45.56460298534948" lon="10.751479758586363"><ele>273.5</ele><time>2026-03-28T14:48:21Z</time></trkpt><trkpt lat="45.5644901653454" lon="10.751574773715811"><ele>272.0</ele><time>2026-03-28T14:48:22Z</time></trkpt><trkpt lat="45.56436885683243" lon="10.751659359223394"><ele>270.5</ele><time>2026-03-28T14:48:23Z</time></trkpt><trkpt lat="45.56425821169285" lon="10.751754423834946"><ele>269.0</ele><time>2026-03-28T14:48:24Z</time></trkpt><trkpt lat="45.56414697044018" lon="10.751825761935843"><ele>269.0</ele><time>2026-03-28T14:48:25Z</time></trkpt><trkpt lat="45.564042289515854" lon="10.751869301576958"><ele>269.0</ele><time>2026-03-28T14:48:26Z</time></trkpt><trkpt lat="45.56395238783776" lon="10.751949027159318"><ele>269.0</ele><time>2026-03-28T14:48:27Z</time></trkpt><trkpt lat="45.563894536133986" lon="10.752064133029894"><ele>269.0</ele><time>2026-03-28T14:48:28Z</time></trkpt><trkpt lat="45.5638473393464" lon="10.752165530112556"><ele>269.0</ele><time>2026-03-28T14:48:29Z</time></trkpt><trkpt lat="45.56382837596581" lon="10.752295225567876"><ele>267.0</ele><time>2026-03-28T14:48:30Z</time></trkpt><trkpt lat="45.563835032039634" lon="10.752434410258571"><ele>265.0</ele><time>2026-03-28T14:48:31Z</time></trkpt><trkpt lat="45.56386385759718" lon="10.75259066496835"><ele>263.0</ele><time>2026-03-28T14:48:32Z</time></trkpt><trkpt lat="45.56390310323182" lon="10.752766875111849"><ele>261.0</ele><time>2026-03-28T14:48:33Z</time></trkpt><trkpt lat="45.563919003691595" lon="10.752924104048573"><ele>260.1666666666667</ele><time>2026-03-28T14:48:34Z</time></trkpt><trkpt lat="45.56393643085597" lon="10.753057191709383"><ele>259.3333333333333</ele><time>2026-03-28T14:48:35Z</time></trkpt><trkpt lat="45.563948189435486" lon="10.753193109788823"><ele>258.5</ele><time>2026-03-28T14:48:37Z</time></trkpt><trkpt lat="45.56386667528621" lon="10.753210644385748"><ele>257.66666666666663</ele><time>2026-03-28T14:48:39Z</time></trkpt><trkpt lat="45.56382903882239" lon="10.75313095026181"><ele>256.8333333333333</ele><time>2026-03-28T14:48:40Z</time></trkpt><trkpt lat="45.56383938814139" lon="10.753007809323583"><ele>256.0</ele><time>2026-03-28T14:48:41Z</time></trkpt><trkpt lat="45.56380642940207" lon="10.752874883923155"><ele>256.0</ele><time>2026-03-28T14:48:42Z</time></trkpt><trkpt lat="45.56380414425141" lon="10.752745875238448"><ele>256.0</ele><time>2026-03-28T14:48:43Z</time></trkpt><trkpt lat="45.56378008149359" lon="10.752642766616209"><ele>256.0</ele><time>2026-03-28T14:48:44Z</time></trkpt><trkpt lat="45.56370871614463" lon="10.752547859680371"><ele>256.0</ele><time>2026-03-28T14:48:46Z</time></trkpt><trkpt lat="45.56361606204085" lon="10.752571591212707"><ele>256.0</ele><time>2026-03-28T14:48:47Z</time></trkpt><trkpt lat="45.56357602576535" lon="10.752733674192212"><ele>254.8</ele><time>2026-03-28T14:48:48Z</time></trkpt><trkpt lat="45.56361884446313" lon="10.7528751413652"><ele>253.60000000000002</ele><time>2026-03-28T14:48:49Z</time></trkpt><trkpt lat="45.56362705539278" lon="10.753007689099512"><ele>252.4</ele><time>2026-03-28T14:48:50Z</time></trkpt><trkpt lat="45.56360594318787" lon="10.75313138799143"><ele>251.2</ele><time>2026-03-28T14:48:51Z</time></trkpt><trkpt lat="45.56352372616315" lon="10.75319287182085"><ele>250.0</ele><time>2026-03-28T14:48:53Z</time></trkpt><trkpt lat="45.563424846784336" lon="10.753291392909789"><ele>250.0</ele><time>2026-03-28T14:48:55Z</time></trkpt><trkpt lat="45.56336437089028" lon="10.75340193738886"><ele>250.0</ele><time>2026-03-28T14:48:57Z</time></trkpt><trkpt lat="45.56331499654646" lon="10.753474728318027"><ele>250.0</ele><time>2026-03-28T14:48:58Z</time></trkpt><trkpt lat="45.56323598799654" lon="10.753572406166255"><ele>250.0</ele><time>2026-03-28T14:48:59Z</time></trkpt><trkpt lat="45.56314920321624" lon="10.753645111884486"><ele>250.0</ele><time>2026-03-28T14:49:00Z</time></trkpt><trkpt lat="45.563061338899935" lon="10.753689422561823"><ele>247.83333333333331</ele><time>2026-03-28T14:49:01Z</time></trkpt><trkpt lat="45.562958849956125" lon="10.753721717264051"><ele>245.66666666666666</ele><time>2026-03-28T14:49:02Z</time></trkpt><trkpt lat="45.56287957312977" lon="10.753732794028725"><ele>243.5</ele><time>2026-03-28T14:49:03Z</time></trkpt><trkpt lat="45.56279854725358" lon="10.75372552017831"><ele>241.33333333333331</ele><time>2026-03-28T14:49:04Z</time></trkpt><trkpt lat="45.56272131660152" lon="10.753695216192927"><ele>239.16666666666666</ele><time>2026-03-28T14:49:05Z</time></trkpt><trkpt lat="45.562623891607714" lon="10.753683753311675"><ele>237.0</ele><time>2026-03-28T14:49:06Z</time></trkpt><trkpt lat="45.56251263295632" lon="10.753652670170181"><ele>236.2</ele><time>2026-03-28T14:49:07Z</time></trkpt><trkpt lat="45.5624066602505" lon="10.753616512419434"><ele>235.39999999999998</ele><time>2026-03-28T14:49:08Z</time></trkpt><trkpt lat="45.56230688839188" lon="10.753602565591862"><ele>234.60000000000002</ele><time>2026-03-28T14:49:09Z</time></trkpt><trkpt lat="45.562210412203214" lon="10.75359660636186"><ele>233.8</ele><time>2026-03-28T14:49:10Z</time></trkpt><trkpt lat="45.56210743295608" lon="10.75360979247765"><ele>233.0</ele><time>2026-03-28T14:49:11Z</time></trkpt><trkpt lat="45.56200363618022" lon="10.75361964329699"><ele>232.33333333333334</ele><time>2026-03-28T14:49:12Z</time></trkpt><trkpt lat="45.561885002422535" lon="10.753637026085686"><ele>231.66666666666669</ele><time>2026-03-28T14:49:13Z</time></trkpt><trkpt lat="45.561806567718804" lon="10.753619791849173"><ele>231.0</ele><time>2026-03-28T14:49:14Z</time></trkpt><trkpt lat="45.561732967942305" lon="10.75361802162998"><ele>230.33333333333331</ele><time>2026-03-28T14:49:15Z</time></trkpt><trkpt lat="45.56165774439221" lon="10.753615863462581"><ele>229.66666666666666</ele><time>2026-03-28T14:49:16Z</time></trkpt><trkpt lat="45.561580143800334" lon="10.753562155401779"><ele>229.0</ele><time>2026-03-28T14:49:17Z</time></trkpt><trkpt lat="45.561498397063836" lon="10.753496882481475"><ele>230.39999999999998</ele><time>2026-03-28T14:49:18Z</time></trkpt><trkpt lat="45.56142315353523" lon="10.75342191310124"><ele>231.79999999999998</ele><time>2026-03-28T14:49:19Z</time></trkpt><trkpt lat="45.5613510806571" lon="10.753349583813364"><ele>233.20000000000002</ele><time>2026-03-28T14:49:20Z</time></trkpt><trkpt lat="45.56127470234331" lon="10.753297679967044"><ele>234.60000000000002</ele><time>2026-03-28T14:49:21Z</time></trkpt><trkpt lat="45.56116362306697" lon="10.753248410193766"><ele>236.0</ele><time>2026-03-28T14:49:23Z</time></trkpt><trkpt lat="45.561075453395816" lon="10.753199644896817"><ele>236.00000000000003</ele><time>2026-03-28T14:49:24Z</time></trkpt><trkpt lat="45.56100161091939" lon="10.753161928115684"><ele>236.0</ele><time>2026-03-28T14:49:25Z</time></trkpt><trkpt lat="45.560917246587415" lon="10.753118633236838"><ele>236.0</ele><time>2026-03-28T14:49:26Z</time></trkpt><trkpt lat="45.56084605197349" lon="10.75311139575686"><ele>236.0</ele><time>2026-03-28T14:49:27Z</time></trkpt><trkpt lat="45.56078309835992" lon="10.753082937707019"><ele>236.00000000000003</ele><time>2026-03-28T14:49:28Z</time></trkpt><trkpt lat="45.56071315548734" lon="10.753077808126559"><ele>236.0</ele><time>2026-03-28T14:49:29Z</time></trkpt><trkpt lat="45.56058716570154" lon="10.753085135763223"><ele>236.00000000000003</ele><time>2026-03-28T14:49:31Z</time></trkpt><trkpt lat="45.56051530295288" lon="10.753083580349125"><ele>236.0</ele><time>2026-03-28T14:49:32Z</time></trkpt><trkpt lat="45.560448097066285" lon="10.753077317697327"><ele>236.0</ele><time>2026-03-28T14:49:33Z</time></trkpt><trkpt lat="45.56037031000172" lon="10.753074902805153"><ele>236.0</ele><time>2026-03-28T14:49:34Z</time></trkpt><trkpt lat="45.56030204472343" lon="10.753067524572415"><ele>236.00000000000003</ele><time>2026-03-28T14:49:35Z</time></trkpt><trkpt lat="45.560168641801674" lon="10.753033509264968"><ele>236.0</ele><time>2026-03-28T14:49:37Z</time></trkpt><trkpt lat="45.560092989743566" lon="10.753013056023189"><ele>235.0</ele><time>2026-03-28T14:49:38Z</time></trkpt><trkpt lat="45.55998089275361" lon="10.752949690524796"><ele>234.00000000000003</ele><time>2026-03-28T14:49:40Z</time></trkpt><trkpt lat="45.55991644161278" lon="10.752917172497483"><ele>233.00000000000003</ele><time>2026-03-28T14:49:41Z</time></trkpt><trkpt lat="45.55984844090382" lon="10.752879710262361"><ele>232.0</ele><time>2026-03-28T14:49:42Z</time></trkpt><trkpt lat="45.55972828721479" lon="10.752796944846077"><ele>231.0</ele><time>2026-03-28T14:49:44Z</time></trkpt><trkpt lat="45.55966747921482" lon="10.75274845354552"><ele>231.66666666666666</ele><time>2026-03-28T14:49:45Z</time></trkpt><trkpt lat="45.55960540064913" lon="10.752698823923662"><ele>232.33333333333331</ele><time>2026-03-28T14:49:46Z</time></trkpt><trkpt lat="45.55954497801849" lon="10.752654478677046"><ele>233.0</ele><time>2026-03-28T14:49:47Z</time></trkpt><trkpt lat="45.55944281303096" lon="10.75256768383969"><ele>233.66666666666666</ele><time>2026-03-28T14:49:49Z</time></trkpt><trkpt lat="45.55937653115185" lon="10.752479486346688"><ele>234.33333333333331</ele><time>2026-03-28T14:49:51Z</time></trkpt><trkpt lat="45.55930275413898" lon="10.752390620012003"><ele>235.0</ele><time>2026-03-28T14:49:53Z</time></trkpt><trkpt lat="45.55920066008901" lon="10.752286463422383"><ele>235.0</ele><time>2026-03-28T14:49:55Z</time></trkpt><trkpt lat="45.559145066981" lon="10.752234281611582"><ele>235.0</ele><time>2026-03-28T14:49:56Z</time></trkpt><trkpt lat="45.55903673712115" lon="10.75216202584782"><ele>235.0</ele><time>2026-03-28T14:49:58Z</time></trkpt><trkpt lat="45.558931423567955" lon="10.752046679742046"><ele>235.0</ele><time>2026-03-28T14:50:00Z</time></trkpt><trkpt lat="45.55883651814212" lon="10.751992479465018"><ele>235.0</ele><time>2026-03-28T14:50:01Z</time></trkpt><trkpt lat="45.558751791307834" lon="10.751911865546948"><ele>235.6</ele><time>2026-03-28T14:50:02Z</time></trkpt><trkpt lat="45.558673965447355" lon="10.751834355401495"><ele>236.2</ele><time>2026-03-28T14:50:03Z</time></trkpt><trkpt lat="45.55858400881705" lon="10.751747610711616"><ele>236.8</ele><time>2026-03-28T14:50:04Z</time></trkpt><trkpt lat="45.558490799522545" lon="10.751659285043141"><ele>237.4</ele><time>2026-03-28T14:50:05Z</time></trkpt><trkpt lat="45.55839947641681" lon="10.751570070134624"><ele>238.0</ele><time>2026-03-28T14:50:06Z</time></trkpt><trkpt lat="45.55830477264715" lon="10.751500550182694"><ele>238.0</ele><time>2026-03-28T14:50:07Z</time></trkpt><trkpt lat="45.558208228530034" lon="10.751441764465007"><ele>238.0</ele><time>2026-03-28T14:50:08Z</time></trkpt><trkpt lat="45.55810146491157" lon="10.75139302260139"><ele>238.0</ele><time>2026-03-28T14:50:09Z</time></trkpt><trkpt lat="45.55800862032847" lon="10.751351164381997"><ele>238.0</ele><time>2026-03-28T14:50:10Z</time></trkpt><trkpt lat="45.55794580912175" lon="10.751330956933362"><ele>238.0</ele><time>2026-03-28T14:50:11Z</time></trkpt><trkpt lat="45.55783849457604" lon="10.751318445646188"><ele>236.99999999999997</ele><time>2026-03-28T14:50:13Z</time></trkpt><trkpt lat="45.55775402699533" lon="10.751273271699297"><ele>236.0</ele><time>2026-03-28T14:50:15Z</time></trkpt><trkpt lat="45.55767242893274" lon="10.751251609893776"><ele>235.0</ele><time>2026-03-28T14:50:17Z</time></trkpt><trkpt lat="45.55755639244384" lon="10.751238385371268"><ele>234.0</ele><time>2026-03-28T14:50:19Z</time></trkpt><trkpt lat="45.557489905005454" lon="10.751255529148883"><ele>232.99999999999997</ele><time>2026-03-28T14:50:20Z</time></trkpt><trkpt lat="45.557409552280205" lon="10.751241253567121"><ele>232.0</ele><time>2026-03-28T14:50:21Z</time></trkpt><trkpt lat="45.55731993279248" lon="10.751250368853299"><ele>232.0</ele><time>2026-03-28T14:50:22Z</time></trkpt><trkpt lat="45.55721641392602" lon="10.751265813449255"><ele>232.0</ele><time>2026-03-28T14:50:23Z</time></trkpt><trkpt lat="45.55711851446478" lon="10.751283292782835"><ele>232.0</ele><time>2026-03-28T14:50:24Z</time></trkpt><trkpt lat="45.557013818097374" lon="10.751326496797606"><ele>232.0</ele><time>2026-03-28T14:50:25Z</time></trkpt><trkpt lat="45.55690264573917" lon="10.751327341127663"><ele>232.0</ele><time>2026-03-28T14:50:26Z</time></trkpt><trkpt lat="45.55677716738751" lon="10.751370099365893"><ele>232.6</ele><time>2026-03-28T14:50:27Z</time></trkpt><trkpt lat="45.55665467561126" lon="10.751388960893106"><ele>233.2</ele><time>2026-03-28T14:50:28Z</time></trkpt><trkpt lat="45.55653439443616" lon="10.751411043343294"><ele>233.8</ele><time>2026-03-28T14:50:29Z</time></trkpt><trkpt lat="45.55644289886246" lon="10.751411364683163"><ele>234.4</ele><time>2026-03-28T14:50:30Z</time></trkpt><trkpt lat="45.55636107485933" lon="10.751440341260194"><ele>235.0</ele><time>2026-03-28T14:50:31Z</time></trkpt><trkpt lat="45.55629968698858" lon="10.751463652619755"><ele>234.99999999999997</ele><time>2026-03-28T14:50:32Z</time></trkpt><trkpt lat="45.55623437990679" lon="10.751461994742654"><ele>235.0</ele><time>2026-03-28T14:50:33Z</time></trkpt><trkpt lat="45.5561713557061" lon="10.751523656110852"><ele>235.0</ele><time>2026-03-28T14:50:35Z</time></trkpt><trkpt lat="45.55611418531001" lon="10.751568858667719"><ele>235.0</ele><time>2026-03-28T14:50:37Z</time></trkpt><trkpt lat="45.55602385345645" lon="10.7516095030826"><ele>234.99999999999997</ele><time>2026-03-28T14:50:39Z</time></trkpt><trkpt lat="45.55594413867721" lon="10.751633006470845"><ele>235.0</ele><time>2026-03-28T14:50:40Z</time></trkpt><trkpt lat="45.55587512321812" lon="10.751641295235576"><ele>235.4</ele><time>2026-03-28T14:50:41Z</time></trkpt><trkpt lat="45.5557991515718" lon="10.751647175096819"><ele>235.8</ele><time>2026-03-28T14:50:42Z</time></trkpt><trkpt lat="45.5556828296244" lon="10.751618543071205"><ele>236.2</ele><time>2026-03-28T14:50:44Z</time></trkpt><trkpt lat="45.55559164908691" lon="10.751585635683329"><ele>236.6</ele><time>2026-03-28T14:50:46Z</time></trkpt><trkpt lat="45.55552031661094" lon="10.75148006115166"><ele>237.0</ele><time>2026-03-28T14:50:48Z</time></trkpt><trkpt lat="45.55547190370396" lon="10.751341515372223"><ele>237.0</ele><time>2026-03-28T14:50:50Z</time></trkpt><trkpt lat="45.555481741804385" lon="10.751239578812857"><ele>237.0</ele><time>2026-03-28T14:50:53Z</time></trkpt><trkpt lat="45.55560915029322" lon="10.751127193699167"><ele>237.0</ele><time>2026-03-28T14:50:55Z</time></trkpt><trkpt lat="45.55567256613233" lon="10.751077299988792"><ele>237.0</ele><time>2026-03-28T14:50:56Z</time></trkpt><trkpt lat="45.55571745506501" lon="10.750922276924433"><ele>237.0</ele><time>2026-03-28T14:50:58Z</time></trkpt><trkpt lat="45.555723659367956" lon="10.750785501222591"><ele>238.0</ele><time>2026-03-28T14:50:59Z</time></trkpt><trkpt lat="45.55573566951448" lon="10.750604178307796"><ele>239.0</ele><time>2026-03-28T14:51:00Z</time></trkpt><trkpt lat="45.55575158719898" lon="10.750425245637835"><ele>240.0</ele><time>2026-03-28T14:51:01Z</time></trkpt><trkpt lat="45.555773188367745" lon="10.750253457312652"><ele>241.0</ele><time>2026-03-28T14:51:02Z</time></trkpt><trkpt lat="45.55580670716634" lon="10.75007610749899"><ele>241.0</ele><time>2026-03-28T14:51:03Z</time></trkpt><trkpt lat="45.55584888326548" lon="10.749926863631769"><ele>241.0</ele><time>2026-03-28T14:51:04Z</time></trkpt><trkpt lat="45.55590203536614" lon="10.749760251572"><ele>241.0</ele><time>2026-03-28T14:51:05Z</time></trkpt><trkpt lat="45.55595959101086" lon="10.749588412464366"><ele>241.0</ele><time>2026-03-28T14:51:06Z</time></trkpt><trkpt lat="45.556032677149894" lon="10.749406150348022"><ele>240.25</ele><time>2026-03-28T14:51:07Z</time></trkpt><trkpt lat="45.556114422398075" lon="10.749226362493385"><ele>239.5</ele><time>2026-03-28T14:51:08Z</time></trkpt><trkpt lat="45.5561902574061" lon="10.749046153568294"><ele>238.75</ele><time>2026-03-28T14:51:09Z</time></trkpt><trkpt lat="45.55625764206686" lon="10.748856844486147"><ele>238.0</ele><time>2026-03-28T14:51:10Z</time></trkpt><trkpt lat="45.556315059804206" lon="10.748657778456634"><ele>241.0</ele><time>2026-03-28T14:51:11Z</time></trkpt><trkpt lat="45.55636184952329" lon="10.748461091110542"><ele>244.0</ele><time>2026-03-28T14:51:12Z</time></trkpt><trkpt lat="45.5564101695393" lon="10.74827694281946"><ele>247.0</ele><time>2026-03-28T14:51:13Z</time></trkpt><trkpt lat="45.55645939419572" lon="10.748101768448198"><ele>250.0</ele><time>2026-03-28T14:51:14Z</time></trkpt><trkpt lat="45.5564982501134" lon="10.747951176788286"><ele>250.0</ele><time>2026-03-28T14:51:15Z</time></trkpt><trkpt lat="45.55653538192641" lon="10.747808397786656"><ele>250.0</ele><time>2026-03-28T14:51:16Z</time></trkpt><trkpt lat="45.556592298879465" lon="10.747657002235467"><ele>250.0</ele><time>2026-03-28T14:51:17Z</time></trkpt><trkpt lat="45.55667513048909" lon="10.747512901866042"><ele>250.0</ele><time>2026-03-28T14:51:18Z</time></trkpt><trkpt lat="45.55675486691429" lon="10.747390893798174"><ele>248.6</ele><time>2026-03-28T14:51:19Z</time></trkpt><trkpt lat="45.55681417062177" lon="10.747286050580618"><ele>247.2</ele><time>2026-03-28T14:51:20Z</time></trkpt><trkpt lat="45.556860613216486" lon="10.747197607223981"><ele>245.8</ele><time>2026-03-28T14:51:21Z</time></trkpt><trkpt lat="45.55693122224809" lon="10.747081761466404"><ele>244.4</ele><time>2026-03-28T14:51:23Z</time></trkpt><trkpt lat="45.55704619522918" lon="10.746981120100871"><ele>243.0</ele><time>2026-03-28T14:51:25Z</time></trkpt><trkpt lat="45.55710765623834" lon="10.746947806604132"><ele>244.60000000000002</ele><time>2026-03-28T14:51:26Z</time></trkpt><trkpt lat="45.557198579161856" lon="10.74684817367077"><ele>246.20000000000002</ele><time>2026-03-28T14:51:28Z</time></trkpt><trkpt lat="45.557264774206224" lon="10.74675767393402"><ele>247.8</ele><time>2026-03-28T14:51:29Z</time></trkpt><trkpt lat="45.55733673176814" lon="10.746635204766365"><ele>249.4</ele><time>2026-03-28T14:51:30Z</time></trkpt><trkpt lat="45.55740423577228" lon="10.74650092730591"><ele>251.0</ele><time>2026-03-28T14:51:31Z</time></trkpt><trkpt lat="45.557454817712454" lon="10.746397228889313"><ele>251.0</ele><time>2026-03-28T14:51:32Z</time></trkpt><trkpt lat="45.557489302701164" lon="10.746320794283115"><ele>251.00000000000003</ele><time>2026-03-28T14:51:33Z</time></trkpt><trkpt lat="45.55754230204453" lon="10.746205413466836"><ele>251.00000000000003</ele><time>2026-03-28T14:51:35Z</time></trkpt><trkpt lat="45.5576131128509" lon="10.746095857099762"><ele>251.0</ele><time>2026-03-28T14:51:37Z</time></trkpt><trkpt lat="45.557691196824585" lon="10.745973120366717"><ele>251.0</ele><time>2026-03-28T14:51:39Z</time></trkpt><trkpt lat="45.55777297585791" lon="10.745841158471768"><ele>250.66666666666669</ele><time>2026-03-28T14:51:41Z</time></trkpt><trkpt lat="45.557829527065806" lon="10.74578689585139"><ele>250.33333333333334</ele><time>2026-03-28T14:51:42Z</time></trkpt><trkpt lat="45.55792324247466" lon="10.74571262741646"><ele>250.0</ele><time>2026-03-28T14:51:44Z</time></trkpt><trkpt lat="45.55797948075404" lon="10.74566726220047"><ele>249.66666666666669</ele><time>2026-03-28T14:51:45Z</time></trkpt><trkpt lat="45.558046165574744" lon="10.74560942314355"><ele>249.33333333333334</ele><time>2026-03-28T14:51:46Z</time></trkpt><trkpt lat="45.55811771209341" lon="10.74558108204689"><ele>249.0</ele><time>2026-03-28T14:51:47Z</time></trkpt><trkpt lat="45.558193021081166" lon="10.745538595971004"><ele>250.16666666666666</ele><time>2026-03-28T14:51:48Z</time></trkpt><trkpt lat="45.55828157608438" lon="10.745508719237872"><ele>251.33333333333331</ele><time>2026-03-28T14:51:49Z</time></trkpt><trkpt lat="45.558373507803196" lon="10.745487677310525"><ele>252.5</ele><time>2026-03-28T14:51:50Z</time></trkpt><trkpt lat="45.55844206608265" lon="10.745473121374097"><ele>253.66666666666666</ele><time>2026-03-28T14:51:51Z</time></trkpt><trkpt lat="45.55850166750505" lon="10.74543927633351"><ele>254.83333333333331</ele><time>2026-03-28T14:51:52Z</time></trkpt><trkpt lat="45.558561530478755" lon="10.745409886079933"><ele>256.0</ele><time>2026-03-28T14:51:53Z</time></trkpt><trkpt lat="45.55866114929193" lon="10.745412483846398"><ele>255.4</ele><time>2026-03-28T14:51:55Z</time></trkpt><trkpt lat="45.558778052593674" lon="10.745369685606672"><ele>254.8</ele><time>2026-03-28T14:51:57Z</time></trkpt><trkpt lat="45.558859050156194" lon="10.745346106109157"><ele>254.20000000000002</ele><time>2026-03-28T14:51:58Z</time></trkpt><trkpt lat="45.5589562150835" lon="10.745329615433567"><ele>253.60000000000002</ele><time>2026-03-28T14:51:59Z</time></trkpt><trkpt lat="45.55906275756023" lon="10.745248945057302"><ele>253.0</ele><time>2026-03-28T14:52:00Z</time></trkpt><trkpt lat="45.55917621961553" lon="10.745180618278855"><ele>253.0</ele><time>2026-03-28T14:52:01Z</time></trkpt><trkpt lat="45.55928078601848" lon="10.745116342966059"><ele>253.0</ele><time>2026-03-28T14:52:02Z</time></trkpt><trkpt lat="45.55937574503595" lon="10.745060932691262"><ele>253.0</ele><time>2026-03-28T14:52:03Z</time></trkpt><trkpt lat="45.559484429324186" lon="10.745015371407028"><ele>253.0</ele><time>2026-03-28T14:52:04Z</time></trkpt><trkpt lat="45.55957078721352" lon="10.744959378725332"><ele>253.0</ele><time>2026-03-28T14:52:05Z</time></trkpt><trkpt lat="45.55965631328563" lon="10.744900307294957"><ele>253.2</ele><time>2026-03-28T14:52:06Z</time></trkpt><trkpt lat="45.55974319700359" lon="10.744833818530209"><ele>253.4</ele><time>2026-03-28T14:52:07Z</time></trkpt><trkpt lat="45.559828937691805" lon="10.744753267888"><ele>253.59999999999997</ele><time>2026-03-28T14:52:08Z</time></trkpt><trkpt lat="45.55990091100686" lon="10.74467494300382"><ele>253.79999999999998</ele><time>2026-03-28T14:52:09Z</time></trkpt><trkpt lat="45.55998446872975" lon="10.744573483486047"><ele>254.0</ele><time>2026-03-28T14:52:10Z</time></trkpt><trkpt lat="45.56006509589386" lon="10.744468283259755"><ele>253.39999999999998</ele><time>2026-03-28T14:52:11Z</time></trkpt><trkpt lat="45.560135571223896" lon="10.744375454690664"><ele>252.79999999999998</ele><time>2026-03-28T14:52:12Z</time></trkpt><trkpt lat="45.560209760247965" lon="10.744277734107675"><ele>252.20000000000002</ele><time>2026-03-28T14:52:13Z</time></trkpt><trkpt lat="45.56028957599391" lon="10.744170845935766"><ele>251.60000000000002</ele><time>2026-03-28T14:52:14Z</time></trkpt><trkpt lat="45.56036348241397" lon="10.744058433758042"><ele>251.0</ele><time>2026-03-28T14:52:15Z</time></trkpt><trkpt lat="45.560440839619346" lon="10.743956037913799"><ele>250.60000000000002</ele><time>2026-03-28T14:52:16Z</time></trkpt><trkpt lat="45.560528165490794" lon="10.74384846643331"><ele>250.20000000000002</ele><time>2026-03-28T14:52:17Z</time></trkpt><trkpt lat="45.560608992503994" lon="10.743750186991573"><ele>249.79999999999998</ele><time>2026-03-28T14:52:18Z</time></trkpt><trkpt lat="45.56068774774053" lon="10.743668103224955"><ele>249.39999999999998</ele><time>2026-03-28T14:52:19Z</time></trkpt><trkpt lat="45.560763064859984" lon="10.743591169892435"><ele>249.0</ele><time>2026-03-28T14:52:20Z</time></trkpt><trkpt lat="45.56084337264346" lon="10.743534215494956"><ele>249.0</ele><time>2026-03-28T14:52:21Z</time></trkpt><trkpt lat="45.56094250893757" lon="10.74347813078138"><ele>249.0</ele><time>2026-03-28T14:52:22Z</time></trkpt><trkpt lat="45.56105491683715" lon="10.743422152127975"><ele>249.0</ele><time>2026-03-28T14:52:23Z</time></trkpt><trkpt lat="45.56116904149394" lon="10.74338061037299"><ele>249.0</ele><time>2026-03-28T14:52:24Z</time></trkpt><trkpt lat="45.56128781847767" lon="10.743350257863002"><ele>248.0</ele><time>2026-03-28T14:52:25Z</time></trkpt><trkpt lat="45.56141667858858" lon="10.743330745109251"><ele>247.0</ele><time>2026-03-28T14:52:26Z</time></trkpt><trkpt lat="45.561544938583076" lon="10.743309150138536"><ele>246.0</ele><time>2026-03-28T14:52:27Z</time></trkpt><trkpt lat="45.561673631968155" lon="10.743283141825925"><ele>245.0</ele><time>2026-03-28T14:52:28Z</time></trkpt><trkpt lat="45.56179153171801" lon="10.74325942937132"><ele>245.0</ele><time>2026-03-28T14:52:29Z</time></trkpt><trkpt lat="45.561901694919975" lon="10.743225670352663"><ele>245.0</ele><time>2026-03-28T14:52:30Z</time></trkpt><trkpt lat="45.56200840265061" lon="10.74320323124449"><ele>245.0</ele><time>2026-03-28T14:52:31Z</time></trkpt><trkpt lat="45.56210487323252" lon="10.743186319710425"><ele>245.0</ele><time>2026-03-28T14:52:32Z</time></trkpt><trkpt lat="45.56220817192986" lon="10.743148495296913"><ele>245.0</ele><time>2026-03-28T14:52:33Z</time></trkpt><trkpt lat="45.56232162526377" lon="10.743123378503824"><ele>244.4</ele><time>2026-03-28T14:52:34Z</time></trkpt><trkpt lat="45.56243082341552" lon="10.743099957644889"><ele>243.8</ele><time>2026-03-28T14:52:35Z</time></trkpt><trkpt lat="45.562525502034134" lon="10.743070950749066"><ele>243.2</ele><time>2026-03-28T14:52:36Z</time></trkpt><trkpt lat="45.56262220967629" lon="10.743035790403196"><ele>242.6</ele><time>2026-03-28T14:52:37Z</time></trkpt><trkpt lat="45.56272042044492" lon="10.742972567278116"><ele>242.0</ele><time>2026-03-28T14:52:38Z</time></trkpt><trkpt lat="45.562822863578134" lon="10.742896961672669"><ele>241.2</ele><time>2026-03-28T14:52:39Z</time></trkpt><trkpt lat="45.56291983699564" lon="10.742823807035608"><ele>240.39999999999998</ele><time>2026-03-28T14:52:40Z</time></trkpt><trkpt lat="45.56300433846882" lon="10.742759101433808"><ele>239.60000000000002</ele><time>2026-03-28T14:52:41Z</time></trkpt><trkpt lat="45.563083529538424" lon="10.742708897477716"><ele>238.8</ele><time>2026-03-28T14:52:42Z</time></trkpt><trkpt lat="45.563167536805075" lon="10.742668151116339"><ele>238.0</ele><time>2026-03-28T14:52:43Z</time></trkpt><trkpt lat="45.56324513478124" lon="10.742625319516264"><ele>238.0</ele><time>2026-03-28T14:52:44Z</time></trkpt><trkpt lat="45.5633088703991" lon="10.742587497285472"><ele>238.0</ele><time>2026-03-28T14:52:45Z</time></trkpt><trkpt lat="45.56340253281573" lon="10.742592004500567"><ele>238.0</ele><time>2026-03-28T14:52:47Z</time></trkpt><trkpt lat="45.56340387046608" lon="10.742786393250293"><ele>238.0</ele><time>2026-03-28T14:52:50Z</time></trkpt><trkpt lat="45.56338255096202" lon="10.742892811831522"><ele>238.0</ele><time>2026-03-28T14:52:51Z</time></trkpt><trkpt lat="45.56334958322469" lon="10.743034871059834"><ele>238.2</ele><time>2026-03-28T14:52:52Z</time></trkpt><trkpt lat="45.563321569702815" lon="10.743196890731259"><ele>238.4</ele><time>2026-03-28T14:52:53Z</time></trkpt><trkpt lat="45.5632975767574" lon="10.743320197148476"><ele>238.59999999999997</ele><time>2026-03-28T14:52:54Z</time></trkpt><trkpt lat="45.563290029100244" lon="10.743451629716551"><ele>238.79999999999998</ele><time>2026-03-28T14:52:55Z</time></trkpt><trkpt lat="45.56331167664667" lon="10.74359732835341"><ele>239.0</ele><time>2026-03-28T14:52:56Z</time></trkpt><trkpt lat="45.56331851995817" lon="10.743739913862838"><ele>239.00000000000003</ele><time>2026-03-28T14:52:57Z</time></trkpt><trkpt lat="45.56332865369237" lon="10.743869210184453"><ele>239.0</ele><time>2026-03-28T14:52:58Z</time></trkpt><trkpt lat="45.56334490393739" lon="10.74399714151921"><ele>239.0</ele><time>2026-03-28T14:52:59Z</time></trkpt><trkpt lat="45.56337640227342" lon="10.744093307616067"><ele>239.0</ele><time>2026-03-28T14:53:00Z</time></trkpt><trkpt lat="45.56341516698169" lon="10.744173038768965"><ele>239.00000000000003</ele><time>2026-03-28T14:53:01Z</time></trkpt><trkpt lat="45.56350800880176" lon="10.744184918280597"><ele>239.0</ele><time>2026-03-28T14:53:02Z</time></trkpt><trkpt lat="45.5636002705254" lon="10.744219932707622"><ele>239.0</ele><time>2026-03-28T14:53:03Z</time></trkpt><trkpt lat="45.56371407139426" lon="10.74428613859255"><ele>239.0</ele><time>2026-03-28T14:53:04Z</time></trkpt><trkpt lat="45.56384264845899" lon="10.744312737683979"><ele>239.0</ele><time>2026-03-28T14:53:05Z</time></trkpt><trkpt lat="45.56397687694307" lon="10.744302208966669"><ele>239.0</ele><time>2026-03-28T14:53:06Z</time></trkpt><trkpt lat="45.56411948832933" lon="10.744321863475564"><ele>239.0</ele><time>2026-03-28T14:53:07Z</time></trkpt><trkpt lat="45.564273089899956" lon="10.74432070335699"><ele>239.0</ele><time>2026-03-28T14:53:08Z</time></trkpt><trkpt lat="45.564433088337836" lon="10.744323328998115"><ele>239.0</ele><time>2026-03-28T14:53:09Z</time></trkpt><trkpt lat="45.56460165200584" lon="10.744328157589278"><ele>240.0</ele><time>2026-03-28T14:53:10Z</time></trkpt><trkpt lat="45.56477137647165" lon="10.744345811685237"><ele>241.0</ele><time>2026-03-28T14:53:11Z</time></trkpt><trkpt lat="45.564940528529235" lon="10.74436327245613"><ele>242.0</ele><time>2026-03-28T14:53:12Z</time></trkpt><trkpt lat="45.565105050787544" lon="10.744369582351501"><ele>242.0</ele><time>2026-03-28T14:53:13Z</time></trkpt><trkpt lat="45.56526334231239" lon="10.744362585408222"><ele>242.0</ele><time>2026-03-28T14:53:14Z</time></trkpt><trkpt lat="45.56540836892245" lon="10.744353547056368"><ele>242.0</ele><time>2026-03-28T14:53:15Z</time></trkpt><trkpt lat="45.56553730413592" lon="10.744342670203656"><ele>242.0</ele><time>2026-03-28T14:53:16Z</time></trkpt><trkpt lat="45.56563761399802" lon="10.744323110428727"><ele>242.25</ele><time>2026-03-28T14:53:17Z</time></trkpt><trkpt lat="45.56576057922641" lon="10.744284927951595"><ele>242.5</ele><time>2026-03-28T14:53:18Z</time></trkpt><trkpt lat="45.565897204336856" lon="10.744234286993315"><ele>242.75</ele><time>2026-03-28T14:53:19Z</time></trkpt><trkpt lat="45.56604619741128" lon="10.744177144184189"><ele>243.0</ele><time>2026-03-28T14:53:20Z</time></trkpt><trkpt lat="45.56620289647712" lon="10.744127576808342"><ele>244.0</ele><time>2026-03-28T14:53:21Z</time></trkpt><trkpt lat="45.56634623907596" lon="10.744092169455294"><ele>245.0</ele><time>2026-03-28T14:53:22Z</time></trkpt><trkpt lat="45.566469837170146" lon="10.74406736704182"><ele>246.0</ele><time>2026-03-28T14:53:23Z</time></trkpt><trkpt lat="45.56659959989744" lon="10.744042577212204"><ele>247.0</ele><time>2026-03-28T14:53:24Z</time></trkpt><trkpt lat="45.566746451089514" lon="10.744023786692258"><ele>247.0</ele><time>2026-03-28T14:53:25Z</time></trkpt><trkpt lat="45.56688937675775" lon="10.744025354817879"><ele>247.0</ele><time>2026-03-28T14:53:26Z</time></trkpt><trkpt lat="45.56702214074936" lon="10.744029928393958"><ele>247.0</ele><time>2026-03-28T14:53:27Z</time></trkpt><trkpt lat="45.567164058062055" lon="10.744038825630122"><ele>247.0</ele><time>2026-03-28T14:53:28Z</time></trkpt><trkpt lat="45.567290826378034" lon="10.744066343836762"><ele>247.39999999999998</ele><time>2026-03-28T14:53:29Z</time></trkpt><trkpt lat="45.567412098319224" lon="10.744114347090056"><ele>247.79999999999998</ele><time>2026-03-28T14:53:30Z</time></trkpt><trkpt lat="45.56752686141879" lon="10.74417460981852"><ele>248.2</ele><time>2026-03-28T14:53:31Z</time></trkpt><trkpt lat="45.56761750067382" lon="10.74422128773416"><ele>248.6</ele><time>2026-03-28T14:53:32Z</time></trkpt><trkpt lat="45.567692711632304" lon="10.744253338399966"><ele>249.0</ele><time>2026-03-28T14:53:33Z</time></trkpt><trkpt lat="45.56778566999013" lon="10.744281708165678"><ele>249.0</ele><time>2026-03-28T14:53:35Z</time></trkpt><trkpt lat="45.56779796350826" lon="10.744096366134759"><ele>248.99999999999997</ele><time>2026-03-28T14:53:41Z</time></trkpt><trkpt lat="45.56777335708727" lon="10.74401283443496"><ele>248.99999999999997</ele><time>2026-03-28T14:53:42Z</time></trkpt><trkpt lat="45.567746985125396" lon="10.743849141013937"><ele>249.0</ele><time>2026-03-28T14:53:44Z</time></trkpt><trkpt lat="45.56773721771841" lon="10.74371348221109"><ele>249.0</ele><time>2026-03-28T14:53:46Z</time></trkpt><trkpt lat="45.567715597815955" lon="10.743592337591615"><ele>248.83333333333334</ele><time>2026-03-28T14:53:48Z</time></trkpt><trkpt lat="45.5677003570842" lon="10.743499774238252"><ele>248.66666666666669</ele><time>2026-03-28T14:53:49Z</time></trkpt><trkpt lat="45.56768306272016" lon="10.743385346341054"><ele>248.5</ele><time>2026-03-28T14:53:50Z</time></trkpt><trkpt lat="45.567675757706304" lon="10.743290965005034"><ele>248.33333333333334</ele><time>2026-03-28T14:53:51Z</time></trkpt><trkpt lat="45.567658849279866" lon="10.743189751968794"><ele>248.16666666666669</ele><time>2026-03-28T14:53:52Z</time></trkpt><trkpt lat="45.5676336786855" lon="10.743104349357463"><ele>248.0</ele><time>2026-03-28T14:53:53Z</time></trkpt><trkpt lat="45.5675969503345" lon="10.742966253079656"><ele>248.00000000000003</ele><time>2026-03-28T14:53:55Z</time></trkpt><trkpt lat="45.56759499498348" lon="10.742811114995082"><ele>248.0</ele><time>2026-03-28T14:53:57Z</time></trkpt><trkpt lat="45.567610762537235" lon="10.742718869955597"><ele>248.0</ele><time>2026-03-28T14:53:58Z</time></trkpt><trkpt lat="45.56762977676418" lon="10.742617785569161"><ele>248.0</ele><time>2026-03-28T14:53:59Z</time></trkpt><trkpt lat="45.56765122683047" lon="10.742519068205945"><ele>248.00000000000003</ele><time>2026-03-28T14:54:00Z</time></trkpt><trkpt lat="45.56766291492237" lon="10.742389004353273"><ele>248.0</ele><time>2026-03-28T14:54:02Z</time></trkpt><trkpt lat="45.567704508213524" lon="10.742258609932179"><ele>247.0</ele><time>2026-03-28T14:54:04Z</time></trkpt><trkpt lat="45.56775948974368" lon="10.742091768117522"><ele>246.0</ele><time>2026-03-28T14:54:06Z</time></trkpt><trkpt lat="45.567847178240044" lon="10.74195603997772"><ele>245.0</ele><time>2026-03-28T14:54:08Z</time></trkpt><trkpt lat="45.567910998816956" lon="10.741847201196878"><ele>244.0</ele><time>2026-03-28T14:54:10Z</time></trkpt><trkpt lat="45.567974769576495" lon="10.741722403944088"><ele>243.39999999999998</ele><time>2026-03-28T14:54:12Z</time></trkpt><trkpt lat="45.56802833791091" lon="10.741581796591644"><ele>242.79999999999998</ele><time>2026-03-28T14:54:14Z</time></trkpt><trkpt lat="45.568048015505276" lon="10.741484503574219"><ele>242.20000000000002</ele><time>2026-03-28T14:54:16Z</time></trkpt><trkpt lat="45.56803620168493" lon="10.741322181639244"><ele>241.60000000000002</ele><time>2026-03-28T14:54:18Z</time></trkpt><trkpt lat="45.56802055356125" lon="10.741169071603313"><ele>241.0</ele><time>2026-03-28T14:54:20Z</time></trkpt><trkpt lat="45.56796798819919" lon="10.74104764432204"><ele>239.0</ele><time>2026-03-28T14:54:22Z</time></trkpt><trkpt lat="45.56790196053263" lon="10.740920102223876"><ele>237.00000000000003</ele><time>2026-03-28T14:54:24Z</time></trkpt><trkpt lat="45.567803047234214" lon="10.74082192934414"><ele>235.00000000000003</ele><time>2026-03-28T14:54:26Z</time></trkpt><trkpt lat="45.567724908974505" lon="10.740775104948819"><ele>233.0</ele><time>2026-03-28T14:54:27Z</time></trkpt><trkpt lat="45.56764875724371" lon="10.74073223908609"><ele>231.0</ele><time>2026-03-28T14:54:28Z</time></trkpt><trkpt lat="45.56756627710683" lon="10.740688840186817"><ele>230.20000000000002</ele><time>2026-03-28T14:54:29Z</time></trkpt><trkpt lat="45.56746711448016" lon="10.740653045033875"><ele>229.40000000000003</ele><time>2026-03-28T14:54:30Z</time></trkpt><trkpt lat="45.567378936026714" lon="10.740569372704503"><ele>228.6</ele><time>2026-03-28T14:54:31Z</time></trkpt><trkpt lat="45.56728101118686" lon="10.740540142736373"><ele>227.8</ele><time>2026-03-28T14:54:32Z</time></trkpt><trkpt lat="45.56717283373679" lon="10.74051283425216"><ele>227.0</ele><time>2026-03-28T14:54:33Z</time></trkpt><trkpt lat="45.567072026790164" lon="10.740490539186254"><ele>227.16666666666669</ele><time>2026-03-28T14:54:34Z</time></trkpt><trkpt lat="45.56698011195104" lon="10.740466264537513"><ele>227.33333333333334</ele><time>2026-03-28T14:54:35Z</time></trkpt><trkpt lat="45.566905662965134" lon="10.740432514874636"><ele>227.5</ele><time>2026-03-28T14:54:36Z</time></trkpt><trkpt lat="45.56684276570334" lon="10.740373874395495"><ele>227.66666666666669</ele><time>2026-03-28T14:54:37Z</time></trkpt><trkpt lat="45.56677127584467" lon="10.740294938999504"><ele>227.83333333333334</ele><time>2026-03-28T14:54:38Z</time></trkpt><trkpt lat="45.566703185708384" lon="10.740199221870336"><ele>228.0</ele><time>2026-03-28T14:54:39Z</time></trkpt><trkpt lat="45.56663367056969" lon="10.740070569640919"><ele>229.25</ele><time>2026-03-28T14:54:40Z</time></trkpt><trkpt lat="45.566557123195935" lon="10.739920630092083"><ele>230.5</ele><time>2026-03-28T14:54:41Z</time></trkpt><trkpt lat="45.5664899800998" lon="10.73977210074764"><ele>231.75</ele><time>2026-03-28T14:54:42Z</time></trkpt><trkpt lat="45.56643789574448" lon="10.739633695274605"><ele>233.0</ele><time>2026-03-28T14:54:43Z</time></trkpt><trkpt lat="45.56641265378202" lon="10.73949691581845"><ele>233.66666666666669</ele><time>2026-03-28T14:54:44Z</time></trkpt><trkpt lat="45.56639329764921" lon="10.73935163368659"><ele>234.33333333333334</ele><time>2026-03-28T14:54:45Z</time></trkpt><trkpt lat="45.56636067753982" lon="10.739216638741455"><ele>235.0</ele><time>2026-03-28T14:54:46Z</time></trkpt><trkpt lat="45.5663538016227" lon="10.739106738136204"><ele>235.66666666666669</ele><time>2026-03-28T14:54:47Z</time></trkpt><trkpt lat="45.566349361602256" lon="10.73900341084859"><ele>236.33333333333334</ele><time>2026-03-28T14:54:48Z</time></trkpt><trkpt lat="45.56635916258944" lon="10.738895593028381"><ele>237.0</ele><time>2026-03-28T14:54:50Z</time></trkpt><trkpt lat="45.56638843493373" lon="10.738752585718249"><ele>237.0</ele><time>2026-03-28T14:54:52Z</time></trkpt><trkpt lat="45.56653129686526" lon="10.738680583253446"><ele>237.0</ele><time>2026-03-28T14:54:53Z</time></trkpt><trkpt lat="45.56660395066781" lon="10.738573032742696"><ele>237.0</ele><time>2026-03-28T14:54:54Z</time></trkpt><trkpt lat="45.56668126382742" lon="10.738467436490614"><ele>237.0</ele><time>2026-03-28T14:54:55Z</time></trkpt><trkpt lat="45.566760539554444" lon="10.738364353964846"><ele>237.0</ele><time>2026-03-28T14:54:56Z</time></trkpt><trkpt lat="45.566842751539944" lon="10.738255342664193"><ele>237.0</ele><time>2026-03-28T14:54:57Z</time></trkpt><trkpt lat="45.56692880927554" lon="10.738130281037115"><ele>237.0</ele><time>2026-03-28T14:54:58Z</time></trkpt><trkpt lat="45.56700829741124" lon="10.737996166136499"><ele>237.0</ele><time>2026-03-28T14:54:59Z</time></trkpt><trkpt lat="45.56708642047091" lon="10.737854887791274"><ele>236.0</ele><time>2026-03-28T14:55:00Z</time></trkpt><trkpt lat="45.56716796731345" lon="10.737724410126738"><ele>235.0</ele><time>2026-03-28T14:55:01Z</time></trkpt><trkpt lat="45.56725065690788" lon="10.737590800461907"><ele>234.0</ele><time>2026-03-28T14:55:02Z</time></trkpt><trkpt lat="45.56732887501321" lon="10.737446266073704"><ele>233.0</ele><time>2026-03-28T14:55:03Z</time></trkpt><trkpt lat="45.5674027349895" lon="10.737306872843972"><ele>232.25</ele><time>2026-03-28T14:55:04Z</time></trkpt><trkpt lat="45.567475402970516" lon="10.737183447051798"><ele>231.5</ele><time>2026-03-28T14:55:05Z</time></trkpt><trkpt lat="45.5675197927967" lon="10.737061501513688"><ele>230.75</ele><time>2026-03-28T14:55:06Z</time></trkpt><trkpt lat="45.567564210301974" lon="10.736910057722472"><ele>230.0</ele><time>2026-03-28T14:55:07Z</time></trkpt><trkpt lat="45.56758595247639" lon="10.736726705736539"><ele>229.83333333333334</ele><time>2026-03-28T14:55:08Z</time></trkpt><trkpt lat="45.567609655099616" lon="10.736547495558803"><ele>229.66666666666669</ele><time>2026-03-28T14:55:09Z</time></trkpt><trkpt lat="45.5676219515325" lon="10.736406396572743"><ele>229.5</ele><time>2026-03-28T14:55:10Z</time></trkpt><trkpt lat="45.56763173811855" lon="10.736306088909425"><ele>229.33333333333331</ele><time>2026-03-28T14:55:11Z</time></trkpt><trkpt lat="45.56768461424183" lon="10.736245605347412"><ele>229.16666666666666</ele><time>2026-03-28T14:55:14Z</time></trkpt><trkpt lat="45.56773637193784" lon="10.73630424638069"><ele>229.0</ele><time>2026-03-28T14:55:15Z</time></trkpt><trkpt lat="45.567777713203625" lon="10.736392532958417"><ele>229.0</ele><time>2026-03-28T14:55:16Z</time></trkpt><trkpt lat="45.56781487771648" lon="10.736474698471332"><ele>228.99999999999997</ele><time>2026-03-28T14:55:17Z</time></trkpt><trkpt lat="45.56790503524366" lon="10.736494150166553"><ele>228.99999999999997</ele><time>2026-03-28T14:55:19Z</time></trkpt><trkpt lat="45.56788254018494" lon="10.73624362879959"><ele>229.0</ele><time>2026-03-28T14:55:25Z</time></trkpt><trkpt lat="45.567798569940834" lon="10.736159269521941"><ele>229.0</ele><time>2026-03-28T14:55:26Z</time></trkpt><trkpt lat="45.56774988222066" lon="10.736079233105682"><ele>228.33333333333331</ele><time>2026-03-28T14:55:27Z</time></trkpt><trkpt lat="45.56771739647314" lon="10.735978983115723"><ele>227.66666666666666</ele><time>2026-03-28T14:55:28Z</time></trkpt><trkpt lat="45.56770246544682" lon="10.735884889950844"><ele>227.0</ele><time>2026-03-28T14:55:29Z</time></trkpt><trkpt lat="45.56772972497473" lon="10.735787686984644"><ele>226.33333333333331</ele><time>2026-03-28T14:55:31Z</time></trkpt><trkpt lat="45.567854781910775" lon="10.73580153488559"><ele>225.66666666666666</ele><time>2026-03-28T14:55:33Z</time></trkpt><trkpt lat="45.56795350489563" lon="10.735843100057624"><ele>225.0</ele><time>2026-03-28T14:55:34Z</time></trkpt><trkpt lat="45.56807543000731" lon="10.735894590770819"><ele>223.75</ele><time>2026-03-28T14:55:35Z</time></trkpt><trkpt lat="45.568187599862945" lon="10.735936070317328"><ele>222.5</ele><time>2026-03-28T14:55:36Z</time></trkpt><trkpt lat="45.56831412869397" lon="10.735974185094777"><ele>221.25</ele><time>2026-03-28T14:55:37Z</time></trkpt><trkpt lat="45.56843339341578" lon="10.73601407158171"><ele>220.0</ele><time>2026-03-28T14:55:38Z</time></trkpt><trkpt lat="45.568558740820656" lon="10.736038787904977"><ele>220.0</ele><time>2026-03-28T14:55:39Z</time></trkpt><trkpt lat="45.5686857016455" lon="10.736032876317815"><ele>220.0</ele><time>2026-03-28T14:55:40Z</time></trkpt><trkpt lat="45.56881605791392" lon="10.736015159244007"><ele>220.0</ele><time>2026-03-28T14:55:41Z</time></trkpt><trkpt lat="45.5689558698757" lon="10.736013299554747"><ele>220.0</ele><time>2026-03-28T14:55:42Z</time></trkpt><trkpt lat="45.56910198521567" lon="10.736040448146293"><ele>219.75</ele><time>2026-03-28T14:55:43Z</time></trkpt><trkpt lat="45.56924997604188" lon="10.736099099117217"><ele>219.5</ele><time>2026-03-28T14:55:44Z</time></trkpt><trkpt lat="45.569388425916905" lon="10.736170351686793"><ele>219.25</ele><time>2026-03-28T14:55:45Z</time></trkpt><trkpt lat="45.5695168315749" lon="10.736222418840228"><ele>219.0</ele><time>2026-03-28T14:55:46Z</time></trkpt><trkpt lat="45.569638628301" lon="10.736256461700377"><ele>219.0</ele><time>2026-03-28T14:55:47Z</time></trkpt><trkpt lat="45.56976308095923" lon="10.736271670913494"><ele>218.99999999999997</ele><time>2026-03-28T14:55:48Z</time></trkpt><trkpt lat="45.5698741566837" lon="10.736288049170426"><ele>218.99999999999997</ele><time>2026-03-28T14:55:49Z</time></trkpt><trkpt lat="45.56997525085589" lon="10.736295247461692"><ele>219.0</ele><time>2026-03-28T14:55:50Z</time></trkpt><trkpt lat="45.570061608892125" lon="10.736304849178897"><ele>219.0</ele><time>2026-03-28T14:55:51Z</time></trkpt><trkpt lat="45.570138032087236" lon="10.736307908545836"><ele>219.0</ele><time>2026-03-28T14:55:52Z</time></trkpt><trkpt lat="45.57022057564934" lon="10.736332690200966"><ele>219.0</ele><time>2026-03-28T14:55:53Z</time></trkpt><trkpt lat="45.57031172415747" lon="10.736318326879147"><ele>219.0</ele><time>2026-03-28T14:55:54Z</time></trkpt><trkpt lat="45.570410023292176" lon="10.73632063341202"><ele>219.0</ele><time>2026-03-28T14:55:55Z</time></trkpt><trkpt lat="45.57049391447602" lon="10.736318447802594"><ele>219.0</ele><time>2026-03-28T14:55:56Z</time></trkpt><trkpt lat="45.57057138295833" lon="10.736317279995736"><ele>219.0</ele><time>2026-03-28T14:55:57Z</time></trkpt><trkpt lat="45.57063548854204" lon="10.736338271887636"><ele>219.75</ele><time>2026-03-28T14:55:59Z</time></trkpt><trkpt lat="45.570672979482794" lon="10.736519317754196"><ele>220.5</ele><time>2026-03-28T14:56:01Z</time></trkpt><trkpt lat="45.57070932934252" lon="10.736666308953227"><ele>221.25</ele><time>2026-03-28T14:56:02Z</time></trkpt><trkpt lat="45.570762183714116" lon="10.736817808751233"><ele>222.0</ele><time>2026-03-28T14:56:03Z</time></trkpt><trkpt lat="45.57078868300118" lon="10.736976366124935"><ele>222.0</ele><time>2026-03-28T14:56:04Z</time></trkpt><trkpt lat="45.570795416680035" lon="10.737147230134024"><ele>222.0</ele><time>2026-03-28T14:56:05Z</time></trkpt><trkpt lat="45.570806671819504" lon="10.737309990675339"><ele>222.0</ele><time>2026-03-28T14:56:06Z</time></trkpt><trkpt lat="45.57083088894468" lon="10.737454333346356"><ele>222.0</ele><time>2026-03-28T14:56:07Z</time></trkpt><trkpt lat="45.570830868146444" lon="10.737575479828488"><ele>222.0</ele><time>2026-03-28T14:56:08Z</time></trkpt><trkpt lat="45.57084279924722" lon="10.73775556114549"><ele>222.33333333333334</ele><time>2026-03-28T14:56:10Z</time></trkpt><trkpt lat="45.57085183937291" lon="10.737874455933458"><ele>222.66666666666669</ele><time>2026-03-28T14:56:11Z</time></trkpt><trkpt lat="45.57084398557064" lon="10.737971685463675"><ele>223.0</ele><time>2026-03-28T14:56:12Z</time></trkpt><trkpt lat="45.57087006130031" lon="10.738154749368851"><ele>223.33333333333334</ele><time>2026-03-28T14:56:14Z</time></trkpt><trkpt lat="45.570863120253556" lon="10.738276153760056"><ele>223.66666666666669</ele><time>2026-03-28T14:56:15Z</time></trkpt><trkpt lat="45.57088622275539" lon="10.738369202334415"><ele>224.0</ele><time>2026-03-28T14:56:16Z</time></trkpt><trkpt lat="45.570890404940386" lon="10.738523570418774"><ele>223.39999999999998</ele><time>2026-03-28T14:56:18Z</time></trkpt><trkpt lat="45.57090059247771" lon="10.738615865964748"><ele>222.79999999999998</ele><time>2026-03-28T14:56:19Z</time></trkpt><trkpt lat="45.57090968967406" lon="10.73879145568805"><ele>222.20000000000002</ele><time>2026-03-28T14:56:21Z</time></trkpt><trkpt lat="45.57090088109961" lon="10.738905051610221"><ele>221.60000000000002</ele><time>2026-03-28T14:56:22Z</time></trkpt><trkpt lat="45.5708955767583" lon="10.739048381985869"><ele>221.0</ele><time>2026-03-28T14:56:23Z</time></trkpt><trkpt lat="45.570899856954405" lon="10.739197026282529"><ele>221.00000000000003</ele><time>2026-03-28T14:56:24Z</time></trkpt><trkpt lat="45.57088383509194" lon="10.739332689012201"><ele>221.0</ele><time>2026-03-28T14:56:25Z</time></trkpt><trkpt lat="45.57088056320888" lon="10.739468240110003"><ele>221.0</ele><time>2026-03-28T14:56:26Z</time></trkpt><trkpt lat="45.57086845534515" lon="10.739592458809623"><ele>221.0</ele><time>2026-03-28T14:56:27Z</time></trkpt><trkpt lat="45.570894033619865" lon="10.739677790397469"><ele>221.00000000000003</ele><time>2026-03-28T14:56:28Z</time></trkpt><trkpt lat="45.570916271670534" lon="10.739766304577975"><ele>221.0</ele><time>2026-03-28T14:56:31Z</time></trkpt><trkpt lat="45.570983855515095" lon="10.73976139621192"><ele>221.0</ele><time>2026-03-28T14:56:33Z</time></trkpt><trkpt lat="45.571091899376434" lon="10.739704936320381"><ele>221.00000000000003</ele><time>2026-03-28T14:56:35Z</time></trkpt><trkpt lat="45.57116247814701" lon="10.739660020205935"><ele>221.00000000000003</ele><time>2026-03-28T14:56:37Z</time></trkpt><trkpt lat="45.57123247828041" lon="10.73977751342672"><ele>221.0</ele><time>2026-03-28T14:56:39Z</time></trkpt><trkpt lat="45.571242585317115" lon="10.73987942059687"><ele>221.0</ele><time>2026-03-28T14:56:40Z</time></trkpt><trkpt lat="45.57122309065382" lon="10.739994189144587"><ele>218.50000000000003</ele><time>2026-03-28T14:56:41Z</time></trkpt><trkpt lat="45.57121846281536" lon="10.740089589042647"><ele>216.0</ele><time>2026-03-28T14:56:43Z</time></trkpt><trkpt lat="45.57122498331945" lon="10.740227680652882"><ele>213.5</ele><time>2026-03-28T14:56:45Z</time></trkpt><trkpt lat="45.57120874811041" lon="10.740343757481034"><ele>211.0</ele><time>2026-03-28T14:56:46Z</time></trkpt><trkpt lat="45.57120744839994" lon="10.74048419838623"><ele>208.50000000000003</ele><time>2026-03-28T14:56:47Z</time></trkpt><trkpt lat="45.571202255616136" lon="10.740616514080962"><ele>206.0</ele><time>2026-03-28T14:56:48Z</time></trkpt><trkpt lat="45.57121079342719" lon="10.740726968792057"><ele>205.4</ele><time>2026-03-28T14:56:49Z</time></trkpt><trkpt lat="45.57121935672423" lon="10.740830497071965"><ele>204.8</ele><time>2026-03-28T14:56:50Z</time></trkpt><trkpt lat="45.571205595698856" lon="10.74096872312703"><ele>204.20000000000002</ele><time>2026-03-28T14:56:52Z</time></trkpt><trkpt lat="45.571105353797854" lon="10.741065561768346"><ele>203.60000000000002</ele><time>2026-03-28T14:56:54Z</time></trkpt><trkpt lat="45.5710492155865" lon="10.741145033723239"><ele>203.0</ele><time>2026-03-28T14:56:55Z</time></trkpt><trkpt lat="45.57098429087824" lon="10.741225893778221"><ele>208.2</ele><time>2026-03-28T14:56:56Z</time></trkpt><trkpt lat="45.57098214569222" lon="10.74138480037626"><ele>213.4</ele><time>2026-03-28T14:56:58Z</time></trkpt><trkpt lat="45.57099836904453" lon="10.74148225907392"><ele>218.59999999999997</ele><time>2026-03-28T14:56:59Z</time></trkpt><trkpt lat="45.57103733467585" lon="10.741611195955189"><ele>223.79999999999998</ele><time>2026-03-28T14:57:00Z</time></trkpt><trkpt lat="45.57107963828973" lon="10.741742075513255"><ele>229.0</ele><time>2026-03-28T14:57:01Z</time></trkpt><trkpt lat="45.57112823062289" lon="10.741867932221554"><ele>229.2</ele><time>2026-03-28T14:57:02Z</time></trkpt><trkpt lat="45.57114906591503" lon="10.741969600772093"><ele>229.39999999999998</ele><time>2026-03-28T14:57:03Z</time></trkpt><trkpt lat="45.57117934547395" lon="10.742089142210366"><ele>229.6</ele><time>2026-03-28T14:57:05Z</time></trkpt><trkpt lat="45.57121326711066" lon="10.742226476153665"><ele>229.8</ele><time>2026-03-28T14:57:07Z</time></trkpt><trkpt lat="45.57126338409416" lon="10.74233520439471"><ele>230.0</ele><time>2026-03-28T14:57:09Z</time></trkpt><trkpt lat="45.57128723313527" lon="10.742524293279336"><ele>227.00000000000003</ele><time>2026-03-28T14:57:11Z</time></trkpt><trkpt lat="45.57130332649674" lon="10.742614951542178"><ele>224.0</ele><time>2026-03-28T14:57:12Z</time></trkpt><trkpt lat="45.571333269554565" lon="10.74278362867116"><ele>221.0</ele><time>2026-03-28T14:57:14Z</time></trkpt><trkpt lat="45.57136668592675" lon="10.742863008571389"><ele>218.0</ele><time>2026-03-28T14:57:15Z</time></trkpt><trkpt lat="45.57138449147324" lon="10.742949821252997"><ele>215.00000000000003</ele><time>2026-03-28T14:57:16Z</time></trkpt><trkpt lat="45.571397145264974" lon="10.743048063842856"><ele>212.0</ele><time>2026-03-28T14:57:17Z</time></trkpt><trkpt lat="45.57143113540989" lon="10.743148649555533"><ele>212.0</ele><time>2026-03-28T14:57:18Z</time></trkpt><trkpt lat="45.57147338096004" lon="10.743262262924013"><ele>212.0</ele><time>2026-03-28T14:57:19Z</time></trkpt><trkpt lat="45.57151976443405" lon="10.743351404841183"><ele>212.0</ele><time>2026-03-28T14:57:20Z</time></trkpt><trkpt lat="45.57157309899309" lon="10.743519819262835"><ele>212.0</ele><time>2026-03-28T14:57:22Z</time></trkpt><trkpt lat="45.571613434049546" lon="10.74365006065467"><ele>212.0</ele><time>2026-03-28T14:57:23Z</time></trkpt><trkpt lat="45.571650695624434" lon="10.743801443013156"><ele>212.0</ele><time>2026-03-28T14:57:24Z</time></trkpt><trkpt lat="45.571692171358734" lon="10.743940831778746"><ele>212.0</ele><time>2026-03-28T14:57:25Z</time></trkpt><trkpt lat="45.57172404219593" lon="10.744059529932949"><ele>212.0</ele><time>2026-03-28T14:57:26Z</time></trkpt><trkpt lat="45.57174711497542" lon="10.744144542102404"><ele>212.0</ele><time>2026-03-28T14:57:27Z</time></trkpt><trkpt lat="45.57183866164236" lon="10.74390518674571"><ele>212.0</ele><time>2026-03-28T14:57:36Z</time></trkpt><trkpt lat="45.571847798339924" lon="10.743805734775073"><ele>212.0</ele><time>2026-03-28T14:57:37Z</time></trkpt><trkpt lat="45.571863452394005" lon="10.74370378990719"><ele>212.0</ele><time>2026-03-28T14:57:38Z</time></trkpt><trkpt lat="45.57187448875412" lon="10.743597942497972"><ele>212.0</ele><time>2026-03-28T14:57:39Z</time></trkpt><trkpt lat="45.57188818807352" lon="10.743499523676851"><ele>212.0</ele><time>2026-03-28T14:57:40Z</time></trkpt><trkpt lat="45.57190610922405" lon="10.743401518604554"><ele>212.0</ele><time>2026-03-28T14:57:41Z</time></trkpt><trkpt lat="45.57192371931058" lon="10.743305041604689"><ele>212.0</ele><time>2026-03-28T14:57:42Z</time></trkpt><trkpt lat="45.571952170439474" lon="10.743138229472567"><ele>212.00000000000003</ele><time>2026-03-28T14:57:44Z</time></trkpt><trkpt lat="45.57197373307612" lon="10.74305015082711"><ele>212.0</ele><time>2026-03-28T14:57:45Z</time></trkpt><trkpt lat="45.57199550128187" lon="10.742959999030608"><ele>212.0</ele><time>2026-03-28T14:57:46Z</time></trkpt><trkpt lat="45.57201842507032" lon="10.742871666278583"><ele>212.0</ele><time>2026-03-28T14:57:47Z</time></trkpt><trkpt lat="45.57204452833134" lon="10.742786215997869"><ele>212.00000000000003</ele><time>2026-03-28T14:57:48Z</time></trkpt><trkpt lat="45.57209711338512" lon="10.7426387047267"><ele>212.0</ele><time>2026-03-28T14:57:50Z</time></trkpt><trkpt lat="45.57215866110197" lon="10.742512582289475"><ele>210.8</ele><time>2026-03-28T14:57:52Z</time></trkpt><trkpt lat="45.57223554942124" lon="10.742472714348299"><ele>209.6</ele><time>2026-03-28T14:57:55Z</time></trkpt><trkpt lat="45.57233488664091" lon="10.74254650628316"><ele>208.4</ele><time>2026-03-28T14:57:57Z</time></trkpt><trkpt lat="45.572384868343036" lon="10.74260896098121"><ele>207.20000000000002</ele><time>2026-03-28T14:57:58Z</time></trkpt><trkpt lat="45.57248320582887" lon="10.742721193506197"><ele>206.0</ele><time>2026-03-28T14:58:00Z</time></trkpt><trkpt lat="45.57255345906523" lon="10.74280196374535"><ele>205.83333333333334</ele><time>2026-03-28T14:58:01Z</time></trkpt><trkpt lat="45.572619277278655" lon="10.742875060118699"><ele>205.66666666666669</ele><time>2026-03-28T14:58:02Z</time></trkpt><trkpt lat="45.57268557136088" lon="10.742945536728637"><ele>205.5</ele><time>2026-03-28T14:58:03Z</time></trkpt><trkpt lat="45.572749981506334" lon="10.74300363544426"><ele>205.33333333333331</ele><time>2026-03-28T14:58:04Z</time></trkpt><trkpt lat="45.57282267821048" lon="10.743057738099843"><ele>205.16666666666666</ele><time>2026-03-28T14:58:05Z</time></trkpt><trkpt lat="45.572916500104355" lon="10.743132396159679"><ele>205.0</ele><time>2026-03-28T14:58:06Z</time></trkpt><trkpt lat="45.5729988803136" lon="10.743212025832928"><ele>205.0</ele><time>2026-03-28T14:58:07Z</time></trkpt><trkpt lat="45.57308270575723" lon="10.743303834038985"><ele>205.0</ele><time>2026-03-28T14:58:08Z</time></trkpt><trkpt lat="45.57316206668662" lon="10.743375107381636"><ele>205.0</ele><time>2026-03-28T14:58:09Z</time></trkpt><trkpt lat="45.57321262695654" lon="10.743437381998717"><ele>205.0</ele><time>2026-03-28T14:58:10Z</time></trkpt><trkpt lat="45.5732879282141" lon="10.743530814627245"><ele>205.0</ele><time>2026-03-28T14:58:12Z</time></trkpt><trkpt lat="45.5733866918328" lon="10.743611454457794"><ele>204.66666666666666</ele><time>2026-03-28T14:58:14Z</time></trkpt><trkpt lat="45.57345150929442" lon="10.743678022018965"><ele>204.33333333333331</ele><time>2026-03-28T14:58:15Z</time></trkpt><trkpt lat="45.57350106073148" lon="10.743770700822996"><ele>204.0</ele><time>2026-03-28T14:58:16Z</time></trkpt><trkpt lat="45.57355396750713" lon="10.743854505009104"><ele>203.66666666666669</ele><time>2026-03-28T14:58:17Z</time></trkpt><trkpt lat="45.57361479304517" lon="10.743926474441858"><ele>203.33333333333334</ele><time>2026-03-28T14:58:18Z</time></trkpt><trkpt lat="45.57368392819656" lon="10.744010503125663"><ele>203.0</ele><time>2026-03-28T14:58:19Z</time></trkpt><trkpt lat="45.57374044788584" lon="10.744073469535461"><ele>203.00000000000003</ele><time>2026-03-28T14:58:20Z</time></trkpt><trkpt lat="45.57379928869832" lon="10.744127038237265"><ele>203.0</ele><time>2026-03-28T14:58:21Z</time></trkpt><trkpt lat="45.57386969720407" lon="10.744158585231206"><ele>203.0</ele><time>2026-03-28T14:58:23Z</time></trkpt><trkpt lat="45.57391297861832" lon="10.74423202050054"><ele>203.0</ele><time>2026-03-28T14:58:25Z</time></trkpt><trkpt lat="45.573981826212545" lon="10.74437836830798"><ele>203.00000000000003</ele><time>2026-03-28T14:58:27Z</time></trkpt><trkpt lat="45.574044076499305" lon="10.744425423315793"><ele>203.0</ele><time>2026-03-28T14:58:28Z</time></trkpt><trkpt lat="45.5741200356302" lon="10.744496151293149"><ele>208.0</ele><time>2026-03-28T14:58:29Z</time></trkpt><trkpt lat="45.574190538267295" lon="10.744586460740958"><ele>213.0</ele><time>2026-03-28T14:58:30Z</time></trkpt><trkpt lat="45.57426853239149" lon="10.744691580746789"><ele>218.0</ele><time>2026-03-28T14:58:31Z</time></trkpt><trkpt lat="45.574361686244664" lon="10.744804805841955"><ele>223.0</ele><time>2026-03-28T14:58:32Z</time></trkpt><trkpt lat="45.574463333215455" lon="10.744927426998657"><ele>223.2</ele><time>2026-03-28T14:58:33Z</time></trkpt><trkpt lat="45.57455929648319" lon="10.74505135936443"><ele>223.4</ele><time>2026-03-28T14:58:34Z</time></trkpt><trkpt lat="45.57464235532294" lon="10.745152855499379"><ele>223.59999999999997</ele><time>2026-03-28T14:58:35Z</time></trkpt><trkpt lat="45.574712975724665" lon="10.74524151888731"><ele>223.79999999999998</ele><time>2026-03-28T14:58:36Z</time></trkpt><trkpt lat="45.57478436836052" lon="10.745327299545815"><ele>224.0</ele><time>2026-03-28T14:58:37Z</time></trkpt><trkpt lat="45.57484207168223" lon="10.745399860183843"><ele>224.0</ele><time>2026-03-28T14:58:38Z</time></trkpt><trkpt lat="45.574885124789326" lon="10.74546727128006"><ele>223.99999999999997</ele><time>2026-03-28T14:58:39Z</time></trkpt><trkpt lat="45.574935104095225" lon="10.745656508164473"><ele>223.99999999999997</ele><time>2026-03-28T14:58:41Z</time></trkpt><trkpt lat="45.5749874843898" lon="10.745753327199925"><ele>224.0</ele><time>2026-03-28T14:58:42Z</time></trkpt><trkpt lat="45.57507824440113" lon="10.745838780099993"><ele>224.0</ele><time>2026-03-28T14:58:43Z</time></trkpt><trkpt lat="45.575173037545554" lon="10.745927874389057"><ele>224.0</ele><time>2026-03-28T14:58:44Z</time></trkpt><trkpt lat="45.57528334061719" lon="10.746017513400666"><ele>224.0</ele><time>2026-03-28T14:58:45Z</time></trkpt><trkpt lat="45.57540262516918" lon="10.746096847573893"><ele>224.0</ele><time>2026-03-28T14:58:46Z</time></trkpt><trkpt lat="45.5755288997097" lon="10.74616880212186"><ele>224.0</ele><time>2026-03-28T14:58:47Z</time></trkpt><trkpt lat="45.575653817405744" lon="10.746229856000861"><ele>227.0</ele><time>2026-03-28T14:58:48Z</time></trkpt><trkpt lat="45.57576718311632" lon="10.746260755670503"><ele>230.0</ele><time>2026-03-28T14:58:49Z</time></trkpt><trkpt lat="45.575900279261546" lon="10.746272215040886"><ele>233.0</ele><time>2026-03-28T14:58:50Z</time></trkpt><trkpt lat="45.576063086808546" lon="10.746464669075314"><ele>233.4</ele><time>2026-03-28T14:58:51Z</time></trkpt><trkpt lat="45.576199841481085" lon="10.746435349970529"><ele>233.8</ele><time>2026-03-28T14:58:52Z</time></trkpt><trkpt lat="45.57629708470937" lon="10.746428400716962"><ele>234.2</ele><time>2026-03-28T14:58:53Z</time></trkpt><trkpt lat="45.576372906006924" lon="10.7464403495728"><ele>234.6</ele><time>2026-03-28T14:58:54Z</time></trkpt><trkpt lat="45.57645159569674" lon="10.746462215464158"><ele>235.0</ele><time>2026-03-28T14:58:55Z</time></trkpt><trkpt lat="45.57652404833877" lon="10.74648199788525"><ele>234.99999999999997</ele><time>2026-03-28T14:58:56Z</time></trkpt><trkpt lat="45.576596442039545" lon="10.74649052075178"><ele>235.0</ele><time>2026-03-28T14:58:58Z</time></trkpt><trkpt lat="45.57665810036078" lon="10.746531544960664"><ele>235.0</ele><time>2026-03-28T14:59:00Z</time></trkpt><trkpt lat="45.57670556931434" lon="10.746649252657967"><ele>235.0</ele><time>2026-03-28T14:59:01Z</time></trkpt><trkpt lat="45.57674468183435" lon="10.746769808110953"><ele>234.99999999999997</ele><time>2026-03-28T14:59:02Z</time></trkpt><trkpt lat="45.57679248802621" lon="10.746864906239258"><ele>235.0</ele><time>2026-03-28T14:59:03Z</time></trkpt><trkpt lat="45.576887673060035" lon="10.746895211738623"><ele>234.8</ele><time>2026-03-28T14:59:04Z</time></trkpt><trkpt lat="45.57698052450179" lon="10.746891993763201"><ele>234.6</ele><time>2026-03-28T14:59:05Z</time></trkpt><trkpt lat="45.57708334169574" lon="10.74685311518876"><ele>234.39999999999998</ele><time>2026-03-28T14:59:06Z</time></trkpt><trkpt lat="45.57720027186269" lon="10.746805190544634"><ele>234.2</ele><time>2026-03-28T14:59:07Z</time></trkpt><trkpt lat="45.577320469371664" lon="10.746751878431409"><ele>234.0</ele><time>2026-03-28T14:59:08Z</time></trkpt><trkpt lat="45.57742659001011" lon="10.74668545203292"><ele>234.0</ele><time>2026-03-28T14:59:09Z</time></trkpt><trkpt lat="45.57753631583109" lon="10.746584339094651"><ele>234.0</ele><time>2026-03-28T14:59:10Z</time></trkpt><trkpt lat="45.57765226780167" lon="10.746454073476173"><ele>234.0</ele><time>2026-03-28T14:59:11Z</time></trkpt><trkpt lat="45.57776773963361" lon="10.746326390737247"><ele>234.0</ele><time>2026-03-28T14:59:12Z</time></trkpt><trkpt lat="45.57788235249392" lon="10.746208817232848"><ele>232.5</ele><time>2026-03-28T14:59:13Z</time></trkpt><trkpt lat="45.5779916368395" lon="10.746106665233556"><ele>231.0</ele><time>2026-03-28T14:59:14Z</time></trkpt><trkpt lat="45.5781031094654" lon="10.7460058746325"><ele>229.5</ele><time>2026-03-28T14:59:15Z</time></trkpt><trkpt lat="45.57821929843623" lon="10.745908247781374"><ele>228.0</ele><time>2026-03-28T14:59:16Z</time></trkpt><trkpt lat="45.57832338578288" lon="10.74582503805408"><ele>227.75</ele><time>2026-03-28T14:59:17Z</time></trkpt><trkpt lat="45.578430375222744" lon="10.745731791462784"><ele>227.5</ele><time>2026-03-28T14:59:18Z</time></trkpt><trkpt lat="45.57853319775819" lon="10.745642850345606"><ele>227.25</ele><time>2026-03-28T14:59:19Z</time></trkpt><trkpt lat="45.578630071780346" lon="10.745552564677565"><ele>227.0</ele><time>2026-03-28T14:59:20Z</time></trkpt><trkpt lat="45.57872632067098" lon="10.74545870007991"><ele>226.5</ele><time>2026-03-28T14:59:21Z</time></trkpt><trkpt lat="45.57881643149804" lon="10.745365997293202"><ele>226.0</ele><time>2026-03-28T14:59:22Z</time></trkpt><trkpt lat="45.57889079001066" lon="10.745256833208387"><ele>225.5</ele><time>2026-03-28T14:59:23Z</time></trkpt><trkpt lat="45.578973684401134" lon="10.745138746761237"><ele>225.0</ele><time>2026-03-28T14:59:24Z</time></trkpt><trkpt lat="45.57905111331054" lon="10.745010143720275"><ele>224.16666666666666</ele><time>2026-03-28T14:59:25Z</time></trkpt><trkpt lat="45.57912849919827" lon="10.744881579880449"><ele>223.33333333333331</ele><time>2026-03-28T14:59:26Z</time></trkpt><trkpt lat="45.57919753981609" lon="10.744772147812704"><ele>222.5</ele><time>2026-03-28T14:59:27Z</time></trkpt><trkpt lat="45.579256046941445" lon="10.744705634174275"><ele>221.66666666666666</ele><time>2026-03-28T14:59:28Z</time></trkpt><trkpt lat="45.579322155354475" lon="10.744644706654777"><ele>220.83333333333331</ele><time>2026-03-28T14:59:29Z</time></trkpt><trkpt lat="45.57939035800276" lon="10.74462370149139"><ele>220.0</ele><time>2026-03-28T14:59:30Z</time></trkpt><trkpt lat="45.57945998349476" lon="10.744635434983097"><ele>219.4</ele><time>2026-03-28T14:59:31Z</time></trkpt><trkpt lat="45.57952719234492" lon="10.744715469513721"><ele>218.8</ele><time>2026-03-28T14:59:32Z</time></trkpt><trkpt lat="45.57961209206739" lon="10.744762278490615"><ele>218.2</ele><time>2026-03-28T14:59:33Z</time></trkpt><trkpt lat="45.579698771116554" lon="10.74482960637811"><ele>217.6</ele><time>2026-03-28T14:59:34Z</time></trkpt><trkpt lat="45.57978319840041" lon="10.744892548451729"><ele>217.0</ele><time>2026-03-28T14:59:35Z</time></trkpt><trkpt lat="45.5798651683269" lon="10.744962575581749"><ele>217.0</ele><time>2026-03-28T14:59:36Z</time></trkpt><trkpt lat="45.57994325738916" lon="10.74503139921078"><ele>217.0</ele><time>2026-03-28T14:59:37Z</time></trkpt><trkpt lat="45.58002016297036" lon="10.745098279158375"><ele>217.0</ele><time>2026-03-28T14:59:38Z</time></trkpt><trkpt lat="45.58009894859444" lon="10.74518246050787"><ele>217.0</ele><time>2026-03-28T14:59:39Z</time></trkpt><trkpt lat="45.58019447876565" lon="10.745274860779801"><ele>217.0</ele><time>2026-03-28T14:59:40Z</time></trkpt><trkpt lat="45.580316041021206" lon="10.745349869963574"><ele>221.0</ele><time>2026-03-28T14:59:41Z</time></trkpt><trkpt lat="45.580448804042604" lon="10.745410689777644"><ele>225.0</ele><time>2026-03-28T14:59:42Z</time></trkpt><trkpt lat="45.58058624909004" lon="10.74545118625253"><ele>229.0</ele><time>2026-03-28T14:59:43Z</time></trkpt><trkpt lat="45.58072878647558" lon="10.745483339376067"><ele>233.0</ele><time>2026-03-28T14:59:44Z</time></trkpt><trkpt lat="45.580855790467226" lon="10.745512354230227"><ele>233.0</ele><time>2026-03-28T14:59:45Z</time></trkpt><trkpt lat="45.58097441607679" lon="10.745553550643473"><ele>233.0</ele><time>2026-03-28T14:59:46Z</time></trkpt><trkpt lat="45.58108256090515" lon="10.745595765885188"><ele>233.0</ele><time>2026-03-28T14:59:47Z</time></trkpt><trkpt lat="45.58118860092973" lon="10.745633567308237"><ele>233.0</ele><time>2026-03-28T14:59:48Z</time></trkpt><trkpt lat="45.58130468623992" lon="10.745664218460663"><ele>230.0</ele><time>2026-03-28T14:59:49Z</time></trkpt><trkpt lat="45.58143278305436" lon="10.74571771123469"><ele>227.0</ele><time>2026-03-28T14:59:50Z</time></trkpt><trkpt lat="45.581579955440475" lon="10.745776187477148"><ele>224.0</ele><time>2026-03-28T14:59:51Z</time></trkpt><trkpt lat="45.58174691937083" lon="10.745813674348444"><ele>224.0</ele><time>2026-03-28T14:59:52Z</time></trkpt><trkpt lat="45.58191822440748" lon="10.745835116129202"><ele>224.0</ele><time>2026-03-28T14:59:53Z</time></trkpt><trkpt lat="45.582087015096" lon="10.745854140251977"><ele>224.0</ele><time>2026-03-28T14:59:54Z</time></trkpt><trkpt lat="45.58226325604259" lon="10.745865878632378"><ele>223.66666666666669</ele><time>2026-03-28T14:59:55Z</time></trkpt><trkpt lat="45.582443646814234" lon="10.745872884791806"><ele>223.33333333333331</ele><time>2026-03-28T14:59:56Z</time></trkpt><trkpt lat="45.582616296339374" lon="10.745889962156795"><ele>223.0</ele><time>2026-03-28T14:59:57Z</time></trkpt><trkpt lat="45.582780842910424" lon="10.745905251994996"><ele>224.66666666666666</ele><time>2026-03-28T14:59:58Z</time></trkpt><trkpt lat="45.582940548855596" lon="10.745896916102376"><ele>226.33333333333331</ele><time>2026-03-28T14:59:59Z</time></trkpt><trkpt lat="45.58311347825651" lon="10.745890444998201"><ele>228.0</ele><time>2026-03-28T15:00:00Z</time></trkpt><trkpt lat="45.58328285539954" lon="10.745886795351057"><ele>228.0</ele><time>2026-03-28T15:00:01Z</time></trkpt><trkpt lat="45.5834370812304" lon="10.745878554684584"><ele>228.0</ele><time>2026-03-28T15:00:02Z</time></trkpt><trkpt lat="45.583573812955386" lon="10.745870801521749"><ele>228.0</ele><time>2026-03-28T15:00:03Z</time></trkpt><trkpt lat="45.58370777906813" lon="10.745872358430871"><ele>228.0</ele><time>2026-03-28T15:00:04Z</time></trkpt><trkpt lat="45.58384532845741" lon="10.745885406845602"><ele>229.25</ele><time>2026-03-28T15:00:05Z</time></trkpt><trkpt lat="45.583984712042735" lon="10.745885611787907"><ele>230.5</ele><time>2026-03-28T15:00:06Z</time></trkpt><trkpt lat="45.5841102946068" lon="10.745872343802056"><ele>231.75</ele><time>2026-03-28T15:00:07Z</time></trkpt><trkpt lat="45.58421776955152" lon="10.745852792203857"><ele>233.0</ele><time>2026-03-28T15:00:08Z</time></trkpt><trkpt lat="45.58432894454899" lon="10.745821353548074"><ele>233.0</ele><time>2026-03-28T15:00:09Z</time></trkpt><trkpt lat="45.584454923054764" lon="10.745771824341444"><ele>233.0</ele><time>2026-03-28T15:00:10Z</time></trkpt><trkpt lat="45.584570238513784" lon="10.745710866649807"><ele>233.0</ele><time>2026-03-28T15:00:11Z</time></trkpt><trkpt lat="45.58466503361641" lon="10.745653979476698"><ele>233.0</ele><time>2026-03-28T15:00:12Z</time></trkpt><trkpt lat="45.58474280328822" lon="10.745584708510997"><ele>233.0</ele><time>2026-03-28T15:00:13Z</time></trkpt><trkpt lat="45.58482491322016" lon="10.745493801237336"><ele>233.60000000000002</ele><time>2026-03-28T15:00:14Z</time></trkpt><trkpt lat="45.5849177446884" lon="10.745393318282547"><ele>234.20000000000002</ele><time>2026-03-28T15:00:15Z</time></trkpt><trkpt lat="45.585011635349986" lon="10.745323721797071"><ele>234.8</ele><time>2026-03-28T15:00:16Z</time></trkpt><trkpt lat="45.585104391636094" lon="10.745290821101316"><ele>235.4</ele><time>2026-03-28T15:00:17Z</time></trkpt><trkpt lat="45.58521408089336" lon="10.745276227173347"><ele>236.0</ele><time>2026-03-28T15:00:18Z</time></trkpt><trkpt lat="45.58533514260791" lon="10.745290177956726"><ele>236.25</ele><time>2026-03-28T15:00:19Z</time></trkpt><trkpt lat="45.585448793610404" lon="10.745320441108452"><ele>236.5</ele><time>2026-03-28T15:00:20Z</time></trkpt><trkpt lat="45.585579742160554" lon="10.745342551858464"><ele>236.75</ele><time>2026-03-28T15:00:21Z</time></trkpt><trkpt lat="45.58568625714222" lon="10.745364223362417"><ele>237.0</ele><time>2026-03-28T15:00:22Z</time></trkpt><trkpt lat="45.585786982696256" lon="10.745386071182628"><ele>237.0</ele><time>2026-03-28T15:00:23Z</time></trkpt><trkpt lat="45.58586687083993" lon="10.74539690839093"><ele>237.0</ele><time>2026-03-28T15:00:24Z</time></trkpt><trkpt lat="45.585955025269506" lon="10.745399351004268"><ele>237.0</ele><time>2026-03-28T15:00:26Z</time></trkpt><trkpt lat="45.586025728038905" lon="10.745254506373959"><ele>237.0</ele><time>2026-03-28T15:01:09Z</time></trkpt><trkpt lat="45.586013538127986" lon="10.74514346953021"><ele>237.0</ele><time>2026-03-28T15:01:10Z</time></trkpt><trkpt lat="45.58599574051955" lon="10.745004232707396"><ele>238.2</ele><time>2026-03-28T15:01:11Z</time></trkpt><trkpt lat="45.586001445238736" lon="10.744858284906014"><ele>239.39999999999998</ele><time>2026-03-28T15:01:12Z</time></trkpt><trkpt lat="45.58599477630488" lon="10.744702825241786"><ele>240.60000000000002</ele><time>2026-03-28T15:01:13Z</time></trkpt><trkpt lat="45.58598693158055" lon="10.744560203876556"><ele>241.8</ele><time>2026-03-28T15:01:14Z</time></trkpt><trkpt lat="45.58597957027036" lon="10.744439087204837"><ele>243.0</ele><time>2026-03-28T15:01:15Z</time></trkpt><trkpt lat="45.58596771486922" lon="10.744324299570167"><ele>243.16666666666666</ele><time>2026-03-28T15:01:16Z</time></trkpt><trkpt lat="45.58593865628329" lon="10.74421266836008"><ele>243.33333333333331</ele><time>2026-03-28T15:01:17Z</time></trkpt><trkpt lat="45.58592384678172" lon="10.74409731987815"><ele>243.5</ele><time>2026-03-28T15:01:18Z</time></trkpt><trkpt lat="45.58591015871474" lon="10.743988563561631"><ele>243.66666666666666</ele><time>2026-03-28T15:01:19Z</time></trkpt><trkpt lat="45.58590444800646" lon="10.743864158320966"><ele>243.83333333333331</ele><time>2026-03-28T15:01:20Z</time></trkpt><trkpt lat="45.585893985191056" lon="10.743772301320927"><ele>244.0</ele><time>2026-03-28T15:01:21Z</time></trkpt><trkpt lat="45.58588119029569" lon="10.74361700239657"><ele>243.0</ele><time>2026-03-28T15:01:23Z</time></trkpt><trkpt lat="45.58587367040658" lon="10.743509867766246"><ele>241.99999999999997</ele><time>2026-03-28T15:01:25Z</time></trkpt><trkpt lat="45.585848524126234" lon="10.743412366637898"><ele>240.99999999999997</ele><time>2026-03-28T15:01:31Z</time></trkpt><trkpt lat="45.58582916500382" lon="10.743253214422436"><ele>240.0</ele><time>2026-03-28T15:01:33Z</time></trkpt><trkpt lat="45.585832783608225" lon="10.74307409433388"><ele>239.0</ele><time>2026-03-28T15:01:35Z</time></trkpt><trkpt lat="45.585839257052704" lon="10.74298174399831"><ele>239.0</ele><time>2026-03-28T15:01:36Z</time></trkpt><trkpt lat="45.58584117003732" lon="10.742876206290456"><ele>238.99999999999997</ele><time>2026-03-28T15:01:37Z</time></trkpt><trkpt lat="45.5858492237818" lon="10.742758828562726"><ele>238.99999999999997</ele><time>2026-03-28T15:01:38Z</time></trkpt><trkpt lat="45.585858692582214" lon="10.742618783476463"><ele>239.0</ele><time>2026-03-28T15:01:39Z</time></trkpt><trkpt lat="45.585861224134064" lon="10.742476064694443"><ele>239.0</ele><time>2026-03-28T15:01:40Z</time></trkpt><trkpt lat="45.58587028523043" lon="10.74233642505421"><ele>238.16666666666669</ele><time>2026-03-28T15:01:41Z</time></trkpt><trkpt lat="45.585878157991154" lon="10.742225071539545"><ele>237.33333333333334</ele><time>2026-03-28T15:01:42Z</time></trkpt><trkpt lat="45.585879625884715" lon="10.742118877588858"><ele>236.5</ele><time>2026-03-28T15:01:43Z</time></trkpt><trkpt lat="45.585877472804384" lon="10.742010288207986"><ele>235.66666666666669</ele><time>2026-03-28T15:01:44Z</time></trkpt><trkpt lat="45.58588601385148" lon="10.741902896183658"><ele>234.83333333333334</ele><time>2026-03-28T15:01:45Z</time></trkpt><trkpt lat="45.585873989820755" lon="10.741776524582438"><ele>234.0</ele><time>2026-03-28T15:01:46Z</time></trkpt><trkpt lat="45.585858204091316" lon="10.741625267541226"><ele>232.79999999999998</ele><time>2026-03-28T15:01:47Z</time></trkpt><trkpt lat="45.58585116062909" lon="10.741472972692009"><ele>231.59999999999997</ele><time>2026-03-28T15:01:48Z</time></trkpt><trkpt lat="45.58585305662839" lon="10.741337155832756"><ele>230.4</ele><time>2026-03-28T15:01:49Z</time></trkpt><trkpt lat="45.58585016778472" lon="10.74121122009715"><ele>229.2</ele><time>2026-03-28T15:01:50Z</time></trkpt><trkpt lat="45.585840390629606" lon="10.74107683595344"><ele>228.0</ele><time>2026-03-28T15:01:51Z</time></trkpt><trkpt lat="45.58582261188483" lon="10.740932616979235"><ele>227.66666666666666</ele><time>2026-03-28T15:01:52Z</time></trkpt><trkpt lat="45.58580265661118" lon="10.740792100004647"><ele>227.33333333333331</ele><time>2026-03-28T15:01:53Z</time></trkpt><trkpt lat="45.58579108998031" lon="10.740665759319498"><ele>227.0</ele><time>2026-03-28T15:01:54Z</time></trkpt><trkpt lat="45.58578051590808" lon="10.740545955343686"><ele>226.66666666666666</ele><time>2026-03-28T15:01:55Z</time></trkpt><trkpt lat="45.585769001361406" lon="10.740431492579932"><ele>226.33333333333331</ele><time>2026-03-28T15:01:56Z</time></trkpt><trkpt lat="45.585763048640274" lon="10.740326066815308"><ele>226.0</ele><time>2026-03-28T15:01:57Z</time></trkpt><trkpt lat="45.58576421153045" lon="10.740223041196153"><ele>226.16666666666666</ele><time>2026-03-28T15:01:58Z</time></trkpt><trkpt lat="45.58577489582441" lon="10.74011808454945"><ele>226.33333333333331</ele><time>2026-03-28T15:01:59Z</time></trkpt><trkpt lat="45.585794207724064" lon="10.740020537553171"><ele>226.5</ele><time>2026-03-28T15:02:00Z</time></trkpt><trkpt lat="45.58582318207225" lon="10.739872484917491"><ele>226.66666666666669</ele><time>2026-03-28T15:02:02Z</time></trkpt><trkpt lat="45.58578601542933" lon="10.739789765187306"><ele>226.83333333333334</ele><time>2026-03-28T15:02:03Z</time></trkpt><trkpt lat="45.58573328544841" lon="10.739707601387213"><ele>227.0</ele><time>2026-03-28T15:02:04Z</time></trkpt><trkpt lat="45.585699312824424" lon="10.739609623132914"><ele>227.0</ele><time>2026-03-28T15:02:05Z</time></trkpt><trkpt lat="45.58569153535819" lon="10.739499099097497"><ele>227.0</ele><time>2026-03-28T15:02:06Z</time></trkpt><trkpt lat="45.58568581394594" lon="10.73937852843095"><ele>227.0</ele><time>2026-03-28T15:02:07Z</time></trkpt><trkpt lat="45.58566663914824" lon="10.739243543964488"><ele>227.0</ele><time>2026-03-28T15:02:08Z</time></trkpt><trkpt lat="45.585631921459836" lon="10.739113283122473"><ele>227.0</ele><time>2026-03-28T15:02:09Z</time></trkpt><trkpt lat="45.58558183018716" lon="10.738963290644707"><ele>227.0</ele><time>2026-03-28T15:02:10Z</time></trkpt><trkpt lat="45.58553471028705" lon="10.738764206848808"><ele>227.0</ele><time>2026-03-28T15:02:11Z</time></trkpt><trkpt lat="45.58547709797031" lon="10.738549789868912"><ele>227.0</ele><time>2026-03-28T15:02:12Z</time></trkpt><trkpt lat="45.585419456527475" lon="10.738327595056752"><ele>226.5</ele><time>2026-03-28T15:02:13Z</time></trkpt><trkpt lat="45.58535485893935" lon="10.738123146915491"><ele>226.0</ele><time>2026-03-28T15:02:14Z</time></trkpt><trkpt lat="45.585315110838174" lon="10.737927118745564"><ele>225.5</ele><time>2026-03-28T15:02:15Z</time></trkpt><trkpt lat="45.58527981643957" lon="10.737748860884325"><ele>225.0</ele><time>2026-03-28T15:02:16Z</time></trkpt><trkpt lat="45.585246732231276" lon="10.73756668742187"><ele>221.25</ele><time>2026-03-28T15:02:17Z</time></trkpt><trkpt lat="45.58521978124072" lon="10.7373782727629"><ele>217.5</ele><time>2026-03-28T15:02:18Z</time></trkpt><trkpt lat="45.58521878367327" lon="10.73718740245147"><ele>213.75</ele><time>2026-03-28T15:02:19Z</time></trkpt><trkpt lat="45.585223321897345" lon="10.737001547437865"><ele>210.0</ele><time>2026-03-28T15:02:20Z</time></trkpt><trkpt lat="45.585233960763965" lon="10.736819766938138"><ele>210.75</ele><time>2026-03-28T15:02:21Z</time></trkpt><trkpt lat="45.58527505035261" lon="10.736642019181621"><ele>211.5</ele><time>2026-03-28T15:02:22Z</time></trkpt><trkpt lat="45.58531963823538" lon="10.736455410796795"><ele>212.25</ele><time>2026-03-28T15:02:23Z</time></trkpt><trkpt lat="45.58537316252642" lon="10.736250554185276"><ele>213.0</ele><time>2026-03-28T15:02:24Z</time></trkpt><trkpt lat="45.58543658649562" lon="10.736035116210333"><ele>213.0</ele><time>2026-03-28T15:02:25Z</time></trkpt><trkpt lat="45.58550151461785" lon="10.73582094982143"><ele>213.0</ele><time>2026-03-28T15:02:26Z</time></trkpt><trkpt lat="45.58556177380335" lon="10.73562127357018"><ele>213.0</ele><time>2026-03-28T15:02:27Z</time></trkpt><trkpt lat="45.585612884234074" lon="10.735432550871165"><ele>213.0</ele><time>2026-03-28T15:02:28Z</time></trkpt><trkpt lat="45.58565083675412" lon="10.735242411459724"><ele>213.0</ele><time>2026-03-28T15:02:29Z</time></trkpt><trkpt lat="45.58567668893007" lon="10.735060174989554"><ele>213.0</ele><time>2026-03-28T15:02:30Z</time></trkpt><trkpt lat="45.585697291460114" lon="10.734867710161216"><ele>213.0</ele><time>2026-03-28T15:02:31Z</time></trkpt><trkpt lat="45.58571148184928" lon="10.734667125778774"><ele>211.5</ele><time>2026-03-28T15:02:32Z</time></trkpt><trkpt lat="45.5857214239373" lon="10.734464470793176"><ele>210.0</ele><time>2026-03-28T15:02:33Z</time></trkpt><trkpt lat="45.585731881758974" lon="10.734249331561196"><ele>208.5</ele><time>2026-03-28T15:02:34Z</time></trkpt><trkpt lat="45.58574278517316" lon="10.734043617406366"><ele>207.0</ele><time>2026-03-28T15:02:35Z</time></trkpt><trkpt lat="45.58575707845074" lon="10.733856455659627"><ele>205.6</ele><time>2026-03-28T15:02:36Z</time></trkpt><trkpt lat="45.58576756396001" lon="10.73369286257596"><ele>204.2</ele><time>2026-03-28T15:02:37Z</time></trkpt><trkpt lat="45.58576991376014" lon="10.733533952759815"><ele>202.8</ele><time>2026-03-28T15:02:38Z</time></trkpt><trkpt lat="45.58574438647851" lon="10.733392692854824"><ele>201.4</ele><time>2026-03-28T15:02:39Z</time></trkpt><trkpt lat="45.58567745132375" lon="10.733272818627803"><ele>200.0</ele><time>2026-03-28T15:02:40Z</time></trkpt><trkpt lat="45.58558293579961" lon="10.733178701196449"><ele>199.75</ele><time>2026-03-28T15:02:41Z</time></trkpt><trkpt lat="45.58548535857455" lon="10.733097025388867"><ele>199.5</ele><time>2026-03-28T15:02:42Z</time></trkpt><trkpt lat="45.58537855843652" lon="10.733031939536623"><ele>199.25</ele><time>2026-03-28T15:02:43Z</time></trkpt><trkpt lat="45.585272730044494" lon="10.732954008956161"><ele>199.0</ele><time>2026-03-28T15:02:44Z</time></trkpt><trkpt lat="45.58517604843377" lon="10.73285394058718"><ele>195.5</ele><time>2026-03-28T15:02:45Z</time></trkpt><trkpt lat="45.585086323840684" lon="10.73272679605603"><ele>192.0</ele><time>2026-03-28T15:02:46Z</time></trkpt><trkpt lat="45.585012214877594" lon="10.732589553409639"><ele>188.5</ele><time>2026-03-28T15:02:47Z</time></trkpt><trkpt lat="45.584974193133135" lon="10.732422300168258"><ele>185.0</ele><time>2026-03-28T15:02:48Z</time></trkpt><trkpt lat="45.58492006852081" lon="10.73226746822748"><ele>185.0</ele><time>2026-03-28T15:02:49Z</time></trkpt><trkpt lat="45.58490124829382" lon="10.732111259654188"><ele>185.0</ele><time>2026-03-28T15:02:50Z</time></trkpt><trkpt lat="45.58489927832185" lon="10.731981214127984"><ele>185.0</ele><time>2026-03-28T15:02:51Z</time></trkpt><trkpt lat="45.58488869534955" lon="10.731886219742753"><ele>185.0</ele><time>2026-03-28T15:02:52Z</time></trkpt><trkpt lat="45.58483415513083" lon="10.731773510741018"><ele>185.0</ele><time>2026-03-28T15:02:54Z</time></trkpt><trkpt lat="45.58474936820487" lon="10.731806615176675"><ele>184.99999999999997</ele><time>2026-03-28T15:02:55Z</time></trkpt><trkpt lat="45.584695852583764" lon="10.731881177873854"><ele>185.0</ele><time>2026-03-28T15:02:56Z</time></trkpt><trkpt lat="45.584669700899624" lon="10.73197141010118"><ele>185.0</ele><time>2026-03-28T15:02:57Z</time></trkpt><trkpt lat="45.58466182283972" lon="10.732079841440855"><ele>185.0</ele><time>2026-03-28T15:02:58Z</time></trkpt><trkpt lat="45.584655807435546" lon="10.732187243805765"><ele>185.0</ele><time>2026-03-28T15:02:59Z</time></trkpt><trkpt lat="45.58463223324426" lon="10.732286623677448"><ele>184.99999999999997</ele><time>2026-03-28T15:03:00Z</time></trkpt><trkpt lat="45.58463909124357" lon="10.732391045520162"><ele>185.0</ele><time>2026-03-28T15:03:01Z</time></trkpt><trkpt lat="45.58463593858169" lon="10.732493580090836"><ele>185.0</ele><time>2026-03-28T15:03:02Z</time></trkpt><trkpt lat="45.58461313140747" lon="10.732588849917738"><ele>185.0</ele><time>2026-03-28T15:03:03Z</time></trkpt><trkpt lat="45.5845847781355" lon="10.7327423888037"><ele>185.0</ele><time>2026-03-28T15:03:05Z</time></trkpt><trkpt lat="45.584490175498054" lon="10.732725268959593"><ele>185.0</ele><time>2026-03-28T15:03:07Z</time></trkpt><trkpt lat="45.58445922102636" lon="10.7326282365321"><ele>185.0</ele><time>2026-03-28T15:03:08Z</time></trkpt><trkpt lat="45.584464367161225" lon="10.732492479096093"><ele>185.0</ele><time>2026-03-28T15:03:09Z</time></trkpt><trkpt lat="45.584485751255826" lon="10.732342259987801"><ele>178.0</ele><time>2026-03-28T15:03:10Z</time></trkpt><trkpt lat="45.584492017846614" lon="10.732188529516955"><ele>171.0</ele><time>2026-03-28T15:03:11Z</time></trkpt><trkpt lat="45.584489966712255" lon="10.732020043915966"><ele>164.0</ele><time>2026-03-28T15:03:12Z</time></trkpt><trkpt lat="45.584491301198256" lon="10.731800245794881"><ele>157.0</ele><time>2026-03-28T15:03:13Z</time></trkpt><trkpt lat="45.584495887813965" lon="10.7315644116644"><ele>157.0</ele><time>2026-03-28T15:03:14Z</time></trkpt><trkpt lat="45.58448946411272" lon="10.73134015885275"><ele>157.0</ele><time>2026-03-28T15:03:15Z</time></trkpt><trkpt lat="45.58446371071327" lon="10.731126498210466"><ele>157.0</ele><time>2026-03-28T15:03:16Z</time></trkpt><trkpt lat="45.58442553336687" lon="10.730944408908245"><ele>157.0</ele><time>2026-03-28T15:03:17Z</time></trkpt><trkpt lat="45.5843991946447" lon="10.730777532294288"><ele>157.0</ele><time>2026-03-28T15:03:18Z</time></trkpt><trkpt lat="45.584380278010265" lon="10.730620141726451"><ele>157.0</ele><time>2026-03-28T15:03:19Z</time></trkpt><trkpt lat="45.58436819348815" lon="10.730463922545182"><ele>157.0</ele><time>2026-03-28T15:03:20Z</time></trkpt><trkpt lat="45.584350572485896" lon="10.730297570009071"><ele>157.0</ele><time>2026-03-28T15:03:21Z</time></trkpt><trkpt lat="45.5843296115597" lon="10.730131180894084"><ele>156.6</ele><time>2026-03-28T15:03:22Z</time></trkpt><trkpt lat="45.584311374852966" lon="10.729975969203425"><ele>156.2</ele><time>2026-03-28T15:03:23Z</time></trkpt><trkpt lat="45.584293588787126" lon="10.729825377391347"><ele>155.8</ele><time>2026-03-28T15:03:24Z</time></trkpt><trkpt lat="45.58427669774573" lon="10.72967406453846"><ele>155.4</ele><time>2026-03-28T15:03:25Z</time></trkpt><trkpt lat="45.58425291997713" lon="10.72952784365984"><ele>155.0</ele><time>2026-03-28T15:03:26Z</time></trkpt><trkpt lat="45.58422994608637" lon="10.729368997187036"><ele>154.25</ele><time>2026-03-28T15:03:27Z</time></trkpt><trkpt lat="45.58420815979948" lon="10.72920957770727"><ele>153.5</ele><time>2026-03-28T15:03:28Z</time></trkpt><trkpt lat="45.58418951499498" lon="10.72903587529248"><ele>152.75</ele><time>2026-03-28T15:03:29Z</time></trkpt><trkpt lat="45.58415068975675" lon="10.72888104658708"><ele>152.0</ele><time>2026-03-28T15:03:30Z</time></trkpt><trkpt lat="45.584075744933564" lon="10.728741190882703"><ele>152.0</ele><time>2026-03-28T15:03:31Z</time></trkpt><trkpt lat="45.58398769010842" lon="10.72861049135349"><ele>152.0</ele><time>2026-03-28T15:03:32Z</time></trkpt><trkpt lat="45.58389146805041" lon="10.728494209009591"><ele>152.0</ele><time>2026-03-28T15:03:33Z</time></trkpt><trkpt lat="45.5837916725568" lon="10.728386993362534"><ele>152.0</ele><time>2026-03-28T15:03:34Z</time></trkpt><trkpt lat="45.583706503419016" lon="10.72826698456657"><ele>147.5</ele><time>2026-03-28T15:03:35Z</time></trkpt><trkpt lat="45.583644919836644" lon="10.728119493695681"><ele>143.0</ele><time>2026-03-28T15:03:36Z</time></trkpt><trkpt lat="45.58361889458628" lon="10.727965364947778"><ele>138.5</ele><time>2026-03-28T15:03:37Z</time></trkpt><trkpt lat="45.58358395372093" lon="10.727812435397828"><ele>134.0</ele><time>2026-03-28T15:03:38Z</time></trkpt><trkpt lat="45.58356975398675" lon="10.727655046782612"><ele>133.25</ele><time>2026-03-28T15:03:39Z</time></trkpt><trkpt lat="45.58355128947242" lon="10.727492434416218"><ele>132.5</ele><time>2026-03-28T15:03:40Z</time></trkpt><trkpt lat="45.5835300499042" lon="10.727325683609196"><ele>131.75</ele><time>2026-03-28T15:03:41Z</time></trkpt><trkpt lat="45.583513160382196" lon="10.727179712747422"><ele>131.0</ele><time>2026-03-28T15:03:42Z</time></trkpt><trkpt lat="45.58348817900668" lon="10.726995654136823"><ele>130.6</ele><time>2026-03-28T15:03:44Z</time></trkpt><trkpt lat="45.5834714280331" lon="10.726877938153043"><ele>130.2</ele><time>2026-03-28T15:03:45Z</time></trkpt><trkpt lat="45.583454061830004" lon="10.726737588419175"><ele>129.8</ele><time>2026-03-28T15:03:46Z</time></trkpt><trkpt lat="45.58343625114988" lon="10.726590727232269"><ele>129.4</ele><time>2026-03-28T15:03:47Z</time></trkpt><trkpt lat="45.58341918298602" lon="10.726447764159904"><ele>129.0</ele><time>2026-03-28T15:03:48Z</time></trkpt><trkpt lat="45.58339837133267" lon="10.726309568074438"><ele>129.0</ele><time>2026-03-28T15:03:49Z</time></trkpt><trkpt lat="45.58337566676173" lon="10.726183648278814"><ele>129.0</ele><time>2026-03-28T15:03:50Z</time></trkpt><trkpt lat="45.5833548106737" lon="10.726069956239977"><ele>129.0</ele><time>2026-03-28T15:03:51Z</time></trkpt><trkpt lat="45.58332224136258" lon="10.72591379848572"><ele>129.0</ele><time>2026-03-28T15:03:53Z</time></trkpt><trkpt lat="45.583246039658384" lon="10.72578903353172"><ele>129.0</ele><time>2026-03-28T15:03:55Z</time></trkpt><trkpt lat="45.58320127267771" lon="10.725720174093436"><ele>128.83333333333334</ele><time>2026-03-28T15:03:56Z</time></trkpt><trkpt lat="45.5831576717419" lon="10.725630184546235"><ele>128.66666666666666</ele><time>2026-03-28T15:03:57Z</time></trkpt><trkpt lat="45.58312031735475" lon="10.725557232631976"><ele>128.5</ele><time>2026-03-28T15:03:58Z</time></trkpt><trkpt lat="45.583148278042756" lon="10.725476036475985"><ele>128.33333333333331</ele><time>2026-03-28T15:04:00Z</time></trkpt><trkpt lat="45.58328103165455" lon="10.72547157079538"><ele>128.16666666666666</ele><time>2026-03-28T15:04:02Z</time></trkpt><trkpt lat="45.5833768353201" lon="10.72544932233825"><ele>128.0</ele><time>2026-03-28T15:04:03Z</time></trkpt><trkpt lat="45.58347841537167" lon="10.725425030469527"><ele>128.0</ele><time>2026-03-28T15:04:04Z</time></trkpt><trkpt lat="45.58354546705591" lon="10.725408995907665"><ele>128.0</ele><time>2026-03-28T15:04:05Z</time></trkpt><trkpt lat="45.583583343689924" lon="10.725241589380632"><ele>128.0</ele><time>2026-03-28T15:04:06Z</time></trkpt><trkpt lat="45.58361655132793" lon="10.725116992692808"><ele>128.0</ele><time>2026-03-28T15:04:07Z</time></trkpt><trkpt lat="45.583643794106074" lon="10.724954780417772"><ele>128.0</ele><time>2026-03-28T15:04:08Z</time></trkpt><trkpt lat="45.58367597396902" lon="10.724775458652577"><ele>128.5</ele><time>2026-03-28T15:04:09Z</time></trkpt><trkpt lat="45.583724081326224" lon="10.724597423861065"><ele>129.0</ele><time>2026-03-28T15:04:10Z</time></trkpt><trkpt lat="45.58378145317891" lon="10.724452082978576"><ele>129.5</ele><time>2026-03-28T15:04:11Z</time></trkpt><trkpt lat="45.58385657119267" lon="10.724363075395793"><ele>130.0</ele><time>2026-03-28T15:04:12Z</time></trkpt><trkpt lat="45.583920920727" lon="10.724240893890792"><ele>130.25</ele><time>2026-03-28T15:04:13Z</time></trkpt><trkpt lat="45.58401854230284" lon="10.724120016269687"><ele>130.5</ele><time>2026-03-28T15:04:14Z</time></trkpt><trkpt lat="45.58411610984999" lon="10.723966862890304"><ele>130.75</ele><time>2026-03-28T15:04:15Z</time></trkpt><trkpt lat="45.58422399456143" lon="10.723796167554326"><ele>131.0</ele><time>2026-03-28T15:04:16Z</time></trkpt><trkpt lat="45.58432815402233" lon="10.72365206822529"><ele>131.0</ele><time>2026-03-28T15:04:17Z</time></trkpt><trkpt lat="45.58442034706073" lon="10.723572844299555"><ele>131.0</ele><time>2026-03-28T15:04:18Z</time></trkpt><trkpt lat="45.58451172429582" lon="10.72355580832622"><ele>131.0</ele><time>2026-03-28T15:04:19Z</time></trkpt><trkpt lat="45.58458223304594" lon="10.723513425887198"><ele>131.0</ele><time>2026-03-28T15:04:20Z</time></trkpt><trkpt lat="45.584694336837046" lon="10.723585712612481"><ele>131.0</ele><time>2026-03-28T15:04:22Z</time></trkpt><trkpt lat="45.58475385800594" lon="10.723695529762058"><ele>134.6</ele><time>2026-03-28T15:04:23Z</time></trkpt><trkpt lat="45.58479888826387" lon="10.72382312320948"><ele>138.2</ele><time>2026-03-28T15:04:24Z</time></trkpt><trkpt lat="45.58486342970472" lon="10.723940402953986"><ele>141.8</ele><time>2026-03-28T15:04:25Z</time></trkpt><trkpt lat="45.584951063364024" lon="10.7240217132226"><ele>145.4</ele><time>2026-03-28T15:04:26Z</time></trkpt><trkpt lat="45.58504803697436" lon="10.724069408382046"><ele>149.0</ele><time>2026-03-28T15:04:27Z</time></trkpt><trkpt lat="45.58514415469464" lon="10.724075022008757"><ele>149.0</ele><time>2026-03-28T15:04:28Z</time></trkpt><trkpt lat="45.58524701840252" lon="10.72405123057867"><ele>149.0</ele><time>2026-03-28T15:04:29Z</time></trkpt><trkpt lat="45.58534179087148" lon="10.724077725460035"><ele>149.0</ele><time>2026-03-28T15:04:30Z</time></trkpt><trkpt lat="45.585414334237335" lon="10.724117294357468"><ele>149.0</ele><time>2026-03-28T15:04:31Z</time></trkpt><trkpt lat="45.58548903798623" lon="10.724186845722201"><ele>149.0</ele><time>2026-03-28T15:04:32Z</time></trkpt><trkpt lat="45.58557413475896" lon="10.72425138842467"><ele>150.0</ele><time>2026-03-28T15:04:33Z</time></trkpt><trkpt lat="45.58566544615878" lon="10.724298394750114"><ele>151.0</ele><time>2026-03-28T15:04:34Z</time></trkpt><trkpt lat="45.58572944568417" lon="10.724354843323255"><ele>152.0</ele><time>2026-03-28T15:04:35Z</time></trkpt><trkpt lat="45.58580008860057" lon="10.724388816378301"><ele>153.0</ele><time>2026-03-28T15:04:36Z</time></trkpt><trkpt lat="45.58588212089503" lon="10.724407063718262"><ele>154.0</ele><time>2026-03-28T15:04:37Z</time></trkpt><trkpt lat="45.585959970360356" lon="10.724463806499886"><ele>155.0</ele><time>2026-03-28T15:04:38Z</time></trkpt><trkpt lat="45.58601435215521" lon="10.724565613428439"><ele>155.0</ele><time>2026-03-28T15:04:39Z</time></trkpt><trkpt lat="45.58610537488195" lon="10.724654323475871"><ele>155.0</ele><time>2026-03-28T15:04:40Z</time></trkpt><trkpt lat="45.58619313417371" lon="10.724729732209271"><ele>155.0</ele><time>2026-03-28T15:04:41Z</time></trkpt><trkpt lat="45.58628700177563" lon="10.724770805870914"><ele>155.0</ele><time>2026-03-28T15:04:42Z</time></trkpt><trkpt lat="45.586391466948946" lon="10.72481317204206"><ele>155.0</ele><time>2026-03-28T15:04:43Z</time></trkpt><trkpt lat="45.586519107211736" lon="10.724867716137846"><ele>160.0</ele><time>2026-03-28T15:04:44Z</time></trkpt><trkpt lat="45.58663790036822" lon="10.724928123812342"><ele>165.0</ele><time>2026-03-28T15:04:45Z</time></trkpt><trkpt lat="45.586752022305916" lon="10.724990511001568"><ele>170.0</ele><time>2026-03-28T15:04:46Z</time></trkpt><trkpt lat="45.586854911915026" lon="10.725035692130277"><ele>175.0</ele><time>2026-03-28T15:04:47Z</time></trkpt><trkpt lat="45.58693431243399" lon="10.725080442594791"><ele>180.0</ele><time>2026-03-28T15:04:48Z</time></trkpt><trkpt lat="45.58700113437491" lon="10.725112492664529"><ele>184.8</ele><time>2026-03-28T15:04:49Z</time></trkpt><trkpt lat="45.587073455212284" lon="10.725113005920017"><ele>189.6</ele><time>2026-03-28T15:04:52Z</time></trkpt><trkpt lat="45.58708450509864" lon="10.724971168151376"><ele>194.39999999999998</ele><time>2026-03-28T15:04:53Z</time></trkpt><trkpt lat="45.5870984449036" lon="10.724843425515797"><ele>199.2</ele><time>2026-03-28T15:04:54Z</time></trkpt><trkpt lat="45.587123134477004" lon="10.724695787863478"><ele>204.0</ele><time>2026-03-28T15:04:55Z</time></trkpt><trkpt lat="45.58714678035071" lon="10.724536923019421"><ele>203.39999999999998</ele><time>2026-03-28T15:04:56Z</time></trkpt><trkpt lat="45.58717254430056" lon="10.724370954024028"><ele>202.8</ele><time>2026-03-28T15:04:57Z</time></trkpt><trkpt lat="45.587189353947196" lon="10.724222888361966"><ele>202.2</ele><time>2026-03-28T15:04:58Z</time></trkpt><trkpt lat="45.587205218425105" lon="10.724083231372486"><ele>201.60000000000002</ele><time>2026-03-28T15:04:59Z</time></trkpt><trkpt lat="45.5872206238812" lon="10.72393594635093"><ele>201.0</ele><time>2026-03-28T15:05:00Z</time></trkpt><trkpt lat="45.58723019582914" lon="10.723784125010097"><ele>201.0</ele><time>2026-03-28T15:05:01Z</time></trkpt><trkpt lat="45.587233610301304" lon="10.723609198776872"><ele>201.0</ele><time>2026-03-28T15:05:02Z</time></trkpt><trkpt lat="45.587239358201735" lon="10.723452540813904"><ele>201.0</ele><time>2026-03-28T15:05:03Z</time></trkpt><trkpt lat="45.58723050510111" lon="10.723279689154428"><ele>201.0</ele><time>2026-03-28T15:05:04Z</time></trkpt><trkpt lat="45.587225042540844" lon="10.723123030492307"><ele>200.8</ele><time>2026-03-28T15:05:05Z</time></trkpt><trkpt lat="45.58721024085436" lon="10.722967146508482"><ele>200.60000000000002</ele><time>2026-03-28T15:05:06Z</time></trkpt><trkpt lat="45.58720211859546" lon="10.72281780069342"><ele>200.4</ele><time>2026-03-28T15:05:07Z</time></trkpt><trkpt lat="45.58721206728014" lon="10.722683635707755"><ele>200.2</ele><time>2026-03-28T15:05:08Z</time></trkpt><trkpt lat="45.58717863678853" lon="10.722564312571036"><ele>200.0</ele><time>2026-03-28T15:05:09Z</time></trkpt><trkpt lat="45.58716259217593" lon="10.722472636578384"><ele>200.00000000000003</ele><time>2026-03-28T15:05:10Z</time></trkpt><trkpt lat="45.58713837257651" lon="10.722388916449399"><ele>200.0</ele><time>2026-03-28T15:05:11Z</time></trkpt><trkpt lat="45.58709830231823" lon="10.72224583154674"><ele>200.0</ele><time>2026-03-28T15:05:13Z</time></trkpt><trkpt lat="45.58703311459239" lon="10.7222146645986"><ele>200.0</ele><time>2026-03-28T15:05:14Z</time></trkpt><trkpt lat="45.58690149348023" lon="10.722252469172842"><ele>200.00000000000003</ele><time>2026-03-28T15:05:16Z</time></trkpt><trkpt lat="45.586830877491025" lon="10.72224203784234"><ele>200.0</ele><time>2026-03-28T15:05:17Z</time></trkpt><trkpt lat="45.58676221837609" lon="10.722247544124677"><ele>196.50000000000003</ele><time>2026-03-28T15:05:18Z</time></trkpt><trkpt lat="45.58669696874267" lon="10.722252259599786"><ele>193.0</ele><time>2026-03-28T15:05:19Z</time></trkpt><trkpt lat="45.586611383694965" lon="10.722253435611005"><ele>189.5</ele><time>2026-03-28T15:05:21Z</time></trkpt><trkpt lat="45.58658281377738" lon="10.722170941298298"><ele>186.0</ele><time>2026-03-28T15:05:24Z</time></trkpt><trkpt lat="45.58653714948019" lon="10.72210687237913"><ele>182.5</ele><time>2026-03-28T15:05:25Z</time></trkpt><trkpt lat="45.58651263186995" lon="10.721985041329201"><ele>179.0</ele><time>2026-03-28T15:05:26Z</time></trkpt><trkpt lat="45.586489261159954" lon="10.721839954450296"><ele>179.0</ele><time>2026-03-28T15:05:27Z</time></trkpt><trkpt lat="45.58647026394857" lon="10.721683375530068"><ele>179.0</ele><time>2026-03-28T15:05:28Z</time></trkpt><trkpt lat="45.58645670112148" lon="10.721513644861231"><ele>179.0</ele><time>2026-03-28T15:05:29Z</time></trkpt><trkpt lat="45.58643719237296" lon="10.721330262457494"><ele>179.0</ele><time>2026-03-28T15:05:30Z</time></trkpt><trkpt lat="45.58642102430161" lon="10.721140370094608"><ele>179.75</ele><time>2026-03-28T15:05:31Z</time></trkpt><trkpt lat="45.58641917162672" lon="10.720923387342758"><ele>180.5</ele><time>2026-03-28T15:05:32Z</time></trkpt><trkpt lat="45.58641217310641" lon="10.720728745194274"><ele>181.25</ele><time>2026-03-28T15:05:33Z</time></trkpt><trkpt lat="45.58640657251832" lon="10.720547581226391"><ele>182.0</ele><time>2026-03-28T15:05:34Z</time></trkpt><trkpt lat="45.58638763046544" lon="10.720365265681925"><ele>182.5</ele><time>2026-03-28T15:05:35Z</time></trkpt><trkpt lat="45.58639008568999" lon="10.720171556749325"><ele>183.0</ele><time>2026-03-28T15:05:36Z</time></trkpt><trkpt lat="45.586381528373266" lon="10.719995165867415"><ele>183.5</ele><time>2026-03-28T15:05:37Z</time></trkpt><trkpt lat="45.586373813671614" lon="10.719825831572551"><ele>184.0</ele><time>2026-03-28T15:05:38Z</time></trkpt><trkpt lat="45.586368151565686" lon="10.71965460513272"><ele>184.0</ele><time>2026-03-28T15:05:39Z</time></trkpt><trkpt lat="45.586366440053425" lon="10.719501271104109"><ele>184.0</ele><time>2026-03-28T15:05:40Z</time></trkpt><trkpt lat="45.58636221086729" lon="10.719383249522027"><ele>184.0</ele><time>2026-03-28T15:05:41Z</time></trkpt><trkpt lat="45.586336738992124" lon="10.719254420800015"><ele>184.0</ele><time>2026-03-28T15:05:43Z</time></trkpt><trkpt lat="45.58622212197049" lon="10.71924195192494"><ele>184.0</ele><time>2026-03-28T15:05:45Z</time></trkpt><trkpt lat="45.58613243198684" lon="10.719257334073218"><ele>181.79999999999998</ele><time>2026-03-28T15:05:46Z</time></trkpt><trkpt lat="45.58603902445481" lon="10.719270782042358"><ele>179.6</ele><time>2026-03-28T15:05:47Z</time></trkpt><trkpt lat="45.58593420076353" lon="10.719280772378147"><ele>177.4</ele><time>2026-03-28T15:05:48Z</time></trkpt><trkpt lat="45.585840852508746" lon="10.719271914112309"><ele>175.2</ele><time>2026-03-28T15:05:49Z</time></trkpt><trkpt lat="45.58574962255854" lon="10.71925404903012"><ele>173.0</ele><time>2026-03-28T15:05:50Z</time></trkpt><trkpt lat="45.585677335097486" lon="10.71919674134497"><ele>173.0</ele><time>2026-03-28T15:05:51Z</time></trkpt><trkpt lat="45.585613734268236" lon="10.719145180815936"><ele>173.0</ele><time>2026-03-28T15:05:52Z</time></trkpt><trkpt lat="45.58554967051303" lon="10.719082704457342"><ele>173.0</ele><time>2026-03-28T15:05:53Z</time></trkpt><trkpt lat="45.585482676518836" lon="10.718967582866465"><ele>173.0</ele><time>2026-03-28T15:05:55Z</time></trkpt><trkpt lat="45.58548660437386" lon="10.718871639258662"><ele>173.0</ele><time>2026-03-28T15:05:56Z</time></trkpt><trkpt lat="45.58545910267845" lon="10.718786460241303"><ele>173.0</ele><time>2026-03-28T15:05:57Z</time></trkpt><trkpt lat="45.585399555159476" lon="10.718723555746807"><ele>169.6</ele><time>2026-03-28T15:05:58Z</time></trkpt><trkpt lat="45.585308954169484" lon="10.718670368810042"><ele>166.20000000000002</ele><time>2026-03-28T15:06:00Z</time></trkpt><trkpt lat="45.585200977953335" lon="10.718722322189324"><ele>162.8</ele><time>2026-03-28T15:06:02Z</time></trkpt><trkpt lat="45.58512278715699" lon="10.718765046552486"><ele>159.4</ele><time>2026-03-28T15:06:03Z</time></trkpt><trkpt lat="45.58504507030349" lon="10.718768461899886"><ele>156.0</ele><time>2026-03-28T15:06:04Z</time></trkpt><trkpt lat="45.584961792687736" lon="10.718800497055454"><ele>156.0</ele><time>2026-03-28T15:06:05Z</time></trkpt><trkpt lat="45.58488406196064" lon="10.718744142114392"><ele>156.0</ele><time>2026-03-28T15:06:06Z</time></trkpt><trkpt lat="45.584793453702396" lon="10.718698427541938"><ele>156.0</ele><time>2026-03-28T15:06:07Z</time></trkpt><trkpt lat="45.58472199459655" lon="10.718615689185457"><ele>156.0</ele><time>2026-03-28T15:06:08Z</time></trkpt><trkpt lat="45.58465237677154" lon="10.718520454300213"><ele>156.0</ele><time>2026-03-28T15:06:09Z</time></trkpt><trkpt lat="45.584607662924704" lon="10.718387934444833"><ele>157.5</ele><time>2026-03-28T15:06:10Z</time></trkpt><trkpt lat="45.58454959608817" lon="10.71824874133905"><ele>159.0</ele><time>2026-03-28T15:06:11Z</time></trkpt><trkpt lat="45.584484965290336" lon="10.718122226201825"><ele>160.5</ele><time>2026-03-28T15:06:12Z</time></trkpt><trkpt lat="45.58442695062948" lon="10.717989826865367"><ele>162.0</ele><time>2026-03-28T15:06:13Z</time></trkpt><trkpt lat="45.58435202474052" lon="10.717845841597605"><ele>156.0</ele><time>2026-03-28T15:06:14Z</time></trkpt><trkpt lat="45.584280340580584" lon="10.71770149998596"><ele>150.0</ele><time>2026-03-28T15:06:15Z</time></trkpt><trkpt lat="45.58421341520572" lon="10.717552794565963"><ele>144.0</ele><time>2026-03-28T15:06:16Z</time></trkpt><trkpt lat="45.58415025737408" lon="10.717407411615483"><ele>138.0</ele><time>2026-03-28T15:06:17Z</time></trkpt><trkpt lat="45.58408920430283" lon="10.717267413713259"><ele>138.0</ele><time>2026-03-28T15:06:18Z</time></trkpt><trkpt lat="45.58403426654982" lon="10.717137587469058"><ele>138.0</ele><time>2026-03-28T15:06:19Z</time></trkpt><trkpt lat="45.58399635628364" lon="10.717025425298157"><ele>138.0</ele><time>2026-03-28T15:06:20Z</time></trkpt><trkpt lat="45.58395928991943" lon="10.716903831874314"><ele>138.0</ele><time>2026-03-28T15:06:21Z</time></trkpt><trkpt lat="45.58392065634113" lon="10.716794805667863"><ele>138.0</ele><time>2026-03-28T15:06:22Z</time></trkpt><trkpt lat="45.58387768995044" lon="10.71669288453988"><ele>137.66666666666666</ele><time>2026-03-28T15:06:23Z</time></trkpt><trkpt lat="45.5838305137213" lon="10.716617385075848"><ele>137.33333333333334</ele><time>2026-03-28T15:06:24Z</time></trkpt><trkpt lat="45.583776926059045" lon="10.716544606996525"><ele>137.0</ele><time>2026-03-28T15:06:25Z</time></trkpt><trkpt lat="45.58368202642419" lon="10.716543859011793"><ele>136.66666666666669</ele><time>2026-03-28T15:06:26Z</time></trkpt><trkpt lat="45.58359345713532" lon="10.716562697230357"><ele>136.33333333333334</ele><time>2026-03-28T15:06:27Z</time></trkpt><trkpt lat="45.583481162791635" lon="10.71658770471999"><ele>136.0</ele><time>2026-03-28T15:06:28Z</time></trkpt><trkpt lat="45.58335981436952" lon="10.716612671738378"><ele>130.75</ele><time>2026-03-28T15:06:29Z</time></trkpt><trkpt lat="45.58323665869526" lon="10.716626873117148"><ele>125.5</ele><time>2026-03-28T15:06:30Z</time></trkpt><trkpt lat="45.5831112410384" lon="10.716637631892462"><ele>120.25</ele><time>2026-03-28T15:06:31Z</time></trkpt><trkpt lat="45.58298560143484" lon="10.716615623496711"><ele>115.0</ele><time>2026-03-28T15:06:32Z</time></trkpt><trkpt lat="45.58286298000271" lon="10.71661267945574"><ele>112.75</ele><time>2026-03-28T15:06:33Z</time></trkpt><trkpt lat="45.582736218725714" lon="10.716608143746281"><ele>110.5</ele><time>2026-03-28T15:06:34Z</time></trkpt><trkpt lat="45.5826110947822" lon="10.716601278400306"><ele>108.25</ele><time>2026-03-28T15:06:35Z</time></trkpt><trkpt lat="45.58248809613685" lon="10.716583463788272"><ele>106.0</ele><time>2026-03-28T15:06:36Z</time></trkpt><trkpt lat="45.58236871622232" lon="10.716557350021494"><ele>106.0</ele><time>2026-03-28T15:06:37Z</time></trkpt><trkpt lat="45.582249271101254" lon="10.716525445700782"><ele>106.0</ele><time>2026-03-28T15:06:38Z</time></trkpt><trkpt lat="45.58213455743206" lon="10.716501303855292"><ele>106.0</ele><time>2026-03-28T15:06:39Z</time></trkpt><trkpt lat="45.582018301591766" lon="10.716498549980372"><ele>106.0</ele><time>2026-03-28T15:06:40Z</time></trkpt><trkpt lat="45.581903356644204" lon="10.716527665592503"><ele>105.19999999999999</ele><time>2026-03-28T15:06:41Z</time></trkpt><trkpt lat="45.58179648930703" lon="10.716562575797946"><ele>104.39999999999999</ele><time>2026-03-28T15:06:42Z</time></trkpt><trkpt lat="45.58169090678652" lon="10.716598593383498"><ele>103.6</ele><time>2026-03-28T15:06:43Z</time></trkpt><trkpt lat="45.581589758435776" lon="10.716629413172695"><ele>102.8</ele><time>2026-03-28T15:06:44Z</time></trkpt><trkpt lat="45.58149311899102" lon="10.716655821119877"><ele>102.0</ele><time>2026-03-28T15:06:45Z</time></trkpt><trkpt lat="45.58139402148217" lon="10.716664484127158"><ele>102.0</ele><time>2026-03-28T15:06:46Z</time></trkpt><trkpt lat="45.58130089844668" lon="10.716681934764166"><ele>102.0</ele><time>2026-03-28T15:06:47Z</time></trkpt><trkpt lat="45.58119412627651" lon="10.71665444127624"><ele>102.0</ele><time>2026-03-28T15:06:48Z</time></trkpt><trkpt lat="45.58110500416126" lon="10.71658833534369"><ele>102.0</ele><time>2026-03-28T15:06:49Z</time></trkpt><trkpt lat="45.58099356702562" lon="10.716565338754549"><ele>102.0</ele><time>2026-03-28T15:06:50Z</time></trkpt><trkpt lat="45.5808970120937" lon="10.716558935285295"><ele>100.83333333333333</ele><time>2026-03-28T15:06:51Z</time></trkpt><trkpt lat="45.580793023143585" lon="10.716583491850491"><ele>99.66666666666667</ele><time>2026-03-28T15:06:52Z</time></trkpt><trkpt lat="45.58068604086457" lon="10.716630913753432"><ele>98.5</ele><time>2026-03-28T15:06:53Z</time></trkpt><trkpt lat="45.58059741271403" lon="10.716669563528509"><ele>97.33333333333334</ele><time>2026-03-28T15:06:54Z</time></trkpt><trkpt lat="45.58053345799822" lon="10.716688203647383"><ele>96.16666666666667</ele><time>2026-03-28T15:06:55Z</time></trkpt><trkpt lat="45.58046768546501" lon="10.716687221524321"><ele>95.0</ele><time>2026-03-28T15:06:56Z</time></trkpt><trkpt lat="45.58038763300583" lon="10.716651223824488"><ele>94.6</ele><time>2026-03-28T15:06:58Z</time></trkpt><trkpt lat="45.580309286847104" lon="10.716634255997834"><ele>94.2</ele><time>2026-03-28T15:07:00Z</time></trkpt><trkpt lat="45.580316867905246" lon="10.716455837242833"><ele>93.80000000000001</ele><time>2026-03-28T15:07:01Z</time></trkpt><trkpt lat="45.580301107141324" lon="10.716331149663873"><ele>93.4</ele><time>2026-03-28T15:07:02Z</time></trkpt><trkpt lat="45.58030576963087" lon="10.71616632343669"><ele>93.0</ele><time>2026-03-28T15:07:03Z</time></trkpt><trkpt lat="45.58030383712333" lon="10.715978182946372"><ele>92.5</ele><time>2026-03-28T15:07:04Z</time></trkpt><trkpt lat="45.58029847446568" lon="10.71578065363758"><ele>92.0</ele><time>2026-03-28T15:07:05Z</time></trkpt><trkpt lat="45.580295225767316" lon="10.715601159684493"><ele>91.5</ele><time>2026-03-28T15:07:06Z</time></trkpt><trkpt lat="45.58028659825006" lon="10.715433087577072"><ele>91.0</ele><time>2026-03-28T15:07:07Z</time></trkpt><trkpt lat="45.580262534890934" lon="10.715263655407707"><ele>90.75</ele><time>2026-03-28T15:07:08Z</time></trkpt><trkpt lat="45.58023217866743" lon="10.715085345912849"><ele>90.5</ele><time>2026-03-28T15:07:09Z</time></trkpt><trkpt lat="45.580202123611876" lon="10.714905452144706"><ele>90.25</ele><time>2026-03-28T15:07:10Z</time></trkpt><trkpt lat="45.58016966202727" lon="10.714717833921839"><ele>90.0</ele><time>2026-03-28T15:07:11Z</time></trkpt><trkpt lat="45.58013850722123" lon="10.714519493178514"><ele>90.5</ele><time>2026-03-28T15:07:12Z</time></trkpt><trkpt lat="45.58010855118177" lon="10.714334845037811"><ele>91.0</ele><time>2026-03-28T15:07:13Z</time></trkpt><trkpt lat="45.58007850819918" lon="10.714159206419334"><ele>91.5</ele><time>2026-03-28T15:07:14Z</time></trkpt><trkpt lat="45.58004814947112" lon="10.713998233202684"><ele>92.0</ele><time>2026-03-28T15:07:15Z</time></trkpt><trkpt lat="45.58001723836123" lon="10.713849894204946"><ele>92.0</ele><time>2026-03-28T15:07:16Z</time></trkpt><trkpt lat="45.579994050853685" lon="10.713693729064559"><ele>92.0</ele><time>2026-03-28T15:07:17Z</time></trkpt><trkpt lat="45.579956091184634" lon="10.71350244858083"><ele>92.0</ele><time>2026-03-28T15:07:18Z</time></trkpt><trkpt lat="45.57991427955525" lon="10.713285533208175"><ele>92.0</ele><time>2026-03-28T15:07:19Z</time></trkpt><trkpt lat="45.579869949406564" lon="10.713055554871293"><ele>92.25</ele><time>2026-03-28T15:07:20Z</time></trkpt><trkpt lat="45.579816078718025" lon="10.712850493607869"><ele>92.5</ele><time>2026-03-28T15:07:21Z</time></trkpt><trkpt lat="45.57978669681906" lon="10.71265820935853"><ele>92.75</ele><time>2026-03-28T15:07:22Z</time></trkpt><trkpt lat="45.57975462554032" lon="10.712466071165897"><ele>93.0</ele><time>2026-03-28T15:07:23Z</time></trkpt><trkpt lat="45.57971898934022" lon="10.712274067643573"><ele>93.75</ele><time>2026-03-28T15:07:24Z</time></trkpt><trkpt lat="45.5796831159848" lon="10.7120834119674"><ele>94.5</ele><time>2026-03-28T15:07:25Z</time></trkpt><trkpt lat="45.57966564687779" lon="10.711869337331015"><ele>95.25</ele><time>2026-03-28T15:07:26Z</time></trkpt><trkpt lat="45.57963589751928" lon="10.71166712114171"><ele>96.0</ele><time>2026-03-28T15:07:27Z</time></trkpt><trkpt lat="45.579610706051064" lon="10.71147138458491"><ele>96.75</ele><time>2026-03-28T15:07:28Z</time></trkpt><trkpt lat="45.579590796315145" lon="10.711272969750029"><ele>97.5</ele><time>2026-03-28T15:07:29Z</time></trkpt><trkpt lat="45.579559062761646" lon="10.711083190812209"><ele>98.25</ele><time>2026-03-28T15:07:30Z</time></trkpt><trkpt lat="45.57953434409642" lon="10.710871547569864"><ele>99.0</ele><time>2026-03-28T15:07:31Z</time></trkpt><trkpt lat="45.579505747925865" lon="10.710667321336539"><ele>97.75</ele><time>2026-03-28T15:07:32Z</time></trkpt><trkpt lat="45.57946346953961" lon="10.710483807887998"><ele>96.5</ele><time>2026-03-28T15:07:33Z</time></trkpt><trkpt lat="45.57942251663068" lon="10.710305032640173"><ele>95.25</ele><time>2026-03-28T15:07:34Z</time></trkpt><trkpt lat="45.57937445315276" lon="10.710156597951736"><ele>94.0</ele><time>2026-03-28T15:07:35Z</time></trkpt><trkpt lat="45.579323481122515" lon="10.71003220209226"><ele>94.0</ele><time>2026-03-28T15:07:36Z</time></trkpt><trkpt lat="45.57927216676602" lon="10.709913216394193"><ele>94.0</ele><time>2026-03-28T15:07:37Z</time></trkpt><trkpt lat="45.579205227752965" lon="10.709801262300063"><ele>94.0</ele><time>2026-03-28T15:07:38Z</time></trkpt><trkpt lat="45.57915404553858" lon="10.709717754357857"><ele>94.0</ele><time>2026-03-28T15:07:39Z</time></trkpt><trkpt lat="45.579115426420444" lon="10.70964250610207"><ele>94.0</ele><time>2026-03-28T15:07:41Z</time></trkpt><trkpt lat="45.57920776392183" lon="10.709578145435305"><ele>94.0</ele><time>2026-03-28T15:07:43Z</time></trkpt><trkpt lat="45.57926611612583" lon="10.7096186803672"><ele>94.0</ele><time>2026-03-28T15:07:44Z</time></trkpt><trkpt lat="45.579340526934345" lon="10.709673362663553"><ele>94.0</ele><time>2026-03-28T15:07:45Z</time></trkpt><trkpt lat="45.57944426673249" lon="10.709710764249962"><ele>94.0</ele><time>2026-03-28T15:07:46Z</time></trkpt><trkpt lat="45.57956851034505" lon="10.709724177486882"><ele>94.0</ele><time>2026-03-28T15:07:47Z</time></trkpt><trkpt lat="45.579689109134485" lon="10.709738718712693"><ele>94.0</ele><time>2026-03-28T15:07:48Z</time></trkpt><trkpt lat="45.57982374024678" lon="10.709770952595662"><ele>96.0</ele><time>2026-03-28T15:07:49Z</time></trkpt><trkpt lat="45.57998306332192" lon="10.709787723035216"><ele>98.0</ele><time>2026-03-28T15:07:50Z</time></trkpt><trkpt lat="45.580141399157554" lon="10.709795877140776"><ele>100.0</ele><time>2026-03-28T15:07:51Z</time></trkpt><trkpt lat="45.58026429372609" lon="10.709800518899357"><ele>102.0</ele><time>2026-03-28T15:07:52Z</time></trkpt><trkpt lat="45.580382034893056" lon="10.709817794964824"><ele>103.75</ele><time>2026-03-28T15:07:53Z</time></trkpt><trkpt lat="45.580502622652844" lon="10.709858886622476"><ele>105.5</ele><time>2026-03-28T15:07:54Z</time></trkpt><trkpt lat="45.58062373112768" lon="10.70993731910513"><ele>107.25</ele><time>2026-03-28T15:07:55Z</time></trkpt><trkpt lat="45.580747344811094" lon="10.710032897697305"><ele>109.0</ele><time>2026-03-28T15:07:56Z</time></trkpt><trkpt lat="45.58088249828682" lon="10.710127425793658"><ele>109.0</ele><time>2026-03-28T15:07:57Z</time></trkpt><trkpt lat="45.58101912394887" lon="10.710188686344294"><ele>109.0</ele><time>2026-03-28T15:07:58Z</time></trkpt><trkpt lat="45.581138800962066" lon="10.710207635722387"><ele>109.0</ele><time>2026-03-28T15:07:59Z</time></trkpt><trkpt lat="45.58126882468132" lon="10.710238693769673"><ele>109.0</ele><time>2026-03-28T15:08:00Z</time></trkpt><trkpt lat="45.58140140942451" lon="10.710263790465502"><ele>112.33333333333334</ele><time>2026-03-28T15:08:01Z</time></trkpt><trkpt lat="45.58155141153165" lon="10.710264417434125"><ele>115.66666666666666</ele><time>2026-03-28T15:08:02Z</time></trkpt><trkpt lat="45.5817115480955" lon="10.710304296145305"><ele>119.0</ele><time>2026-03-28T15:08:03Z</time></trkpt><trkpt lat="45.58186514882956" lon="10.710344754553914"><ele>122.33333333333333</ele><time>2026-03-28T15:08:04Z</time></trkpt><trkpt lat="45.58201893314246" lon="10.7104101036585"><ele>125.66666666666666</ele><time>2026-03-28T15:08:05Z</time></trkpt><trkpt lat="45.582209938944715" lon="10.710442818899214"><ele>129.0</ele><time>2026-03-28T15:08:06Z</time></trkpt><trkpt lat="45.5824234999869" lon="10.710452927277576"><ele>129.0</ele><time>2026-03-28T15:08:07Z</time></trkpt><trkpt lat="45.582627476085435" lon="10.71044579785964"><ele>129.0</ele><time>2026-03-28T15:08:08Z</time></trkpt><trkpt lat="45.5828188379927" lon="10.71044898668467"><ele>129.0</ele><time>2026-03-28T15:08:09Z</time></trkpt><trkpt lat="45.58302067473697" lon="10.710417507046738"><ele>132.66666666666666</ele><time>2026-03-28T15:08:10Z</time></trkpt><trkpt lat="45.5832431527958" lon="10.71036377645774"><ele>136.33333333333331</ele><time>2026-03-28T15:08:11Z</time></trkpt><trkpt lat="45.583453463111596" lon="10.710309486075953"><ele>140.0</ele><time>2026-03-28T15:08:12Z</time></trkpt><trkpt lat="45.58366015150222" lon="10.710283115727764"><ele>143.33333333333331</ele><time>2026-03-28T15:08:13Z</time></trkpt><trkpt lat="45.58387258583731" lon="10.710300392420239"><ele>146.66666666666666</ele><time>2026-03-28T15:08:14Z</time></trkpt><trkpt lat="45.584090659027474" lon="10.71034743523269"><ele>150.0</ele><time>2026-03-28T15:08:15Z</time></trkpt><trkpt lat="45.58432753948545" lon="10.710422286659579"><ele>154.66666666666666</ele><time>2026-03-28T15:08:16Z</time></trkpt><trkpt lat="45.58456291316106" lon="10.710509066514831"><ele>159.33333333333331</ele><time>2026-03-28T15:08:17Z</time></trkpt><trkpt lat="45.58475410208047" lon="10.710580349078542"><ele>164.0</ele><time>2026-03-28T15:08:18Z</time></trkpt><trkpt lat="45.58492201361539" lon="10.710623822975231"><ele>164.0</ele><time>2026-03-28T15:08:19Z</time></trkpt><trkpt lat="45.585087660279854" lon="10.7106424834014"><ele>164.0</ele><time>2026-03-28T15:08:20Z</time></trkpt><trkpt lat="45.585258307714916" lon="10.71063320200103"><ele>164.0</ele><time>2026-03-28T15:08:21Z</time></trkpt><trkpt lat="45.58541668918299" lon="10.710597506733368"><ele>170.0</ele><time>2026-03-28T15:08:22Z</time></trkpt><trkpt lat="45.58557927451097" lon="10.71053021264948"><ele>176.0</ele><time>2026-03-28T15:08:23Z</time></trkpt><trkpt lat="45.585741970054485" lon="10.710448073674913"><ele>182.0</ele><time>2026-03-28T15:08:24Z</time></trkpt><trkpt lat="45.58591327678451" lon="10.710379012814888"><ele>182.0</ele><time>2026-03-28T15:08:25Z</time></trkpt><trkpt lat="45.58608903470204" lon="10.710354191800594"><ele>182.0</ele><time>2026-03-28T15:08:26Z</time></trkpt><trkpt lat="45.5862640662552" lon="10.710391396786862"><ele>182.0</ele><time>2026-03-28T15:08:27Z</time></trkpt><trkpt lat="45.58645372489843" lon="10.710432645067394"><ele>187.25</ele><time>2026-03-28T15:08:28Z</time></trkpt><trkpt lat="45.586607787066" lon="10.710424839753081"><ele>192.5</ele><time>2026-03-28T15:08:29Z</time></trkpt><trkpt lat="45.586746928463874" lon="10.710404048662392"><ele>197.75</ele><time>2026-03-28T15:08:30Z</time></trkpt><trkpt lat="45.5868731899168" lon="10.71033420526358"><ele>203.0</ele><time>2026-03-28T15:08:31Z</time></trkpt><trkpt lat="45.58701603384707" lon="10.710239344536499"><ele>203.4</ele><time>2026-03-28T15:08:32Z</time></trkpt><trkpt lat="45.58713761876863" lon="10.710167712745584"><ele>203.8</ele><time>2026-03-28T15:08:33Z</time></trkpt><trkpt lat="45.58722877581778" lon="10.710146220718512"><ele>204.2</ele><time>2026-03-28T15:08:34Z</time></trkpt><trkpt lat="45.587287173278895" lon="10.710238754167118"><ele>204.6</ele><time>2026-03-28T15:08:36Z</time></trkpt><trkpt lat="45.58722041849478" lon="10.710405229227698"><ele>205.0</ele><time>2026-03-28T15:08:38Z</time></trkpt><trkpt lat="45.58714248687537" lon="10.710463744381308"><ele>208.0</ele><time>2026-03-28T15:08:39Z</time></trkpt><trkpt lat="45.587066176663356" lon="10.710552428941007"><ele>211.0</ele><time>2026-03-28T15:08:40Z</time></trkpt><trkpt lat="45.58702781048889" lon="10.710642185253489"><ele>214.0</ele><time>2026-03-28T15:08:41Z</time></trkpt><trkpt lat="45.58705721743391" lon="10.710786235670957"><ele>217.0</ele><time>2026-03-28T15:08:43Z</time></trkpt><trkpt lat="45.58719613793614" lon="10.710788498852697"><ele>220.0</ele><time>2026-03-28T15:08:45Z</time></trkpt><trkpt lat="45.587305483657985" lon="10.710711063713255"><ele>220.0</ele><time>2026-03-28T15:08:46Z</time></trkpt><trkpt lat="45.58741830404149" lon="10.710588787679926"><ele>220.0</ele><time>2026-03-28T15:08:47Z</time></trkpt><trkpt lat="45.58755021534641" lon="10.710449483764364"><ele>220.0</ele><time>2026-03-28T15:08:48Z</time></trkpt><trkpt lat="45.58769285111558" lon="10.71032957038145"><ele>220.0</ele><time>2026-03-28T15:08:49Z</time></trkpt><trkpt lat="45.58781393079898" lon="10.710256819978259"><ele>220.0</ele><time>2026-03-28T15:08:50Z</time></trkpt><trkpt lat="45.587908886557386" lon="10.710281121775859"><ele>220.0</ele><time>2026-03-28T15:08:51Z</time></trkpt><trkpt lat="45.58797778611941" lon="10.71027465218456"><ele>220.0</ele><time>2026-03-28T15:08:52Z</time></trkpt><trkpt lat="45.58805393353712" lon="10.710312110995641"><ele>220.0</ele><time>2026-03-28T15:08:53Z</time></trkpt><trkpt lat="45.58812765110856" lon="10.710345243109348"><ele>222.49999999999997</ele><time>2026-03-28T15:08:54Z</time></trkpt><trkpt lat="45.58822470131051" lon="10.710418891010804"><ele>225.0</ele><time>2026-03-28T15:08:56Z</time></trkpt><trkpt lat="45.58830683133124" lon="10.710446002669336"><ele>227.5</ele><time>2026-03-28T15:08:58Z</time></trkpt><trkpt lat="45.588245604828806" lon="10.710420026379827"><ele>230.0</ele><time>2026-03-28T15:09:05Z</time></trkpt><trkpt lat="45.5881715538734" lon="10.710389086284993"><ele>232.49999999999997</ele><time>2026-03-28T15:09:07Z</time></trkpt><trkpt lat="45.588087568684855" lon="10.710351739027354"><ele>235.0</ele><time>2026-03-28T15:09:09Z</time></trkpt><trkpt lat="45.58868258199311" lon="10.709906177216366"><ele>235.0</ele><time>2026-03-28T15:09:10Z</time></trkpt><trkpt lat="45.58789782484795" lon="10.71025885749673"><ele>232.0</ele><time>2026-03-28T15:09:12Z</time></trkpt><trkpt lat="45.5877991413186" lon="10.710277001534157"><ele>229.0</ele><time>2026-03-28T15:09:13Z</time></trkpt><trkpt lat="45.58769993857571" lon="10.710314481678068"><ele>226.0</ele><time>2026-03-28T15:09:14Z</time></trkpt><trkpt lat="45.587602802638706" lon="10.710365685712208"><ele>223.0</ele><time>2026-03-28T15:09:15Z</time></trkpt><trkpt lat="45.587514429241914" lon="10.710453285253253"><ele>220.0</ele><time>2026-03-28T15:09:16Z</time></trkpt><trkpt lat="45.587437146268854" lon="10.71054466754128"><ele>219.99999999999997</ele><time>2026-03-28T15:09:17Z</time></trkpt><trkpt lat="45.587356241686365" lon="10.710634178287602"><ele>220.0</ele><time>2026-03-28T15:09:18Z</time></trkpt><trkpt lat="45.587270934310595" lon="10.710697789134095"><ele>220.0</ele><time>2026-03-28T15:09:19Z</time></trkpt><trkpt lat="45.58719349615627" lon="10.710744513622206"><ele>220.0</ele><time>2026-03-28T15:09:20Z</time></trkpt><trkpt lat="45.587125863310284" lon="10.710767485763402"><ele>219.99999999999997</ele><time>2026-03-28T15:09:21Z</time></trkpt><trkpt lat="45.58704031834326" lon="10.710796749437705"><ele>220.0</ele><time>2026-03-28T15:09:22Z</time></trkpt><trkpt lat="45.58693649656737" lon="10.710859790985952"><ele>217.8</ele><time>2026-03-28T15:09:23Z</time></trkpt><trkpt lat="45.58683790521258" lon="10.710958774410976"><ele>215.6</ele><time>2026-03-28T15:09:24Z</time></trkpt><trkpt lat="45.58673649530601" lon="10.711027068757666"><ele>213.39999999999998</ele><time>2026-03-28T15:09:25Z</time></trkpt><trkpt lat="45.586667163550004" lon="10.711121552757113"><ele>211.2</ele><time>2026-03-28T15:09:26Z</time></trkpt><trkpt lat="45.58659950368145" lon="10.711246380634798"><ele>209.0</ele><time>2026-03-28T15:09:28Z</time></trkpt><trkpt lat="45.58660925538336" lon="10.711360765697089"><ele>209.0</ele><time>2026-03-28T15:09:29Z</time></trkpt><trkpt lat="45.58667427426735" lon="10.711491293598273"><ele>209.0</ele><time>2026-03-28T15:09:30Z</time></trkpt><trkpt lat="45.586746410814364" lon="10.71162718383739"><ele>209.0</ele><time>2026-03-28T15:09:31Z</time></trkpt><trkpt lat="45.586835247700364" lon="10.711778304565485"><ele>209.0</ele><time>2026-03-28T15:09:32Z</time></trkpt><trkpt lat="45.58692095197973" lon="10.711938652970186"><ele>208.0</ele><time>2026-03-28T15:09:33Z</time></trkpt><trkpt lat="45.58700214379155" lon="10.712087417431729"><ele>207.0</ele><time>2026-03-28T15:09:34Z</time></trkpt><trkpt lat="45.587087682173895" lon="10.712225078710174"><ele>206.0</ele><time>2026-03-28T15:09:35Z</time></trkpt><trkpt lat="45.58714615519995" lon="10.712372292267936"><ele>205.0</ele><time>2026-03-28T15:09:36Z</time></trkpt><trkpt lat="45.5872053483724" lon="10.712512073207668"><ele>211.0</ele><time>2026-03-28T15:09:37Z</time></trkpt><trkpt lat="45.58725874211481" lon="10.712682532915395"><ele>217.0</ele><time>2026-03-28T15:09:38Z</time></trkpt><trkpt lat="45.58731758666485" lon="10.7128706984388"><ele>223.0</ele><time>2026-03-28T15:09:39Z</time></trkpt><trkpt lat="45.58739309324776" lon="10.713068193146427"><ele>229.0</ele><time>2026-03-28T15:09:40Z</time></trkpt><trkpt lat="45.58743583503026" lon="10.713289240456028"><ele>229.0</ele><time>2026-03-28T15:09:41Z</time></trkpt><trkpt lat="45.58748981035791" lon="10.713516687110468"><ele>229.0</ele><time>2026-03-28T15:09:42Z</time></trkpt><trkpt lat="45.58753496288499" lon="10.713722744807939"><ele>229.0</ele><time>2026-03-28T15:09:43Z</time></trkpt><trkpt lat="45.58756823326111" lon="10.713879449268095"><ele>229.0</ele><time>2026-03-28T15:09:44Z</time></trkpt><trkpt lat="45.58760328955719" lon="10.714011088353715"><ele>229.25</ele><time>2026-03-28T15:09:45Z</time></trkpt><trkpt lat="45.587665300482406" lon="10.714127455238259"><ele>229.5</ele><time>2026-03-28T15:09:46Z</time></trkpt><trkpt lat="45.587738885664315" lon="10.714264697980127"><ele>229.75</ele><time>2026-03-28T15:09:47Z</time></trkpt><trkpt lat="45.58780469123463" lon="10.714427541441626"><ele>230.0</ele><time>2026-03-28T15:09:48Z</time></trkpt><trkpt lat="45.587852110964874" lon="10.714597169991888"><ele>234.5</ele><time>2026-03-28T15:09:49Z</time></trkpt><trkpt lat="45.58791556984507" lon="10.714779497328209"><ele>239.0</ele><time>2026-03-28T15:09:50Z</time></trkpt><trkpt lat="45.588018520571836" lon="10.714911263191295"><ele>243.5</ele><time>2026-03-28T15:09:51Z</time></trkpt><trkpt lat="45.58812147936203" lon="10.715031559724526"><ele>248.0</ele><time>2026-03-28T15:09:52Z</time></trkpt><trkpt lat="45.58822357010984" lon="10.715139992759948"><ele>247.25</ele><time>2026-03-28T15:09:53Z</time></trkpt><trkpt lat="45.58828395100674" lon="10.71528376671154"><ele>246.5</ele><time>2026-03-28T15:09:54Z</time></trkpt><trkpt lat="45.58831487729264" lon="10.715439876514427"><ele>245.75</ele><time>2026-03-28T15:09:55Z</time></trkpt><trkpt lat="45.58836039798676" lon="10.715617663303256"><ele>245.0</ele><time>2026-03-28T15:09:56Z</time></trkpt><trkpt lat="45.5884264308642" lon="10.71577226038417"><ele>245.00000000000003</ele><time>2026-03-28T15:09:57Z</time></trkpt><trkpt lat="45.58846016595468" lon="10.715919025430734"><ele>245.0</ele><time>2026-03-28T15:09:58Z</time></trkpt><trkpt lat="45.58848912728994" lon="10.71604544596291"><ele>245.0</ele><time>2026-03-28T15:09:59Z</time></trkpt><trkpt lat="45.58851651110937" lon="10.716157452534564"><ele>245.0</ele><time>2026-03-28T15:10:00Z</time></trkpt><trkpt lat="45.58854537696582" lon="10.716262571980051"><ele>245.00000000000003</ele><time>2026-03-28T15:10:01Z</time></trkpt><trkpt lat="45.5885948146285" lon="10.716351551569543"><ele>245.0</ele><time>2026-03-28T15:10:02Z</time></trkpt><trkpt lat="45.58863826208453" lon="10.716448574888219"><ele>246.0</ele><time>2026-03-28T15:10:03Z</time></trkpt><trkpt lat="45.58870033792904" lon="10.716529818220074"><ele>247.0</ele><time>2026-03-28T15:10:04Z</time></trkpt><trkpt lat="45.58877736876057" lon="10.716611521994286"><ele>248.0</ele><time>2026-03-28T15:10:05Z</time></trkpt><trkpt lat="45.58884085529236" lon="10.71670098828981"><ele>249.0</ele><time>2026-03-28T15:10:06Z</time></trkpt><trkpt lat="45.58885536636687" lon="10.716839462441673"><ele>250.0</ele><time>2026-03-28T15:10:07Z</time></trkpt><trkpt lat="45.588903488180364" lon="10.716989418709238"><ele>250.0</ele><time>2026-03-28T15:10:08Z</time></trkpt><trkpt lat="45.58895401322399" lon="10.717175844394784"><ele>250.0</ele><time>2026-03-28T15:10:09Z</time></trkpt><trkpt lat="45.58900906211304" lon="10.717381721563651"><ele>250.0</ele><time>2026-03-28T15:10:10Z</time></trkpt><trkpt lat="45.58906641218046" lon="10.717540382826897"><ele>250.0</ele><time>2026-03-28T15:10:11Z</time></trkpt><trkpt lat="45.5891381230069" lon="10.7176188620895"><ele>250.0</ele><time>2026-03-28T15:10:12Z</time></trkpt><trkpt lat="45.58919076372634" lon="10.717679111106658"><ele>250.0</ele><time>2026-03-28T15:10:13Z</time></trkpt><trkpt lat="45.58934057149901" lon="10.717714272209955"><ele>250.0</ele><time>2026-03-28T15:10:15Z</time></trkpt><trkpt lat="45.589470450251355" lon="10.717719633937461"><ele>250.0</ele><time>2026-03-28T15:10:16Z</time></trkpt><trkpt lat="45.58961263250892" lon="10.717708416228096"><ele>253.0</ele><time>2026-03-28T15:10:17Z</time></trkpt><trkpt lat="45.58975679690004" lon="10.717661490247476"><ele>256.0</ele><time>2026-03-28T15:10:18Z</time></trkpt><trkpt lat="45.58988564607584" lon="10.717613011052382"><ele>259.0</ele><time>2026-03-28T15:10:19Z</time></trkpt><trkpt lat="45.5899975460159" lon="10.717581004424318"><ele>262.0</ele><time>2026-03-28T15:10:20Z</time></trkpt><trkpt lat="45.59008443165244" lon="10.717592346056504"><ele>262.0</ele><time>2026-03-28T15:10:21Z</time></trkpt><trkpt lat="45.590135632782136" lon="10.717687174194953"><ele>262.0</ele><time>2026-03-28T15:10:22Z</time></trkpt><trkpt lat="45.59019014233277" lon="10.7177735970068"><ele>262.0</ele><time>2026-03-28T15:10:23Z</time></trkpt><trkpt lat="45.59026063601318" lon="10.71790396221954"><ele>262.0</ele><time>2026-03-28T15:10:24Z</time></trkpt><trkpt lat="45.590338423257265" lon="10.71805377008676"><ele>262.0</ele><time>2026-03-28T15:10:25Z</time></trkpt><trkpt lat="45.590416011749795" lon="10.718209454935142"><ele>262.2</ele><time>2026-03-28T15:10:26Z</time></trkpt><trkpt lat="45.5904886438212" lon="10.71838290937519"><ele>262.4</ele><time>2026-03-28T15:10:27Z</time></trkpt><trkpt lat="45.59054275506202" lon="10.718528169288593"><ele>262.6</ele><time>2026-03-28T15:10:28Z</time></trkpt><trkpt lat="45.59057783407146" lon="10.71863964617992"><ele>262.8</ele><time>2026-03-28T15:10:29Z</time></trkpt><trkpt lat="45.590622131542254" lon="10.718726780351828"><ele>263.0</ele><time>2026-03-28T15:10:30Z</time></trkpt><trkpt lat="45.590701354749456" lon="10.718837707102214"><ele>262.6</ele><time>2026-03-28T15:10:32Z</time></trkpt><trkpt lat="45.590758616388555" lon="10.718944953154724"><ele>262.20000000000005</ele><time>2026-03-28T15:10:34Z</time></trkpt><trkpt lat="45.590847717358635" lon="10.718991367460475"><ele>261.8</ele><time>2026-03-28T15:10:36Z</time></trkpt><trkpt lat="45.5909173262783" lon="10.719058369857974"><ele>261.40000000000003</ele><time>2026-03-28T15:10:38Z</time></trkpt><trkpt lat="45.591020471052744" lon="10.719133101531103"><ele>261.0</ele><time>2026-03-28T15:10:40Z</time></trkpt><trkpt lat="45.591088163132675" lon="10.719192304512886"><ele>261.0</ele><time>2026-03-28T15:10:41Z</time></trkpt><trkpt lat="45.59115153950484" lon="10.719277007303548"><ele>261.0</ele><time>2026-03-28T15:10:42Z</time></trkpt><trkpt lat="45.59122103958877" lon="10.719371047523307"><ele>261.0</ele><time>2026-03-28T15:10:43Z</time></trkpt><trkpt lat="45.59129894799418" lon="10.71947496622036"><ele>261.0</ele><time>2026-03-28T15:10:44Z</time></trkpt><trkpt lat="45.5913800732814" lon="10.719564941618252"><ele>261.0</ele><time>2026-03-28T15:10:45Z</time></trkpt><trkpt lat="45.59144897705195" lon="10.719639815016157"><ele>261.0</ele><time>2026-03-28T15:10:46Z</time></trkpt><trkpt lat="45.59150975692762" lon="10.719682648193233"><ele>261.0</ele><time>2026-03-28T15:10:47Z</time></trkpt><trkpt lat="45.59156985726783" lon="10.719747361322353"><ele>261.0</ele><time>2026-03-28T15:10:48Z</time></trkpt><trkpt lat="45.59161132483324" lon="10.719838365052139"><ele>261.0</ele><time>2026-03-28T15:10:49Z</time></trkpt><trkpt lat="45.59165816276026" lon="10.719904831446433"><ele>261.0</ele><time>2026-03-28T15:10:50Z</time></trkpt><trkpt lat="45.59175764599963" lon="10.7200057633632"><ele>261.0</ele><time>2026-03-28T15:10:52Z</time></trkpt><trkpt lat="45.591838796150206" lon="10.720114187353685"><ele>261.0</ele><time>2026-03-28T15:10:54Z</time></trkpt><trkpt lat="45.59192481437609" lon="10.72023811451225"><ele>261.0</ele><time>2026-03-28T15:10:56Z</time></trkpt><trkpt lat="45.59197580684989" lon="10.720303270071105"><ele>261.0</ele><time>2026-03-28T15:10:57Z</time></trkpt><trkpt lat="45.59203114359126" lon="10.720351085085992"><ele>261.0</ele><time>2026-03-28T15:10:58Z</time></trkpt><trkpt lat="45.59212881682012" lon="10.720466235768397"><ele>261.0</ele><time>2026-03-28T15:11:00Z</time></trkpt><trkpt lat="45.59221782350451" lon="10.720573569227945"><ele>261.3333333333333</ele><time>2026-03-28T15:11:02Z</time></trkpt><trkpt lat="45.59227263088113" lon="10.720643013922974"><ele>261.6666666666667</ele><time>2026-03-28T15:11:03Z</time></trkpt><trkpt lat="45.592339452130346" lon="10.72069914939841"><ele>262.0</ele><time>2026-03-28T15:11:04Z</time></trkpt><trkpt lat="45.592401180216115" lon="10.72077920204838"><ele>262.33333333333337</ele><time>2026-03-28T15:11:05Z</time></trkpt><trkpt lat="45.59246869187363" lon="10.720826264596994"><ele>262.6666666666667</ele><time>2026-03-28T15:11:06Z</time></trkpt><trkpt lat="45.59256080132861" lon="10.720851313417091"><ele>263.0</ele><time>2026-03-28T15:11:07Z</time></trkpt><trkpt lat="45.59262899811282" lon="10.720907803095677"><ele>263.0</ele><time>2026-03-28T15:11:08Z</time></trkpt><trkpt lat="45.59268827047695" lon="10.720956800138639"><ele>263.0</ele><time>2026-03-28T15:11:09Z</time></trkpt><trkpt lat="45.592743992092686" lon="10.721009376166426"><ele>263.0</ele><time>2026-03-28T15:11:10Z</time></trkpt><trkpt lat="45.59280601595264" lon="10.721053984098269"><ele>263.0</ele><time>2026-03-28T15:11:11Z</time></trkpt><trkpt lat="45.59286232079258" lon="10.721131617126145"><ele>263.0</ele><time>2026-03-28T15:11:12Z</time></trkpt><trkpt lat="45.59291793369664" lon="10.72123009242862"><ele>263.0</ele><time>2026-03-28T15:11:13Z</time></trkpt><trkpt lat="45.59295925768595" lon="10.721348004305021"><ele>262.8</ele><time>2026-03-28T15:11:14Z</time></trkpt><trkpt lat="45.5930196786868" lon="10.72145416540137"><ele>262.6</ele><time>2026-03-28T15:11:15Z</time></trkpt><trkpt lat="45.59308096524732" lon="10.721565996473347"><ele>262.4</ele><time>2026-03-28T15:11:16Z</time></trkpt><trkpt lat="45.59314130957495" lon="10.721695602316588"><ele>262.2</ele><time>2026-03-28T15:11:17Z</time></trkpt><trkpt lat="45.593203555241544" lon="10.72180554040216"><ele>262.0</ele><time>2026-03-28T15:11:18Z</time></trkpt><trkpt lat="45.59326174869806" lon="10.721923258568582"><ele>262.0</ele><time>2026-03-28T15:11:19Z</time></trkpt><trkpt lat="45.59332432706367" lon="10.722035744457218"><ele>262.0</ele><time>2026-03-28T15:11:20Z</time></trkpt><trkpt lat="45.593363381459525" lon="10.722157240229647"><ele>262.0</ele><time>2026-03-28T15:11:21Z</time></trkpt><trkpt lat="45.5934170108055" lon="10.722254130120756"><ele>262.0</ele><time>2026-03-28T15:11:22Z</time></trkpt><trkpt lat="45.59347322640323" lon="10.722358521441635"><ele>262.0</ele><time>2026-03-28T15:11:23Z</time></trkpt><trkpt lat="45.593508791672896" lon="10.722452647007636"><ele>262.0</ele><time>2026-03-28T15:11:24Z</time></trkpt><trkpt lat="45.59355076732048" lon="10.722527693690076"><ele>262.0</ele><time>2026-03-28T15:11:25Z</time></trkpt><trkpt lat="45.5936316379799" lon="10.722650400333208"><ele>262.0</ele><time>2026-03-28T15:11:27Z</time></trkpt><trkpt lat="45.59367543265212" lon="10.7227319476487"><ele>262.0</ele><time>2026-03-28T15:11:28Z</time></trkpt><trkpt lat="45.593712667794165" lon="10.72280744982139"><ele>262.0</ele><time>2026-03-28T15:11:29Z</time></trkpt><trkpt lat="45.593755172205285" lon="10.722897273758113"><ele>262.0</ele><time>2026-03-28T15:11:30Z</time></trkpt><trkpt lat="45.593801854389646" lon="10.723005214051563"><ele>262.0</ele><time>2026-03-28T15:11:31Z</time></trkpt><trkpt lat="45.593865755450175" lon="10.723136871871048"><ele>261.0</ele><time>2026-03-28T15:11:32Z</time></trkpt><trkpt lat="45.593940946164956" lon="10.72327715249428"><ele>260.0</ele><time>2026-03-28T15:11:33Z</time></trkpt><trkpt lat="45.59401165152679" lon="10.723395915554985"><ele>259.0</ele><time>2026-03-28T15:11:34Z</time></trkpt><trkpt lat="45.59408921433166" lon="10.723503254313442"><ele>258.0</ele><time>2026-03-28T15:11:35Z</time></trkpt><trkpt lat="45.59417539101809" lon="10.723608683936702"><ele>258.0</ele><time>2026-03-28T15:11:36Z</time></trkpt><trkpt lat="45.5942369130387" lon="10.723673506842053"><ele>258.0</ele><time>2026-03-28T15:11:37Z</time></trkpt><trkpt lat="45.59429786191276" lon="10.723727967380757"><ele>258.0</ele><time>2026-03-28T15:11:38Z</time></trkpt><trkpt lat="45.59436916991921" lon="10.723770525149511"><ele>258.0</ele><time>2026-03-28T15:11:39Z</time></trkpt><trkpt lat="45.59445605737176" lon="10.723798175890234"><ele>258.0</ele><time>2026-03-28T15:11:40Z</time></trkpt><trkpt lat="45.594535490320276" lon="10.723818094327175"><ele>258.0</ele><time>2026-03-28T15:11:41Z</time></trkpt><trkpt lat="45.59460818761366" lon="10.723890843158092"><ele>258.2</ele><time>2026-03-28T15:11:43Z</time></trkpt><trkpt lat="45.59459988307281" lon="10.72401824998434"><ele>258.4</ele><time>2026-03-28T15:11:45Z</time></trkpt><trkpt lat="45.59459354262074" lon="10.724130547494463"><ele>258.59999999999997</ele><time>2026-03-28T15:11:46Z</time></trkpt><trkpt lat="45.59460935869534" lon="10.724272238887325"><ele>258.8</ele><time>2026-03-28T15:11:47Z</time></trkpt><trkpt lat="45.594641658534364" lon="10.724442104804242"><ele>259.0</ele><time>2026-03-28T15:11:48Z</time></trkpt><trkpt lat="45.5946636683535" lon="10.72462344074184"><ele>258.0</ele><time>2026-03-28T15:11:49Z</time></trkpt><trkpt lat="45.59468808700029" lon="10.724825197426552"><ele>257.0</ele><time>2026-03-28T15:11:50Z</time></trkpt><trkpt lat="45.594720456439234" lon="10.725007607630674"><ele>256.0</ele><time>2026-03-28T15:11:51Z</time></trkpt><trkpt lat="45.594752444114754" lon="10.725188406271247"><ele>255.0</ele><time>2026-03-28T15:11:52Z</time></trkpt><trkpt lat="45.59479203994585" lon="10.72537133838759"><ele>254.4</ele><time>2026-03-28T15:11:53Z</time></trkpt><trkpt lat="45.59482337967694" lon="10.72554884348939"><ele>253.8</ele><time>2026-03-28T15:11:54Z</time></trkpt><trkpt lat="45.594845279081994" lon="10.725691113783038"><ele>253.2</ele><time>2026-03-28T15:11:55Z</time></trkpt><trkpt lat="45.59486191843456" lon="10.725820880026696"><ele>252.6</ele><time>2026-03-28T15:11:56Z</time></trkpt><trkpt lat="45.59488048980409" lon="10.725957696729575"><ele>252.0</ele><time>2026-03-28T15:11:57Z</time></trkpt><trkpt lat="45.59491074668803" lon="10.726090071770853"><ele>251.8</ele><time>2026-03-28T15:11:58Z</time></trkpt><trkpt lat="45.59493505530648" lon="10.726242692652647"><ele>251.6</ele><time>2026-03-28T15:11:59Z</time></trkpt><trkpt lat="45.594972254670324" lon="10.726383423678167"><ele>251.40000000000003</ele><time>2026-03-28T15:12:00Z</time></trkpt><trkpt lat="45.5950130331136" lon="10.726507260428775"><ele>251.20000000000002</ele><time>2026-03-28T15:12:01Z</time></trkpt><trkpt lat="45.595044324360416" lon="10.726620790268726"><ele>251.0</ele><time>2026-03-28T15:12:02Z</time></trkpt><trkpt lat="45.59506317121039" lon="10.72672173541283"><ele>251.00000000000003</ele><time>2026-03-28T15:12:03Z</time></trkpt><trkpt lat="45.59507447986854" lon="10.726816239163126"><ele>251.0</ele><time>2026-03-28T15:12:04Z</time></trkpt><trkpt lat="45.59509477369087" lon="10.726913724143953"><ele>251.0</ele><time>2026-03-28T15:12:05Z</time></trkpt><trkpt lat="45.595122819821704" lon="10.727038404130818"><ele>251.0</ele><time>2026-03-28T15:12:06Z</time></trkpt><trkpt lat="45.59514696718971" lon="10.727159755141361"><ele>251.00000000000003</ele><time>2026-03-28T15:12:07Z</time></trkpt><trkpt lat="45.59516069820582" lon="10.727276018846178"><ele>251.0</ele><time>2026-03-28T15:12:08Z</time></trkpt><trkpt lat="45.59521426741753" lon="10.72736794293361"><ele>251.00000000000003</ele><time>2026-03-28T15:12:09Z</time></trkpt><trkpt lat="45.59526140600348" lon="10.727462296322658"><ele>251.0</ele><time>2026-03-28T15:12:10Z</time></trkpt><trkpt lat="45.59530862777261" lon="10.72754002449844"><ele>251.0</ele><time>2026-03-28T15:12:11Z</time></trkpt><trkpt lat="45.59534527835274" lon="10.727640795066264"><ele>251.0</ele><time>2026-03-28T15:12:12Z</time></trkpt><trkpt lat="45.59541302658966" lon="10.727734196200592"><ele>251.00000000000003</ele><time>2026-03-28T15:12:13Z</time></trkpt><trkpt lat="45.59545881775094" lon="10.72783716319801"><ele>251.0</ele><time>2026-03-28T15:12:14Z</time></trkpt><trkpt lat="45.59550763657966" lon="10.72793971276626"><ele>251.33333333333334</ele><time>2026-03-28T15:12:15Z</time></trkpt><trkpt lat="45.59550958401041" lon="10.728046655975282"><ele>251.66666666666669</ele><time>2026-03-28T15:12:16Z</time></trkpt><trkpt lat="45.59550415547987" lon="10.728174304081366"><ele>252.0</ele><time>2026-03-28T15:12:17Z</time></trkpt><trkpt lat="45.59547068819708" lon="10.728283032191866"><ele>252.33333333333331</ele><time>2026-03-28T15:12:18Z</time></trkpt><trkpt lat="45.595446699029814" lon="10.728416086702127"><ele>252.66666666666666</ele><time>2026-03-28T15:12:19Z</time></trkpt><trkpt lat="45.59542339347876" lon="10.728545349585334"><ele>253.0</ele><time>2026-03-28T15:12:20Z</time></trkpt><trkpt lat="45.595499823422166" lon="10.728704828012967"><ele>252.8</ele><time>2026-03-28T15:12:21Z</time></trkpt><trkpt lat="45.59551592050438" lon="10.728858542509665"><ele>252.60000000000002</ele><time>2026-03-28T15:12:22Z</time></trkpt><trkpt lat="45.59552455279666" lon="10.72901076710902"><ele>252.39999999999998</ele><time>2026-03-28T15:12:23Z</time></trkpt><trkpt lat="45.595523668906964" lon="10.729158748442588"><ele>252.2</ele><time>2026-03-28T15:12:24Z</time></trkpt><trkpt lat="45.595508411573554" lon="10.729305117453778"><ele>252.0</ele><time>2026-03-28T15:12:25Z</time></trkpt><trkpt lat="45.59548548208126" lon="10.72946195840924"><ele>252.0</ele><time>2026-03-28T15:12:26Z</time></trkpt><trkpt lat="45.59546871078734" lon="10.729617788548374"><ele>252.0</ele><time>2026-03-28T15:12:27Z</time></trkpt><trkpt lat="45.595461115932714" lon="10.729757621805824"><ele>252.0</ele><time>2026-03-28T15:12:28Z</time></trkpt><trkpt lat="45.59546018562688" lon="10.729882265748127"><ele>252.0</ele><time>2026-03-28T15:12:29Z</time></trkpt><trkpt lat="45.59546592945051" lon="10.730009438278175"><ele>252.0</ele><time>2026-03-28T15:12:30Z</time></trkpt><trkpt lat="45.595483090121334" lon="10.730127857032056"><ele>252.39999999999998</ele><time>2026-03-28T15:12:31Z</time></trkpt><trkpt lat="45.59547909981901" lon="10.730252510731956"><ele>252.79999999999998</ele><time>2026-03-28T15:12:32Z</time></trkpt><trkpt lat="45.595499621337915" lon="10.730350413006095"><ele>253.2</ele><time>2026-03-28T15:12:33Z</time></trkpt><trkpt lat="45.595504304516965" lon="10.730472152984126"><ele>253.6</ele><time>2026-03-28T15:12:35Z</time></trkpt><trkpt lat="45.59554950730332" lon="10.73054977629258"><ele>254.0</ele><time>2026-03-28T15:12:38Z</time></trkpt><trkpt lat="45.595710616882776" lon="10.730463094187336"><ele>254.0</ele><time>2026-03-28T15:12:44Z</time></trkpt><trkpt lat="45.59578113751581" lon="10.730430917369373"><ele>253.99999999999997</ele><time>2026-03-28T15:12:45Z</time></trkpt><trkpt lat="45.59589864614229" lon="10.7303585903093"><ele>253.99999999999997</ele><time>2026-03-28T15:12:47Z</time></trkpt><trkpt lat="45.5960218890981" lon="10.730343497074928"><ele>254.0</ele><time>2026-03-28T15:12:49Z</time></trkpt><trkpt lat="45.59611364414548" lon="10.730318756408803"><ele>254.0</ele><time>2026-03-28T15:12:50Z</time></trkpt><trkpt lat="45.59617701765977" lon="10.730329822006668"><ele>255.6</ele><time>2026-03-28T15:12:51Z</time></trkpt><trkpt lat="45.596307418105575" lon="10.730264704680442"><ele>257.2</ele><time>2026-03-28T15:12:53Z</time></trkpt><trkpt lat="45.59641153077979" lon="10.730224618091546"><ele>258.79999999999995</ele><time>2026-03-28T15:12:54Z</time></trkpt><trkpt lat="45.59649062207524" lon="10.730191895899678"><ele>260.4</ele><time>2026-03-28T15:12:55Z</time></trkpt><trkpt lat="45.59657734350515" lon="10.730153826850508"><ele>262.0</ele><time>2026-03-28T15:12:56Z</time></trkpt><trkpt lat="45.59667155661621" lon="10.730105216392767"><ele>262.0</ele><time>2026-03-28T15:12:57Z</time></trkpt><trkpt lat="45.59675783786979" lon="10.730057952787462"><ele>262.0</ele><time>2026-03-28T15:12:58Z</time></trkpt><trkpt lat="45.59684381360129" lon="10.73002441581105"><ele>262.0</ele><time>2026-03-28T15:12:59Z</time></trkpt><trkpt lat="45.596909384748464" lon="10.730013607832733"><ele>262.0</ele><time>2026-03-28T15:13:00Z</time></trkpt><trkpt lat="45.596979007756644" lon="10.73005748695922"><ele>262.0</ele><time>2026-03-28T15:13:01Z</time></trkpt><trkpt lat="45.59704834576707" lon="10.73006630962279"><ele>262.0</ele><time>2026-03-28T15:13:02Z</time></trkpt><trkpt lat="45.59711624473444" lon="10.730061087595802"><ele>263.3333333333333</ele><time>2026-03-28T15:13:03Z</time></trkpt><trkpt lat="45.59718968051026" lon="10.730018335707875"><ele>264.66666666666663</ele><time>2026-03-28T15:13:04Z</time></trkpt><trkpt lat="45.59726294248851" lon="10.72997768132758"><ele>266.0</ele><time>2026-03-28T15:13:05Z</time></trkpt><trkpt lat="45.59733015478418" lon="10.729961374425976"><ele>267.3333333333333</ele><time>2026-03-28T15:13:06Z</time></trkpt><trkpt lat="45.59738634626559" lon="10.729911946648366"><ele>268.6666666666667</ele><time>2026-03-28T15:13:07Z</time></trkpt><trkpt lat="45.5974907988419" lon="10.729865257423643"><ele>270.0</ele><time>2026-03-28T15:13:09Z</time></trkpt><trkpt lat="45.59757842992372" lon="10.729745322077694"><ele>270.0</ele><time>2026-03-28T15:13:11Z</time></trkpt><trkpt lat="45.59768362857903" lon="10.72971017932524"><ele>270.0</ele><time>2026-03-28T15:13:13Z</time></trkpt><trkpt lat="45.59775440660095" lon="10.729706266148087"><ele>270.0</ele><time>2026-03-28T15:13:14Z</time></trkpt><trkpt lat="45.59784459837401" lon="10.72969544513369"><ele>270.0</ele><time>2026-03-28T15:13:15Z</time></trkpt><trkpt lat="45.59792582514976" lon="10.729681496001804"><ele>270.0</ele><time>2026-03-28T15:13:16Z</time></trkpt><trkpt lat="45.597989491281666" lon="10.729670250484059"><ele>270.0</ele><time>2026-03-28T15:13:17Z</time></trkpt><trkpt lat="45.59811287464624" lon="10.72959899901054"><ele>270.5</ele><time>2026-03-28T15:13:19Z</time></trkpt><trkpt lat="45.598173578107584" lon="10.729538982982596"><ele>271.0</ele><time>2026-03-28T15:13:20Z</time></trkpt><trkpt lat="45.59824550914111" lon="10.72945370020361"><ele>271.5</ele><time>2026-03-28T15:13:21Z</time></trkpt><trkpt lat="45.59831979814457" lon="10.729416307587863"><ele>272.0</ele><time>2026-03-28T15:13:22Z</time></trkpt><trkpt lat="45.598391671486354" lon="10.72934428891576"><ele>272.5</ele><time>2026-03-28T15:13:23Z</time></trkpt><trkpt lat="45.59846163902184" lon="10.729286470486889"><ele>273.0</ele><time>2026-03-28T15:13:24Z</time></trkpt><trkpt lat="45.59852863404985" lon="10.729213845870765"><ele>273.4</ele><time>2026-03-28T15:13:25Z</time></trkpt><trkpt lat="45.598597331469605" lon="10.729097971736428"><ele>273.8</ele><time>2026-03-28T15:13:27Z</time></trkpt><trkpt lat="45.59861669690622" lon="10.728891928372562"><ele>274.2</ele><time>2026-03-28T15:13:29Z</time></trkpt><trkpt lat="45.59863465111801" lon="10.72876963866433"><ele>274.6</ele><time>2026-03-28T15:13:30Z</time></trkpt><trkpt lat="45.59863225572286" lon="10.72862240818369"><ele>275.0</ele><time>2026-03-28T15:13:31Z</time></trkpt><trkpt lat="45.59864344605566" lon="10.728484186052937"><ele>275.2</ele><time>2026-03-28T15:13:32Z</time></trkpt><trkpt lat="45.598654186121465" lon="10.728382589002111"><ele>275.4</ele><time>2026-03-28T15:13:33Z</time></trkpt><trkpt lat="45.59868185448922" lon="10.728268593842168"><ele>275.6</ele><time>2026-03-28T15:13:35Z</time></trkpt><trkpt lat="45.59879260134337" lon="10.728192706368606"><ele>275.8</ele><time>2026-03-28T15:13:37Z</time></trkpt><trkpt lat="45.59887090596847" lon="10.728113133459896"><ele>276.0</ele><time>2026-03-28T15:13:38Z</time></trkpt><trkpt lat="45.598950908539784" lon="10.728051509634655"><ele>277.3333333333333</ele><time>2026-03-28T15:13:39Z</time></trkpt><trkpt lat="45.59902066713858" lon="10.727996196458854"><ele>278.6666666666667</ele><time>2026-03-28T15:13:40Z</time></trkpt><trkpt lat="45.59910528008763" lon="10.727941085250823"><ele>280.0</ele><time>2026-03-28T15:13:41Z</time></trkpt><trkpt lat="45.59920051306196" lon="10.727906384937402"><ele>281.33333333333337</ele><time>2026-03-28T15:13:43Z</time></trkpt><trkpt lat="45.59912123024487" lon="10.727937749756723"><ele>282.6666666666667</ele><time>2026-03-28T15:20:20Z</time></trkpt><trkpt lat="45.59906621222498" lon="10.728004516386955"><ele>284.0</ele><time>2026-03-28T15:20:22Z</time></trkpt><trkpt lat="45.599049067637516" lon="10.728219048756936"><ele>284.0</ele><time>2026-03-28T15:20:25Z</time></trkpt><trkpt lat="45.59908340901914" lon="10.728337460148682"><ele>284.0</ele><time>2026-03-28T15:20:26Z</time></trkpt><trkpt lat="45.59913218230282" lon="10.728455500952665"><ele>284.0</ele><time>2026-03-28T15:20:27Z</time></trkpt><trkpt lat="45.59915862161989" lon="10.728595472048132"><ele>284.0</ele><time>2026-03-28T15:20:28Z</time></trkpt><trkpt lat="45.59920440208214" lon="10.728727115699224"><ele>284.0</ele><time>2026-03-28T15:20:29Z</time></trkpt><trkpt lat="45.59926384288163" lon="10.728848166075496"><ele>284.1666666666667</ele><time>2026-03-28T15:20:30Z</time></trkpt><trkpt lat="45.59929931821873" lon="10.728970978810988"><ele>284.33333333333337</ele><time>2026-03-28T15:20:31Z</time></trkpt><trkpt lat="45.59933977656124" lon="10.729073109614518"><ele>284.5</ele><time>2026-03-28T15:20:32Z</time></trkpt><trkpt lat="45.59936126579144" lon="10.729182665179458"><ele>284.6666666666667</ele><time>2026-03-28T15:20:33Z</time></trkpt><trkpt lat="45.599393526780055" lon="10.729283967694082"><ele>284.8333333333333</ele><time>2026-03-28T15:20:34Z</time></trkpt><trkpt lat="45.59942657728054" lon="10.729399400157225"><ele>285.0</ele><time>2026-03-28T15:20:35Z</time></trkpt><trkpt lat="45.59945174448896" lon="10.729525080959188"><ele>285.2</ele><time>2026-03-28T15:20:36Z</time></trkpt><trkpt lat="45.59948068614417" lon="10.729651337872527"><ele>285.4</ele><time>2026-03-28T15:20:37Z</time></trkpt><trkpt lat="45.59950228644982" lon="10.729739868942596"><ele>285.6</ele><time>2026-03-28T15:20:38Z</time></trkpt><trkpt lat="45.599598873539136" lon="10.729835080756775"><ele>285.8</ele><time>2026-03-28T15:20:41Z</time></trkpt><trkpt lat="45.599710443763605" lon="10.729756435339107"><ele>286.0</ele><time>2026-03-28T15:20:42Z</time></trkpt><trkpt lat="45.5998035196883" lon="10.729745921602438"><ele>287.5</ele><time>2026-03-28T15:20:43Z</time></trkpt><trkpt lat="45.5998762393846" lon="10.729765523491388"><ele>289.0</ele><time>2026-03-28T15:20:44Z</time></trkpt><trkpt lat="45.60001240804971" lon="10.729691412835477"><ele>290.5</ele><time>2026-03-28T15:20:46Z</time></trkpt><trkpt lat="45.60012070611788" lon="10.72962019003241"><ele>292.0</ele><time>2026-03-28T15:20:47Z</time></trkpt><trkpt lat="45.60025986386318" lon="10.72951511610669"><ele>293.66666666666663</ele><time>2026-03-28T15:20:48Z</time></trkpt><trkpt lat="45.60041942022989" lon="10.72941504486847"><ele>295.3333333333333</ele><time>2026-03-28T15:20:49Z</time></trkpt><trkpt lat="45.600597427213636" lon="10.729317255869534"><ele>297.0</ele><time>2026-03-28T15:20:50Z</time></trkpt><trkpt lat="45.60079462065382" lon="10.729212311035635"><ele>297.0</ele><time>2026-03-28T15:20:51Z</time></trkpt><trkpt lat="45.60098188016255" lon="10.729092529473517"><ele>297.0</ele><time>2026-03-28T15:20:52Z</time></trkpt><trkpt lat="45.60114669034067" lon="10.728952753860357"><ele>297.0</ele><time>2026-03-28T15:20:53Z</time></trkpt><trkpt lat="45.601292221269524" lon="10.728796248805219"><ele>298.75</ele><time>2026-03-28T15:20:54Z</time></trkpt><trkpt lat="45.601390224938335" lon="10.728657727664276"><ele>300.5</ele><time>2026-03-28T15:20:55Z</time></trkpt><trkpt lat="45.60148731800625" lon="10.728536588395865"><ele>302.25</ele><time>2026-03-28T15:20:56Z</time></trkpt><trkpt lat="45.601591288496955" lon="10.728458582418883"><ele>304.0</ele><time>2026-03-28T15:20:57Z</time></trkpt><trkpt lat="45.60172041494347" lon="10.728416696888889"><ele>304.0</ele><time>2026-03-28T15:20:58Z</time></trkpt><trkpt lat="45.60186891489997" lon="10.72839138437344"><ele>304.0</ele><time>2026-03-28T15:20:59Z</time></trkpt><trkpt lat="45.60203320627866" lon="10.728349823420478"><ele>304.0</ele><time>2026-03-28T15:21:00Z</time></trkpt><trkpt lat="45.60220285873411" lon="10.728278025937696"><ele>306.0</ele><time>2026-03-28T15:21:01Z</time></trkpt><trkpt lat="45.60237276662782" lon="10.728184254349642"><ele>308.0</ele><time>2026-03-28T15:21:02Z</time></trkpt><trkpt lat="45.60254617555576" lon="10.728092897837064"><ele>310.0</ele><time>2026-03-28T15:21:03Z</time></trkpt><trkpt lat="45.602710798821725" lon="10.72800439280034"><ele>311.66666666666663</ele><time>2026-03-28T15:21:04Z</time></trkpt><trkpt lat="45.60286358807084" lon="10.727921127088793"><ele>313.3333333333333</ele><time>2026-03-28T15:21:05Z</time></trkpt><trkpt lat="45.60301768655543" lon="10.727838184560076"><ele>315.0</ele><time>2026-03-28T15:21:06Z</time></trkpt><trkpt lat="45.603167128192695" lon="10.727757134531187"><ele>313.0</ele><time>2026-03-28T15:21:07Z</time></trkpt><trkpt lat="45.60331683497132" lon="10.72767389217289"><ele>311.0</ele><time>2026-03-28T15:21:08Z</time></trkpt><trkpt lat="45.60345752391658" lon="10.727600706444205"><ele>309.0</ele><time>2026-03-28T15:21:09Z</time></trkpt><trkpt lat="45.60359460351114" lon="10.72754231596015"><ele>310.25</ele><time>2026-03-28T15:21:10Z</time></trkpt><trkpt lat="45.60373564007992" lon="10.727500712992045"><ele>311.5</ele><time>2026-03-28T15:21:11Z</time></trkpt><trkpt lat="45.60388061849144" lon="10.72746240083996"><ele>312.75</ele><time>2026-03-28T15:21:12Z</time></trkpt><trkpt lat="45.604025641024336" lon="10.727421984808016"><ele>314.0</ele><time>2026-03-28T15:21:13Z</time></trkpt><trkpt lat="45.604179189976314" lon="10.727374331043483"><ele>314.0</ele><time>2026-03-28T15:21:14Z</time></trkpt><trkpt lat="45.604288368951146" lon="10.727333617203403"><ele>314.0</ele><time>2026-03-28T15:21:16Z</time></trkpt><trkpt lat="45.604352861253744" lon="10.727297907012805"><ele>314.0</ele><time>2026-03-28T15:21:17Z</time></trkpt><trkpt lat="45.604563453429144" lon="10.72725265857858"><ele>314.0</ele><time>2026-03-28T15:21:18Z</time></trkpt><trkpt lat="45.604719344852064" lon="10.727255055686662"><ele>314.0</ele><time>2026-03-28T15:21:19Z</time></trkpt><trkpt lat="45.604851621106114" lon="10.727267223631026"><ele>314.0</ele><time>2026-03-28T15:21:20Z</time></trkpt><trkpt lat="45.60502202541447" lon="10.727288476799078"><ele>314.0</ele><time>2026-03-28T15:21:21Z</time></trkpt><trkpt lat="45.60518140458026" lon="10.727299233508205"><ele>313.75</ele><time>2026-03-28T15:21:22Z</time></trkpt><trkpt lat="45.605336149331855" lon="10.727317205357624"><ele>313.5</ele><time>2026-03-28T15:21:23Z</time></trkpt><trkpt lat="45.60547943797119" lon="10.727334511954494"><ele>313.25</ele><time>2026-03-28T15:21:24Z</time></trkpt><trkpt lat="45.605612434307865" lon="10.72734980964911"><ele>313.0</ele><time>2026-03-28T15:21:25Z</time></trkpt><trkpt lat="45.60573027612209" lon="10.727344462853333"><ele>313.0</ele><time>2026-03-28T15:21:26Z</time></trkpt><trkpt lat="45.605867515821345" lon="10.72731537124428"><ele>313.0</ele><time>2026-03-28T15:21:27Z</time></trkpt><trkpt lat="45.605996259834846" lon="10.72726956170138"><ele>313.0</ele><time>2026-03-28T15:21:28Z</time></trkpt><trkpt lat="45.60611215538866" lon="10.727204283229828"><ele>313.0</ele><time>2026-03-28T15:21:29Z</time></trkpt><trkpt lat="45.6062211982162" lon="10.727118849742808"><ele>313.6</ele><time>2026-03-28T15:21:30Z</time></trkpt><trkpt lat="45.606332949002415" lon="10.727025802413182"><ele>314.20000000000005</ele><time>2026-03-28T15:21:31Z</time></trkpt><trkpt lat="45.60643873279664" lon="10.726938604563022"><ele>314.8</ele><time>2026-03-28T15:21:32Z</time></trkpt><trkpt lat="45.60652706075694" lon="10.72687494915775"><ele>315.40000000000003</ele><time>2026-03-28T15:21:33Z</time></trkpt><trkpt lat="45.6065937006533" lon="10.726865632616093"><ele>316.0</ele><time>2026-03-28T15:21:35Z</time></trkpt><trkpt lat="45.606630778076145" lon="10.72696026093317"><ele>316.0</ele><time>2026-03-28T15:21:38Z</time></trkpt><trkpt lat="45.606623424867095" lon="10.727059078038687"><ele>316.0</ele><time>2026-03-28T15:21:39Z</time></trkpt><trkpt lat="45.60659606716101" lon="10.72721285404313"><ele>316.0</ele><time>2026-03-28T15:21:40Z</time></trkpt><trkpt lat="45.60656105772414" lon="10.727362894531797"><ele>316.0</ele><time>2026-03-28T15:21:41Z</time></trkpt><trkpt lat="45.60652496650076" lon="10.727525681290558"><ele>316.0</ele><time>2026-03-28T15:21:42Z</time></trkpt><trkpt lat="45.60648390401616" lon="10.727697924781802"><ele>314.8</ele><time>2026-03-28T15:21:43Z</time></trkpt><trkpt lat="45.60643144279214" lon="10.727858556589478"><ele>313.6</ele><time>2026-03-28T15:21:44Z</time></trkpt><trkpt lat="45.60638915631289" lon="10.728001780051489"><ele>312.4</ele><time>2026-03-28T15:21:45Z</time></trkpt><trkpt lat="45.60635299008305" lon="10.728129853575329"><ele>311.2</ele><time>2026-03-28T15:21:46Z</time></trkpt><trkpt lat="45.60633902241335" lon="10.728258183696383"><ele>310.0</ele><time>2026-03-28T15:21:47Z</time></trkpt><trkpt lat="45.60633542849186" lon="10.728392198679243"><ele>310.0</ele><time>2026-03-28T15:21:48Z</time></trkpt><trkpt lat="45.606406519427615" lon="10.728556662225051"><ele>310.0</ele><time>2026-03-28T15:21:49Z</time></trkpt><trkpt lat="45.60648233846411" lon="10.728727181123901"><ele>310.0</ele><time>2026-03-28T15:21:50Z</time></trkpt><trkpt lat="45.606558994956615" lon="10.728901898242722"><ele>310.0</ele><time>2026-03-28T15:21:51Z</time></trkpt><trkpt lat="45.60663844074859" lon="10.729114206183125"><ele>309.5</ele><time>2026-03-28T15:21:52Z</time></trkpt><trkpt lat="45.60670393487633" lon="10.729310767106043"><ele>309.0</ele><time>2026-03-28T15:21:53Z</time></trkpt><trkpt lat="45.60674900447975" lon="10.729511323777789"><ele>308.5</ele><time>2026-03-28T15:21:54Z</time></trkpt><trkpt lat="45.60675427617119" lon="10.729708111893661"><ele>308.0</ele><time>2026-03-28T15:21:55Z</time></trkpt><trkpt lat="45.60675294092229" lon="10.729965668654696"><ele>304.6666666666667</ele><time>2026-03-28T15:21:56Z</time></trkpt><trkpt lat="45.60674379394745" lon="10.730245545104003"><ele>301.3333333333333</ele><time>2026-03-28T15:21:57Z</time></trkpt><trkpt lat="45.606744399338325" lon="10.73053910620342"><ele>298.0</ele><time>2026-03-28T15:21:58Z</time></trkpt><trkpt lat="45.6067529458197" lon="10.730821329216456"><ele>297.25</ele><time>2026-03-28T15:21:59Z</time></trkpt><trkpt lat="45.60675897092892" lon="10.731065578768597"><ele>296.5</ele><time>2026-03-28T15:22:00Z</time></trkpt><trkpt lat="45.60676543539546" lon="10.731250520565467"><ele>295.75</ele><time>2026-03-28T15:22:01Z</time></trkpt><trkpt lat="45.6067664436146" lon="10.731414642057631"><ele>295.0</ele><time>2026-03-28T15:22:02Z</time></trkpt><trkpt lat="45.60677136032878" lon="10.731572593944641"><ele>295.0</ele><time>2026-03-28T15:22:03Z</time></trkpt><trkpt lat="45.60677168505833" lon="10.731715680945404"><ele>295.0</ele><time>2026-03-28T15:22:04Z</time></trkpt><trkpt lat="45.60676521109568" lon="10.731863748991458"><ele>295.0</ele><time>2026-03-28T15:22:05Z</time></trkpt><trkpt lat="45.60675721058687" lon="10.73202041410918"><ele>295.0</ele><time>2026-03-28T15:22:06Z</time></trkpt><trkpt lat="45.60674662306872" lon="10.732191084275826"><ele>295.0</ele><time>2026-03-28T15:22:07Z</time></trkpt><trkpt lat="45.60672152936441" lon="10.732351305592276"><ele>295.0</ele><time>2026-03-28T15:22:08Z</time></trkpt><trkpt lat="45.60668029497816" lon="10.732496443534844"><ele>295.0</ele><time>2026-03-28T15:22:09Z</time></trkpt><trkpt lat="45.60662710156528" lon="10.732639251618428"><ele>295.0</ele><time>2026-03-28T15:22:10Z</time></trkpt><trkpt lat="45.60654270668727" lon="10.732775040266265"><ele>295.0</ele><time>2026-03-28T15:22:11Z</time></trkpt><trkpt lat="45.60645772932466" lon="10.732890444363948"><ele>296.5</ele><time>2026-03-28T15:22:12Z</time></trkpt><trkpt lat="45.60639544083466" lon="10.733072507954143"><ele>298.0</ele><time>2026-03-28T15:22:13Z</time></trkpt><trkpt lat="45.60633217433284" lon="10.73322772730082"><ele>299.5</ele><time>2026-03-28T15:22:14Z</time></trkpt><trkpt lat="45.606251561511364" lon="10.733338382449025"><ele>301.0</ele><time>2026-03-28T15:22:15Z</time></trkpt><trkpt lat="45.60617175786611" lon="10.733459528490567"><ele>300.0</ele><time>2026-03-28T15:22:16Z</time></trkpt><trkpt lat="45.60608796825312" lon="10.733603215881347"><ele>299.0</ele><time>2026-03-28T15:22:17Z</time></trkpt><trkpt lat="45.60598445968352" lon="10.73376127316779"><ele>298.0</ele><time>2026-03-28T15:22:18Z</time></trkpt><trkpt lat="45.60597375539018" lon="10.733868282247052"><ele>297.0</ele><time>2026-03-28T15:22:19Z</time></trkpt><trkpt lat="45.60592782968339" lon="10.733983358424618"><ele>297.0</ele><time>2026-03-28T15:22:20Z</time></trkpt><trkpt lat="45.605859366478576" lon="10.734101255672654"><ele>297.0</ele><time>2026-03-28T15:22:21Z</time></trkpt><trkpt lat="45.60579290160213" lon="10.734185259230795"><ele>297.0</ele><time>2026-03-28T15:22:22Z</time></trkpt><trkpt lat="45.6057186830883" lon="10.73427330144033"><ele>297.0</ele><time>2026-03-28T15:22:24Z</time></trkpt><trkpt lat="45.605792993837134" lon="10.734400017065669"><ele>297.0</ele><time>2026-03-28T15:22:31Z</time></trkpt><trkpt lat="45.60586999220187" lon="10.734427549554459"><ele>297.0</ele><time>2026-03-28T15:22:32Z</time></trkpt><trkpt lat="45.60593171277638" lon="10.734470108979972"><ele>297.0</ele><time>2026-03-28T15:22:33Z</time></trkpt><trkpt lat="45.605996643798036" lon="10.734501073644754"><ele>297.0</ele><time>2026-03-28T15:22:34Z</time></trkpt><trkpt lat="45.60606458363323" lon="10.73456118043752"><ele>297.0</ele><time>2026-03-28T15:22:36Z</time></trkpt><trkpt lat="45.60595593440642" lon="10.734104302045953"><ele>297.0</ele><time>2026-03-28T15:22:38Z</time></trkpt><trkpt lat="45.60600481054589" lon="10.734011589177811"><ele>297.0</ele><time>2026-03-28T15:22:39Z</time></trkpt><trkpt lat="45.60606331733285" lon="10.733900613638907"><ele>297.0</ele><time>2026-03-28T15:22:40Z</time></trkpt><trkpt lat="45.60610955514532" lon="10.733811013268731"><ele>297.0</ele><time>2026-03-28T15:22:41Z</time></trkpt><trkpt lat="45.606177831281684" lon="10.733675292836844"><ele>297.0</ele><time>2026-03-28T15:22:43Z</time></trkpt><trkpt lat="45.606237681024616" lon="10.733578290290287"><ele>298.0</ele><time>2026-03-28T15:22:44Z</time></trkpt><trkpt lat="45.60630701731017" lon="10.733336133679513"><ele>299.0</ele><time>2026-03-28T15:22:45Z</time></trkpt><trkpt lat="45.606376087676836" lon="10.733276951297107"><ele>300.0</ele><time>2026-03-28T15:22:46Z</time></trkpt><trkpt lat="45.606513907114525" lon="10.733192449551673"><ele>301.0</ele><time>2026-03-28T15:22:48Z</time></trkpt><trkpt lat="45.60653688110835" lon="10.733078728048936"><ele>301.0</ele><time>2026-03-28T15:22:50Z</time></trkpt><trkpt lat="45.60663868665393" lon="10.732839652006765"><ele>301.0</ele><time>2026-03-28T15:22:52Z</time></trkpt><trkpt lat="45.60666689713779" lon="10.732727188320597"><ele>301.0</ele><time>2026-03-28T15:22:54Z</time></trkpt><trkpt lat="45.606736787744666" lon="10.732592853869557"><ele>301.0</ele><time>2026-03-28T15:22:55Z</time></trkpt><trkpt lat="45.60729828786364" lon="10.733088746396003"><ele>304.6</ele><time>2026-03-28T15:22:57Z</time></trkpt><trkpt lat="45.60739230561986" lon="10.733155574705528"><ele>308.20000000000005</ele><time>2026-03-28T15:22:59Z</time></trkpt><trkpt lat="45.607448957970355" lon="10.73321645963557"><ele>311.79999999999995</ele><time>2026-03-28T15:23:00Z</time></trkpt><trkpt lat="45.60758439029851" lon="10.733234208931618"><ele>315.4</ele><time>2026-03-28T15:23:02Z</time></trkpt><trkpt lat="45.60767155755713" lon="10.733220548237222"><ele>319.0</ele><time>2026-03-28T15:23:03Z</time></trkpt><trkpt lat="45.607746266827014" lon="10.733207148845691"><ele>319.0</ele><time>2026-03-28T15:23:04Z</time></trkpt><trkpt lat="45.60781587582857" lon="10.733272097075815"><ele>319.0</ele><time>2026-03-28T15:23:06Z</time></trkpt><trkpt lat="45.60787008530014" lon="10.733394743243295"><ele>319.0</ele><time>2026-03-28T15:23:08Z</time></trkpt><trkpt lat="45.60790593190557" lon="10.733477686000425"><ele>319.0</ele><time>2026-03-28T15:23:09Z</time></trkpt><trkpt lat="45.60794656066823" lon="10.733553567753855"><ele>319.0</ele><time>2026-03-28T15:23:10Z</time></trkpt><trkpt lat="45.60795797946263" lon="10.733695731085342"><ele>319.0</ele><time>2026-03-28T15:23:12Z</time></trkpt><trkpt lat="45.60788613984909" lon="10.73380391324423"><ele>322.5</ele><time>2026-03-28T15:23:14Z</time></trkpt><trkpt lat="45.607822911670766" lon="10.733819677229718"><ele>326.0</ele><time>2026-03-28T15:23:15Z</time></trkpt><trkpt lat="45.60775473584166" lon="10.733860744535578"><ele>329.5</ele><time>2026-03-28T15:23:16Z</time></trkpt><trkpt lat="45.60767975006155" lon="10.733901895716599"><ele>333.0</ele><time>2026-03-28T15:23:17Z</time></trkpt><trkpt lat="45.60759627570545" lon="10.733917601476277"><ele>336.5</ele><time>2026-03-28T15:23:18Z</time></trkpt><trkpt lat="45.60750089433524" lon="10.73393147139355"><ele>340.0</ele><time>2026-03-28T15:23:19Z</time></trkpt><trkpt lat="45.60740767653742" lon="10.73394303608598"><ele>340.0</ele><time>2026-03-28T15:23:20Z</time></trkpt><trkpt lat="45.60731706402968" lon="10.733958770853198"><ele>340.0</ele><time>2026-03-28T15:23:21Z</time></trkpt><trkpt lat="45.607198769120174" lon="10.734043989578616"><ele>340.0</ele><time>2026-03-28T15:23:23Z</time></trkpt><trkpt lat="45.607149513606544" lon="10.73411705530389"><ele>340.0</ele><time>2026-03-28T15:23:24Z</time></trkpt><trkpt lat="45.60709633696327" lon="10.734224949695538"><ele>340.0</ele><time>2026-03-28T15:23:26Z</time></trkpt><trkpt lat="45.607132636515274" lon="10.734302442594815"><ele>340.0</ele><time>2026-03-28T15:23:29Z</time></trkpt><trkpt lat="45.607226227762304" lon="10.734284227778158"><ele>340.0</ele><time>2026-03-28T15:23:31Z</time></trkpt><trkpt lat="45.607299256526545" lon="10.734252710691239"><ele>340.0</ele><time>2026-03-28T15:23:32Z</time></trkpt><trkpt lat="45.60738213478641" lon="10.734241118134243"><ele>340.0</ele><time>2026-03-28T15:23:33Z</time></trkpt><trkpt lat="45.60746361755205" lon="10.734225257037155"><ele>340.0</ele><time>2026-03-28T15:23:34Z</time></trkpt><trkpt lat="45.60753504496464" lon="10.734206239088929"><ele>340.0</ele><time>2026-03-28T15:23:35Z</time></trkpt><trkpt lat="45.60769203454311" lon="10.734147995204978"><ele>340.0</ele><time>2026-03-28T15:23:37Z</time></trkpt><trkpt lat="45.60781672096174" lon="10.73410794686076"><ele>340.0</ele><time>2026-03-28T15:23:38Z</time></trkpt><trkpt lat="45.60792673998702" lon="10.734066678178332"><ele>340.0</ele><time>2026-03-28T15:23:39Z</time></trkpt><trkpt lat="45.608034422997605" lon="10.734021358729361"><ele>340.0</ele><time>2026-03-28T15:23:40Z</time></trkpt><trkpt lat="45.608131907955375" lon="10.733996229697214"><ele>341.16666666666663</ele><time>2026-03-28T15:23:41Z</time></trkpt><trkpt lat="45.60821229503454" lon="10.73398254537934"><ele>342.3333333333333</ele><time>2026-03-28T15:23:42Z</time></trkpt><trkpt lat="45.608308929378126" lon="10.73398270031399"><ele>343.5</ele><time>2026-03-28T15:23:43Z</time></trkpt><trkpt lat="45.60839978493177" lon="10.734021824089687"><ele>344.6666666666667</ele><time>2026-03-28T15:23:44Z</time></trkpt><trkpt lat="45.60847509430454" lon="10.73403655603716"><ele>345.83333333333337</ele><time>2026-03-28T15:23:45Z</time></trkpt><trkpt lat="45.60853655816807" lon="10.734004612327743"><ele>347.0</ele><time>2026-03-28T15:23:46Z</time></trkpt><trkpt lat="45.60858838277724" lon="10.733949435305158"><ele>347.0</ele><time>2026-03-28T15:23:47Z</time></trkpt><trkpt lat="45.6086522294123" lon="10.73384502386635"><ele>347.0</ele><time>2026-03-28T15:23:48Z</time></trkpt><trkpt lat="45.60873835026033" lon="10.733717972190158"><ele>347.0</ele><time>2026-03-28T15:23:49Z</time></trkpt><trkpt lat="45.608846210068315" lon="10.733574899358475"><ele>347.0</ele><time>2026-03-28T15:23:50Z</time></trkpt><trkpt lat="45.608961515661456" lon="10.733416675779864"><ele>346.75</ele><time>2026-03-28T15:23:51Z</time></trkpt><trkpt lat="45.60906599704854" lon="10.733270606974916"><ele>346.5</ele><time>2026-03-28T15:23:52Z</time></trkpt><trkpt lat="45.609159219140935" lon="10.733145770598238"><ele>346.25</ele><time>2026-03-28T15:23:53Z</time></trkpt><trkpt lat="45.60925017612076" lon="10.73302489768107"><ele>346.0</ele><time>2026-03-28T15:23:54Z</time></trkpt><trkpt lat="45.6093335953818" lon="10.732918786819216"><ele>346.0</ele><time>2026-03-28T15:23:55Z</time></trkpt><trkpt lat="45.60942251206139" lon="10.732821818759332"><ele>346.0</ele><time>2026-03-28T15:23:56Z</time></trkpt><trkpt lat="45.60952327968557" lon="10.732738347081458"><ele>346.0</ele><time>2026-03-28T15:23:57Z</time></trkpt><trkpt lat="45.60963358028567" lon="10.732655481709564"><ele>346.0</ele><time>2026-03-28T15:23:58Z</time></trkpt><trkpt lat="45.60974193359041" lon="10.732583455334938"><ele>347.0</ele><time>2026-03-28T15:23:59Z</time></trkpt><trkpt lat="45.60985203743999" lon="10.732528420881193"><ele>348.0</ele><time>2026-03-28T15:24:00Z</time></trkpt><trkpt lat="45.60996367948302" lon="10.732498462167108"><ele>349.0</ele><time>2026-03-28T15:24:01Z</time></trkpt><trkpt lat="45.610072626615064" lon="10.732484207302198"><ele>350.0</ele><time>2026-03-28T15:24:02Z</time></trkpt><trkpt lat="45.610162290619506" lon="10.732470116104128"><ele>351.0</ele><time>2026-03-28T15:24:03Z</time></trkpt><trkpt lat="45.610238603390215" lon="10.732454310089445"><ele>351.0</ele><time>2026-03-28T15:24:04Z</time></trkpt><trkpt lat="45.61032009344765" lon="10.732456382959713"><ele>351.0</ele><time>2026-03-28T15:24:05Z</time></trkpt><trkpt lat="45.6103927789405" lon="10.732480566674093"><ele>351.0</ele><time>2026-03-28T15:24:06Z</time></trkpt><trkpt lat="45.61048081190637" lon="10.732569346267448"><ele>351.0</ele><time>2026-03-28T15:24:08Z</time></trkpt><trkpt lat="45.610552129435234" lon="10.732625001345246"><ele>351.0</ele><time>2026-03-28T15:24:09Z</time></trkpt><trkpt lat="45.61063859545568" lon="10.732670754377152"><ele>351.0</ele><time>2026-03-28T15:24:10Z</time></trkpt><trkpt lat="45.610725880963614" lon="10.732682166929406"><ele>354.0</ele><time>2026-03-28T15:24:11Z</time></trkpt><trkpt lat="45.61081207305969" lon="10.73269778617196"><ele>357.0</ele><time>2026-03-28T15:24:12Z</time></trkpt><trkpt lat="45.61090768489377" lon="10.73273653467323"><ele>360.0</ele><time>2026-03-28T15:24:13Z</time></trkpt><trkpt lat="45.6109931697433" lon="10.732776733641641"><ele>363.0</ele><time>2026-03-28T15:24:14Z</time></trkpt><trkpt lat="45.611058624011484" lon="10.732852789721425"><ele>366.0</ele><time>2026-03-28T15:24:16Z</time></trkpt><trkpt lat="45.61107872791854" lon="10.733005786273376"><ele>368.1666666666667</ele><time>2026-03-28T15:24:18Z</time></trkpt><trkpt lat="45.61106936803596" lon="10.733099192141651"><ele>370.3333333333333</ele><time>2026-03-28T15:24:19Z</time></trkpt><trkpt lat="45.61105309875985" lon="10.733191888657005"><ele>372.5</ele><time>2026-03-28T15:24:20Z</time></trkpt><trkpt lat="45.61106355996205" lon="10.733397358008832"><ele>374.66666666666663</ele><time>2026-03-28T15:24:22Z</time></trkpt><trkpt lat="45.611070037944856" lon="10.733490436333671"><ele>376.8333333333333</ele><time>2026-03-28T15:24:23Z</time></trkpt><trkpt lat="45.611074154105935" lon="10.733580569735338"><ele>379.0</ele><time>2026-03-28T15:24:24Z</time></trkpt><trkpt lat="45.61108227238121" lon="10.733686449919375"><ele>381.8333333333333</ele><time>2026-03-28T15:24:25Z</time></trkpt><trkpt lat="45.61109299539593" lon="10.733783746381986"><ele>384.66666666666663</ele><time>2026-03-28T15:24:26Z</time></trkpt><trkpt lat="45.61109285745522" lon="10.733877690734275"><ele>387.5</ele><time>2026-03-28T15:24:27Z</time></trkpt><trkpt lat="45.61107147814348" lon="10.734024194895927"><ele>390.3333333333333</ele><time>2026-03-28T15:24:29Z</time></trkpt><trkpt lat="45.61108119450109" lon="10.734150635461189"><ele>393.1666666666667</ele><time>2026-03-28T15:24:31Z</time></trkpt><trkpt lat="45.61111987059018" lon="10.734254218017437"><ele>396.0</ele><time>2026-03-28T15:24:33Z</time></trkpt><trkpt lat="45.61111124958611" lon="10.73436358155061"><ele>399.8333333333333</ele><time>2026-03-28T15:24:35Z</time></trkpt><trkpt lat="45.611141654412" lon="10.73447017301262"><ele>403.66666666666663</ele><time>2026-03-28T15:24:37Z</time></trkpt><trkpt lat="45.611235445276094" lon="10.734546430147418"><ele>407.5</ele><time>2026-03-28T15:24:39Z</time></trkpt><trkpt lat="45.61130692485839" lon="10.73461593983588"><ele>411.3333333333333</ele><time>2026-03-28T15:24:41Z</time></trkpt><trkpt lat="45.61138176597683" lon="10.734625675538014"><ele>415.16666666666663</ele><time>2026-03-28T15:24:43Z</time></trkpt><trkpt lat="45.61145647261941" lon="10.734648153026704"><ele>419.0</ele><time>2026-03-28T15:24:49Z</time></trkpt><trkpt lat="45.61151953731423" lon="10.73465108741041"><ele>419.4</ele><time>2026-03-28T15:24:55Z</time></trkpt><trkpt lat="45.611590994055554" lon="10.734669175028413"><ele>419.79999999999995</ele><time>2026-03-28T15:33:12Z</time></trkpt><trkpt lat="45.61170111125291" lon="10.734691164602674"><ele>420.20000000000005</ele><time>2026-03-28T15:33:18Z</time></trkpt><trkpt lat="45.61181000983742" lon="10.734773575920624"><ele>420.6</ele><time>2026-03-28T15:33:20Z</time></trkpt><trkpt lat="45.61190299177193" lon="10.734893004844178"><ele>421.0</ele><time>2026-03-28T15:33:22Z</time></trkpt><trkpt lat="45.61198884688608" lon="10.734931895050149"><ele>421.1666666666667</ele><time>2026-03-28T15:33:24Z</time></trkpt><trkpt lat="45.61205638137614" lon="10.734911008520388"><ele>421.33333333333337</ele><time>2026-03-28T15:33:26Z</time></trkpt><trkpt lat="45.612148000258685" lon="10.734872835204229"><ele>421.5</ele><time>2026-03-28T15:33:49Z</time></trkpt><trkpt lat="45.612242190190095" lon="10.734811243152489"><ele>421.66666666666663</ele><time>2026-03-28T15:33:51Z</time></trkpt><trkpt lat="45.612337872360506" lon="10.734750224897363"><ele>421.8333333333333</ele><time>2026-03-28T15:33:53Z</time></trkpt><trkpt lat="45.612399636270695" lon="10.734717542903473"><ele>422.0</ele><time>2026-03-28T15:33:56Z</time></trkpt><trkpt lat="45.61248167447213" lon="10.734747602416444"><ele>422.0</ele><time>2026-03-28T15:33:59Z</time></trkpt><trkpt lat="45.61256986024422" lon="10.734884563225911"><ele>422.0</ele><time>2026-03-28T15:34:01Z</time></trkpt><trkpt lat="45.61270074458255" lon="10.734900952933408"><ele>422.0</ele><time>2026-03-28T15:34:03Z</time></trkpt><trkpt lat="45.61278087741501" lon="10.734898528056037"><ele>422.0</ele><time>2026-03-28T15:34:04Z</time></trkpt><trkpt lat="45.61284720813558" lon="10.734927080611447"><ele>422.0</ele><time>2026-03-28T15:34:05Z</time></trkpt><trkpt lat="45.61293849350865" lon="10.735038063437791"><ele>422.0</ele><time>2026-03-28T15:34:07Z</time></trkpt><trkpt lat="45.61298353110781" lon="10.73512153482401"><ele>422.0</ele><time>2026-03-28T15:34:08Z</time></trkpt><trkpt lat="45.61304300584951" lon="10.735238168464422"><ele>422.0</ele><time>2026-03-28T15:34:09Z</time></trkpt><trkpt lat="45.61310478112352" lon="10.735362867539653"><ele>422.0</ele><time>2026-03-28T15:34:10Z</time></trkpt><trkpt lat="45.61316840880072" lon="10.735469482924362"><ele>422.0</ele><time>2026-03-28T15:34:11Z</time></trkpt><trkpt lat="45.61322735094003" lon="10.735546311464255"><ele>426.8</ele><time>2026-03-28T15:34:12Z</time></trkpt><trkpt lat="45.61328187127047" lon="10.735632003528108"><ele>431.6</ele><time>2026-03-28T15:34:13Z</time></trkpt><trkpt lat="45.61333581230048" lon="10.735737714887533"><ele>436.40000000000003</ele><time>2026-03-28T15:34:14Z</time></trkpt><trkpt lat="45.613412449187756" lon="10.735852730765858"><ele>441.20000000000005</ele><time>2026-03-28T15:34:15Z</time></trkpt><trkpt lat="45.6134799737767" lon="10.735950245632262"><ele>446.0</ele><time>2026-03-28T15:34:16Z</time></trkpt><trkpt lat="45.61353703959168" lon="10.736019941395368"><ele>449.0</ele><time>2026-03-28T15:34:17Z</time></trkpt><trkpt lat="45.61361756255072" lon="10.736063120359674"><ele>452.0</ele><time>2026-03-28T15:34:18Z</time></trkpt><trkpt lat="45.61370385690491" lon="10.73612025264271"><ele>455.0</ele><time>2026-03-28T15:34:19Z</time></trkpt><trkpt lat="45.61378474781168" lon="10.736190056036172"><ele>458.0</ele><time>2026-03-28T15:34:20Z</time></trkpt><trkpt lat="45.61384687969682" lon="10.736276816137106"><ele>461.0</ele><time>2026-03-28T15:34:22Z</time></trkpt><trkpt lat="45.613932562230104" lon="10.73636065245878"><ele>460.99999999999994</ele><time>2026-03-28T15:34:24Z</time></trkpt><trkpt lat="45.61400022644622" lon="10.736378109844377"><ele>461.0</ele><time>2026-03-28T15:34:25Z</time></trkpt><trkpt lat="45.6140660569885" lon="10.736392388733803"><ele>461.0</ele><time>2026-03-28T15:34:26Z</time></trkpt><trkpt lat="45.614160747686405" lon="10.736366045721283"><ele>461.0</ele><time>2026-03-28T15:34:28Z</time></trkpt><trkpt lat="45.61422781667244" lon="10.736436060806593"><ele>460.99999999999994</ele><time>2026-03-28T15:34:30Z</time></trkpt><trkpt lat="45.614230071158744" lon="10.736588061824662"><ele>461.0</ele><time>2026-03-28T15:34:32Z</time></trkpt><trkpt lat="45.614191090954975" lon="10.73669961051402"><ele>460.99999999999994</ele><time>2026-03-28T15:34:35Z</time></trkpt><trkpt lat="45.6142293658603" lon="10.736775199433197"><ele>461.0</ele><time>2026-03-28T15:34:39Z</time></trkpt><trkpt lat="45.61430967050663" lon="10.736771628605457"><ele>461.0</ele><time>2026-03-28T15:34:41Z</time></trkpt><trkpt lat="45.61438569258444" lon="10.73677498636989"><ele>461.0</ele><time>2026-03-28T15:34:43Z</time></trkpt><trkpt lat="45.61448831808656" lon="10.73679679565509"><ele>460.99999999999994</ele><time>2026-03-28T15:34:45Z</time></trkpt><trkpt lat="45.61459107599075" lon="10.736759153573699"><ele>461.0</ele><time>2026-03-28T15:34:47Z</time></trkpt><trkpt lat="45.61464674976209" lon="10.73670984699391"><ele>458.8333333333333</ele><time>2026-03-28T15:34:48Z</time></trkpt><trkpt lat="45.61470224397227" lon="10.736649228261673"><ele>456.66666666666663</ele><time>2026-03-28T15:34:49Z</time></trkpt><trkpt lat="45.6148103915847" lon="10.736572006273043"><ele>454.5</ele><time>2026-03-28T15:34:51Z</time></trkpt><trkpt lat="45.614909524239394" lon="10.736493519959556"><ele>452.33333333333337</ele><time>2026-03-28T15:34:53Z</time></trkpt><trkpt lat="45.6149587327983" lon="10.73643401017679"><ele>450.1666666666667</ele><time>2026-03-28T15:34:54Z</time></trkpt><trkpt lat="45.61501627017818" lon="10.736373957414232"><ele>448.0</ele><time>2026-03-28T15:34:55Z</time></trkpt><trkpt lat="45.61511263675298" lon="10.736263905118033"><ele>448.0</ele><time>2026-03-28T15:34:57Z</time></trkpt><trkpt lat="45.615169397011236" lon="10.736206983107074"><ele>448.0</ele><time>2026-03-28T15:34:58Z</time></trkpt><trkpt lat="45.61522681424738" lon="10.736144084840388"><ele>448.0</ele><time>2026-03-28T15:34:59Z</time></trkpt><trkpt lat="45.615259588773284" lon="10.736062252255488"><ele>448.0</ele><time>2026-03-28T15:35:01Z</time></trkpt><trkpt lat="45.61529996286705" lon="10.735957526146045"><ele>448.0</ele><time>2026-03-28T15:35:02Z</time></trkpt><trkpt lat="45.615312974546384" lon="10.735867652609803"><ele>448.0</ele><time>2026-03-28T15:35:03Z</time></trkpt><trkpt lat="45.61536926801127" lon="10.735761644133488"><ele>448.0</ele><time>2026-03-28T15:35:05Z</time></trkpt><trkpt lat="45.61550076061888" lon="10.735738849900862"><ele>443.59999999999997</ele><time>2026-03-28T15:35:07Z</time></trkpt><trkpt lat="45.615588571047454" lon="10.735687512255755"><ele>439.19999999999993</ele><time>2026-03-28T15:35:08Z</time></trkpt><trkpt lat="45.61565022036848" lon="10.735655074431056"><ele>434.8</ele><time>2026-03-28T15:35:09Z</time></trkpt><trkpt lat="45.61572557025282" lon="10.735582557691677"><ele>430.4</ele><time>2026-03-28T15:35:10Z</time></trkpt><trkpt lat="45.61580684941017" lon="10.735459916364197"><ele>426.0</ele><time>2026-03-28T15:35:11Z</time></trkpt><trkpt lat="45.615905283655074" lon="10.735320663470935"><ele>426.25</ele><time>2026-03-28T15:35:12Z</time></trkpt><trkpt lat="45.616000973030864" lon="10.735169859393531"><ele>426.5</ele><time>2026-03-28T15:35:13Z</time></trkpt><trkpt lat="45.61608553950314" lon="10.735047319658015"><ele>426.75</ele><time>2026-03-28T15:35:14Z</time></trkpt><trkpt lat="45.6161592772189" lon="10.734919117851758"><ele>427.0</ele><time>2026-03-28T15:35:15Z</time></trkpt><trkpt lat="45.61624381382555" lon="10.734774853172148"><ele>427.0</ele><time>2026-03-28T15:35:16Z</time></trkpt><trkpt lat="45.6163221161226" lon="10.73464198185299"><ele>427.00000000000006</ele><time>2026-03-28T15:35:17Z</time></trkpt><trkpt lat="45.61640168366962" lon="10.734549201447676"><ele>427.00000000000006</ele><time>2026-03-28T15:35:18Z</time></trkpt><trkpt lat="45.61649033612788" lon="10.734463121380173"><ele>427.0</ele><time>2026-03-28T15:35:19Z</time></trkpt><trkpt lat="45.616551814222355" lon="10.734361703055365"><ele>427.0</ele><time>2026-03-28T15:35:20Z</time></trkpt><trkpt lat="45.61659216808179" lon="10.734228781057823"><ele>427.8</ele><time>2026-03-28T15:35:21Z</time></trkpt><trkpt lat="45.616638427350885" lon="10.734036472015912"><ele>428.6</ele><time>2026-03-28T15:35:22Z</time></trkpt><trkpt lat="45.61667400621612" lon="10.733860456947506"><ele>429.40000000000003</ele><time>2026-03-28T15:35:23Z</time></trkpt><trkpt lat="45.61670321865019" lon="10.733727954523266"><ele>430.20000000000005</ele><time>2026-03-28T15:35:24Z</time></trkpt><trkpt lat="45.61673065996299" lon="10.73362918233047"><ele>431.0</ele><time>2026-03-28T15:35:25Z</time></trkpt><trkpt lat="45.616794924387165" lon="10.733475958040453"><ele>430.99999999999994</ele><time>2026-03-28T15:35:27Z</time></trkpt><trkpt lat="45.61682688304247" lon="10.733376620157204"><ele>431.0</ele><time>2026-03-28T15:35:28Z</time></trkpt><trkpt lat="45.616848756018186" lon="10.733288971996565"><ele>431.0</ele><time>2026-03-28T15:35:29Z</time></trkpt><trkpt lat="45.61690202282863" lon="10.733108986254496"><ele>431.0</ele><time>2026-03-28T15:35:31Z</time></trkpt><trkpt lat="45.61692277283918" lon="10.73301779730872"><ele>430.99999999999994</ele><time>2026-03-28T15:35:32Z</time></trkpt><trkpt lat="45.6169344017087" lon="10.732905647678923"><ele>431.0</ele><time>2026-03-28T15:35:33Z</time></trkpt><trkpt lat="45.616943400481716" lon="10.732788079006555"><ele>429.8571428571429</ele><time>2026-03-28T15:35:34Z</time></trkpt><trkpt lat="45.616944705775005" lon="10.732669132015523"><ele>428.71428571428567</ele><time>2026-03-28T15:35:35Z</time></trkpt><trkpt lat="45.61694055511581" lon="10.732567431448"><ele>427.57142857142856</ele><time>2026-03-28T15:35:36Z</time></trkpt><trkpt lat="45.6169275736951" lon="10.732465377142043"><ele>426.42857142857144</ele><time>2026-03-28T15:35:37Z</time></trkpt><trkpt lat="45.61691595524398" lon="10.732372753409889"><ele>425.28571428571433</ele><time>2026-03-28T15:35:38Z</time></trkpt><trkpt lat="45.616905614056286" lon="10.73227955389258"><ele>424.1428571428571</ele><time>2026-03-28T15:35:39Z</time></trkpt><trkpt lat="45.61689525235346" lon="10.732190376722032"><ele>423.0</ele><time>2026-03-28T15:35:40Z</time></trkpt><trkpt lat="45.616874816191014" lon="10.732097518030498"><ele>423.0</ele><time>2026-03-28T15:35:41Z</time></trkpt><trkpt lat="45.61684749412804" lon="10.731995596968456"><ele>423.0</ele><time>2026-03-28T15:35:42Z</time></trkpt><trkpt lat="45.616804165164254" lon="10.731901539163045"><ele>423.0</ele><time>2026-03-28T15:35:43Z</time></trkpt><trkpt lat="45.6167677369513" lon="10.731797621228674"><ele>423.0</ele><time>2026-03-28T15:35:44Z</time></trkpt><trkpt lat="45.61671693858348" lon="10.731682768835032"><ele>423.0</ele><time>2026-03-28T15:35:45Z</time></trkpt><trkpt lat="45.61666569962268" lon="10.73156917789011"><ele>423.0</ele><time>2026-03-28T15:35:46Z</time></trkpt><trkpt lat="45.6166180128048" lon="10.731453818347225"><ele>420.1666666666667</ele><time>2026-03-28T15:35:47Z</time></trkpt><trkpt lat="45.61656959671925" lon="10.731344711183748"><ele>417.33333333333337</ele><time>2026-03-28T15:35:48Z</time></trkpt><trkpt lat="45.61651026736339" lon="10.731268709811658"><ele>414.5</ele><time>2026-03-28T15:35:49Z</time></trkpt><trkpt lat="45.61644226355987" lon="10.731194329493063"><ele>411.6666666666667</ele><time>2026-03-28T15:35:50Z</time></trkpt><trkpt lat="45.616387452318136" lon="10.731148046187688"><ele>408.83333333333337</ele><time>2026-03-28T15:35:51Z</time></trkpt><trkpt lat="45.616333003887696" lon="10.731037908987913"><ele>406.0</ele><time>2026-03-28T15:35:53Z</time></trkpt><trkpt lat="45.61631156322522" lon="10.730874057093283"><ele>404.00000000000006</ele><time>2026-03-28T15:35:55Z</time></trkpt><trkpt lat="45.61629046018608" lon="10.730783224559428"><ele>402.0</ele><time>2026-03-28T15:35:56Z</time></trkpt><trkpt lat="45.616292264952634" lon="10.73065839943034"><ele>400.0</ele><time>2026-03-28T15:35:58Z</time></trkpt><trkpt lat="45.61631691105427" lon="10.730560612783691"><ele>398.0</ele><time>2026-03-28T15:36:02Z</time></trkpt><trkpt lat="45.616306011280315" lon="10.730463915183453"><ele>396.00000000000006</ele><time>2026-03-28T15:36:05Z</time></trkpt><trkpt lat="45.61629956310456" lon="10.730346637779835"><ele>394.0</ele><time>2026-03-28T15:36:07Z</time></trkpt><trkpt lat="45.616301554556706" lon="10.73023442768697"><ele>394.79999999999995</ele><time>2026-03-28T15:36:09Z</time></trkpt><trkpt lat="45.61628738624593" lon="10.730097468564267"><ele>395.59999999999997</ele><time>2026-03-28T15:36:11Z</time></trkpt><trkpt lat="45.61623032427817" lon="10.729971329026434"><ele>396.4</ele><time>2026-03-28T15:36:13Z</time></trkpt><trkpt lat="45.616162470537525" lon="10.729823356942708"><ele>397.2</ele><time>2026-03-28T15:36:15Z</time></trkpt><trkpt lat="45.61608772396403" lon="10.729707679186827"><ele>398.0</ele><time>2026-03-28T15:36:17Z</time></trkpt><trkpt lat="45.615954011527855" lon="10.729636983366738"><ele>394.16666666666663</ele><time>2026-03-28T15:36:19Z</time></trkpt><trkpt lat="45.61588896517422" lon="10.729608649930555"><ele>390.3333333333333</ele><time>2026-03-28T15:36:20Z</time></trkpt><trkpt lat="45.615814994005284" lon="10.729575435854796"><ele>386.5</ele><time>2026-03-28T15:36:21Z</time></trkpt><trkpt lat="45.61574610985666" lon="10.729555542568079"><ele>382.66666666666663</ele><time>2026-03-28T15:36:22Z</time></trkpt><trkpt lat="45.61567095878084" lon="10.729541202741744"><ele>378.8333333333333</ele><time>2026-03-28T15:36:23Z</time></trkpt><trkpt lat="45.61557538023943" lon="10.729550104976369"><ele>375.0</ele><time>2026-03-28T15:36:24Z</time></trkpt><trkpt lat="45.61550990508609" lon="10.729568094918857"><ele>375.0</ele><time>2026-03-28T15:36:27Z</time></trkpt><trkpt lat="45.6154325096772" lon="10.729628594754464"><ele>375.0</ele><time>2026-03-28T15:36:28Z</time></trkpt><trkpt lat="45.61537834428014" lon="10.729707196687995"><ele>375.0</ele><time>2026-03-28T15:36:30Z</time></trkpt><trkpt lat="45.61535308571433" lon="10.729790487432995"><ele>375.0</ele><time>2026-03-28T15:36:32Z</time></trkpt><trkpt lat="45.61532606837976" lon="10.729913268418406"><ele>375.0</ele><time>2026-03-28T15:36:34Z</time></trkpt><trkpt lat="45.61531839082981" lon="10.73005981868831"><ele>375.0</ele><time>2026-03-28T15:36:36Z</time></trkpt><trkpt lat="45.61531209511851" lon="10.73018074436937"><ele>373.0</ele><time>2026-03-28T15:36:38Z</time></trkpt><trkpt lat="45.61531380456262" lon="10.730280774261155"><ele>371.0</ele><time>2026-03-28T15:36:40Z</time></trkpt><trkpt lat="45.61530971280977" lon="10.730391392055513"><ele>369.0</ele><time>2026-03-28T15:36:42Z</time></trkpt><trkpt lat="45.61529018775629" lon="10.73050929418476"><ele>367.0</ele><time>2026-03-28T15:36:44Z</time></trkpt><trkpt lat="45.615244956196854" lon="10.730599703686403"><ele>365.0</ele><time>2026-03-28T15:36:46Z</time></trkpt><trkpt lat="45.615168919332795" lon="10.730610956337289"><ele>363.0</ele><time>2026-03-28T15:36:48Z</time></trkpt><trkpt lat="45.61515960428604" lon="10.73051132293498"><ele>363.0</ele><time>2026-03-28T15:36:50Z</time></trkpt><trkpt lat="45.61515381891538" lon="10.730390525684385"><ele>363.0</ele><time>2026-03-28T15:36:52Z</time></trkpt><trkpt lat="45.615122150637625" lon="10.730241473916871"><ele>363.0</ele><time>2026-03-28T15:36:54Z</time></trkpt><trkpt lat="45.615089092778916" lon="10.730079303788012"><ele>363.0</ele><time>2026-03-28T15:36:56Z</time></trkpt><trkpt lat="45.61507150845088" lon="10.729990955626143"><ele>363.0</ele><time>2026-03-28T15:36:58Z</time></trkpt><trkpt lat="45.614994501210425" lon="10.729954698375712"><ele>361.25</ele><time>2026-03-28T15:37:16Z</time></trkpt><trkpt lat="45.614887051281585" lon="10.729886432328676"><ele>359.5</ele><time>2026-03-28T15:37:18Z</time></trkpt><trkpt lat="45.61478862440499" lon="10.729824359096327"><ele>357.75</ele><time>2026-03-28T15:37:19Z</time></trkpt><trkpt lat="45.614665005420136" lon="10.729767673205526"><ele>356.0</ele><time>2026-03-28T15:37:20Z</time></trkpt><trkpt lat="45.61455217302712" lon="10.729655647134667"><ele>354.0</ele><time>2026-03-28T15:37:21Z</time></trkpt><trkpt lat="45.61443159125867" lon="10.72956076523057"><ele>352.0</ele><time>2026-03-28T15:37:22Z</time></trkpt><trkpt lat="45.61431334801409" lon="10.729458705478992"><ele>350.0</ele><time>2026-03-28T15:37:23Z</time></trkpt><trkpt lat="45.61418228043253" lon="10.729368994426347"><ele>348.0</ele><time>2026-03-28T15:37:24Z</time></trkpt><trkpt lat="45.614046855688855" lon="10.729265753820155"><ele>348.0</ele><time>2026-03-28T15:37:25Z</time></trkpt><trkpt lat="45.61394293679519" lon="10.729150477926133"><ele>348.0</ele><time>2026-03-28T15:37:26Z</time></trkpt><trkpt lat="45.6138695193419" lon="10.729073144605914"><ele>348.0</ele><time>2026-03-28T15:37:27Z</time></trkpt><trkpt lat="45.61380533813044" lon="10.729025203608273"><ele>348.0</ele><time>2026-03-28T15:37:28Z</time></trkpt><trkpt lat="45.61375103230405" lon="10.728963355701014"><ele>348.0</ele><time>2026-03-28T15:37:29Z</time></trkpt><trkpt lat="45.61368601010917" lon="10.72889862375691"><ele>348.0</ele><time>2026-03-28T15:37:31Z</time></trkpt><trkpt lat="45.61364335725368" lon="10.728821501764086"><ele>347.4</ele><time>2026-03-28T15:37:34Z</time></trkpt><trkpt lat="45.61370547669164" lon="10.728634107940357"><ele>346.79999999999995</ele><time>2026-03-28T15:37:36Z</time></trkpt><trkpt lat="45.613742436810966" lon="10.728551816522506"><ele>346.2</ele><time>2026-03-28T15:37:37Z</time></trkpt><trkpt lat="45.61378683966316" lon="10.72847220204835"><ele>345.6</ele><time>2026-03-28T15:37:38Z</time></trkpt><trkpt lat="45.61387741106378" lon="10.728365135330904"><ele>345.0</ele><time>2026-03-28T15:37:40Z</time></trkpt><trkpt lat="45.61391104491776" lon="10.728287884390669"><ele>346.4</ele><time>2026-03-28T15:37:41Z</time></trkpt><trkpt lat="45.61393715251116" lon="10.728189823832022"><ele>347.8</ele><time>2026-03-28T15:37:42Z</time></trkpt><trkpt lat="45.61394407094627" lon="10.72808840661946"><ele>349.20000000000005</ele><time>2026-03-28T15:37:43Z</time></trkpt><trkpt lat="45.61393971777707" lon="10.727907305900578"><ele>350.6</ele><time>2026-03-28T15:37:45Z</time></trkpt><trkpt lat="45.61385096602829" lon="10.727752995514152"><ele>352.0</ele><time>2026-03-28T15:37:47Z</time></trkpt><trkpt lat="45.61379768129303" lon="10.727675697349673"><ele>352.5</ele><time>2026-03-28T15:37:48Z</time></trkpt><trkpt lat="45.6137350038582" lon="10.727588048905545"><ele>353.0</ele><time>2026-03-28T15:37:49Z</time></trkpt><trkpt lat="45.61367540047826" lon="10.727544969047555"><ele>353.5</ele><time>2026-03-28T15:37:50Z</time></trkpt><trkpt lat="45.6135917780058" lon="10.727520201440683"><ele>354.0</ele><time>2026-03-28T15:37:51Z</time></trkpt><trkpt lat="45.613500044106786" lon="10.7275077206001"><ele>354.5</ele><time>2026-03-28T15:37:52Z</time></trkpt><trkpt lat="45.61339584006303" lon="10.727505441854067"><ele>355.0</ele><time>2026-03-28T15:37:53Z</time></trkpt><trkpt lat="45.61326629458274" lon="10.727508323918125"><ele>355.0</ele><time>2026-03-28T15:37:54Z</time></trkpt><trkpt lat="45.61315758204981" lon="10.727514023825051"><ele>355.0</ele><time>2026-03-28T15:37:55Z</time></trkpt><trkpt lat="45.613064641589936" lon="10.727501905745072"><ele>355.0</ele><time>2026-03-28T15:37:56Z</time></trkpt><trkpt lat="45.61297815625607" lon="10.727464977287942"><ele>355.0</ele><time>2026-03-28T15:37:57Z</time></trkpt><trkpt lat="45.61289698123916" lon="10.727402965262721"><ele>355.0</ele><time>2026-03-28T15:37:58Z</time></trkpt><trkpt lat="45.612828402012184" lon="10.727342149923944"><ele>356.2</ele><time>2026-03-28T15:37:59Z</time></trkpt><trkpt lat="45.61276312536217" lon="10.727277561923442"><ele>357.4</ele><time>2026-03-28T15:38:00Z</time></trkpt><trkpt lat="45.61270653592008" lon="10.72720746937734"><ele>358.6</ele><time>2026-03-28T15:38:01Z</time></trkpt><trkpt lat="45.61265632667823" lon="10.727048312103246"><ele>359.8</ele><time>2026-03-28T15:38:03Z</time></trkpt><trkpt lat="45.612610428753115" lon="10.726936389273867"><ele>361.0</ele><time>2026-03-28T15:38:04Z</time></trkpt><trkpt lat="45.6125472493294" lon="10.726821218678793"><ele>362.4</ele><time>2026-03-28T15:38:05Z</time></trkpt><trkpt lat="45.61246766376573" lon="10.7266916983133"><ele>363.8</ele><time>2026-03-28T15:38:06Z</time></trkpt><trkpt lat="45.61238013566673" lon="10.726574151425606"><ele>365.2</ele><time>2026-03-28T15:38:07Z</time></trkpt><trkpt lat="45.61230675784975" lon="10.726475319667788"><ele>366.59999999999997</ele><time>2026-03-28T15:38:08Z</time></trkpt><trkpt lat="45.612249427836254" lon="10.726392522604012"><ele>368.0</ele><time>2026-03-28T15:38:09Z</time></trkpt><trkpt lat="45.61219738291726" lon="10.726305084947182"><ele>368.0</ele><time>2026-03-28T15:38:10Z</time></trkpt><trkpt lat="45.61215660479102" lon="10.726229101795695"><ele>368.0</ele><time>2026-03-28T15:38:11Z</time></trkpt><trkpt lat="45.612115127491705" lon="10.726135824689205"><ele>368.0</ele><time>2026-03-28T15:38:12Z</time></trkpt><trkpt lat="45.61207757945952" lon="10.726052487668241"><ele>368.0</ele><time>2026-03-28T15:38:13Z</time></trkpt><trkpt lat="45.61209976374142" lon="10.725957530027213"><ele>368.0</ele><time>2026-03-28T15:38:14Z</time></trkpt><trkpt lat="45.61217749323933" lon="10.725837822470092"><ele>368.0</ele><time>2026-03-28T15:38:16Z</time></trkpt><trkpt lat="45.612244064650355" lon="10.725790549781635"><ele>369.0</ele><time>2026-03-28T15:38:17Z</time></trkpt><trkpt lat="45.61233404510067" lon="10.725702425430445"><ele>370.0</ele><time>2026-03-28T15:38:18Z</time></trkpt><trkpt lat="45.612392359736525" lon="10.725621923792193"><ele>371.0</ele><time>2026-03-28T15:38:19Z</time></trkpt><trkpt lat="45.61244050517334" lon="10.725526462560467"><ele>372.0</ele><time>2026-03-28T15:38:20Z</time></trkpt><trkpt lat="45.61249999843179" lon="10.725427235477547"><ele>373.0</ele><time>2026-03-28T15:38:21Z</time></trkpt><trkpt lat="45.61259308388829" lon="10.725370136238837"><ele>373.0</ele><time>2026-03-28T15:38:22Z</time></trkpt><trkpt lat="45.61267013439806" lon="10.72525782890525"><ele>373.0</ele><time>2026-03-28T15:38:23Z</time></trkpt><trkpt lat="45.612751924575235" lon="10.725169524924288"><ele>373.0</ele><time>2026-03-28T15:38:24Z</time></trkpt><trkpt lat="45.6128005816431" lon="10.725092939110224"><ele>373.0</ele><time>2026-03-28T15:38:25Z</time></trkpt><trkpt lat="45.61284382686008" lon="10.724998186433318"><ele>373.0</ele><time>2026-03-28T15:38:26Z</time></trkpt><trkpt lat="45.6128631962295" lon="10.724900368115422"><ele>373.0</ele><time>2026-03-28T15:38:27Z</time></trkpt><trkpt lat="45.612823044184196" lon="10.72472562581636"><ele>372.0</ele><time>2026-03-28T15:38:29Z</time></trkpt><trkpt lat="45.61272390391802" lon="10.72466862544859"><ele>371.0</ele><time>2026-03-28T15:38:30Z</time></trkpt><trkpt lat="45.612628437204535" lon="10.724660029418459"><ele>370.0</ele><time>2026-03-28T15:38:31Z</time></trkpt><trkpt lat="45.612527491472726" lon="10.724657719485673"><ele>369.0</ele><time>2026-03-28T15:38:32Z</time></trkpt><trkpt lat="45.61241336760138" lon="10.72463780709415"><ele>368.0</ele><time>2026-03-28T15:38:33Z</time></trkpt><trkpt lat="45.612298659857785" lon="10.724639082862657"><ele>368.0</ele><time>2026-03-28T15:38:34Z</time></trkpt><trkpt lat="45.612192816921215" lon="10.724643276913794"><ele>368.0</ele><time>2026-03-28T15:38:35Z</time></trkpt><trkpt lat="45.61208758387044" lon="10.724671847236337"><ele>368.0</ele><time>2026-03-28T15:38:36Z</time></trkpt><trkpt lat="45.61199051595624" lon="10.72475240442569"><ele>368.0</ele><time>2026-03-28T15:38:37Z</time></trkpt><trkpt lat="45.611870373013105" lon="10.724784305394639"><ele>368.0</ele><time>2026-03-28T15:38:38Z</time></trkpt><trkpt lat="45.611761696422455" lon="10.724824630120917"><ele>365.59999999999997</ele><time>2026-03-28T15:38:39Z</time></trkpt><trkpt lat="45.611658057441126" lon="10.72486763558494"><ele>363.2</ele><time>2026-03-28T15:38:40Z</time></trkpt><trkpt lat="45.61154999151782" lon="10.724919987500941"><ele>360.8</ele><time>2026-03-28T15:38:41Z</time></trkpt><trkpt lat="45.61144801685481" lon="10.724990418461033"><ele>358.4</ele><time>2026-03-28T15:38:42Z</time></trkpt><trkpt lat="45.611354526735035" lon="10.725002299231416"><ele>356.0</ele><time>2026-03-28T15:38:43Z</time></trkpt><trkpt lat="45.61128294949158" lon="10.725051337239561"><ele>356.0</ele><time>2026-03-28T15:38:44Z</time></trkpt><trkpt lat="45.61120302638071" lon="10.725083109966722"><ele>356.0</ele><time>2026-03-28T15:38:46Z</time></trkpt><trkpt lat="45.61116552988134" lon="10.724999225937625"><ele>356.0</ele><time>2026-03-28T15:38:48Z</time></trkpt><trkpt lat="45.61108439085743" lon="10.725120007131665"><ele>356.0</ele><time>2026-03-28T15:38:49Z</time></trkpt><trkpt lat="45.61094570750099" lon="10.725176315359557"><ele>356.0</ele><time>2026-03-28T15:38:50Z</time></trkpt><trkpt lat="45.61077267652333" lon="10.725194425961039"><ele>354.0</ele><time>2026-03-28T15:38:51Z</time></trkpt><trkpt lat="45.61060688685375" lon="10.725190049428264"><ele>352.0</ele><time>2026-03-28T15:38:52Z</time></trkpt><trkpt lat="45.61042430923565" lon="10.725157069399312"><ele>350.0</ele><time>2026-03-28T15:38:53Z</time></trkpt><trkpt lat="45.6102487175406" lon="10.725124503472935"><ele>347.6666666666667</ele><time>2026-03-28T15:38:54Z</time></trkpt><trkpt lat="45.61007602711796" lon="10.725092344278494"><ele>345.3333333333333</ele><time>2026-03-28T15:38:55Z</time></trkpt><trkpt lat="45.609901909226394" lon="10.725096672704156"><ele>343.0</ele><time>2026-03-28T15:38:56Z</time></trkpt><trkpt lat="45.60973387972763" lon="10.725106713256269"><ele>343.0</ele><time>2026-03-28T15:38:57Z</time></trkpt><trkpt lat="45.60957149365251" lon="10.72510396882259"><ele>343.0</ele><time>2026-03-28T15:38:58Z</time></trkpt><trkpt lat="45.60940795817746" lon="10.72512740063213"><ele>343.0</ele><time>2026-03-28T15:38:59Z</time></trkpt><trkpt lat="45.60925942295236" lon="10.725149273289055"><ele>341.5</ele><time>2026-03-28T15:39:00Z</time></trkpt><trkpt lat="45.60912791086247" lon="10.725168212047556"><ele>340.0</ele><time>2026-03-28T15:39:01Z</time></trkpt><trkpt lat="45.6090116944003" lon="10.72520528387825"><ele>338.5</ele><time>2026-03-28T15:39:02Z</time></trkpt><trkpt lat="45.608890075270445" lon="10.72521283509328"><ele>337.0</ele><time>2026-03-28T15:39:03Z</time></trkpt><trkpt lat="45.60876990016991" lon="10.725235752898094"><ele>336.5</ele><time>2026-03-28T15:39:04Z</time></trkpt><trkpt lat="45.608665681337975" lon="10.725252068744181"><ele>336.0</ele><time>2026-03-28T15:39:05Z</time></trkpt><trkpt lat="45.6085813956669" lon="10.725266489330352"><ele>335.5</ele><time>2026-03-28T15:39:06Z</time></trkpt><trkpt lat="45.60850000569699" lon="10.725292567027449"><ele>335.0</ele><time>2026-03-28T15:39:07Z</time></trkpt><trkpt lat="45.60844157164115" lon="10.725368144951773"><ele>334.5</ele><time>2026-03-28T15:39:08Z</time></trkpt><trkpt lat="45.60840914143264" lon="10.725482108854534"><ele>334.0</ele><time>2026-03-28T15:39:09Z</time></trkpt><trkpt lat="45.60841431519054" lon="10.725594731392887"><ele>334.0</ele><time>2026-03-28T15:39:10Z</time></trkpt><trkpt lat="45.60845689658472" lon="10.725699491214458"><ele>334.0</ele><time>2026-03-28T15:39:11Z</time></trkpt><trkpt lat="45.60853127525079" lon="10.72579356300135"><ele>334.0</ele><time>2026-03-28T15:39:12Z</time></trkpt><trkpt lat="45.6086245457629" lon="10.72581767464712"><ele>334.0</ele><time>2026-03-28T15:39:13Z</time></trkpt><trkpt lat="45.60871928774135" lon="10.725764699640294"><ele>334.0</ele><time>2026-03-28T15:39:14Z</time></trkpt><trkpt lat="45.60880683215948" lon="10.725676493470528"><ele>334.0</ele><time>2026-03-28T15:39:15Z</time></trkpt><trkpt lat="45.608883719587666" lon="10.725619905992295"><ele>334.0</ele><time>2026-03-28T15:39:16Z</time></trkpt><trkpt lat="45.60894407382987" lon="10.725587909749496"><ele>334.0</ele><time>2026-03-28T15:39:17Z</time></trkpt><trkpt lat="45.60901710504725" lon="10.72563772692196"><ele>334.0</ele><time>2026-03-28T15:39:19Z</time></trkpt><trkpt lat="45.608994838046875" lon="10.725725361497513"><ele>334.0</ele><time>2026-03-28T15:39:20Z</time></trkpt><trkpt lat="45.60892358851028" lon="10.725814799894884"><ele>334.0</ele><time>2026-03-28T15:39:21Z</time></trkpt><trkpt lat="45.608804722759444" lon="10.725837357331926"><ele>334.0</ele><time>2026-03-28T15:39:22Z</time></trkpt><trkpt lat="45.6086804423305" lon="10.725903191024216"><ele>334.0</ele><time>2026-03-28T15:39:23Z</time></trkpt><trkpt lat="45.608565700146286" lon="10.72596868069568"><ele>334.0</ele><time>2026-03-28T15:39:24Z</time></trkpt><trkpt lat="45.60847296866833" lon="10.726035200324212"><ele>334.0</ele><time>2026-03-28T15:39:25Z</time></trkpt><trkpt lat="45.608357824657794" lon="10.726093101004196"><ele>331.25</ele><time>2026-03-28T15:39:26Z</time></trkpt><trkpt lat="45.60824352626624" lon="10.726182639089707"><ele>328.5</ele><time>2026-03-28T15:39:27Z</time></trkpt><trkpt lat="45.608121266700415" lon="10.726246175717474"><ele>325.75</ele><time>2026-03-28T15:39:28Z</time></trkpt><trkpt lat="45.60799472059218" lon="10.726260288536118"><ele>323.0</ele><time>2026-03-28T15:39:29Z</time></trkpt><trkpt lat="45.6078686681664" lon="10.726275674695362"><ele>322.0</ele><time>2026-03-28T15:39:30Z</time></trkpt><trkpt lat="45.60775197870324" lon="10.726295640884915"><ele>321.0</ele><time>2026-03-28T15:39:31Z</time></trkpt><trkpt lat="45.607627071363794" lon="10.726296367990907"><ele>320.0</ele><time>2026-03-28T15:39:32Z</time></trkpt><trkpt lat="45.607500534779604" lon="10.72630232733854"><ele>319.0</ele><time>2026-03-28T15:39:33Z</time></trkpt><trkpt lat="45.60736803481021" lon="10.726320805957021"><ele>319.0</ele><time>2026-03-28T15:39:34Z</time></trkpt><trkpt lat="45.60724865488583" lon="10.726319924539276"><ele>319.0</ele><time>2026-03-28T15:39:35Z</time></trkpt><trkpt lat="45.607136861653125" lon="10.726339205444933"><ele>319.0</ele><time>2026-03-28T15:39:36Z</time></trkpt><trkpt lat="45.60703503046083" lon="10.72637113385491"><ele>319.0</ele><time>2026-03-28T15:39:37Z</time></trkpt><trkpt lat="45.60694968669179" lon="10.726421340901672"><ele>319.0</ele><time>2026-03-28T15:39:38Z</time></trkpt><trkpt lat="45.60687046259822" lon="10.726487301795343"><ele>318.7142857142857</ele><time>2026-03-28T15:39:39Z</time></trkpt><trkpt lat="45.606808238717946" lon="10.726558939033584"><ele>318.4285714285714</ele><time>2026-03-28T15:39:40Z</time></trkpt><trkpt lat="45.60675902123465" lon="10.7266254424443"><ele>318.1428571428571</ele><time>2026-03-28T15:39:41Z</time></trkpt><trkpt lat="45.60670573302713" lon="10.72669620665553"><ele>317.8571428571429</ele><time>2026-03-28T15:39:42Z</time></trkpt><trkpt lat="45.60664365682685" lon="10.726777588496924"><ele>317.57142857142856</ele><time>2026-03-28T15:39:43Z</time></trkpt><trkpt lat="45.606568156367615" lon="10.726786990337022"><ele>317.2857142857143</ele><time>2026-03-28T15:39:45Z</time></trkpt><trkpt lat="45.606559971772796" lon="10.726693323761287"><ele>317.0</ele><time>2026-03-28T15:39:47Z</time></trkpt><trkpt lat="45.60653400270501" lon="10.726572582330116"><ele>317.0</ele><time>2026-03-28T15:39:48Z</time></trkpt><trkpt lat="45.606519143191846" lon="10.726400281598766"><ele>317.0</ele><time>2026-03-28T15:39:49Z</time></trkpt><trkpt lat="45.60650514908062" lon="10.726179190590807"><ele>317.0</ele><time>2026-03-28T15:39:50Z</time></trkpt><trkpt lat="45.606461200940146" lon="10.725949735371229"><ele>317.0</ele><time>2026-03-28T15:39:51Z</time></trkpt><trkpt lat="45.60643504188379" lon="10.725730734739598"><ele>316.33333333333337</ele><time>2026-03-28T15:39:52Z</time></trkpt><trkpt lat="45.60642698640134" lon="10.725504156812168"><ele>315.6666666666667</ele><time>2026-03-28T15:39:53Z</time></trkpt><trkpt lat="45.60646811673881" lon="10.725286120397794"><ele>315.0</ele><time>2026-03-28T15:39:54Z</time></trkpt><trkpt lat="45.60650602837085" lon="10.72509707793303"><ele>313.3333333333333</ele><time>2026-03-28T15:39:55Z</time></trkpt><trkpt lat="45.60656584019719" lon="10.724904843670279"><ele>311.66666666666663</ele><time>2026-03-28T15:39:56Z</time></trkpt><trkpt lat="45.60665546029687" lon="10.724668201231486"><ele>310.0</ele><time>2026-03-28T15:39:57Z</time></trkpt><trkpt lat="45.60675665494943" lon="10.724410197288458"><ele>308.25</ele><time>2026-03-28T15:39:58Z</time></trkpt><trkpt lat="45.60685330533925" lon="10.72420633144858"><ele>306.5</ele><time>2026-03-28T15:39:59Z</time></trkpt><trkpt lat="45.60691271662859" lon="10.724042413143643"><ele>304.75</ele><time>2026-03-28T15:40:00Z</time></trkpt><trkpt lat="45.60693369989005" lon="10.723905167579804"><ele>303.0</ele><time>2026-03-28T15:40:01Z</time></trkpt><trkpt lat="45.60696092678856" lon="10.723757273159435"><ele>302.6666666666667</ele><time>2026-03-28T15:40:02Z</time></trkpt><trkpt lat="45.60683694448988" lon="10.723542971796256"><ele>302.33333333333337</ele><time>2026-03-28T15:40:03Z</time></trkpt><trkpt lat="45.60682761879791" lon="10.723308609248198"><ele>302.0</ele><time>2026-03-28T15:40:04Z</time></trkpt><trkpt lat="45.60680707540396" lon="10.723084188231553"><ele>302.0</ele><time>2026-03-28T15:40:05Z</time></trkpt><trkpt lat="45.60677031944812" lon="10.722905729634332"><ele>302.0</ele><time>2026-03-28T15:40:06Z</time></trkpt><trkpt lat="45.60669953766378" lon="10.72275682244836"><ele>302.0</ele><time>2026-03-28T15:40:07Z</time></trkpt><trkpt lat="45.60654671912895" lon="10.722676532712937"><ele>302.0</ele><time>2026-03-28T15:40:08Z</time></trkpt><trkpt lat="45.606363291335555" lon="10.722575327596319"><ele>305.33333333333337</ele><time>2026-03-28T15:40:09Z</time></trkpt><trkpt lat="45.60616754431211" lon="10.722492391100602"><ele>308.6666666666667</ele><time>2026-03-28T15:40:10Z</time></trkpt><trkpt lat="45.60595189771778" lon="10.72245285265744"><ele>312.0</ele><time>2026-03-28T15:40:11Z</time></trkpt><trkpt lat="45.60573549180688" lon="10.722414618874962"><ele>312.5</ele><time>2026-03-28T15:40:12Z</time></trkpt><trkpt lat="45.60556696986382" lon="10.722370929551092"><ele>313.0</ele><time>2026-03-28T15:40:13Z</time></trkpt><trkpt lat="45.60544896809468" lon="10.72231003575095"><ele>313.5</ele><time>2026-03-28T15:40:14Z</time></trkpt><trkpt lat="45.605375101073854" lon="10.722281915580709"><ele>314.0</ele><time>2026-03-28T15:40:15Z</time></trkpt><trkpt lat="45.60531704901243" lon="10.722120639581169"><ele>314.0</ele><time>2026-03-28T15:40:17Z</time></trkpt><trkpt lat="45.60528819756953" lon="10.721981146365975"><ele>314.0</ele><time>2026-03-28T15:40:18Z</time></trkpt><trkpt lat="45.60527238366123" lon="10.721883129170882"><ele>314.0</ele><time>2026-03-28T15:40:19Z</time></trkpt><trkpt lat="45.605297876190065" lon="10.721714512420773"><ele>314.0</ele><time>2026-03-28T15:40:21Z</time></trkpt><trkpt lat="45.60536596763764" lon="10.721606949779511"><ele>314.0</ele><time>2026-03-28T15:40:22Z</time></trkpt><trkpt lat="45.60545464633256" lon="10.721483791110654"><ele>316.79999999999995</ele><time>2026-03-28T15:40:23Z</time></trkpt><trkpt lat="45.6055326937194" lon="10.721379549813568"><ele>319.59999999999997</ele><time>2026-03-28T15:40:24Z</time></trkpt><trkpt lat="45.60561087636023" lon="10.721327014448931"><ele>322.4</ele><time>2026-03-28T15:40:25Z</time></trkpt><trkpt lat="45.60571423501328" lon="10.721298712299577"><ele>325.2</ele><time>2026-03-28T15:40:26Z</time></trkpt><trkpt lat="45.605837566720645" lon="10.721280906735556"><ele>328.0</ele><time>2026-03-28T15:40:27Z</time></trkpt><trkpt lat="45.605946163498906" lon="10.721216219551051"><ele>328.0</ele><time>2026-03-28T15:40:28Z</time></trkpt><trkpt lat="45.60602220637287" lon="10.721134956218172"><ele>328.0</ele><time>2026-03-28T15:40:29Z</time></trkpt><trkpt lat="45.60606962231129" lon="10.7210258007238"><ele>328.0</ele><time>2026-03-28T15:40:30Z</time></trkpt><trkpt lat="45.606108516467515" lon="10.720889060372752"><ele>328.0</ele><time>2026-03-28T15:40:31Z</time></trkpt><trkpt lat="45.606137100813434" lon="10.720697167695885"><ele>328.0</ele><time>2026-03-28T15:40:32Z</time></trkpt><trkpt lat="45.60617569219647" lon="10.720527188988193"><ele>330.0</ele><time>2026-03-28T15:40:33Z</time></trkpt><trkpt lat="45.6062477114266" lon="10.720413609766833"><ele>332.0</ele><time>2026-03-28T15:40:34Z</time></trkpt><trkpt lat="45.60631875642238" lon="10.720284815594674"><ele>334.0</ele><time>2026-03-28T15:40:35Z</time></trkpt><trkpt lat="45.60641964581126" lon="10.720179555202034"><ele>336.0</ele><time>2026-03-28T15:40:36Z</time></trkpt><trkpt lat="45.60652551116997" lon="10.720087763746273"><ele>337.0</ele><time>2026-03-28T15:40:37Z</time></trkpt><trkpt lat="45.6066256057223" lon="10.720014085918132"><ele>338.0</ele><time>2026-03-28T15:40:38Z</time></trkpt><trkpt lat="45.60670454437359" lon="10.719943153515985"><ele>339.0</ele><time>2026-03-28T15:40:39Z</time></trkpt><trkpt lat="45.60674947189248" lon="10.719852986389844"><ele>340.0</ele><time>2026-03-28T15:40:40Z</time></trkpt><trkpt lat="45.60675784772834" lon="10.719744118486222"><ele>341.0</ele><time>2026-03-28T15:40:41Z</time></trkpt><trkpt lat="45.60678085059766" lon="10.719622742862745"><ele>342.0</ele><time>2026-03-28T15:40:42Z</time></trkpt><trkpt lat="45.60672428816876" lon="10.719515031351646"><ele>342.0</ele><time>2026-03-28T15:40:43Z</time></trkpt><trkpt lat="45.60669694358278" lon="10.71940426664101"><ele>342.0</ele><time>2026-03-28T15:40:45Z</time></trkpt><trkpt lat="45.60665104462121" lon="10.719293818298555"><ele>342.0</ele><time>2026-03-28T15:40:47Z</time></trkpt><trkpt lat="45.60662264055317" lon="10.71917289977539"><ele>342.0</ele><time>2026-03-28T15:40:50Z</time></trkpt><trkpt lat="45.606618932224485" lon="10.71907229660082"><ele>342.0</ele><time>2026-03-28T15:40:53Z</time></trkpt><trkpt lat="45.606837754128016" lon="10.71899603806249"><ele>342.6666666666667</ele><time>2026-03-28T15:40:54Z</time></trkpt><trkpt lat="45.60689264255701" lon="10.718943341756718"><ele>343.3333333333333</ele><time>2026-03-28T15:40:55Z</time></trkpt><trkpt lat="45.60699129727985" lon="10.718823545062142"><ele>344.0</ele><time>2026-03-28T15:40:57Z</time></trkpt><trkpt lat="45.60706425880197" lon="10.71875179673091"><ele>344.66666666666663</ele><time>2026-03-28T15:40:58Z</time></trkpt><trkpt lat="45.60714533018613" lon="10.718701446844243"><ele>345.3333333333333</ele><time>2026-03-28T15:40:59Z</time></trkpt><trkpt lat="45.607206552872015" lon="10.71866357414618"><ele>346.0</ele><time>2026-03-28T15:41:00Z</time></trkpt><trkpt lat="45.607317120821534" lon="10.718555610073073"><ele>349.4</ele><time>2026-03-28T15:41:02Z</time></trkpt><trkpt lat="45.60739737639835" lon="10.718456559639524"><ele>352.8</ele><time>2026-03-28T15:41:04Z</time></trkpt><trkpt lat="45.60738920723381" lon="10.718316135784475"><ele>356.2</ele><time>2026-03-28T15:41:06Z</time></trkpt><trkpt lat="45.607375207401745" lon="10.718171826953764"><ele>359.59999999999997</ele><time>2026-03-28T15:41:07Z</time></trkpt><trkpt lat="45.607353811542204" lon="10.718017564645766"><ele>363.0</ele><time>2026-03-28T15:41:08Z</time></trkpt><trkpt lat="45.60733291605475" lon="10.717871493636624"><ele>363.0</ele><time>2026-03-28T15:41:09Z</time></trkpt><trkpt lat="45.60732460088193" lon="10.717769798932176"><ele>363.0</ele><time>2026-03-28T15:41:10Z</time></trkpt><trkpt lat="45.6073155489443" lon="10.717668316059378"><ele>363.0</ele><time>2026-03-28T15:41:12Z</time></trkpt><trkpt lat="45.6072754455777" lon="10.717584660501956"><ele>363.0</ele><time>2026-03-28T15:41:14Z</time></trkpt><trkpt lat="45.607254604051924" lon="10.717435566904117"><ele>363.0</ele><time>2026-03-28T15:41:16Z</time></trkpt><trkpt lat="45.60721994888048" lon="10.717305562352907"><ele>363.0</ele><time>2026-03-28T15:41:18Z</time></trkpt><trkpt lat="45.60724197901166" lon="10.717149504685745"><ele>362.59999999999997</ele><time>2026-03-28T15:41:21Z</time></trkpt><trkpt lat="45.60731261693757" lon="10.717094240858618"><ele>362.2</ele><time>2026-03-28T15:41:24Z</time></trkpt><trkpt lat="45.60741697384023" lon="10.717108311943239"><ele>361.8</ele><time>2026-03-28T15:41:27Z</time></trkpt><trkpt lat="45.6074899873845" lon="10.717128981508084"><ele>361.4</ele><time>2026-03-28T15:41:29Z</time></trkpt><trkpt lat="45.60761922630588" lon="10.717128893160433"><ele>361.0</ele><time>2026-03-28T15:41:31Z</time></trkpt><trkpt lat="45.60770178234124" lon="10.71711915979274"><ele>361.0</ele><time>2026-03-28T15:41:32Z</time></trkpt><trkpt lat="45.607773550460145" lon="10.717126954427725"><ele>361.0</ele><time>2026-03-28T15:41:33Z</time></trkpt><trkpt lat="45.607836600985706" lon="10.71714138686423"><ele>361.0</ele><time>2026-03-28T15:41:34Z</time></trkpt><trkpt lat="45.607903367190474" lon="10.717142318016913"><ele>361.0</ele><time>2026-03-28T15:41:35Z</time></trkpt><trkpt lat="45.60797403820515" lon="10.717140473177983"><ele>361.0</ele><time>2026-03-28T15:41:37Z</time></trkpt><trkpt lat="45.60805369946851" lon="10.717154145185049"><ele>361.0</ele><time>2026-03-28T15:41:39Z</time></trkpt><trkpt lat="45.60813357656984" lon="10.717151255277763"><ele>361.0</ele><time>2026-03-28T15:41:41Z</time></trkpt><trkpt lat="45.608213741884065" lon="10.717141299738072"><ele>363.3333333333333</ele><time>2026-03-28T15:41:43Z</time></trkpt><trkpt lat="45.60829905999625" lon="10.717157240646756"><ele>365.66666666666663</ele><time>2026-03-28T15:41:45Z</time></trkpt><trkpt lat="45.60839460741511" lon="10.717201399434076"><ele>368.0</ele><time>2026-03-28T15:41:47Z</time></trkpt><trkpt lat="45.608515263947076" lon="10.717185043567419"><ele>370.3333333333333</ele><time>2026-03-28T15:41:50Z</time></trkpt><trkpt lat="45.608588256712444" lon="10.717172619330425"><ele>372.6666666666667</ele><time>2026-03-28T15:41:51Z</time></trkpt><trkpt lat="45.60865418988957" lon="10.717150380213399"><ele>375.0</ele><time>2026-03-28T15:41:52Z</time></trkpt><trkpt lat="45.60871853455976" lon="10.71711732545963"><ele>376.0</ele><time>2026-03-28T15:41:53Z</time></trkpt><trkpt lat="45.60879324825479" lon="10.717052317448886"><ele>377.0</ele><time>2026-03-28T15:41:54Z</time></trkpt><trkpt lat="45.60888921481027" lon="10.716980381675949"><ele>378.0</ele><time>2026-03-28T15:41:55Z</time></trkpt><trkpt lat="45.608982124628234" lon="10.716917663467823"><ele>379.0</ele><time>2026-03-28T15:41:56Z</time></trkpt><trkpt lat="45.609071053022845" lon="10.716865751340169"><ele>380.0</ele><time>2026-03-28T15:41:57Z</time></trkpt><trkpt lat="45.60915632243737" lon="10.716828637548591"><ele>380.0</ele><time>2026-03-28T15:41:58Z</time></trkpt><trkpt lat="45.60924593860361" lon="10.716813225095025"><ele>380.0</ele><time>2026-03-28T15:41:59Z</time></trkpt><trkpt lat="45.60933259715243" lon="10.71678262153969"><ele>380.0</ele><time>2026-03-28T15:42:00Z</time></trkpt><trkpt lat="45.60940065300527" lon="10.716761735918707"><ele>380.0</ele><time>2026-03-28T15:42:01Z</time></trkpt><trkpt lat="45.609492831972155" lon="10.716722476334299"><ele>380.0</ele><time>2026-03-28T15:42:02Z</time></trkpt><trkpt lat="45.60958712274089" lon="10.716683739883225"><ele>380.0</ele><time>2026-03-28T15:42:03Z</time></trkpt><trkpt lat="45.60969040755682" lon="10.716655839864877"><ele>383.4</ele><time>2026-03-28T15:42:04Z</time></trkpt><trkpt lat="45.60980003198326" lon="10.7166333213138"><ele>386.8</ele><time>2026-03-28T15:42:05Z</time></trkpt><trkpt lat="45.609898678303665" lon="10.716622671450876"><ele>390.20000000000005</ele><time>2026-03-28T15:42:06Z</time></trkpt><trkpt lat="45.610002907647164" lon="10.716598483358583"><ele>393.6</ele><time>2026-03-28T15:42:07Z</time></trkpt><trkpt lat="45.61011456184699" lon="10.716549746338105"><ele>397.0</ele><time>2026-03-28T15:42:08Z</time></trkpt><trkpt lat="45.610211652588184" lon="10.716487666379663"><ele>397.0</ele><time>2026-03-28T15:42:09Z</time></trkpt><trkpt lat="45.61029653912993" lon="10.716448926206493"><ele>397.0</ele><time>2026-03-28T15:42:10Z</time></trkpt><trkpt lat="45.610391324030545" lon="10.716416309807643"><ele>397.0</ele><time>2026-03-28T15:42:11Z</time></trkpt><trkpt lat="45.610498580042034" lon="10.71636572027387"><ele>397.0</ele><time>2026-03-28T15:42:12Z</time></trkpt><trkpt lat="45.61061629495516" lon="10.716321554423777"><ele>397.0</ele><time>2026-03-28T15:42:13Z</time></trkpt><trkpt lat="45.61074295385676" lon="10.716289309871717"><ele>399.0</ele><time>2026-03-28T15:42:14Z</time></trkpt><trkpt lat="45.61085598852572" lon="10.7162585773124"><ele>401.0</ele><time>2026-03-28T15:42:15Z</time></trkpt><trkpt lat="45.61094136645002" lon="10.7162331175051"><ele>403.0</ele><time>2026-03-28T15:42:16Z</time></trkpt><trkpt lat="45.61104928686021" lon="10.716198621560183"><ele>405.0</ele><time>2026-03-28T15:42:17Z</time></trkpt><trkpt lat="45.611140376417616" lon="10.716179779096299"><ele>407.0</ele><time>2026-03-28T15:42:18Z</time></trkpt><trkpt lat="45.611241601000465" lon="10.716139941102835"><ele>408.8</ele><time>2026-03-28T15:42:19Z</time></trkpt><trkpt lat="45.61132915557747" lon="10.716104589377188"><ele>410.6</ele><time>2026-03-28T15:42:20Z</time></trkpt><trkpt lat="45.611432669258726" lon="10.716064566116518"><ele>412.40000000000003</ele><time>2026-03-28T15:42:21Z</time></trkpt><trkpt lat="45.611533324015525" lon="10.71601589058972"><ele>414.20000000000005</ele><time>2026-03-28T15:42:22Z</time></trkpt><trkpt lat="45.6116175605937" lon="10.715968502379088"><ele>416.0</ele><time>2026-03-28T15:42:23Z</time></trkpt><trkpt lat="45.611689219978444" lon="10.71594632629233"><ele>412.66666666666663</ele><time>2026-03-28T15:42:24Z</time></trkpt><trkpt lat="45.61177094783194" lon="10.715928594061666"><ele>409.3333333333333</ele><time>2026-03-28T15:42:25Z</time></trkpt><trkpt lat="45.611845031889516" lon="10.715898236102843"><ele>406.0</ele><time>2026-03-28T15:42:26Z</time></trkpt><trkpt lat="45.611931681021275" lon="10.715867153731773"><ele>402.66666666666663</ele><time>2026-03-28T15:42:27Z</time></trkpt><trkpt lat="45.612008190419644" lon="10.715822538147815"><ele>399.3333333333333</ele><time>2026-03-28T15:42:28Z</time></trkpt><trkpt lat="45.61208542480012" lon="10.715811306920733"><ele>396.0</ele><time>2026-03-28T15:42:29Z</time></trkpt><trkpt lat="45.61215239917696" lon="10.71582421862649"><ele>395.6</ele><time>2026-03-28T15:42:30Z</time></trkpt><trkpt lat="45.612244643859015" lon="10.715872963242436"><ele>395.20000000000005</ele><time>2026-03-28T15:42:31Z</time></trkpt><trkpt lat="45.61234670633498" lon="10.71594621445374"><ele>394.79999999999995</ele><time>2026-03-28T15:42:32Z</time></trkpt><trkpt lat="45.612450188809184" lon="10.71599596554689"><ele>394.4</ele><time>2026-03-28T15:42:33Z</time></trkpt><trkpt lat="45.612537938761726" lon="10.716016154540016"><ele>394.0</ele><time>2026-03-28T15:42:34Z</time></trkpt><trkpt lat="45.61261798615344" lon="10.716006363703874"><ele>394.0</ele><time>2026-03-28T15:42:35Z</time></trkpt><trkpt lat="45.61270747737263" lon="10.715956551509832"><ele>394.0</ele><time>2026-03-28T15:42:36Z</time></trkpt><trkpt lat="45.61279296049753" lon="10.715917916088648"><ele>394.0</ele><time>2026-03-28T15:42:37Z</time></trkpt><trkpt lat="45.612890251424325" lon="10.71595816207285"><ele>394.0</ele><time>2026-03-28T15:42:39Z</time></trkpt><trkpt lat="45.61298227941766" lon="10.716081765245727"><ele>394.0</ele><time>2026-03-28T15:42:41Z</time></trkpt><trkpt lat="45.613037435397224" lon="10.716156744544843"><ele>393.0</ele><time>2026-03-28T15:42:42Z</time></trkpt><trkpt lat="45.61314467956042" lon="10.716195631148137"><ele>392.0</ele><time>2026-03-28T15:42:44Z</time></trkpt><trkpt lat="45.613228660076594" lon="10.716163249878186"><ele>391.0</ele><time>2026-03-28T15:42:45Z</time></trkpt><trkpt lat="45.61335349171715" lon="10.71611001011939"><ele>390.0</ele><time>2026-03-28T15:42:46Z</time></trkpt><trkpt lat="45.613478297866514" lon="10.716056521767397"><ele>390.0</ele><time>2026-03-28T15:42:47Z</time></trkpt><trkpt lat="45.61355503877839" lon="10.715998679100089"><ele>390.0</ele><time>2026-03-28T15:42:48Z</time></trkpt><trkpt lat="45.61368281615631" lon="10.716025512889894"><ele>390.0</ele><time>2026-03-28T15:42:50Z</time></trkpt><trkpt lat="45.613756611745416" lon="10.716053770034458"><ele>390.0</ele><time>2026-03-28T15:42:51Z</time></trkpt><trkpt lat="45.61385137993402" lon="10.716067351691835"><ele>390.0</ele><time>2026-03-28T15:42:52Z</time></trkpt><trkpt lat="45.613935127456244" lon="10.71608236449196"><ele>391.6666666666667</ele><time>2026-03-28T15:42:53Z</time></trkpt><trkpt lat="45.61402474907035" lon="10.716121710701332"><ele>393.33333333333337</ele><time>2026-03-28T15:42:54Z</time></trkpt><trkpt lat="45.614116663987716" lon="10.71617539075974"><ele>395.0</ele><time>2026-03-28T15:42:55Z</time></trkpt><trkpt lat="45.614191474332614" lon="10.71621138224441"><ele>396.6666666666667</ele><time>2026-03-28T15:42:56Z</time></trkpt><trkpt lat="45.61425613741509" lon="10.716193300542734"><ele>398.33333333333337</ele><time>2026-03-28T15:42:58Z</time></trkpt><trkpt lat="45.61432882491865" lon="10.716165110855435"><ele>400.0</ele><time>2026-03-28T15:42:59Z</time></trkpt><trkpt lat="45.61441832535434" lon="10.716124987031973"><ele>398.50000000000006</ele><time>2026-03-28T15:43:00Z</time></trkpt><trkpt lat="45.61449176533848" lon="10.716099049007607"><ele>397.0</ele><time>2026-03-28T15:43:01Z</time></trkpt><trkpt lat="45.61455836166558" lon="10.716067934557667"><ele>395.5</ele><time>2026-03-28T15:43:02Z</time></trkpt><trkpt lat="45.61465054045233" lon="10.716028792516786"><ele>394.0</ele><time>2026-03-28T15:43:03Z</time></trkpt><trkpt lat="45.61473707033687" lon="10.715984755006952"><ele>392.50000000000006</ele><time>2026-03-28T15:43:04Z</time></trkpt><trkpt lat="45.61481682004782" lon="10.715907192296495"><ele>391.0</ele><time>2026-03-28T15:43:05Z</time></trkpt><trkpt lat="45.61488808885844" lon="10.71583161925821"><ele>391.0</ele><time>2026-03-28T15:43:06Z</time></trkpt><trkpt lat="45.61495092426128" lon="10.71576454062217"><ele>391.0</ele><time>2026-03-28T15:43:07Z</time></trkpt><trkpt lat="45.6150142829927" lon="10.715700833148732"><ele>391.0</ele><time>2026-03-28T15:43:08Z</time></trkpt><trkpt lat="45.61511311549312" lon="10.715615430103488"><ele>391.0</ele><time>2026-03-28T15:43:10Z</time></trkpt><trkpt lat="45.615240236416604" lon="10.715548202219452"><ele>391.0</ele><time>2026-03-28T15:43:12Z</time></trkpt><trkpt lat="45.615314995915234" lon="10.715514941353662"><ele>392.00000000000006</ele><time>2026-03-28T15:43:13Z</time></trkpt><trkpt lat="45.61539491550709" lon="10.715471349273715"><ele>393.0</ele><time>2026-03-28T15:43:14Z</time></trkpt><trkpt lat="45.615454761374785" lon="10.715419247007807"><ele>394.0</ele><time>2026-03-28T15:43:15Z</time></trkpt><trkpt lat="45.615531598739906" lon="10.715339054105607"><ele>395.0</ele><time>2026-03-28T15:43:18Z</time></trkpt><trkpt lat="45.615591608071234" lon="10.715279987071716"><ele>396.00000000000006</ele><time>2026-03-28T15:43:20Z</time></trkpt><trkpt lat="45.615640904303596" lon="10.715212013621443"><ele>397.0</ele><time>2026-03-28T15:43:22Z</time></trkpt><trkpt lat="45.615681808377936" lon="10.715089718773042"><ele>397.50000000000006</ele><time>2026-03-28T15:43:25Z</time></trkpt><trkpt lat="45.615744925951574" lon="10.714992845939358"><ele>398.0</ele><time>2026-03-28T15:43:27Z</time></trkpt><trkpt lat="45.61576968902041" lon="10.714905310122287"><ele>398.5</ele><time>2026-03-28T15:43:29Z</time></trkpt><trkpt lat="45.61583322707857" lon="10.714794322514756"><ele>399.0</ele><time>2026-03-28T15:43:32Z</time></trkpt><trkpt lat="45.61589000068904" lon="10.714754679836341"><ele>399.50000000000006</ele><time>2026-03-28T15:43:34Z</time></trkpt><trkpt lat="45.61595217561423" lon="10.714672002652602"><ele>400.0</ele><time>2026-03-28T15:43:37Z</time></trkpt><trkpt lat="45.61602593514739" lon="10.714629471043414"><ele>400.00000000000006</ele><time>2026-03-28T15:43:46Z</time></trkpt><trkpt lat="45.616107504740334" lon="10.714615711168753"><ele>400.0</ele><time>2026-03-28T15:43:49Z</time></trkpt><trkpt lat="45.616184727514586" lon="10.714524734601357"><ele>400.0</ele><time>2026-03-28T15:44:02Z</time></trkpt><trkpt lat="45.61627054689432" lon="10.714493833016629"><ele>400.0</ele><time>2026-03-28T15:44:05Z</time></trkpt><trkpt lat="45.61634815401885" lon="10.714440973169513"><ele>400.00000000000006</ele><time>2026-03-28T15:44:07Z</time></trkpt><trkpt lat="45.616431290972876" lon="10.71440774216458"><ele>400.0</ele><time>2026-03-28T15:44:09Z</time></trkpt><trkpt lat="45.616506486847776" lon="10.714397313030648"><ele>401.50000000000006</ele><time>2026-03-28T15:44:11Z</time></trkpt><trkpt lat="45.616580796632164" lon="10.714400567817682"><ele>403.0</ele><time>2026-03-28T15:44:13Z</time></trkpt><trkpt lat="45.61668968618851" lon="10.714410957179314"><ele>404.5</ele><time>2026-03-28T15:44:15Z</time></trkpt><trkpt lat="45.616769539048946" lon="10.71445447946482"><ele>406.0</ele><time>2026-03-28T15:44:17Z</time></trkpt><trkpt lat="45.61683468528117" lon="10.714501411172952"><ele>407.50000000000006</ele><time>2026-03-28T15:44:19Z</time></trkpt><trkpt lat="45.616915061923905" lon="10.714494081175959"><ele>409.0</ele><time>2026-03-28T15:44:22Z</time></trkpt><trkpt lat="45.616979099911184" lon="10.714497963470334"><ele>412.1666666666667</ele><time>2026-03-28T15:44:25Z</time></trkpt><trkpt lat="45.61706794121692" lon="10.714483801409246"><ele>415.33333333333337</ele><time>2026-03-28T15:44:28Z</time></trkpt><trkpt lat="45.6171575198963" lon="10.714465712731434"><ele>418.5</ele><time>2026-03-28T15:44:31Z</time></trkpt><trkpt lat="45.617256386401685" lon="10.714446225101803"><ele>421.66666666666663</ele><time>2026-03-28T15:44:33Z</time></trkpt><trkpt lat="45.61731977185947" lon="10.714425206360092"><ele>424.8333333333333</ele><time>2026-03-28T15:44:35Z</time></trkpt><trkpt lat="45.6173993400594" lon="10.714437991483157"><ele>428.0</ele><time>2026-03-28T15:44:37Z</time></trkpt><trkpt lat="45.617478989306996" lon="10.714448813664005"><ele>428.0</ele><time>2026-03-28T15:44:39Z</time></trkpt><trkpt lat="45.61759057678369" lon="10.714449135017857"><ele>427.99999999999994</ele><time>2026-03-28T15:51:28Z</time></trkpt><trkpt lat="45.61766955761418" lon="10.714466592270096"><ele>427.99999999999994</ele><time>2026-03-28T15:51:29Z</time></trkpt><trkpt lat="45.61776981613014" lon="10.714490048092332"><ele>428.0</ele><time>2026-03-28T15:51:30Z</time></trkpt><trkpt lat="45.61785700618742" lon="10.714499483795942"><ele>428.0</ele><time>2026-03-28T15:51:31Z</time></trkpt><trkpt lat="45.61793357589847" lon="10.714522232836437"><ele>428.59999999999997</ele><time>2026-03-28T15:51:32Z</time></trkpt><trkpt lat="45.617997617836714" lon="10.714456798688586"><ele>429.19999999999993</ele><time>2026-03-28T15:51:34Z</time></trkpt><trkpt lat="45.61806250119458" lon="10.714423890632737"><ele>429.8</ele><time>2026-03-28T15:51:35Z</time></trkpt><trkpt lat="45.61814811009889" lon="10.714348497354148"><ele>430.4</ele><time>2026-03-28T15:51:37Z</time></trkpt><trkpt lat="45.618302895559836" lon="10.714252025802114"><ele>431.0</ele><time>2026-03-28T15:51:39Z</time></trkpt><trkpt lat="45.6183316337741" lon="10.71410279152339"><ele>431.0</ele><time>2026-03-28T15:51:42Z</time></trkpt><trkpt lat="45.61835587748856" lon="10.713976896737497"><ele>431.0</ele><time>2026-03-28T15:51:44Z</time></trkpt><trkpt lat="45.61838337874035" lon="10.713836465241506"><ele>431.0</ele><time>2026-03-28T15:51:46Z</time></trkpt><trkpt lat="45.618407807423694" lon="10.713729562660426"><ele>431.0</ele><time>2026-03-28T15:51:53Z</time></trkpt><trkpt lat="45.61844346456857" lon="10.713605483106486"><ele>431.0</ele><time>2026-03-28T15:51:55Z</time></trkpt><trkpt lat="45.61806569228139" lon="10.713299162226175"><ele>431.0</ele><time>2026-03-28T15:52:02Z</time></trkpt><trkpt lat="45.6179960905902" lon="10.713294631563901"><ele>431.0</ele><time>2026-03-28T15:52:04Z</time></trkpt><trkpt lat="45.618062504855764" lon="10.713303954362633"><ele>431.0</ele><time>2026-03-28T15:52:08Z</time></trkpt><trkpt lat="45.61830777431716" lon="10.713663728112316"><ele>431.0</ele><time>2026-03-28T15:52:09Z</time></trkpt><trkpt lat="45.61815062146096" lon="10.713400851193095"><ele>431.0</ele><time>2026-03-28T15:52:14Z</time></trkpt><trkpt lat="45.618131633684406" lon="10.713514400709773"><ele>431.0</ele><time>2026-03-28T15:52:16Z</time></trkpt><trkpt lat="45.61810303398405" lon="10.713687088027799"><ele>431.0</ele><time>2026-03-28T15:52:18Z</time></trkpt><trkpt lat="45.61809532687734" lon="10.713805038523335"><ele>431.0</ele><time>2026-03-28T15:52:21Z</time></trkpt><trkpt lat="45.618110557858095" lon="10.713674149344357"><ele>431.0</ele><time>2026-03-28T15:53:39Z</time></trkpt><trkpt lat="45.618127324011866" lon="10.713508740006738"><ele>431.0</ele><time>2026-03-28T15:53:41Z</time></trkpt><trkpt lat="45.61815895912811" lon="10.713405339157296"><ele>431.0</ele><time>2026-03-28T15:53:43Z</time></trkpt><trkpt lat="45.61820071571809" lon="10.713303859125928"><ele>431.0</ele><time>2026-03-28T15:53:47Z</time></trkpt><trkpt lat="45.61835735013401" lon="10.71323244225939"><ele>431.25</ele><time>2026-03-28T15:53:49Z</time></trkpt><trkpt lat="45.61846261000308" lon="10.713216589803787"><ele>431.5</ele><time>2026-03-28T15:53:50Z</time></trkpt><trkpt lat="45.61857106182492" lon="10.713194127718356"><ele>431.75</ele><time>2026-03-28T15:53:51Z</time></trkpt><trkpt lat="45.618708765651114" lon="10.713315525874055"><ele>432.0</ele><time>2026-03-28T15:53:52Z</time></trkpt><trkpt lat="45.61879917342273" lon="10.713281750214675"><ele>432.0</ele><time>2026-03-28T15:53:53Z</time></trkpt><trkpt lat="45.61887767079143" lon="10.713257872770761"><ele>432.00000000000006</ele><time>2026-03-28T15:53:54Z</time></trkpt><trkpt lat="45.618954045075746" lon="10.71323634250789"><ele>432.00000000000006</ele><time>2026-03-28T15:53:56Z</time></trkpt><trkpt lat="45.61884509430712" lon="10.713281274145748"><ele>432.0</ele><time>2026-03-28T15:53:59Z</time></trkpt><trkpt lat="45.618740382302306" lon="10.713287928850184"><ele>432.0</ele><time>2026-03-28T15:54:00Z</time></trkpt><trkpt lat="45.61863263824377" lon="10.713355049325912"><ele>431.75</ele><time>2026-03-28T15:54:01Z</time></trkpt><trkpt lat="45.61852787726088" lon="10.71343293899637"><ele>431.5</ele><time>2026-03-28T15:54:02Z</time></trkpt><trkpt lat="45.61843804190329" lon="10.713533585570307"><ele>431.25</ele><time>2026-03-28T15:54:03Z</time></trkpt><trkpt lat="45.61839522232287" lon="10.71370038418739"><ele>431.0</ele><time>2026-03-28T15:54:04Z</time></trkpt><trkpt lat="45.61835511976292" lon="10.713881704781093"><ele>431.0</ele><time>2026-03-28T15:54:05Z</time></trkpt><trkpt lat="45.61831358559" lon="10.714109935144085"><ele>431.0</ele><time>2026-03-28T15:54:06Z</time></trkpt><trkpt lat="45.61827143650455" lon="10.714415385019329"><ele>431.0</ele><time>2026-03-28T15:54:07Z</time></trkpt><trkpt lat="45.61819482339257" lon="10.714777289172288"><ele>436.0</ele><time>2026-03-28T15:54:08Z</time></trkpt><trkpt lat="45.61808999956592" lon="10.715136405731913"><ele>441.0</ele><time>2026-03-28T15:54:09Z</time></trkpt><trkpt lat="45.618030631087834" lon="10.71543587334573"><ele>444.33333333333337</ele><time>2026-03-28T15:54:10Z</time></trkpt><trkpt lat="45.61797666158166" lon="10.715662444074287"><ele>447.6666666666667</ele><time>2026-03-28T15:54:11Z</time></trkpt><trkpt lat="45.61793378982168" lon="10.715878694700432"><ele>451.0</ele><time>2026-03-28T15:54:12Z</time></trkpt><trkpt lat="45.61789513352935" lon="10.716075855461787"><ele>452.4</ele><time>2026-03-28T15:54:13Z</time></trkpt><trkpt lat="45.617857896103025" lon="10.716246095405888"><ele>453.8</ele><time>2026-03-28T15:54:14Z</time></trkpt><trkpt lat="45.617805630428684" lon="10.716363531901969"><ele>455.19999999999993</ele><time>2026-03-28T15:54:15Z</time></trkpt><trkpt lat="45.617778195006764" lon="10.716489230713675"><ele>456.59999999999997</ele><time>2026-03-28T15:54:16Z</time></trkpt><trkpt lat="45.617742141354746" lon="10.716581217276369"><ele>458.0</ele><time>2026-03-28T15:54:17Z</time></trkpt><trkpt lat="45.617747257781915" lon="10.71668602195061"><ele>458.0</ele><time>2026-03-28T15:54:19Z</time></trkpt><trkpt lat="45.61791731402098" lon="10.716586710495347"><ele>458.0</ele><time>2026-03-28T15:54:24Z</time></trkpt><trkpt lat="45.61798761061358" lon="10.716424792043226"><ele>458.0</ele><time>2026-03-28T15:54:25Z</time></trkpt><trkpt lat="45.61808986119388" lon="10.716249817780911"><ele>455.66666666666663</ele><time>2026-03-28T15:54:26Z</time></trkpt><trkpt lat="45.618201019149126" lon="10.716055160348024"><ele>453.33333333333337</ele><time>2026-03-28T15:54:27Z</time></trkpt><trkpt lat="45.618309049763866" lon="10.715887719680971"><ele>451.0</ele><time>2026-03-28T15:54:28Z</time></trkpt><trkpt lat="45.61840291028696" lon="10.715749781844822"><ele>451.0</ele><time>2026-03-28T15:54:29Z</time></trkpt><trkpt lat="45.61848596890288" lon="10.715631047124406"><ele>451.0</ele><time>2026-03-28T15:54:30Z</time></trkpt><trkpt lat="45.618575146414436" lon="10.715490913578513"><ele>451.0</ele><time>2026-03-28T15:54:31Z</time></trkpt><trkpt lat="45.61868935018939" lon="10.71533142768637"><ele>451.0</ele><time>2026-03-28T15:54:32Z</time></trkpt><trkpt lat="45.618806286118705" lon="10.715165033039945"><ele>452.33333333333337</ele><time>2026-03-28T15:54:33Z</time></trkpt><trkpt lat="45.61892730258255" lon="10.715044699071134"><ele>453.66666666666663</ele><time>2026-03-28T15:54:34Z</time></trkpt><trkpt lat="45.61907995444822" lon="10.714962530626003"><ele>455.0</ele><time>2026-03-28T15:54:35Z</time></trkpt><trkpt lat="45.61925811365826" lon="10.714936854520683"><ele>455.0</ele><time>2026-03-28T15:54:36Z</time></trkpt><trkpt lat="45.61946124416292" lon="10.714890489128516"><ele>455.0</ele><time>2026-03-28T15:54:37Z</time></trkpt><trkpt lat="45.61967560436098" lon="10.714877207534718"><ele>455.0</ele><time>2026-03-28T15:54:38Z</time></trkpt><trkpt lat="45.61990258606572" lon="10.71484981884002"><ele>459.0</ele><time>2026-03-28T15:54:39Z</time></trkpt><trkpt lat="45.620149964781376" lon="10.714808728764206"><ele>463.0</ele><time>2026-03-28T15:54:40Z</time></trkpt><trkpt lat="45.620414464078" lon="10.714767943798034"><ele>466.33333333333337</ele><time>2026-03-28T15:54:41Z</time></trkpt><trkpt lat="45.620635288271174" lon="10.714736087504138"><ele>469.66666666666663</ele><time>2026-03-28T15:54:42Z</time></trkpt><trkpt lat="45.62081745576963" lon="10.714708619323243"><ele>473.0</ele><time>2026-03-28T15:54:43Z</time></trkpt><trkpt lat="45.62096288556919" lon="10.714688518643419"><ele>472.99999999999994</ele><time>2026-03-28T15:54:44Z</time></trkpt><trkpt lat="45.621075868398165" lon="10.714664838769153"><ele>473.0</ele><time>2026-03-28T15:54:45Z</time></trkpt><trkpt lat="45.62116924455811" lon="10.71464954298743"><ele>473.0</ele><time>2026-03-28T15:54:46Z</time></trkpt><trkpt lat="45.62123464775951" lon="10.71466756569941"><ele>473.0</ele><time>2026-03-28T15:54:47Z</time></trkpt><trkpt lat="45.62129439043101" lon="10.71474404026137"><ele>472.99999999999994</ele><time>2026-03-28T15:54:48Z</time></trkpt><trkpt lat="45.62132502975674" lon="10.714856779236278"><ele>473.0</ele><time>2026-03-28T15:54:49Z</time></trkpt><trkpt lat="45.621297530398536" lon="10.714968301021857"><ele>473.0</ele><time>2026-03-28T15:54:50Z</time></trkpt><trkpt lat="45.621219899407315" lon="10.715055493814011"><ele>473.0</ele><time>2026-03-28T15:54:51Z</time></trkpt><trkpt lat="45.62110965676523" lon="10.71505804877162"><ele>473.0</ele><time>2026-03-28T15:54:52Z</time></trkpt><trkpt lat="45.62097129819865" lon="10.715133763220518"><ele>473.0</ele><time>2026-03-28T15:54:53Z</time></trkpt><trkpt lat="45.62078277528993" lon="10.715226124827865"><ele>480.5</ele><time>2026-03-28T15:54:54Z</time></trkpt><trkpt lat="45.620578122317845" lon="10.715341092344001"><ele>488.0</ele><time>2026-03-28T15:54:55Z</time></trkpt><trkpt lat="45.620353627065896" lon="10.715459808924013"><ele>483.0</ele><time>2026-03-28T15:54:56Z</time></trkpt><trkpt lat="45.62012450139554" lon="10.715585288807684"><ele>478.0</ele><time>2026-03-28T15:54:57Z</time></trkpt><trkpt lat="45.61992336077056" lon="10.715694960166894"><ele>478.0</ele><time>2026-03-28T15:54:58Z</time></trkpt><trkpt lat="45.619748662486046" lon="10.715784249079395"><ele>478.0</ele><time>2026-03-28T15:54:59Z</time></trkpt><trkpt lat="45.61957783624183" lon="10.715875665242107"><ele>478.0</ele><time>2026-03-28T15:55:00Z</time></trkpt><trkpt lat="45.61942730257664" lon="10.715959363668762"><ele>478.50000000000006</ele><time>2026-03-28T15:55:01Z</time></trkpt><trkpt lat="45.619311691301455" lon="10.71602166470753"><ele>479.0</ele><time>2026-03-28T15:55:02Z</time></trkpt><trkpt lat="45.61922361614058" lon="10.716076967094708"><ele>479.5</ele><time>2026-03-28T15:55:03Z</time></trkpt><trkpt lat="45.61918647400283" lon="10.716154135952905"><ele>480.0</ele><time>2026-03-28T15:55:04Z</time></trkpt><trkpt lat="45.619194246810174" lon="10.716253614200575"><ele>480.50000000000006</ele><time>2026-03-28T15:55:05Z</time></trkpt><trkpt lat="45.61924331027278" lon="10.716349909531758"><ele>481.0</ele><time>2026-03-28T15:55:06Z</time></trkpt><trkpt lat="45.619331168958496" lon="10.716384780753206"><ele>481.0</ele><time>2026-03-28T15:55:07Z</time></trkpt><trkpt lat="45.619447181429486" lon="10.716375693007672"><ele>481.0</ele><time>2026-03-28T15:55:08Z</time></trkpt><trkpt lat="45.61961000124262" lon="10.716321511314334"><ele>481.0</ele><time>2026-03-28T15:55:09Z</time></trkpt><trkpt lat="45.61980460705687" lon="10.716267100190656"><ele>487.0</ele><time>2026-03-28T15:55:10Z</time></trkpt><trkpt lat="45.6200226787748" lon="10.716222638719778"><ele>493.0</ele><time>2026-03-28T15:55:11Z</time></trkpt><trkpt lat="45.62025141971399" lon="10.716182457491644"><ele>499.0</ele><time>2026-03-28T15:55:12Z</time></trkpt><trkpt lat="45.620490300996565" lon="10.71613119528898"><ele>505.0</ele><time>2026-03-28T15:55:13Z</time></trkpt><trkpt lat="45.620732909734436" lon="10.71609391841606"><ele>500.5</ele><time>2026-03-28T15:55:14Z</time></trkpt><trkpt lat="45.62097204291677" lon="10.716068202931503"><ele>496.0</ele><time>2026-03-28T15:55:15Z</time></trkpt><trkpt lat="45.62122004515879" lon="10.716063135344191"><ele>496.0</ele><time>2026-03-28T15:55:16Z</time></trkpt><trkpt lat="45.621468900163165" lon="10.71606523129124"><ele>496.0</ele><time>2026-03-28T15:55:17Z</time></trkpt><trkpt lat="45.62169131152141" lon="10.716062393430976"><ele>496.0</ele><time>2026-03-28T15:55:18Z</time></trkpt><trkpt lat="45.621904208723215" lon="10.716041809326173"><ele>496.0</ele><time>2026-03-28T15:55:19Z</time></trkpt><trkpt lat="45.62210960075659" lon="10.716017541676031"><ele>496.0</ele><time>2026-03-28T15:55:20Z</time></trkpt><trkpt lat="45.62232803881021" lon="10.715964525589593"><ele>509.0</ele><time>2026-03-28T15:55:21Z</time></trkpt><trkpt lat="45.622558505647184" lon="10.716096748369525"><ele>522.0</ele><time>2026-03-28T15:55:22Z</time></trkpt><trkpt lat="45.622792024199676" lon="10.716147146590393"><ele>522.5</ele><time>2026-03-28T15:55:23Z</time></trkpt><trkpt lat="45.623023363227645" lon="10.716183769987659"><ele>523.0</ele><time>2026-03-28T15:55:24Z</time></trkpt><trkpt lat="45.62326374604197" lon="10.716232172939236"><ele>523.0</ele><time>2026-03-28T15:55:25Z</time></trkpt><trkpt lat="45.62349291016651" lon="10.716270523092362"><ele>523.0</ele><time>2026-03-28T15:55:26Z</time></trkpt><trkpt lat="45.623696681521885" lon="10.716299822255666"><ele>523.0</ele><time>2026-03-28T15:55:27Z</time></trkpt><trkpt lat="45.62390870434644" lon="10.716343885499555"><ele>523.0</ele><time>2026-03-28T15:55:28Z</time></trkpt><trkpt lat="45.62412411162925" lon="10.716420380206797"><ele>523.0</ele><time>2026-03-28T15:55:29Z</time></trkpt><trkpt lat="45.62435082997327" lon="10.716511202120545"><ele>520.5</ele><time>2026-03-28T15:55:30Z</time></trkpt><trkpt lat="45.624576923105884" lon="10.716620993389238"><ele>518.0</ele><time>2026-03-28T15:55:31Z</time></trkpt><trkpt lat="45.62480768471168" lon="10.716748435457916"><ele>518.0</ele><time>2026-03-28T15:55:32Z</time></trkpt><trkpt lat="45.62504407262221" lon="10.716866626739696"><ele>518.0</ele><time>2026-03-28T15:55:33Z</time></trkpt><trkpt lat="45.62528830799842" lon="10.716982982634583"><ele>526.5</ele><time>2026-03-28T15:55:34Z</time></trkpt><trkpt lat="45.625535874647206" lon="10.717102840605365"><ele>535.0</ele><time>2026-03-28T15:55:35Z</time></trkpt><trkpt lat="45.625785552619625" lon="10.717229364167062"><ele>535.0</ele><time>2026-03-28T15:55:36Z</time></trkpt><trkpt lat="45.62603504658142" lon="10.717361065219128"><ele>535.0</ele><time>2026-03-28T15:55:37Z</time></trkpt><trkpt lat="45.62628019163393" lon="10.717500345612182"><ele>532.5</ele><time>2026-03-28T15:55:38Z</time></trkpt><trkpt lat="45.62652188598384" lon="10.71765767668833"><ele>530.0</ele><time>2026-03-28T15:55:39Z</time></trkpt><trkpt lat="45.62675869151321" lon="10.717819513485763"><ele>535.5</ele><time>2026-03-28T15:55:40Z</time></trkpt><trkpt lat="45.6269699003662" lon="10.71798427825733"><ele>541.0</ele><time>2026-03-28T15:55:41Z</time></trkpt><trkpt lat="45.627153822525734" lon="10.718130249343226"><ele>541.0</ele><time>2026-03-28T15:55:42Z</time></trkpt><trkpt lat="45.62730966832356" lon="10.71825009928083"><ele>541.0</ele><time>2026-03-28T15:55:43Z</time></trkpt><trkpt lat="45.6274549231683" lon="10.718364023649205"><ele>541.0</ele><time>2026-03-28T15:55:44Z</time></trkpt><trkpt lat="45.62759161469244" lon="10.718487625166643"><ele>543.0</ele><time>2026-03-28T15:55:45Z</time></trkpt><trkpt lat="45.62772339792651" lon="10.718644315454984"><ele>545.0</ele><time>2026-03-28T15:55:46Z</time></trkpt><trkpt lat="45.627858364963856" lon="10.718848179382295"><ele>547.0</ele><time>2026-03-28T15:55:47Z</time></trkpt><trkpt lat="45.62800529003859" lon="10.719072607116164"><ele>547.0</ele><time>2026-03-28T15:55:48Z</time></trkpt><trkpt lat="45.628143520381116" lon="10.719285181454833"><ele>547.0</ele><time>2026-03-28T15:55:49Z</time></trkpt><trkpt lat="45.62825572510678" lon="10.719462008243537"><ele>547.0</ele><time>2026-03-28T15:55:50Z</time></trkpt><trkpt lat="45.62834913357473" lon="10.719592761271036"><ele>550.4</ele><time>2026-03-28T15:55:51Z</time></trkpt><trkpt lat="45.62843136408189" lon="10.719695706343048"><ele>553.8000000000001</ele><time>2026-03-28T15:55:52Z</time></trkpt><trkpt lat="45.628493237394" lon="10.719783665001778"><ele>557.2</ele><time>2026-03-28T15:55:53Z</time></trkpt><trkpt lat="45.628509776022554" lon="10.719871824225851"><ele>560.6</ele><time>2026-03-28T15:55:54Z</time></trkpt><trkpt lat="45.628399519862185" lon="10.719975791526927"><ele>564.0</ele><time>2026-03-28T15:55:56Z</time></trkpt><trkpt lat="45.628311525754604" lon="10.719945746559485"><ele>564.0</ele><time>2026-03-28T15:55:57Z</time></trkpt><trkpt lat="45.6282259761208" lon="10.719853519962742"><ele>564.0</ele><time>2026-03-28T15:55:58Z</time></trkpt><trkpt lat="45.628123011769766" lon="10.719712089736367"><ele>564.0</ele><time>2026-03-28T15:55:59Z</time></trkpt><trkpt lat="45.62799566247506" lon="10.719578167183114"><ele>564.0</ele><time>2026-03-28T15:56:00Z</time></trkpt><trkpt lat="45.627869590469885" lon="10.71947065159571"><ele>563.4</ele><time>2026-03-28T15:56:01Z</time></trkpt><trkpt lat="45.62777843899096" lon="10.719389237016925"><ele>562.8</ele><time>2026-03-28T15:56:02Z</time></trkpt><trkpt lat="45.62770160318376" lon="10.719323294111762"><ele>562.2</ele><time>2026-03-28T15:56:03Z</time></trkpt><trkpt lat="45.62760143025266" lon="10.719380128161756"><ele>561.6</ele><time>2026-03-28T15:56:05Z</time></trkpt><trkpt lat="45.627592623499666" lon="10.719473773769797"><ele>561.0</ele><time>2026-03-28T15:56:06Z</time></trkpt><trkpt lat="45.62765097406033" lon="10.719563920009499"><ele>561.75</ele><time>2026-03-28T15:56:07Z</time></trkpt><trkpt lat="45.62773235971299" lon="10.71963714929517"><ele>562.5</ele><time>2026-03-28T15:56:08Z</time></trkpt><trkpt lat="45.62785186618832" lon="10.719712536177557"><ele>563.25</ele><time>2026-03-28T15:56:09Z</time></trkpt><trkpt lat="45.62799230219665" lon="10.719840294309051"><ele>564.0</ele><time>2026-03-28T15:56:10Z</time></trkpt><trkpt lat="45.62813058709608" lon="10.719994074225104"><ele>564.0</ele><time>2026-03-28T15:56:11Z</time></trkpt><trkpt lat="45.62827860046641" lon="10.720145597046672"><ele>564.0</ele><time>2026-03-28T15:56:12Z</time></trkpt><trkpt lat="45.628446026970686" lon="10.720297557141606"><ele>564.0</ele><time>2026-03-28T15:56:13Z</time></trkpt><trkpt lat="45.628624406263654" lon="10.720462905408587"><ele>565.6666666666666</ele><time>2026-03-28T15:56:14Z</time></trkpt><trkpt lat="45.62878584701554" lon="10.720612824218758"><ele>567.3333333333333</ele><time>2026-03-28T15:56:15Z</time></trkpt><trkpt lat="45.6289396529463" lon="10.720751349315204"><ele>569.0</ele><time>2026-03-28T15:56:16Z</time></trkpt><trkpt lat="45.62910082689628" lon="10.720896923944037"><ele>569.0</ele><time>2026-03-28T15:56:17Z</time></trkpt><trkpt lat="45.629255517342564" lon="10.721033502932944"><ele>569.0</ele><time>2026-03-28T15:56:18Z</time></trkpt><trkpt lat="45.62938583306283" lon="10.721153615002848"><ele>569.0</ele><time>2026-03-28T15:56:19Z</time></trkpt><trkpt lat="45.629493591409464" lon="10.72128258067913"><ele>570.25</ele><time>2026-03-28T15:56:20Z</time></trkpt><trkpt lat="45.629585530928246" lon="10.721425171917938"><ele>571.5</ele><time>2026-03-28T15:56:21Z</time></trkpt><trkpt lat="45.62965725647152" lon="10.721596814195742"><ele>572.75</ele><time>2026-03-28T15:56:22Z</time></trkpt><trkpt lat="45.62973419983671" lon="10.721753718825257"><ele>574.0</ele><time>2026-03-28T15:56:23Z</time></trkpt><trkpt lat="45.629843094148775" lon="10.72186143368532"><ele>575.25</ele><time>2026-03-28T15:56:24Z</time></trkpt><trkpt lat="45.62997890127724" lon="10.72193050260829"><ele>576.5</ele><time>2026-03-28T15:56:25Z</time></trkpt><trkpt lat="45.630117825450014" lon="10.721990374815205"><ele>577.75</ele><time>2026-03-28T15:56:26Z</time></trkpt><trkpt lat="45.630238377131256" lon="10.722056524999942"><ele>579.0</ele><time>2026-03-28T15:56:27Z</time></trkpt><trkpt lat="45.630339168130206" lon="10.722160203554335"><ele>579.0</ele><time>2026-03-28T15:56:28Z</time></trkpt><trkpt lat="45.630428176691275" lon="10.722299070106999"><ele>579.0</ele><time>2026-03-28T15:56:29Z</time></trkpt><trkpt lat="45.63050407125701" lon="10.722443610835784"><ele>579.0</ele><time>2026-03-28T15:56:30Z</time></trkpt><trkpt lat="45.63057054073002" lon="10.72257206092122"><ele>579.0</ele><time>2026-03-28T15:56:31Z</time></trkpt><trkpt lat="45.630640299290775" lon="10.722676583234724"><ele>579.0</ele><time>2026-03-28T15:56:32Z</time></trkpt><trkpt lat="45.63075224160807" lon="10.722729192765764"><ele>579.0</ele><time>2026-03-28T15:56:33Z</time></trkpt><trkpt lat="45.63087736678418" lon="10.722765590829546"><ele>579.0</ele><time>2026-03-28T15:56:34Z</time></trkpt><trkpt lat="45.630952522296994" lon="10.722855330034868"><ele>579.0</ele><time>2026-03-28T15:56:35Z</time></trkpt><trkpt lat="45.631028674252505" lon="10.722952317609183"><ele>579.0</ele><time>2026-03-28T15:56:36Z</time></trkpt><trkpt lat="45.63106370967191" lon="10.72309351859846"><ele>580.75</ele><time>2026-03-28T15:56:37Z</time></trkpt><trkpt lat="45.63106581335023" lon="10.72326296270887"><ele>582.5</ele><time>2026-03-28T15:56:38Z</time></trkpt><trkpt lat="45.631077488717224" lon="10.723433019495138"><ele>584.25</ele><time>2026-03-28T15:56:39Z</time></trkpt><trkpt lat="45.63109664499563" lon="10.72361419424232"><ele>586.0</ele><time>2026-03-28T15:56:40Z</time></trkpt><trkpt lat="45.6311215879178" lon="10.7237975376827"><ele>584.0</ele><time>2026-03-28T15:56:41Z</time></trkpt><trkpt lat="45.63114845029891" lon="10.723987689389757"><ele>582.0</ele><time>2026-03-28T15:56:42Z</time></trkpt><trkpt lat="45.63118575734462" lon="10.724173282805006"><ele>580.0</ele><time>2026-03-28T15:56:43Z</time></trkpt><trkpt lat="45.6312267719362" lon="10.7243603173392"><ele>578.0</ele><time>2026-03-28T15:56:44Z</time></trkpt><trkpt lat="45.63129511449767" lon="10.724530501479194"><ele>578.0</ele><time>2026-03-28T15:56:45Z</time></trkpt><trkpt lat="45.63135131490842" lon="10.72470122830986"><ele>578.0</ele><time>2026-03-28T15:56:46Z</time></trkpt><trkpt lat="45.631404326312236" lon="10.724868398175632"><ele>578.0</ele><time>2026-03-28T15:56:47Z</time></trkpt><trkpt lat="45.631450205396696" lon="10.725038653579624"><ele>578.0</ele><time>2026-03-28T15:56:48Z</time></trkpt><trkpt lat="45.63149450684754" lon="10.725229243157678"><ele>580.0</ele><time>2026-03-28T15:56:49Z</time></trkpt><trkpt lat="45.631538020006715" lon="10.725442347695681"><ele>582.0</ele><time>2026-03-28T15:56:50Z</time></trkpt><trkpt lat="45.63159226669142" lon="10.725668549673275"><ele>584.0</ele><time>2026-03-28T15:56:51Z</time></trkpt><trkpt lat="45.63163826079666" lon="10.725872348559275"><ele>584.0</ele><time>2026-03-28T15:56:52Z</time></trkpt><trkpt lat="45.63168629775777" lon="10.726054610565026"><ele>584.0</ele><time>2026-03-28T15:56:53Z</time></trkpt><trkpt lat="45.63173803571546" lon="10.726228859250519"><ele>584.0</ele><time>2026-03-28T15:56:54Z</time></trkpt><trkpt lat="45.63179231505835" lon="10.726397005129051"><ele>584.0</ele><time>2026-03-28T15:56:55Z</time></trkpt><trkpt lat="45.63186220159757" lon="10.726572818754647"><ele>584.0</ele><time>2026-03-28T15:56:56Z</time></trkpt><trkpt lat="45.63193987380208" lon="10.72674437327816"><ele>584.0</ele><time>2026-03-28T15:56:57Z</time></trkpt><trkpt lat="45.632016401762755" lon="10.72690290813135"><ele>584.0</ele><time>2026-03-28T15:56:58Z</time></trkpt><trkpt lat="45.63208852935055" lon="10.72704610295114"><ele>584.0</ele><time>2026-03-28T15:56:59Z</time></trkpt><trkpt lat="45.63215769934987" lon="10.727188722079594"><ele>584.4</ele><time>2026-03-28T15:57:00Z</time></trkpt><trkpt lat="45.632228705683474" lon="10.727343126367145"><ele>584.8</ele><time>2026-03-28T15:57:01Z</time></trkpt><trkpt lat="45.632297486657215" lon="10.727487157198876"><ele>585.2</ele><time>2026-03-28T15:57:02Z</time></trkpt><trkpt lat="45.632357604746126" lon="10.727602870836096"><ele>585.6</ele><time>2026-03-28T15:57:03Z</time></trkpt><trkpt lat="45.632405557942185" lon="10.727706647889711"><ele>586.0</ele><time>2026-03-28T15:57:04Z</time></trkpt><trkpt lat="45.63244178131601" lon="10.727802812319965"><ele>586.1666666666667</ele><time>2026-03-28T15:57:05Z</time></trkpt><trkpt lat="45.632478066016205" lon="10.727885468846173"><ele>586.3333333333334</ele><time>2026-03-28T15:57:06Z</time></trkpt><trkpt lat="45.632544796216834" lon="10.727951100335249"><ele>586.5</ele><time>2026-03-28T15:57:08Z</time></trkpt><trkpt lat="45.632641497501886" lon="10.727872201129498"><ele>586.6666666666666</ele><time>2026-03-28T15:57:10Z</time></trkpt><trkpt lat="45.63271364739993" lon="10.727813385638923"><ele>586.8333333333333</ele><time>2026-03-28T15:57:11Z</time></trkpt><trkpt lat="45.63281248807216" lon="10.727759323373594"><ele>587.0</ele><time>2026-03-28T15:57:12Z</time></trkpt><trkpt lat="45.63291595378497" lon="10.72767403620351"><ele>587.0</ele><time>2026-03-28T15:57:13Z</time></trkpt><trkpt lat="45.633005715957594" lon="10.727611034758443"><ele>587.0</ele><time>2026-03-28T15:57:14Z</time></trkpt><trkpt lat="45.633081208726246" lon="10.727552602974765"><ele>587.0</ele><time>2026-03-28T15:57:15Z</time></trkpt><trkpt lat="45.6331517888358" lon="10.727488400107422"><ele>587.0</ele><time>2026-03-28T15:57:16Z</time></trkpt><trkpt lat="45.63321236197123" lon="10.727443787577787"><ele>587.0</ele><time>2026-03-28T15:57:17Z</time></trkpt><trkpt lat="45.63334626614947" lon="10.727360049907015"><ele>587.0</ele><time>2026-03-28T15:57:19Z</time></trkpt><trkpt lat="45.63342078472449" lon="10.727315818508078"><ele>587.0</ele><time>2026-03-28T15:57:20Z</time></trkpt><trkpt lat="45.63347822149636" lon="10.72726985122897"><ele>587.0</ele><time>2026-03-28T15:57:21Z</time></trkpt><trkpt lat="45.633586441385646" lon="10.727261529845684"><ele>587.0</ele><time>2026-03-28T15:57:23Z</time></trkpt><trkpt lat="45.633646568223085" lon="10.727311392464848"><ele>587.0</ele><time>2026-03-28T15:57:24Z</time></trkpt><trkpt lat="45.63370225968308" lon="10.72739899701154"><ele>587.0</ele><time>2026-03-28T15:57:25Z</time></trkpt><trkpt lat="45.633777167416774" lon="10.727512138411765"><ele>585.6666666666666</ele><time>2026-03-28T15:57:26Z</time></trkpt><trkpt lat="45.633845926784325" lon="10.727630541554324"><ele>584.3333333333333</ele><time>2026-03-28T15:57:27Z</time></trkpt><trkpt lat="45.63389832249836" lon="10.727723173593256"><ele>583.0</ele><time>2026-03-28T15:57:28Z</time></trkpt><trkpt lat="45.63395704782202" lon="10.727791327180299"><ele>581.6666666666666</ele><time>2026-03-28T15:57:29Z</time></trkpt><trkpt lat="45.63403378178343" lon="10.727834358274494"><ele>580.3333333333334</ele><time>2026-03-28T15:57:30Z</time></trkpt><trkpt lat="45.634118354567406" lon="10.727853074828802"><ele>579.0</ele><time>2026-03-28T15:57:31Z</time></trkpt><trkpt lat="45.63419233287178" lon="10.727854220033908"><ele>579.0</ele><time>2026-03-28T15:57:32Z</time></trkpt><trkpt lat="45.63427274799568" lon="10.727817681853328"><ele>579.0</ele><time>2026-03-28T15:57:33Z</time></trkpt><trkpt lat="45.634349798323285" lon="10.727759651012345"><ele>579.0</ele><time>2026-03-28T15:57:34Z</time></trkpt><trkpt lat="45.63441427026719" lon="10.72768350088549"><ele>579.0</ele><time>2026-03-28T15:57:35Z</time></trkpt><trkpt lat="45.63447306809862" lon="10.727579650789105"><ele>579.0</ele><time>2026-03-28T15:57:36Z</time></trkpt><trkpt lat="45.634502163483376" lon="10.727477158802067"><ele>579.0</ele><time>2026-03-28T15:57:37Z</time></trkpt><trkpt lat="45.6345610104806" lon="10.727379757446622"><ele>574.4</ele><time>2026-03-28T15:57:38Z</time></trkpt><trkpt lat="45.63463347073071" lon="10.727278720800642"><ele>569.8</ele><time>2026-03-28T15:57:39Z</time></trkpt><trkpt lat="45.63471375263602" lon="10.72718453904551"><ele>565.2</ele><time>2026-03-28T15:57:40Z</time></trkpt><trkpt lat="45.63479029386421" lon="10.727072013803362"><ele>560.6</ele><time>2026-03-28T15:57:41Z</time></trkpt><trkpt lat="45.63488123257898" lon="10.726976765529626"><ele>556.0</ele><time>2026-03-28T15:57:42Z</time></trkpt><trkpt lat="45.63497366063084" lon="10.726914219383179"><ele>555.8333333333334</ele><time>2026-03-28T15:57:43Z</time></trkpt><trkpt lat="45.63504561771856" lon="10.726878903899195"><ele>555.6666666666667</ele><time>2026-03-28T15:57:44Z</time></trkpt><trkpt lat="45.63511667696998" lon="10.726856522288712"><ele>555.5</ele><time>2026-03-28T15:57:45Z</time></trkpt><trkpt lat="45.63519196854031" lon="10.726851603490525"><ele>555.3333333333334</ele><time>2026-03-28T15:57:46Z</time></trkpt><trkpt lat="45.63523131970192" lon="10.726701695751062"><ele>555.1666666666666</ele><time>2026-03-28T15:57:47Z</time></trkpt><trkpt lat="45.63531243866654" lon="10.726622272610822"><ele>555.0</ele><time>2026-03-28T15:57:48Z</time></trkpt><trkpt lat="45.63543863240504" lon="10.726614411017419"><ele>551.4</ele><time>2026-03-28T15:57:49Z</time></trkpt><trkpt lat="45.635519908111874" lon="10.726517660014741"><ele>547.8</ele><time>2026-03-28T15:57:50Z</time></trkpt><trkpt lat="45.63559568230254" lon="10.726413607033331"><ele>544.2</ele><time>2026-03-28T15:57:51Z</time></trkpt><trkpt lat="45.635674386170386" lon="10.726308556294965"><ele>540.6</ele><time>2026-03-28T15:57:52Z</time></trkpt><trkpt lat="45.63574558889909" lon="10.726215495569098"><ele>537.0</ele><time>2026-03-28T15:57:53Z</time></trkpt><trkpt lat="45.635814296371905" lon="10.726124255672294"><ele>535.8000000000001</ele><time>2026-03-28T15:57:54Z</time></trkpt><trkpt lat="45.63586046196078" lon="10.726035199944048"><ele>534.6</ele><time>2026-03-28T15:57:55Z</time></trkpt><trkpt lat="45.63592806814396" lon="10.725955058799101"><ele>533.4000000000001</ele><time>2026-03-28T15:57:57Z</time></trkpt><trkpt lat="45.635934332509194" lon="10.725805699988094"><ele>532.2</ele><time>2026-03-28T15:57:59Z</time></trkpt><trkpt lat="45.635916470509954" lon="10.725627163841857"><ele>531.0</ele><time>2026-03-28T15:58:01Z</time></trkpt><trkpt lat="45.63589272088608" lon="10.72554084294916"><ele>531.0</ele><time>2026-03-28T15:58:02Z</time></trkpt><trkpt lat="45.63585945730542" lon="10.725445865011366"><ele>531.0</ele><time>2026-03-28T15:58:03Z</time></trkpt><trkpt lat="45.63582019006624" lon="10.725345367312325"><ele>531.0</ele><time>2026-03-28T15:58:04Z</time></trkpt><trkpt lat="45.635777166291206" lon="10.725245916735945"><ele>531.0</ele><time>2026-03-28T15:58:05Z</time></trkpt><trkpt lat="45.635729006762524" lon="10.725146553647495"><ele>531.0</ele><time>2026-03-28T15:58:06Z</time></trkpt><trkpt lat="45.63565717647237" lon="10.72506395859249"><ele>531.0</ele><time>2026-03-28T15:58:07Z</time></trkpt><trkpt lat="45.63559864966578" lon="10.724954666876856"><ele>531.0</ele><time>2026-03-28T15:58:08Z</time></trkpt><trkpt lat="45.635526554166084" lon="10.724842617230115"><ele>531.0</ele><time>2026-03-28T15:58:09Z</time></trkpt><trkpt lat="45.63545688392975" lon="10.724743495214138"><ele>531.0</ele><time>2026-03-28T15:58:10Z</time></trkpt><trkpt lat="45.63540162534881" lon="10.724622228900465"><ele>531.0</ele><time>2026-03-28T15:58:11Z</time></trkpt><trkpt lat="45.63531335077711" lon="10.724522349772107"><ele>531.0</ele><time>2026-03-28T15:58:12Z</time></trkpt><trkpt lat="45.63522730744008" lon="10.724430186889498"><ele>528.0</ele><time>2026-03-28T15:58:13Z</time></trkpt><trkpt lat="45.635136089183895" lon="10.72436974163701"><ele>525.0</ele><time>2026-03-28T15:58:14Z</time></trkpt><trkpt lat="45.635061629110666" lon="10.724306123864617"><ele>522.0</ele><time>2026-03-28T15:58:15Z</time></trkpt><trkpt lat="45.6349984703828" lon="10.724236949027448"><ele>519.0</ele><time>2026-03-28T15:58:16Z</time></trkpt><trkpt lat="45.634934412571845" lon="10.72418205199587"><ele>516.0</ele><time>2026-03-28T15:58:17Z</time></trkpt><trkpt lat="45.63487305639909" lon="10.724117050437258"><ele>513.0</ele><time>2026-03-28T15:58:18Z</time></trkpt><trkpt lat="45.63483522536553" lon="10.72404028466537"><ele>513.0</ele><time>2026-03-28T15:58:19Z</time></trkpt><trkpt lat="45.634795791812394" lon="10.723930411579765"><ele>513.0</ele><time>2026-03-28T15:58:21Z</time></trkpt><trkpt lat="45.634767742364936" lon="10.723838195040841"><ele>513.0</ele><time>2026-03-28T15:58:22Z</time></trkpt><trkpt lat="45.6347523197079" lon="10.723702119457057"><ele>513.0</ele><time>2026-03-28T15:58:23Z</time></trkpt><trkpt lat="45.63471961883991" lon="10.723559147424375"><ele>513.0</ele><time>2026-03-28T15:58:24Z</time></trkpt><trkpt lat="45.634679282155055" lon="10.723406959717408"><ele>509.79999999999995</ele><time>2026-03-28T15:58:25Z</time></trkpt><trkpt lat="45.634658103500584" lon="10.72325730693034"><ele>506.59999999999997</ele><time>2026-03-28T15:58:26Z</time></trkpt><trkpt lat="45.63462193185661" lon="10.723104267727798"><ele>503.40000000000003</ele><time>2026-03-28T15:58:27Z</time></trkpt><trkpt lat="45.63460038982733" lon="10.7229704199942"><ele>500.20000000000005</ele><time>2026-03-28T15:58:28Z</time></trkpt><trkpt lat="45.63459526034059" lon="10.72284436438232"><ele>497.0</ele><time>2026-03-28T15:58:29Z</time></trkpt><trkpt lat="45.634604574129476" lon="10.722691234684422"><ele>494.75</ele><time>2026-03-28T15:58:30Z</time></trkpt><trkpt lat="45.63461824744904" lon="10.722511099983807"><ele>492.5</ele><time>2026-03-28T15:58:31Z</time></trkpt><trkpt lat="45.634623925956724" lon="10.722322303759606"><ele>490.25</ele><time>2026-03-28T15:58:32Z</time></trkpt><trkpt lat="45.634628097180254" lon="10.722137332096386"><ele>488.0</ele><time>2026-03-28T15:58:33Z</time></trkpt><trkpt lat="45.63463136029532" lon="10.721964859687745"><ele>486.79999999999995</ele><time>2026-03-28T15:58:34Z</time></trkpt><trkpt lat="45.634632961563" lon="10.72182591198194"><ele>485.59999999999997</ele><time>2026-03-28T15:58:35Z</time></trkpt><trkpt lat="45.6346357594543" lon="10.721734160804656"><ele>484.40000000000003</ele><time>2026-03-28T15:58:36Z</time></trkpt><trkpt lat="45.634655143116596" lon="10.72161556869558"><ele>483.20000000000005</ele><time>2026-03-28T15:58:38Z</time></trkpt><trkpt lat="45.63477865826497" lon="10.721488355827551"><ele>482.0</ele><time>2026-03-28T15:58:40Z</time></trkpt><trkpt lat="45.63487706638689" lon="10.721403489114506"><ele>481.99999999999994</ele><time>2026-03-28T15:58:41Z</time></trkpt><trkpt lat="45.63496945893677" lon="10.721325970192852"><ele>482.0</ele><time>2026-03-28T15:58:42Z</time></trkpt><trkpt lat="45.635042176113714" lon="10.72123824537405"><ele>482.0</ele><time>2026-03-28T15:58:43Z</time></trkpt><trkpt lat="45.6350957927226" lon="10.721141680302845"><ele>482.0</ele><time>2026-03-28T15:58:44Z</time></trkpt><trkpt lat="45.635132678054404" lon="10.721032487154666"><ele>481.99999999999994</ele><time>2026-03-28T15:58:45Z</time></trkpt><trkpt lat="45.635160756528215" lon="10.72094446258918"><ele>482.0</ele><time>2026-03-28T15:58:46Z</time></trkpt><trkpt lat="45.63520757848179" lon="10.720837259996612"><ele>481.99999999999994</ele><time>2026-03-28T15:58:48Z</time></trkpt><trkpt lat="45.63527010124323" lon="10.720783284623343"><ele>482.0</ele><time>2026-03-28T15:58:51Z</time></trkpt><trkpt lat="45.635205761116154" lon="10.720855827210983"><ele>482.0</ele><time>2026-03-28T15:59:15Z</time></trkpt><trkpt lat="45.63516977148296" lon="10.72093153111746"><ele>482.0</ele><time>2026-03-28T15:59:16Z</time></trkpt><trkpt lat="45.635111039804066" lon="10.721087286647448"><ele>481.99999999999994</ele><time>2026-03-28T15:59:17Z</time></trkpt><trkpt lat="45.63505907185667" lon="10.721203538887023"><ele>482.0</ele><time>2026-03-28T15:59:18Z</time></trkpt><trkpt lat="45.63500621143213" lon="10.721303406055867"><ele>481.99999999999994</ele><time>2026-03-28T15:59:19Z</time></trkpt><trkpt lat="45.63492612739404" lon="10.721385741567104"><ele>482.0</ele><time>2026-03-28T15:59:20Z</time></trkpt><trkpt lat="45.63483657372358" lon="10.721454345925084"><ele>482.0</ele><time>2026-03-28T15:59:21Z</time></trkpt><trkpt lat="45.63475481124751" lon="10.7215162730604"><ele>482.0</ele><time>2026-03-28T15:59:22Z</time></trkpt><trkpt lat="45.63469019345779" lon="10.72158769834649"><ele>481.99999999999994</ele><time>2026-03-28T15:59:23Z</time></trkpt><trkpt lat="45.63463256854521" lon="10.721645222289995"><ele>482.0</ele><time>2026-03-28T15:59:25Z</time></trkpt><trkpt lat="45.6346689652123" lon="10.72151263443526"><ele>482.0</ele><time>2026-03-28T15:59:28Z</time></trkpt><trkpt lat="45.63449440502478" lon="10.721395767781795"><ele>482.00000000000006</ele><time>2026-03-28T15:59:29Z</time></trkpt><trkpt lat="45.6344373318946" lon="10.721309529775127"><ele>482.00000000000006</ele><time>2026-03-28T15:59:30Z</time></trkpt><trkpt lat="45.63437978444398" lon="10.721227098260261"><ele>482.0</ele><time>2026-03-28T15:59:32Z</time></trkpt><trkpt lat="45.63438175196746" lon="10.721124808248566"><ele>482.0</ele><time>2026-03-28T15:59:53Z</time></trkpt><trkpt lat="45.63439432326612" lon="10.721011412164234"><ele>482.66666666666663</ele><time>2026-03-28T15:59:55Z</time></trkpt><trkpt lat="45.63441464605917" lon="10.720898114014233"><ele>483.3333333333333</ele><time>2026-03-28T15:59:57Z</time></trkpt><trkpt lat="45.63442944319505" lon="10.72077619467011"><ele>484.0</ele><time>2026-03-28T16:00:00Z</time></trkpt><trkpt lat="45.63440730106066" lon="10.72066858509825"><ele>484.66666666666663</ele><time>2026-03-28T16:00:02Z</time></trkpt><trkpt lat="45.634370242141145" lon="10.72055790112353"><ele>485.3333333333333</ele><time>2026-03-28T16:00:04Z</time></trkpt><trkpt lat="45.63431248194868" lon="10.72044047724569"><ele>486.0</ele><time>2026-03-28T16:00:06Z</time></trkpt><trkpt lat="45.634271455449" lon="10.72031174285371"><ele>483.6666666666667</ele><time>2026-03-28T16:00:08Z</time></trkpt><trkpt lat="45.634228656360754" lon="10.720185998012644"><ele>481.33333333333337</ele><time>2026-03-28T16:00:10Z</time></trkpt><trkpt lat="45.634197569525675" lon="10.720100220694489"><ele>479.0</ele><time>2026-03-28T16:00:12Z</time></trkpt><trkpt lat="45.634151997059995" lon="10.71998906092135"><ele>476.6666666666667</ele><time>2026-03-28T16:00:14Z</time></trkpt><trkpt lat="45.63416399737529" lon="10.71987534448521"><ele>474.33333333333337</ele><time>2026-03-28T16:00:16Z</time></trkpt><trkpt lat="45.63415911888854" lon="10.719753640914364"><ele>472.0</ele><time>2026-03-28T16:00:18Z</time></trkpt><trkpt lat="45.63414749277516" lon="10.71964147980838"><ele>472.0</ele><time>2026-03-28T16:00:21Z</time></trkpt><trkpt lat="45.63410097623776" lon="10.719566105119098"><ele>472.0</ele><time>2026-03-28T16:00:24Z</time></trkpt><trkpt lat="45.63405246768555" lon="10.719466678991711"><ele>472.0</ele><time>2026-03-28T16:00:32Z</time></trkpt><trkpt lat="45.634001755909495" lon="10.719404547199078"><ele>472.0</ele><time>2026-03-28T16:00:36Z</time></trkpt><trkpt lat="45.63397715933027" lon="10.719319810704617"><ele>472.0</ele><time>2026-03-28T16:00:43Z</time></trkpt><trkpt lat="45.63394395877699" lon="10.71923455109829"><ele>472.0</ele><time>2026-03-28T16:00:46Z</time></trkpt><trkpt lat="45.633925894288495" lon="10.719144412998206"><ele>472.0</ele><time>2026-03-28T16:00:51Z</time></trkpt><trkpt lat="45.63389135245956" lon="10.719041702956902"><ele>469.1666666666667</ele><time>2026-03-28T16:00:54Z</time></trkpt><trkpt lat="45.63385846960309" lon="10.7189376639396"><ele>466.33333333333337</ele><time>2026-03-28T16:00:56Z</time></trkpt><trkpt lat="45.63384217192693" lon="10.718829949291713"><ele>463.5</ele><time>2026-03-28T16:00:58Z</time></trkpt><trkpt lat="45.63382612952873" lon="10.718703082468684"><ele>460.66666666666663</ele><time>2026-03-28T16:01:00Z</time></trkpt><trkpt lat="45.63380185794833" lon="10.718561214404575"><ele>457.8333333333333</ele><time>2026-03-28T16:01:02Z</time></trkpt><trkpt lat="45.633778862621966" lon="10.718427951060061"><ele>455.0</ele><time>2026-03-28T16:01:04Z</time></trkpt><trkpt lat="45.63375551310466" lon="10.71834314140605"><ele>455.2</ele><time>2026-03-28T16:01:05Z</time></trkpt><trkpt lat="45.63371157840555" lon="10.71826344106331"><ele>455.4</ele><time>2026-03-28T16:01:06Z</time></trkpt><trkpt lat="45.63365714219619" lon="10.718124769377564"><ele>455.6</ele><time>2026-03-28T16:01:08Z</time></trkpt><trkpt lat="45.63357087316423" lon="10.717991048095806"><ele>455.8</ele><time>2026-03-28T16:01:10Z</time></trkpt><trkpt lat="45.63353256785172" lon="10.717909482647196"><ele>456.0</ele><time>2026-03-28T16:01:11Z</time></trkpt><trkpt lat="45.63347405623628" lon="10.717785088479037"><ele>452.8</ele><time>2026-03-28T16:01:13Z</time></trkpt><trkpt lat="45.63336997350239" lon="10.71770180202811"><ele>449.6</ele><time>2026-03-28T16:01:15Z</time></trkpt><trkpt lat="45.63329260734868" lon="10.717618705211429"><ele>446.4</ele><time>2026-03-28T16:01:16Z</time></trkpt><trkpt lat="45.633205413503646" lon="10.717514444584525"><ele>443.2</ele><time>2026-03-28T16:01:17Z</time></trkpt><trkpt lat="45.633125413517526" lon="10.717421566452508"><ele>440.0</ele><time>2026-03-28T16:01:18Z</time></trkpt><trkpt lat="45.63304540835798" lon="10.71733930801311"><ele>440.0</ele><time>2026-03-28T16:01:19Z</time></trkpt><trkpt lat="45.632969419956254" lon="10.71726604942521"><ele>440.0</ele><time>2026-03-28T16:01:20Z</time></trkpt><trkpt lat="45.632874267203725" lon="10.717187205894582"><ele>440.0</ele><time>2026-03-28T16:01:21Z</time></trkpt><trkpt lat="45.63278610174483" lon="10.717119649015805"><ele>440.0</ele><time>2026-03-28T16:01:22Z</time></trkpt><trkpt lat="45.63270272937348" lon="10.717030017083342"><ele>440.0</ele><time>2026-03-28T16:01:23Z</time></trkpt><trkpt lat="45.632635924169755" lon="10.716957345030501"><ele>438.99999999999994</ele><time>2026-03-28T16:01:24Z</time></trkpt><trkpt lat="45.63256881874281" lon="10.716909386559783"><ele>438.0</ele><time>2026-03-28T16:01:25Z</time></trkpt><trkpt lat="45.6324911727325" lon="10.716868805598406"><ele>437.0</ele><time>2026-03-28T16:01:26Z</time></trkpt><trkpt lat="45.63240419156322" lon="10.716835437014788"><ele>436.0</ele><time>2026-03-28T16:01:27Z</time></trkpt><trkpt lat="45.632330370917316" lon="10.716800147348645"><ele>434.99999999999994</ele><time>2026-03-28T16:01:28Z</time></trkpt><trkpt lat="45.63225032682757" lon="10.716795128384858"><ele>434.0</ele><time>2026-03-28T16:01:29Z</time></trkpt><trkpt lat="45.63217436795303" lon="10.71680050286126"><ele>433.99999999999994</ele><time>2026-03-28T16:01:30Z</time></trkpt><trkpt lat="45.63209468991845" lon="10.716779068327375"><ele>434.0</ele><time>2026-03-28T16:01:31Z</time></trkpt><trkpt lat="45.632023228031144" lon="10.716740913310362"><ele>434.0</ele><time>2026-03-28T16:01:32Z</time></trkpt><trkpt lat="45.63193814479795" lon="10.716689146628456"><ele>434.0</ele><time>2026-03-28T16:01:33Z</time></trkpt><trkpt lat="45.631852579464585" lon="10.716605487979853"><ele>433.99999999999994</ele><time>2026-03-28T16:01:34Z</time></trkpt><trkpt lat="45.63178671519549" lon="10.716562380761486"><ele>434.0</ele><time>2026-03-28T16:01:35Z</time></trkpt><trkpt lat="45.63170977763055" lon="10.71651590483484"><ele>435.99999999999994</ele><time>2026-03-28T16:01:37Z</time></trkpt><trkpt lat="45.631635059768534" lon="10.716533326940324"><ele>438.0</ele><time>2026-03-28T16:01:40Z</time></trkpt><trkpt lat="45.63155966568827" lon="10.716603437621094"><ele>440.0</ele><time>2026-03-28T16:01:42Z</time></trkpt><trkpt lat="45.63145658599271" lon="10.716595766706547"><ele>442.0</ele><time>2026-03-28T16:01:44Z</time></trkpt><trkpt lat="45.63137878645299" lon="10.71660616898063"><ele>443.99999999999994</ele><time>2026-03-28T16:01:47Z</time></trkpt><trkpt lat="45.631309551653935" lon="10.71659043397897"><ele>446.0</ele><time>2026-03-28T16:01:54Z</time></trkpt><trkpt lat="45.63126496014656" lon="10.716467145661408"><ele>445.99999999999994</ele><time>2026-03-28T16:02:07Z</time></trkpt><trkpt lat="45.63119252820495" lon="10.716337273364005"><ele>446.0</ele><time>2026-03-28T16:02:09Z</time></trkpt><trkpt lat="45.63112474547555" lon="10.716268266735778"><ele>446.0</ele><time>2026-03-28T16:02:11Z</time></trkpt><trkpt lat="45.631068162248006" lon="10.71621071819148"><ele>446.0</ele><time>2026-03-28T16:02:15Z</time></trkpt><trkpt lat="45.63101581287794" lon="10.716122674215246"><ele>445.99999999999994</ele><time>2026-03-28T16:02:21Z</time></trkpt><trkpt lat="45.630966866334845" lon="10.71604218608643"><ele>446.0</ele><time>2026-03-28T16:03:43Z</time></trkpt><trkpt lat="45.63091813542455" lon="10.715984263572318"><ele>444.6</ele><time>2026-03-28T16:03:45Z</time></trkpt><trkpt lat="45.63085403963139" lon="10.715927859575475"><ele>443.20000000000005</ele><time>2026-03-28T16:03:46Z</time></trkpt><trkpt lat="45.630750787107644" lon="10.715833652872243"><ele>441.79999999999995</ele><time>2026-03-28T16:03:48Z</time></trkpt><trkpt lat="45.63066574085708" lon="10.715718808957057"><ele>440.4</ele><time>2026-03-28T16:03:50Z</time></trkpt><trkpt lat="45.63060037620827" lon="10.71567189609253"><ele>439.0</ele><time>2026-03-28T16:03:51Z</time></trkpt><trkpt lat="45.63052326107109" lon="10.715633598643143"><ele>439.00000000000006</ele><time>2026-03-28T16:03:52Z</time></trkpt><trkpt lat="45.630435331223566" lon="10.71558311883977"><ele>439.0</ele><time>2026-03-28T16:03:53Z</time></trkpt><trkpt lat="45.630358276017446" lon="10.715527247681287"><ele>439.0</ele><time>2026-03-28T16:03:54Z</time></trkpt><trkpt lat="45.6302984293923" lon="10.715456422194036"><ele>439.0</ele><time>2026-03-28T16:03:55Z</time></trkpt><trkpt lat="45.63023833685507" lon="10.715383175758365"><ele>439.00000000000006</ele><time>2026-03-28T16:03:56Z</time></trkpt><trkpt lat="45.630165236330264" lon="10.71530847832995"><ele>439.0</ele><time>2026-03-28T16:03:57Z</time></trkpt><trkpt lat="45.630090107182966" lon="10.715246312940772"><ele>437.33333333333337</ele><time>2026-03-28T16:03:58Z</time></trkpt><trkpt lat="45.630014083669245" lon="10.715197224411302"><ele>435.6666666666667</ele><time>2026-03-28T16:03:59Z</time></trkpt><trkpt lat="45.62993251962665" lon="10.715116049131193"><ele>434.0</ele><time>2026-03-28T16:04:00Z</time></trkpt><trkpt lat="45.62985899157663" lon="10.715033058806316"><ele>432.33333333333337</ele><time>2026-03-28T16:04:01Z</time></trkpt><trkpt lat="45.62979775600529" lon="10.714976830669631"><ele>430.6666666666667</ele><time>2026-03-28T16:04:02Z</time></trkpt><trkpt lat="45.62972960616426" lon="10.71493979394606"><ele>429.0</ele><time>2026-03-28T16:04:03Z</time></trkpt><trkpt lat="45.629651670701406" lon="10.714903250732673"><ele>429.0</ele><time>2026-03-28T16:04:04Z</time></trkpt><trkpt lat="45.62956089857622" lon="10.714879030231494"><ele>429.0</ele><time>2026-03-28T16:04:05Z</time></trkpt><trkpt lat="45.6294642734097" lon="10.714867592991922"><ele>429.0</ele><time>2026-03-28T16:04:06Z</time></trkpt><trkpt lat="45.62936480343955" lon="10.71485828467109"><ele>429.0</ele><time>2026-03-28T16:04:07Z</time></trkpt><trkpt lat="45.629271739027644" lon="10.714854489227887"><ele>429.0</ele><time>2026-03-28T16:04:08Z</time></trkpt><trkpt lat="45.629187761947236" lon="10.71483995000454"><ele>431.0</ele><time>2026-03-28T16:04:09Z</time></trkpt><trkpt lat="45.62908665844923" lon="10.71478850638349"><ele>433.0</ele><time>2026-03-28T16:04:11Z</time></trkpt><trkpt lat="45.62901755385652" lon="10.714719698181963"><ele>435.0</ele><time>2026-03-28T16:04:12Z</time></trkpt><trkpt lat="45.628946501711916" lon="10.714626252799185"><ele>437.0</ele><time>2026-03-28T16:04:13Z</time></trkpt><trkpt lat="45.628863413025265" lon="10.71454054241757"><ele>439.0</ele><time>2026-03-28T16:04:14Z</time></trkpt><trkpt lat="45.628788782428366" lon="10.71446595806758"><ele>439.0</ele><time>2026-03-28T16:04:15Z</time></trkpt><trkpt lat="45.628717554271084" lon="10.714417313076547"><ele>439.0</ele><time>2026-03-28T16:04:16Z</time></trkpt><trkpt lat="45.628634585271826" lon="10.714392466185986"><ele>439.0</ele><time>2026-03-28T16:04:17Z</time></trkpt><trkpt lat="45.628542662446556" lon="10.714376987486613"><ele>439.0</ele><time>2026-03-28T16:04:18Z</time></trkpt><trkpt lat="45.62843065480241" lon="10.714335143881195"><ele>439.0</ele><time>2026-03-28T16:04:19Z</time></trkpt><trkpt lat="45.62832982033742" lon="10.71427648994584"><ele>437.2</ele><time>2026-03-28T16:04:20Z</time></trkpt><trkpt lat="45.62822807278052" lon="10.71421646843734"><ele>435.4</ele><time>2026-03-28T16:04:21Z</time></trkpt><trkpt lat="45.628140923159854" lon="10.71418830946875"><ele>433.6</ele><time>2026-03-28T16:04:22Z</time></trkpt><trkpt lat="45.628055481633574" lon="10.714165815371496"><ele>431.8</ele><time>2026-03-28T16:04:23Z</time></trkpt><trkpt lat="45.62797698746774" lon="10.714112741194835"><ele>430.0</ele><time>2026-03-28T16:04:24Z</time></trkpt><trkpt lat="45.6279032440319" lon="10.714030073100973"><ele>430.0</ele><time>2026-03-28T16:04:25Z</time></trkpt><trkpt lat="45.62784719285226" lon="10.713956955589872"><ele>430.0</ele><time>2026-03-28T16:04:26Z</time></trkpt><trkpt lat="45.62778444536582" lon="10.713915174203425"><ele>430.0</ele><time>2026-03-28T16:04:27Z</time></trkpt><trkpt lat="45.62770050353219" lon="10.713897997446365"><ele>430.0</ele><time>2026-03-28T16:04:28Z</time></trkpt><trkpt lat="45.62760408024288" lon="10.713898896877732"><ele>430.0</ele><time>2026-03-28T16:04:29Z</time></trkpt><trkpt lat="45.62747999972626" lon="10.713911014294156"><ele>431.50000000000006</ele><time>2026-03-28T16:04:30Z</time></trkpt><trkpt lat="45.627363061098414" lon="10.713902244421762"><ele>433.0</ele><time>2026-03-28T16:04:31Z</time></trkpt><trkpt lat="45.62727462601323" lon="10.71387256791144"><ele>434.5</ele><time>2026-03-28T16:04:32Z</time></trkpt><trkpt lat="45.62720373557532" lon="10.713851848997802"><ele>436.0</ele><time>2026-03-28T16:04:33Z</time></trkpt><trkpt lat="45.62714620379035" lon="10.7137889990049"><ele>437.50000000000006</ele><time>2026-03-28T16:04:34Z</time></trkpt><trkpt lat="45.627083680705226" lon="10.71370230516828"><ele>439.0</ele><time>2026-03-28T16:04:35Z</time></trkpt><trkpt lat="45.62702823422752" lon="10.713612920738264"><ele>437.33333333333337</ele><time>2026-03-28T16:04:36Z</time></trkpt><trkpt lat="45.6269700923676" lon="10.71355415190675"><ele>435.6666666666667</ele><time>2026-03-28T16:04:37Z</time></trkpt><trkpt lat="45.62691087712092" lon="10.71347971371318"><ele>434.0</ele><time>2026-03-28T16:04:38Z</time></trkpt><trkpt lat="45.626853783175065" lon="10.713425652485281"><ele>432.33333333333337</ele><time>2026-03-28T16:04:39Z</time></trkpt><trkpt lat="45.62677119865851" lon="10.7133248846058"><ele>430.6666666666667</ele><time>2026-03-28T16:04:41Z</time></trkpt><trkpt lat="45.626706505982284" lon="10.713266888606384"><ele>429.0</ele><time>2026-03-28T16:04:42Z</time></trkpt><trkpt lat="45.62664841537737" lon="10.713206189660728"><ele>429.0</ele><time>2026-03-28T16:04:43Z</time></trkpt><trkpt lat="45.626601836023546" lon="10.713138866843739"><ele>429.0</ele><time>2026-03-28T16:04:44Z</time></trkpt><trkpt lat="45.62651353738212" lon="10.71301547692658"><ele>429.0</ele><time>2026-03-28T16:04:46Z</time></trkpt><trkpt lat="45.62646677633835" lon="10.712932087466102"><ele>429.0</ele><time>2026-03-28T16:04:47Z</time></trkpt><trkpt lat="45.626415837047865" lon="10.712867057030612"><ele>429.0</ele><time>2026-03-28T16:04:48Z</time></trkpt><trkpt lat="45.626355646552845" lon="10.712766726640183"><ele>429.0</ele><time>2026-03-28T16:04:50Z</time></trkpt><trkpt lat="45.62629848261768" lon="10.712688400051281"><ele>426.0</ele><time>2026-03-28T16:04:52Z</time></trkpt><trkpt lat="45.626176656117494" lon="10.712626091517786"><ele>423.0</ele><time>2026-03-28T16:04:54Z</time></trkpt><trkpt lat="45.62615411405076" lon="10.712374578241924"><ele>420.0</ele><time>2026-03-28T16:04:55Z</time></trkpt><trkpt lat="45.626077147743125" lon="10.712333556563921"><ele>417.0</ele><time>2026-03-28T16:04:56Z</time></trkpt><trkpt lat="45.62599874311846" lon="10.712282126801929"><ele>417.0</ele><time>2026-03-28T16:04:57Z</time></trkpt><trkpt lat="45.62589589321703" lon="10.71222065723235"><ele>417.0</ele><time>2026-03-28T16:04:59Z</time></trkpt><trkpt lat="45.625822520407326" lon="10.712209578490334"><ele>417.0</ele><time>2026-03-28T16:05:00Z</time></trkpt><trkpt lat="45.625689449026" lon="10.712241097248436"><ele>417.0</ele><time>2026-03-28T16:05:02Z</time></trkpt><trkpt lat="45.62562451230877" lon="10.712283103965353"><ele>417.0</ele><time>2026-03-28T16:05:03Z</time></trkpt><trkpt lat="45.62557757694497" lon="10.712349233916296"><ele>417.0</ele><time>2026-03-28T16:05:04Z</time></trkpt><trkpt lat="45.62548360006954" lon="10.712452097676007"><ele>417.0</ele><time>2026-03-28T16:05:06Z</time></trkpt><trkpt lat="45.625417100070756" lon="10.712524183811679"><ele>417.0</ele><time>2026-03-28T16:05:08Z</time></trkpt><trkpt lat="45.62532868541868" lon="10.712398482369421"><ele>417.0</ele><time>2026-03-28T16:05:11Z</time></trkpt><trkpt lat="45.62525687354611" lon="10.712337474507317"><ele>417.0</ele><time>2026-03-28T16:05:12Z</time></trkpt><trkpt lat="45.62512438116395" lon="10.712239719798959"><ele>417.6</ele><time>2026-03-28T16:05:14Z</time></trkpt><trkpt lat="45.62503453540012" lon="10.712198550405923"><ele>418.20000000000005</ele><time>2026-03-28T16:05:15Z</time></trkpt><trkpt lat="45.62493759182966" lon="10.712150882952304"><ele>418.8</ele><time>2026-03-28T16:05:16Z</time></trkpt><trkpt lat="45.62485203348952" lon="10.712086108624845"><ele>419.4</ele><time>2026-03-28T16:05:17Z</time></trkpt><trkpt lat="45.62481376253836" lon="10.711964665199092"><ele>420.0</ele><time>2026-03-28T16:05:18Z</time></trkpt><trkpt lat="45.624747307270454" lon="10.711847699336259"><ele>417.0</ele><time>2026-03-28T16:05:19Z</time></trkpt><trkpt lat="45.62463816781817" lon="10.711733547919163"><ele>414.0</ele><time>2026-03-28T16:05:20Z</time></trkpt><trkpt lat="45.62452153481299" lon="10.711627065227429"><ele>411.0</ele><time>2026-03-28T16:05:21Z</time></trkpt><trkpt lat="45.624414003565725" lon="10.711499945589585"><ele>408.0</ele><time>2026-03-28T16:05:22Z</time></trkpt><trkpt lat="45.62428581844646" lon="10.711422058884878"><ele>408.0</ele><time>2026-03-28T16:05:23Z</time></trkpt><trkpt lat="45.62414029409919" lon="10.7113325538151"><ele>408.0</ele><time>2026-03-28T16:05:24Z</time></trkpt><trkpt lat="45.623991095029155" lon="10.711240331840541"><ele>408.0</ele><time>2026-03-28T16:05:25Z</time></trkpt><trkpt lat="45.6238592563185" lon="10.71116633351036"><ele>408.0</ele><time>2026-03-28T16:05:26Z</time></trkpt><trkpt lat="45.623736347893235" lon="10.711106095372164"><ele>408.0</ele><time>2026-03-28T16:05:27Z</time></trkpt><trkpt lat="45.62362501638554" lon="10.71102965934638"><ele>408.0</ele><time>2026-03-28T16:05:28Z</time></trkpt><trkpt lat="45.623513985828744" lon="10.710997365428103"><ele>408.0</ele><time>2026-03-28T16:05:29Z</time></trkpt><trkpt lat="45.62340439084316" lon="10.710995185441634"><ele>406.6666666666667</ele><time>2026-03-28T16:05:30Z</time></trkpt><trkpt lat="45.623301961388066" lon="10.710997633181705"><ele>405.33333333333337</ele><time>2026-03-28T16:05:31Z</time></trkpt><trkpt lat="45.62321737422438" lon="10.710989596993116"><ele>404.0</ele><time>2026-03-28T16:05:32Z</time></trkpt><trkpt lat="45.62314688263255" lon="10.710995975258964"><ele>402.6666666666667</ele><time>2026-03-28T16:05:33Z</time></trkpt><trkpt lat="45.62310333441075" lon="10.710883052800728"><ele>401.33333333333337</ele><time>2026-03-28T16:05:34Z</time></trkpt><trkpt lat="45.6230446789348" lon="10.710790496481442"><ele>400.0</ele><time>2026-03-28T16:05:35Z</time></trkpt><trkpt lat="45.62297181741445" lon="10.710736918896382"><ele>400.0</ele><time>2026-03-28T16:05:36Z</time></trkpt><trkpt lat="45.62287974796433" lon="10.710699507723948"><ele>400.0</ele><time>2026-03-28T16:05:37Z</time></trkpt><trkpt lat="45.62277115662069" lon="10.710720174606928"><ele>400.0</ele><time>2026-03-28T16:05:38Z</time></trkpt><trkpt lat="45.622664172495746" lon="10.710717355946354"><ele>400.0</ele><time>2026-03-28T16:05:39Z</time></trkpt><trkpt lat="45.62255799049989" lon="10.71071480005285"><ele>400.0</ele><time>2026-03-28T16:05:40Z</time></trkpt><trkpt lat="45.62245999417277" lon="10.710694640927859"><ele>400.00000000000006</ele><time>2026-03-28T16:05:41Z</time></trkpt><trkpt lat="45.622371296059335" lon="10.7106710319624"><ele>400.0</ele><time>2026-03-28T16:05:42Z</time></trkpt><trkpt lat="45.622297413588335" lon="10.710647137542265"><ele>400.0</ele><time>2026-03-28T16:05:43Z</time></trkpt><trkpt lat="45.622230813357824" lon="10.710622703980903"><ele>400.0</ele><time>2026-03-28T16:05:44Z</time></trkpt><trkpt lat="45.62216323624025" lon="10.710590541911866"><ele>400.00000000000006</ele><time>2026-03-28T16:05:45Z</time></trkpt><trkpt lat="45.62205607017702" lon="10.710483036279888"><ele>400.0</ele><time>2026-03-28T16:05:47Z</time></trkpt><trkpt lat="45.6219859529968" lon="10.710425275966557"><ele>400.2</ele><time>2026-03-28T16:05:48Z</time></trkpt><trkpt lat="45.6218994047255" lon="10.71038433509088"><ele>400.4</ele><time>2026-03-28T16:05:49Z</time></trkpt><trkpt lat="45.621812630797244" lon="10.710344906817854"><ele>400.6</ele><time>2026-03-28T16:05:50Z</time></trkpt><trkpt lat="45.621707395806304" lon="10.71030108671754"><ele>400.8</ele><time>2026-03-28T16:05:51Z</time></trkpt><trkpt lat="45.621609309229704" lon="10.710262620288177"><ele>401.0</ele><time>2026-03-28T16:05:52Z</time></trkpt><trkpt lat="45.62152507228672" lon="10.710223341104806"><ele>399.6</ele><time>2026-03-28T16:05:53Z</time></trkpt><trkpt lat="45.62144665154694" lon="10.7101815848367"><ele>398.20000000000005</ele><time>2026-03-28T16:05:54Z</time></trkpt><trkpt lat="45.62136981612756" lon="10.710139817643034"><ele>396.79999999999995</ele><time>2026-03-28T16:05:55Z</time></trkpt><trkpt lat="45.62127623779129" lon="10.710108600312191"><ele>395.4</ele><time>2026-03-28T16:05:56Z</time></trkpt><trkpt lat="45.62117497193109" lon="10.71003198906388"><ele>394.0</ele><time>2026-03-28T16:05:57Z</time></trkpt><trkpt lat="45.62108526932534" lon="10.709936796266238"><ele>394.0</ele><time>2026-03-28T16:05:58Z</time></trkpt><trkpt lat="45.62099249994312" lon="10.709861368588996"><ele>394.0</ele><time>2026-03-28T16:05:59Z</time></trkpt><trkpt lat="45.62090850784186" lon="10.709792776026458"><ele>394.0</ele><time>2026-03-28T16:06:00Z</time></trkpt><trkpt lat="45.62081528305398" lon="10.709726861782215"><ele>394.0</ele><time>2026-03-28T16:06:01Z</time></trkpt><trkpt lat="45.62073039995932" lon="10.709639563971324"><ele>394.0</ele><time>2026-03-28T16:06:02Z</time></trkpt><trkpt lat="45.6206397787712" lon="10.709555810762"><ele>394.0</ele><time>2026-03-28T16:06:03Z</time></trkpt><trkpt lat="45.62056864680939" lon="10.709450095589668"><ele>394.0</ele><time>2026-03-28T16:06:04Z</time></trkpt><trkpt lat="45.62048733318143" lon="10.709362580042356"><ele>394.0</ele><time>2026-03-28T16:06:05Z</time></trkpt><trkpt lat="45.62040395892769" lon="10.709294015642937"><ele>394.0</ele><time>2026-03-28T16:06:06Z</time></trkpt><trkpt lat="45.62029788037131" lon="10.709273068208512"><ele>394.0</ele><time>2026-03-28T16:06:07Z</time></trkpt><trkpt lat="45.620186814191314" lon="10.70925817199948"><ele>391.5</ele><time>2026-03-28T16:06:08Z</time></trkpt><trkpt lat="45.62006228300287" lon="10.709288004622088"><ele>389.0</ele><time>2026-03-28T16:06:09Z</time></trkpt><trkpt lat="45.61991352462605" lon="10.709301522368303"><ele>386.5</ele><time>2026-03-28T16:06:10Z</time></trkpt><trkpt lat="45.61977219793287" lon="10.709325291676475"><ele>384.0</ele><time>2026-03-28T16:06:11Z</time></trkpt><trkpt lat="45.619651014440905" lon="10.709342502371236"><ele>384.0</ele><time>2026-03-28T16:06:12Z</time></trkpt><trkpt lat="45.61954188185088" lon="10.709355356522352"><ele>384.0</ele><time>2026-03-28T16:06:13Z</time></trkpt><trkpt lat="45.619448109108866" lon="10.709364238557288"><ele>384.0</ele><time>2026-03-28T16:06:14Z</time></trkpt><trkpt lat="45.619357095892084" lon="10.709386275295302"><ele>384.0</ele><time>2026-03-28T16:06:15Z</time></trkpt><trkpt lat="45.61927932253351" lon="10.70939392760378"><ele>384.0</ele><time>2026-03-28T16:06:16Z</time></trkpt><trkpt lat="45.619207501031184" lon="10.709395487354351"><ele>384.0</ele><time>2026-03-28T16:06:17Z</time></trkpt><trkpt lat="45.6191392244223" lon="10.709397048949992"><ele>383.5</ele><time>2026-03-28T16:06:18Z</time></trkpt><trkpt lat="45.619076395885855" lon="10.709388855996583"><ele>383.0</ele><time>2026-03-28T16:06:19Z</time></trkpt><trkpt lat="45.61900259988679" lon="10.70939293761673"><ele>382.5</ele><time>2026-03-28T16:06:21Z</time></trkpt><trkpt lat="45.61892998030486" lon="10.70936852653825"><ele>382.0</ele><time>2026-03-28T16:06:23Z</time></trkpt><trkpt lat="45.61889586855445" lon="10.709262392271503"><ele>381.5</ele><time>2026-03-28T16:06:24Z</time></trkpt><trkpt lat="45.618839830620615" lon="10.709138952223649"><ele>381.0</ele><time>2026-03-28T16:06:25Z</time></trkpt><trkpt lat="45.61876093589749" lon="10.709010248399997"><ele>381.0</ele><time>2026-03-28T16:06:26Z</time></trkpt><trkpt lat="45.61870367688815" lon="10.708846289862036"><ele>381.0</ele><time>2026-03-28T16:06:27Z</time></trkpt><trkpt lat="45.61861925627345" lon="10.708704515909487"><ele>381.0</ele><time>2026-03-28T16:06:28Z</time></trkpt><trkpt lat="45.61855784711503" lon="10.708558838721093"><ele>381.0</ele><time>2026-03-28T16:06:29Z</time></trkpt><trkpt lat="45.61850068204292" lon="10.708412078270847"><ele>381.0</ele><time>2026-03-28T16:06:30Z</time></trkpt><trkpt lat="45.61845220246332" lon="10.708253212630995"><ele>381.0</ele><time>2026-03-28T16:06:31Z</time></trkpt><trkpt lat="45.61841451140816" lon="10.708090439042655"><ele>381.0</ele><time>2026-03-28T16:06:32Z</time></trkpt><trkpt lat="45.61839836275288" lon="10.707934222013085"><ele>381.0</ele><time>2026-03-28T16:06:33Z</time></trkpt><trkpt lat="45.618389632287624" lon="10.707779395090668"><ele>380.0</ele><time>2026-03-28T16:06:34Z</time></trkpt><trkpt lat="45.618379766923795" lon="10.70763271081029"><ele>379.0</ele><time>2026-03-28T16:06:35Z</time></trkpt><trkpt lat="45.618379256126225" lon="10.707513088197487"><ele>378.0</ele><time>2026-03-28T16:06:36Z</time></trkpt><trkpt lat="45.61837746563048" lon="10.707423090978878"><ele>377.0</ele><time>2026-03-28T16:06:37Z</time></trkpt><trkpt lat="45.61841320895756" lon="10.707335543223511"><ele>376.0</ele><time>2026-03-28T16:06:39Z</time></trkpt><trkpt lat="45.61850379597688" lon="10.70741639118569"><ele>375.0</ele><time>2026-03-28T16:06:41Z</time></trkpt><trkpt lat="45.61848508688335" lon="10.707526949402617"><ele>375.0</ele><time>2026-03-28T16:06:42Z</time></trkpt><trkpt lat="45.618500069493464" lon="10.707659811845808"><ele>375.0</ele><time>2026-03-28T16:06:43Z</time></trkpt><trkpt lat="45.61852558092117" lon="10.707791228217257"><ele>375.0</ele><time>2026-03-28T16:06:44Z</time></trkpt><trkpt lat="45.61859301759235" lon="10.707942261821165"><ele>375.0</ele><time>2026-03-28T16:06:45Z</time></trkpt><trkpt lat="45.61867425968322" lon="10.708114839685626"><ele>373.5</ele><time>2026-03-28T16:06:46Z</time></trkpt><trkpt lat="45.61876623231303" lon="10.708255690542606"><ele>372.0</ele><time>2026-03-28T16:06:47Z</time></trkpt><trkpt lat="45.618890447343006" lon="10.708359005435426"><ele>370.5</ele><time>2026-03-28T16:06:48Z</time></trkpt><trkpt lat="45.61903446338553" lon="10.70844054334977"><ele>369.0</ele><time>2026-03-28T16:06:49Z</time></trkpt><trkpt lat="45.619186100457036" lon="10.708500195592173"><ele>369.0</ele><time>2026-03-28T16:06:50Z</time></trkpt><trkpt lat="45.61931630646594" lon="10.708546362072735"><ele>369.0</ele><time>2026-03-28T16:06:51Z</time></trkpt><trkpt lat="45.619436019391486" lon="10.708561760047761"><ele>369.0</ele><time>2026-03-28T16:06:52Z</time></trkpt><trkpt lat="45.61955481452435" lon="10.708519883791528"><ele>369.0</ele><time>2026-03-28T16:06:53Z</time></trkpt><trkpt lat="45.61969359475004" lon="10.708448891457724"><ele>368.75</ele><time>2026-03-28T16:06:54Z</time></trkpt><trkpt lat="45.61984708616635" lon="10.708416281571052"><ele>368.5</ele><time>2026-03-28T16:06:55Z</time></trkpt><trkpt lat="45.61998464787057" lon="10.708368434027"><ele>368.25</ele><time>2026-03-28T16:06:56Z</time></trkpt><trkpt lat="45.620109470554965" lon="10.708306703823537"><ele>368.0</ele><time>2026-03-28T16:06:57Z</time></trkpt><trkpt lat="45.62022311126317" lon="10.708275599173252"><ele>367.33333333333337</ele><time>2026-03-28T16:06:58Z</time></trkpt><trkpt lat="45.620324187981694" lon="10.708255795777184"><ele>366.6666666666667</ele><time>2026-03-28T16:06:59Z</time></trkpt><trkpt lat="45.62040879441827" lon="10.708245948370443"><ele>366.0</ele><time>2026-03-28T16:07:00Z</time></trkpt><trkpt lat="45.6204853815179" lon="10.708275352233223"><ele>365.3333333333333</ele><time>2026-03-28T16:07:01Z</time></trkpt><trkpt lat="45.62054237102271" lon="10.708327290494847"><ele>364.66666666666663</ele><time>2026-03-28T16:07:02Z</time></trkpt><trkpt lat="45.62061613277762" lon="10.708302622583371"><ele>364.0</ele><time>2026-03-28T16:07:04Z</time></trkpt><trkpt lat="45.62061601401221" lon="10.708128080266304"><ele>364.0</ele><time>2026-03-28T16:07:06Z</time></trkpt><trkpt lat="45.62051594697536" lon="10.708072752770356"><ele>364.0</ele><time>2026-03-28T16:07:07Z</time></trkpt><trkpt lat="45.620387906308444" lon="10.708066121662469"><ele>364.0</ele><time>2026-03-28T16:07:08Z</time></trkpt><trkpt lat="45.620208772014216" lon="10.707989694320975"><ele>364.0</ele><time>2026-03-28T16:07:09Z</time></trkpt><trkpt lat="45.61999216725725" lon="10.70792115355302"><ele>365.3333333333333</ele><time>2026-03-28T16:07:10Z</time></trkpt><trkpt lat="45.61980521163445" lon="10.707861994728946"><ele>366.6666666666667</ele><time>2026-03-28T16:07:11Z</time></trkpt><trkpt lat="45.6196522035324" lon="10.707829373277814"><ele>368.0</ele><time>2026-03-28T16:07:12Z</time></trkpt><trkpt lat="45.61953455651529" lon="10.707755508572001"><ele>365.59999999999997</ele><time>2026-03-28T16:07:13Z</time></trkpt><trkpt lat="45.61945353695381" lon="10.70767807368793"><ele>363.2</ele><time>2026-03-28T16:07:14Z</time></trkpt><trkpt lat="45.61940299771349" lon="10.707561228511869"><ele>360.8</ele><time>2026-03-28T16:07:15Z</time></trkpt><trkpt lat="45.61939331746567" lon="10.70742066727866"><ele>358.4</ele><time>2026-03-28T16:07:16Z</time></trkpt><trkpt lat="45.619414286520836" lon="10.707253444049028"><ele>356.0</ele><time>2026-03-28T16:07:17Z</time></trkpt><trkpt lat="45.619406394915735" lon="10.707066963615272"><ele>354.25</ele><time>2026-03-28T16:07:18Z</time></trkpt><trkpt lat="45.61936107523346" lon="10.706889532995975"><ele>352.5</ele><time>2026-03-28T16:07:19Z</time></trkpt><trkpt lat="45.619313374143665" lon="10.706707928604859"><ele>350.75</ele><time>2026-03-28T16:07:20Z</time></trkpt><trkpt lat="45.61923595910386" lon="10.706545364377684"><ele>349.0</ele><time>2026-03-28T16:07:21Z</time></trkpt><trkpt lat="45.61912880201994" lon="10.706406525568328"><ele>349.0</ele><time>2026-03-28T16:07:22Z</time></trkpt><trkpt lat="45.61900148620627" lon="10.70625071949129"><ele>349.0</ele><time>2026-03-28T16:07:23Z</time></trkpt><trkpt lat="45.61885696218774" lon="10.706097736406026"><ele>349.0</ele><time>2026-03-28T16:07:24Z</time></trkpt><trkpt lat="45.618712032251885" lon="10.705914324233671"><ele>348.0</ele><time>2026-03-28T16:07:25Z</time></trkpt><trkpt lat="45.618561116771254" lon="10.705750275368482"><ele>347.0</ele><time>2026-03-28T16:07:26Z</time></trkpt><trkpt lat="45.618414936075496" lon="10.705595941768658"><ele>346.0</ele><time>2026-03-28T16:07:27Z</time></trkpt><trkpt lat="45.61828215885508" lon="10.705455759195171"><ele>346.0</ele><time>2026-03-28T16:07:28Z</time></trkpt><trkpt lat="45.618156372573026" lon="10.70532295745751"><ele>346.0</ele><time>2026-03-28T16:07:29Z</time></trkpt><trkpt lat="45.61803429046256" lon="10.705190051461683"><ele>346.0</ele><time>2026-03-28T16:07:30Z</time></trkpt><trkpt lat="45.61791910389418" lon="10.705065323241788"><ele>343.75</ele><time>2026-03-28T16:07:31Z</time></trkpt><trkpt lat="45.617810744951335" lon="10.704954068747286"><ele>341.5</ele><time>2026-03-28T16:07:32Z</time></trkpt><trkpt lat="45.617710215355174" lon="10.704855771620952"><ele>339.25</ele><time>2026-03-28T16:07:33Z</time></trkpt><trkpt lat="45.61760461741992" lon="10.704789036592516"><ele>337.0</ele><time>2026-03-28T16:07:34Z</time></trkpt><trkpt lat="45.61752205065942" lon="10.704698604142843"><ele>337.0</ele><time>2026-03-28T16:07:35Z</time></trkpt><trkpt lat="45.61739306276216" lon="10.704734074190888"><ele>337.0</ele><time>2026-03-28T16:07:36Z</time></trkpt><trkpt lat="45.61726982672141" lon="10.7047632561934"><ele>337.0</ele><time>2026-03-28T16:07:37Z</time></trkpt><trkpt lat="45.61711920707372" lon="10.704764049453214"><ele>337.0</ele><time>2026-03-28T16:07:38Z</time></trkpt><trkpt lat="45.61696846971174" lon="10.704780688461414"><ele>336.5</ele><time>2026-03-28T16:07:39Z</time></trkpt><trkpt lat="45.61681697923119" lon="10.704796951117364"><ele>336.0</ele><time>2026-03-28T16:07:40Z</time></trkpt><trkpt lat="45.61668054401199" lon="10.704810639448814"><ele>335.5</ele><time>2026-03-28T16:07:41Z</time></trkpt><trkpt lat="45.61655026692678" lon="10.704823709946188"><ele>335.0</ele><time>2026-03-28T16:07:42Z</time></trkpt><trkpt lat="45.61643757090481" lon="10.704830940758905"><ele>335.0</ele><time>2026-03-28T16:07:43Z</time></trkpt><trkpt lat="45.616340605709716" lon="10.704810863288994"><ele>335.0</ele><time>2026-03-28T16:07:44Z</time></trkpt><trkpt lat="45.61625774924542" lon="10.704731095448736"><ele>335.0</ele><time>2026-03-28T16:07:45Z</time></trkpt><trkpt lat="45.61615816623511" lon="10.704617354976094"><ele>335.0</ele><time>2026-03-28T16:07:46Z</time></trkpt><trkpt lat="45.6160404476489" lon="10.704483004926747"><ele>330.6666666666667</ele><time>2026-03-28T16:07:47Z</time></trkpt><trkpt lat="45.615914769991434" lon="10.704345132594952"><ele>326.3333333333333</ele><time>2026-03-28T16:07:48Z</time></trkpt><trkpt lat="45.61578552112572" lon="10.704203906484564"><ele>322.0</ele><time>2026-03-28T16:07:49Z</time></trkpt><trkpt lat="45.61565138412631" lon="10.704057822054166"><ele>322.0</ele><time>2026-03-28T16:07:50Z</time></trkpt><trkpt lat="45.6155135668295" lon="10.703909345593285"><ele>322.0</ele><time>2026-03-28T16:07:51Z</time></trkpt><trkpt lat="45.61537073920266" lon="10.703757870356846"><ele>322.0</ele><time>2026-03-28T16:07:52Z</time></trkpt><trkpt lat="45.615226907357986" lon="10.703605844907832"><ele>320.3333333333333</ele><time>2026-03-28T16:07:53Z</time></trkpt><trkpt lat="45.61508988901005" lon="10.703461021105332"><ele>318.6666666666667</ele><time>2026-03-28T16:07:54Z</time></trkpt><trkpt lat="45.6149624303956" lon="10.703326424192053"><ele>317.0</ele><time>2026-03-28T16:07:55Z</time></trkpt><trkpt lat="45.61484427567244" lon="10.703201676980589"><ele>317.0</ele><time>2026-03-28T16:07:56Z</time></trkpt><trkpt lat="45.61472834363495" lon="10.703083160381444"><ele>317.0</ele><time>2026-03-28T16:07:57Z</time></trkpt><trkpt lat="45.61461362896442" lon="10.702981572528264"><ele>317.0</ele><time>2026-03-28T16:07:58Z</time></trkpt><trkpt lat="45.61446612492187" lon="10.702954165566947"><ele>317.0</ele><time>2026-03-28T16:07:59Z</time></trkpt><trkpt lat="45.61432701116665" lon="10.70287369047672"><ele>316.0</ele><time>2026-03-28T16:08:00Z</time></trkpt><trkpt lat="45.61417863319039" lon="10.702815129978733"><ele>315.0</ele><time>2026-03-28T16:08:01Z</time></trkpt><trkpt lat="45.61403250757382" lon="10.702757417584177"><ele>314.0</ele><time>2026-03-28T16:08:02Z</time></trkpt><trkpt lat="45.6138960784981" lon="10.702702977663884"><ele>313.0</ele><time>2026-03-28T16:08:03Z</time></trkpt><trkpt lat="45.61377840629951" lon="10.702656285851047"><ele>312.2</ele><time>2026-03-28T16:08:04Z</time></trkpt><trkpt lat="45.61368035491521" lon="10.702618906877776"><ele>311.4</ele><time>2026-03-28T16:08:05Z</time></trkpt><trkpt lat="45.61360035273916" lon="10.702588408583619"><ele>310.59999999999997</ele><time>2026-03-28T16:08:06Z</time></trkpt><trkpt lat="45.61350595367996" lon="10.702554932623956"><ele>309.8</ele><time>2026-03-28T16:08:07Z</time></trkpt><trkpt lat="45.61339610862887" lon="10.702516121967015"><ele>309.0</ele><time>2026-03-28T16:08:08Z</time></trkpt><trkpt lat="45.61327790730279" lon="10.702476806009727"><ele>309.0</ele><time>2026-03-28T16:08:09Z</time></trkpt><trkpt lat="45.613150297930446" lon="10.702436181280367"><ele>309.0</ele><time>2026-03-28T16:08:10Z</time></trkpt><trkpt lat="45.61302148293121" lon="10.702418925907896"><ele>309.0</ele><time>2026-03-28T16:08:11Z</time></trkpt><trkpt lat="45.61289266340361" lon="10.702371281164343"><ele>309.0</ele><time>2026-03-28T16:08:12Z</time></trkpt><trkpt lat="45.61277541386309" lon="10.702332177691925"><ele>309.0</ele><time>2026-03-28T16:08:13Z</time></trkpt><trkpt lat="45.61266243665696" lon="10.702295926831225"><ele>309.0</ele><time>2026-03-28T16:08:14Z</time></trkpt><trkpt lat="45.61255249169835" lon="10.702248063877063"><ele>309.0</ele><time>2026-03-28T16:08:15Z</time></trkpt><trkpt lat="45.6124485663112" lon="10.702204970541894"><ele>309.0</ele><time>2026-03-28T16:08:16Z</time></trkpt><trkpt lat="45.61234641816364" lon="10.702166632240877"><ele>309.0</ele><time>2026-03-28T16:08:17Z</time></trkpt><trkpt lat="45.61224748926146" lon="10.702134837570238"><ele>309.0</ele><time>2026-03-28T16:08:18Z</time></trkpt><trkpt lat="45.61215824402706" lon="10.702081343016813"><ele>309.0</ele><time>2026-03-28T16:08:19Z</time></trkpt><trkpt lat="45.612068946363664" lon="10.70205305219734"><ele>309.0</ele><time>2026-03-28T16:08:20Z</time></trkpt><trkpt lat="45.61197780592301" lon="10.702040025633806"><ele>309.0</ele><time>2026-03-28T16:08:21Z</time></trkpt><trkpt lat="45.611892233800056" lon="10.702037283018472"><ele>309.0</ele><time>2026-03-28T16:08:22Z</time></trkpt><trkpt lat="45.61180343969809" lon="10.70207096148708"><ele>309.0</ele><time>2026-03-28T16:08:23Z</time></trkpt><trkpt lat="45.61173471304385" lon="10.702114911525944"><ele>309.0</ele><time>2026-03-28T16:08:24Z</time></trkpt><trkpt lat="45.61167800212925" lon="10.702175258071566"><ele>309.0</ele><time>2026-03-28T16:08:25Z</time></trkpt><trkpt lat="45.611559349429584" lon="10.702160895355046"><ele>309.0</ele><time>2026-03-28T16:08:27Z</time></trkpt><trkpt lat="45.61151157554188" lon="10.702082386993789"><ele>309.0</ele><time>2026-03-28T16:08:28Z</time></trkpt><trkpt lat="45.61148495053705" lon="10.70197171008512"><ele>309.0</ele><time>2026-03-28T16:08:29Z</time></trkpt><trkpt lat="45.61140518225046" lon="10.701920005997902"><ele>308.59999999999997</ele><time>2026-03-28T16:08:30Z</time></trkpt><trkpt lat="45.611305317592226" lon="10.701901178125768"><ele>308.2</ele><time>2026-03-28T16:08:31Z</time></trkpt><trkpt lat="45.611223833182805" lon="10.70190936580543"><ele>307.79999999999995</ele><time>2026-03-28T16:08:32Z</time></trkpt><trkpt lat="45.6111262614148" lon="10.701929439760129"><ele>307.4</ele><time>2026-03-28T16:08:33Z</time></trkpt><trkpt lat="45.61102036829014" lon="10.701939638126444"><ele>307.0</ele><time>2026-03-28T16:08:34Z</time></trkpt><trkpt lat="45.61091375690989" lon="10.701952097715877"><ele>307.0</ele><time>2026-03-28T16:08:35Z</time></trkpt><trkpt lat="45.61080996615223" lon="10.701942180406757"><ele>307.0</ele><time>2026-03-28T16:08:36Z</time></trkpt><trkpt lat="45.610703498071" lon="10.70193851132288"><ele>307.0</ele><time>2026-03-28T16:08:37Z</time></trkpt><trkpt lat="45.610590904421386" lon="10.701866469296332"><ele>307.0</ele><time>2026-03-28T16:08:38Z</time></trkpt><trkpt lat="45.61047008868418" lon="10.701796276673843"><ele>306.5</ele><time>2026-03-28T16:08:39Z</time></trkpt><trkpt lat="45.61034017411065" lon="10.701715046626882"><ele>306.0</ele><time>2026-03-28T16:08:40Z</time></trkpt><trkpt lat="45.61019738996284" lon="10.701640880480992"><ele>305.5</ele><time>2026-03-28T16:08:41Z</time></trkpt><trkpt lat="45.61006341485695" lon="10.701561016698388"><ele>305.0</ele><time>2026-03-28T16:08:42Z</time></trkpt><trkpt lat="45.609947516411914" lon="10.701486064800214"><ele>305.0</ele><time>2026-03-28T16:08:43Z</time></trkpt><trkpt lat="45.609846719706574" lon="10.701389471182232"><ele>305.0</ele><time>2026-03-28T16:08:44Z</time></trkpt><trkpt lat="45.60973271883058" lon="10.701303689265668"><ele>305.0</ele><time>2026-03-28T16:08:45Z</time></trkpt><trkpt lat="45.60960012542333" lon="10.701223888273578"><ele>305.0</ele><time>2026-03-28T16:08:46Z</time></trkpt><trkpt lat="45.60945130536965" lon="10.70117236010107"><ele>305.33333333333337</ele><time>2026-03-28T16:08:47Z</time></trkpt><trkpt lat="45.60929737790076" lon="10.701126135672279"><ele>305.6666666666667</ele><time>2026-03-28T16:08:48Z</time></trkpt><trkpt lat="45.609148613113746" lon="10.701081664670921"><ele>306.0</ele><time>2026-03-28T16:08:49Z</time></trkpt><trkpt lat="45.60900024173041" lon="10.701038074840053"><ele>304.3333333333333</ele><time>2026-03-28T16:08:50Z</time></trkpt><trkpt lat="45.60884220250659" lon="10.701005194671058"><ele>302.66666666666663</ele><time>2026-03-28T16:08:51Z</time></trkpt><trkpt lat="45.60868176028023" lon="10.700968696936831"><ele>301.0</ele><time>2026-03-28T16:08:52Z</time></trkpt><trkpt lat="45.60852563697702" lon="10.700922972024104"><ele>301.0</ele><time>2026-03-28T16:08:53Z</time></trkpt><trkpt lat="45.608381615667696" lon="10.700862278857445"><ele>301.0</ele><time>2026-03-28T16:08:54Z</time></trkpt><trkpt lat="45.60825874681977" lon="10.700802617498598"><ele>301.0</ele><time>2026-03-28T16:08:55Z</time></trkpt><trkpt lat="45.608134595196546" lon="10.700761585097963"><ele>301.0</ele><time>2026-03-28T16:08:56Z</time></trkpt><trkpt lat="45.6080149638059" lon="10.700710737178575"><ele>301.0</ele><time>2026-03-28T16:08:57Z</time></trkpt><trkpt lat="45.607886938578034" lon="10.70065596456606"><ele>301.0</ele><time>2026-03-28T16:08:58Z</time></trkpt><trkpt lat="45.607747159191796" lon="10.70060433428319"><ele>301.0</ele><time>2026-03-28T16:08:59Z</time></trkpt><trkpt lat="45.607601495464046" lon="10.70057633951411"><ele>301.0</ele><time>2026-03-28T16:09:00Z</time></trkpt><trkpt lat="45.60747055773479" lon="10.70053088709295"><ele>301.5</ele><time>2026-03-28T16:09:01Z</time></trkpt><trkpt lat="45.607348898297175" lon="10.700541231533865"><ele>302.0</ele><time>2026-03-28T16:09:02Z</time></trkpt><trkpt lat="45.60722614433442" lon="10.7005465302733"><ele>302.5</ele><time>2026-03-28T16:09:03Z</time></trkpt><trkpt lat="45.607102844970335" lon="10.700557741647929"><ele>303.0</ele><time>2026-03-28T16:09:04Z</time></trkpt><trkpt lat="45.60697965233674" lon="10.700551476736987"><ele>303.0</ele><time>2026-03-28T16:09:05Z</time></trkpt><trkpt lat="45.606876964938394" lon="10.7005280576078"><ele>303.0</ele><time>2026-03-28T16:09:06Z</time></trkpt><trkpt lat="45.60678872035776" lon="10.700464949581951"><ele>303.0</ele><time>2026-03-28T16:09:08Z</time></trkpt><trkpt lat="45.60675855520577" lon="10.700316477315416"><ele>303.0</ele><time>2026-03-28T16:09:10Z</time></trkpt><trkpt lat="45.60678543292528" lon="10.700226072742684"><ele>303.0</ele><time>2026-03-28T16:09:11Z</time></trkpt><trkpt lat="45.60684618648619" lon="10.700164927533214"><ele>301.0</ele><time>2026-03-28T16:09:12Z</time></trkpt><trkpt lat="45.606919185807286" lon="10.700144493211127"><ele>299.0</ele><time>2026-03-28T16:09:13Z</time></trkpt><trkpt lat="45.60701178222397" lon="10.700156481759477"><ele>297.0</ele><time>2026-03-28T16:09:14Z</time></trkpt><trkpt lat="45.60713305868776" lon="10.700126313593039"><ele>295.0</ele><time>2026-03-28T16:09:15Z</time></trkpt><trkpt lat="45.607266259954514" lon="10.700115888027819"><ele>293.0</ele><time>2026-03-28T16:09:16Z</time></trkpt><trkpt lat="45.60739663679181" lon="10.700098438671318"><ele>292.5</ele><time>2026-03-28T16:09:17Z</time></trkpt><trkpt lat="45.60753096855229" lon="10.700078785398098"><ele>292.0</ele><time>2026-03-28T16:09:18Z</time></trkpt><trkpt lat="45.607658223800186" lon="10.700029535922981"><ele>291.5</ele><time>2026-03-28T16:09:19Z</time></trkpt><trkpt lat="45.60778606650186" lon="10.699957026990326"><ele>291.0</ele><time>2026-03-28T16:09:20Z</time></trkpt><trkpt lat="45.60789475694211" lon="10.699921655563527"><ele>290.0</ele><time>2026-03-28T16:09:21Z</time></trkpt><trkpt lat="45.607986077234955" lon="10.699919095539174"><ele>289.0</ele><time>2026-03-28T16:09:22Z</time></trkpt><trkpt lat="45.6080788781783" lon="10.699952538847826"><ele>288.0</ele><time>2026-03-28T16:09:23Z</time></trkpt><trkpt lat="45.60819341937417" lon="10.70000864457449"><ele>287.0</ele><time>2026-03-28T16:09:24Z</time></trkpt><trkpt lat="45.60831950376764" lon="10.70006297323913"><ele>286.0</ele><time>2026-03-28T16:09:25Z</time></trkpt><trkpt lat="45.60844820690519" lon="10.700108590016166"><ele>286.0</ele><time>2026-03-28T16:09:26Z</time></trkpt><trkpt lat="45.60857219158949" lon="10.700142331415647"><ele>286.0</ele><time>2026-03-28T16:09:27Z</time></trkpt><trkpt lat="45.60869526260089" lon="10.700162439183202"><ele>286.0</ele><time>2026-03-28T16:09:28Z</time></trkpt><trkpt lat="45.60881088668775" lon="10.700161784301715"><ele>286.0</ele><time>2026-03-28T16:09:29Z</time></trkpt><trkpt lat="45.608924433914694" lon="10.700167984476327"><ele>283.6</ele><time>2026-03-28T16:09:30Z</time></trkpt><trkpt lat="45.609019199826264" lon="10.700188126029225"><ele>281.20000000000005</ele><time>2026-03-28T16:09:31Z</time></trkpt><trkpt lat="45.60909995628698" lon="10.700204024302149"><ele>278.79999999999995</ele><time>2026-03-28T16:09:32Z</time></trkpt><trkpt lat="45.60919486619518" lon="10.700188660251241"><ele>276.4</ele><time>2026-03-28T16:09:34Z</time></trkpt><trkpt lat="45.60918285479774" lon="10.69998654720202"><ele>274.0</ele><time>2026-03-28T16:09:36Z</time></trkpt><trkpt lat="45.609080588176205" lon="10.699923166676804"><ele>274.0</ele><time>2026-03-28T16:09:37Z</time></trkpt><trkpt lat="45.60895383717552" lon="10.699942251018687"><ele>274.0</ele><time>2026-03-28T16:09:38Z</time></trkpt><trkpt lat="45.608834460430245" lon="10.699914019315429"><ele>274.0</ele><time>2026-03-28T16:09:39Z</time></trkpt><trkpt lat="45.608726199580396" lon="10.69984629197563"><ele>274.0</ele><time>2026-03-28T16:09:40Z</time></trkpt><trkpt lat="45.60862764019315" lon="10.699799144928807"><ele>276.4</ele><time>2026-03-28T16:09:41Z</time></trkpt><trkpt lat="45.608540343912246" lon="10.699754891307519"><ele>278.79999999999995</ele><time>2026-03-28T16:09:42Z</time></trkpt><trkpt lat="45.60842499931178" lon="10.699698921610514"><ele>281.20000000000005</ele><time>2026-03-28T16:09:44Z</time></trkpt><trkpt lat="45.60830072338344" lon="10.69963061939661"><ele>283.6</ele><time>2026-03-28T16:09:46Z</time></trkpt><trkpt lat="45.608230493998775" lon="10.699579243775108"><ele>286.0</ele><time>2026-03-28T16:09:47Z</time></trkpt><trkpt lat="45.6081589824152" lon="10.699506614347014"><ele>286.0</ele><time>2026-03-28T16:09:48Z</time></trkpt><trkpt lat="45.60807041108522" lon="10.699450129716423"><ele>286.0</ele><time>2026-03-28T16:09:49Z</time></trkpt><trkpt lat="45.60798178407317" lon="10.699398690124125"><ele>286.0</ele><time>2026-03-28T16:09:50Z</time></trkpt><trkpt lat="45.60787168362467" lon="10.699384209498431"><ele>286.0</ele><time>2026-03-28T16:09:51Z</time></trkpt><trkpt lat="45.607751866798075" lon="10.699361002902386"><ele>286.0</ele><time>2026-03-28T16:09:52Z</time></trkpt><trkpt lat="45.60764623304422" lon="10.699323377231424"><ele>283.5</ele><time>2026-03-28T16:09:53Z</time></trkpt><trkpt lat="45.60756342976776" lon="10.699252457973586"><ele>281.0</ele><time>2026-03-28T16:09:54Z</time></trkpt><trkpt lat="45.607496351699254" lon="10.699187456728215"><ele>278.5</ele><time>2026-03-28T16:09:55Z</time></trkpt><trkpt lat="45.607429174002434" lon="10.6991100959571"><ele>276.0</ele><time>2026-03-28T16:09:56Z</time></trkpt><trkpt lat="45.6073730500696" lon="10.699034097503494"><ele>273.5</ele><time>2026-03-28T16:09:57Z</time></trkpt><trkpt lat="45.607319757479075" lon="10.698937515590952"><ele>271.0</ele><time>2026-03-28T16:09:58Z</time></trkpt><trkpt lat="45.60728059636182" lon="10.698818645900793"><ele>271.0</ele><time>2026-03-28T16:09:59Z</time></trkpt><trkpt lat="45.607254524027674" lon="10.698717187087217"><ele>271.0</ele><time>2026-03-28T16:10:00Z</time></trkpt><trkpt lat="45.607231900772234" lon="10.698611293856052"><ele>271.0</ele><time>2026-03-28T16:10:01Z</time></trkpt><trkpt lat="45.60720531532716" lon="10.698524520203225"><ele>271.0</ele><time>2026-03-28T16:10:02Z</time></trkpt><trkpt lat="45.60716299420423" lon="10.698413785955836"><ele>271.0</ele><time>2026-03-28T16:10:03Z</time></trkpt><trkpt lat="45.60708268596324" lon="10.698286658726387"><ele>271.0</ele><time>2026-03-28T16:10:04Z</time></trkpt><trkpt lat="45.60699312072508" lon="10.698144071442288"><ele>270.0</ele><time>2026-03-28T16:10:05Z</time></trkpt><trkpt lat="45.60688015838068" lon="10.697992217960858"><ele>269.0</ele><time>2026-03-28T16:10:06Z</time></trkpt><trkpt lat="45.606787255701775" lon="10.697817704621423"><ele>268.0</ele><time>2026-03-28T16:10:07Z</time></trkpt><trkpt lat="45.60669572611315" lon="10.697664604226935"><ele>267.0</ele><time>2026-03-28T16:10:08Z</time></trkpt><trkpt lat="45.60661889954498" lon="10.697536739776215"><ele>265.3333333333333</ele><time>2026-03-28T16:10:09Z</time></trkpt><trkpt lat="45.606541871716075" lon="10.69745060351485"><ele>263.6666666666667</ele><time>2026-03-28T16:10:10Z</time></trkpt><trkpt lat="45.60648664968658" lon="10.697354585679102"><ele>262.0</ele><time>2026-03-28T16:10:11Z</time></trkpt><trkpt lat="45.60645178295872" lon="10.697253987891177"><ele>260.33333333333337</ele><time>2026-03-28T16:10:12Z</time></trkpt><trkpt lat="45.60643348622797" lon="10.69715076939531"><ele>258.6666666666667</ele><time>2026-03-28T16:10:13Z</time></trkpt><trkpt lat="45.60646606250863" lon="10.697027304480287"><ele>257.0</ele><time>2026-03-28T16:10:14Z</time></trkpt><trkpt lat="45.606473273550044" lon="10.69686453148383"><ele>255.2</ele><time>2026-03-28T16:10:15Z</time></trkpt><trkpt lat="45.606465375915235" lon="10.696702487488226"><ele>253.39999999999998</ele><time>2026-03-28T16:10:16Z</time></trkpt><trkpt lat="45.60646994500022" lon="10.696555539915918"><ele>251.60000000000002</ele><time>2026-03-28T16:10:17Z</time></trkpt><trkpt lat="45.606466655444" lon="10.696428439440346"><ele>249.8</ele><time>2026-03-28T16:10:18Z</time></trkpt><trkpt lat="45.606454680083836" lon="10.696304188365648"><ele>248.0</ele><time>2026-03-28T16:10:19Z</time></trkpt><trkpt lat="45.60635242451729" lon="10.69621090342868"><ele>248.0</ele><time>2026-03-28T16:10:20Z</time></trkpt><trkpt lat="45.606237984209166" lon="10.696109400254139"><ele>248.0</ele><time>2026-03-28T16:10:21Z</time></trkpt><trkpt lat="45.60610648428866" lon="10.696005873184436"><ele>248.0</ele><time>2026-03-28T16:10:22Z</time></trkpt><trkpt lat="45.60598873386734" lon="10.695876915559777"><ele>248.0</ele><time>2026-03-28T16:10:23Z</time></trkpt><trkpt lat="45.605882808678516" lon="10.695756303533042"><ele>247.8</ele><time>2026-03-28T16:10:24Z</time></trkpt><trkpt lat="45.60579404126585" lon="10.69562623083186"><ele>247.60000000000002</ele><time>2026-03-28T16:10:25Z</time></trkpt><trkpt lat="45.6057107833705" lon="10.695508994267655"><ele>247.39999999999998</ele><time>2026-03-28T16:10:26Z</time></trkpt><trkpt lat="45.60563191263741" lon="10.695407976992751"><ele>247.2</ele><time>2026-03-28T16:10:27Z</time></trkpt><trkpt lat="45.60557408875718" lon="10.695337895883622"><ele>247.0</ele><time>2026-03-28T16:10:28Z</time></trkpt><trkpt lat="45.605526800518" lon="10.695253816435134"><ele>247.0</ele><time>2026-03-28T16:10:30Z</time></trkpt><trkpt lat="45.605583174660474" lon="10.695183999615821"><ele>247.0</ele><time>2026-03-28T16:10:32Z</time></trkpt><trkpt lat="45.60565830964558" lon="10.695216222766957"><ele>247.0</ele><time>2026-03-28T16:10:33Z</time></trkpt><trkpt lat="45.605741048932956" lon="10.695298343913331"><ele>247.0</ele><time>2026-03-28T16:10:34Z</time></trkpt><trkpt lat="45.6058394544826" lon="10.695374279891148"><ele>247.0</ele><time>2026-03-28T16:10:35Z</time></trkpt><trkpt lat="45.60594792120687" lon="10.695444356526961"><ele>247.0</ele><time>2026-03-28T16:10:36Z</time></trkpt><trkpt lat="45.60607156946024" lon="10.695533340451927"><ele>247.0</ele><time>2026-03-28T16:10:37Z</time></trkpt><trkpt lat="45.60620180478532" lon="10.695627377581205"><ele>247.0</ele><time>2026-03-28T16:10:38Z</time></trkpt><trkpt lat="45.60634077656769" lon="10.69571541341094"><ele>247.0</ele><time>2026-03-28T16:10:39Z</time></trkpt><trkpt lat="45.60647602357893" lon="10.69578291029609"><ele>243.5</ele><time>2026-03-28T16:10:40Z</time></trkpt><trkpt lat="45.606604898900116" lon="10.695841305284269"><ele>240.0</ele><time>2026-03-28T16:10:41Z</time></trkpt><trkpt lat="45.60671699639121" lon="10.6958867559971"><ele>236.5</ele><time>2026-03-28T16:10:42Z</time></trkpt><trkpt lat="45.606813954371404" lon="10.695931579059822"><ele>233.0</ele><time>2026-03-28T16:10:43Z</time></trkpt><trkpt lat="45.606903511582395" lon="10.696002805419957"><ele>232.4</ele><time>2026-03-28T16:10:44Z</time></trkpt><trkpt lat="45.606980524809636" lon="10.696100365819847"><ele>231.8</ele><time>2026-03-28T16:10:45Z</time></trkpt><trkpt lat="45.607055543416585" lon="10.696193674104533"><ele>231.2</ele><time>2026-03-28T16:10:46Z</time></trkpt><trkpt lat="45.60712458494558" lon="10.69625589741213"><ele>230.6</ele><time>2026-03-28T16:10:47Z</time></trkpt><trkpt lat="45.607215463642234" lon="10.696270677605511"><ele>230.0</ele><time>2026-03-28T16:10:49Z</time></trkpt><trkpt lat="45.60722362275079" lon="10.696084303259626"><ele>230.6</ele><time>2026-03-28T16:10:51Z</time></trkpt><trkpt lat="45.60715426375674" lon="10.695991787291765"><ele>231.2</ele><time>2026-03-28T16:10:52Z</time></trkpt><trkpt lat="45.60707045020636" lon="10.695893807831835"><ele>231.8</ele><time>2026-03-28T16:10:53Z</time></trkpt><trkpt lat="45.60699341181594" lon="10.695790846084073"><ele>232.4</ele><time>2026-03-28T16:10:54Z</time></trkpt><trkpt lat="45.60691199228029" lon="10.695676318007559"><ele>233.0</ele><time>2026-03-28T16:10:55Z</time></trkpt><trkpt lat="45.60681159072747" lon="10.695564588265038"><ele>233.0</ele><time>2026-03-28T16:10:56Z</time></trkpt><trkpt lat="45.60671063587052" lon="10.695447040742929"><ele>233.0</ele><time>2026-03-28T16:10:57Z</time></trkpt><trkpt lat="45.60659186917707" lon="10.695359854858633"><ele>233.0</ele><time>2026-03-28T16:10:58Z</time></trkpt><trkpt lat="45.60647627919272" lon="10.695253425730773"><ele>233.0</ele><time>2026-03-28T16:10:59Z</time></trkpt><trkpt lat="45.60636818643977" lon="10.695148310611582"><ele>232.0</ele><time>2026-03-28T16:11:00Z</time></trkpt><trkpt lat="45.60627049391152" lon="10.695047184757703"><ele>231.0</ele><time>2026-03-28T16:11:01Z</time></trkpt><trkpt lat="45.606176938946035" lon="10.694946252824103"><ele>230.0</ele><time>2026-03-28T16:11:02Z</time></trkpt><trkpt lat="45.60607887605741" lon="10.694831083478006"><ele>229.0</ele><time>2026-03-28T16:11:03Z</time></trkpt><trkpt lat="45.605977737043894" lon="10.69470530765788"><ele>229.0</ele><time>2026-03-28T16:11:04Z</time></trkpt><trkpt lat="45.605877245185575" lon="10.69457686803592"><ele>229.0</ele><time>2026-03-28T16:11:05Z</time></trkpt><trkpt lat="45.60578702055302" lon="10.694413611137625"><ele>229.0</ele><time>2026-03-28T16:11:06Z</time></trkpt><trkpt lat="45.605665940627674" lon="10.694279504864575"><ele>229.0</ele><time>2026-03-28T16:11:07Z</time></trkpt><trkpt lat="45.6055507869435" lon="10.694132954563083"><ele>226.66666666666666</ele><time>2026-03-28T16:11:08Z</time></trkpt><trkpt lat="45.605417357534876" lon="10.693979522460495"><ele>224.33333333333331</ele><time>2026-03-28T16:11:09Z</time></trkpt><trkpt lat="45.60528142399018" lon="10.69383637150486"><ele>222.0</ele><time>2026-03-28T16:11:10Z</time></trkpt><trkpt lat="45.6051453099365" lon="10.693702879578975"><ele>216.66666666666669</ele><time>2026-03-28T16:11:11Z</time></trkpt><trkpt lat="45.605020249305014" lon="10.693555890338079"><ele>211.33333333333334</ele><time>2026-03-28T16:11:12Z</time></trkpt><trkpt lat="45.60488883237134" lon="10.69344003957602"><ele>206.0</ele><time>2026-03-28T16:11:13Z</time></trkpt><trkpt lat="45.60474976205837" lon="10.693341619023219"><ele>206.0</ele><time>2026-03-28T16:11:14Z</time></trkpt><trkpt lat="45.60461432267214" lon="10.693228829759606"><ele>206.0</ele><time>2026-03-28T16:11:15Z</time></trkpt><trkpt lat="45.60447926966918" lon="10.693112293058208"><ele>206.0</ele><time>2026-03-28T16:11:16Z</time></trkpt><trkpt lat="45.60435407076986" lon="10.692991218952814"><ele>204.5</ele><time>2026-03-28T16:11:17Z</time></trkpt><trkpt lat="45.60423197503599" lon="10.692870299348355"><ele>203.0</ele><time>2026-03-28T16:11:18Z</time></trkpt><trkpt lat="45.60412162115881" lon="10.692747284267323"><ele>201.5</ele><time>2026-03-28T16:11:19Z</time></trkpt><trkpt lat="45.60402357085311" lon="10.69261639736957"><ele>200.0</ele><time>2026-03-28T16:11:20Z</time></trkpt><trkpt lat="45.603914950320345" lon="10.692480491372091"><ele>200.0</ele><time>2026-03-28T16:11:21Z</time></trkpt><trkpt lat="45.60379756326505" lon="10.692362547138746"><ele>200.0</ele><time>2026-03-28T16:11:22Z</time></trkpt><trkpt lat="45.60366642117064" lon="10.692266877076127"><ele>200.0</ele><time>2026-03-28T16:11:23Z</time></trkpt><trkpt lat="45.60353301126574" lon="10.692176439360615"><ele>200.0</ele><time>2026-03-28T16:11:24Z</time></trkpt><trkpt lat="45.6034024976526" lon="10.692062385690116"><ele>198.75</ele><time>2026-03-28T16:11:25Z</time></trkpt><trkpt lat="45.603274957472856" lon="10.691966879002434"><ele>197.5</ele><time>2026-03-28T16:11:26Z</time></trkpt><trkpt lat="45.60314486387376" lon="10.691880895079036"><ele>196.25</ele><time>2026-03-28T16:11:27Z</time></trkpt><trkpt lat="45.60302041704416" lon="10.691797248248076"><ele>195.0</ele><time>2026-03-28T16:11:28Z</time></trkpt><trkpt lat="45.6029074557824" lon="10.691685002106652"><ele>197.25</ele><time>2026-03-28T16:11:29Z</time></trkpt><trkpt lat="45.60279996031729" lon="10.691589150261747"><ele>199.5</ele><time>2026-03-28T16:11:30Z</time></trkpt><trkpt lat="45.60269721236067" lon="10.691476545753627"><ele>201.75</ele><time>2026-03-28T16:11:31Z</time></trkpt><trkpt lat="45.6026064565494" lon="10.691356356228468"><ele>204.0</ele><time>2026-03-28T16:11:32Z</time></trkpt><trkpt lat="45.6025137237797" lon="10.691238879265251"><ele>204.0</ele><time>2026-03-28T16:11:33Z</time></trkpt><trkpt lat="45.602398736617445" lon="10.691143911072439"><ele>204.0</ele><time>2026-03-28T16:11:34Z</time></trkpt><trkpt lat="45.60227359300312" lon="10.691062479695356"><ele>204.0</ele><time>2026-03-28T16:11:35Z</time></trkpt><trkpt lat="45.60214937277685" lon="10.69097355016666"><ele>204.0</ele><time>2026-03-28T16:11:36Z</time></trkpt><trkpt lat="45.60201667130794" lon="10.690910601967444"><ele>198.66666666666666</ele><time>2026-03-28T16:11:37Z</time></trkpt><trkpt lat="45.60187715114746" lon="10.690841143479243"><ele>193.33333333333331</ele><time>2026-03-28T16:11:38Z</time></trkpt><trkpt lat="45.601733476127905" lon="10.690773597821604"><ele>188.0</ele><time>2026-03-28T16:11:39Z</time></trkpt><trkpt lat="45.601583857347514" lon="10.690706797448238"><ele>188.0</ele><time>2026-03-28T16:11:40Z</time></trkpt><trkpt lat="45.601436618440005" lon="10.690667243697318"><ele>188.0</ele><time>2026-03-28T16:11:41Z</time></trkpt><trkpt lat="45.60130582323993" lon="10.69061087489817"><ele>188.0</ele><time>2026-03-28T16:11:42Z</time></trkpt><trkpt lat="45.60120151425439" lon="10.69053669601984"><ele>188.0</ele><time>2026-03-28T16:11:43Z</time></trkpt><trkpt lat="45.60113111754983" lon="10.690485087518985"><ele>189.5</ele><time>2026-03-28T16:11:44Z</time></trkpt><trkpt lat="45.601061489393565" lon="10.690435264300985"><ele>191.0</ele><time>2026-03-28T16:11:45Z</time></trkpt><trkpt lat="45.600984406707326" lon="10.690382228865428"><ele>192.5</ele><time>2026-03-28T16:11:46Z</time></trkpt><trkpt lat="45.600892159095416" lon="10.69034800620011"><ele>194.0</ele><time>2026-03-28T16:11:47Z</time></trkpt><trkpt lat="45.600802144329265" lon="10.690327283062823"><ele>195.50000000000003</ele><time>2026-03-28T16:11:48Z</time></trkpt><trkpt lat="45.60074408839502" lon="10.690291015204247"><ele>197.0</ele><time>2026-03-28T16:11:49Z</time></trkpt><trkpt lat="45.60069114270865" lon="10.690241412354146"><ele>191.6</ele><time>2026-03-28T16:11:51Z</time></trkpt><trkpt lat="45.600784470497395" lon="10.690173017172292"><ele>186.2</ele><time>2026-03-28T16:11:53Z</time></trkpt><trkpt lat="45.60087653780012" lon="10.690179330467911"><ele>180.8</ele><time>2026-03-28T16:11:54Z</time></trkpt><trkpt lat="45.600981833516926" lon="10.690204671345851"><ele>175.4</ele><time>2026-03-28T16:11:55Z</time></trkpt><trkpt lat="45.6011039569963" lon="10.690225249868497"><ele>170.0</ele><time>2026-03-28T16:11:56Z</time></trkpt><trkpt lat="45.601245724341496" lon="10.690230868893693"><ele>168.5</ele><time>2026-03-28T16:11:57Z</time></trkpt><trkpt lat="45.601382017461496" lon="10.69022296110593"><ele>167.0</ele><time>2026-03-28T16:11:58Z</time></trkpt><trkpt lat="45.601520697254664" lon="10.690219798246932"><ele>165.5</ele><time>2026-03-28T16:11:59Z</time></trkpt><trkpt lat="45.601663298366134" lon="10.690227908514673"><ele>164.0</ele><time>2026-03-28T16:12:00Z</time></trkpt><trkpt lat="45.60180561689829" lon="10.690240448223859"><ele>164.0</ele><time>2026-03-28T16:12:01Z</time></trkpt><trkpt lat="45.601952249465356" lon="10.690252948890851"><ele>164.0</ele><time>2026-03-28T16:12:02Z</time></trkpt><trkpt lat="45.60209317051099" lon="10.690260683836259"><ele>164.0</ele><time>2026-03-28T16:12:03Z</time></trkpt><trkpt lat="45.602236382342355" lon="10.690280735977128"><ele>164.0</ele><time>2026-03-28T16:12:04Z</time></trkpt><trkpt lat="45.60238082802999" lon="10.690281677104553"><ele>166.0</ele><time>2026-03-28T16:12:05Z</time></trkpt><trkpt lat="45.60251552040778" lon="10.690286020110934"><ele>168.0</ele><time>2026-03-28T16:12:06Z</time></trkpt><trkpt lat="45.602653712426424" lon="10.6903147174153"><ele>170.0</ele><time>2026-03-28T16:12:07Z</time></trkpt><trkpt lat="45.60278877314051" lon="10.690333559408451"><ele>172.0</ele><time>2026-03-28T16:12:08Z</time></trkpt><trkpt lat="45.602944103399174" lon="10.690329357986247"><ele>172.0</ele><time>2026-03-28T16:12:09Z</time></trkpt><trkpt lat="45.60310224802416" lon="10.690307076101876"><ele>172.0</ele><time>2026-03-28T16:12:10Z</time></trkpt><trkpt lat="45.60325041411869" lon="10.690295424164995"><ele>172.0</ele><time>2026-03-28T16:12:11Z</time></trkpt><trkpt lat="45.60341080406205" lon="10.690293251752356"><ele>172.0</ele><time>2026-03-28T16:12:12Z</time></trkpt><trkpt lat="45.60356556991243" lon="10.690285672949933"><ele>172.0</ele><time>2026-03-28T16:12:13Z</time></trkpt><trkpt lat="45.60372151532008" lon="10.69028534449403"><ele>172.0</ele><time>2026-03-28T16:12:14Z</time></trkpt><trkpt lat="45.603882464026164" lon="10.69028793631139"><ele>170.25</ele><time>2026-03-28T16:12:15Z</time></trkpt><trkpt lat="45.604031937538004" lon="10.690287828077103"><ele>168.5</ele><time>2026-03-28T16:12:16Z</time></trkpt><trkpt lat="45.60415595596963" lon="10.690287028258615"><ele>166.75</ele><time>2026-03-28T16:12:17Z</time></trkpt><trkpt lat="45.60426828963938" lon="10.6902963201627"><ele>165.0</ele><time>2026-03-28T16:12:18Z</time></trkpt><trkpt lat="45.604380435639634" lon="10.69031236517547"><ele>165.0</ele><time>2026-03-28T16:12:19Z</time></trkpt><trkpt lat="45.60448543528475" lon="10.690347671921874"><ele>165.0</ele><time>2026-03-28T16:12:20Z</time></trkpt><trkpt lat="45.60459756410074" lon="10.69041240595752"><ele>165.0</ele><time>2026-03-28T16:12:21Z</time></trkpt><trkpt lat="45.604711299181695" lon="10.690452745923082"><ele>165.0</ele><time>2026-03-28T16:12:22Z</time></trkpt><trkpt lat="45.604824517179594" lon="10.690481450313017"><ele>162.0</ele><time>2026-03-28T16:12:23Z</time></trkpt><trkpt lat="45.60493039966514" lon="10.690527319518456"><ele>159.0</ele><time>2026-03-28T16:12:24Z</time></trkpt><trkpt lat="45.60504762144" lon="10.690535112273688"><ele>156.0</ele><time>2026-03-28T16:12:25Z</time></trkpt><trkpt lat="45.605160151433985" lon="10.690519236967127"><ele>153.0</ele><time>2026-03-28T16:12:26Z</time></trkpt><trkpt lat="45.60527711047232" lon="10.690542657389532"><ele>149.0</ele><time>2026-03-28T16:12:27Z</time></trkpt><trkpt lat="45.60539757660683" lon="10.69059625792617"><ele>145.0</ele><time>2026-03-28T16:12:28Z</time></trkpt><trkpt lat="45.605510949061696" lon="10.690670635609585"><ele>141.0</ele><time>2026-03-28T16:12:29Z</time></trkpt><trkpt lat="45.60561317809683" lon="10.690754041721565"><ele>137.0</ele><time>2026-03-28T16:12:30Z</time></trkpt><trkpt lat="45.60570045244438" lon="10.690840815356548"><ele>137.0</ele><time>2026-03-28T16:12:31Z</time></trkpt><trkpt lat="45.60578154133116" lon="10.690929139461371"><ele>137.0</ele><time>2026-03-28T16:12:32Z</time></trkpt><trkpt lat="45.605849480878085" lon="10.690993685700937"><ele>137.0</ele><time>2026-03-28T16:12:33Z</time></trkpt><trkpt lat="45.605938317650164" lon="10.690981075484528"><ele>137.0</ele><time>2026-03-28T16:12:35Z</time></trkpt><trkpt lat="45.605916168894616" lon="10.690794715151107"><ele>137.0</ele><time>2026-03-28T16:12:37Z</time></trkpt><trkpt lat="45.60583945171242" lon="10.690720225955264"><ele>137.0</ele><time>2026-03-28T16:12:38Z</time></trkpt><trkpt lat="45.605743275756744" lon="10.690626881933568"><ele>137.0</ele><time>2026-03-28T16:12:39Z</time></trkpt><trkpt lat="45.60563919823391" lon="10.690518088090066"><ele>137.0</ele><time>2026-03-28T16:12:40Z</time></trkpt><trkpt lat="45.60553557192705" lon="10.690390121567438"><ele>137.0</ele><time>2026-03-28T16:12:41Z</time></trkpt><trkpt lat="45.605429847597875" lon="10.690263264190847"><ele>136.25</ele><time>2026-03-28T16:12:42Z</time></trkpt><trkpt lat="45.60532556453766" lon="10.690147966862869"><ele>135.5</ele><time>2026-03-28T16:12:43Z</time></trkpt><trkpt lat="45.60521773223463" lon="10.690054262070174"><ele>134.75</ele><time>2026-03-28T16:12:44Z</time></trkpt><trkpt lat="45.60512064593757" lon="10.689960401728333"><ele>134.0</ele><time>2026-03-28T16:12:45Z</time></trkpt><trkpt lat="45.60502003442814" lon="10.689868156465977"><ele>134.0</ele><time>2026-03-28T16:12:46Z</time></trkpt><trkpt lat="45.604928510437496" lon="10.689768064308254"><ele>134.0</ele><time>2026-03-28T16:12:47Z</time></trkpt><trkpt lat="45.60482212809921" lon="10.68968993015539"><ele>134.0</ele><time>2026-03-28T16:12:48Z</time></trkpt><trkpt lat="45.6047288821627" lon="10.689607042409381"><ele>134.0</ele><time>2026-03-28T16:12:49Z</time></trkpt><trkpt lat="45.60463268656523" lon="10.689534327315732"><ele>134.0</ele><time>2026-03-28T16:12:50Z</time></trkpt><trkpt lat="45.60454111042537" lon="10.689464653187947"><ele>134.0</ele><time>2026-03-28T16:12:51Z</time></trkpt><trkpt lat="45.6044600440521" lon="10.689401010515585"><ele>134.0</ele><time>2026-03-28T16:12:52Z</time></trkpt><trkpt lat="45.6043948590812" lon="10.689352410765549"><ele>134.0</ele><time>2026-03-28T16:12:53Z</time></trkpt><trkpt lat="45.60433145133296" lon="10.689253569679764"><ele>134.0</ele><time>2026-03-28T16:12:55Z</time></trkpt><trkpt lat="45.60439534876299" lon="10.689153242521567"><ele>132.25</ele><time>2026-03-28T16:12:57Z</time></trkpt><trkpt lat="45.60449151271205" lon="10.689166928466708"><ele>130.5</ele><time>2026-03-28T16:12:58Z</time></trkpt><trkpt lat="45.604590247312444" lon="10.68923553965183"><ele>128.75</ele><time>2026-03-28T16:12:59Z</time></trkpt><trkpt lat="45.60470793898403" lon="10.689259787344668"><ele>127.0</ele><time>2026-03-28T16:13:00Z</time></trkpt><trkpt lat="45.60483200276502" lon="10.689310545568613"><ele>125.5</ele><time>2026-03-28T16:13:01Z</time></trkpt><trkpt lat="45.60496740859979" lon="10.689320977483996"><ele>124.0</ele><time>2026-03-28T16:13:02Z</time></trkpt><trkpt lat="45.60510076988988" lon="10.689327839341358"><ele>122.5</ele><time>2026-03-28T16:13:03Z</time></trkpt><trkpt lat="45.60521834990862" lon="10.689394739828048"><ele>121.0</ele><time>2026-03-28T16:13:04Z</time></trkpt><trkpt lat="45.605338382342325" lon="10.689467890726203"><ele>121.0</ele><time>2026-03-28T16:13:05Z</time></trkpt><trkpt lat="45.60548168524153" lon="10.689548327855828"><ele>121.0</ele><time>2026-03-28T16:13:06Z</time></trkpt><trkpt lat="45.60562278912072" lon="10.689604930990734"><ele>121.0</ele><time>2026-03-28T16:13:07Z</time></trkpt><trkpt lat="45.60574991418795" lon="10.689660455155785"><ele>121.0</ele><time>2026-03-28T16:13:08Z</time></trkpt><trkpt lat="45.60586991500494" lon="10.689725632597431"><ele>121.0</ele><time>2026-03-28T16:13:09Z</time></trkpt><trkpt lat="45.60598422962953" lon="10.689798992780956"><ele>121.0</ele><time>2026-03-28T16:13:10Z</time></trkpt><trkpt lat="45.60609257810912" lon="10.689918752634112"><ele>121.0</ele><time>2026-03-28T16:13:11Z</time></trkpt><trkpt lat="45.60619990019249" lon="10.690046520248174"><ele>121.0</ele><time>2026-03-28T16:13:12Z</time></trkpt><trkpt lat="45.60631841077011" lon="10.690165594235566"><ele>121.25</ele><time>2026-03-28T16:13:13Z</time></trkpt><trkpt lat="45.60643373423553" lon="10.69030224505596"><ele>121.5</ele><time>2026-03-28T16:13:14Z</time></trkpt><trkpt lat="45.606545660595465" lon="10.690417187538307"><ele>121.75</ele><time>2026-03-28T16:13:15Z</time></trkpt><trkpt lat="45.60666652222872" lon="10.690496259630688"><ele>122.0</ele><time>2026-03-28T16:13:16Z</time></trkpt><trkpt lat="45.60678786804293" lon="10.690569863996448"><ele>122.0</ele><time>2026-03-28T16:13:17Z</time></trkpt><trkpt lat="45.60691246913662" lon="10.690655371450005"><ele>122.0</ele><time>2026-03-28T16:13:18Z</time></trkpt><trkpt lat="45.607048093845705" lon="10.690724193647029"><ele>122.0</ele><time>2026-03-28T16:13:19Z</time></trkpt><trkpt lat="45.60718986322791" lon="10.69077604437312"><ele>122.0</ele><time>2026-03-28T16:13:20Z</time></trkpt><trkpt lat="45.60732765300127" lon="10.690850249450023"><ele>117.5</ele><time>2026-03-28T16:13:21Z</time></trkpt><trkpt lat="45.607473797666835" lon="10.690908189608248"><ele>113.0</ele><time>2026-03-28T16:13:22Z</time></trkpt><trkpt lat="45.607617635449905" lon="10.69094374295758"><ele>108.5</ele><time>2026-03-28T16:13:23Z</time></trkpt><trkpt lat="45.60774640059899" lon="10.691013375338999"><ele>104.0</ele><time>2026-03-28T16:13:24Z</time></trkpt><trkpt lat="45.60786587616587" lon="10.691087126399138"><ele>105.25</ele><time>2026-03-28T16:13:25Z</time></trkpt><trkpt lat="45.60798458759227" lon="10.691157215716254"><ele>106.5</ele><time>2026-03-28T16:13:26Z</time></trkpt><trkpt lat="45.60810281072085" lon="10.691197529747045"><ele>107.75</ele><time>2026-03-28T16:13:27Z</time></trkpt><trkpt lat="45.60823163620355" lon="10.691205409093431"><ele>109.0</ele><time>2026-03-28T16:13:28Z</time></trkpt><trkpt lat="45.60836703943759" lon="10.691211375332937"><ele>109.0</ele><time>2026-03-28T16:13:29Z</time></trkpt><trkpt lat="45.60851285468697" lon="10.691197482290013"><ele>109.0</ele><time>2026-03-28T16:13:30Z</time></trkpt><trkpt lat="45.60865943478412" lon="10.691212246339425"><ele>109.0</ele><time>2026-03-28T16:13:31Z</time></trkpt><trkpt lat="45.6088145757987" lon="10.691188509833475"><ele>109.0</ele><time>2026-03-28T16:13:32Z</time></trkpt><trkpt lat="45.60897413145404" lon="10.691185240450078"><ele>106.5</ele><time>2026-03-28T16:13:33Z</time></trkpt><trkpt lat="45.60912581523221" lon="10.691179938229265"><ele>104.0</ele><time>2026-03-28T16:13:34Z</time></trkpt><trkpt lat="45.6092739419229" lon="10.691186474232019"><ele>101.5</ele><time>2026-03-28T16:13:35Z</time></trkpt><trkpt lat="45.60941079120705" lon="10.691203983344382"><ele>99.0</ele><time>2026-03-28T16:13:36Z</time></trkpt><trkpt lat="45.609524913220994" lon="10.69120407867655"><ele>98.6</ele><time>2026-03-28T16:13:37Z</time></trkpt><trkpt lat="45.609630639892" lon="10.69117613829839"><ele>98.2</ele><time>2026-03-28T16:13:38Z</time></trkpt><trkpt lat="45.609727105151336" lon="10.691112157414976"><ele>97.8</ele><time>2026-03-28T16:13:39Z</time></trkpt><trkpt lat="45.60979769074109" lon="10.691008441340479"><ele>97.39999999999999</ele><time>2026-03-28T16:13:40Z</time></trkpt><trkpt lat="45.60983370508379" lon="10.690872714601667"><ele>97.0</ele><time>2026-03-28T16:13:41Z</time></trkpt><trkpt lat="45.60984430555889" lon="10.69070972111155"><ele>95.0</ele><time>2026-03-28T16:13:42Z</time></trkpt><trkpt lat="45.609851210356844" lon="10.69053586030873"><ele>93.0</ele><time>2026-03-28T16:13:43Z</time></trkpt><trkpt lat="45.6098497983619" lon="10.690365153874202"><ele>91.0</ele><time>2026-03-28T16:13:44Z</time></trkpt><trkpt lat="45.60983951650184" lon="10.69019752323878"><ele>89.0</ele><time>2026-03-28T16:13:45Z</time></trkpt><trkpt lat="45.60982581746305" lon="10.690020727351058"><ele>87.80000000000001</ele><time>2026-03-28T16:13:46Z</time></trkpt><trkpt lat="45.60981209798676" lon="10.689873370217565"><ele>86.60000000000001</ele><time>2026-03-28T16:13:47Z</time></trkpt><trkpt lat="45.609801694493385" lon="10.68972276031855"><ele>85.4</ele><time>2026-03-28T16:13:48Z</time></trkpt><trkpt lat="45.60983048677845" lon="10.689566121662637"><ele>84.2</ele><time>2026-03-28T16:13:49Z</time></trkpt><trkpt lat="45.609840535566" lon="10.689425504118622"><ele>83.0</ele><time>2026-03-28T16:13:50Z</time></trkpt><trkpt lat="45.609862107950555" lon="10.689276149154283"><ele>81.80000000000001</ele><time>2026-03-28T16:13:51Z</time></trkpt><trkpt lat="45.60989142554732" lon="10.689127501198566"><ele>80.60000000000001</ele><time>2026-03-28T16:13:52Z</time></trkpt><trkpt lat="45.60990177363941" lon="10.688975816488625"><ele>79.4</ele><time>2026-03-28T16:13:53Z</time></trkpt><trkpt lat="45.60994221317855" lon="10.688844012025848"><ele>78.2</ele><time>2026-03-28T16:13:54Z</time></trkpt><trkpt lat="45.609961479230094" lon="10.688720871904714"><ele>77.0</ele><time>2026-03-28T16:13:55Z</time></trkpt><trkpt lat="45.60997711041289" lon="10.688596607682449"><ele>76.2</ele><time>2026-03-28T16:13:56Z</time></trkpt><trkpt lat="45.609987611476576" lon="10.688491413584408"><ele>75.4</ele><time>2026-03-28T16:13:57Z</time></trkpt><trkpt lat="45.60999883285757" lon="10.68837225052692"><ele>74.6</ele><time>2026-03-28T16:13:59Z</time></trkpt><trkpt lat="45.60980360887287" lon="10.688407125180786"><ele>73.8</ele><time>2026-03-28T16:14:02Z</time></trkpt><trkpt lat="45.60972486398727" lon="10.688448530451772"><ele>73.0</ele><time>2026-03-28T16:14:03Z</time></trkpt><trkpt lat="45.60966017795875" lon="10.688489892505123"><ele>73.0</ele><time>2026-03-28T16:14:04Z</time></trkpt><trkpt lat="45.60957453846261" lon="10.688498984995576"><ele>73.0</ele><time>2026-03-28T16:14:06Z</time></trkpt><trkpt lat="45.60950656689233" lon="10.688405121474556"><ele>73.0</ele><time>2026-03-28T16:14:08Z</time></trkpt><trkpt lat="45.609436236429346" lon="10.688358222734657"><ele>73.0</ele><time>2026-03-28T16:14:09Z</time></trkpt><trkpt lat="45.60935835816461" lon="10.688300270580728"><ele>73.0</ele><time>2026-03-28T16:14:10Z</time></trkpt><trkpt lat="45.609290305907514" lon="10.688242071472356"><ele>73.0</ele><time>2026-03-28T16:14:11Z</time></trkpt><trkpt lat="45.60923545925447" lon="10.688194270795542"><ele>73.0</ele><time>2026-03-28T16:14:12Z</time></trkpt><trkpt lat="45.60917399172446" lon="10.688140699824142"><ele>73.0</ele><time>2026-03-28T16:14:13Z</time></trkpt><trkpt lat="45.609096554447646" lon="10.688075920294542"><ele>73.0</ele><time>2026-03-28T16:14:14Z</time></trkpt><trkpt lat="45.609022444508696" lon="10.688018837243673"><ele>73.0</ele><time>2026-03-28T16:14:15Z</time></trkpt><trkpt lat="45.60893914570191" lon="10.6879658195422"><ele>73.0</ele><time>2026-03-28T16:14:16Z</time></trkpt><trkpt lat="45.60885583406321" lon="10.68791693843412"><ele>73.0</ele><time>2026-03-28T16:14:17Z</time></trkpt><trkpt lat="45.60877062824601" lon="10.687888735254376"><ele>73.0</ele><time>2026-03-28T16:14:18Z</time></trkpt><trkpt lat="45.60868564488546" lon="10.687831562419346"><ele>73.0</ele><time>2026-03-28T16:14:19Z</time></trkpt><trkpt lat="45.60859658564794" lon="10.687791584401605"><ele>73.0</ele><time>2026-03-28T16:14:20Z</time></trkpt><trkpt lat="45.6084960559917" lon="10.687770936839518"><ele>73.0</ele><time>2026-03-28T16:14:21Z</time></trkpt><trkpt lat="45.60840805722401" lon="10.687730371743054"><ele>73.0</ele><time>2026-03-28T16:14:22Z</time></trkpt><trkpt lat="45.60830980148467" lon="10.687707685748704"><ele>73.0</ele><time>2026-03-28T16:14:23Z</time></trkpt><trkpt lat="45.60822831366545" lon="10.687655669157538"><ele>73.0</ele><time>2026-03-28T16:14:24Z</time></trkpt><trkpt lat="45.60814375752909" lon="10.687625993408544"><ele>73.0</ele><time>2026-03-28T16:14:25Z</time></trkpt><trkpt lat="45.60807212902086" lon="10.687598855467764"><ele>73.0</ele><time>2026-03-28T16:14:26Z</time></trkpt><trkpt lat="45.60797758577222" lon="10.687559635465073"><ele>73.0</ele><time>2026-03-28T16:14:27Z</time></trkpt><trkpt lat="45.6078865656157" lon="10.687514300758549"><ele>73.0</ele><time>2026-03-28T16:14:28Z</time></trkpt><trkpt lat="45.60778938771142" lon="10.687460104765083"><ele>73.4</ele><time>2026-03-28T16:14:29Z</time></trkpt><trkpt lat="45.60770049206253" lon="10.687397160967906"><ele>73.8</ele><time>2026-03-28T16:14:30Z</time></trkpt><trkpt lat="45.60759850576081" lon="10.687358519935481"><ele>74.2</ele><time>2026-03-28T16:14:31Z</time></trkpt><trkpt lat="45.607501728815876" lon="10.687282895551819"><ele>74.6</ele><time>2026-03-28T16:14:32Z</time></trkpt><trkpt lat="45.60740364263549" lon="10.687231559955956"><ele>75.0</ele><time>2026-03-28T16:14:33Z</time></trkpt><trkpt lat="45.60730408010492" lon="10.687188762801975"><ele>75.0</ele><time>2026-03-28T16:14:34Z</time></trkpt><trkpt lat="45.6071980662691" lon="10.687154343322273"><ele>75.0</ele><time>2026-03-28T16:14:35Z</time></trkpt><trkpt lat="45.607090696551374" lon="10.687179911239605"><ele>75.0</ele><time>2026-03-28T16:14:36Z</time></trkpt><trkpt lat="45.60697785705333" lon="10.68715992384808"><ele>75.0</ele><time>2026-03-28T16:14:37Z</time></trkpt><trkpt lat="45.60686186430764" lon="10.687152194219724"><ele>75.0</ele><time>2026-03-28T16:14:38Z</time></trkpt><trkpt lat="45.606748612786895" lon="10.687144333510378"><ele>75.2</ele><time>2026-03-28T16:14:39Z</time></trkpt><trkpt lat="45.606645288893205" lon="10.687159140884896"><ele>75.4</ele><time>2026-03-28T16:14:40Z</time></trkpt><trkpt lat="45.606545013249516" lon="10.687144254689434"><ele>75.6</ele><time>2026-03-28T16:14:41Z</time></trkpt><trkpt lat="45.60644064452519" lon="10.68713557311665"><ele>75.8</ele><time>2026-03-28T16:14:42Z</time></trkpt><trkpt lat="45.6063363642154" lon="10.687118691571298"><ele>76.0</ele><time>2026-03-28T16:14:43Z</time></trkpt><trkpt lat="45.60623436893854" lon="10.6871050874698"><ele>75.5</ele><time>2026-03-28T16:14:44Z</time></trkpt><trkpt lat="45.60615069329787" lon="10.68709608630976"><ele>75.0</ele><time>2026-03-28T16:14:45Z</time></trkpt><trkpt lat="45.60607380745483" lon="10.687050201176424"><ele>74.5</ele><time>2026-03-28T16:14:46Z</time></trkpt><trkpt lat="45.606007720108956" lon="10.687045757554433"><ele>74.0</ele><time>2026-03-28T16:14:47Z</time></trkpt><trkpt lat="45.60598493709348" lon="10.68691589602374"><ele>73.5</ele><time>2026-03-28T16:14:50Z</time></trkpt><trkpt lat="45.60597553101125" lon="10.686807508437257"><ele>73.0</ele><time>2026-03-28T16:14:51Z</time></trkpt><trkpt lat="45.605965665018466" lon="10.68669382120454"><ele>73.0</ele><time>2026-03-28T16:14:52Z</time></trkpt><trkpt lat="45.60595486535679" lon="10.686569375193766"><ele>73.0</ele><time>2026-03-28T16:14:53Z</time></trkpt><trkpt lat="45.605944404000404" lon="10.686456446538967"><ele>73.0</ele><time>2026-03-28T16:14:54Z</time></trkpt><trkpt lat="45.60593351004441" lon="10.686352819990246"><ele>73.0</ele><time>2026-03-28T16:14:55Z</time></trkpt><trkpt lat="45.60592179524377" lon="10.68626217695447"><ele>73.0</ele><time>2026-03-28T16:14:56Z</time></trkpt><trkpt lat="45.60590422327185" lon="10.686139525212699"><ele>73.0</ele><time>2026-03-28T16:14:58Z</time></trkpt><trkpt lat="45.605914315826176" lon="10.686041341531045"><ele>71.75</ele><time>2026-03-28T16:15:02Z</time></trkpt><trkpt lat="45.60572540556916" lon="10.686023475427673"><ele>70.5</ele><time>2026-03-28T16:15:04Z</time></trkpt><trkpt lat="45.605620811598335" lon="10.686043565003928"><ele>69.25</ele><time>2026-03-28T16:15:05Z</time></trkpt><trkpt lat="45.60552762597713" lon="10.686053360840164"><ele>68.0</ele><time>2026-03-28T16:15:06Z</time></trkpt><trkpt lat="45.605451694624435" lon="10.686051469852693"><ele>68.0</ele><time>2026-03-28T16:15:07Z</time></trkpt><trkpt lat="45.60538622589019" lon="10.686038211492559"><ele>68.0</ele><time>2026-03-28T16:15:08Z</time></trkpt><trkpt lat="45.605316865151245" lon="10.685961770704036"><ele>68.0</ele><time>2026-03-28T16:15:10Z</time></trkpt><trkpt lat="45.60535162758134" lon="10.685805433316064"><ele>68.0</ele><time>2026-03-28T16:15:12Z</time></trkpt><trkpt lat="45.60548099922106" lon="10.685767177683301"><ele>68.0</ele><time>2026-03-28T16:15:14Z</time></trkpt><trkpt lat="45.60554870681288" lon="10.685735401347317"><ele>68.0</ele><time>2026-03-28T16:15:15Z</time></trkpt><trkpt lat="45.605615119825806" lon="10.685709791751291"><ele>68.0</ele><time>2026-03-28T16:15:16Z</time></trkpt><trkpt lat="45.605728365380074" lon="10.685673299790492"><ele>68.0</ele><time>2026-03-28T16:15:18Z</time></trkpt><trkpt lat="45.605822954122026" lon="10.685629282839008"><ele>68.0</ele><time>2026-03-28T16:15:20Z</time></trkpt><trkpt lat="45.60586841020279" lon="10.685563895942677"><ele>68.0</ele><time>2026-03-28T16:15:23Z</time></trkpt><trkpt lat="45.605807462573914" lon="10.685600171833054"><ele>68.0</ele><time>2026-03-28T16:16:49Z</time></trkpt><trkpt lat="45.60574777048915" lon="10.685630249095512"><ele>66.0</ele><time>2026-03-28T16:18:18Z</time></trkpt><trkpt lat="45.60557399366999" lon="10.685132250583077"><ele>64.0</ele><time>2026-03-28T16:19:47.999Z</time></trkpt><trkpt lat="45.60562320437009" lon="10.685218763978273"><ele>64.0</ele><time>2026-03-28T16:22:24Z</time></trkpt><trkpt lat="45.60557770052631" lon="10.685155408117069"><ele>63.99999999999999</ele><time>2026-03-28T16:23:12Z</time></trkpt><trkpt lat="45.60557088994521" lon="10.685057821374611"><ele>64.0</ele><time>2026-03-28T16:23:18Z</time></trkpt><trkpt lat="45.60554373873041" lon="10.684968567959405"><ele>64.0</ele><time>2026-03-28T16:23:26Z</time></trkpt><trkpt lat="45.605518493691875" lon="10.68487515816561"><ele>63.99999999999999</ele><time>2026-03-28T16:23:40Z</time></trkpt><trkpt lat="45.605489128518585" lon="10.684782194530467"><ele>64.0</ele><time>2026-03-28T16:23:46Z</time></trkpt><trkpt lat="45.6054608696844" lon="10.6846911858316"><ele>64.0</ele><time>2026-03-28T16:23:50Z</time></trkpt><trkpt lat="45.60543307354258" lon="10.684601545141689"><ele>63.99999999999999</ele><time>2026-03-28T16:23:53Z</time></trkpt><trkpt lat="45.60539326269622" lon="10.68450922709868"><ele>64.0</ele><time>2026-03-28T16:23:56Z</time></trkpt><trkpt lat="45.60535365130757" lon="10.68440308175925"><ele>64.0</ele><time>2026-03-28T16:23:59Z</time></trkpt><trkpt lat="45.60532028875931" lon="10.684311166330367"><ele>64.0</ele><time>2026-03-28T16:24:01Z</time></trkpt><trkpt lat="45.60528675974761" lon="10.684189471305164"><ele>63.99999999999999</ele><time>2026-03-28T16:24:04Z</time></trkpt><trkpt lat="45.605252138922204" lon="10.684091901699633"><ele>64.0</ele><time>2026-03-28T16:24:06Z</time></trkpt><trkpt lat="45.60521972433911" lon="10.683992995233888"><ele>63.83333333333333</ele><time>2026-03-28T16:24:08Z</time></trkpt><trkpt lat="45.60518724341035" lon="10.683900975997995"><ele>63.666666666666664</ele><time>2026-03-28T16:24:10Z</time></trkpt><trkpt lat="45.60515460266488" lon="10.683803438513266"><ele>63.5</ele><time>2026-03-28T16:24:12Z</time></trkpt><trkpt lat="45.605126852344576" lon="10.683714890418072"><ele>63.33333333333333</ele><time>2026-03-28T16:24:14Z</time></trkpt><trkpt lat="45.60509023249247" lon="10.683603084074688"><ele>63.166666666666664</ele><time>2026-03-28T16:24:16Z</time></trkpt><trkpt lat="45.60505482953074" lon="10.683487819564416"><ele>63.0</ele><time>2026-03-28T16:24:18Z</time></trkpt><trkpt lat="45.605025154501035" lon="10.683368712800407"><ele>62.833333333333336</ele><time>2026-03-28T16:24:20Z</time></trkpt><trkpt lat="45.60500542564237" lon="10.683250711062383"><ele>62.66666666666667</ele><time>2026-03-28T16:24:22Z</time></trkpt><trkpt lat="45.60499161239508" lon="10.683135725818593"><ele>62.5</ele><time>2026-03-28T16:24:24Z</time></trkpt><trkpt lat="45.60497727115184" lon="10.683013787958657"><ele>62.333333333333336</ele><time>2026-03-28T16:24:26Z</time></trkpt><trkpt lat="45.60496440883641" lon="10.682889875810977"><ele>62.16666666666667</ele><time>2026-03-28T16:24:28Z</time></trkpt><trkpt lat="45.60495589840881" lon="10.682761503824496"><ele>62.0</ele><time>2026-03-28T16:24:30Z</time></trkpt><trkpt lat="45.60495587917648" lon="10.682631787288477"><ele>62.0</ele><time>2026-03-28T16:24:32Z</time></trkpt><trkpt lat="45.60495589597278" lon="10.68250477781479"><ele>62.0</ele><time>2026-03-28T16:24:34Z</time></trkpt><trkpt lat="45.604963576190926" lon="10.682373619029216"><ele>62.0</ele><time>2026-03-28T16:24:36Z</time></trkpt><trkpt lat="45.60497627853462" lon="10.682240037935657"><ele>62.0</ele><time>2026-03-28T16:24:38Z</time></trkpt><trkpt lat="45.60498700163594" lon="10.682104336879235"><ele>62.0</ele><time>2026-03-28T16:24:40Z</time></trkpt><trkpt lat="45.60499896222126" lon="10.681969679654115"><ele>62.0</ele><time>2026-03-28T16:24:42Z</time></trkpt><trkpt lat="45.605016520155914" lon="10.68183556356408"><ele>62.0</ele><time>2026-03-28T16:24:44Z</time></trkpt><trkpt lat="45.605033134207396" lon="10.681694191017076"><ele>62.0</ele><time>2026-03-28T16:24:46Z</time></trkpt><trkpt lat="45.60505469436773" lon="10.681562861734003"><ele>62.0</ele><time>2026-03-28T16:24:48Z</time></trkpt><trkpt lat="45.60507379950564" lon="10.681420357713332"><ele>62.0</ele><time>2026-03-28T16:24:50Z</time></trkpt><trkpt lat="45.60510103846574" lon="10.681292693439893"><ele>62.0</ele><time>2026-03-28T16:24:52Z</time></trkpt><trkpt lat="45.60513039353718" lon="10.681155355826117"><ele>62.0</ele><time>2026-03-28T16:24:54Z</time></trkpt><trkpt lat="45.605159198093475" lon="10.68102178141925"><ele>62.0</ele><time>2026-03-28T16:24:56Z</time></trkpt><trkpt lat="45.60519265942091" lon="10.680889360782235"><ele>62.0</ele><time>2026-03-28T16:24:58Z</time></trkpt><trkpt lat="45.605225483558606" lon="10.680757250204584"><ele>62.0</ele><time>2026-03-28T16:25:00Z</time></trkpt><trkpt lat="45.60526373536771" lon="10.680629041618321"><ele>62.0</ele><time>2026-03-28T16:25:02Z</time></trkpt><trkpt lat="45.60530226303612" lon="10.680494747254086"><ele>62.0</ele><time>2026-03-28T16:25:04Z</time></trkpt><trkpt lat="45.60534449548572" lon="10.680373577218951"><ele>62.0</ele><time>2026-03-28T16:25:06Z</time></trkpt><trkpt lat="45.60538848050714" lon="10.68024313784663"><ele>62.0</ele><time>2026-03-28T16:25:08Z</time></trkpt><trkpt lat="45.60543363991762" lon="10.680114247155291"><ele>62.0</ele><time>2026-03-28T16:25:10Z</time></trkpt><trkpt lat="45.60548217966536" lon="10.679989111128597"><ele>62.0</ele><time>2026-03-28T16:25:12Z</time></trkpt><trkpt lat="45.60553080060085" lon="10.679859407009348"><ele>62.0</ele><time>2026-03-28T16:25:14Z</time></trkpt><trkpt lat="45.60557819882776" lon="10.679726125537323"><ele>62.0</ele><time>2026-03-28T16:25:16Z</time></trkpt><trkpt lat="45.605625938861195" lon="10.679599490749387"><ele>62.0</ele><time>2026-03-28T16:25:18Z</time></trkpt><trkpt lat="45.60567423552517" lon="10.679474068383536"><ele>62.0</ele><time>2026-03-28T16:25:20Z</time></trkpt><trkpt lat="45.605723867108836" lon="10.67934514040381"><ele>62.0</ele><time>2026-03-28T16:25:22Z</time></trkpt><trkpt lat="45.60577317309327" lon="10.679217581764261"><ele>62.0</ele><time>2026-03-28T16:25:24Z</time></trkpt><trkpt lat="45.60582097975129" lon="10.679084263548276"><ele>62.0</ele><time>2026-03-28T16:25:26Z</time></trkpt><trkpt lat="45.60587104961547" lon="10.678956053660306"><ele>62.0</ele><time>2026-03-28T16:25:28Z</time></trkpt><trkpt lat="45.605918156157195" lon="10.678821145960336"><ele>62.0</ele><time>2026-03-28T16:25:30Z</time></trkpt><trkpt lat="45.60597163493037" lon="10.678693296045711"><ele>62.0</ele><time>2026-03-28T16:25:32Z</time></trkpt><trkpt lat="45.60602790802729" lon="10.678564608724031"><ele>62.0</ele><time>2026-03-28T16:25:34Z</time></trkpt><trkpt lat="45.60607152627981" lon="10.678434827078236"><ele>62.0</ele><time>2026-03-28T16:25:36Z</time></trkpt><trkpt lat="45.606124383865605" lon="10.678303629415824"><ele>62.0</ele><time>2026-03-28T16:25:38Z</time></trkpt><trkpt lat="45.60617323709607" lon="10.678175678243552"><ele>62.0</ele><time>2026-03-28T16:25:40Z</time></trkpt><trkpt lat="45.60622294382866" lon="10.678043992425613"><ele>62.0</ele><time>2026-03-28T16:25:42Z</time></trkpt><trkpt lat="45.60627584304948" lon="10.67791508556483"><ele>62.0</ele><time>2026-03-28T16:25:44Z</time></trkpt><trkpt lat="45.60632364442802" lon="10.677781182101091"><ele>62.0</ele><time>2026-03-28T16:25:46Z</time></trkpt><trkpt lat="45.60637216368091" lon="10.677648708578143"><ele>62.0</ele><time>2026-03-28T16:25:48Z</time></trkpt><trkpt lat="45.60642122011546" lon="10.677520155711807"><ele>62.0</ele><time>2026-03-28T16:25:50Z</time></trkpt><trkpt lat="45.606469635729" lon="10.67739087635369"><ele>62.0</ele><time>2026-03-28T16:25:52Z</time></trkpt><trkpt lat="45.60651510474531" lon="10.677261674276911"><ele>62.0</ele><time>2026-03-28T16:25:54Z</time></trkpt><trkpt lat="45.606562881417226" lon="10.677131549316865"><ele>62.0</ele><time>2026-03-28T16:25:56Z</time></trkpt><trkpt lat="45.60661186970882" lon="10.677004387506289"><ele>62.0</ele><time>2026-03-28T16:25:58Z</time></trkpt><trkpt lat="45.60665924038324" lon="10.676871971774942"><ele>62.0</ele><time>2026-03-28T16:26:00Z</time></trkpt><trkpt lat="45.606705701769194" lon="10.67674251223462"><ele>62.0</ele><time>2026-03-28T16:26:02Z</time></trkpt><trkpt lat="45.606748053375284" lon="10.67661002220678"><ele>62.0</ele><time>2026-03-28T16:26:04Z</time></trkpt><trkpt lat="45.60679759921709" lon="10.676479590766922"><ele>62.0</ele><time>2026-03-28T16:26:06Z</time></trkpt><trkpt lat="45.606842024158524" lon="10.676344643815659"><ele>62.0</ele><time>2026-03-28T16:26:08Z</time></trkpt><trkpt lat="45.606890265997954" lon="10.676214103231283"><ele>62.0</ele><time>2026-03-28T16:26:10Z</time></trkpt><trkpt lat="45.6069343978476" lon="10.6760830780643"><ele>62.0</ele><time>2026-03-28T16:26:12Z</time></trkpt><trkpt lat="45.60698246921898" lon="10.675952563867671"><ele>62.0</ele><time>2026-03-28T16:26:14Z</time></trkpt><trkpt lat="45.60702516310692" lon="10.675821025795413"><ele>62.0</ele><time>2026-03-28T16:26:16Z</time></trkpt><trkpt lat="45.607071804791865" lon="10.675693136891066"><ele>62.0</ele><time>2026-03-28T16:26:18Z</time></trkpt><trkpt lat="45.60711420858735" lon="10.675558226074148"><ele>62.0</ele><time>2026-03-28T16:26:20Z</time></trkpt><trkpt lat="45.60716224516076" lon="10.675434009990738"><ele>62.0</ele><time>2026-03-28T16:26:22Z</time></trkpt><trkpt lat="45.607214626382884" lon="10.675303218798893"><ele>62.0</ele><time>2026-03-28T16:26:24Z</time></trkpt><trkpt lat="45.60726116840099" lon="10.675164829740796"><ele>62.0</ele><time>2026-03-28T16:26:26Z</time></trkpt><trkpt lat="45.607307363521954" lon="10.67503207840427"><ele>62.0</ele><time>2026-03-28T16:26:28Z</time></trkpt><trkpt lat="45.60735342769634" lon="10.674902270801885"><ele>62.0</ele><time>2026-03-28T16:26:30Z</time></trkpt><trkpt lat="45.60740124611795" lon="10.674768058458122"><ele>62.0</ele><time>2026-03-28T16:26:32Z</time></trkpt><trkpt lat="45.607451025755246" lon="10.674640571028844"><ele>62.0</ele><time>2026-03-28T16:26:34Z</time></trkpt><trkpt lat="45.60750205969069" lon="10.674513375237316"><ele>62.0</ele><time>2026-03-28T16:26:36Z</time></trkpt><trkpt lat="45.60755159981604" lon="10.67438684901906"><ele>62.0</ele><time>2026-03-28T16:26:38Z</time></trkpt><trkpt lat="45.60759839895742" lon="10.674255577082285"><ele>62.0</ele><time>2026-03-28T16:26:40Z</time></trkpt><trkpt lat="45.60764248402896" lon="10.674123993656579"><ele>62.0</ele><time>2026-03-28T16:26:42Z</time></trkpt><trkpt lat="45.607697212305" lon="10.673993368710793"><ele>62.0</ele><time>2026-03-28T16:26:44Z</time></trkpt><trkpt lat="45.6077435420154" lon="10.6738742713374"><ele>62.0</ele><time>2026-03-28T16:26:46Z</time></trkpt><trkpt lat="45.60780209416003" lon="10.673740703965525"><ele>62.0</ele><time>2026-03-28T16:26:48Z</time></trkpt><trkpt lat="45.60785464316885" lon="10.673609818040052"><ele>62.0</ele><time>2026-03-28T16:26:50Z</time></trkpt><trkpt lat="45.60790274291577" lon="10.673488822272011"><ele>62.0</ele><time>2026-03-28T16:26:52Z</time></trkpt><trkpt lat="45.60795003426827" lon="10.673363510668587"><ele>62.0</ele><time>2026-03-28T16:26:54Z</time></trkpt><trkpt lat="45.60799963661193" lon="10.673236106527927"><ele>62.0</ele><time>2026-03-28T16:26:56Z</time></trkpt><trkpt lat="45.6080482007983" lon="10.67310860167668"><ele>62.0</ele><time>2026-03-28T16:26:58Z</time></trkpt><trkpt lat="45.60809726980927" lon="10.67298092495567"><ele>62.0</ele><time>2026-03-28T16:27:00Z</time></trkpt><trkpt lat="45.60814956765698" lon="10.672853915102841"><ele>62.0</ele><time>2026-03-28T16:27:02Z</time></trkpt><trkpt lat="45.60819844043306" lon="10.672725537811429"><ele>62.0</ele><time>2026-03-28T16:27:04Z</time></trkpt><trkpt lat="45.60824464902067" lon="10.672597449134889"><ele>62.0</ele><time>2026-03-28T16:27:06Z</time></trkpt><trkpt lat="45.608291862566716" lon="10.672469429887707"><ele>62.0</ele><time>2026-03-28T16:27:08Z</time></trkpt><trkpt lat="45.60833720041047" lon="10.672340630970597"><ele>62.0</ele><time>2026-03-28T16:27:10Z</time></trkpt><trkpt lat="45.60838313420835" lon="10.672211635792333"><ele>62.0</ele><time>2026-03-28T16:27:12Z</time></trkpt><trkpt lat="45.60842999163789" lon="10.672085478342966"><ele>62.0</ele><time>2026-03-28T16:27:14Z</time></trkpt><trkpt lat="45.60847520537091" lon="10.671953297285182"><ele>62.0</ele><time>2026-03-28T16:27:16Z</time></trkpt><trkpt lat="45.608523883508035" lon="10.67182030639078"><ele>62.0</ele><time>2026-03-28T16:27:18Z</time></trkpt><trkpt lat="45.60856916842313" lon="10.671688397027296"><ele>62.0</ele><time>2026-03-28T16:27:20Z</time></trkpt><trkpt lat="45.608613051749224" lon="10.67156759339338"><ele>62.0</ele><time>2026-03-28T16:27:22Z</time></trkpt><trkpt lat="45.60866141517408" lon="10.671445994180035"><ele>62.0</ele><time>2026-03-28T16:27:24Z</time></trkpt><trkpt lat="45.60871257893494" lon="10.671310191928072"><ele>62.0</ele><time>2026-03-28T16:27:26Z</time></trkpt><trkpt lat="45.60876084294294" lon="10.671163222931353"><ele>62.0</ele><time>2026-03-28T16:27:28Z</time></trkpt><trkpt lat="45.60880735951578" lon="10.671036155051285"><ele>62.0</ele><time>2026-03-28T16:27:30Z</time></trkpt><trkpt lat="45.60884524753534" lon="10.670911224547945"><ele>62.0</ele><time>2026-03-28T16:27:32Z</time></trkpt><trkpt lat="45.60888724235638" lon="10.67078376866741"><ele>62.0</ele><time>2026-03-28T16:27:34Z</time></trkpt><trkpt lat="45.60893040855179" lon="10.670651444448588"><ele>62.0</ele><time>2026-03-28T16:27:36Z</time></trkpt><trkpt lat="45.60896985317824" lon="10.670525340427728"><ele>62.0</ele><time>2026-03-28T16:27:38Z</time></trkpt><trkpt lat="45.60901111280772" lon="10.670393418387565"><ele>62.0</ele><time>2026-03-28T16:27:40Z</time></trkpt><trkpt lat="45.609051434353184" lon="10.670263294687796"><ele>62.0</ele><time>2026-03-28T16:27:42Z</time></trkpt><trkpt lat="45.609094335626935" lon="10.67013115199065"><ele>62.0</ele><time>2026-03-28T16:27:44Z</time></trkpt><trkpt lat="45.609150576139115" lon="10.669995348458883"><ele>62.0</ele><time>2026-03-28T16:27:46Z</time></trkpt><trkpt lat="45.6091949195113" lon="10.669859058496561"><ele>62.0</ele><time>2026-03-28T16:27:48Z</time></trkpt><trkpt lat="45.609243755786004" lon="10.669721980929634"><ele>62.0</ele><time>2026-03-28T16:27:50Z</time></trkpt><trkpt lat="45.609293033327226" lon="10.669586433446641"><ele>62.0</ele><time>2026-03-28T16:27:52Z</time></trkpt><trkpt lat="45.6093433582252" lon="10.66945477970373"><ele>62.0</ele><time>2026-03-28T16:27:54Z</time></trkpt><trkpt lat="45.609391215449115" lon="10.66931747037972"><ele>62.0</ele><time>2026-03-28T16:27:56Z</time></trkpt><trkpt lat="45.60944273280202" lon="10.669188428241622"><ele>62.0</ele><time>2026-03-28T16:27:58Z</time></trkpt><trkpt lat="45.60949495595404" lon="10.669054631557406"><ele>62.0</ele><time>2026-03-28T16:28:00Z</time></trkpt><trkpt lat="45.60954442906844" lon="10.668924498656233"><ele>62.0</ele><time>2026-03-28T16:28:02Z</time></trkpt><trkpt lat="45.609589521507544" lon="10.66878988768528"><ele>62.0</ele><time>2026-03-28T16:28:04Z</time></trkpt><trkpt lat="45.609638022627095" lon="10.668657000790406"><ele>62.0</ele><time>2026-03-28T16:28:06Z</time></trkpt><trkpt lat="45.60968148836954" lon="10.6685205399904"><ele>62.0</ele><time>2026-03-28T16:28:08Z</time></trkpt><trkpt lat="45.60972519864449" lon="10.668384955549332"><ele>62.0</ele><time>2026-03-28T16:28:10Z</time></trkpt><trkpt lat="45.60977523424015" lon="10.668267146747471"><ele>62.0</ele><time>2026-03-28T16:28:12Z</time></trkpt><trkpt lat="45.609824965087654" lon="10.668147425736857"><ele>62.0</ele><time>2026-03-28T16:28:14Z</time></trkpt><trkpt lat="45.60987488067085" lon="10.668023106082924"><ele>62.0</ele><time>2026-03-28T16:28:16Z</time></trkpt><trkpt lat="45.609920725572266" lon="10.667897606053938"><ele>62.0</ele><time>2026-03-28T16:28:18Z</time></trkpt><trkpt lat="45.60997162224031" lon="10.667761962075673"><ele>62.0</ele><time>2026-03-28T16:28:20Z</time></trkpt><trkpt lat="45.61001613690897" lon="10.667621219920628"><ele>62.0</ele><time>2026-03-28T16:28:22Z</time></trkpt><trkpt lat="45.61006802568969" lon="10.667478756481165"><ele>62.0</ele><time>2026-03-28T16:28:24Z</time></trkpt><trkpt lat="45.61011724233762" lon="10.667342585172735"><ele>62.0</ele><time>2026-03-28T16:28:26Z</time></trkpt><trkpt lat="45.61016493769996" lon="10.667201613841762"><ele>62.0</ele><time>2026-03-28T16:28:28Z</time></trkpt><trkpt lat="45.61021300768556" lon="10.667072349114893"><ele>62.0</ele><time>2026-03-28T16:28:30Z</time></trkpt><trkpt lat="45.61026122321252" lon="10.666940446095882"><ele>62.0</ele><time>2026-03-28T16:28:32Z</time></trkpt><trkpt lat="45.61031028113778" lon="10.666818791954586"><ele>62.0</ele><time>2026-03-28T16:28:34Z</time></trkpt><trkpt lat="45.61035825637815" lon="10.666689815492054"><ele>62.0</ele><time>2026-03-28T16:28:36Z</time></trkpt><trkpt lat="45.61040928697535" lon="10.666562840918388"><ele>62.0</ele><time>2026-03-28T16:28:38Z</time></trkpt><trkpt lat="45.61045494328308" lon="10.666425096751343"><ele>62.0</ele><time>2026-03-28T16:28:40Z</time></trkpt><trkpt lat="45.61050281826766" lon="10.666299139588546"><ele>62.0</ele><time>2026-03-28T16:28:42Z</time></trkpt><trkpt lat="45.6105494223116" lon="10.666170773328322"><ele>62.0</ele><time>2026-03-28T16:28:44Z</time></trkpt><trkpt lat="45.61059711050962" lon="10.666038308163511"><ele>62.0</ele><time>2026-03-28T16:28:46Z</time></trkpt><trkpt lat="45.61064242211607" lon="10.665899284823269"><ele>62.0</ele><time>2026-03-28T16:28:48Z</time></trkpt><trkpt lat="45.61068757231611" lon="10.665773388537538"><ele>62.0</ele><time>2026-03-28T16:28:50Z</time></trkpt><trkpt lat="45.61072802644989" lon="10.665646084217666"><ele>62.0</ele><time>2026-03-28T16:28:52Z</time></trkpt><trkpt lat="45.6107718820106" lon="10.665516714164353"><ele>62.0</ele><time>2026-03-28T16:28:54Z</time></trkpt><trkpt lat="45.610811998165104" lon="10.665386083580648"><ele>62.0</ele><time>2026-03-28T16:28:56Z</time></trkpt><trkpt lat="45.610856879723315" lon="10.665254270182132"><ele>62.0</ele><time>2026-03-28T16:28:58Z</time></trkpt><trkpt lat="45.61090329273158" lon="10.665121819584757"><ele>62.0</ele><time>2026-03-28T16:29:00Z</time></trkpt><trkpt lat="45.6109486625993" lon="10.664992312446392"><ele>62.0</ele><time>2026-03-28T16:29:02Z</time></trkpt><trkpt lat="45.61099670645365" lon="10.664865240351027"><ele>62.0</ele><time>2026-03-28T16:29:04Z</time></trkpt><trkpt lat="45.61104242451735" lon="10.66472951269"><ele>62.0</ele><time>2026-03-28T16:29:06Z</time></trkpt><trkpt lat="45.6110929425038" lon="10.664594290176828"><ele>62.0</ele><time>2026-03-28T16:29:08Z</time></trkpt><trkpt lat="45.61113953062507" lon="10.664465424517047"><ele>62.0</ele><time>2026-03-28T16:29:10Z</time></trkpt><trkpt lat="45.61118861541426" lon="10.664337015516596"><ele>62.0</ele><time>2026-03-28T16:29:12Z</time></trkpt><trkpt lat="45.611238252873946" lon="10.664205285644721"><ele>62.0</ele><time>2026-03-28T16:29:14Z</time></trkpt><trkpt lat="45.61128676445574" lon="10.664069714888496"><ele>62.0</ele><time>2026-03-28T16:29:16Z</time></trkpt><trkpt lat="45.611333154251646" lon="10.663945945676904"><ele>62.0</ele><time>2026-03-28T16:29:18Z</time></trkpt><trkpt lat="45.61137732277131" lon="10.663815805927491"><ele>62.0</ele><time>2026-03-28T16:29:20Z</time></trkpt><trkpt lat="45.6114230194976" lon="10.66368772294412"><ele>62.0</ele><time>2026-03-28T16:29:22Z</time></trkpt><trkpt lat="45.61146951286357" lon="10.663568335024564"><ele>62.0</ele><time>2026-03-28T16:29:24Z</time></trkpt><trkpt lat="45.611519123359415" lon="10.663443916290571"><ele>62.0</ele><time>2026-03-28T16:29:26Z</time></trkpt><trkpt lat="45.61156823429384" lon="10.663316699059306"><ele>62.0</ele><time>2026-03-28T16:29:28Z</time></trkpt><trkpt lat="45.61161596501804" lon="10.663186018167153"><ele>62.0</ele><time>2026-03-28T16:29:30Z</time></trkpt><trkpt lat="45.611655755092855" lon="10.663046913316032"><ele>62.0</ele><time>2026-03-28T16:29:32Z</time></trkpt><trkpt lat="45.61169655731845" lon="10.66291019517075"><ele>62.0</ele><time>2026-03-28T16:29:34Z</time></trkpt><trkpt lat="45.61173903744136" lon="10.662788969321616"><ele>62.0</ele><time>2026-03-28T16:29:36Z</time></trkpt><trkpt lat="45.61177862446631" lon="10.662652079814672"><ele>62.0</ele><time>2026-03-28T16:29:38Z</time></trkpt><trkpt lat="45.6118296711645" lon="10.662529038949963"><ele>62.0</ele><time>2026-03-28T16:29:40Z</time></trkpt><trkpt lat="45.61187353872485" lon="10.66240502981011"><ele>62.0</ele><time>2026-03-28T16:29:42Z</time></trkpt><trkpt lat="45.61192271623541" lon="10.662275221038387"><ele>62.0</ele><time>2026-03-28T16:29:44Z</time></trkpt><trkpt lat="45.61197069539156" lon="10.662145277071131"><ele>62.0</ele><time>2026-03-28T16:29:46Z</time></trkpt><trkpt lat="45.61201802864103" lon="10.662009719003734"><ele>62.0</ele><time>2026-03-28T16:29:48Z</time></trkpt><trkpt lat="45.612063524884654" lon="10.66187807319703"><ele>62.0</ele><time>2026-03-28T16:29:50Z</time></trkpt><trkpt lat="45.61210922011286" lon="10.661743388729677"><ele>62.0</ele><time>2026-03-28T16:29:52Z</time></trkpt><trkpt lat="45.6121559973817" lon="10.66161019925605"><ele>62.0</ele><time>2026-03-28T16:29:54Z</time></trkpt><trkpt lat="45.612196009284084" lon="10.661469456064246"><ele>62.0</ele><time>2026-03-28T16:29:56Z</time></trkpt><trkpt lat="45.61224134607157" lon="10.661338457066517"><ele>62.0</ele><time>2026-03-28T16:29:58Z</time></trkpt><trkpt lat="45.61228236353905" lon="10.661200643120942"><ele>62.0</ele><time>2026-03-28T16:30:00Z</time></trkpt><trkpt lat="45.61232779119225" lon="10.661067647630887"><ele>62.0</ele><time>2026-03-28T16:30:02Z</time></trkpt><trkpt lat="45.61237547572407" lon="10.660937088312581"><ele>62.0</ele><time>2026-03-28T16:30:04Z</time></trkpt><trkpt lat="45.61241564999202" lon="10.660802327792533"><ele>62.0</ele><time>2026-03-28T16:30:06Z</time></trkpt><trkpt lat="45.61245813480023" lon="10.660665639025133"><ele>62.0</ele><time>2026-03-28T16:30:08Z</time></trkpt><trkpt lat="45.612497449035416" lon="10.660529719691574"><ele>62.0</ele><time>2026-03-28T16:30:10Z</time></trkpt><trkpt lat="45.61254050473065" lon="10.66038882347768"><ele>62.0</ele><time>2026-03-28T16:30:12Z</time></trkpt><trkpt lat="45.612576737429755" lon="10.660247187984503"><ele>62.0</ele><time>2026-03-28T16:30:14Z</time></trkpt><trkpt lat="45.61261270042908" lon="10.66010779663932"><ele>62.0</ele><time>2026-03-28T16:30:16Z</time></trkpt><trkpt lat="45.61265380426659" lon="10.659971225097655"><ele>62.0</ele><time>2026-03-28T16:30:18Z</time></trkpt><trkpt lat="45.61269595475817" lon="10.659836872876575"><ele>62.0</ele><time>2026-03-28T16:30:20Z</time></trkpt><trkpt lat="45.61273639537578" lon="10.659699921573155"><ele>62.0</ele><time>2026-03-28T16:30:22Z</time></trkpt><trkpt lat="45.612778480377486" lon="10.659559397202939"><ele>62.0</ele><time>2026-03-28T16:30:24Z</time></trkpt><trkpt lat="45.612818434833606" lon="10.659418188799537"><ele>62.0</ele><time>2026-03-28T16:30:26Z</time></trkpt><trkpt lat="45.61285754325352" lon="10.659278409605932"><ele>62.0</ele><time>2026-03-28T16:30:28Z</time></trkpt><trkpt lat="45.612895588852105" lon="10.65914182258249"><ele>62.0</ele><time>2026-03-28T16:30:30Z</time></trkpt><trkpt lat="45.61293380683233" lon="10.659009158020844"><ele>62.0</ele><time>2026-03-28T16:30:32Z</time></trkpt><trkpt lat="45.61297611903637" lon="10.658870584947003"><ele>62.0</ele><time>2026-03-28T16:30:34Z</time></trkpt><trkpt lat="45.61301128576128" lon="10.65873181892311"><ele>62.0</ele><time>2026-03-28T16:30:36Z</time></trkpt><trkpt lat="45.613047476026864" lon="10.658594630065519"><ele>62.0</ele><time>2026-03-28T16:30:38Z</time></trkpt><trkpt lat="45.61308527120717" lon="10.65845480588666"><ele>62.0</ele><time>2026-03-28T16:30:40Z</time></trkpt><trkpt lat="45.61312365599662" lon="10.658322544458969"><ele>62.0</ele><time>2026-03-28T16:30:42Z</time></trkpt><trkpt lat="45.613159914939814" lon="10.658183330615268"><ele>62.0</ele><time>2026-03-28T16:30:44Z</time></trkpt><trkpt lat="45.61319816762181" lon="10.658050482175286"><ele>62.0</ele><time>2026-03-28T16:30:46Z</time></trkpt><trkpt lat="45.61323762650873" lon="10.6579163929107"><ele>62.0</ele><time>2026-03-28T16:30:48Z</time></trkpt><trkpt lat="45.61328106991211" lon="10.657787208018345"><ele>62.0</ele><time>2026-03-28T16:30:50Z</time></trkpt><trkpt lat="45.61332390877805" lon="10.657658065631576"><ele>62.0</ele><time>2026-03-28T16:30:52Z</time></trkpt><trkpt lat="45.613366787613586" lon="10.657524717975257"><ele>62.0</ele><time>2026-03-28T16:30:54Z</time></trkpt><trkpt lat="45.6134124604029" lon="10.657395625484394"><ele>62.0</ele><time>2026-03-28T16:30:56Z</time></trkpt><trkpt lat="45.613457251063465" lon="10.657263613472018"><ele>62.0</ele><time>2026-03-28T16:30:58Z</time></trkpt><trkpt lat="45.61350201806167" lon="10.657133061206366"><ele>62.0</ele><time>2026-03-28T16:31:00Z</time></trkpt><trkpt lat="45.61354437961267" lon="10.657001774070574"><ele>62.0</ele><time>2026-03-28T16:31:02Z</time></trkpt><trkpt lat="45.61358736306908" lon="10.656868100579452"><ele>62.0</ele><time>2026-03-28T16:31:04Z</time></trkpt><trkpt lat="45.61362840785476" lon="10.656735726434015"><ele>62.0</ele><time>2026-03-28T16:31:06Z</time></trkpt><trkpt lat="45.61366854161031" lon="10.656604374542331"><ele>62.0</ele><time>2026-03-28T16:31:08Z</time></trkpt><trkpt lat="45.61370900066018" lon="10.656473660648267"><ele>62.0</ele><time>2026-03-28T16:31:10Z</time></trkpt><trkpt lat="45.61375316056656" lon="10.656342567467972"><ele>62.0</ele><time>2026-03-28T16:31:12Z</time></trkpt><trkpt lat="45.613795355099434" lon="10.65620929942096"><ele>62.0</ele><time>2026-03-28T16:31:14Z</time></trkpt><trkpt lat="45.61383849988062" lon="10.65607493162202"><ele>62.0</ele><time>2026-03-28T16:31:16Z</time></trkpt><trkpt lat="45.613882376560035" lon="10.655940881616834"><ele>62.0</ele><time>2026-03-28T16:31:18Z</time></trkpt><trkpt lat="45.613925078531125" lon="10.655807139709879"><ele>62.0</ele><time>2026-03-28T16:31:20Z</time></trkpt><trkpt lat="45.61396591617263" lon="10.655671473697588"><ele>62.0</ele><time>2026-03-28T16:31:22Z</time></trkpt><trkpt lat="45.61400853399668" lon="10.65553426398387"><ele>62.0</ele><time>2026-03-28T16:31:24Z</time></trkpt><trkpt lat="45.61404789689439" lon="10.655400676295024"><ele>62.0</ele><time>2026-03-28T16:31:26Z</time></trkpt><trkpt lat="45.6140885000968" lon="10.655269543084902"><ele>62.0</ele><time>2026-03-28T16:31:28Z</time></trkpt><trkpt lat="45.61413059695225" lon="10.65513718676016"><ele>62.0</ele><time>2026-03-28T16:31:30Z</time></trkpt><trkpt lat="45.61417288495978" lon="10.65500161811039"><ele>62.0</ele><time>2026-03-28T16:31:32Z</time></trkpt><trkpt lat="45.61421534138259" lon="10.654868869147707"><ele>62.0</ele><time>2026-03-28T16:31:34Z</time></trkpt><trkpt lat="45.61425888517683" lon="10.654732744291117"><ele>62.0</ele><time>2026-03-28T16:31:36Z</time></trkpt><trkpt lat="45.61430493518482" lon="10.654597009287572"><ele>62.0</ele><time>2026-03-28T16:31:38Z</time></trkpt><trkpt lat="45.61434354150021" lon="10.654465680196537"><ele>62.0</ele><time>2026-03-28T16:31:40Z</time></trkpt><trkpt lat="45.614386699297626" lon="10.654331191416631"><ele>62.0</ele><time>2026-03-28T16:31:42Z</time></trkpt><trkpt lat="45.61442982231222" lon="10.654197467018564"><ele>62.0</ele><time>2026-03-28T16:31:44Z</time></trkpt><trkpt lat="45.614471132938675" lon="10.654065671035914"><ele>62.0</ele><time>2026-03-28T16:31:46Z</time></trkpt><trkpt lat="45.614512409913225" lon="10.653936964792482"><ele>62.0</ele><time>2026-03-28T16:31:48Z</time></trkpt><trkpt lat="45.61455602670482" lon="10.6538032801058"><ele>62.0</ele><time>2026-03-28T16:31:50Z</time></trkpt><trkpt lat="45.61459843750204" lon="10.653671456181094"><ele>62.0</ele><time>2026-03-28T16:31:52Z</time></trkpt><trkpt lat="45.61464232597738" lon="10.653538212760067"><ele>62.0</ele><time>2026-03-28T16:31:54Z</time></trkpt><trkpt lat="45.61468574170226" lon="10.653405746836238"><ele>62.0</ele><time>2026-03-28T16:31:56Z</time></trkpt><trkpt lat="45.61472631560822" lon="10.653271195477553"><ele>62.0</ele><time>2026-03-28T16:31:58Z</time></trkpt><trkpt lat="45.61477035350586" lon="10.653138781868408"><ele>62.0</ele><time>2026-03-28T16:32:00Z</time></trkpt><trkpt lat="45.61480854864046" lon="10.653001575396795"><ele>62.0</ele><time>2026-03-28T16:32:02Z</time></trkpt><trkpt lat="45.61484901991382" lon="10.652864006907397"><ele>62.0</ele><time>2026-03-28T16:32:04Z</time></trkpt><trkpt lat="45.61488708700739" lon="10.652725589642449"><ele>62.0</ele><time>2026-03-28T16:32:06Z</time></trkpt><trkpt lat="45.614925153012365" lon="10.65259224562978"><ele>62.0</ele><time>2026-03-28T16:32:08Z</time></trkpt><trkpt lat="45.61496344258203" lon="10.652458432282694"><ele>62.0</ele><time>2026-03-28T16:32:10Z</time></trkpt><trkpt lat="45.61500584399444" lon="10.652324122445968"><ele>62.0</ele><time>2026-03-28T16:32:12Z</time></trkpt><trkpt lat="45.6150434175126" lon="10.652188646180702"><ele>62.0</ele><time>2026-03-28T16:32:14Z</time></trkpt><trkpt lat="45.61508311206157" lon="10.652054473325737"><ele>62.0</ele><time>2026-03-28T16:32:16Z</time></trkpt><trkpt lat="45.61512402011561" lon="10.651915240167858"><ele>62.0</ele><time>2026-03-28T16:32:18Z</time></trkpt><trkpt lat="45.61516048680983" lon="10.651773779194786"><ele>62.0</ele><time>2026-03-28T16:32:20Z</time></trkpt><trkpt lat="45.615197614355665" lon="10.651632996441705"><ele>62.0</ele><time>2026-03-28T16:32:22Z</time></trkpt><trkpt lat="45.61523099884876" lon="10.65149476432893"><ele>62.0</ele><time>2026-03-28T16:32:24Z</time></trkpt><trkpt lat="45.615265847137664" lon="10.65135468270016"><ele>62.0</ele><time>2026-03-28T16:32:26Z</time></trkpt><trkpt lat="45.61529977618622" lon="10.651216327048523"><ele>62.0</ele><time>2026-03-28T16:32:28Z</time></trkpt><trkpt lat="45.61533634198953" lon="10.65107736332735"><ele>62.0</ele><time>2026-03-28T16:32:30Z</time></trkpt><trkpt lat="45.61537566354853" lon="10.650941031255485"><ele>62.0</ele><time>2026-03-28T16:32:32Z</time></trkpt><trkpt lat="45.61541337556102" lon="10.650804639422544"><ele>62.0</ele><time>2026-03-28T16:32:34Z</time></trkpt><trkpt lat="45.615452855683" lon="10.650669178209467"><ele>62.0</ele><time>2026-03-28T16:32:36Z</time></trkpt><trkpt lat="45.61549203333165" lon="10.650533700066209"><ele>62.0</ele><time>2026-03-28T16:32:38Z</time></trkpt><trkpt lat="45.61553157864404" lon="10.650397274553423"><ele>62.0</ele><time>2026-03-28T16:32:40Z</time></trkpt><trkpt lat="45.61557317279277" lon="10.650262473948398"><ele>62.0</ele><time>2026-03-28T16:32:42Z</time></trkpt><trkpt lat="45.61561170651886" lon="10.650128738125028"><ele>62.0</ele><time>2026-03-28T16:32:44Z</time></trkpt><trkpt lat="45.61565228592408" lon="10.649991318278738"><ele>62.0</ele><time>2026-03-28T16:32:46Z</time></trkpt><trkpt lat="45.615689144828465" lon="10.649856473454257"><ele>62.0</ele><time>2026-03-28T16:32:48Z</time></trkpt><trkpt lat="45.61572968656328" lon="10.64972028907271"><ele>62.0</ele><time>2026-03-28T16:32:50Z</time></trkpt><trkpt lat="45.61576816756032" lon="10.649583118104813"><ele>62.0</ele><time>2026-03-28T16:32:52Z</time></trkpt><trkpt lat="45.61580513536326" lon="10.649446721294803"><ele>62.0</ele><time>2026-03-28T16:32:54Z</time></trkpt><trkpt lat="45.61584173571429" lon="10.64930751245788"><ele>62.0</ele><time>2026-03-28T16:32:56Z</time></trkpt><trkpt lat="45.61587956349759" lon="10.649170384002518"><ele>62.0</ele><time>2026-03-28T16:32:58Z</time></trkpt><trkpt lat="45.61591703636097" lon="10.6490321722865"><ele>62.0</ele><time>2026-03-28T16:33:00Z</time></trkpt><trkpt lat="45.615952541456195" lon="10.648891168414657"><ele>62.0</ele><time>2026-03-28T16:33:02Z</time></trkpt><trkpt lat="45.61598672886574" lon="10.6487532028307"><ele>62.0</ele><time>2026-03-28T16:33:04Z</time></trkpt><trkpt lat="45.61602369184222" lon="10.648617387487567"><ele>62.0</ele><time>2026-03-28T16:33:06Z</time></trkpt><trkpt lat="45.61606098965036" lon="10.648478038046333"><ele>62.0</ele><time>2026-03-28T16:33:08Z</time></trkpt><trkpt lat="45.61609801845661" lon="10.648342314714133"><ele>62.0</ele><time>2026-03-28T16:33:10Z</time></trkpt><trkpt lat="45.616136584823224" lon="10.648209058612291"><ele>62.0</ele><time>2026-03-28T16:33:12Z</time></trkpt><trkpt lat="45.61617426004167" lon="10.648073660997213"><ele>62.0</ele><time>2026-03-28T16:33:14Z</time></trkpt><trkpt lat="45.61621717911061" lon="10.647941105861799"><ele>62.0</ele><time>2026-03-28T16:33:16Z</time></trkpt><trkpt lat="45.61625550455601" lon="10.647806169363731"><ele>62.0</ele><time>2026-03-28T16:33:18Z</time></trkpt><trkpt lat="45.616292847307555" lon="10.6476724104917"><ele>62.0</ele><time>2026-03-28T16:33:20Z</time></trkpt><trkpt lat="45.61633211731996" lon="10.647534297278483"><ele>62.0</ele><time>2026-03-28T16:33:22Z</time></trkpt><trkpt lat="45.616367834054145" lon="10.64739829195016"><ele>62.0</ele><time>2026-03-28T16:33:24Z</time></trkpt><trkpt lat="45.61640438907096" lon="10.647261985041759"><ele>62.0</ele><time>2026-03-28T16:33:26Z</time></trkpt><trkpt lat="45.616437071112465" lon="10.647125049875616"><ele>62.0</ele><time>2026-03-28T16:33:28Z</time></trkpt><trkpt lat="45.61646926143679" lon="10.646984163172023"><ele>62.0</ele><time>2026-03-28T16:33:30Z</time></trkpt><trkpt lat="45.61650470843612" lon="10.646849624539827"><ele>62.0</ele><time>2026-03-28T16:33:32Z</time></trkpt><trkpt lat="45.616544888184045" lon="10.646711985982016"><ele>62.0</ele><time>2026-03-28T16:33:34Z</time></trkpt><trkpt lat="45.61658828731591" lon="10.646573463548293"><ele>62.0</ele><time>2026-03-28T16:33:36Z</time></trkpt><trkpt lat="45.6166237064567" lon="10.646435613396617"><ele>62.0</ele><time>2026-03-28T16:33:38Z</time></trkpt><trkpt lat="45.61666167319955" lon="10.646299958783986"><ele>62.0</ele><time>2026-03-28T16:33:40Z</time></trkpt><trkpt lat="45.6166986369081" lon="10.646167191921167"><ele>62.0</ele><time>2026-03-28T16:33:42Z</time></trkpt><trkpt lat="45.616738391639636" lon="10.646028557970656"><ele>62.0</ele><time>2026-03-28T16:33:44Z</time></trkpt><trkpt lat="45.616777218367616" lon="10.64588961602356"><ele>62.0</ele><time>2026-03-28T16:33:46Z</time></trkpt><trkpt lat="45.61681227029357" lon="10.645749922953156"><ele>62.0</ele><time>2026-03-28T16:33:48Z</time></trkpt><trkpt lat="45.61684834853267" lon="10.645610088985336"><ele>62.0</ele><time>2026-03-28T16:33:50Z</time></trkpt><trkpt lat="45.616885479726214" lon="10.645471347883124"><ele>62.0</ele><time>2026-03-28T16:33:52Z</time></trkpt><trkpt lat="45.616922934299524" lon="10.645330188169275"><ele>62.0</ele><time>2026-03-28T16:33:54Z</time></trkpt><trkpt lat="45.616961281003846" lon="10.645191359399208"><ele>62.0</ele><time>2026-03-28T16:33:56Z</time></trkpt><trkpt lat="45.61699661653439" lon="10.645052359697951"><ele>62.0</ele><time>2026-03-28T16:33:58Z</time></trkpt><trkpt lat="45.61703807271477" lon="10.644913241029126"><ele>62.0</ele><time>2026-03-28T16:34:00Z</time></trkpt><trkpt lat="45.61707844800099" lon="10.644774202223973"><ele>62.0</ele><time>2026-03-28T16:34:02Z</time></trkpt><trkpt lat="45.61711408375595" lon="10.64463690327124"><ele>62.0</ele><time>2026-03-28T16:34:04Z</time></trkpt><trkpt lat="45.61715555326309" lon="10.64450184601834"><ele>62.0</ele><time>2026-03-28T16:34:06Z</time></trkpt><trkpt lat="45.61719059227569" lon="10.644359275647952"><ele>62.0</ele><time>2026-03-28T16:34:08Z</time></trkpt><trkpt lat="45.61723036171702" lon="10.644224742994862"><ele>62.0</ele><time>2026-03-28T16:34:10Z</time></trkpt><trkpt lat="45.61726880389676" lon="10.644085186381288"><ele>62.0</ele><time>2026-03-28T16:34:12Z</time></trkpt><trkpt lat="45.61730322224809" lon="10.643945854110937"><ele>62.0</ele><time>2026-03-28T16:34:14Z</time></trkpt><trkpt lat="45.617334975649875" lon="10.643798741307062"><ele>62.0</ele><time>2026-03-28T16:34:16Z</time></trkpt><trkpt lat="45.61736982388569" lon="10.643663347240798"><ele>62.0</ele><time>2026-03-28T16:34:18Z</time></trkpt><trkpt lat="45.61741038764342" lon="10.643526455516303"><ele>62.0</ele><time>2026-03-28T16:34:20Z</time></trkpt><trkpt lat="45.61744240890785" lon="10.6433892573418"><ele>62.0</ele><time>2026-03-28T16:34:22Z</time></trkpt><trkpt lat="45.617475565003026" lon="10.643252144329015"><ele>62.0</ele><time>2026-03-28T16:34:24Z</time></trkpt><trkpt lat="45.617508374609415" lon="10.64311239836002"><ele>62.0</ele><time>2026-03-28T16:34:26Z</time></trkpt><trkpt lat="45.61754967803746" lon="10.642976202378803"><ele>62.0</ele><time>2026-03-28T16:34:28Z</time></trkpt><trkpt lat="45.61758532737255" lon="10.64284062973828"><ele>62.0</ele><time>2026-03-28T16:34:30Z</time></trkpt><trkpt lat="45.61762471416006" lon="10.642705169170863"><ele>62.0</ele><time>2026-03-28T16:34:32Z</time></trkpt><trkpt lat="45.61766620962736" lon="10.642567505129788"><ele>62.0</ele><time>2026-03-28T16:34:34Z</time></trkpt><trkpt lat="45.61770313253325" lon="10.642428611736099"><ele>62.0</ele><time>2026-03-28T16:34:36Z</time></trkpt><trkpt lat="45.617741592473664" lon="10.64229274954251"><ele>62.0</ele><time>2026-03-28T16:34:38Z</time></trkpt><trkpt lat="45.617784362442116" lon="10.642153700532772"><ele>62.0</ele><time>2026-03-28T16:34:40Z</time></trkpt><trkpt lat="45.61782184156699" lon="10.642017103481322"><ele>62.0</ele><time>2026-03-28T16:34:42Z</time></trkpt><trkpt lat="45.61786558188042" lon="10.641877416239993"><ele>62.0</ele><time>2026-03-28T16:34:44Z</time></trkpt><trkpt lat="45.6179060635379" lon="10.641737988937535"><ele>62.0</ele><time>2026-03-28T16:34:46Z</time></trkpt><trkpt lat="45.61794852867058" lon="10.641600917279009"><ele>62.0</ele><time>2026-03-28T16:34:48Z</time></trkpt><trkpt lat="45.61799084365725" lon="10.641455373270254"><ele>62.0</ele><time>2026-03-28T16:34:50Z</time></trkpt><trkpt lat="45.61803222288809" lon="10.641323701003772"><ele>62.0</ele><time>2026-03-28T16:34:52Z</time></trkpt><trkpt lat="45.61807038355925" lon="10.641177391784023"><ele>62.0</ele><time>2026-03-28T16:34:54Z</time></trkpt><trkpt lat="45.61811090039774" lon="10.641018969977589"><ele>62.0</ele><time>2026-03-28T16:34:56Z</time></trkpt><trkpt lat="45.61814748850955" lon="10.640884103962232"><ele>62.0</ele><time>2026-03-28T16:34:58Z</time></trkpt><trkpt lat="45.61818570984186" lon="10.640751075684467"><ele>62.0</ele><time>2026-03-28T16:35:00Z</time></trkpt><trkpt lat="45.618218651100726" lon="10.640612354544524"><ele>62.0</ele><time>2026-03-28T16:35:02Z</time></trkpt><trkpt lat="45.618254525304316" lon="10.640477475564591"><ele>62.0</ele><time>2026-03-28T16:35:04Z</time></trkpt><trkpt lat="45.618286661021216" lon="10.640340098483097"><ele>62.0</ele><time>2026-03-28T16:35:06Z</time></trkpt><trkpt lat="45.61832242344355" lon="10.640203674532684"><ele>62.0</ele><time>2026-03-28T16:35:08Z</time></trkpt><trkpt lat="45.61835373553181" lon="10.640064753213801"><ele>62.0</ele><time>2026-03-28T16:35:10Z</time></trkpt><trkpt lat="45.618388594359686" lon="10.639919779960575"><ele>62.0</ele><time>2026-03-28T16:35:12Z</time></trkpt><trkpt lat="45.61842644125183" lon="10.639775614201533"><ele>62.0</ele><time>2026-03-28T16:35:14Z</time></trkpt><trkpt lat="45.61846332139651" lon="10.639625945416245"><ele>62.0</ele><time>2026-03-28T16:35:16Z</time></trkpt><trkpt lat="45.61850183757862" lon="10.639481108451616"><ele>62.0</ele><time>2026-03-28T16:35:18Z</time></trkpt><trkpt lat="45.618540484119976" lon="10.639336607194595"><ele>62.0</ele><time>2026-03-28T16:35:20Z</time></trkpt><trkpt lat="45.61857841523534" lon="10.639202846812065"><ele>62.0</ele><time>2026-03-28T16:35:22Z</time></trkpt><trkpt lat="45.618617360237245" lon="10.639068181356045"><ele>62.0</ele><time>2026-03-28T16:35:24Z</time></trkpt><trkpt lat="45.61865654577164" lon="10.638941762365752"><ele>62.0</ele><time>2026-03-28T16:35:26Z</time></trkpt><trkpt lat="45.61869975389188" lon="10.638811916536877"><ele>62.0</ele><time>2026-03-28T16:35:28Z</time></trkpt><trkpt lat="45.61874258707969" lon="10.638681875246727"><ele>62.0</ele><time>2026-03-28T16:35:30Z</time></trkpt><trkpt lat="45.618787665695024" lon="10.638543667173597"><ele>62.0</ele><time>2026-03-28T16:35:32Z</time></trkpt><trkpt lat="45.61882948059392" lon="10.638400561106938"><ele>62.0</ele><time>2026-03-28T16:35:34Z</time></trkpt><trkpt lat="45.618869020052884" lon="10.638258435858654"><ele>62.0</ele><time>2026-03-28T16:35:36Z</time></trkpt><trkpt lat="45.61891384300308" lon="10.638119442718404"><ele>62.0</ele><time>2026-03-28T16:35:38Z</time></trkpt><trkpt lat="45.618951215934935" lon="10.637969053982998"><ele>62.0</ele><time>2026-03-28T16:35:40Z</time></trkpt><trkpt lat="45.61898494787871" lon="10.637840306455848"><ele>62.0</ele><time>2026-03-28T16:35:42Z</time></trkpt><trkpt lat="45.61901996140638" lon="10.63771129347966"><ele>62.0</ele><time>2026-03-28T16:35:44Z</time></trkpt><trkpt lat="45.619051247334305" lon="10.637582950733254"><ele>62.0</ele><time>2026-03-28T16:35:46Z</time></trkpt><trkpt lat="45.6190825133615" lon="10.637444261825596"><ele>62.0</ele><time>2026-03-28T16:35:48Z</time></trkpt><trkpt lat="45.61911122924123" lon="10.637312662288116"><ele>62.0</ele><time>2026-03-28T16:35:50Z</time></trkpt><trkpt lat="45.61914908688833" lon="10.637178230581714"><ele>62.0</ele><time>2026-03-28T16:35:52Z</time></trkpt><trkpt lat="45.61918428092228" lon="10.63704583078716"><ele>62.0</ele><time>2026-03-28T16:35:54Z</time></trkpt><trkpt lat="45.61922348830416" lon="10.636913061455997"><ele>62.0</ele><time>2026-03-28T16:35:56Z</time></trkpt><trkpt lat="45.61925739560268" lon="10.636767452107362"><ele>62.0</ele><time>2026-03-28T16:35:58Z</time></trkpt><trkpt lat="45.6192915019205" lon="10.636631725520152"><ele>62.0</ele><time>2026-03-28T16:36:00Z</time></trkpt><trkpt lat="45.61931619042318" lon="10.636491080407815"><ele>62.0</ele><time>2026-03-28T16:36:02Z</time></trkpt><trkpt lat="45.619344612255354" lon="10.636355043683789"><ele>62.0</ele><time>2026-03-28T16:36:04Z</time></trkpt><trkpt lat="45.619380401583555" lon="10.636218826438903"><ele>62.0</ele><time>2026-03-28T16:36:06Z</time></trkpt><trkpt lat="45.61941978554553" lon="10.636086993921353"><ele>62.0</ele><time>2026-03-28T16:36:08Z</time></trkpt><trkpt lat="45.61945734574978" lon="10.635951849413264"><ele>62.0</ele><time>2026-03-28T16:36:10Z</time></trkpt><trkpt lat="45.61949561100883" lon="10.635819615273578"><ele>62.0</ele><time>2026-03-28T16:36:12Z</time></trkpt><trkpt lat="45.619535799361714" lon="10.635681633559733"><ele>62.0</ele><time>2026-03-28T16:36:14Z</time></trkpt><trkpt lat="45.61957243367981" lon="10.635543047135137"><ele>62.0</ele><time>2026-03-28T16:36:16Z</time></trkpt><trkpt lat="45.61960991587665" lon="10.635404157532857"><ele>62.0</ele><time>2026-03-28T16:36:18Z</time></trkpt><trkpt lat="45.61964756723911" lon="10.635266303866624"><ele>62.0</ele><time>2026-03-28T16:36:20Z</time></trkpt><trkpt lat="45.619680918218116" lon="10.635124040861594"><ele>62.0</ele><time>2026-03-28T16:36:22Z</time></trkpt><trkpt lat="45.61971226865696" lon="10.63498510118465"><ele>62.0</ele><time>2026-03-28T16:36:24Z</time></trkpt><trkpt lat="45.619746328080105" lon="10.634850194805471"><ele>62.0</ele><time>2026-03-28T16:36:26Z</time></trkpt><trkpt lat="45.61978123094549" lon="10.634706525876597"><ele>62.0</ele><time>2026-03-28T16:36:28Z</time></trkpt><trkpt lat="45.61981872288304" lon="10.634567131575059"><ele>62.0</ele><time>2026-03-28T16:36:30Z</time></trkpt><trkpt lat="45.619853743922654" lon="10.634433792050487"><ele>62.0</ele><time>2026-03-28T16:36:32Z</time></trkpt><trkpt lat="45.619891454112576" lon="10.634293349610028"><ele>62.0</ele><time>2026-03-28T16:36:34Z</time></trkpt><trkpt lat="45.61992737022949" lon="10.634159419313287"><ele>62.0</ele><time>2026-03-28T16:36:36Z</time></trkpt><trkpt lat="45.61996005916812" lon="10.634024030401179"><ele>62.0</ele><time>2026-03-28T16:36:38Z</time></trkpt><trkpt lat="45.61998975342271" lon="10.633881002403088"><ele>62.0</ele><time>2026-03-28T16:36:40Z</time></trkpt><trkpt lat="45.620025290444346" lon="10.633747054828781"><ele>62.0</ele><time>2026-03-28T16:36:42Z</time></trkpt><trkpt lat="45.6200576817653" lon="10.633604918048713"><ele>62.0</ele><time>2026-03-28T16:36:44Z</time></trkpt><trkpt lat="45.62009358558895" lon="10.63347323246521"><ele>62.0</ele><time>2026-03-28T16:36:46Z</time></trkpt><trkpt lat="45.62013130505481" lon="10.63333836716857"><ele>62.0</ele><time>2026-03-28T16:36:48Z</time></trkpt><trkpt lat="45.62015153611453" lon="10.633205091717318"><ele>62.0</ele><time>2026-03-28T16:36:50Z</time></trkpt><trkpt lat="45.62018767152307" lon="10.633063649504884"><ele>62.0</ele><time>2026-03-28T16:36:52Z</time></trkpt><trkpt lat="45.62022406968994" lon="10.63293209629971"><ele>62.0</ele><time>2026-03-28T16:36:54Z</time></trkpt><trkpt lat="45.62025821507883" lon="10.632795872192458"><ele>62.0</ele><time>2026-03-28T16:36:56Z</time></trkpt><trkpt lat="45.6202878756666" lon="10.632654259318555"><ele>62.0</ele><time>2026-03-28T16:36:58Z</time></trkpt><trkpt lat="45.620318430104994" lon="10.632515322318541"><ele>62.0</ele><time>2026-03-28T16:37:00Z</time></trkpt><trkpt lat="45.620348702394445" lon="10.632380728197361"><ele>62.0</ele><time>2026-03-28T16:37:02Z</time></trkpt><trkpt lat="45.6203788670411" lon="10.632251237642372"><ele>62.0</ele><time>2026-03-28T16:37:04Z</time></trkpt><trkpt lat="45.620410304884324" lon="10.632120406343875"><ele>62.0</ele><time>2026-03-28T16:37:06Z</time></trkpt><trkpt lat="45.62043905820706" lon="10.63198301163739"><ele>62.0</ele><time>2026-03-28T16:37:08Z</time></trkpt><trkpt lat="45.62046579270385" lon="10.631844332552992"><ele>62.0</ele><time>2026-03-28T16:37:10Z</time></trkpt><trkpt lat="45.62049705567149" lon="10.631709255501223"><ele>62.0</ele><time>2026-03-28T16:37:12Z</time></trkpt><trkpt lat="45.62053338885522" lon="10.631574731790296"><ele>62.0</ele><time>2026-03-28T16:37:14Z</time></trkpt><trkpt lat="45.62056722747414" lon="10.631438318957784"><ele>62.0</ele><time>2026-03-28T16:37:16Z</time></trkpt><trkpt lat="45.62060467566413" lon="10.631299959834102"><ele>62.0</ele><time>2026-03-28T16:37:18Z</time></trkpt><trkpt lat="45.620634959231175" lon="10.631165551076952"><ele>62.0</ele><time>2026-03-28T16:37:20Z</time></trkpt><trkpt lat="45.62067088105416" lon="10.63103176011709"><ele>62.0</ele><time>2026-03-28T16:37:22Z</time></trkpt><trkpt lat="45.620707134187526" lon="10.63089098394864"><ele>62.0</ele><time>2026-03-28T16:37:24Z</time></trkpt><trkpt lat="45.62074529169514" lon="10.630760108689847"><ele>62.0</ele><time>2026-03-28T16:37:26Z</time></trkpt><trkpt lat="45.620782363009354" lon="10.630628379355993"><ele>62.0</ele><time>2026-03-28T16:37:28Z</time></trkpt><trkpt lat="45.62081730903724" lon="10.630490953594368"><ele>62.0</ele><time>2026-03-28T16:37:30Z</time></trkpt><trkpt lat="45.62085196670057" lon="10.630357730493625"><ele>62.0</ele><time>2026-03-28T16:37:32Z</time></trkpt><trkpt lat="45.62088784546224" lon="10.630224603098437"><ele>62.0</ele><time>2026-03-28T16:37:34Z</time></trkpt><trkpt lat="45.62093118663492" lon="10.630092460545749"><ele>62.0</ele><time>2026-03-28T16:37:36Z</time></trkpt><trkpt lat="45.62096641743684" lon="10.629954782727404"><ele>62.0</ele><time>2026-03-28T16:37:38Z</time></trkpt><trkpt lat="45.621001187639635" lon="10.629823711335243"><ele>62.0</ele><time>2026-03-28T16:37:40Z</time></trkpt><trkpt lat="45.62104191054075" lon="10.62968698897886"><ele>62.0</ele><time>2026-03-28T16:37:42Z</time></trkpt><trkpt lat="45.621077541605125" lon="10.6295537445583"><ele>62.0</ele><time>2026-03-28T16:37:44Z</time></trkpt><trkpt lat="45.621111056715904" lon="10.629422261217433"><ele>62.0</ele><time>2026-03-28T16:37:46Z</time></trkpt><trkpt lat="45.6211464509983" lon="10.629290119025748"><ele>62.0</ele><time>2026-03-28T16:37:48Z</time></trkpt><trkpt lat="45.62118628684344" lon="10.629154340509919"><ele>62.0</ele><time>2026-03-28T16:37:50Z</time></trkpt><trkpt lat="45.62122155664761" lon="10.62902088667095"><ele>62.0</ele><time>2026-03-28T16:37:52Z</time></trkpt><trkpt lat="45.62126078356099" lon="10.628888943263787"><ele>62.0</ele><time>2026-03-28T16:37:54Z</time></trkpt><trkpt lat="45.62129788923892" lon="10.628754769602157"><ele>62.0</ele><time>2026-03-28T16:37:56Z</time></trkpt><trkpt lat="45.621332947082124" lon="10.628614648190128"><ele>62.0</ele><time>2026-03-28T16:37:58Z</time></trkpt><trkpt lat="45.6213618733745" lon="10.628471447069854"><ele>62.0</ele><time>2026-03-28T16:38:00Z</time></trkpt><trkpt lat="45.62140152128693" lon="10.628263921479721"><ele>62.0</ele><time>2026-03-28T16:38:03Z</time></trkpt><trkpt lat="45.62143614536354" lon="10.628130271364276"><ele>62.0</ele><time>2026-03-28T16:38:05Z</time></trkpt><trkpt lat="45.62147290030314" lon="10.627997238094341"><ele>62.0</ele><time>2026-03-28T16:38:07Z</time></trkpt><trkpt lat="45.62150233294312" lon="10.627850712987973"><ele>62.0</ele><time>2026-03-28T16:38:09Z</time></trkpt><trkpt lat="45.62154238767072" lon="10.627710833006649"><ele>62.0</ele><time>2026-03-28T16:38:11Z</time></trkpt><trkpt lat="45.62158107620658" lon="10.627562779915872"><ele>62.0</ele><time>2026-03-28T16:38:13Z</time></trkpt><trkpt lat="45.62161859359316" lon="10.627428434303111"><ele>62.0</ele><time>2026-03-28T16:38:15Z</time></trkpt><trkpt lat="45.62165770173613" lon="10.627293005115783"><ele>62.0</ele><time>2026-03-28T16:38:17Z</time></trkpt><trkpt lat="45.62169165921557" lon="10.627147727169588"><ele>62.0</ele><time>2026-03-28T16:38:19Z</time></trkpt><trkpt lat="45.62172758239363" lon="10.627012071014557"><ele>62.0</ele><time>2026-03-28T16:38:21Z</time></trkpt><trkpt lat="45.62175888214934" lon="10.62687178512142"><ele>62.0</ele><time>2026-03-28T16:38:23Z</time></trkpt><trkpt lat="45.6217902151307" lon="10.626732003939878"><ele>62.0</ele><time>2026-03-28T16:38:25Z</time></trkpt><trkpt lat="45.62182568729284" lon="10.626595510533157"><ele>62.0</ele><time>2026-03-28T16:38:27Z</time></trkpt><trkpt lat="45.6218578839833" lon="10.62645854111157"><ele>62.0</ele><time>2026-03-28T16:38:29Z</time></trkpt><trkpt lat="45.621882308998806" lon="10.62633739716561"><ele>62.0</ele><time>2026-03-28T16:38:31Z</time></trkpt><trkpt lat="45.62192476765025" lon="10.626205292071715"><ele>62.0</ele><time>2026-03-28T16:38:33Z</time></trkpt><trkpt lat="45.62196235441228" lon="10.626073902303473"><ele>62.0</ele><time>2026-03-28T16:38:35Z</time></trkpt><trkpt lat="45.62199782813424" lon="10.625945097523573"><ele>62.0</ele><time>2026-03-28T16:38:37Z</time></trkpt><trkpt lat="45.62203302350235" lon="10.625812617925119"><ele>62.0</ele><time>2026-03-28T16:38:39Z</time></trkpt><trkpt lat="45.62207010889476" lon="10.625681571838307"><ele>62.0</ele><time>2026-03-28T16:38:41Z</time></trkpt><trkpt lat="45.62210463790897" lon="10.625548665354833"><ele>62.0</ele><time>2026-03-28T16:38:43Z</time></trkpt><trkpt lat="45.62213861121856" lon="10.625413720044662"><ele>62.0</ele><time>2026-03-28T16:38:45Z</time></trkpt><trkpt lat="45.622169801600656" lon="10.625277664531627"><ele>62.0</ele><time>2026-03-28T16:38:47Z</time></trkpt><trkpt lat="45.622200017159436" lon="10.625142303598809"><ele>62.0</ele><time>2026-03-28T16:38:49Z</time></trkpt><trkpt lat="45.62223142704089" lon="10.625000646527452"><ele>62.0</ele><time>2026-03-28T16:38:51Z</time></trkpt><trkpt lat="45.62226854636072" lon="10.624865833826407"><ele>62.0</ele><time>2026-03-28T16:38:53Z</time></trkpt><trkpt lat="45.62229841659708" lon="10.624727768936948"><ele>62.0</ele><time>2026-03-28T16:38:55Z</time></trkpt><trkpt lat="45.622329834497535" lon="10.62458550767203"><ele>62.0</ele><time>2026-03-28T16:38:57Z</time></trkpt><trkpt lat="45.62236683346412" lon="10.624446207442187"><ele>62.0</ele><time>2026-03-28T16:38:59Z</time></trkpt><trkpt lat="45.62240142822474" lon="10.624312665119113"><ele>62.0</ele><time>2026-03-28T16:39:01Z</time></trkpt><trkpt lat="45.62243088631978" lon="10.624176061196552"><ele>62.0</ele><time>2026-03-28T16:39:03Z</time></trkpt><trkpt lat="45.622462364168584" lon="10.62403818915123"><ele>62.0</ele><time>2026-03-28T16:39:05Z</time></trkpt><trkpt lat="45.62249603952112" lon="10.62390274222251"><ele>62.0</ele><time>2026-03-28T16:39:07Z</time></trkpt><trkpt lat="45.62252754010656" lon="10.62376876970996"><ele>62.0</ele><time>2026-03-28T16:39:09Z</time></trkpt><trkpt lat="45.622559474241676" lon="10.623629711339342"><ele>62.0</ele><time>2026-03-28T16:39:11Z</time></trkpt><trkpt lat="45.62258876416788" lon="10.623494874749328"><ele>62.0</ele><time>2026-03-28T16:39:13Z</time></trkpt><trkpt lat="45.62262062269698" lon="10.623356413138996"><ele>62.0</ele><time>2026-03-28T16:39:15Z</time></trkpt><trkpt lat="45.62265570025897" lon="10.623214397718403"><ele>62.0</ele><time>2026-03-28T16:39:17Z</time></trkpt><trkpt lat="45.62268545475349" lon="10.623074861873523"><ele>62.0</ele><time>2026-03-28T16:39:19Z</time></trkpt><trkpt lat="45.62271349823874" lon="10.622932804140861"><ele>62.0</ele><time>2026-03-28T16:39:21Z</time></trkpt><trkpt lat="45.62274270432452" lon="10.622796565590207"><ele>62.0</ele><time>2026-03-28T16:39:23Z</time></trkpt><trkpt lat="45.62277083578786" lon="10.622661010397838"><ele>62.0</ele><time>2026-03-28T16:39:25Z</time></trkpt><trkpt lat="45.62279838130849" lon="10.62252586528032"><ele>62.0</ele><time>2026-03-28T16:39:27Z</time></trkpt><trkpt lat="45.6228270747577" lon="10.622388747210637"><ele>62.0</ele><time>2026-03-28T16:39:29Z</time></trkpt><trkpt lat="45.622851511786486" lon="10.62225220536249"><ele>62.0</ele><time>2026-03-28T16:39:31Z</time></trkpt><trkpt lat="45.62287242568395" lon="10.622115295795068"><ele>62.0</ele><time>2026-03-28T16:39:33Z</time></trkpt><trkpt lat="45.62289400139525" lon="10.621989923023163"><ele>62.0</ele><time>2026-03-28T16:39:35Z</time></trkpt><trkpt lat="45.62291828056638" lon="10.621860920739158"><ele>62.0</ele><time>2026-03-28T16:39:37Z</time></trkpt><trkpt lat="45.62294030141936" lon="10.621721183102325"><ele>62.0</ele><time>2026-03-28T16:39:39Z</time></trkpt><trkpt lat="45.62296167027045" lon="10.621587047111786"><ele>62.0</ele><time>2026-03-28T16:39:41Z</time></trkpt><trkpt lat="45.62299106078546" lon="10.621452498192907"><ele>62.0</ele><time>2026-03-28T16:39:43Z</time></trkpt><trkpt lat="45.62302243790174" lon="10.621310962402044"><ele>62.0</ele><time>2026-03-28T16:39:45Z</time></trkpt><trkpt lat="45.623055074812044" lon="10.621172434691525"><ele>62.0</ele><time>2026-03-28T16:39:47Z</time></trkpt><trkpt lat="45.62308639530169" lon="10.621032984390263"><ele>62.0</ele><time>2026-03-28T16:39:49Z</time></trkpt><trkpt lat="45.623120286643264" lon="10.620897356635766"><ele>62.0</ele><time>2026-03-28T16:39:51Z</time></trkpt><trkpt lat="45.62315493335295" lon="10.620755826005764"><ele>62.0</ele><time>2026-03-28T16:39:53Z</time></trkpt><trkpt lat="45.62319079292416" lon="10.620617953150846"><ele>62.0</ele><time>2026-03-28T16:39:55Z</time></trkpt><trkpt lat="45.62322079173292" lon="10.620468766859881"><ele>62.0</ele><time>2026-03-28T16:39:57Z</time></trkpt><trkpt lat="45.62324748241893" lon="10.620333183020433"><ele>62.0</ele><time>2026-03-28T16:39:59Z</time></trkpt><trkpt lat="45.623270529833306" lon="10.62019199965174"><ele>62.0</ele><time>2026-03-28T16:40:01Z</time></trkpt><trkpt lat="45.623298073863666" lon="10.620050538181495"><ele>62.0</ele><time>2026-03-28T16:40:03Z</time></trkpt><trkpt lat="45.62333024203394" lon="10.619911719072798"><ele>62.0</ele><time>2026-03-28T16:40:05Z</time></trkpt><trkpt lat="45.62336417557755" lon="10.619776614084214"><ele>62.0</ele><time>2026-03-28T16:40:07Z</time></trkpt><trkpt lat="45.62339920645741" lon="10.619637018387635"><ele>62.0</ele><time>2026-03-28T16:40:09Z</time></trkpt><trkpt lat="45.62343228312112" lon="10.619501892058162"><ele>62.0</ele><time>2026-03-28T16:40:11Z</time></trkpt><trkpt lat="45.62346458745623" lon="10.619365734450053"><ele>62.0</ele><time>2026-03-28T16:40:13Z</time></trkpt><trkpt lat="45.6234958830363" lon="10.6192282853574"><ele>62.0</ele><time>2026-03-28T16:40:15Z</time></trkpt><trkpt lat="45.62352578258727" lon="10.619092793292774"><ele>62.0</ele><time>2026-03-28T16:40:17Z</time></trkpt><trkpt lat="45.62356060130989" lon="10.618958421197062"><ele>62.0</ele><time>2026-03-28T16:40:19Z</time></trkpt><trkpt lat="45.6235922718743" lon="10.618821251955307"><ele>62.0</ele><time>2026-03-28T16:40:21Z</time></trkpt><trkpt lat="45.6236237370377" lon="10.618686190904462"><ele>62.0</ele><time>2026-03-28T16:40:23Z</time></trkpt><trkpt lat="45.62365144418169" lon="10.618539537538798"><ele>62.0</ele><time>2026-03-28T16:40:25Z</time></trkpt><trkpt lat="45.62368035855082" lon="10.618397251936452"><ele>62.0</ele><time>2026-03-28T16:40:27Z</time></trkpt><trkpt lat="45.62370471829983" lon="10.61824841226212"><ele>62.0</ele><time>2026-03-28T16:40:29Z</time></trkpt><trkpt lat="45.623731897502495" lon="10.618111735677868"><ele>62.0</ele><time>2026-03-28T16:40:31Z</time></trkpt><trkpt lat="45.62376196384207" lon="10.617972289420845"><ele>62.0</ele><time>2026-03-28T16:40:33Z</time></trkpt><trkpt lat="45.62378932845477" lon="10.617838922425092"><ele>62.0</ele><time>2026-03-28T16:40:35Z</time></trkpt><trkpt lat="45.62381706488902" lon="10.617708697382342"><ele>62.0</ele><time>2026-03-28T16:40:37Z</time></trkpt><trkpt lat="45.6238509542517" lon="10.61757083635794"><ele>62.0</ele><time>2026-03-28T16:40:39Z</time></trkpt><trkpt lat="45.623884459649226" lon="10.617430062022903"><ele>62.0</ele><time>2026-03-28T16:40:41Z</time></trkpt><trkpt lat="45.623913525250984" lon="10.617294927231978"><ele>62.0</ele><time>2026-03-28T16:40:43Z</time></trkpt><trkpt lat="45.62394355910262" lon="10.6171544970795"><ele>62.0</ele><time>2026-03-28T16:40:45Z</time></trkpt><trkpt lat="45.62397754902625" lon="10.617019214285822"><ele>62.0</ele><time>2026-03-28T16:40:47Z</time></trkpt><trkpt lat="45.62401186115802" lon="10.616891422355778"><ele>62.0</ele><time>2026-03-28T16:40:49Z</time></trkpt><trkpt lat="45.62404100968457" lon="10.61673621291693"><ele>62.0</ele><time>2026-03-28T16:40:51Z</time></trkpt><trkpt lat="45.62406375988166" lon="10.616591158632696"><ele>62.0</ele><time>2026-03-28T16:40:53Z</time></trkpt><trkpt lat="45.6241023414135" lon="10.616463361288089"><ele>62.0</ele><time>2026-03-28T16:40:55Z</time></trkpt><trkpt lat="45.624131985838204" lon="10.616330985916717"><ele>62.0</ele><time>2026-03-28T16:40:57Z</time></trkpt><trkpt lat="45.62416193402231" lon="10.616190274667165"><ele>62.0</ele><time>2026-03-28T16:40:59Z</time></trkpt><trkpt lat="45.624187266435705" lon="10.616052169978875"><ele>62.0</ele><time>2026-03-28T16:41:01Z</time></trkpt><trkpt lat="45.624227451081275" lon="10.615918452292423"><ele>62.0</ele><time>2026-03-28T16:41:03Z</time></trkpt><trkpt lat="45.62426949727985" lon="10.61578330076951"><ele>62.0</ele><time>2026-03-28T16:41:05Z</time></trkpt><trkpt lat="45.62430564828425" lon="10.615646001140155"><ele>62.0</ele><time>2026-03-28T16:41:07Z</time></trkpt><trkpt lat="45.62433911509921" lon="10.615506363183709"><ele>62.0</ele><time>2026-03-28T16:41:09Z</time></trkpt><trkpt lat="45.6243695508154" lon="10.61535373553195"><ele>62.0</ele><time>2026-03-28T16:41:11Z</time></trkpt><trkpt lat="45.6243976697858" lon="10.61521241030867"><ele>62.0</ele><time>2026-03-28T16:41:13Z</time></trkpt><trkpt lat="45.624428055577646" lon="10.615083059054859"><ele>62.0</ele><time>2026-03-28T16:41:15Z</time></trkpt><trkpt lat="45.62445501352602" lon="10.614939884778877"><ele>62.0</ele><time>2026-03-28T16:41:17Z</time></trkpt><trkpt lat="45.624481193322154" lon="10.614802554297684"><ele>62.0</ele><time>2026-03-28T16:41:19Z</time></trkpt><trkpt lat="45.62451780786115" lon="10.614660252175813"><ele>62.0</ele><time>2026-03-28T16:41:21Z</time></trkpt><trkpt lat="45.624540968614674" lon="10.614516915712645"><ele>62.0</ele><time>2026-03-28T16:41:23Z</time></trkpt><trkpt lat="45.62455640388944" lon="10.614375884042415"><ele>62.0</ele><time>2026-03-28T16:41:25Z</time></trkpt><trkpt lat="45.62457613173402" lon="10.614233084625477"><ele>62.0</ele><time>2026-03-28T16:41:27Z</time></trkpt><trkpt lat="45.62460448642276" lon="10.614088762314408"><ele>62.0</ele><time>2026-03-28T16:41:29Z</time></trkpt><trkpt lat="45.62463068580359" lon="10.613944458752092"><ele>62.0</ele><time>2026-03-28T16:41:31Z</time></trkpt><trkpt lat="45.624655766424766" lon="10.613797263700635"><ele>62.0</ele><time>2026-03-28T16:41:33Z</time></trkpt><trkpt lat="45.62468915506969" lon="10.61366151046573"><ele>62.0</ele><time>2026-03-28T16:41:35Z</time></trkpt><trkpt lat="45.62471556513955" lon="10.613530628809663"><ele>62.0</ele><time>2026-03-28T16:41:37Z</time></trkpt><trkpt lat="45.62475102052724" lon="10.613388294834222"><ele>62.0</ele><time>2026-03-28T16:41:39Z</time></trkpt><trkpt lat="45.624775931354506" lon="10.61324711643144"><ele>62.0</ele><time>2026-03-28T16:41:41Z</time></trkpt><trkpt lat="45.6248093105287" lon="10.61311412516395"><ele>62.0</ele><time>2026-03-28T16:41:43Z</time></trkpt><trkpt lat="45.624839372995424" lon="10.612984759544176"><ele>62.0</ele><time>2026-03-28T16:41:45Z</time></trkpt><trkpt lat="45.6248785331692" lon="10.612841275909433"><ele>62.0</ele><time>2026-03-28T16:41:47Z</time></trkpt><trkpt lat="45.62489672768813" lon="10.612707910541738"><ele>62.0</ele><time>2026-03-28T16:41:49Z</time></trkpt><trkpt lat="45.62492587229454" lon="10.612572226674574"><ele>62.0</ele><time>2026-03-28T16:41:51Z</time></trkpt><trkpt lat="45.62495654404414" lon="10.612434918802062"><ele>62.0</ele><time>2026-03-28T16:41:53Z</time></trkpt><trkpt lat="45.62498500763848" lon="10.612296799206622"><ele>62.0</ele><time>2026-03-28T16:41:55Z</time></trkpt><trkpt lat="45.62501613503385" lon="10.612149789539103"><ele>62.0</ele><time>2026-03-28T16:41:57Z</time></trkpt><trkpt lat="45.62503405169117" lon="10.612006440540453"><ele>62.0</ele><time>2026-03-28T16:41:59Z</time></trkpt><trkpt lat="45.6250516895795" lon="10.611861575176214"><ele>62.0</ele><time>2026-03-28T16:42:01Z</time></trkpt><trkpt lat="45.62507106881294" lon="10.611716854793679"><ele>62.0</ele><time>2026-03-28T16:42:03Z</time></trkpt><trkpt lat="45.62510700868542" lon="10.611590634708847"><ele>62.0</ele><time>2026-03-28T16:42:05Z</time></trkpt><trkpt lat="45.625142383480366" lon="10.611447404711981"><ele>62.0</ele><time>2026-03-28T16:42:07Z</time></trkpt><trkpt lat="45.62517271321661" lon="10.611307643923869"><ele>62.0</ele><time>2026-03-28T16:42:09Z</time></trkpt><trkpt lat="45.6252003319702" lon="10.611169548073166"><ele>62.0</ele><time>2026-03-28T16:42:11Z</time></trkpt><trkpt lat="45.62524086815037" lon="10.611039090734367"><ele>62.0</ele><time>2026-03-28T16:42:13Z</time></trkpt><trkpt lat="45.62527979355548" lon="10.610897187496409"><ele>62.0</ele><time>2026-03-28T16:42:15Z</time></trkpt><trkpt lat="45.62531059675614" lon="10.610762811482523"><ele>62.0</ele><time>2026-03-28T16:42:17Z</time></trkpt><trkpt lat="45.625352756839526" lon="10.610629797571347"><ele>62.0</ele><time>2026-03-28T16:42:19Z</time></trkpt><trkpt lat="45.62538682593118" lon="10.61048687549474"><ele>62.0</ele><time>2026-03-28T16:42:21Z</time></trkpt><trkpt lat="45.62541425813538" lon="10.610350553821132"><ele>62.0</ele><time>2026-03-28T16:42:23Z</time></trkpt><trkpt lat="45.62544629666261" lon="10.610214427840297"><ele>62.0</ele><time>2026-03-28T16:42:25Z</time></trkpt><trkpt lat="45.62547456061957" lon="10.610072919398903"><ele>62.0</ele><time>2026-03-28T16:42:27Z</time></trkpt><trkpt lat="45.62550774012558" lon="10.609933291742792"><ele>62.0</ele><time>2026-03-28T16:42:29Z</time></trkpt><trkpt lat="45.625540651909105" lon="10.609799067528119"><ele>62.0</ele><time>2026-03-28T16:42:31Z</time></trkpt><trkpt lat="45.62557116419294" lon="10.60965648459613"><ele>62.0</ele><time>2026-03-28T16:42:33Z</time></trkpt><trkpt lat="45.625598228044254" lon="10.609522697063646"><ele>62.0</ele><time>2026-03-28T16:42:35Z</time></trkpt><trkpt lat="45.625613551766406" lon="10.609371441008282"><ele>62.0</ele><time>2026-03-28T16:42:37Z</time></trkpt><trkpt lat="45.6256451063564" lon="10.609227455904174"><ele>62.0</ele><time>2026-03-28T16:42:39Z</time></trkpt><trkpt lat="45.6256804675727" lon="10.609069444370531"><ele>62.0</ele><time>2026-03-28T16:42:41Z</time></trkpt><trkpt lat="45.62571223740172" lon="10.608927193776655"><ele>62.0</ele><time>2026-03-28T16:42:43Z</time></trkpt><trkpt lat="45.62573881977345" lon="10.608786108916545"><ele>62.0</ele><time>2026-03-28T16:42:45Z</time></trkpt><trkpt lat="45.62576747650786" lon="10.608633793026774"><ele>62.0</ele><time>2026-03-28T16:42:47Z</time></trkpt><trkpt lat="45.625799546530416" lon="10.60849095836919"><ele>62.0</ele><time>2026-03-28T16:42:49Z</time></trkpt><trkpt lat="45.62582368426201" lon="10.608353500892159"><ele>62.0</ele><time>2026-03-28T16:42:51Z</time></trkpt><trkpt lat="45.625856984939304" lon="10.608216207670205"><ele>62.0</ele><time>2026-03-28T16:42:53Z</time></trkpt><trkpt lat="45.62588607323482" lon="10.608074754047538"><ele>62.0</ele><time>2026-03-28T16:42:55Z</time></trkpt><trkpt lat="45.625916662740295" lon="10.607936452452282"><ele>62.0</ele><time>2026-03-28T16:42:57Z</time></trkpt><trkpt lat="45.62594303793546" lon="10.607788512446012"><ele>62.0</ele><time>2026-03-28T16:42:59Z</time></trkpt><trkpt lat="45.62596977951371" lon="10.607652878108903"><ele>62.0</ele><time>2026-03-28T16:43:01Z</time></trkpt><trkpt lat="45.62599673242467" lon="10.607514864722011"><ele>62.0</ele><time>2026-03-28T16:43:03Z</time></trkpt><trkpt lat="45.62601769020765" lon="10.607374620066201"><ele>62.0</ele><time>2026-03-28T16:43:05Z</time></trkpt><trkpt lat="45.626038829891094" lon="10.607243291198078"><ele>62.0</ele><time>2026-03-28T16:43:07Z</time></trkpt><trkpt lat="45.62606311729464" lon="10.607113889767582"><ele>62.0</ele><time>2026-03-28T16:43:09Z</time></trkpt><trkpt lat="45.62608404407233" lon="10.60697720638868"><ele>62.0</ele><time>2026-03-28T16:43:11Z</time></trkpt><trkpt lat="45.626120506284856" lon="10.606827467570822"><ele>62.0</ele><time>2026-03-28T16:43:13Z</time></trkpt><trkpt lat="45.626134344421914" lon="10.606688874394282"><ele>62.0</ele><time>2026-03-28T16:43:15Z</time></trkpt><trkpt lat="45.62616539912895" lon="10.606554545156941"><ele>62.0</ele><time>2026-03-28T16:43:17Z</time></trkpt><trkpt lat="45.626191512042546" lon="10.606409034430564"><ele>62.0</ele><time>2026-03-28T16:43:19Z</time></trkpt><trkpt lat="45.6262148205625" lon="10.606277818099823"><ele>62.0</ele><time>2026-03-28T16:43:21Z</time></trkpt><trkpt lat="45.62623794630148" lon="10.60613523991404"><ele>62.0</ele><time>2026-03-28T16:43:23Z</time></trkpt><trkpt lat="45.626263846017956" lon="10.605994089267153"><ele>62.0</ele><time>2026-03-28T16:43:25Z</time></trkpt><trkpt lat="45.626288291446464" lon="10.605859652944673"><ele>62.0</ele><time>2026-03-28T16:43:27Z</time></trkpt><trkpt lat="45.62631280488324" lon="10.605719181101728"><ele>62.0</ele><time>2026-03-28T16:43:29Z</time></trkpt><trkpt lat="45.62633671930004" lon="10.605582504129034"><ele>62.0</ele><time>2026-03-28T16:43:31Z</time></trkpt><trkpt lat="45.6263547132989" lon="10.605442468374665"><ele>62.0</ele><time>2026-03-28T16:43:33Z</time></trkpt><trkpt lat="45.6263756093109" lon="10.605301832379856"><ele>62.0</ele><time>2026-03-28T16:43:35Z</time></trkpt><trkpt lat="45.62639811516838" lon="10.605156233194732"><ele>62.0</ele><time>2026-03-28T16:43:37Z</time></trkpt><trkpt lat="45.62642048626228" lon="10.605009519278125"><ele>62.0</ele><time>2026-03-28T16:43:39Z</time></trkpt><trkpt lat="45.62644510304519" lon="10.60486676909147"><ele>62.0</ele><time>2026-03-28T16:43:41Z</time></trkpt><trkpt lat="45.62647115246082" lon="10.604726552750876"><ele>62.0</ele><time>2026-03-28T16:43:43Z</time></trkpt><trkpt lat="45.62649869796416" lon="10.60458620686263"><ele>62.0</ele><time>2026-03-28T16:43:45Z</time></trkpt><trkpt lat="45.62652831034421" lon="10.604449721833198"><ele>62.0</ele><time>2026-03-28T16:43:47Z</time></trkpt><trkpt lat="45.6265666276985" lon="10.604306790930005"><ele>62.0</ele><time>2026-03-28T16:43:49Z</time></trkpt><trkpt lat="45.62660640092898" lon="10.604172420500147"><ele>62.0</ele><time>2026-03-28T16:43:51Z</time></trkpt><trkpt lat="45.62664679255139" lon="10.604036482194601"><ele>62.0</ele><time>2026-03-28T16:43:53Z</time></trkpt><trkpt lat="45.62668335811965" lon="10.603905542021444"><ele>62.0</ele><time>2026-03-28T16:43:55Z</time></trkpt><trkpt lat="45.6267297339106" lon="10.603775675366865"><ele>62.0</ele><time>2026-03-28T16:43:57Z</time></trkpt><trkpt lat="45.62677438262293" lon="10.60365458951055"><ele>62.0</ele><time>2026-03-28T16:43:59Z</time></trkpt><trkpt lat="45.626824796661154" lon="10.603528472597839"><ele>62.0</ele><time>2026-03-28T16:44:01Z</time></trkpt><trkpt lat="45.62687705697946" lon="10.603403595868732"><ele>62.0</ele><time>2026-03-28T16:44:03Z</time></trkpt><trkpt lat="45.62693564405139" lon="10.603282635868638"><ele>62.0</ele><time>2026-03-28T16:44:05Z</time></trkpt><trkpt lat="45.626990944714066" lon="10.603165347174185"><ele>62.0</ele><time>2026-03-28T16:44:07Z</time></trkpt><trkpt lat="45.627056858652146" lon="10.603053002824135"><ele>62.0</ele><time>2026-03-28T16:44:09Z</time></trkpt><trkpt lat="45.62712195309673" lon="10.602919680280523"><ele>62.0</ele><time>2026-03-28T16:44:11Z</time></trkpt><trkpt lat="45.62719626845329" lon="10.60280630874842"><ele>62.0</ele><time>2026-03-28T16:44:13Z</time></trkpt><trkpt lat="45.627263869258826" lon="10.60270566566283"><ele>62.0</ele><time>2026-03-28T16:44:15Z</time></trkpt><trkpt lat="45.62733459002182" lon="10.602604239052045"><ele>62.0</ele><time>2026-03-28T16:44:17Z</time></trkpt><trkpt lat="45.627408388932956" lon="10.602510956437234"><ele>62.0</ele><time>2026-03-28T16:44:19Z</time></trkpt><trkpt lat="45.62748388652546" lon="10.60242113828981"><ele>62.0</ele><time>2026-03-28T16:44:21Z</time></trkpt><trkpt lat="45.627562111753015" lon="10.6023373278929"><ele>62.0</ele><time>2026-03-28T16:44:23Z</time></trkpt><trkpt lat="45.627642247598914" lon="10.60226418491044"><ele>62.0</ele><time>2026-03-28T16:44:25Z</time></trkpt><trkpt lat="45.627729947021315" lon="10.602192807163231"><ele>62.0</ele><time>2026-03-28T16:44:27Z</time></trkpt><trkpt lat="45.627817289574324" lon="10.60212754525825"><ele>62.0</ele><time>2026-03-28T16:44:29Z</time></trkpt><trkpt lat="45.627907035096584" lon="10.602063780668338"><ele>62.0</ele><time>2026-03-28T16:44:31Z</time></trkpt><trkpt lat="45.62799753826155" lon="10.602003102698486"><ele>62.0</ele><time>2026-03-28T16:44:33Z</time></trkpt><trkpt lat="45.628092296525956" lon="10.601946533336664"><ele>62.0</ele><time>2026-03-28T16:44:35Z</time></trkpt><trkpt lat="45.6281838197913" lon="10.60189169372943"><ele>62.0</ele><time>2026-03-28T16:44:37Z</time></trkpt><trkpt lat="45.62827557653973" lon="10.601845199940353"><ele>62.0</ele><time>2026-03-28T16:44:39Z</time></trkpt><trkpt lat="45.62836859593266" lon="10.60180268488472"><ele>62.0</ele><time>2026-03-28T16:44:41Z</time></trkpt><trkpt lat="45.62846338275802" lon="10.60175299806923"><ele>62.0</ele><time>2026-03-28T16:44:43Z</time></trkpt><trkpt lat="45.62855919654654" lon="10.601706241269113"><ele>62.0</ele><time>2026-03-28T16:44:45Z</time></trkpt><trkpt lat="45.62880083888077" lon="10.601613590129464"><ele>62.0</ele><time>2026-03-28T16:44:50Z</time></trkpt><trkpt lat="45.628896078432625" lon="10.601579879698512"><ele>62.00000000000001</ele><time>2026-03-28T16:44:52Z</time></trkpt><trkpt lat="45.6289861258448" lon="10.601556387631675"><ele>62.0</ele><time>2026-03-28T16:44:54Z</time></trkpt><trkpt lat="45.62907555639198" lon="10.601536534186897"><ele>62.0</ele><time>2026-03-28T16:44:56Z</time></trkpt><trkpt lat="45.62916344885969" lon="10.60151444543134"><ele>62.0</ele><time>2026-03-28T16:44:58Z</time></trkpt><trkpt lat="45.62924651361468" lon="10.601494165776279"><ele>62.00000000000001</ele><time>2026-03-28T16:45:00Z</time></trkpt><trkpt lat="45.629325246087156" lon="10.60147511713224"><ele>62.0</ele><time>2026-03-28T16:45:02Z</time></trkpt><trkpt lat="45.630228085316716" lon="10.60127006077538"><ele>62.0</ele><time>2026-03-28T16:45:29Z</time></trkpt><trkpt lat="45.63029557520616" lon="10.601259797857997"><ele>62.00000000000001</ele><time>2026-03-28T16:45:31Z</time></trkpt><trkpt lat="45.63036230558955" lon="10.601249302985524"><ele>62.0</ele><time>2026-03-28T16:45:33Z</time></trkpt><trkpt lat="45.630432729615286" lon="10.601242036702722"><ele>62.0</ele><time>2026-03-28T16:45:35Z</time></trkpt><trkpt lat="45.6305052075207" lon="10.601225922223978"><ele>62.00000000000001</ele><time>2026-03-28T16:45:37Z</time></trkpt><trkpt lat="45.63057245456445" lon="10.601217191027335"><ele>62.0</ele><time>2026-03-28T16:45:39Z</time></trkpt><trkpt lat="45.63063700335016" lon="10.601213919605039"><ele>62.0</ele><time>2026-03-28T16:45:41Z</time></trkpt><trkpt lat="45.63071112623458" lon="10.601199291641919"><ele>62.0</ele><time>2026-03-28T16:45:43Z</time></trkpt><trkpt lat="45.630808485657234" lon="10.601189397733814"><ele>62.00000000000001</ele><time>2026-03-28T16:45:46Z</time></trkpt><trkpt lat="45.63087782165137" lon="10.601183091942207"><ele>62.0</ele><time>2026-03-28T16:45:48Z</time></trkpt><trkpt lat="45.630945478589425" lon="10.601167845641804"><ele>62.0</ele><time>2026-03-28T16:45:50Z</time></trkpt><trkpt lat="45.63101186482423" lon="10.601158622538637"><ele>62.00000000000001</ele><time>2026-03-28T16:45:52Z</time></trkpt><trkpt lat="45.631079425583856" lon="10.601146542801242"><ele>62.0</ele><time>2026-03-28T16:45:54Z</time></trkpt><trkpt lat="45.631150369913456" lon="10.601136532937618"><ele>62.0</ele><time>2026-03-28T16:45:56Z</time></trkpt><trkpt lat="45.631214562294375" lon="10.601126178357413"><ele>62.00000000000001</ele><time>2026-03-28T16:45:58Z</time></trkpt><trkpt lat="45.631277878966635" lon="10.60111595817716"><ele>62.0</ele><time>2026-03-28T16:46:00Z</time></trkpt><trkpt lat="45.6313638263158" lon="10.601091121356697"><ele>62.0</ele><time>2026-03-28T16:46:03Z</time></trkpt><trkpt lat="45.631451663157115" lon="10.601085764964436"><ele>62.0</ele><time>2026-03-28T16:46:06Z</time></trkpt><trkpt lat="45.63153523070695" lon="10.601080904418685"><ele>62.00000000000001</ele><time>2026-03-28T16:46:09Z</time></trkpt><trkpt lat="45.63160756654888" lon="10.601069087001845"><ele>62.0</ele><time>2026-03-28T16:46:12Z</time></trkpt><trkpt lat="45.631677530890876" lon="10.601061712227633"><ele>62.00000000000001</ele><time>2026-03-28T16:46:15Z</time></trkpt><trkpt lat="45.631741654425824" lon="10.601059833150353"><ele>62.0</ele><time>2026-03-28T16:46:18Z</time></trkpt><trkpt lat="45.631806122655924" lon="10.60106006702444"><ele>62.0</ele><time>2026-03-28T16:46:21Z</time></trkpt><trkpt lat="45.63188766539639" lon="10.601063248482582"><ele>62.0</ele><time>2026-03-28T16:46:25Z</time></trkpt><trkpt lat="45.63198066771799" lon="10.601068608985928"><ele>62.00000000000001</ele><time>2026-03-28T16:46:30Z</time></trkpt><trkpt lat="45.63207596873735" lon="10.601067330029016"><ele>62.0</ele><time>2026-03-28T16:46:36Z</time></trkpt><trkpt lat="45.63214102525145" lon="10.601056100700102"><ele>62.25</ele><time>2026-03-28T16:46:42Z</time></trkpt><trkpt lat="45.63229145140762" lon="10.601029514103395"><ele>62.5</ele><time>2026-03-28T16:47:07Z</time></trkpt><trkpt lat="45.632416328618845" lon="10.601022004493599"><ele>62.75</ele><time>2026-03-28T16:49:18Z</time></trkpt><trkpt lat="45.6324689373882" lon="10.600967843479703"><ele>63.0</ele><time>2026-03-28T16:49:24Z</time></trkpt><trkpt lat="45.63257524987249" lon="10.600911265887126"><ele>63.0</ele><time>2026-03-28T16:49:45Z</time></trkpt><trkpt lat="45.63265057536756" lon="10.600883823758055"><ele>63.0</ele><time>2026-03-28T16:49:50Z</time></trkpt><trkpt lat="45.63272851030105" lon="10.600847881281918"><ele>63.0</ele><time>2026-03-28T16:49:54Z</time></trkpt><trkpt lat="45.63282193089326" lon="10.600816906750447"><ele>63.0</ele><time>2026-03-28T16:49:57Z</time></trkpt><trkpt lat="45.63290490456612" lon="10.60085439666421"><ele>63.0</ele><time>2026-03-28T16:50:00Z</time></trkpt><trkpt lat="45.63297828227643" lon="10.600909574477672"><ele>63.0</ele><time>2026-03-28T16:50:02Z</time></trkpt><trkpt lat="45.633026591875556" lon="10.600976519115914"><ele>63.833333333333336</ele><time>2026-03-28T16:50:05Z</time></trkpt><trkpt lat="45.63302241278102" lon="10.601122777132042"><ele>64.66666666666667</ele><time>2026-03-28T16:50:07Z</time></trkpt><trkpt lat="45.632999790564796" lon="10.6012097686681"><ele>65.5</ele><time>2026-03-28T16:50:08Z</time></trkpt><trkpt lat="45.63294332453266" lon="10.601340283657903"><ele>66.33333333333334</ele><time>2026-03-28T16:50:10Z</time></trkpt><trkpt lat="45.632898939519364" lon="10.601452722906513"><ele>67.16666666666667</ele><time>2026-03-28T16:50:12Z</time></trkpt><trkpt lat="45.632865557357356" lon="10.601563836162399"><ele>68.0</ele><time>2026-03-28T16:50:15Z</time></trkpt><trkpt lat="45.6328361746622" lon="10.601653976015339"><ele>68.0</ele><time>2026-03-28T16:50:18Z</time></trkpt><trkpt lat="45.63280299139781" lon="10.601735736695234"><ele>68.0</ele><time>2026-03-28T16:50:21Z</time></trkpt><trkpt lat="45.63277637171703" lon="10.60182049489055"><ele>68.0</ele><time>2026-03-28T16:50:24Z</time></trkpt><trkpt lat="45.63274974225802" lon="10.601941537933735"><ele>68.0</ele><time>2026-03-28T16:50:27Z</time></trkpt><trkpt lat="45.6327158791189" lon="10.60204744099518"><ele>68.0</ele><time>2026-03-28T16:50:30Z</time></trkpt><trkpt lat="45.632677666343724" lon="10.602169522328403"><ele>68.0</ele><time>2026-03-28T16:50:35Z</time></trkpt><trkpt lat="45.632650443624684" lon="10.602253149032236"><ele>68.0</ele><time>2026-03-28T16:50:36Z</time></trkpt><trkpt lat="45.632618383326076" lon="10.602366095762966"><ele>68.0</ele><time>2026-03-28T16:50:37Z</time></trkpt><trkpt lat="45.632587547120394" lon="10.602483626671072"><ele>68.0</ele><time>2026-03-28T16:50:38Z</time></trkpt><trkpt lat="45.63254975417517" lon="10.60263549200858"><ele>68.0</ele><time>2026-03-28T16:50:39Z</time></trkpt><trkpt lat="45.632494049715895" lon="10.602814062048765"><ele>68.0</ele><time>2026-03-28T16:50:40Z</time></trkpt><trkpt lat="45.63242847302446" lon="10.60300367038047"><ele>68.2</ele><time>2026-03-28T16:50:41Z</time></trkpt><trkpt lat="45.6323694201664" lon="10.603178900585227"><ele>68.4</ele><time>2026-03-28T16:50:42Z</time></trkpt><trkpt lat="45.632320986725496" lon="10.603336029023774"><ele>68.60000000000001</ele><time>2026-03-28T16:50:43Z</time></trkpt><trkpt lat="45.6322833008392" lon="10.603467656471"><ele>68.8</ele><time>2026-03-28T16:50:44Z</time></trkpt><trkpt lat="45.63224432346155" lon="10.603584952126031"><ele>69.0</ele><time>2026-03-28T16:50:45Z</time></trkpt><trkpt lat="45.632205124051296" lon="10.603687212233714"><ele>69.0</ele><time>2026-03-28T16:50:46Z</time></trkpt><trkpt lat="45.63217003089381" lon="10.603798533704207"><ele>69.0</ele><time>2026-03-28T16:50:47Z</time></trkpt><trkpt lat="45.63216459538404" lon="10.60389286531985"><ele>69.0</ele><time>2026-03-28T16:50:48Z</time></trkpt><trkpt lat="45.632246893054266" lon="10.604050130193228"><ele>69.0</ele><time>2026-03-28T16:50:50Z</time></trkpt><trkpt lat="45.632355853456886" lon="10.604118458219208"><ele>69.0</ele><time>2026-03-28T16:50:51Z</time></trkpt><trkpt lat="45.632445070377706" lon="10.604238524497266"><ele>69.0</ele><time>2026-03-28T16:50:52Z</time></trkpt><trkpt lat="45.63253497993962" lon="10.604319494389589"><ele>69.0</ele><time>2026-03-28T16:50:53Z</time></trkpt><trkpt lat="45.6325922242104" lon="10.604393557143343"><ele>69.0</ele><time>2026-03-28T16:50:54Z</time></trkpt><trkpt lat="45.63264558456561" lon="10.604473922363988"><ele>69.0</ele><time>2026-03-28T16:50:55Z</time></trkpt><trkpt lat="45.6327145822561" lon="10.604562631579242"><ele>69.0</ele><time>2026-03-28T16:50:56Z</time></trkpt><trkpt lat="45.63277618489059" lon="10.604646971183838"><ele>69.0</ele><time>2026-03-28T16:50:57Z</time></trkpt><trkpt lat="45.632835309956405" lon="10.604741301214608"><ele>68.83333333333333</ele><time>2026-03-28T16:50:58Z</time></trkpt><trkpt lat="45.632887660605014" lon="10.604824731615583"><ele>68.66666666666667</ele><time>2026-03-28T16:50:59Z</time></trkpt><trkpt lat="45.6329377133421" lon="10.604896528557466"><ele>68.5</ele><time>2026-03-28T16:51:00Z</time></trkpt><trkpt lat="45.63299970012045" lon="10.604993752419517"><ele>68.33333333333334</ele><time>2026-03-28T16:51:01Z</time></trkpt><trkpt lat="45.633068068457824" lon="10.60509457156488"><ele>68.16666666666667</ele><time>2026-03-28T16:51:02Z</time></trkpt><trkpt lat="45.63311651757896" lon="10.605166775052407"><ele>68.0</ele><time>2026-03-28T16:51:03Z</time></trkpt><trkpt lat="45.633205313314996" lon="10.605304249313468"><ele>68.28571428571428</ele><time>2026-03-28T16:51:05Z</time></trkpt><trkpt lat="45.63325146241837" lon="10.605368245653017"><ele>68.57142857142857</ele><time>2026-03-28T16:51:06Z</time></trkpt><trkpt lat="45.63330941541417" lon="10.605437678778713"><ele>68.85714285714286</ele><time>2026-03-28T16:51:07Z</time></trkpt><trkpt lat="45.63335820466687" lon="10.605509406706384"><ele>69.14285714285714</ele><time>2026-03-28T16:51:08Z</time></trkpt><trkpt lat="45.63340735476844" lon="10.605582843143447"><ele>69.42857142857143</ele><time>2026-03-28T16:51:09Z</time></trkpt><trkpt lat="45.633466858793476" lon="10.605661268646633"><ele>69.71428571428571</ele><time>2026-03-28T16:51:10Z</time></trkpt><trkpt lat="45.63352926225892" lon="10.605743487240558"><ele>70.0</ele><time>2026-03-28T16:51:11Z</time></trkpt><trkpt lat="45.63358389543" lon="10.605816813255663"><ele>70.0</ele><time>2026-03-28T16:51:12Z</time></trkpt><trkpt lat="45.63364197952461" lon="10.605891282815705"><ele>70.0</ele><time>2026-03-28T16:51:13Z</time></trkpt><trkpt lat="45.63370634463719" lon="10.605957963346933"><ele>70.0</ele><time>2026-03-28T16:51:14Z</time></trkpt><trkpt lat="45.63376443068326" lon="10.606033351932973"><ele>70.0</ele><time>2026-03-28T16:51:15Z</time></trkpt><trkpt lat="45.63382739417332" lon="10.606095300788919"><ele>70.0</ele><time>2026-03-28T16:51:16Z</time></trkpt><trkpt lat="45.63388562777926" lon="10.606171050831172"><ele>70.0</ele><time>2026-03-28T16:51:17Z</time></trkpt><trkpt lat="45.63395224161761" lon="10.6062465781541"><ele>70.0</ele><time>2026-03-28T16:51:18Z</time></trkpt><trkpt lat="45.63401298991097" lon="10.606324019261143"><ele>70.0</ele><time>2026-03-28T16:51:19Z</time></trkpt><trkpt lat="45.63407537053927" lon="10.606396465363893"><ele>70.0</ele><time>2026-03-28T16:51:20Z</time></trkpt><trkpt lat="45.63413658944854" lon="10.606467119465963"><ele>70.0</ele><time>2026-03-28T16:51:21Z</time></trkpt><trkpt lat="45.63420624388346" lon="10.606528589069821"><ele>70.0</ele><time>2026-03-28T16:51:22Z</time></trkpt><trkpt lat="45.63428849812442" lon="10.606586129448042"><ele>70.0</ele><time>2026-03-28T16:51:23Z</time></trkpt><trkpt lat="45.634360144681345" lon="10.606635658289607"><ele>70.0</ele><time>2026-03-28T16:51:24Z</time></trkpt><trkpt lat="45.634423915555594" lon="10.60668691780579"><ele>70.0</ele><time>2026-03-28T16:51:25Z</time></trkpt><trkpt lat="45.63449842588907" lon="10.606748467573645"><ele>70.0</ele><time>2026-03-28T16:51:26Z</time></trkpt><trkpt lat="45.63456831807437" lon="10.606811189013044"><ele>70.0</ele><time>2026-03-28T16:51:27Z</time></trkpt><trkpt lat="45.634635004787754" lon="10.606893362542905"><ele>70.0</ele><time>2026-03-28T16:51:28Z</time></trkpt><trkpt lat="45.63470163551474" lon="10.60699622417895"><ele>70.0</ele><time>2026-03-28T16:51:29Z</time></trkpt><trkpt lat="45.6347584104474" lon="10.607093166510351"><ele>70.16666666666666</ele><time>2026-03-28T16:51:30Z</time></trkpt><trkpt lat="45.63480793074975" lon="10.607169802575395"><ele>70.33333333333333</ele><time>2026-03-28T16:51:31Z</time></trkpt><trkpt lat="45.634888196197664" lon="10.607290789863212"><ele>70.5</ele><time>2026-03-28T16:51:33Z</time></trkpt><trkpt lat="45.63495070397147" lon="10.607380903772212"><ele>70.66666666666667</ele><time>2026-03-28T16:51:35Z</time></trkpt><trkpt lat="45.63501136324719" lon="10.607482029751631"><ele>70.83333333333334</ele><time>2026-03-28T16:51:37Z</time></trkpt><trkpt lat="45.63505388277716" lon="10.607561761857193"><ele>71.0</ele><time>2026-03-28T16:51:39Z</time></trkpt><trkpt lat="45.63509913423648" lon="10.607637327187652"><ele>71.0</ele><time>2026-03-28T16:51:43Z</time></trkpt><trkpt lat="45.635159458812744" lon="10.607685359738442"><ele>71.0</ele><time>2026-03-28T16:51:47Z</time></trkpt><trkpt lat="45.63526927155327" lon="10.607538965802343"><ele>71.0</ele><time>2026-03-28T16:51:48Z</time></trkpt><trkpt lat="45.635333825629715" lon="10.607433911404136"><ele>71.0</ele><time>2026-03-28T16:51:49Z</time></trkpt><trkpt lat="45.63539816058139" lon="10.607329465870974"><ele>71.0</ele><time>2026-03-28T16:51:50Z</time></trkpt><trkpt lat="45.6354934217255" lon="10.607179192641615"><ele>71.2</ele><time>2026-03-28T16:51:51Z</time></trkpt><trkpt lat="45.63557938923065" lon="10.60705414828647"><ele>71.39999999999999</ele><time>2026-03-28T16:51:52Z</time></trkpt><trkpt lat="45.63564423092542" lon="10.606956689478215"><ele>71.6</ele><time>2026-03-28T16:51:53Z</time></trkpt><trkpt lat="45.63570581127569" lon="10.60686646502846"><ele>71.8</ele><time>2026-03-28T16:51:54Z</time></trkpt><trkpt lat="45.63576278926363" lon="10.606777716112452"><ele>72.0</ele><time>2026-03-28T16:51:55Z</time></trkpt><trkpt lat="45.63584691368243" lon="10.606683291752082"><ele>72.0</ele><time>2026-03-28T16:51:56Z</time></trkpt><trkpt lat="45.635913244443756" lon="10.606584180978457"><ele>72.0</ele><time>2026-03-28T16:51:57Z</time></trkpt><trkpt lat="45.63601539974658" lon="10.606433229412653"><ele>72.0</ele><time>2026-03-28T16:51:58Z</time></trkpt><trkpt lat="45.63610258365225" lon="10.606304863210303"><ele>72.0</ele><time>2026-03-28T16:51:59Z</time></trkpt><trkpt lat="45.63617501717913" lon="10.606197470431162"><ele>72.33333333333333</ele><time>2026-03-28T16:52:00Z</time></trkpt><trkpt lat="45.636239344031445" lon="10.606105397382498"><ele>72.66666666666667</ele><time>2026-03-28T16:52:01Z</time></trkpt><trkpt lat="45.63629864739144" lon="10.606020608822258"><ele>73.0</ele><time>2026-03-28T16:52:02Z</time></trkpt><trkpt lat="45.636354978058435" lon="10.60594007041079"><ele>73.33333333333334</ele><time>2026-03-28T16:52:03Z</time></trkpt><trkpt lat="45.63640459945912" lon="10.605869368770318"><ele>73.66666666666667</ele><time>2026-03-28T16:52:04Z</time></trkpt><trkpt lat="45.63648786124539" lon="10.605750780407956"><ele>74.0</ele><time>2026-03-28T16:52:06Z</time></trkpt><trkpt lat="45.636563784726015" lon="10.605642643847778"><ele>74.0</ele><time>2026-03-28T16:52:08Z</time></trkpt><trkpt lat="45.63662485946111" lon="10.605556427261957"><ele>74.0</ele><time>2026-03-28T16:52:10Z</time></trkpt><trkpt lat="45.63668076936987" lon="10.605477826311924"><ele>74.0</ele><time>2026-03-28T16:52:14Z</time></trkpt><trkpt lat="45.63673300161828" lon="10.605404395619251"><ele>74.0</ele><time>2026-03-28T16:52:17Z</time></trkpt><trkpt lat="45.636789778769675" lon="10.605324906214097"><ele>74.0</ele><time>2026-03-28T16:52:20Z</time></trkpt><trkpt lat="45.63684305280196" lon="10.605212655703173"><ele>74.0</ele><time>2026-03-28T16:52:22Z</time></trkpt><trkpt lat="45.636840869354444" lon="10.605083113749652"><ele>73.8</ele><time>2026-03-28T16:52:24Z</time></trkpt><trkpt lat="45.63676633148989" lon="10.604987148430665"><ele>73.60000000000001</ele><time>2026-03-28T16:52:26Z</time></trkpt><trkpt lat="45.63670346922559" lon="10.604955814367491"><ele>73.4</ele><time>2026-03-28T16:52:28Z</time></trkpt><trkpt lat="45.63666486962803" lon="10.604834136529254"><ele>73.2</ele><time>2026-03-28T16:52:29Z</time></trkpt><trkpt lat="45.636600216656696" lon="10.6047087643281"><ele>73.0</ele><time>2026-03-28T16:52:30Z</time></trkpt><trkpt lat="45.63652860733731" lon="10.604569902749782"><ele>73.4</ele><time>2026-03-28T16:52:31Z</time></trkpt><trkpt lat="45.63646756100252" lon="10.604451326237204"><ele>73.8</ele><time>2026-03-28T16:52:32Z</time></trkpt><trkpt lat="45.63640655692021" lon="10.604332818092297"><ele>74.2</ele><time>2026-03-28T16:52:33Z</time></trkpt><trkpt lat="45.63634799409617" lon="10.604220785738901"><ele>74.6</ele><time>2026-03-28T16:52:34Z</time></trkpt><trkpt lat="45.6362901576345" lon="10.604109929555005"><ele>75.0</ele><time>2026-03-28T16:52:35Z</time></trkpt><trkpt lat="45.63623628487256" lon="10.604006670637906"><ele>75.0</ele><time>2026-03-28T16:52:36Z</time></trkpt><trkpt lat="45.63617651382304" lon="10.603892106391953"><ele>75.0</ele><time>2026-03-28T16:52:37Z</time></trkpt><trkpt lat="45.63612084070267" lon="10.60378539671933"><ele>75.0</ele><time>2026-03-28T16:52:38Z</time></trkpt><trkpt lat="45.636056373685456" lon="10.60369873284341"><ele>75.0</ele><time>2026-03-28T16:52:39Z</time></trkpt><trkpt lat="45.63601982926453" lon="10.603591367836264"><ele>75.0</ele><time>2026-03-28T16:52:40Z</time></trkpt><trkpt lat="45.63596305038896" lon="10.603482197604093"><ele>74.16666666666667</ele><time>2026-03-28T16:52:41Z</time></trkpt><trkpt lat="45.63590536043779" lon="10.603371275511874"><ele>73.33333333333333</ele><time>2026-03-28T16:52:42Z</time></trkpt><trkpt lat="45.63583211711516" lon="10.603295539779088"><ele>72.5</ele><time>2026-03-28T16:52:43Z</time></trkpt><trkpt lat="45.63578344701784" lon="10.60320105388919"><ele>71.66666666666666</ele><time>2026-03-28T16:52:44Z</time></trkpt><trkpt lat="45.635735180530794" lon="10.603104443481637"><ele>70.83333333333333</ele><time>2026-03-28T16:52:45Z</time></trkpt><trkpt lat="45.63568562619879" lon="10.603007347346692"><ele>70.0</ele><time>2026-03-28T16:52:46Z</time></trkpt><trkpt lat="45.635652937432454" lon="10.602885804781286"><ele>70.16666666666666</ele><time>2026-03-28T16:52:47Z</time></trkpt><trkpt lat="45.63560063424837" lon="10.602782586106526"><ele>70.33333333333333</ele><time>2026-03-28T16:52:48Z</time></trkpt><trkpt lat="45.635534741015555" lon="10.602702805279266"><ele>70.5</ele><time>2026-03-28T16:52:49Z</time></trkpt><trkpt lat="45.63548734650994" lon="10.602614555915553"><ele>70.66666666666667</ele><time>2026-03-28T16:52:50Z</time></trkpt><trkpt lat="45.6354322151187" lon="10.602513251712923"><ele>70.83333333333334</ele><time>2026-03-28T16:52:51Z</time></trkpt><trkpt lat="45.635375743563515" lon="10.60240665287466"><ele>71.0</ele><time>2026-03-28T16:52:52Z</time></trkpt><trkpt lat="45.635323475816456" lon="10.60230856641137"><ele>70.6</ele><time>2026-03-28T16:52:53Z</time></trkpt><trkpt lat="45.635274292446695" lon="10.602222610620265"><ele>70.19999999999999</ele><time>2026-03-28T16:52:54Z</time></trkpt><trkpt lat="45.635212936396826" lon="10.602128521312638"><ele>69.80000000000001</ele><time>2026-03-28T16:52:55Z</time></trkpt><trkpt lat="45.63517987609655" lon="10.601972280387688"><ele>69.4</ele><time>2026-03-28T16:52:56Z</time></trkpt><trkpt lat="45.63511251923242" lon="10.601840503083228"><ele>69.0</ele><time>2026-03-28T16:52:57Z</time></trkpt><trkpt lat="45.635046114730166" lon="10.601705232384305"><ele>69.0</ele><time>2026-03-28T16:52:58Z</time></trkpt><trkpt lat="45.634991568048285" lon="10.601573935154446"><ele>69.0</ele><time>2026-03-28T16:52:59Z</time></trkpt><trkpt lat="45.63495088535805" lon="10.601452513401403"><ele>69.0</ele><time>2026-03-28T16:53:00Z</time></trkpt><trkpt lat="45.6349264593989" lon="10.601330881649327"><ele>69.0</ele><time>2026-03-28T16:53:01Z</time></trkpt><trkpt lat="45.6349105969589" lon="10.601198497595279"><ele>69.0</ele><time>2026-03-28T16:53:02Z</time></trkpt><trkpt lat="45.63490219799614" lon="10.601061324304567"><ele>69.16666666666667</ele><time>2026-03-28T16:53:03Z</time></trkpt><trkpt lat="45.634912533280065" lon="10.600928736062823"><ele>69.33333333333333</ele><time>2026-03-28T16:53:04Z</time></trkpt><trkpt lat="45.63493210892817" lon="10.600807755964778"><ele>69.5</ele><time>2026-03-28T16:53:05Z</time></trkpt><trkpt lat="45.63495622984072" lon="10.600702124609722"><ele>69.66666666666666</ele><time>2026-03-28T16:53:06Z</time></trkpt><trkpt lat="45.63498064449485" lon="10.600611424557032"><ele>69.83333333333333</ele><time>2026-03-28T16:53:07Z</time></trkpt><trkpt lat="45.63500717784314" lon="10.600529577289796"><ele>70.0</ele><time>2026-03-28T16:53:08Z</time></trkpt><trkpt lat="45.63504194973793" lon="10.600428745620839"><ele>70.42857142857143</ele><time>2026-03-28T16:53:09Z</time></trkpt><trkpt lat="45.63507524334176" lon="10.600332801425125"><ele>70.85714285714286</ele><time>2026-03-28T16:53:10Z</time></trkpt><trkpt lat="45.635108508568585" lon="10.600236938960183"><ele>71.28571428571428</ele><time>2026-03-28T16:53:11Z</time></trkpt><trkpt lat="45.63514040267929" lon="10.600145027633388"><ele>71.71428571428572</ele><time>2026-03-28T16:53:12Z</time></trkpt><trkpt lat="45.63517153928184" lon="10.600057117468982"><ele>72.14285714285714</ele><time>2026-03-28T16:53:13Z</time></trkpt><trkpt lat="45.635189818916906" lon="10.599959805574958"><ele>72.57142857142857</ele><time>2026-03-28T16:53:14Z</time></trkpt><trkpt lat="45.63524077272169" lon="10.599879145769753"><ele>73.0</ele><time>2026-03-28T16:53:15Z</time></trkpt><trkpt lat="45.63530046671217" lon="10.599749302422385"><ele>72.83333333333333</ele><time>2026-03-28T16:53:17Z</time></trkpt><trkpt lat="45.63535688156794" lon="10.59960164671305"><ele>72.66666666666666</ele><time>2026-03-28T16:53:19Z</time></trkpt><trkpt lat="45.635400717671104" lon="10.59952780262136"><ele>72.5</ele><time>2026-03-28T16:53:20Z</time></trkpt><trkpt lat="45.63545168925474" lon="10.59944052547906"><ele>72.33333333333333</ele><time>2026-03-28T16:53:21Z</time></trkpt><trkpt lat="45.635503156597316" lon="10.599358705652293"><ele>72.16666666666667</ele><time>2026-03-28T16:53:22Z</time></trkpt><trkpt lat="45.635549042893096" lon="10.599287768515104"><ele>72.0</ele><time>2026-03-28T16:53:23Z</time></trkpt><trkpt lat="45.635618472368485" lon="10.599127589753527"><ele>72.0</ele><time>2026-03-28T16:53:25Z</time></trkpt><trkpt lat="45.63565394986865" lon="10.599026611852892"><ele>72.0</ele><time>2026-03-28T16:53:26Z</time></trkpt><trkpt lat="45.63568345061988" lon="10.598912756338782"><ele>72.0</ele><time>2026-03-28T16:53:27Z</time></trkpt><trkpt lat="45.63571013243125" lon="10.598793256197428"><ele>72.0</ele><time>2026-03-28T16:53:28Z</time></trkpt><trkpt lat="45.635722601523895" lon="10.598669305234944"><ele>72.0</ele><time>2026-03-28T16:53:29Z</time></trkpt><trkpt lat="45.635728973375876" lon="10.598543404313402"><ele>72.0</ele><time>2026-03-28T16:53:30Z</time></trkpt><trkpt lat="45.635727623008506" lon="10.59842057646286"><ele>72.4</ele><time>2026-03-28T16:53:31Z</time></trkpt><trkpt lat="45.635722770286854" lon="10.598275581193917"><ele>72.80000000000001</ele><time>2026-03-28T16:53:32Z</time></trkpt><trkpt lat="45.635719962794745" lon="10.598123503099316"><ele>73.2</ele><time>2026-03-28T16:53:33Z</time></trkpt><trkpt lat="45.63571426139312" lon="10.597962331695745"><ele>73.60000000000001</ele><time>2026-03-28T16:53:34Z</time></trkpt><trkpt lat="45.63570364844512" lon="10.597786663295203"><ele>74.0</ele><time>2026-03-28T16:53:35Z</time></trkpt><trkpt lat="45.63567890138959" lon="10.597623946133057"><ele>75.25</ele><time>2026-03-28T16:53:36Z</time></trkpt><trkpt lat="45.63564942468393" lon="10.597471227889626"><ele>76.5</ele><time>2026-03-28T16:53:37Z</time></trkpt><trkpt lat="45.635611948421925" lon="10.59732188570354"><ele>77.75</ele><time>2026-03-28T16:53:38Z</time></trkpt><trkpt lat="45.63556814596092" lon="10.597168250285923"><ele>79.0</ele><time>2026-03-28T16:53:39Z</time></trkpt><trkpt lat="45.635513708585705" lon="10.597024801256062"><ele>77.60000000000001</ele><time>2026-03-28T16:53:40Z</time></trkpt><trkpt lat="45.63546939760616" lon="10.596897776879713"><ele>76.2</ele><time>2026-03-28T16:53:41Z</time></trkpt><trkpt lat="45.6354159319751" lon="10.596785749736014"><ele>74.80000000000001</ele><time>2026-03-28T16:53:42Z</time></trkpt><trkpt lat="45.63535850612913" lon="10.596662180308597"><ele>73.4</ele><time>2026-03-28T16:53:43Z</time></trkpt><trkpt lat="45.63529128561572" lon="10.596532989170065"><ele>72.0</ele><time>2026-03-28T16:53:44Z</time></trkpt><trkpt lat="45.63521372495169" lon="10.596393403018281"><ele>72.0</ele><time>2026-03-28T16:53:45Z</time></trkpt><trkpt lat="45.635151962967086" lon="10.59626250434413"><ele>72.0</ele><time>2026-03-28T16:53:46Z</time></trkpt><trkpt lat="45.635100938365234" lon="10.596138280504334"><ele>72.0</ele><time>2026-03-28T16:53:47Z</time></trkpt><trkpt lat="45.63504676889852" lon="10.596012595336855"><ele>72.0</ele><time>2026-03-28T16:53:48Z</time></trkpt><trkpt lat="45.63499574037769" lon="10.595891904796057"><ele>72.0</ele><time>2026-03-28T16:53:49Z</time></trkpt><trkpt lat="45.63495206302874" lon="10.595781687862905"><ele>73.2</ele><time>2026-03-28T16:53:50Z</time></trkpt><trkpt lat="45.634911866685165" lon="10.595674492855215"><ele>74.4</ele><time>2026-03-28T16:53:51Z</time></trkpt><trkpt lat="45.634867598126014" lon="10.595544929477898"><ele>75.6</ele><time>2026-03-28T16:53:52Z</time></trkpt><trkpt lat="45.63481453932174" lon="10.595406631429256"><ele>76.8</ele><time>2026-03-28T16:53:53Z</time></trkpt><trkpt lat="45.634761863580295" lon="10.595265142950689"><ele>78.0</ele><time>2026-03-28T16:53:54Z</time></trkpt><trkpt lat="45.634711602235235" lon="10.59514318815354"><ele>76.0</ele><time>2026-03-28T16:53:55Z</time></trkpt><trkpt lat="45.6346540430551" lon="10.595024069069106"><ele>74.0</ele><time>2026-03-28T16:53:56Z</time></trkpt><trkpt lat="45.63459430978737" lon="10.594892022526688"><ele>72.0</ele><time>2026-03-28T16:53:57Z</time></trkpt><trkpt lat="45.634529348502035" lon="10.594758049017887"><ele>70.0</ele><time>2026-03-28T16:53:58Z</time></trkpt><trkpt lat="45.63447108051487" lon="10.59463525788408"><ele>68.0</ele><time>2026-03-28T16:53:59Z</time></trkpt><trkpt lat="45.63441106893233" lon="10.594512825864621"><ele>71.0</ele><time>2026-03-28T16:54:00Z</time></trkpt><trkpt lat="45.63433761570525" lon="10.594374053500097"><ele>74.0</ele><time>2026-03-28T16:54:01Z</time></trkpt><trkpt lat="45.6342337463463" lon="10.594190336699988"><ele>77.0</ele><time>2026-03-28T16:54:02Z</time></trkpt><trkpt lat="45.634142673829174" lon="10.593962456457378"><ele>77.0</ele><time>2026-03-28T16:54:03Z</time></trkpt><trkpt lat="45.633992785773266" lon="10.593731602613545"><ele>77.0</ele><time>2026-03-28T16:54:04Z</time></trkpt><trkpt lat="45.63386905091234" lon="10.593488799959161"><ele>77.0</ele><time>2026-03-28T16:54:05Z</time></trkpt><trkpt lat="45.63375816432893" lon="10.593271603563084"><ele>76.5</ele><time>2026-03-28T16:54:06Z</time></trkpt><trkpt lat="45.63366290070044" lon="10.593089965213242"><ele>76.0</ele><time>2026-03-28T16:54:07Z</time></trkpt><trkpt lat="45.6335946720028" lon="10.592916111242129"><ele>75.5</ele><time>2026-03-28T16:54:08Z</time></trkpt><trkpt lat="45.6335111367476" lon="10.5927559189785"><ele>75.0</ele><time>2026-03-28T16:54:09Z</time></trkpt><trkpt lat="45.63342003616189" lon="10.592611992981457"><ele>75.0</ele><time>2026-03-28T16:54:10Z</time></trkpt><trkpt lat="45.63333632360849" lon="10.59244588794929"><ele>75.0</ele><time>2026-03-28T16:54:11Z</time></trkpt><trkpt lat="45.633240918431405" lon="10.592278882222068"><ele>75.0</ele><time>2026-03-28T16:54:12Z</time></trkpt><trkpt lat="45.63314743102725" lon="10.592131071213402"><ele>75.0</ele><time>2026-03-28T16:54:13Z</time></trkpt><trkpt lat="45.63304701322369" lon="10.592007275415988"><ele>74.5</ele><time>2026-03-28T16:54:14Z</time></trkpt><trkpt lat="45.632939724221146" lon="10.591892972709687"><ele>74.0</ele><time>2026-03-28T16:54:15Z</time></trkpt><trkpt lat="45.63282478173387" lon="10.591785373337062"><ele>73.5</ele><time>2026-03-28T16:54:16Z</time></trkpt><trkpt lat="45.63271511876877" lon="10.591676083522067"><ele>73.0</ele><time>2026-03-28T16:54:17Z</time></trkpt><trkpt lat="45.632623222436735" lon="10.59156604067705"><ele>73.0</ele><time>2026-03-28T16:54:18Z</time></trkpt><trkpt lat="45.632537904348276" lon="10.59143684662643"><ele>73.0</ele><time>2026-03-28T16:54:19Z</time></trkpt><trkpt lat="45.632464141624" lon="10.591260991192836"><ele>73.0</ele><time>2026-03-28T16:54:20Z</time></trkpt><trkpt lat="45.63237289595335" lon="10.591099227133842"><ele>73.0</ele><time>2026-03-28T16:54:21Z</time></trkpt><trkpt lat="45.63230329801527" lon="10.590924782350989"><ele>77.5</ele><time>2026-03-28T16:54:22Z</time></trkpt><trkpt lat="45.63223262558463" lon="10.590750721206335"><ele>82.0</ele><time>2026-03-28T16:54:23Z</time></trkpt><trkpt lat="45.632162694365945" lon="10.590582975950408"><ele>86.5</ele><time>2026-03-28T16:54:24Z</time></trkpt><trkpt lat="45.63208962214892" lon="10.590408895999182"><ele>91.0</ele><time>2026-03-28T16:54:25Z</time></trkpt><trkpt lat="45.631998895837555" lon="10.590221661303435"><ele>87.25</ele><time>2026-03-28T16:54:26Z</time></trkpt><trkpt lat="45.6319144394731" lon="10.590057900291388"><ele>83.5</ele><time>2026-03-28T16:54:27Z</time></trkpt><trkpt lat="45.63182946413725" lon="10.589897427423882"><ele>79.75</ele><time>2026-03-28T16:54:28Z</time></trkpt><trkpt lat="45.63175029453024" lon="10.589757055711903"><ele>76.0</ele><time>2026-03-28T16:54:29Z</time></trkpt><trkpt lat="45.63168067140244" lon="10.58961967532541"><ele>78.5</ele><time>2026-03-28T16:54:30Z</time></trkpt><trkpt lat="45.631609665406515" lon="10.58949327786131"><ele>81.0</ele><time>2026-03-28T16:54:31Z</time></trkpt><trkpt lat="45.63153009010571" lon="10.589361147630658"><ele>83.5</ele><time>2026-03-28T16:54:32Z</time></trkpt><trkpt lat="45.631452242640776" lon="10.58923047684222"><ele>86.0</ele><time>2026-03-28T16:54:33Z</time></trkpt><trkpt lat="45.631371452074035" lon="10.589096997423946"><ele>86.0</ele><time>2026-03-28T16:54:34Z</time></trkpt><trkpt lat="45.631277328794106" lon="10.58891094689616"><ele>86.0</ele><time>2026-03-28T16:54:35Z</time></trkpt><trkpt lat="45.631131153177975" lon="10.588686155493038"><ele>86.0</ele><time>2026-03-28T16:54:36Z</time></trkpt><trkpt lat="45.63095749926415" lon="10.588456683805886"><ele>81.0</ele><time>2026-03-28T16:54:37Z</time></trkpt><trkpt lat="45.63078991244421" lon="10.588205522577859"><ele>76.0</ele><time>2026-03-28T16:54:38Z</time></trkpt><trkpt lat="45.63063253443396" lon="10.587979438794811"><ele>77.33333333333333</ele><time>2026-03-28T16:54:39Z</time></trkpt><trkpt lat="45.630488781340944" lon="10.587767776362465"><ele>78.66666666666667</ele><time>2026-03-28T16:54:40Z</time></trkpt><trkpt lat="45.63036537760123" lon="10.587578465933545"><ele>80.0</ele><time>2026-03-28T16:54:41Z</time></trkpt><trkpt lat="45.63025630800238" lon="10.587420554404734"><ele>80.0</ele><time>2026-03-28T16:54:42Z</time></trkpt><trkpt lat="45.6301644102941" lon="10.587290061892348"><ele>80.0</ele><time>2026-03-28T16:54:43Z</time></trkpt><trkpt lat="45.63006268972742" lon="10.58715883871006"><ele>80.0</ele><time>2026-03-28T16:54:44Z</time></trkpt><trkpt lat="45.629965320765514" lon="10.587041244030305"><ele>80.0</ele><time>2026-03-28T16:54:45Z</time></trkpt><trkpt lat="45.62987353157985" lon="10.586938366784352"><ele>79.25</ele><time>2026-03-28T16:54:46Z</time></trkpt><trkpt lat="45.629779588357586" lon="10.586839929272523"><ele>78.5</ele><time>2026-03-28T16:54:47Z</time></trkpt><trkpt lat="45.629668493183324" lon="10.586743555457188"><ele>77.75</ele><time>2026-03-28T16:54:48Z</time></trkpt><trkpt lat="45.62954227580222" lon="10.586672233466714"><ele>77.0</ele><time>2026-03-28T16:54:49Z</time></trkpt><trkpt lat="45.6294224539328" lon="10.586629791521464"><ele>77.0</ele><time>2026-03-28T16:54:50Z</time></trkpt><trkpt lat="45.629295938860245" lon="10.586598498701838"><ele>77.0</ele><time>2026-03-28T16:54:51Z</time></trkpt><trkpt lat="45.62915599110148" lon="10.58658170219741"><ele>77.0</ele><time>2026-03-28T16:54:52Z</time></trkpt><trkpt lat="45.62902812974259" lon="10.586575277108984"><ele>77.0</ele><time>2026-03-28T16:54:53Z</time></trkpt><trkpt lat="45.62889741183644" lon="10.586580686620458"><ele>77.0</ele><time>2026-03-28T16:54:54Z</time></trkpt><trkpt lat="45.62874675946097" lon="10.58659700257975"><ele>77.0</ele><time>2026-03-28T16:54:55Z</time></trkpt><trkpt lat="45.628557165469424" lon="10.58661022403674"><ele>77.0</ele><time>2026-03-28T16:54:56Z</time></trkpt><trkpt lat="45.628335715786214" lon="10.586610521196315"><ele>76.33333333333334</ele><time>2026-03-28T16:54:57Z</time></trkpt><trkpt lat="45.62814074142337" lon="10.58661060119649"><ele>75.66666666666667</ele><time>2026-03-28T16:54:58Z</time></trkpt><trkpt lat="45.62798057431946" lon="10.586610959797609"><ele>75.0</ele><time>2026-03-28T16:54:59Z</time></trkpt><trkpt lat="45.627829357972" lon="10.5866018531809"><ele>75.33333333333333</ele><time>2026-03-28T16:55:00Z</time></trkpt><trkpt lat="45.62767965869069" lon="10.5865527255386"><ele>75.66666666666666</ele><time>2026-03-28T16:55:01Z</time></trkpt><trkpt lat="45.62754991627021" lon="10.586430704967446"><ele>76.0</ele><time>2026-03-28T16:55:02Z</time></trkpt><trkpt lat="45.62740968924539" lon="10.586299293470713"><ele>76.0</ele><time>2026-03-28T16:55:03Z</time></trkpt><trkpt lat="45.627284219817156" lon="10.586182366727925"><ele>76.0</ele><time>2026-03-28T16:55:04Z</time></trkpt><trkpt lat="45.62716849635021" lon="10.586096663071354"><ele>76.0</ele><time>2026-03-28T16:55:05Z</time></trkpt><trkpt lat="45.62706749912841" lon="10.585998373903049"><ele>76.0</ele><time>2026-03-28T16:55:06Z</time></trkpt><trkpt lat="45.626963529374336" lon="10.58590113308305"><ele>76.5</ele><time>2026-03-28T16:55:07Z</time></trkpt><trkpt lat="45.62684551724098" lon="10.585797042296067"><ele>77.0</ele><time>2026-03-28T16:55:08Z</time></trkpt><trkpt lat="45.6267261533397" lon="10.585679794215691"><ele>77.5</ele><time>2026-03-28T16:55:09Z</time></trkpt><trkpt lat="45.62661203260282" lon="10.585575583619352"><ele>78.0</ele><time>2026-03-28T16:55:10Z</time></trkpt><trkpt lat="45.62650921797172" lon="10.585474709668526"><ele>78.0</ele><time>2026-03-28T16:55:11Z</time></trkpt><trkpt lat="45.62640850689168" lon="10.585364625332492"><ele>78.0</ele><time>2026-03-28T16:55:12Z</time></trkpt><trkpt lat="45.62633859764231" lon="10.585210081981524"><ele>78.0</ele><time>2026-03-28T16:55:13Z</time></trkpt><trkpt lat="45.62626739634311" lon="10.585071553709188"><ele>78.0</ele><time>2026-03-28T16:55:14Z</time></trkpt><trkpt lat="45.62619267734726" lon="10.5849460226584"><ele>77.0</ele><time>2026-03-28T16:55:15Z</time></trkpt><trkpt lat="45.62612771427671" lon="10.584809006959656"><ele>76.0</ele><time>2026-03-28T16:55:16Z</time></trkpt><trkpt lat="45.626075424439506" lon="10.584659128511328"><ele>75.0</ele><time>2026-03-28T16:55:17Z</time></trkpt><trkpt lat="45.62603477871503" lon="10.584490089329018"><ele>74.0</ele><time>2026-03-28T16:55:18Z</time></trkpt><trkpt lat="45.626031330358344" lon="10.584298550848619"><ele>74.0</ele><time>2026-03-28T16:55:19Z</time></trkpt><trkpt lat="45.62603367173835" lon="10.584120644932245"><ele>74.0</ele><time>2026-03-28T16:55:20Z</time></trkpt><trkpt lat="45.626053374951375" lon="10.583959774099975"><ele>74.0</ele><time>2026-03-28T16:55:21Z</time></trkpt><trkpt lat="45.62606066363421" lon="10.583808830249753"><ele>74.0</ele><time>2026-03-28T16:55:22Z</time></trkpt><trkpt lat="45.62607909808747" lon="10.583672097113904"><ele>74.0</ele><time>2026-03-28T16:55:23Z</time></trkpt><trkpt lat="45.62610003768418" lon="10.583549037733725"><ele>73.66666666666667</ele><time>2026-03-28T16:55:24Z</time></trkpt><trkpt lat="45.62611277702799" lon="10.583431339352558"><ele>73.33333333333334</ele><time>2026-03-28T16:55:25Z</time></trkpt><trkpt lat="45.626127328536086" lon="10.58331908793814"><ele>73.0</ele><time>2026-03-28T16:55:26Z</time></trkpt><trkpt lat="45.62614897474575" lon="10.583200760915036"><ele>72.66666666666667</ele><time>2026-03-28T16:55:27Z</time></trkpt><trkpt lat="45.62616386747551" lon="10.583083266820877"><ele>72.33333333333333</ele><time>2026-03-28T16:55:28Z</time></trkpt><trkpt lat="45.62617588937644" lon="10.582958644735903"><ele>72.0</ele><time>2026-03-28T16:55:29Z</time></trkpt><trkpt lat="45.62618780539355" lon="10.582831660255394"><ele>74.16666666666667</ele><time>2026-03-28T16:55:30Z</time></trkpt><trkpt lat="45.62619591586699" lon="10.582700225855596"><ele>76.33333333333333</ele><time>2026-03-28T16:55:31Z</time></trkpt><trkpt lat="45.62620049119254" lon="10.582569072350058"><ele>78.5</ele><time>2026-03-28T16:55:32Z</time></trkpt><trkpt lat="45.62619997960475" lon="10.582444965060837"><ele>80.66666666666666</ele><time>2026-03-28T16:55:33Z</time></trkpt><trkpt lat="45.62619772866339" lon="10.582331207843067"><ele>82.83333333333333</ele><time>2026-03-28T16:55:34Z</time></trkpt><trkpt lat="45.62619431535085" lon="10.582220373735261"><ele>85.0</ele><time>2026-03-28T16:55:35Z</time></trkpt><trkpt lat="45.62619274695475" lon="10.582109883050027"><ele>84.8</ele><time>2026-03-28T16:55:36Z</time></trkpt><trkpt lat="45.626189252687624" lon="10.581996599628091"><ele>84.6</ele><time>2026-03-28T16:55:37Z</time></trkpt><trkpt lat="45.62617621303357" lon="10.581856238630037"><ele>84.4</ele><time>2026-03-28T16:55:38Z</time></trkpt><trkpt lat="45.62618090914261" lon="10.581701183489582"><ele>84.2</ele><time>2026-03-28T16:55:39Z</time></trkpt><trkpt lat="45.62619680749424" lon="10.581543213223714"><ele>84.0</ele><time>2026-03-28T16:55:40Z</time></trkpt><trkpt lat="45.62619411006719" lon="10.58135868154806"><ele>84.2</ele><time>2026-03-28T16:55:41Z</time></trkpt><trkpt lat="45.62619084202606" lon="10.581134177016178"><ele>84.4</ele><time>2026-03-28T16:55:42Z</time></trkpt><trkpt lat="45.6261754228298" lon="10.580956820162617"><ele>84.6</ele><time>2026-03-28T16:55:43Z</time></trkpt><trkpt lat="45.626180184754695" lon="10.580827895376359"><ele>84.8</ele><time>2026-03-28T16:55:44Z</time></trkpt><trkpt lat="45.62618230627331" lon="10.580728817997516"><ele>85.0</ele><time>2026-03-28T16:55:45Z</time></trkpt><trkpt lat="45.62617888121823" lon="10.580578848364224"><ele>85.0</ele><time>2026-03-28T16:55:47Z</time></trkpt><trkpt lat="45.62617695432151" lon="10.580426891858156"><ele>85.0</ele><time>2026-03-28T16:55:49Z</time></trkpt><trkpt lat="45.626181758266" lon="10.580333130475957"><ele>85.0</ele><time>2026-03-28T16:55:51Z</time></trkpt><trkpt lat="45.62618088570231" lon="10.580237092757587"><ele>85.0</ele><time>2026-03-28T16:55:54Z</time></trkpt><trkpt lat="45.6261774561491" lon="10.580127929067078"><ele>85.0</ele><time>2026-03-28T16:55:57Z</time></trkpt><trkpt lat="45.62617938393901" lon="10.580034940436116"><ele>85.0</ele><time>2026-03-28T16:55:59Z</time></trkpt><trkpt lat="45.62617861607221" lon="10.57989348720255"><ele>85.5</ele><time>2026-03-28T16:56:01Z</time></trkpt><trkpt lat="45.62617452551731" lon="10.579784347725967"><ele>86.0</ele><time>2026-03-28T16:56:02Z</time></trkpt><trkpt lat="45.62617384343946" lon="10.579669348126407"><ele>86.5</ele><time>2026-03-28T16:56:03Z</time></trkpt><trkpt lat="45.62617058653276" lon="10.579545333737386"><ele>87.0</ele><time>2026-03-28T16:56:04Z</time></trkpt><trkpt lat="45.62617170684175" lon="10.579440389073913"><ele>87.5</ele><time>2026-03-28T16:56:05Z</time></trkpt><trkpt lat="45.62616934219742" lon="10.579327450240337"><ele>88.0</ele><time>2026-03-28T16:56:06Z</time></trkpt><trkpt lat="45.626158889849066" lon="10.579174026331772"><ele>88.0</ele><time>2026-03-28T16:56:07Z</time></trkpt><trkpt lat="45.62614626599882" lon="10.579019342362852"><ele>88.0</ele><time>2026-03-28T16:56:08Z</time></trkpt><trkpt lat="45.62612906545191" lon="10.578867342064198"><ele>88.0</ele><time>2026-03-28T16:56:09Z</time></trkpt><trkpt lat="45.62611333548035" lon="10.578714470494164"><ele>88.0</ele><time>2026-03-28T16:56:10Z</time></trkpt><trkpt lat="45.62609175668061" lon="10.578560757930218"><ele>88.0</ele><time>2026-03-28T16:56:11Z</time></trkpt><trkpt lat="45.62607550540097" lon="10.578408448771453"><ele>86.0</ele><time>2026-03-28T16:56:12Z</time></trkpt><trkpt lat="45.62605954240156" lon="10.578273064614779"><ele>84.0</ele><time>2026-03-28T16:56:13Z</time></trkpt><trkpt lat="45.626045649953774" lon="10.57816127490133"><ele>82.0</ele><time>2026-03-28T16:56:14Z</time></trkpt><trkpt lat="45.626040927150505" lon="10.578068722744739"><ele>80.0</ele><time>2026-03-28T16:56:15Z</time></trkpt><trkpt lat="45.626017853977835" lon="10.577920085969325"><ele>78.0</ele><time>2026-03-28T16:56:17Z</time></trkpt><trkpt lat="45.62600094789144" lon="10.57776432569504"><ele>78.0</ele><time>2026-03-28T16:56:19Z</time></trkpt><trkpt lat="45.6259943523504" lon="10.577673875675114"><ele>78.0</ele><time>2026-03-28T16:56:20Z</time></trkpt><trkpt lat="45.6259779406584" lon="10.577569180698287"><ele>78.0</ele><time>2026-03-28T16:56:21Z</time></trkpt><trkpt lat="45.62596500087642" lon="10.577464735916543"><ele>78.0</ele><time>2026-03-28T16:56:22Z</time></trkpt><trkpt lat="45.625951142575566" lon="10.577352478079797"><ele>78.0</ele><time>2026-03-28T16:56:23Z</time></trkpt><trkpt lat="45.62592913254968" lon="10.577234470628127"><ele>78.0</ele><time>2026-03-28T16:56:24Z</time></trkpt><trkpt lat="45.62591151874854" lon="10.57711680508176"><ele>78.5</ele><time>2026-03-28T16:56:25Z</time></trkpt><trkpt lat="45.625895231967625" lon="10.576996673576543"><ele>79.0</ele><time>2026-03-28T16:56:26Z</time></trkpt><trkpt lat="45.62586318699017" lon="10.576883313033848"><ele>79.5</ele><time>2026-03-28T16:56:27Z</time></trkpt><trkpt lat="45.62583500662786" lon="10.576779059146428"><ele>80.0</ele><time>2026-03-28T16:56:28Z</time></trkpt><trkpt lat="45.625813843754834" lon="10.576685076899855"><ele>80.5</ele><time>2026-03-28T16:56:29Z</time></trkpt><trkpt lat="45.625787471914954" lon="10.576576892261011"><ele>81.0</ele><time>2026-03-28T16:56:30Z</time></trkpt><trkpt lat="45.625753298658374" lon="10.576445646130226"><ele>81.0</ele><time>2026-03-28T16:56:31Z</time></trkpt><trkpt lat="45.62571431333915" lon="10.57628934579915"><ele>81.0</ele><time>2026-03-28T16:56:32Z</time></trkpt><trkpt lat="45.62568420093585" lon="10.576108993919682"><ele>81.0</ele><time>2026-03-28T16:56:33Z</time></trkpt><trkpt lat="45.62562818499276" lon="10.5759581914933"><ele>81.0</ele><time>2026-03-28T16:56:34Z</time></trkpt><trkpt lat="45.625600936047135" lon="10.575823391182595"><ele>82.0</ele><time>2026-03-28T16:56:35Z</time></trkpt><trkpt lat="45.625574340412854" lon="10.57569811437132"><ele>83.0</ele><time>2026-03-28T16:56:36Z</time></trkpt><trkpt lat="45.62554679481414" lon="10.575587442245501"><ele>84.0</ele><time>2026-03-28T16:56:37Z</time></trkpt><trkpt lat="45.62551737607422" lon="10.575489620185538"><ele>85.0</ele><time>2026-03-28T16:56:38Z</time></trkpt><trkpt lat="45.62548338148749" lon="10.575390129991533"><ele>86.0</ele><time>2026-03-28T16:56:39Z</time></trkpt><trkpt lat="45.62545085572652" lon="10.575300913672564"><ele>87.0</ele><time>2026-03-28T16:56:40Z</time></trkpt><trkpt lat="45.625406396541315" lon="10.575161415399851"><ele>89.16666666666667</ele><time>2026-03-28T16:56:42Z</time></trkpt><trkpt lat="45.625358100893294" lon="10.575021610974296"><ele>91.33333333333334</ele><time>2026-03-28T16:56:44Z</time></trkpt><trkpt lat="45.6253225071511" lon="10.574930888437974"><ele>93.5</ele><time>2026-03-28T16:56:45Z</time></trkpt><trkpt lat="45.62528195657669" lon="10.57483338691956"><ele>95.66666666666667</ele><time>2026-03-28T16:56:46Z</time></trkpt><trkpt lat="45.625238180435055" lon="10.57473943712987"><ele>97.83333333333334</ele><time>2026-03-28T16:56:47Z</time></trkpt><trkpt lat="45.62518730636663" lon="10.574644951332438"><ele>100.0</ele><time>2026-03-28T16:56:48Z</time></trkpt><trkpt lat="45.62514094213114" lon="10.57455216838104"><ele>97.00000000000001</ele><time>2026-03-28T16:56:49Z</time></trkpt><trkpt lat="45.62509181154789" lon="10.574471902493299"><ele>94.0</ele><time>2026-03-28T16:56:50Z</time></trkpt><trkpt lat="45.62504195980436" lon="10.574398082065038"><ele>91.0</ele><time>2026-03-28T16:56:51Z</time></trkpt><trkpt lat="45.62495695741345" lon="10.574265538904575"><ele>88.0</ele><time>2026-03-28T16:56:53Z</time></trkpt><trkpt lat="45.624898184274684" lon="10.574194236554188"><ele>85.0</ele><time>2026-03-28T16:56:54Z</time></trkpt><trkpt lat="45.62483386303544" lon="10.574109410792675"><ele>82.0</ele><time>2026-03-28T16:56:55Z</time></trkpt><trkpt lat="45.62476951530961" lon="10.57403527413252"><ele>82.0</ele><time>2026-03-28T16:56:56Z</time></trkpt><trkpt lat="45.62471160867751" lon="10.573962613004213"><ele>82.0</ele><time>2026-03-28T16:56:57Z</time></trkpt><trkpt lat="45.62464754912209" lon="10.573891694046957"><ele>82.0</ele><time>2026-03-28T16:56:58Z</time></trkpt><trkpt lat="45.62457730375506" lon="10.573796763974391"><ele>82.0</ele><time>2026-03-28T16:57:00Z</time></trkpt><trkpt lat="45.62447361378567" lon="10.573683973848883"><ele>82.0</ele><time>2026-03-28T16:57:02Z</time></trkpt><trkpt lat="45.62440685170717" lon="10.573585915936755"><ele>81.16666666666666</ele><time>2026-03-28T16:57:04Z</time></trkpt><trkpt lat="45.624361689031005" lon="10.573515704550426"><ele>80.33333333333333</ele><time>2026-03-28T16:57:06Z</time></trkpt><trkpt lat="45.62431175071013" lon="10.573423374776162"><ele>79.5</ele><time>2026-03-28T16:57:09Z</time></trkpt><trkpt lat="45.62425787822961" lon="10.5733270312686"><ele>78.66666666666667</ele><time>2026-03-28T16:57:12Z</time></trkpt><trkpt lat="45.62421158556536" lon="10.573236117489401"><ele>77.83333333333334</ele><time>2026-03-28T16:57:14Z</time></trkpt><trkpt lat="45.624174900620474" lon="10.573152706892541"><ele>77.0</ele><time>2026-03-28T16:57:16Z</time></trkpt><trkpt lat="45.62413217994429" lon="10.573058198079728"><ele>77.0</ele><time>2026-03-28T16:57:19Z</time></trkpt><trkpt lat="45.62409373560673" lon="10.572965619532392"><ele>77.0</ele><time>2026-03-28T16:57:22Z</time></trkpt><trkpt lat="45.62408359088735" lon="10.572849985729643"><ele>77.0</ele><time>2026-03-28T16:57:25Z</time></trkpt><trkpt lat="45.62403747446788" lon="10.572705867056667"><ele>77.0</ele><time>2026-03-28T16:57:27Z</time></trkpt><trkpt lat="45.623974456226506" lon="10.572619757782014"><ele>77.0</ele><time>2026-03-28T16:57:28Z</time></trkpt><trkpt lat="45.623938580208815" lon="10.572505233008597"><ele>77.0</ele><time>2026-03-28T16:57:29Z</time></trkpt><trkpt lat="45.62390206191947" lon="10.572387471521639"><ele>78.0</ele><time>2026-03-28T16:57:30Z</time></trkpt><trkpt lat="45.62386772618862" lon="10.57227966682179"><ele>79.0</ele><time>2026-03-28T16:57:31Z</time></trkpt><trkpt lat="45.62386556184526" lon="10.572152778524387"><ele>80.0</ele><time>2026-03-28T16:57:32Z</time></trkpt><trkpt lat="45.62383532071611" lon="10.572060933024467"><ele>81.0</ele><time>2026-03-28T16:57:33Z</time></trkpt><trkpt lat="45.62378864076576" lon="10.57191916169264"><ele>82.0</ele><time>2026-03-28T16:57:35Z</time></trkpt><trkpt lat="45.62373846577004" lon="10.571779361134464"><ele>81.8</ele><time>2026-03-28T16:57:37Z</time></trkpt><trkpt lat="45.62368030431912" lon="10.571638695367977"><ele>81.6</ele><time>2026-03-28T16:57:39Z</time></trkpt><trkpt lat="45.6236088344158" lon="10.571489548212565"><ele>81.39999999999999</ele><time>2026-03-28T16:57:41Z</time></trkpt><trkpt lat="45.62356059332745" lon="10.571403583504278"><ele>81.19999999999999</ele><time>2026-03-28T16:57:42Z</time></trkpt><trkpt lat="45.62350057812513" lon="10.571301811905256"><ele>81.0</ele><time>2026-03-28T16:57:43Z</time></trkpt><trkpt lat="45.62342421297328" lon="10.571184960045876"><ele>81.0</ele><time>2026-03-28T16:57:44Z</time></trkpt><trkpt lat="45.62333890755872" lon="10.57106919281458"><ele>81.0</ele><time>2026-03-28T16:57:45Z</time></trkpt><trkpt lat="45.62324711296336" lon="10.570963764225816"><ele>81.0</ele><time>2026-03-28T16:57:46Z</time></trkpt><trkpt lat="45.62316162732895" lon="10.570871639290742"><ele>81.0</ele><time>2026-03-28T16:57:47Z</time></trkpt><trkpt lat="45.6230853932538" lon="10.5707894846858"><ele>81.0</ele><time>2026-03-28T16:57:48Z</time></trkpt><trkpt lat="45.62300836842332" lon="10.570709494890062"><ele>81.0</ele><time>2026-03-28T16:57:49Z</time></trkpt><trkpt lat="45.62293605441118" lon="10.570632600895092"><ele>81.0</ele><time>2026-03-28T16:57:50Z</time></trkpt><trkpt lat="45.622874371050656" lon="10.570554393724198"><ele>81.0</ele><time>2026-03-28T16:57:51Z</time></trkpt><trkpt lat="45.62282213293451" lon="10.570479529507539"><ele>81.0</ele><time>2026-03-28T16:57:52Z</time></trkpt><trkpt lat="45.62274147713313" lon="10.570363326014585"><ele>81.0</ele><time>2026-03-28T16:57:54Z</time></trkpt><trkpt lat="45.62264695247931" lon="10.570219034331847"><ele>80.0</ele><time>2026-03-28T16:57:56Z</time></trkpt><trkpt lat="45.62258352899849" lon="10.570117947716609"><ele>79.0</ele><time>2026-03-28T16:57:57Z</time></trkpt><trkpt lat="45.62251962548735" lon="10.570010886366946"><ele>78.0</ele><time>2026-03-28T16:57:58Z</time></trkpt><trkpt lat="45.62246023186313" lon="10.569906570666626"><ele>77.0</ele><time>2026-03-28T16:57:59Z</time></trkpt><trkpt lat="45.62241415239204" lon="10.569824296022011"><ele>76.0</ele><time>2026-03-28T16:58:00Z</time></trkpt><trkpt lat="45.62237567044525" lon="10.569751047555263"><ele>75.0</ele><time>2026-03-28T16:58:01Z</time></trkpt><trkpt lat="45.62230492028434" lon="10.569611851000502"><ele>75.0</ele><time>2026-03-28T16:58:03Z</time></trkpt><trkpt lat="45.62226875318506" lon="10.569532049734304"><ele>75.0</ele><time>2026-03-28T16:58:04Z</time></trkpt><trkpt lat="45.62223441611008" lon="10.56944929333806"><ele>75.0</ele><time>2026-03-28T16:58:05Z</time></trkpt><trkpt lat="45.62217964701897" lon="10.569308812615672"><ele>75.0</ele><time>2026-03-28T16:58:07Z</time></trkpt><trkpt lat="45.622133037397106" lon="10.569189260696216"><ele>75.0</ele><time>2026-03-28T16:58:09Z</time></trkpt><trkpt lat="45.62209771333274" lon="10.569098679749484"><ele>75.0</ele><time>2026-03-28T16:58:11Z</time></trkpt><trkpt lat="45.622061699038696" lon="10.569006504819061"><ele>75.2</ele><time>2026-03-28T16:58:13Z</time></trkpt><trkpt lat="45.62202025179647" lon="10.56890042465323"><ele>75.4</ele><time>2026-03-28T16:58:15Z</time></trkpt><trkpt lat="45.62197148346512" lon="10.568821174285397"><ele>75.6</ele><time>2026-03-28T16:58:17Z</time></trkpt><trkpt lat="45.621941759303105" lon="10.568735154943354"><ele>75.8</ele><time>2026-03-28T16:58:20Z</time></trkpt><trkpt lat="45.621888996155114" lon="10.568609069493784"><ele>76.0</ele><time>2026-03-28T16:58:23Z</time></trkpt><trkpt lat="45.62181335544714" lon="10.568461976740176"><ele>76.0</ele><time>2026-03-28T16:58:25Z</time></trkpt><trkpt lat="45.621742629082526" lon="10.568335271590684"><ele>76.0</ele><time>2026-03-28T16:58:27Z</time></trkpt><trkpt lat="45.62170532618832" lon="10.568260901292438"><ele>76.0</ele><time>2026-03-28T16:58:29Z</time></trkpt><trkpt lat="45.62166022643543" lon="10.56818390545206"><ele>76.0</ele><time>2026-03-28T16:58:31Z</time></trkpt><trkpt lat="45.6216087082149" lon="10.568104490270787"><ele>76.0</ele><time>2026-03-28T16:58:32Z</time></trkpt><trkpt lat="45.621544758186815" lon="10.56800410289658"><ele>76.0</ele><time>2026-03-28T16:58:33Z</time></trkpt><trkpt lat="45.621481317902344" lon="10.56788819698545"><ele>78.25</ele><time>2026-03-28T16:58:34Z</time></trkpt><trkpt lat="45.62141511566224" lon="10.567768564670041"><ele>80.5</ele><time>2026-03-28T16:58:35Z</time></trkpt><trkpt lat="45.62133642179765" lon="10.5676404539059"><ele>82.75</ele><time>2026-03-28T16:58:36Z</time></trkpt><trkpt lat="45.62126712156263" lon="10.567507365358052"><ele>85.0</ele><time>2026-03-28T16:58:37Z</time></trkpt><trkpt lat="45.621184927500884" lon="10.567393040881063"><ele>83.0</ele><time>2026-03-28T16:58:38Z</time></trkpt><trkpt lat="45.6211339126751" lon="10.567290750146956"><ele>81.0</ele><time>2026-03-28T16:58:39Z</time></trkpt><trkpt lat="45.62108223772805" lon="10.567206184036353"><ele>79.0</ele><time>2026-03-28T16:58:40Z</time></trkpt><trkpt lat="45.62100729179393" lon="10.56709724350409"><ele>77.0</ele><time>2026-03-28T16:58:42Z</time></trkpt><trkpt lat="45.62091911632426" lon="10.566993612628739"><ele>75.0</ele><time>2026-03-28T16:58:44Z</time></trkpt><trkpt lat="45.62086767784678" lon="10.566897838404095"><ele>75.0</ele><time>2026-03-28T16:58:45Z</time></trkpt><trkpt lat="45.62079086971158" lon="10.566805515844697"><ele>75.0</ele><time>2026-03-28T16:58:46Z</time></trkpt><trkpt lat="45.62070589953899" lon="10.566684394482982"><ele>75.0</ele><time>2026-03-28T16:58:47Z</time></trkpt><trkpt lat="45.62062426553758" lon="10.56654960650865"><ele>75.0</ele><time>2026-03-28T16:58:48Z</time></trkpt><trkpt lat="45.620529883488075" lon="10.566426968944317"><ele>75.0</ele><time>2026-03-28T16:58:49Z</time></trkpt><trkpt lat="45.620446395282485" lon="10.566299635150589"><ele>75.0</ele><time>2026-03-28T16:58:50Z</time></trkpt><trkpt lat="45.62037240158845" lon="10.56617742482342"><ele>75.0</ele><time>2026-03-28T16:58:51Z</time></trkpt><trkpt lat="45.62029771764102" lon="10.566065623721284"><ele>75.0</ele><time>2026-03-28T16:58:52Z</time></trkpt><trkpt lat="45.62022210146437" lon="10.565976251859896"><ele>75.0</ele><time>2026-03-28T16:58:53Z</time></trkpt><trkpt lat="45.620164198030686" lon="10.565865823746975"><ele>75.0</ele><time>2026-03-28T16:58:54Z</time></trkpt><trkpt lat="45.62009220305526" lon="10.565770053662929"><ele>75.0</ele><time>2026-03-28T16:58:55Z</time></trkpt><trkpt lat="45.62002387658142" lon="10.5656792377702"><ele>75.0</ele><time>2026-03-28T16:58:56Z</time></trkpt><trkpt lat="45.61996773399348" lon="10.565586952653263"><ele>75.0</ele><time>2026-03-28T16:58:57Z</time></trkpt><trkpt lat="45.61990582486875" lon="10.565506835578134"><ele>75.0</ele><time>2026-03-28T16:58:58Z</time></trkpt><trkpt lat="45.619854568735526" lon="10.565416573891797"><ele>75.0</ele><time>2026-03-28T16:58:59Z</time></trkpt><trkpt lat="45.61979653736443" lon="10.565338105823248"><ele>75.0</ele><time>2026-03-28T16:59:00Z</time></trkpt><trkpt lat="45.619740145367736" lon="10.565254719958881"><ele>75.0</ele><time>2026-03-28T16:59:01Z</time></trkpt><trkpt lat="45.61967498271308" lon="10.565160316088166"><ele>75.0</ele><time>2026-03-28T16:59:02Z</time></trkpt><trkpt lat="45.61960224548556" lon="10.565058776531183"><ele>75.0</ele><time>2026-03-28T16:59:03Z</time></trkpt><trkpt lat="45.61953855881387" lon="10.564956728935504"><ele>75.0</ele><time>2026-03-28T16:59:04Z</time></trkpt><trkpt lat="45.61948739144765" lon="10.564841159834"><ele>74.6</ele><time>2026-03-28T16:59:05Z</time></trkpt><trkpt lat="45.61943513617564" lon="10.564735140799055"><ele>74.2</ele><time>2026-03-28T16:59:06Z</time></trkpt><trkpt lat="45.61938793506775" lon="10.56462385918744"><ele>73.8</ele><time>2026-03-28T16:59:07Z</time></trkpt><trkpt lat="45.61934341215739" lon="10.56449945368951"><ele>73.4</ele><time>2026-03-28T16:59:08Z</time></trkpt><trkpt lat="45.61930370079281" lon="10.564370803008764"><ele>73.0</ele><time>2026-03-28T16:59:09Z</time></trkpt><trkpt lat="45.6192656463013" lon="10.564247144673615"><ele>73.0</ele><time>2026-03-28T16:59:10Z</time></trkpt><trkpt lat="45.6192287170734" lon="10.564127142936735"><ele>73.0</ele><time>2026-03-28T16:59:11Z</time></trkpt><trkpt lat="45.619192584580226" lon="10.56400973016913"><ele>73.0</ele><time>2026-03-28T16:59:12Z</time></trkpt><trkpt lat="45.61915259984887" lon="10.563877498781114"><ele>73.0</ele><time>2026-03-28T16:59:13Z</time></trkpt><trkpt lat="45.61911001113145" lon="10.563734312008735"><ele>73.0</ele><time>2026-03-28T16:59:14Z</time></trkpt><trkpt lat="45.61907150458114" lon="10.563604849792588"><ele>73.6</ele><time>2026-03-28T16:59:15Z</time></trkpt><trkpt lat="45.61903599269214" lon="10.563483724316184"><ele>74.19999999999999</ele><time>2026-03-28T16:59:16Z</time></trkpt><trkpt lat="45.61899983549935" lon="10.563357804720138"><ele>74.8</ele><time>2026-03-28T16:59:17Z</time></trkpt><trkpt lat="45.618961242268" lon="10.563223401582933"><ele>75.39999999999999</ele><time>2026-03-28T16:59:18Z</time></trkpt><trkpt lat="45.61892744580189" lon="10.563103310973572"><ele>76.0</ele><time>2026-03-28T16:59:19Z</time></trkpt><trkpt lat="45.61888795908872" lon="10.562991997510675"><ele>76.0</ele><time>2026-03-28T16:59:20Z</time></trkpt><trkpt lat="45.61885500481511" lon="10.562874189169019"><ele>76.0</ele><time>2026-03-28T16:59:21Z</time></trkpt><trkpt lat="45.61882623055538" lon="10.56275633932604"><ele>76.0</ele><time>2026-03-28T16:59:22Z</time></trkpt><trkpt lat="45.61880350259243" lon="10.562632350422142"><ele>76.0</ele><time>2026-03-28T16:59:23Z</time></trkpt><trkpt lat="45.618780088332066" lon="10.562501661814217"><ele>76.0</ele><time>2026-03-28T16:59:24Z</time></trkpt><trkpt lat="45.61875679293375" lon="10.562381144625816"><ele>76.0</ele><time>2026-03-28T16:59:25Z</time></trkpt><trkpt lat="45.61873091950057" lon="10.562248378431214"><ele>76.66666666666666</ele><time>2026-03-28T16:59:26Z</time></trkpt><trkpt lat="45.61871400673851" lon="10.56210405366549"><ele>77.33333333333333</ele><time>2026-03-28T16:59:27Z</time></trkpt><trkpt lat="45.61867499141357" lon="10.561956409101601"><ele>78.0</ele><time>2026-03-28T16:59:28Z</time></trkpt><trkpt lat="45.618659043031016" lon="10.561823178875335"><ele>78.66666666666667</ele><time>2026-03-28T16:59:29Z</time></trkpt><trkpt lat="45.61863365214653" lon="10.561728138870738"><ele>79.33333333333334</ele><time>2026-03-28T16:59:30Z</time></trkpt><trkpt lat="45.61861669658128" lon="10.561632658239484"><ele>80.0</ele><time>2026-03-28T16:59:31Z</time></trkpt><trkpt lat="45.618585542324304" lon="10.561477012215978"><ele>78.83333333333334</ele><time>2026-03-28T16:59:33Z</time></trkpt><trkpt lat="45.61856607198253" lon="10.56135777501367"><ele>77.66666666666667</ele><time>2026-03-28T16:59:35Z</time></trkpt><trkpt lat="45.61854763265647" lon="10.561262035031607"><ele>76.5</ele><time>2026-03-28T16:59:39Z</time></trkpt><trkpt lat="45.618527026826776" lon="10.561155046341685"><ele>75.33333333333333</ele><time>2026-03-28T16:59:42Z</time></trkpt><trkpt lat="45.61850043453605" lon="10.56101773930115"><ele>74.16666666666666</ele><time>2026-03-28T16:59:44Z</time></trkpt><trkpt lat="45.618483083879845" lon="10.560928951139855"><ele>73.0</ele><time>2026-03-28T16:59:45Z</time></trkpt><trkpt lat="45.61843322249551" lon="10.56078745488278"><ele>73.0</ele><time>2026-03-28T16:59:47Z</time></trkpt><trkpt lat="45.61840546201539" lon="10.560657817212242"><ele>73.0</ele><time>2026-03-28T16:59:49Z</time></trkpt><trkpt lat="45.61837023692054" lon="10.560518470608018"><ele>73.0</ele><time>2026-03-28T16:59:51Z</time></trkpt><trkpt lat="45.61834686536602" lon="10.560419219240856"><ele>73.0</ele><time>2026-03-28T16:59:53Z</time></trkpt><trkpt lat="45.61833625372745" lon="10.5603265888812"><ele>73.0</ele><time>2026-03-28T16:59:56Z</time></trkpt><trkpt lat="45.618317299710576" lon="10.56021634638536"><ele>73.0</ele><time>2026-03-28T16:59:59Z</time></trkpt><trkpt lat="45.61828544450515" lon="10.560090160031333"><ele>73.16666666666666</ele><time>2026-03-28T17:00:01Z</time></trkpt><trkpt lat="45.618301834592906" lon="10.559995474964634"><ele>73.33333333333333</ele><time>2026-03-28T17:00:02Z</time></trkpt><trkpt lat="45.618280501616276" lon="10.559886451511915"><ele>73.5</ele><time>2026-03-28T17:00:04Z</time></trkpt><trkpt lat="45.61826241080629" lon="10.559793997257454"><ele>73.66666666666667</ele><time>2026-03-28T17:00:06Z</time></trkpt><trkpt lat="45.61824227697096" lon="10.5596890790393"><ele>73.83333333333334</ele><time>2026-03-28T17:00:09Z</time></trkpt><trkpt lat="45.618219748556456" lon="10.55956913793553"><ele>74.0</ele><time>2026-03-28T17:00:11Z</time></trkpt><trkpt lat="45.61819973110979" lon="10.559462565602452"><ele>74.28571428571429</ele><time>2026-03-28T17:00:13Z</time></trkpt><trkpt lat="45.61817938468994" lon="10.559354666696898"><ele>74.57142857142857</ele><time>2026-03-28T17:00:16Z</time></trkpt><trkpt lat="45.61815777880538" lon="10.559248384612994"><ele>74.85714285714286</ele><time>2026-03-28T17:00:19Z</time></trkpt><trkpt lat="45.61814005128741" lon="10.559161180529543"><ele>75.14285714285714</ele><time>2026-03-28T17:00:22Z</time></trkpt><trkpt lat="45.618122037067444" lon="10.559071003510553"><ele>75.42857142857143</ele><time>2026-03-28T17:00:25Z</time></trkpt><trkpt lat="45.61810125971643" lon="10.558964566880032"><ele>75.71428571428571</ele><time>2026-03-28T17:00:28Z</time></trkpt><trkpt lat="45.61808393348755" lon="10.55887514280303"><ele>76.0</ele><time>2026-03-28T17:00:31Z</time></trkpt><trkpt lat="45.61806644641605" lon="10.558781270721544"><ele>77.0</ele><time>2026-03-28T17:00:35Z</time></trkpt><trkpt lat="45.61803964540505" lon="10.558650701040605"><ele>78.0</ele><time>2026-03-28T17:00:38Z</time></trkpt><trkpt lat="45.617995551459074" lon="10.558500406622494"><ele>79.0</ele><time>2026-03-28T17:00:40Z</time></trkpt><trkpt lat="45.61796552388674" lon="10.558359369455243"><ele>80.0</ele><time>2026-03-28T17:00:42Z</time></trkpt><trkpt lat="45.61792627985061" lon="10.558248418689969"><ele>81.0</ele><time>2026-03-28T17:00:44Z</time></trkpt><trkpt lat="45.61785673943593" lon="10.558108942178917"><ele>80.66666666666667</ele><time>2026-03-28T17:00:46Z</time></trkpt><trkpt lat="45.61780489213337" lon="10.558015972592374"><ele>80.33333333333333</ele><time>2026-03-28T17:00:47Z</time></trkpt><trkpt lat="45.61775867408721" lon="10.557925437504567"><ele>80.0</ele><time>2026-03-28T17:00:48Z</time></trkpt><trkpt lat="45.61771660419233" lon="10.557842519955713"><ele>79.66666666666666</ele><time>2026-03-28T17:00:49Z</time></trkpt><trkpt lat="45.61767042366659" lon="10.55776015208062"><ele>79.33333333333333</ele><time>2026-03-28T17:00:50Z</time></trkpt><trkpt lat="45.617625641468585" lon="10.557671331184615"><ele>79.0</ele><time>2026-03-28T17:00:51Z</time></trkpt><trkpt lat="45.617578662576406" lon="10.557579473715483"><ele>79.0</ele><time>2026-03-28T17:00:52Z</time></trkpt><trkpt lat="45.61753934346737" lon="10.557500517586487"><ele>79.0</ele><time>2026-03-28T17:00:53Z</time></trkpt><trkpt lat="45.61746077838068" lon="10.557360098006255"><ele>79.0</ele><time>2026-03-28T17:00:55Z</time></trkpt><trkpt lat="45.61738581902967" lon="10.557217968207265"><ele>79.0</ele><time>2026-03-28T17:00:57Z</time></trkpt><trkpt lat="45.617340195925536" lon="10.557141353285138"><ele>79.0</ele><time>2026-03-28T17:00:58Z</time></trkpt><trkpt lat="45.61729953653821" lon="10.557060695953933"><ele>79.2</ele><time>2026-03-28T17:00:59Z</time></trkpt><trkpt lat="45.61726074430904" lon="10.556985917302773"><ele>79.4</ele><time>2026-03-28T17:01:00Z</time></trkpt><trkpt lat="45.61718476641437" lon="10.556845490072263"><ele>79.6</ele><time>2026-03-28T17:01:02Z</time></trkpt><trkpt lat="45.61710093464717" lon="10.556720914366148"><ele>79.8</ele><time>2026-03-28T17:01:04Z</time></trkpt><trkpt lat="45.6170650561174" lon="10.556614241616675"><ele>80.0</ele><time>2026-03-28T17:01:05Z</time></trkpt><trkpt lat="45.61701227799312" lon="10.556512790301976"><ele>79.5</ele><time>2026-03-28T17:01:06Z</time></trkpt><trkpt lat="45.616967370232985" lon="10.556426466819211"><ele>79.0</ele><time>2026-03-28T17:01:07Z</time></trkpt><trkpt lat="45.616913139504476" lon="10.556326669386664"><ele>78.5</ele><time>2026-03-28T17:01:09Z</time></trkpt><trkpt lat="45.61684771363242" lon="10.556241119996372"><ele>78.0</ele><time>2026-03-28T17:01:12Z</time></trkpt><trkpt lat="45.6168172037764" lon="10.55615238342402"><ele>77.5</ele><time>2026-03-28T17:01:14Z</time></trkpt><trkpt lat="45.61676968859148" lon="10.556061883797994"><ele>77.0</ele><time>2026-03-28T17:01:17Z</time></trkpt><trkpt lat="45.61671843155364" lon="10.555962690497347"><ele>77.0</ele><time>2026-03-28T17:01:20Z</time></trkpt><trkpt lat="45.616662249125056" lon="10.555858155717015"><ele>77.0</ele><time>2026-03-28T17:01:22Z</time></trkpt><trkpt lat="45.616602441256234" lon="10.55574687553755"><ele>77.0</ele><time>2026-03-28T17:01:24Z</time></trkpt><trkpt lat="45.61654397885368" lon="10.555636518259185"><ele>77.0</ele><time>2026-03-28T17:01:26Z</time></trkpt><trkpt lat="45.61650191351465" lon="10.555554948681282"><ele>77.0</ele><time>2026-03-28T17:01:28Z</time></trkpt><trkpt lat="45.61642315593335" lon="10.555447804418638"><ele>77.0</ele><time>2026-03-28T17:01:31Z</time></trkpt><trkpt lat="45.61638430448718" lon="10.555365397066694"><ele>77.0</ele><time>2026-03-28T17:01:32Z</time></trkpt><trkpt lat="45.61632167912359" lon="10.55523814167405"><ele>77.0</ele><time>2026-03-28T17:01:34Z</time></trkpt><trkpt lat="45.61628396792707" lon="10.55516066307063"><ele>77.0</ele><time>2026-03-28T17:01:35Z</time></trkpt><trkpt lat="45.6162472410649" lon="10.555085792486016"><ele>77.0</ele><time>2026-03-28T17:01:36Z</time></trkpt><trkpt lat="45.616174011794975" lon="10.554946409573237"><ele>77.0</ele><time>2026-03-28T17:01:38Z</time></trkpt><trkpt lat="45.61613098672897" lon="10.55485863253538"><ele>77.0</ele><time>2026-03-28T17:01:39Z</time></trkpt><trkpt lat="45.616117122402024" lon="10.554753834213908"><ele>77.0</ele><time>2026-03-28T17:01:40Z</time></trkpt><trkpt lat="45.61607421354355" lon="10.554661780593985"><ele>77.0</ele><time>2026-03-28T17:01:41Z</time></trkpt><trkpt lat="45.616023409167624" lon="10.55455244076747"><ele>77.0</ele><time>2026-03-28T17:01:42Z</time></trkpt><trkpt lat="45.61597327921885" lon="10.554445484137876"><ele>77.0</ele><time>2026-03-28T17:01:43Z</time></trkpt><trkpt lat="45.615924246083104" lon="10.55434335832212"><ele>77.0</ele><time>2026-03-28T17:01:44Z</time></trkpt><trkpt lat="45.615877781861144" lon="10.554246583002712"><ele>77.66666666666667</ele><time>2026-03-28T17:01:45Z</time></trkpt><trkpt lat="45.6158345196181" lon="10.55415647670079"><ele>78.33333333333334</ele><time>2026-03-28T17:01:46Z</time></trkpt><trkpt lat="45.61578937215786" lon="10.554061476518022"><ele>79.0</ele><time>2026-03-28T17:01:47Z</time></trkpt><trkpt lat="45.615746557427975" lon="10.553969000370962"><ele>79.66666666666667</ele><time>2026-03-28T17:01:48Z</time></trkpt><trkpt lat="45.61570364570179" lon="10.55387631447272"><ele>80.33333333333333</ele><time>2026-03-28T17:01:49Z</time></trkpt><trkpt lat="45.615654045397974" lon="10.553775147852102"><ele>81.0</ele><time>2026-03-28T17:01:50Z</time></trkpt><trkpt lat="45.615611398743866" lon="10.553687742679905"><ele>81.16666666666667</ele><time>2026-03-28T17:01:51Z</time></trkpt><trkpt lat="45.61557390255754" lon="10.553602988329915"><ele>81.33333333333333</ele><time>2026-03-28T17:01:52Z</time></trkpt><trkpt lat="45.6155277902958" lon="10.553538018802499"><ele>81.5</ele><time>2026-03-28T17:01:53Z</time></trkpt><trkpt lat="45.615472560102795" lon="10.553372377839146"><ele>81.66666666666666</ele><time>2026-03-28T17:01:55Z</time></trkpt><trkpt lat="45.61542972048607" lon="10.553273472143651"><ele>81.83333333333333</ele><time>2026-03-28T17:01:56Z</time></trkpt><trkpt lat="45.6153776237671" lon="10.553153192444093"><ele>82.0</ele><time>2026-03-28T17:01:57Z</time></trkpt><trkpt lat="45.615327592971056" lon="10.553026722441253"><ele>80.8</ele><time>2026-03-28T17:01:58Z</time></trkpt><trkpt lat="45.61527930806719" lon="10.552906453899123"><ele>79.6</ele><time>2026-03-28T17:01:59Z</time></trkpt><trkpt lat="45.6152323997752" lon="10.552790136900558"><ele>78.39999999999999</ele><time>2026-03-28T17:02:00Z</time></trkpt><trkpt lat="45.61518604786373" lon="10.552675163035676"><ele>77.19999999999999</ele><time>2026-03-28T17:02:01Z</time></trkpt><trkpt lat="45.61514303974698" lon="10.552569723177584"><ele>76.0</ele><time>2026-03-28T17:02:02Z</time></trkpt><trkpt lat="45.61510060028989" lon="10.552464953174356"><ele>76.0</ele><time>2026-03-28T17:02:03Z</time></trkpt><trkpt lat="45.615063618609405" lon="10.552373754902863"><ele>76.0</ele><time>2026-03-28T17:02:04Z</time></trkpt><trkpt lat="45.6150051006398" lon="10.552229447209037"><ele>76.0</ele><time>2026-03-28T17:02:06Z</time></trkpt><trkpt lat="45.61494979378321" lon="10.55209237881996"><ele>76.0</ele><time>2026-03-28T17:02:08Z</time></trkpt><trkpt lat="45.614903632836274" lon="10.551977706241178"><ele>76.0</ele><time>2026-03-28T17:02:10Z</time></trkpt><trkpt lat="45.614847159486054" lon="10.551884794735214"><ele>76.2</ele><time>2026-03-28T17:02:12Z</time></trkpt><trkpt lat="45.614805050757006" lon="10.551758565791767"><ele>76.39999999999999</ele><time>2026-03-28T17:02:14Z</time></trkpt><trkpt lat="45.614754737918226" lon="10.551640777587181"><ele>76.6</ele><time>2026-03-28T17:02:16Z</time></trkpt><trkpt lat="45.6146990365001" lon="10.551515375853098"><ele>76.8</ele><time>2026-03-28T17:02:18Z</time></trkpt><trkpt lat="45.61466503239553" lon="10.551414199533614"><ele>77.0</ele><time>2026-03-28T17:02:20Z</time></trkpt><trkpt lat="45.61461766649225" lon="10.551265199274809"><ele>77.5</ele><time>2026-03-28T17:02:22Z</time></trkpt><trkpt lat="45.61458280517856" lon="10.551177797829455"><ele>78.0</ele><time>2026-03-28T17:02:23Z</time></trkpt><trkpt lat="45.614530804497555" lon="10.551089490259274"><ele>78.5</ele><time>2026-03-28T17:02:24Z</time></trkpt><trkpt lat="45.61451270005899" lon="10.55098643027176"><ele>79.0</ele><time>2026-03-28T17:02:25Z</time></trkpt><trkpt lat="45.61448470118414" lon="10.550902316336655"><ele>79.5</ele><time>2026-03-28T17:02:26Z</time></trkpt><trkpt lat="45.61444860224612" lon="10.550777244895542"><ele>80.0</ele><time>2026-03-28T17:02:28Z</time></trkpt><trkpt lat="45.614411758387014" lon="10.550634437335955"><ele>78.6</ele><time>2026-03-28T17:02:30Z</time></trkpt><trkpt lat="45.614378958546006" lon="10.550488386976202"><ele>77.2</ele><time>2026-03-28T17:02:32Z</time></trkpt><trkpt lat="45.61434756652535" lon="10.550328317760854"><ele>75.8</ele><time>2026-03-28T17:02:34Z</time></trkpt><trkpt lat="45.614329946994246" lon="10.550232780477998"><ele>74.4</ele><time>2026-03-28T17:02:35Z</time></trkpt><trkpt lat="45.61431077303397" lon="10.550128723825805"><ele>73.0</ele><time>2026-03-28T17:02:36Z</time></trkpt><trkpt lat="45.61428110781531" lon="10.549967731481289"><ele>73.0</ele><time>2026-03-28T17:02:38Z</time></trkpt><trkpt lat="45.614255570069005" lon="10.549829138924329"><ele>73.0</ele><time>2026-03-28T17:02:40Z</time></trkpt><trkpt lat="45.614229570621525" lon="10.549688040529109"><ele>73.0</ele><time>2026-03-28T17:02:42Z</time></trkpt><trkpt lat="45.614206024231514" lon="10.5495602549406"><ele>73.0</ele><time>2026-03-28T17:02:44Z</time></trkpt><trkpt lat="45.614187544240636" lon="10.549459964531243"><ele>73.0</ele><time>2026-03-28T17:02:46Z</time></trkpt><trkpt lat="45.61414444988569" lon="10.549374969840013"><ele>73.0</ele><time>2026-03-28T17:02:48Z</time></trkpt><trkpt lat="45.61415520618083" lon="10.549284475726337"><ele>73.0</ele><time>2026-03-28T17:02:55Z</time></trkpt><trkpt lat="45.61410704565097" lon="10.549147506402571"><ele>73.0</ele><time>2026-03-28T17:02:57Z</time></trkpt><trkpt lat="45.61408625449735" lon="10.54902294847347"><ele>73.0</ele><time>2026-03-28T17:02:59Z</time></trkpt><trkpt lat="45.614074867648476" lon="10.548844104098027"><ele>73.0</ele><time>2026-03-28T17:03:01Z</time></trkpt><trkpt lat="45.614056722233414" lon="10.54874189591915"><ele>73.0</ele><time>2026-03-28T17:03:02Z</time></trkpt><trkpt lat="45.61403599009288" lon="10.548627469305124"><ele>73.33333333333333</ele><time>2026-03-28T17:03:03Z</time></trkpt><trkpt lat="45.614016083487556" lon="10.548517748086816"><ele>73.66666666666666</ele><time>2026-03-28T17:03:04Z</time></trkpt><trkpt lat="45.613997254865595" lon="10.548413968456071"><ele>74.0</ele><time>2026-03-28T17:03:05Z</time></trkpt><trkpt lat="45.613979809173586" lon="10.548317811396977"><ele>74.33333333333333</ele><time>2026-03-28T17:03:06Z</time></trkpt><trkpt lat="45.61395312300487" lon="10.54817072263611"><ele>74.66666666666667</ele><time>2026-03-28T17:03:08Z</time></trkpt><trkpt lat="45.61393078470228" lon="10.548047564479582"><ele>75.0</ele><time>2026-03-28T17:03:10Z</time></trkpt><trkpt lat="45.6139071430538" lon="10.547921534183612"><ele>75.57142857142857</ele><time>2026-03-28T17:03:12Z</time></trkpt><trkpt lat="45.61389036722302" lon="10.547832104477678"><ele>76.14285714285714</ele><time>2026-03-28T17:03:13Z</time></trkpt><trkpt lat="45.61387129561232" lon="10.547730436180414"><ele>76.71428571428572</ele><time>2026-03-28T17:03:14Z</time></trkpt><trkpt lat="45.613853312343" lon="10.547634569870342"><ele>77.28571428571428</ele><time>2026-03-28T17:03:15Z</time></trkpt><trkpt lat="45.613832904965335" lon="10.54752578094399"><ele>77.85714285714286</ele><time>2026-03-28T17:03:17Z</time></trkpt><trkpt lat="45.61381296897936" lon="10.547419504793012"><ele>78.42857142857143</ele><time>2026-03-28T17:03:19Z</time></trkpt><trkpt lat="45.61378295687993" lon="10.54733727641328"><ele>79.0</ele><time>2026-03-28T17:03:20Z</time></trkpt><trkpt lat="45.61377410281256" lon="10.547209911537648"><ele>79.0</ele><time>2026-03-28T17:03:21Z</time></trkpt><trkpt lat="45.61372172101222" lon="10.547045597799185"><ele>79.0</ele><time>2026-03-28T17:03:22Z</time></trkpt><trkpt lat="45.6136751712724" lon="10.54681217520036"><ele>79.0</ele><time>2026-03-28T17:03:23Z</time></trkpt><trkpt lat="45.613623990130584" lon="10.546557711692174"><ele>78.0</ele><time>2026-03-28T17:03:24Z</time></trkpt><trkpt lat="45.613566111034025" lon="10.546292091708093"><ele>77.0</ele><time>2026-03-28T17:03:25Z</time></trkpt><trkpt lat="45.61353267685143" lon="10.546004030696862"><ele>76.0</ele><time>2026-03-28T17:03:26Z</time></trkpt><trkpt lat="45.613478322235515" lon="10.54574634956471"><ele>76.0</ele><time>2026-03-28T17:03:27Z</time></trkpt><trkpt lat="45.61341262182064" lon="10.545501932970447"><ele>76.0</ele><time>2026-03-28T17:03:28Z</time></trkpt><trkpt lat="45.61336058929735" lon="10.545279262259397"><ele>76.0</ele><time>2026-03-28T17:03:29Z</time></trkpt><trkpt lat="45.61328901120158" lon="10.545076638131748"><ele>78.25</ele><time>2026-03-28T17:03:30Z</time></trkpt><trkpt lat="45.61322193103131" lon="10.54486654009726"><ele>80.5</ele><time>2026-03-28T17:03:31Z</time></trkpt><trkpt lat="45.6131514365589" lon="10.544680894679464"><ele>82.75</ele><time>2026-03-28T17:03:32Z</time></trkpt><trkpt lat="45.61309132965574" lon="10.544520246711988"><ele>85.0</ele><time>2026-03-28T17:03:33Z</time></trkpt><trkpt lat="45.61303576669848" lon="10.544367879428732"><ele>88.75</ele><time>2026-03-28T17:03:34Z</time></trkpt><trkpt lat="45.61297383413141" lon="10.544204084947884"><ele>92.5</ele><time>2026-03-28T17:03:35Z</time></trkpt><trkpt lat="45.61291320448828" lon="10.544038421842096"><ele>96.25</ele><time>2026-03-28T17:03:36Z</time></trkpt><trkpt lat="45.612862856411354" lon="10.543889603406301"><ele>100.0</ele><time>2026-03-28T17:03:37Z</time></trkpt><trkpt lat="45.61281843585853" lon="10.543718213568411"><ele>93.5</ele><time>2026-03-28T17:03:38Z</time></trkpt><trkpt lat="45.61277915390281" lon="10.543531158566983"><ele>87.0</ele><time>2026-03-28T17:03:39Z</time></trkpt><trkpt lat="45.612730969181634" lon="10.543338284477565"><ele>80.5</ele><time>2026-03-28T17:03:40Z</time></trkpt><trkpt lat="45.61270386646534" lon="10.543168417443752"><ele>74.0</ele><time>2026-03-28T17:03:41Z</time></trkpt><trkpt lat="45.61268214439732" lon="10.542999859699517"><ele>75.25</ele><time>2026-03-28T17:03:42Z</time></trkpt><trkpt lat="45.6126405879052" lon="10.542813692793633"><ele>76.5</ele><time>2026-03-28T17:03:43Z</time></trkpt><trkpt lat="45.612602630359426" lon="10.542607903197883"><ele>77.75</ele><time>2026-03-28T17:03:44Z</time></trkpt><trkpt lat="45.61254051094205" lon="10.542396690016732"><ele>79.0</ele><time>2026-03-28T17:03:45Z</time></trkpt><trkpt lat="45.6124776846259" lon="10.542197111268749"><ele>80.5</ele><time>2026-03-28T17:03:46Z</time></trkpt><trkpt lat="45.61241461675402" lon="10.54202019809799"><ele>82.0</ele><time>2026-03-28T17:03:47Z</time></trkpt><trkpt lat="45.61236002067541" lon="10.541868782600986"><ele>83.5</ele><time>2026-03-28T17:03:48Z</time></trkpt><trkpt lat="45.612305804144235" lon="10.541712706217277"><ele>85.0</ele><time>2026-03-28T17:03:49Z</time></trkpt><trkpt lat="45.612244522329355" lon="10.541544218960453"><ele>85.0</ele><time>2026-03-28T17:03:50Z</time></trkpt><trkpt lat="45.61217878476407" lon="10.541358149344944"><ele>85.0</ele><time>2026-03-28T17:03:51Z</time></trkpt><trkpt lat="45.61210413826715" lon="10.541163742784681"><ele>85.0</ele><time>2026-03-28T17:03:52Z</time></trkpt><trkpt lat="45.61203072291726" lon="10.540970436515561"><ele>85.33333333333333</ele><time>2026-03-28T17:03:53Z</time></trkpt><trkpt lat="45.61194862658174" lon="10.540771266715032"><ele>85.66666666666667</ele><time>2026-03-28T17:03:54Z</time></trkpt><trkpt lat="45.61183391084055" lon="10.540504871211807"><ele>86.0</ele><time>2026-03-28T17:03:55Z</time></trkpt><trkpt lat="45.611702049942814" lon="10.540167428622828"><ele>86.0</ele><time>2026-03-28T17:03:56Z</time></trkpt><trkpt lat="45.61155318349702" lon="10.539779480677925"><ele>86.0</ele><time>2026-03-28T17:03:57Z</time></trkpt><trkpt lat="45.611406758592295" lon="10.539363696375892"><ele>85.0</ele><time>2026-03-28T17:03:58Z</time></trkpt><trkpt lat="45.61126003633878" lon="10.538933360725752"><ele>84.0</ele><time>2026-03-28T17:03:59Z</time></trkpt><trkpt lat="45.61112656074504" lon="10.53854558575374"><ele>84.0</ele><time>2026-03-28T17:04:00Z</time></trkpt><trkpt lat="45.61101634247713" lon="10.538220664910211"><ele>84.0</ele><time>2026-03-28T17:04:01Z</time></trkpt><trkpt lat="45.61092838724867" lon="10.537954829481073"><ele>87.0</ele><time>2026-03-28T17:04:02Z</time></trkpt><trkpt lat="45.61085529102164" lon="10.537692910211778"><ele>90.0</ele><time>2026-03-28T17:04:03Z</time></trkpt><trkpt lat="45.61080167490162" lon="10.537434192960388"><ele>93.0</ele><time>2026-03-28T17:04:04Z</time></trkpt><trkpt lat="45.610766586116014" lon="10.537214913040659"><ele>95.25</ele><time>2026-03-28T17:04:05Z</time></trkpt><trkpt lat="45.610785946503064" lon="10.537047179514529"><ele>97.5</ele><time>2026-03-28T17:04:06Z</time></trkpt><trkpt lat="45.61081198103819" lon="10.53684783414455"><ele>99.75</ele><time>2026-03-28T17:04:07Z</time></trkpt><trkpt lat="45.610808913528764" lon="10.53662432301239"><ele>102.0</ele><time>2026-03-28T17:04:08Z</time></trkpt><trkpt lat="45.61077834390644" lon="10.536417343945466"><ele>107.0</ele><time>2026-03-28T17:04:09Z</time></trkpt><trkpt lat="45.6106915745166" lon="10.536200531490355"><ele>112.0</ele><time>2026-03-28T17:04:10Z</time></trkpt><trkpt lat="45.61055551786581" lon="10.535946043186595"><ele>117.0</ele><time>2026-03-28T17:04:11Z</time></trkpt><trkpt lat="45.61041124526289" lon="10.535696645388056"><ele>117.0</ele><time>2026-03-28T17:04:12Z</time></trkpt><trkpt lat="45.61032694762938" lon="10.535471978430559"><ele>117.0</ele><time>2026-03-28T17:04:13Z</time></trkpt><trkpt lat="45.610247343334905" lon="10.535246453916152"><ele>117.0</ele><time>2026-03-28T17:04:14Z</time></trkpt><trkpt lat="45.61017974890569" lon="10.535029390167455"><ele>116.75</ele><time>2026-03-28T17:04:15Z</time></trkpt><trkpt lat="45.61010569070092" lon="10.534857805369608"><ele>116.5</ele><time>2026-03-28T17:04:16Z</time></trkpt><trkpt lat="45.6100416294884" lon="10.534706637910842"><ele>116.25</ele><time>2026-03-28T17:04:17Z</time></trkpt><trkpt lat="45.60996065453025" lon="10.534580640971317"><ele>116.0</ele><time>2026-03-28T17:04:18Z</time></trkpt><trkpt lat="45.60987502389366" lon="10.534478489030903"><ele>116.0</ele><time>2026-03-28T17:04:19Z</time></trkpt><trkpt lat="45.60979284466332" lon="10.534367863425823"><ele>116.0</ele><time>2026-03-28T17:04:20Z</time></trkpt><trkpt lat="45.60971802197554" lon="10.534256396196895"><ele>116.0</ele><time>2026-03-28T17:04:21Z</time></trkpt><trkpt lat="45.60966673306641" lon="10.534125159750026"><ele>116.0</ele><time>2026-03-28T17:04:22Z</time></trkpt><trkpt lat="45.60961001607219" lon="10.533965310308421"><ele>116.0</ele><time>2026-03-28T17:04:23Z</time></trkpt><trkpt lat="45.609567140509846" lon="10.533771548348062"><ele>116.0</ele><time>2026-03-28T17:04:24Z</time></trkpt><trkpt lat="45.60953932137767" lon="10.533574935012105"><ele>116.0</ele><time>2026-03-28T17:04:25Z</time></trkpt><trkpt lat="45.609510901155026" lon="10.533399862320016"><ele>116.0</ele><time>2026-03-28T17:04:26Z</time></trkpt><trkpt lat="45.60950085781719" lon="10.533226420909726"><ele>117.19999999999999</ele><time>2026-03-28T17:04:27Z</time></trkpt><trkpt lat="45.60951376521421" lon="10.533075773334025"><ele>118.39999999999999</ele><time>2026-03-28T17:04:28Z</time></trkpt><trkpt lat="45.609525065741884" lon="10.532938937590554"><ele>119.6</ele><time>2026-03-28T17:04:29Z</time></trkpt><trkpt lat="45.6095511117829" lon="10.532804927241648"><ele>120.8</ele><time>2026-03-28T17:04:30Z</time></trkpt><trkpt lat="45.60957913833862" lon="10.532662206530567"><ele>122.0</ele><time>2026-03-28T17:04:31Z</time></trkpt><trkpt lat="45.609635976849056" lon="10.532542292293288"><ele>122.0</ele><time>2026-03-28T17:04:32Z</time></trkpt><trkpt lat="45.60968938623628" lon="10.532415091176714"><ele>122.0</ele><time>2026-03-28T17:04:33Z</time></trkpt><trkpt lat="45.60974500746982" lon="10.532272084773886"><ele>122.0</ele><time>2026-03-28T17:04:34Z</time></trkpt><trkpt lat="45.60980289639305" lon="10.532122410035978"><ele>122.0</ele><time>2026-03-28T17:04:35Z</time></trkpt><trkpt lat="45.60983803495771" lon="10.531966112483337"><ele>121.25</ele><time>2026-03-28T17:04:36Z</time></trkpt><trkpt lat="45.60984267474063" lon="10.531790845370823"><ele>120.5</ele><time>2026-03-28T17:04:37Z</time></trkpt><trkpt lat="45.60980631893027" lon="10.531614130598177"><ele>119.75</ele><time>2026-03-28T17:04:38Z</time></trkpt><trkpt lat="45.60973758964024" lon="10.531422027916735"><ele>119.0</ele><time>2026-03-28T17:04:39Z</time></trkpt><trkpt lat="45.60963066090251" lon="10.531203064833344"><ele>123.0</ele><time>2026-03-28T17:04:40Z</time></trkpt><trkpt lat="45.609551708720424" lon="10.530999199792754"><ele>127.0</ele><time>2026-03-28T17:04:41Z</time></trkpt><trkpt lat="45.60946659952921" lon="10.530817978345967"><ele>131.0</ele><time>2026-03-28T17:04:42Z</time></trkpt><trkpt lat="45.60937981079547" lon="10.530665063966984"><ele>127.0</ele><time>2026-03-28T17:04:43Z</time></trkpt><trkpt lat="45.6093255907509" lon="10.530495099913042"><ele>123.0</ele><time>2026-03-28T17:04:44Z</time></trkpt><trkpt lat="45.60925230586911" lon="10.530317379351064"><ele>119.0</ele><time>2026-03-28T17:04:45Z</time></trkpt><trkpt lat="45.60917678270693" lon="10.530128602534312"><ele>115.0</ele><time>2026-03-28T17:04:46Z</time></trkpt><trkpt lat="45.6091086874533" lon="10.529946015435828"><ele>115.0</ele><time>2026-03-28T17:04:47Z</time></trkpt><trkpt lat="45.609047022631444" lon="10.529772330670278"><ele>115.0</ele><time>2026-03-28T17:04:48Z</time></trkpt><trkpt lat="45.60898939588953" lon="10.529583360023722"><ele>115.0</ele><time>2026-03-28T17:04:49Z</time></trkpt><trkpt lat="45.60893123050418" lon="10.529357429897605"><ele>115.0</ele><time>2026-03-28T17:04:50Z</time></trkpt><trkpt lat="45.60888104580904" lon="10.529096500506833"><ele>118.66666666666667</ele><time>2026-03-28T17:04:51Z</time></trkpt><trkpt lat="45.60884820928354" lon="10.528826238161416"><ele>122.33333333333334</ele><time>2026-03-28T17:04:52Z</time></trkpt><trkpt lat="45.608819516016354" lon="10.528532552397923"><ele>126.0</ele><time>2026-03-28T17:04:53Z</time></trkpt><trkpt lat="45.608793856746175" lon="10.52826526782998"><ele>127.66666666666666</ele><time>2026-03-28T17:04:54Z</time></trkpt><trkpt lat="45.60876867664002" lon="10.52800567188958"><ele>129.33333333333331</ele><time>2026-03-28T17:04:55Z</time></trkpt><trkpt lat="45.60874330601574" lon="10.527748586611592"><ele>131.0</ele><time>2026-03-28T17:04:56Z</time></trkpt><trkpt lat="45.608715703668835" lon="10.527468887327966"><ele>131.66666666666666</ele><time>2026-03-28T17:04:57Z</time></trkpt><trkpt lat="45.60869128185912" lon="10.52721994490641"><ele>132.33333333333334</ele><time>2026-03-28T17:04:58Z</time></trkpt><trkpt lat="45.60867161710997" lon="10.526991736384636"><ele>133.0</ele><time>2026-03-28T17:04:59Z</time></trkpt><trkpt lat="45.6086577232958" lon="10.526775785040547"><ele>123.0</ele><time>2026-03-28T17:05:00Z</time></trkpt><trkpt lat="45.6086472764404" lon="10.526543103751926"><ele>113.0</ele><time>2026-03-28T17:05:01Z</time></trkpt><trkpt lat="45.6086262338012" lon="10.526310479919157"><ele>103.0</ele><time>2026-03-28T17:05:02Z</time></trkpt><trkpt lat="45.60863045075116" lon="10.526092027282909"><ele>102.33333333333334</ele><time>2026-03-28T17:05:03Z</time></trkpt><trkpt lat="45.608635411359536" lon="10.525861692702954"><ele>101.66666666666666</ele><time>2026-03-28T17:05:04Z</time></trkpt><trkpt lat="45.60866379831286" lon="10.525607904491878"><ele>101.0</ele><time>2026-03-28T17:05:05Z</time></trkpt><trkpt lat="45.60868121055391" lon="10.525294895780371"><ele>111.66666666666666</ele><time>2026-03-28T17:05:06Z</time></trkpt><trkpt lat="45.60869977059891" lon="10.524975956221944"><ele>122.33333333333334</ele><time>2026-03-28T17:05:07Z</time></trkpt><trkpt lat="45.60871748978165" lon="10.524682169923661"><ele>133.0</ele><time>2026-03-28T17:05:08Z</time></trkpt><trkpt lat="45.60871571240825" lon="10.52441963589766"><ele>133.0</ele><time>2026-03-28T17:05:09Z</time></trkpt><trkpt lat="45.608741736576974" lon="10.52417325495938"><ele>133.0</ele><time>2026-03-28T17:05:10Z</time></trkpt><trkpt lat="45.60875384968133" lon="10.523917881849096"><ele>133.0</ele><time>2026-03-28T17:05:11Z</time></trkpt><trkpt lat="45.608763132710834" lon="10.523677029097485"><ele>132.0</ele><time>2026-03-28T17:05:12Z</time></trkpt><trkpt lat="45.60875881257161" lon="10.52343482160858"><ele>131.0</ele><time>2026-03-28T17:05:13Z</time></trkpt><trkpt lat="45.60872369961977" lon="10.523180522456098"><ele>130.0</ele><time>2026-03-28T17:05:14Z</time></trkpt><trkpt lat="45.60866335329056" lon="10.522942960031767"><ele>123.25</ele><time>2026-03-28T17:05:15Z</time></trkpt><trkpt lat="45.60860360189578" lon="10.522763260099758"><ele>116.5</ele><time>2026-03-28T17:05:16Z</time></trkpt><trkpt lat="45.6085554093579" lon="10.522597201510708"><ele>109.75</ele><time>2026-03-28T17:05:17Z</time></trkpt><trkpt lat="45.60853657604123" lon="10.522414106422461"><ele>103.0</ele><time>2026-03-28T17:05:18Z</time></trkpt><trkpt lat="45.60852751303533" lon="10.522234237601731"><ele>101.5</ele><time>2026-03-28T17:05:19Z</time></trkpt><trkpt lat="45.608549497441494" lon="10.522048221356343"><ele>100.0</ele><time>2026-03-28T17:05:20Z</time></trkpt><trkpt lat="45.60858990095707" lon="10.521864329828986"><ele>98.5</ele><time>2026-03-28T17:05:21Z</time></trkpt><trkpt lat="45.60866511075944" lon="10.521688826880252"><ele>97.0</ele><time>2026-03-28T17:05:22Z</time></trkpt><trkpt lat="45.608779977342486" lon="10.521497515800007"><ele>101.5</ele><time>2026-03-28T17:05:23Z</time></trkpt><trkpt lat="45.60894359602001" lon="10.521277511325495"><ele>106.0</ele><time>2026-03-28T17:05:24Z</time></trkpt><trkpt lat="45.60910220595623" lon="10.521046635003556"><ele>106.0</ele><time>2026-03-28T17:05:25Z</time></trkpt><trkpt lat="45.60923548553425" lon="10.520829539727542"><ele>106.0</ele><time>2026-03-28T17:05:26Z</time></trkpt><trkpt lat="45.60937483057986" lon="10.52064287826123"><ele>106.0</ele><time>2026-03-28T17:05:27Z</time></trkpt><trkpt lat="45.60950994528836" lon="10.520439441619665"><ele>107.66666666666667</ele><time>2026-03-28T17:05:28Z</time></trkpt><trkpt lat="45.609636544043866" lon="10.520240895400036"><ele>109.33333333333334</ele><time>2026-03-28T17:05:29Z</time></trkpt><trkpt lat="45.609750204458585" lon="10.52002531101135"><ele>111.0</ele><time>2026-03-28T17:05:30Z</time></trkpt><trkpt lat="45.60985166547374" lon="10.5197963019327"><ele>111.0</ele><time>2026-03-28T17:05:31Z</time></trkpt><trkpt lat="45.609966953916654" lon="10.519585539312054"><ele>111.0</ele><time>2026-03-28T17:05:32Z</time></trkpt><trkpt lat="45.610041102376876" lon="10.519355664179951"><ele>111.0</ele><time>2026-03-28T17:05:33Z</time></trkpt><trkpt lat="45.610130390163526" lon="10.519124486797283"><ele>110.0</ele><time>2026-03-28T17:05:34Z</time></trkpt><trkpt lat="45.61020336661247" lon="10.518871922508717"><ele>109.0</ele><time>2026-03-28T17:05:35Z</time></trkpt><trkpt lat="45.61028889153589" lon="10.51860631326159"><ele>108.0</ele><time>2026-03-28T17:05:36Z</time></trkpt><trkpt lat="45.610360182852084" lon="10.51829090045071"><ele>113.0</ele><time>2026-03-28T17:05:37Z</time></trkpt><trkpt lat="45.61043040931711" lon="10.517968751130923"><ele>118.0</ele><time>2026-03-28T17:05:38Z</time></trkpt><trkpt lat="45.61050023404772" lon="10.517651353291996"><ele>118.66666666666667</ele><time>2026-03-28T17:05:39Z</time></trkpt><trkpt lat="45.61055215099331" lon="10.51734559381072"><ele>119.33333333333334</ele><time>2026-03-28T17:05:40Z</time></trkpt><trkpt lat="45.610613534864605" lon="10.517070573664197"><ele>120.0</ele><time>2026-03-28T17:05:41Z</time></trkpt><trkpt lat="45.61067345890483" lon="10.516795558275174"><ele>118.66666666666666</ele><time>2026-03-28T17:05:42Z</time></trkpt><trkpt lat="45.61074389907928" lon="10.516541257078467"><ele>117.33333333333333</ele><time>2026-03-28T17:05:43Z</time></trkpt><trkpt lat="45.610800845534264" lon="10.516279834291021"><ele>116.0</ele><time>2026-03-28T17:05:44Z</time></trkpt><trkpt lat="45.61085607214976" lon="10.5160265142605"><ele>114.66666666666666</ele><time>2026-03-28T17:05:45Z</time></trkpt><trkpt lat="45.61091329980475" lon="10.515764343964205"><ele>113.33333333333334</ele><time>2026-03-28T17:05:46Z</time></trkpt><trkpt lat="45.61097209986092" lon="10.515494969808103"><ele>112.0</ele><time>2026-03-28T17:05:47Z</time></trkpt><trkpt lat="45.611032905293" lon="10.515216408931046"><ele>110.5</ele><time>2026-03-28T17:05:48Z</time></trkpt><trkpt lat="45.61109900791936" lon="10.51491358032815"><ele>109.0</ele><time>2026-03-28T17:05:49Z</time></trkpt><trkpt lat="45.611139790971805" lon="10.514591912749635"><ele>112.33333333333334</ele><time>2026-03-28T17:05:50Z</time></trkpt><trkpt lat="45.611214103464604" lon="10.514316428114846"><ele>115.66666666666666</ele><time>2026-03-28T17:05:51Z</time></trkpt><trkpt lat="45.61127174085373" lon="10.514065481901145"><ele>119.0</ele><time>2026-03-28T17:05:52Z</time></trkpt><trkpt lat="45.61132456684852" lon="10.513830228948036"><ele>118.0</ele><time>2026-03-28T17:05:53Z</time></trkpt><trkpt lat="45.611370498323616" lon="10.513618295235023"><ele>117.0</ele><time>2026-03-28T17:05:54Z</time></trkpt><trkpt lat="45.61141766079743" lon="10.51339430214467"><ele>116.0</ele><time>2026-03-28T17:05:55Z</time></trkpt><trkpt lat="45.61146826326856" lon="10.513167511518908"><ele>116.0</ele><time>2026-03-28T17:05:56Z</time></trkpt><trkpt lat="45.611518485700614" lon="10.512940990528165"><ele>116.0</ele><time>2026-03-28T17:05:57Z</time></trkpt><trkpt lat="45.61156577212307" lon="10.512737043151228"><ele>116.0</ele><time>2026-03-28T17:05:58Z</time></trkpt><trkpt lat="45.611610624864014" lon="10.512591217675325"><ele>116.0</ele><time>2026-03-28T17:05:59Z</time></trkpt><trkpt lat="45.61163944305707" lon="10.512459683220001"><ele>115.85714285714288</ele><time>2026-03-28T17:06:00Z</time></trkpt><trkpt lat="45.611663378575955" lon="10.512350123202088"><ele>115.71428571428572</ele><time>2026-03-28T17:06:01Z</time></trkpt><trkpt lat="45.611670885427955" lon="10.512242542770899"><ele>115.57142857142857</ele><time>2026-03-28T17:06:02Z</time></trkpt><trkpt lat="45.61169624845496" lon="10.512145214576005"><ele>115.42857142857143</ele><time>2026-03-28T17:06:03Z</time></trkpt><trkpt lat="45.61171308144208" lon="10.512056337179214"><ele>115.28571428571428</ele><time>2026-03-28T17:06:04Z</time></trkpt><trkpt lat="45.61173461150352" lon="10.511970076341562"><ele>115.14285714285712</ele><time>2026-03-28T17:06:05Z</time></trkpt><trkpt lat="45.611758689260526" lon="10.51187526097687"><ele>114.99999999999999</ele><time>2026-03-28T17:06:06Z</time></trkpt><trkpt lat="45.611783447287955" lon="10.511766498628635"><ele>114.50000000000001</ele><time>2026-03-28T17:06:07Z</time></trkpt><trkpt lat="45.611805440550114" lon="10.511660807497126"><ele>114.0</ele><time>2026-03-28T17:06:08Z</time></trkpt><trkpt lat="45.61181932950979" lon="10.51155319710011"><ele>113.5</ele><time>2026-03-28T17:06:09Z</time></trkpt><trkpt lat="45.61183432412497" lon="10.511431373712995"><ele>113.0</ele><time>2026-03-28T17:06:10Z</time></trkpt><trkpt lat="45.611845329711535" lon="10.51132261085014"><ele>112.50000000000001</ele><time>2026-03-28T17:06:11Z</time></trkpt><trkpt lat="45.6118904310365" lon="10.511215906642008"><ele>112.0</ele><time>2026-03-28T17:06:12Z</time></trkpt><trkpt lat="45.611899498746865" lon="10.511080024569866"><ele>111.50000000000001</ele><time>2026-03-28T17:06:13Z</time></trkpt><trkpt lat="45.61190674510477" lon="10.51096045153123"><ele>111.0</ele><time>2026-03-28T17:06:14Z</time></trkpt><trkpt lat="45.61191269090732" lon="10.510865018003642"><ele>110.5</ele><time>2026-03-28T17:06:15Z</time></trkpt><trkpt lat="45.611899867092134" lon="10.510710436294316"><ele>110.0</ele><time>2026-03-28T17:06:17Z</time></trkpt><trkpt lat="45.61192236878501" lon="10.51060998340777"><ele>109.50000000000001</ele><time>2026-03-28T17:06:20Z</time></trkpt><trkpt lat="45.611964292804046" lon="10.510511700539608"><ele>109.0</ele><time>2026-03-28T17:06:23Z</time></trkpt><trkpt lat="45.612021282281205" lon="10.510368495081178"><ele>109.50000000000001</ele><time>2026-03-28T17:06:25Z</time></trkpt><trkpt lat="45.61204148965491" lon="10.510216311103052"><ele>110.0</ele><time>2026-03-28T17:06:27Z</time></trkpt><trkpt lat="45.61201895983118" lon="10.510131221304688"><ele>110.5</ele><time>2026-03-28T17:06:28Z</time></trkpt><trkpt lat="45.61196555854581" lon="10.51003724172516"><ele>111.0</ele><time>2026-03-28T17:06:29Z</time></trkpt><trkpt lat="45.611907812087665" lon="10.509960732686075"><ele>111.50000000000001</ele><time>2026-03-28T17:06:30Z</time></trkpt><trkpt lat="45.61185064136066" lon="10.509887235083585"><ele>112.0</ele><time>2026-03-28T17:06:31Z</time></trkpt><trkpt lat="45.61179275165375" lon="10.509762767338753"><ele>112.0</ele><time>2026-03-28T17:06:32Z</time></trkpt><trkpt lat="45.61177711717992" lon="10.509607113970613"><ele>111.99999999999999</ele><time>2026-03-28T17:06:33Z</time></trkpt><trkpt lat="45.61173809109581" lon="10.509467759415724"><ele>111.99999999999999</ele><time>2026-03-28T17:06:34Z</time></trkpt><trkpt lat="45.61169055464808" lon="10.509324364750617"><ele>112.0</ele><time>2026-03-28T17:06:35Z</time></trkpt><trkpt lat="45.61164159117051" lon="10.509188780969335"><ele>112.0</ele><time>2026-03-28T17:06:36Z</time></trkpt><trkpt lat="45.61158748520914" lon="10.509045874959863"><ele>113.25</ele><time>2026-03-28T17:06:37Z</time></trkpt><trkpt lat="45.61153283990958" lon="10.508912631939316"><ele>114.5</ele><time>2026-03-28T17:06:38Z</time></trkpt><trkpt lat="45.61148025089112" lon="10.50878532647541"><ele>115.75</ele><time>2026-03-28T17:06:39Z</time></trkpt><trkpt lat="45.61141702976141" lon="10.508632283984104"><ele>117.0</ele><time>2026-03-28T17:06:40Z</time></trkpt><trkpt lat="45.61133029379072" lon="10.50842287478914"><ele>115.66666666666666</ele><time>2026-03-28T17:06:41Z</time></trkpt><trkpt lat="45.61123267266217" lon="10.508187285879039"><ele>114.33333333333333</ele><time>2026-03-28T17:06:42Z</time></trkpt><trkpt lat="45.611143309048664" lon="10.50797162463601"><ele>113.0</ele><time>2026-03-28T17:06:43Z</time></trkpt><trkpt lat="45.611059636421224" lon="10.507769704253972"><ele>113.0</ele><time>2026-03-28T17:06:44Z</time></trkpt><trkpt lat="45.61097235049203" lon="10.507559072321328"><ele>113.0</ele><time>2026-03-28T17:06:45Z</time></trkpt><trkpt lat="45.61086984421541" lon="10.507311711989361"><ele>113.0</ele><time>2026-03-28T17:06:46Z</time></trkpt><trkpt lat="45.610763535895224" lon="10.50705517676031"><ele>117.66666666666666</ele><time>2026-03-28T17:06:47Z</time></trkpt><trkpt lat="45.61065282277466" lon="10.506835248330095"><ele>122.33333333333334</ele><time>2026-03-28T17:06:48Z</time></trkpt><trkpt lat="45.61057999462321" lon="10.506618733411418"><ele>127.0</ele><time>2026-03-28T17:06:49Z</time></trkpt><trkpt lat="45.61051990428433" lon="10.506427073942188"><ele>130.0</ele><time>2026-03-28T17:06:50Z</time></trkpt><trkpt lat="45.61047197146655" lon="10.506232520488641"><ele>133.0</ele><time>2026-03-28T17:06:51Z</time></trkpt><trkpt lat="45.61044259326998" lon="10.506055901408205"><ele>136.0</ele><time>2026-03-28T17:06:52Z</time></trkpt><trkpt lat="45.610433518234295" lon="10.505866040869526"><ele>139.0</ele><time>2026-03-28T17:06:53Z</time></trkpt><trkpt lat="45.61040790531676" lon="10.505705785544537"><ele>139.0</ele><time>2026-03-28T17:06:54Z</time></trkpt><trkpt lat="45.61042046924486" lon="10.50555364387457"><ele>139.0</ele><time>2026-03-28T17:06:55Z</time></trkpt><trkpt lat="45.61042272311024" lon="10.505414393758613"><ele>139.0</ele><time>2026-03-28T17:06:56Z</time></trkpt><trkpt lat="45.61043091648094" lon="10.505264497864063"><ele>139.0</ele><time>2026-03-28T17:06:57Z</time></trkpt><trkpt lat="45.610445571691336" lon="10.505116984650806"><ele>139.0</ele><time>2026-03-28T17:06:58Z</time></trkpt><trkpt lat="45.610464011039056" lon="10.504974008617497"><ele>139.5</ele><time>2026-03-28T17:06:59Z</time></trkpt><trkpt lat="45.610483046035334" lon="10.504828814935506"><ele>140.0</ele><time>2026-03-28T17:07:00Z</time></trkpt><trkpt lat="45.610506262980095" lon="10.50466537422933"><ele>140.5</ele><time>2026-03-28T17:07:01Z</time></trkpt><trkpt lat="45.61053002141152" lon="10.504491123686815"><ele>141.0</ele><time>2026-03-28T17:07:02Z</time></trkpt><trkpt lat="45.61055615066517" lon="10.50429852075061"><ele>136.66666666666666</ele><time>2026-03-28T17:07:03Z</time></trkpt><trkpt lat="45.610584759231784" lon="10.504091820658857"><ele>132.33333333333331</ele><time>2026-03-28T17:07:04Z</time></trkpt><trkpt lat="45.610614676788" lon="10.503874208416763"><ele>128.0</ele><time>2026-03-28T17:07:05Z</time></trkpt><trkpt lat="45.61064502112014" lon="10.50365085718035"><ele>125.25</ele><time>2026-03-28T17:07:06Z</time></trkpt><trkpt lat="45.61067681598156" lon="10.503416891458077"><ele>122.5</ele><time>2026-03-28T17:07:07Z</time></trkpt><trkpt lat="45.61070478417442" lon="10.503204782955747"><ele>119.75</ele><time>2026-03-28T17:07:08Z</time></trkpt><trkpt lat="45.61072689654111" lon="10.503043531486785"><ele>117.0</ele><time>2026-03-28T17:07:09Z</time></trkpt><trkpt lat="45.61074502349457" lon="10.502917746576868"><ele>118.33333333333333</ele><time>2026-03-28T17:07:10Z</time></trkpt><trkpt lat="45.61075927490459" lon="10.50281494687817"><ele>119.66666666666666</ele><time>2026-03-28T17:07:11Z</time></trkpt><trkpt lat="45.610771110259975" lon="10.502723649676318"><ele>121.0</ele><time>2026-03-28T17:07:12Z</time></trkpt><trkpt lat="45.61078299827745" lon="10.502621819536875"><ele>122.33333333333333</ele><time>2026-03-28T17:07:13Z</time></trkpt><trkpt lat="45.61079741307352" lon="10.502487091194187"><ele>123.66666666666666</ele><time>2026-03-28T17:07:14Z</time></trkpt><trkpt lat="45.61081218727405" lon="10.502325310332838"><ele>125.0</ele><time>2026-03-28T17:07:15Z</time></trkpt><trkpt lat="45.61081448315262" lon="10.502161312088296"><ele>127.75</ele><time>2026-03-28T17:07:16Z</time></trkpt><trkpt lat="45.61080296040664" lon="10.501976754145963"><ele>130.5</ele><time>2026-03-28T17:07:17Z</time></trkpt><trkpt lat="45.61078691579462" lon="10.50179665338906"><ele>133.25</ele><time>2026-03-28T17:07:18Z</time></trkpt><trkpt lat="45.61077002964425" lon="10.50164182524828"><ele>136.0</ele><time>2026-03-28T17:07:19Z</time></trkpt><trkpt lat="45.61075503062997" lon="10.50152206696609"><ele>136.0</ele><time>2026-03-28T17:07:20Z</time></trkpt><trkpt lat="45.610736902159886" lon="10.501390526775303"><ele>136.0</ele><time>2026-03-28T17:07:21Z</time></trkpt><trkpt lat="45.61070157055292" lon="10.501246070487506"><ele>136.0</ele><time>2026-03-28T17:07:22Z</time></trkpt><trkpt lat="45.610711577940144" lon="10.501088168259075"><ele>136.0</ele><time>2026-03-28T17:07:23Z</time></trkpt><trkpt lat="45.610740734484175" lon="10.500925640750769"><ele>136.0</ele><time>2026-03-28T17:07:24Z</time></trkpt><trkpt lat="45.610753458632075" lon="10.50078833078398"><ele>136.66666666666669</ele><time>2026-03-28T17:07:25Z</time></trkpt><trkpt lat="45.61073900573432" lon="10.500665171778271"><ele>137.33333333333334</ele><time>2026-03-28T17:07:26Z</time></trkpt><trkpt lat="45.61069222808527" lon="10.500569515660565"><ele>138.0</ele><time>2026-03-28T17:07:27Z</time></trkpt><trkpt lat="45.610619011953304" lon="10.50049307641454"><ele>138.66666666666666</ele><time>2026-03-28T17:07:28Z</time></trkpt><trkpt lat="45.61053481967289" lon="10.50046461150348"><ele>139.33333333333331</ele><time>2026-03-28T17:07:29Z</time></trkpt><trkpt lat="45.61046504954505" lon="10.500499146551295"><ele>140.0</ele><time>2026-03-28T17:07:30Z</time></trkpt><trkpt lat="45.61041667054783" lon="10.500574001717577"><ele>140.0</ele><time>2026-03-28T17:07:31Z</time></trkpt><trkpt lat="45.61039055883277" lon="10.500660769088364"><ele>140.0</ele><time>2026-03-28T17:07:32Z</time></trkpt><trkpt lat="45.61035018520854" lon="10.500797517455911"><ele>140.0</ele><time>2026-03-28T17:07:34Z</time></trkpt><trkpt lat="45.61029042986349" lon="10.500846522805153"><ele>140.0</ele><time>2026-03-28T17:07:35Z</time></trkpt><trkpt lat="45.61018800410921" lon="10.500904530511047"><ele>140.0</ele><time>2026-03-28T17:07:36Z</time></trkpt><trkpt lat="45.61006185988121" lon="10.500885454188756"><ele>137.66666666666666</ele><time>2026-03-28T17:07:37Z</time></trkpt><trkpt lat="45.60993422916439" lon="10.500844872209242"><ele>135.33333333333334</ele><time>2026-03-28T17:07:38Z</time></trkpt><trkpt lat="45.609770198746446" lon="10.500793221640334"><ele>133.0</ele><time>2026-03-28T17:07:39Z</time></trkpt><trkpt lat="45.609573295675546" lon="10.50072224111932"><ele>127.33333333333334</ele><time>2026-03-28T17:07:40Z</time></trkpt><trkpt lat="45.60936135192123" lon="10.500629285890646"><ele>121.66666666666666</ele><time>2026-03-28T17:07:41Z</time></trkpt><trkpt lat="45.60915876348215" lon="10.500554648077784"><ele>116.0</ele><time>2026-03-28T17:07:42Z</time></trkpt><trkpt lat="45.60895257828788" lon="10.500483136037268"><ele>116.0</ele><time>2026-03-28T17:07:43Z</time></trkpt><trkpt lat="45.60872818550106" lon="10.500441750079988"><ele>116.0</ele><time>2026-03-28T17:07:44Z</time></trkpt><trkpt lat="45.60850155229788" lon="10.500439474033106"><ele>121.0</ele><time>2026-03-28T17:07:45Z</time></trkpt><trkpt lat="45.60827025831492" lon="10.500475576593182"><ele>126.0</ele><time>2026-03-28T17:07:46Z</time></trkpt><trkpt lat="45.60804217248507" lon="10.500535463090442"><ele>131.0</ele><time>2026-03-28T17:07:47Z</time></trkpt><trkpt lat="45.6078149489831" lon="10.500625804565935"><ele>136.0</ele><time>2026-03-28T17:07:48Z</time></trkpt><trkpt lat="45.6075923691085" lon="10.50073417535924"><ele>136.0</ele><time>2026-03-28T17:07:49Z</time></trkpt><trkpt lat="45.60737180116978" lon="10.500856829081549"><ele>136.0</ele><time>2026-03-28T17:07:50.019Z</time></trkpt><trkpt lat="45.60715916673903" lon="10.50096686163543"><ele>136.66666666666669</ele><time>2026-03-28T17:07:51.017Z</time></trkpt><trkpt lat="45.60696154371469" lon="10.50112801796536"><ele>137.33333333333334</ele><time>2026-03-28T17:07:52.018Z</time></trkpt><trkpt lat="45.60680801791821" lon="10.50131556569887"><ele>138.0</ele><time>2026-03-28T17:07:53.018Z</time></trkpt><trkpt lat="45.6066761661012" lon="10.501510431359428"><ele>112.0</ele><time>2026-03-28T17:07:54.017Z</time></trkpt><trkpt lat="45.606382959564776" lon="10.503296814868696"><ele>112.0</ele><time>2026-03-28T17:08:01Z</time></trkpt><trkpt lat="45.60639460990034" lon="10.503542368161323"><ele>112.0</ele><time>2026-03-28T17:08:02Z</time></trkpt><trkpt lat="45.60646912606564" lon="10.503743157061312"><ele>112.0</ele><time>2026-03-28T17:08:03Z</time></trkpt><trkpt lat="45.606515822776046" lon="10.50390027463208"><ele>110.8</ele><time>2026-03-28T17:08:04Z</time></trkpt><trkpt lat="45.60654731469995" lon="10.504026743739736"><ele>109.6</ele><time>2026-03-28T17:08:05Z</time></trkpt><trkpt lat="45.60655113728767" lon="10.504152921225103"><ele>108.39999999999999</ele><time>2026-03-28T17:08:06Z</time></trkpt><trkpt lat="45.60653761890919" lon="10.50425952988542"><ele>107.19999999999999</ele><time>2026-03-28T17:08:07Z</time></trkpt><trkpt lat="45.60650092069161" lon="10.504412899498952"><ele>106.0</ele><time>2026-03-28T17:08:08Z</time></trkpt><trkpt lat="45.60644650016327" lon="10.504560092727077"><ele>105.33333333333334</ele><time>2026-03-28T17:08:09Z</time></trkpt><trkpt lat="45.606332126480055" lon="10.504708801455038"><ele>104.66666666666666</ele><time>2026-03-28T17:08:10Z</time></trkpt><trkpt lat="45.60619106336976" lon="10.504840952563692"><ele>104.0</ele><time>2026-03-28T17:08:11Z</time></trkpt><trkpt lat="45.60601426332009" lon="10.504960949974238"><ele>104.0</ele><time>2026-03-28T17:08:12Z</time></trkpt><trkpt lat="45.605863487987286" lon="10.505051052203264"><ele>104.0</ele><time>2026-03-28T17:08:13Z</time></trkpt><trkpt lat="45.60571188107707" lon="10.505165448502403"><ele>104.0</ele><time>2026-03-28T17:08:14Z</time></trkpt><trkpt lat="45.60556710887093" lon="10.50524835133477"><ele>104.0</ele><time>2026-03-28T17:08:15Z</time></trkpt><trkpt lat="45.60541751314069" lon="10.50534115935768"><ele>104.0</ele><time>2026-03-28T17:08:16Z</time></trkpt><trkpt lat="45.605264298671166" lon="10.505430435022095"><ele>104.0</ele><time>2026-03-28T17:08:17Z</time></trkpt><trkpt lat="45.60509887843127" lon="10.505527116490674"><ele>105.66666666666666</ele><time>2026-03-28T17:08:18Z</time></trkpt><trkpt lat="45.60493171477443" lon="10.505630514529885"><ele>107.33333333333334</ele><time>2026-03-28T17:08:19Z</time></trkpt><trkpt lat="45.6047628008607" lon="10.50573404715565"><ele>109.0</ele><time>2026-03-28T17:08:20Z</time></trkpt><trkpt lat="45.60459375347692" lon="10.505836824286483"><ele>111.0</ele><time>2026-03-28T17:08:21Z</time></trkpt><trkpt lat="45.60442597939552" lon="10.505911059673942"><ele>113.0</ele><time>2026-03-28T17:08:22Z</time></trkpt><trkpt lat="45.60425968782447" lon="10.506010087142558"><ele>115.0</ele><time>2026-03-28T17:08:23Z</time></trkpt><trkpt lat="45.604086604431906" lon="10.506133190574984"><ele>115.0</ele><time>2026-03-28T17:08:24Z</time></trkpt><trkpt lat="45.60390724937722" lon="10.506239412471507"><ele>115.0</ele><time>2026-03-28T17:08:25Z</time></trkpt><trkpt lat="45.603719679957074" lon="10.506352108829914"><ele>115.0</ele><time>2026-03-28T17:08:26Z</time></trkpt><trkpt lat="45.60353234549206" lon="10.506464509080104"><ele>113.75</ele><time>2026-03-28T17:08:27Z</time></trkpt><trkpt lat="45.60336219651355" lon="10.506562558897524"><ele>112.5</ele><time>2026-03-28T17:08:28Z</time></trkpt><trkpt lat="45.60325248640086" lon="10.506621584679685"><ele>111.25</ele><time>2026-03-28T17:08:29Z</time></trkpt><trkpt lat="45.60316118915573" lon="10.506663362360733"><ele>110.0</ele><time>2026-03-28T17:08:30Z</time></trkpt><trkpt lat="45.603073295167846" lon="10.50670957809472"><ele>110.0</ele><time>2026-03-28T17:08:31Z</time></trkpt><trkpt lat="45.602964150887" lon="10.506774384634523"><ele>110.0</ele><time>2026-03-28T17:08:32Z</time></trkpt><trkpt lat="45.60283566179788" lon="10.50687185331003"><ele>110.0</ele><time>2026-03-28T17:08:33Z</time></trkpt><trkpt lat="45.602667834969694" lon="10.50697084621495"><ele>110.0</ele><time>2026-03-28T17:08:34Z</time></trkpt><trkpt lat="45.60247286460533" lon="10.5071082927754"><ele>112.0</ele><time>2026-03-28T17:08:35Z</time></trkpt><trkpt lat="45.60225509783667" lon="10.507297071094987"><ele>114.0</ele><time>2026-03-28T17:08:36Z</time></trkpt><trkpt lat="45.60202903219719" lon="10.507465639929901"><ele>116.0</ele><time>2026-03-28T17:08:37Z</time></trkpt><trkpt lat="45.60183962524357" lon="10.507612458534444"><ele>118.0</ele><time>2026-03-28T17:08:38Z</time></trkpt><trkpt lat="45.60166745852286" lon="10.507743006717542"><ele>120.0</ele><time>2026-03-28T17:08:39Z</time></trkpt><trkpt lat="45.60150569495756" lon="10.507865274847223"><ele>117.66666666666666</ele><time>2026-03-28T17:08:40Z</time></trkpt><trkpt lat="45.60132677530986" lon="10.507974098169992"><ele>115.33333333333333</ele><time>2026-03-28T17:08:41Z</time></trkpt><trkpt lat="45.601133404293414" lon="10.50802309078728"><ele>113.0</ele><time>2026-03-28T17:08:42Z</time></trkpt><trkpt lat="45.60094992422244" lon="10.508042354300938"><ele>113.0</ele><time>2026-03-28T17:08:43Z</time></trkpt><trkpt lat="45.60076121833598" lon="10.508032411736796"><ele>113.0</ele><time>2026-03-28T17:08:44Z</time></trkpt><trkpt lat="45.60058159896432" lon="10.50798530915535"><ele>113.0</ele><time>2026-03-28T17:08:45Z</time></trkpt><trkpt lat="45.60038522376928" lon="10.5078900299536"><ele>118.0</ele><time>2026-03-28T17:08:46Z</time></trkpt><trkpt lat="45.60017224062984" lon="10.50776213518772"><ele>123.0</ele><time>2026-03-28T17:08:47Z</time></trkpt><trkpt lat="45.59995465130307" lon="10.50764699370032"><ele>123.0</ele><time>2026-03-28T17:08:48Z</time></trkpt><trkpt lat="45.59977477196691" lon="10.507540136685309"><ele>123.0</ele><time>2026-03-28T17:08:49Z</time></trkpt><trkpt lat="45.59959940901808" lon="10.507492305323796"><ele>123.0</ele><time>2026-03-28T17:08:50Z</time></trkpt><trkpt lat="45.59940612397161" lon="10.50749415647946"><ele>125.5</ele><time>2026-03-28T17:08:51Z</time></trkpt><trkpt lat="45.59918423846588" lon="10.507547996886501"><ele>128.0</ele><time>2026-03-28T17:08:52Z</time></trkpt><trkpt lat="45.59892898862533" lon="10.507634440672549"><ele>129.5</ele><time>2026-03-28T17:08:53Z</time></trkpt><trkpt lat="45.59865679691706" lon="10.507745988526404"><ele>131.0</ele><time>2026-03-28T17:08:54Z</time></trkpt><trkpt lat="45.59836820806901" lon="10.507857921027039"><ele>125.0</ele><time>2026-03-28T17:08:55Z</time></trkpt><trkpt lat="45.59809256755857" lon="10.507927900367456"><ele>119.0</ele><time>2026-03-28T17:08:56Z</time></trkpt><trkpt lat="45.59784801248744" lon="10.508013414777908"><ele>121.5</ele><time>2026-03-28T17:08:57Z</time></trkpt><trkpt lat="45.597610824859586" lon="10.508097868702333"><ele>124.0</ele><time>2026-03-28T17:08:58Z</time></trkpt><trkpt lat="45.597370681774194" lon="10.508193118899982"><ele>124.0</ele><time>2026-03-28T17:08:59Z</time></trkpt><trkpt lat="45.59712364735347" lon="10.508266440143673"><ele>124.0</ele><time>2026-03-28T17:09:00Z</time></trkpt><trkpt lat="45.59688402265288" lon="10.508339320063875"><ele>124.33333333333334</ele><time>2026-03-28T17:09:01Z</time></trkpt><trkpt lat="45.59666902949193" lon="10.50840838763343"><ele>124.66666666666666</ele><time>2026-03-28T17:09:02Z</time></trkpt><trkpt lat="45.59648609644701" lon="10.508475574233895"><ele>125.0</ele><time>2026-03-28T17:09:03Z</time></trkpt><trkpt lat="45.59631609170917" lon="10.50853829414039"><ele>127.0</ele><time>2026-03-28T17:09:04Z</time></trkpt><trkpt lat="45.59615851275442" lon="10.50862756855184"><ele>129.0</ele><time>2026-03-28T17:09:05Z</time></trkpt><trkpt lat="45.59600402747735" lon="10.508758913750922"><ele>131.0</ele><time>2026-03-28T17:09:06Z</time></trkpt><trkpt lat="45.59587496362412" lon="10.508918144863651"><ele>131.0</ele><time>2026-03-28T17:09:07Z</time></trkpt><trkpt lat="45.595770755709125" lon="10.509085612938485"><ele>131.0</ele><time>2026-03-28T17:09:08Z</time></trkpt><trkpt lat="45.595687891505264" lon="10.509255266272417"><ele>131.0</ele><time>2026-03-28T17:09:09Z</time></trkpt><trkpt lat="45.59562055524492" lon="10.509429870718321"><ele>131.0</ele><time>2026-03-28T17:09:10Z</time></trkpt><trkpt lat="45.59554828540604" lon="10.509626444250134"><ele>129.75</ele><time>2026-03-28T17:09:11Z</time></trkpt><trkpt lat="45.59547443065286" lon="10.509809344687229"><ele>128.5</ele><time>2026-03-28T17:09:12Z</time></trkpt><trkpt lat="45.59540093948935" lon="10.50998288286346"><ele>127.25</ele><time>2026-03-28T17:09:13Z</time></trkpt><trkpt lat="45.5953276000158" lon="10.51017423804199"><ele>126.0</ele><time>2026-03-28T17:09:14Z</time></trkpt><trkpt lat="45.59523593172142" lon="10.510387287887843"><ele>128.33333333333334</ele><time>2026-03-28T17:09:15Z</time></trkpt><trkpt lat="45.59512089606883" lon="10.510586649945628"><ele>130.66666666666669</ele><time>2026-03-28T17:09:16Z</time></trkpt><trkpt lat="45.59501012815039" lon="10.51076485756042"><ele>133.0</ele><time>2026-03-28T17:09:17Z</time></trkpt><trkpt lat="45.59489363323486" lon="10.510905152186112"><ele>133.0</ele><time>2026-03-28T17:09:18Z</time></trkpt><trkpt lat="45.594766664177726" lon="10.51102023266193"><ele>133.0</ele><time>2026-03-28T17:09:19Z</time></trkpt><trkpt lat="45.59463639960633" lon="10.51111489276482"><ele>133.0</ele><time>2026-03-28T17:09:20Z</time></trkpt><trkpt lat="45.594510654481404" lon="10.511189912462234"><ele>133.0</ele><time>2026-03-28T17:09:21Z</time></trkpt><trkpt lat="45.59439162693708" lon="10.511256915584626"><ele>133.25</ele><time>2026-03-28T17:09:22Z</time></trkpt><trkpt lat="45.594253609000035" lon="10.511334046837971"><ele>133.5</ele><time>2026-03-28T17:09:23Z</time></trkpt><trkpt lat="45.59413010810232" lon="10.5114030651555"><ele>133.75</ele><time>2026-03-28T17:09:24Z</time></trkpt><trkpt lat="45.59401454609893" lon="10.511465511876576"><ele>134.0</ele><time>2026-03-28T17:09:25Z</time></trkpt><trkpt lat="45.59389264889231" lon="10.511531843122627"><ele>134.0</ele><time>2026-03-28T17:09:26Z</time></trkpt><trkpt lat="45.59377580009128" lon="10.511598014437185"><ele>134.0</ele><time>2026-03-28T17:09:27Z</time></trkpt><trkpt lat="45.593660306768705" lon="10.51166341811222"><ele>134.0</ele><time>2026-03-28T17:09:28Z</time></trkpt><trkpt lat="45.59354167812975" lon="10.511742643238243"><ele>134.0</ele><time>2026-03-28T17:09:29Z</time></trkpt><trkpt lat="45.59344101486753" lon="10.511858758820063"><ele>134.25</ele><time>2026-03-28T17:09:30Z</time></trkpt><trkpt lat="45.59333977636438" lon="10.511983699309113"><ele>134.5</ele><time>2026-03-28T17:09:31Z</time></trkpt><trkpt lat="45.593251563993185" lon="10.512135377649395"><ele>134.75</ele><time>2026-03-28T17:09:32Z</time></trkpt><trkpt lat="45.59317978568393" lon="10.512301866481756"><ele>135.0</ele><time>2026-03-28T17:09:33Z</time></trkpt><trkpt lat="45.59312448197523" lon="10.51248083302048"><ele>135.0</ele><time>2026-03-28T17:09:34Z</time></trkpt><trkpt lat="45.59309231614997" lon="10.512681376940046"><ele>135.0</ele><time>2026-03-28T17:09:35Z</time></trkpt><trkpt lat="45.59308530287717" lon="10.512883995602785"><ele>135.0</ele><time>2026-03-28T17:09:36Z</time></trkpt><trkpt lat="45.59309476854978" lon="10.513090318245547"><ele>135.0</ele><time>2026-03-28T17:09:37Z</time></trkpt><trkpt lat="45.59312585411933" lon="10.513301679704874"><ele>135.66666666666666</ele><time>2026-03-28T17:09:38Z</time></trkpt><trkpt lat="45.59317732930184" lon="10.513513678310687"><ele>136.33333333333331</ele><time>2026-03-28T17:09:39Z</time></trkpt><trkpt lat="45.593232596242096" lon="10.513722918456553"><ele>137.0</ele><time>2026-03-28T17:09:40Z</time></trkpt><trkpt lat="45.593270576753056" lon="10.513960628209315"><ele>139.33333333333331</ele><time>2026-03-28T17:09:41Z</time></trkpt><trkpt lat="45.59332126833296" lon="10.51420108670917"><ele>141.66666666666666</ele><time>2026-03-28T17:09:42Z</time></trkpt><trkpt lat="45.59336873838327" lon="10.514426850722145"><ele>144.0</ele><time>2026-03-28T17:09:43Z</time></trkpt><trkpt lat="45.59342907890676" lon="10.51464155557655"><ele>145.5</ele><time>2026-03-28T17:09:44Z</time></trkpt><trkpt lat="45.59347304615778" lon="10.514858614180497"><ele>147.0</ele><time>2026-03-28T17:09:45Z</time></trkpt><trkpt lat="45.59350907260705" lon="10.515039729868288"><ele>148.5</ele><time>2026-03-28T17:09:46Z</time></trkpt><trkpt lat="45.59354161128631" lon="10.515200926379464"><ele>150.0</ele><time>2026-03-28T17:09:47Z</time></trkpt><trkpt lat="45.593571335495604" lon="10.51536383646745"><ele>151.0</ele><time>2026-03-28T17:09:48Z</time></trkpt><trkpt lat="45.59357503531072" lon="10.515541783662332"><ele>152.0</ele><time>2026-03-28T17:09:49Z</time></trkpt><trkpt lat="45.59359863781655" lon="10.515731419120439"><ele>153.0</ele><time>2026-03-28T17:09:50Z</time></trkpt><trkpt lat="45.59360525743316" lon="10.515937460279842"><ele>154.0</ele><time>2026-03-28T17:09:51Z</time></trkpt><trkpt lat="45.59357894090083" lon="10.516148206176524"><ele>152.66666666666669</ele><time>2026-03-28T17:09:52Z</time></trkpt><trkpt lat="45.59355239536499" lon="10.516374940619926"><ele>151.33333333333334</ele><time>2026-03-28T17:09:53Z</time></trkpt><trkpt lat="45.5935059281199" lon="10.516629524669128"><ele>150.0</ele><time>2026-03-28T17:09:54Z</time></trkpt><trkpt lat="45.593463184126534" lon="10.516856986960702"><ele>148.33333333333334</ele><time>2026-03-28T17:09:55Z</time></trkpt><trkpt lat="45.59341930395682" lon="10.51709143936619"><ele>146.66666666666669</ele><time>2026-03-28T17:09:56Z</time></trkpt><trkpt lat="45.59339043933718" lon="10.517332438060752"><ele>145.0</ele><time>2026-03-28T17:09:57Z</time></trkpt><trkpt lat="45.59334821127287" lon="10.517536707114678"><ele>145.0</ele><time>2026-03-28T17:09:58Z</time></trkpt><trkpt lat="45.593317200882346" lon="10.517714526721486"><ele>145.0</ele><time>2026-03-28T17:09:59Z</time></trkpt><trkpt lat="45.59328454954717" lon="10.517873240267438"><ele>145.0</ele><time>2026-03-28T17:10:00Z</time></trkpt><trkpt lat="45.593250013500544" lon="10.518025973037329"><ele>145.0</ele><time>2026-03-28T17:10:01Z</time></trkpt><trkpt lat="45.593219917348726" lon="10.51819889395659"><ele>144.75</ele><time>2026-03-28T17:10:02Z</time></trkpt><trkpt lat="45.593187269059975" lon="10.518371612740422"><ele>144.5</ele><time>2026-03-28T17:10:03Z</time></trkpt><trkpt lat="45.59315577769247" lon="10.518556071564696"><ele>144.25</ele><time>2026-03-28T17:10:04Z</time></trkpt><trkpt lat="45.59311505318786" lon="10.518771779848336"><ele>144.0</ele><time>2026-03-28T17:10:05Z</time></trkpt><trkpt lat="45.59306479796193" lon="10.519035968109058"><ele>144.5</ele><time>2026-03-28T17:10:06Z</time></trkpt><trkpt lat="45.59301685142958" lon="10.519258208013373"><ele>145.0</ele><time>2026-03-28T17:10:07Z</time></trkpt><trkpt lat="45.592980094232914" lon="10.519443309009798"><ele>145.5</ele><time>2026-03-28T17:10:08Z</time></trkpt><trkpt lat="45.592943541583814" lon="10.519630580768563"><ele>146.0</ele><time>2026-03-28T17:10:09Z</time></trkpt><trkpt lat="45.59289922923428" lon="10.519833483541094"><ele>150.33333333333331</ele><time>2026-03-28T17:10:10Z</time></trkpt><trkpt lat="45.592832354830506" lon="10.52003842034385"><ele>154.66666666666666</ele><time>2026-03-28T17:10:11Z</time></trkpt><trkpt lat="45.59275611225573" lon="10.520269396617458"><ele>159.0</ele><time>2026-03-28T17:10:12Z</time></trkpt><trkpt lat="45.59266403313646" lon="10.520504660511836"><ele>159.0</ele><time>2026-03-28T17:10:13Z</time></trkpt><trkpt lat="45.59256174348048" lon="10.520756799777441"><ele>159.0</ele><time>2026-03-28T17:10:14Z</time></trkpt><trkpt lat="45.59243224022834" lon="10.520997613616021"><ele>159.0</ele><time>2026-03-28T17:10:15Z</time></trkpt><trkpt lat="45.592305371139055" lon="10.521228317621322"><ele>157.0</ele><time>2026-03-28T17:10:16Z</time></trkpt><trkpt lat="45.59219714365564" lon="10.521429220763727"><ele>155.0</ele><time>2026-03-28T17:10:17Z</time></trkpt><trkpt lat="45.59210379171371" lon="10.521614775090887"><ele>153.0</ele><time>2026-03-28T17:10:18Z</time></trkpt><trkpt lat="45.59201398358164" lon="10.521792880262712"><ele>154.25</ele><time>2026-03-28T17:10:19Z</time></trkpt><trkpt lat="45.59193439223447" lon="10.52194672419053"><ele>155.5</ele><time>2026-03-28T17:10:20Z</time></trkpt><trkpt lat="45.59185034451265" lon="10.522098633540306"><ele>156.75</ele><time>2026-03-28T17:10:21Z</time></trkpt><trkpt lat="45.59177319877454" lon="10.522242226539902"><ele>158.0</ele><time>2026-03-28T17:10:22Z</time></trkpt><trkpt lat="45.591693167557445" lon="10.522366508197626"><ele>158.0</ele><time>2026-03-28T17:10:23Z</time></trkpt><trkpt lat="45.59161473917523" lon="10.522464987811327"><ele>158.0</ele><time>2026-03-28T17:10:24Z</time></trkpt><trkpt lat="45.59154074363191" lon="10.522537385330583"><ele>158.0</ele><time>2026-03-28T17:10:25Z</time></trkpt><trkpt lat="45.59148004190427" lon="10.522588813900397"><ele>158.0</ele><time>2026-03-28T17:10:26Z</time></trkpt><trkpt lat="45.59141732939121" lon="10.522629816649902"><ele>158.0</ele><time>2026-03-28T17:10:27Z</time></trkpt><trkpt lat="45.59131798189945" lon="10.522637140098828"><ele>158.0</ele><time>2026-03-28T17:10:29Z</time></trkpt><trkpt lat="45.59123295781389" lon="10.522636979017365"><ele>157.83333333333331</ele><time>2026-03-28T17:10:30Z</time></trkpt><trkpt lat="45.59114699361168" lon="10.52265896081457"><ele>157.66666666666666</ele><time>2026-03-28T17:10:31Z</time></trkpt><trkpt lat="45.591065212689855" lon="10.522724921389122"><ele>157.5</ele><time>2026-03-28T17:10:32Z</time></trkpt><trkpt lat="45.59099692960629" lon="10.522825029845535"><ele>157.33333333333334</ele><time>2026-03-28T17:10:33Z</time></trkpt><trkpt lat="45.59093719587931" lon="10.522919396459136"><ele>157.16666666666669</ele><time>2026-03-28T17:10:34Z</time></trkpt><trkpt lat="45.590877962021686" lon="10.522976680846483"><ele>157.0</ele><time>2026-03-28T17:10:35Z</time></trkpt><trkpt lat="45.59080639762857" lon="10.523007170061856"><ele>157.0</ele><time>2026-03-28T17:10:36Z</time></trkpt><trkpt lat="45.59071338402763" lon="10.522997510794006"><ele>157.0</ele><time>2026-03-28T17:10:37Z</time></trkpt><trkpt lat="45.59062389710338" lon="10.52294712236652"><ele>157.0</ele><time>2026-03-28T17:10:38Z</time></trkpt><trkpt lat="45.590517400667686" lon="10.522874701057564"><ele>157.0</ele><time>2026-03-28T17:10:39Z</time></trkpt><trkpt lat="45.59037913518722" lon="10.52276606950739"><ele>157.33333333333334</ele><time>2026-03-28T17:10:40Z</time></trkpt><trkpt lat="45.59020638759992" lon="10.522647341363934"><ele>157.66666666666666</ele><time>2026-03-28T17:10:41Z</time></trkpt><trkpt lat="45.59005176835174" lon="10.522499320289269"><ele>158.0</ele><time>2026-03-28T17:10:42Z</time></trkpt><trkpt lat="45.589902218466456" lon="10.52238368231797"><ele>158.0</ele><time>2026-03-28T17:10:43Z</time></trkpt><trkpt lat="45.5897493640388" lon="10.52226483535853"><ele>158.0</ele><time>2026-03-28T17:10:44Z</time></trkpt><trkpt lat="45.58959278773248" lon="10.522144514413004"><ele>158.0</ele><time>2026-03-28T17:10:45Z</time></trkpt><trkpt lat="45.58941317640194" lon="10.522049112354097"><ele>156.33333333333331</ele><time>2026-03-28T17:10:46Z</time></trkpt><trkpt lat="45.58925812799068" lon="10.521925295917466"><ele>154.66666666666666</ele><time>2026-03-28T17:10:47Z</time></trkpt><trkpt lat="45.589104496583815" lon="10.52180380767525"><ele>153.0</ele><time>2026-03-28T17:10:48Z</time></trkpt><trkpt lat="45.58894629940575" lon="10.521683082606545"><ele>153.0</ele><time>2026-03-28T17:10:49Z</time></trkpt><trkpt lat="45.588763035843094" lon="10.521549711962182"><ele>153.0</ele><time>2026-03-28T17:10:50Z</time></trkpt><trkpt lat="45.58854633443942" lon="10.521390149174954"><ele>153.0</ele><time>2026-03-28T17:10:51Z</time></trkpt><trkpt lat="45.58832952644668" lon="10.521225069724949"><ele>153.0</ele><time>2026-03-28T17:10:52Z</time></trkpt><trkpt lat="45.5881448040793" lon="10.521072192432506"><ele>153.0</ele><time>2026-03-28T17:10:53Z</time></trkpt><trkpt lat="45.58798656981765" lon="10.52091945837356"><ele>153.0</ele><time>2026-03-28T17:10:54Z</time></trkpt><trkpt lat="45.587853510947866" lon="10.520724450689476"><ele>152.66666666666666</ele><time>2026-03-28T17:10:55Z</time></trkpt><trkpt lat="45.5877266691195" lon="10.520531363832397"><ele>152.33333333333331</ele><time>2026-03-28T17:10:56Z</time></trkpt><trkpt lat="45.58762247303849" lon="10.520321133693512"><ele>152.0</ele><time>2026-03-28T17:10:57Z</time></trkpt><trkpt lat="45.58753683488487" lon="10.520075359239607"><ele>151.66666666666666</ele><time>2026-03-28T17:10:58Z</time></trkpt><trkpt lat="45.587457795164475" lon="10.519821508546183"><ele>151.33333333333334</ele><time>2026-03-28T17:10:59Z</time></trkpt><trkpt lat="45.587377616972255" lon="10.519558253459406"><ele>151.0</ele><time>2026-03-28T17:11:00Z</time></trkpt><trkpt lat="45.587299061238774" lon="10.519300325981165"><ele>151.0</ele><time>2026-03-28T17:11:01Z</time></trkpt><trkpt lat="45.58723140532729" lon="10.519078186298751"><ele>151.0</ele><time>2026-03-28T17:11:02Z</time></trkpt><trkpt lat="45.58716776245472" lon="10.518867375966822"><ele>151.0</ele><time>2026-03-28T17:11:03Z</time></trkpt><trkpt lat="45.58710944999841" lon="10.518672204591365"><ele>151.5</ele><time>2026-03-28T17:11:04Z</time></trkpt><trkpt lat="45.587045694071605" lon="10.518455657950705"><ele>152.0</ele><time>2026-03-28T17:11:05Z</time></trkpt><trkpt lat="45.58698702012814" lon="10.518254797726357"><ele>152.5</ele><time>2026-03-28T17:11:06Z</time></trkpt><trkpt lat="45.58692625815184" lon="10.518087349331617"><ele>153.0</ele><time>2026-03-28T17:11:07Z</time></trkpt><trkpt lat="45.58690321939034" lon="10.517930038064346"><ele>153.66666666666666</ele><time>2026-03-28T17:11:08Z</time></trkpt><trkpt lat="45.586893574398815" lon="10.517805263471445"><ele>154.33333333333334</ele><time>2026-03-28T17:11:09Z</time></trkpt><trkpt lat="45.58690354739953" lon="10.517698122194213"><ele>155.0</ele><time>2026-03-28T17:11:10Z</time></trkpt><trkpt lat="45.58693706845438" lon="10.517592893957346"><ele>155.66666666666669</ele><time>2026-03-28T17:11:11Z</time></trkpt><trkpt lat="45.5869781774071" lon="10.51748441478021"><ele>156.33333333333334</ele><time>2026-03-28T17:11:12Z</time></trkpt><trkpt lat="45.5869830247393" lon="10.517373640200264"><ele>157.0</ele><time>2026-03-28T17:11:13Z</time></trkpt><trkpt lat="45.58694823224892" lon="10.517271780037266"><ele>157.0</ele><time>2026-03-28T17:11:14Z</time></trkpt><trkpt lat="45.58688429075891" lon="10.517220146982634"><ele>157.0</ele><time>2026-03-28T17:11:15Z</time></trkpt><trkpt lat="45.58681156395266" lon="10.517199369991067"><ele>157.0</ele><time>2026-03-28T17:11:16Z</time></trkpt><trkpt lat="45.58672413787107" lon="10.517183618346206"><ele>157.0</ele><time>2026-03-28T17:11:17Z</time></trkpt><trkpt lat="45.586644837524744" lon="10.517125111796894"><ele>157.0</ele><time>2026-03-28T17:11:18Z</time></trkpt><trkpt lat="45.586581699865356" lon="10.517006188523379"><ele>157.0</ele><time>2026-03-28T17:11:19Z</time></trkpt><trkpt lat="45.58655087078993" lon="10.516808170941527"><ele>157.25</ele><time>2026-03-28T17:11:20Z</time></trkpt><trkpt lat="45.58648663271082" lon="10.516633069667515"><ele>157.5</ele><time>2026-03-28T17:11:21Z</time></trkpt><trkpt lat="45.586436986082724" lon="10.516497734678255"><ele>157.75</ele><time>2026-03-28T17:11:22Z</time></trkpt><trkpt lat="45.58639402338625" lon="10.51637403401187"><ele>158.0</ele><time>2026-03-28T17:11:23Z</time></trkpt><trkpt lat="45.58631793747284" lon="10.516250392390504"><ele>158.0</ele><time>2026-03-28T17:11:24Z</time></trkpt><trkpt lat="45.58624033636689" lon="10.516117715599048"><ele>158.0</ele><time>2026-03-28T17:11:25Z</time></trkpt><trkpt lat="45.5861462721845" lon="10.516000342761572"><ele>158.0</ele><time>2026-03-28T17:11:26Z</time></trkpt><trkpt lat="45.586033481721984" lon="10.515892777955926"><ele>158.0</ele><time>2026-03-28T17:11:27Z</time></trkpt><trkpt lat="45.585906748207464" lon="10.515800494619937"><ele>159.0</ele><time>2026-03-28T17:11:28Z</time></trkpt><trkpt lat="45.58578880194965" lon="10.515706482403003"><ele>160.0</ele><time>2026-03-28T17:11:29Z</time></trkpt><trkpt lat="45.58568445384464" lon="10.515640108026098"><ele>161.0</ele><time>2026-03-28T17:11:30Z</time></trkpt><trkpt lat="45.585586186459075" lon="10.515593818055612"><ele>162.0</ele><time>2026-03-28T17:11:31Z</time></trkpt><trkpt lat="45.58550543937487" lon="10.515495025151077"><ele>162.0</ele><time>2026-03-28T17:11:32Z</time></trkpt><trkpt lat="45.58544319123909" lon="10.51538734084393"><ele>162.0</ele><time>2026-03-28T17:11:33Z</time></trkpt><trkpt lat="45.585366104246596" lon="10.515357893721538"><ele>162.0</ele><time>2026-03-28T17:11:34Z</time></trkpt><trkpt lat="45.58530189140608" lon="10.515323834670841"><ele>162.0</ele><time>2026-03-28T17:11:35Z</time></trkpt><trkpt lat="45.58524025734824" lon="10.515296932651829"><ele>162.0</ele><time>2026-03-28T17:11:36Z</time></trkpt><trkpt lat="45.58515513161643" lon="10.515366500513931"><ele>162.0</ele><time>2026-03-28T17:11:37Z</time></trkpt><trkpt lat="45.58506239135038" lon="10.515454323237156"><ele>163.5</ele><time>2026-03-28T17:11:38Z</time></trkpt><trkpt lat="45.584944155453435" lon="10.515479468645797"><ele>165.0</ele><time>2026-03-28T17:11:39Z</time></trkpt><trkpt lat="45.584826155704604" lon="10.51550264625465"><ele>166.5</ele><time>2026-03-28T17:11:40Z</time></trkpt><trkpt lat="45.584669487687535" lon="10.515521201923733"><ele>168.0</ele><time>2026-03-28T17:11:41Z</time></trkpt><trkpt lat="45.58449935918409" lon="10.515544120961787"><ele>171.33333333333334</ele><time>2026-03-28T17:11:42Z</time></trkpt><trkpt lat="45.58432466484155" lon="10.515566506235238"><ele>174.66666666666669</ele><time>2026-03-28T17:11:43Z</time></trkpt><trkpt lat="45.58414067798444" lon="10.515579727089374"><ele>178.0</ele><time>2026-03-28T17:11:44Z</time></trkpt><trkpt lat="45.58393823628802" lon="10.515576246723526"><ele>178.0</ele><time>2026-03-28T17:11:45Z</time></trkpt><trkpt lat="45.58371222893804" lon="10.515566247306985"><ele>178.0</ele><time>2026-03-28T17:11:46Z</time></trkpt><trkpt lat="45.58350197395461" lon="10.51555547675209"><ele>178.0</ele><time>2026-03-28T17:11:47Z</time></trkpt><trkpt lat="45.583303755244636" lon="10.515546821883435"><ele>178.0</ele><time>2026-03-28T17:11:48Z</time></trkpt><trkpt lat="45.58311202004601" lon="10.515542094263315"><ele>178.0</ele><time>2026-03-28T17:11:49Z</time></trkpt><trkpt lat="45.582914436836205" lon="10.515540694949237"><ele>178.0</ele><time>2026-03-28T17:11:50Z</time></trkpt><trkpt lat="45.58270626278563" lon="10.51554364969617"><ele>178.0</ele><time>2026-03-28T17:11:51Z</time></trkpt><trkpt lat="45.582483003614065" lon="10.515548259043916"><ele>178.0</ele><time>2026-03-28T17:11:52Z</time></trkpt><trkpt lat="45.58226581173222" lon="10.51555381545763"><ele>178.0</ele><time>2026-03-28T17:11:53Z</time></trkpt><trkpt lat="45.58206350142238" lon="10.515564316047799"><ele>178.33333333333334</ele><time>2026-03-28T17:11:54Z</time></trkpt><trkpt lat="45.58186624062723" lon="10.515611791523419"><ele>178.66666666666666</ele><time>2026-03-28T17:11:55Z</time></trkpt><trkpt lat="45.581681825532506" lon="10.515641854730706"><ele>179.0</ele><time>2026-03-28T17:11:56Z</time></trkpt><trkpt lat="45.581505346296865" lon="10.51567513392857"><ele>179.0</ele><time>2026-03-28T17:11:57Z</time></trkpt><trkpt lat="45.581326071004355" lon="10.515697238113967"><ele>179.0</ele><time>2026-03-28T17:11:58Z</time></trkpt><trkpt lat="45.58114336422688" lon="10.515689594944694"><ele>179.0</ele><time>2026-03-28T17:11:59Z</time></trkpt><trkpt lat="45.58095801941332" lon="10.51567584781028"><ele>178.66666666666666</ele><time>2026-03-28T17:12:00Z</time></trkpt><trkpt lat="45.58077491160134" lon="10.515631565816605"><ele>178.33333333333334</ele><time>2026-03-28T17:12:01Z</time></trkpt><trkpt lat="45.580583894494175" lon="10.515584654479468"><ele>178.0</ele><time>2026-03-28T17:12:02Z</time></trkpt><trkpt lat="45.580377674180475" lon="10.51548462380653"><ele>179.5</ele><time>2026-03-28T17:12:03Z</time></trkpt><trkpt lat="45.580153775900385" lon="10.515426451793765"><ele>181.0</ele><time>2026-03-28T17:12:04Z</time></trkpt><trkpt lat="45.579880061450076" lon="10.515372816180962"><ele>184.5</ele><time>2026-03-28T17:12:05Z</time></trkpt><trkpt lat="45.57956193245122" lon="10.515323140402291"><ele>188.0</ele><time>2026-03-28T17:12:06Z</time></trkpt><trkpt lat="45.57925864860041" lon="10.515308422156297"><ele>188.0</ele><time>2026-03-28T17:12:07Z</time></trkpt><trkpt lat="45.57899842781849" lon="10.515266663004502"><ele>188.0</ele><time>2026-03-28T17:12:08Z</time></trkpt><trkpt lat="45.578753363105776" lon="10.515245110378679"><ele>187.33333333333331</ele><time>2026-03-28T17:12:09Z</time></trkpt><trkpt lat="45.578532355985615" lon="10.515236716325042"><ele>186.66666666666666</ele><time>2026-03-28T17:12:10Z</time></trkpt><trkpt lat="45.57830723876008" lon="10.515224218954133"><ele>186.0</ele><time>2026-03-28T17:12:11Z</time></trkpt><trkpt lat="45.57808854644646" lon="10.515207816483407"><ele>186.0</ele><time>2026-03-28T17:12:12Z</time></trkpt><trkpt lat="45.577888745231725" lon="10.515188705963556"><ele>186.0</ele><time>2026-03-28T17:12:13Z</time></trkpt><trkpt lat="45.577689577173466" lon="10.515169541714988"><ele>186.0</ele><time>2026-03-28T17:12:14Z</time></trkpt><trkpt lat="45.57749757159913" lon="10.51514596637832"><ele>186.33333333333334</ele><time>2026-03-28T17:12:15Z</time></trkpt><trkpt lat="45.57729017448849" lon="10.515118153829011"><ele>186.66666666666669</ele><time>2026-03-28T17:12:16Z</time></trkpt><trkpt lat="45.57707234971627" lon="10.515077837898533"><ele>187.0</ele><time>2026-03-28T17:12:17Z</time></trkpt><trkpt lat="45.57684847475501" lon="10.515023917676002"><ele>187.0</ele><time>2026-03-28T17:12:18Z</time></trkpt><trkpt lat="45.5766168422031" lon="10.514962117266734"><ele>187.0</ele><time>2026-03-28T17:12:19Z</time></trkpt><trkpt lat="45.576377961759846" lon="10.514903909808702"><ele>186.0</ele><time>2026-03-28T17:12:20Z</time></trkpt><trkpt lat="45.57613999662321" lon="10.514846400870939"><ele>185.0</ele><time>2026-03-28T17:12:21Z</time></trkpt><trkpt lat="45.575894666262485" lon="10.51479005192019"><ele>185.0</ele><time>2026-03-28T17:12:22Z</time></trkpt><trkpt lat="45.57565037087575" lon="10.5147323738099"><ele>185.0</ele><time>2026-03-28T17:12:23Z</time></trkpt><trkpt lat="45.575422369121135" lon="10.514679092710246"><ele>185.66666666666666</ele><time>2026-03-28T17:12:24Z</time></trkpt><trkpt lat="45.575215529769736" lon="10.514628745260556"><ele>186.33333333333334</ele><time>2026-03-28T17:12:25Z</time></trkpt><trkpt lat="45.57501183845654" lon="10.514580146822443"><ele>187.0</ele><time>2026-03-28T17:12:26Z</time></trkpt><trkpt lat="45.574805198602014" lon="10.51452847598601"><ele>188.0</ele><time>2026-03-28T17:12:27Z</time></trkpt><trkpt lat="45.574597577691776" lon="10.514475529461508"><ele>189.0</ele><time>2026-03-28T17:12:28Z</time></trkpt><trkpt lat="45.57439256528671" lon="10.514423640450307"><ele>190.0</ele><time>2026-03-28T17:12:29Z</time></trkpt><trkpt lat="45.57420816681144" lon="10.514378738879659"><ele>190.75</ele><time>2026-03-28T17:12:30Z</time></trkpt><trkpt lat="45.5740508667362" lon="10.514339546797338"><ele>191.5</ele><time>2026-03-28T17:12:31Z</time></trkpt><trkpt lat="45.57391146546322" lon="10.51432739615289"><ele>192.25</ele><time>2026-03-28T17:12:32Z</time></trkpt><trkpt lat="45.57377859163067" lon="10.514375518830317"><ele>193.0</ele><time>2026-03-28T17:12:33Z</time></trkpt><trkpt lat="45.57364994203794" lon="10.514513879625726"><ele>197.33333333333331</ele><time>2026-03-28T17:12:34Z</time></trkpt><trkpt lat="45.573547064683034" lon="10.514680660413543"><ele>201.66666666666669</ele><time>2026-03-28T17:12:35Z</time></trkpt><trkpt lat="45.573488457476145" lon="10.514903059297836"><ele>206.0</ele><time>2026-03-28T17:12:36Z</time></trkpt><trkpt lat="45.573467064394926" lon="10.515166835588667"><ele>204.33333333333334</ele><time>2026-03-28T17:12:37Z</time></trkpt><trkpt lat="45.57343566273539" lon="10.515440624322096"><ele>202.66666666666669</ele><time>2026-03-28T17:12:38Z</time></trkpt><trkpt lat="45.57339109158554" lon="10.515664615428294"><ele>201.0</ele><time>2026-03-28T17:12:39Z</time></trkpt><trkpt lat="45.57333186576791" lon="10.515841867501178"><ele>201.0</ele><time>2026-03-28T17:12:40Z</time></trkpt><trkpt lat="45.57322128884922" lon="10.515972576935608"><ele>201.0</ele><time>2026-03-28T17:12:41Z</time></trkpt><trkpt lat="45.573083696603064" lon="10.516111941907017"><ele>201.0</ele><time>2026-03-28T17:12:42Z</time></trkpt><trkpt lat="45.57292407789965" lon="10.516267633956296"><ele>200.0</ele><time>2026-03-28T17:12:43Z</time></trkpt><trkpt lat="45.57277448692749" lon="10.516391990579326"><ele>199.0</ele><time>2026-03-28T17:12:44Z</time></trkpt><trkpt lat="45.57262072906909" lon="10.516471420738512"><ele>198.0</ele><time>2026-03-28T17:12:45Z</time></trkpt><trkpt lat="45.57245002464103" lon="10.516512583100297"><ele>198.0</ele><time>2026-03-28T17:12:46Z</time></trkpt><trkpt lat="45.57226733519792" lon="10.516549271933346"><ele>198.0</ele><time>2026-03-28T17:12:47Z</time></trkpt><trkpt lat="45.57209690951751" lon="10.516558132264445"><ele>198.0</ele><time>2026-03-28T17:12:48Z</time></trkpt><trkpt lat="45.57196425547613" lon="10.516523748391142"><ele>196.66666666666669</ele><time>2026-03-28T17:12:49Z</time></trkpt><trkpt lat="45.57181958589749" lon="10.516467083975618"><ele>195.33333333333334</ele><time>2026-03-28T17:12:50Z</time></trkpt><trkpt lat="45.57168672103795" lon="10.516282768148804"><ele>194.0</ele><time>2026-03-28T17:12:51Z</time></trkpt><trkpt lat="45.57151837228411" lon="10.516075430049897"><ele>196.0</ele><time>2026-03-28T17:12:52Z</time></trkpt><trkpt lat="45.571331149595224" lon="10.515839099385433"><ele>198.0</ele><time>2026-03-28T17:12:53Z</time></trkpt><trkpt lat="45.57112669871718" lon="10.515595639087898"><ele>198.0</ele><time>2026-03-28T17:12:54Z</time></trkpt><trkpt lat="45.57095138369399" lon="10.515409996055801"><ele>198.0</ele><time>2026-03-28T17:12:55Z</time></trkpt><trkpt lat="45.57082199599155" lon="10.515250927007939"><ele>198.0</ele><time>2026-03-28T17:12:56Z</time></trkpt><trkpt lat="45.57073469968607" lon="10.515097669060456"><ele>200.5</ele><time>2026-03-28T17:12:57Z</time></trkpt><trkpt lat="45.5706595316802" lon="10.514949084866762"><ele>203.0</ele><time>2026-03-28T17:12:58Z</time></trkpt><trkpt lat="45.57061194027879" lon="10.514781816158019"><ele>205.5</ele><time>2026-03-28T17:12:59Z</time></trkpt><trkpt lat="45.570581488791866" lon="10.514576971376158"><ele>208.0</ele><time>2026-03-28T17:13:00Z</time></trkpt><trkpt lat="45.57056367355188" lon="10.514337916938594"><ele>209.66666666666666</ele><time>2026-03-28T17:13:01Z</time></trkpt><trkpt lat="45.570537131288695" lon="10.514086165961995"><ele>211.33333333333331</ele><time>2026-03-28T17:13:02Z</time></trkpt><trkpt lat="45.57050886150774" lon="10.513845669566647"><ele>213.0</ele><time>2026-03-28T17:13:03Z</time></trkpt><trkpt lat="45.5704400697578" lon="10.513635240501777"><ele>209.0</ele><time>2026-03-28T17:13:04Z</time></trkpt><trkpt lat="45.57032915204996" lon="10.51345893893943"><ele>205.0</ele><time>2026-03-28T17:13:05Z</time></trkpt><trkpt lat="45.57018484064863" lon="10.513309969378462"><ele>201.0</ele><time>2026-03-28T17:13:06Z</time></trkpt><trkpt lat="45.57002624141927" lon="10.513178324637844"><ele>201.0</ele><time>2026-03-28T17:13:07Z</time></trkpt><trkpt lat="45.56990182333635" lon="10.513035273412301"><ele>201.0</ele><time>2026-03-28T17:13:08Z</time></trkpt><trkpt lat="45.56982001646171" lon="10.512922739137373"><ele>201.0</ele><time>2026-03-28T17:13:09Z</time></trkpt><trkpt lat="45.569762713488956" lon="10.512787015313945"><ele>201.0</ele><time>2026-03-28T17:13:10Z</time></trkpt><trkpt lat="45.56973444336213" lon="10.512608396261307"><ele>203.0</ele><time>2026-03-28T17:13:11Z</time></trkpt><trkpt lat="45.5697179947312" lon="10.512434685829275"><ele>205.0</ele><time>2026-03-28T17:13:12Z</time></trkpt><trkpt lat="45.56976214267479" lon="10.51224306297751"><ele>207.0</ele><time>2026-03-28T17:13:13Z</time></trkpt><trkpt lat="45.56983265534395" lon="10.512054963699974"><ele>209.0</ele><time>2026-03-28T17:13:14Z</time></trkpt><trkpt lat="45.569938701883075" lon="10.511828984899331"><ele>209.33333333333334</ele><time>2026-03-28T17:13:15Z</time></trkpt><trkpt lat="45.57004077787001" lon="10.511582920000718"><ele>209.66666666666669</ele><time>2026-03-28T17:13:16Z</time></trkpt><trkpt lat="45.57014593830322" lon="10.511330543503995"><ele>210.0</ele><time>2026-03-28T17:13:17Z</time></trkpt><trkpt lat="45.57023014103983" lon="10.511054191822266"><ele>210.0</ele><time>2026-03-28T17:13:18Z</time></trkpt><trkpt lat="45.570291534159374" lon="10.510763678972406"><ele>210.0</ele><time>2026-03-28T17:13:19Z</time></trkpt><trkpt lat="45.5703396510282" lon="10.510495119504544"><ele>210.0</ele><time>2026-03-28T17:13:20Z</time></trkpt><trkpt lat="45.57038131879667" lon="10.510264394621373"><ele>210.0</ele><time>2026-03-28T17:13:21Z</time></trkpt><trkpt lat="45.57042859453677" lon="10.510029155851123"><ele>210.0</ele><time>2026-03-28T17:13:22Z</time></trkpt><trkpt lat="45.57047232068765" lon="10.509797423502432"><ele>210.0</ele><time>2026-03-28T17:13:23Z</time></trkpt><trkpt lat="45.57050938774521" lon="10.509572471255215"><ele>210.0</ele><time>2026-03-28T17:13:24Z</time></trkpt><trkpt lat="45.57054334711763" lon="10.50938215069488"><ele>210.0</ele><time>2026-03-28T17:13:25Z</time></trkpt><trkpt lat="45.57057115652581" lon="10.50923504139326"><ele>210.0</ele><time>2026-03-28T17:13:26Z</time></trkpt><trkpt lat="45.57057823507838" lon="10.509090983054271"><ele>210.0</ele><time>2026-03-28T17:13:27Z</time></trkpt><trkpt lat="45.570526603756456" lon="10.508959587515498"><ele>210.0</ele><time>2026-03-28T17:13:28Z</time></trkpt><trkpt lat="45.570426258941396" lon="10.508860776427335"><ele>210.0</ele><time>2026-03-28T17:13:29Z</time></trkpt><trkpt lat="45.570307023355085" lon="10.50881345420411"><ele>210.0</ele><time>2026-03-28T17:13:30Z</time></trkpt><trkpt lat="45.57018348529854" lon="10.508855511183867"><ele>210.0</ele><time>2026-03-28T17:13:31Z</time></trkpt><trkpt lat="45.57005412068141" lon="10.508968724618182"><ele>210.66666666666669</ele><time>2026-03-28T17:13:32Z</time></trkpt><trkpt lat="45.56989840961178" lon="10.509103284022917"><ele>211.33333333333334</ele><time>2026-03-28T17:13:33Z</time></trkpt><trkpt lat="45.569725600470555" lon="10.509151149641925"><ele>212.0</ele><time>2026-03-28T17:13:34Z</time></trkpt><trkpt lat="45.569543463074105" lon="10.509206895717767"><ele>214.33333333333334</ele><time>2026-03-28T17:13:35Z</time></trkpt><trkpt lat="45.569373869429946" lon="10.509271614488707"><ele>216.66666666666669</ele><time>2026-03-28T17:13:36Z</time></trkpt><trkpt lat="45.56922388194884" lon="10.509320891400417"><ele>219.0</ele><time>2026-03-28T17:13:37Z</time></trkpt><trkpt lat="45.56909931339573" lon="10.509394711644497"><ele>219.0</ele><time>2026-03-28T17:13:38Z</time></trkpt><trkpt lat="45.56900538160921" lon="10.509499007196027"><ele>218.99999999999997</ele><time>2026-03-28T17:13:39Z</time></trkpt><trkpt lat="45.568938456718996" lon="10.509623513737983"><ele>218.99999999999997</ele><time>2026-03-28T17:13:40Z</time></trkpt><trkpt lat="45.56888491181316" lon="10.509746222924134"><ele>219.0</ele><time>2026-03-28T17:13:41Z</time></trkpt><trkpt lat="45.568852745768005" lon="10.509864951637152"><ele>219.0</ele><time>2026-03-28T17:13:42Z</time></trkpt><trkpt lat="45.568823102240906" lon="10.509970135004723"><ele>218.39999999999998</ele><time>2026-03-28T17:13:43Z</time></trkpt><trkpt lat="45.56879599953853" lon="10.510051386920589"><ele>217.79999999999998</ele><time>2026-03-28T17:13:44Z</time></trkpt><trkpt lat="45.56873440009412" lon="10.510173587535787"><ele>217.20000000000002</ele><time>2026-03-28T17:13:46Z</time></trkpt><trkpt lat="45.56866169896556" lon="10.510261215772735"><ele>216.60000000000002</ele><time>2026-03-28T17:13:48Z</time></trkpt><trkpt lat="45.56854972799927" lon="10.510322626661745"><ele>216.0</ele><time>2026-03-28T17:13:50Z</time></trkpt><trkpt lat="45.56845438490674" lon="10.510333404409067"><ele>216.0</ele><time>2026-03-28T17:13:51Z</time></trkpt><trkpt lat="45.568360264730046" lon="10.51025611624997"><ele>216.0</ele><time>2026-03-28T17:13:52Z</time></trkpt><trkpt lat="45.56825743791479" lon="10.510198498407505"><ele>216.0</ele><time>2026-03-28T17:13:53Z</time></trkpt><trkpt lat="45.56814398125034" lon="10.510151837930758"><ele>216.0</ele><time>2026-03-28T17:13:54Z</time></trkpt><trkpt lat="45.568029744596856" lon="10.510097593537623"><ele>216.0</ele><time>2026-03-28T17:13:55Z</time></trkpt><trkpt lat="45.567901718746576" lon="10.51006730871534"><ele>216.0</ele><time>2026-03-28T17:13:56Z</time></trkpt><trkpt lat="45.567766428134384" lon="10.510047100484512"><ele>216.0</ele><time>2026-03-28T17:13:57Z</time></trkpt><trkpt lat="45.56763119719559" lon="10.510025840533755"><ele>216.0</ele><time>2026-03-28T17:13:58Z</time></trkpt><trkpt lat="45.56750980244807" lon="10.50999822881191"><ele>216.0</ele><time>2026-03-28T17:13:59Z</time></trkpt><trkpt lat="45.567392837152944" lon="10.509979226766088"><ele>216.0</ele><time>2026-03-28T17:14:00Z</time></trkpt><trkpt lat="45.567279155374294" lon="10.509960013681894"><ele>216.0</ele><time>2026-03-28T17:14:01Z</time></trkpt><trkpt lat="45.56714215281995" lon="10.509943883255485"><ele>216.0</ele><time>2026-03-28T17:14:02Z</time></trkpt><trkpt lat="45.5670001749163" lon="10.509954974596361"><ele>216.33333333333331</ele><time>2026-03-28T17:14:03Z</time></trkpt><trkpt lat="45.56684914463465" lon="10.50999112002395"><ele>216.66666666666666</ele><time>2026-03-28T17:14:04Z</time></trkpt><trkpt lat="45.56669268510359" lon="10.51003846628909"><ele>217.0</ele><time>2026-03-28T17:14:05Z</time></trkpt><trkpt lat="45.56654681558147" lon="10.510082445981562"><ele>217.0</ele><time>2026-03-28T17:14:06Z</time></trkpt><trkpt lat="45.56640030632116" lon="10.510101827913562"><ele>217.0</ele><time>2026-03-28T17:14:07Z</time></trkpt><trkpt lat="45.56624450619514" lon="10.5100459810637"><ele>217.0</ele><time>2026-03-28T17:14:08Z</time></trkpt><trkpt lat="45.566072853084144" lon="10.510015880336244"><ele>215.66666666666666</ele><time>2026-03-28T17:14:09Z</time></trkpt><trkpt lat="45.56590633962627" lon="10.509946071340718"><ele>214.33333333333331</ele><time>2026-03-28T17:14:10Z</time></trkpt><trkpt lat="45.565730550467656" lon="10.509880685052362"><ele>213.0</ele><time>2026-03-28T17:14:11Z</time></trkpt><trkpt lat="45.565552731660475" lon="10.50980619951614"><ele>213.0</ele><time>2026-03-28T17:14:12Z</time></trkpt><trkpt lat="45.565389049731714" lon="10.509719016806727"><ele>213.0</ele><time>2026-03-28T17:14:13Z</time></trkpt><trkpt lat="45.56523188879025" lon="10.509606145366977"><ele>213.0</ele><time>2026-03-28T17:14:14Z</time></trkpt><trkpt lat="45.56508969550042" lon="10.509491949217923"><ele>214.60000000000002</ele><time>2026-03-28T17:14:15Z</time></trkpt><trkpt lat="45.564972054315504" lon="10.509399617771948"><ele>216.20000000000002</ele><time>2026-03-28T17:14:16Z</time></trkpt><trkpt lat="45.564868523592104" lon="10.509320095206776"><ele>217.8</ele><time>2026-03-28T17:14:17Z</time></trkpt><trkpt lat="45.56479498659125" lon="10.50924693601364"><ele>219.4</ele><time>2026-03-28T17:14:18Z</time></trkpt><trkpt lat="45.56476159469321" lon="10.509160006212088"><ele>221.0</ele><time>2026-03-28T17:14:19Z</time></trkpt><trkpt lat="45.56477182866651" lon="10.509055459319605"><ele>221.0</ele><time>2026-03-28T17:14:20Z</time></trkpt><trkpt lat="45.5648289213159" lon="10.508952649658864"><ele>221.0</ele><time>2026-03-28T17:14:21Z</time></trkpt><trkpt lat="45.564927926724394" lon="10.508926280149174"><ele>221.0</ele><time>2026-03-28T17:14:22Z</time></trkpt><trkpt lat="45.56503078228067" lon="10.508969289024112"><ele>221.0</ele><time>2026-03-28T17:14:23Z</time></trkpt><trkpt lat="45.56513059682984" lon="10.509129461223807"><ele>221.0</ele><time>2026-03-28T17:14:24Z</time></trkpt><trkpt lat="45.56528365935539" lon="10.509237813371307"><ele>221.0</ele><time>2026-03-28T17:14:25Z</time></trkpt><trkpt lat="45.56542837391753" lon="10.50938295679333"><ele>221.0</ele><time>2026-03-28T17:14:26Z</time></trkpt><trkpt lat="45.56555307184705" lon="10.509492201833352"><ele>219.4</ele><time>2026-03-28T17:14:27Z</time></trkpt><trkpt lat="45.56565112392416" lon="10.509572726788827"><ele>217.8</ele><time>2026-03-28T17:14:28Z</time></trkpt><trkpt lat="45.56573283123332" lon="10.509616488900829"><ele>216.20000000000002</ele><time>2026-03-28T17:14:29Z</time></trkpt><trkpt lat="45.56581002089369" lon="10.509586066760468"><ele>214.60000000000002</ele><time>2026-03-28T17:14:30Z</time></trkpt><trkpt lat="45.56587154665348" lon="10.509500539333493"><ele>213.0</ele><time>2026-03-28T17:14:31Z</time></trkpt><trkpt lat="45.565905118464215" lon="10.509370240172222"><ele>217.5</ele><time>2026-03-28T17:14:32Z</time></trkpt><trkpt lat="45.56588018472388" lon="10.509246898519182"><ele>222.0</ele><time>2026-03-28T17:14:33Z</time></trkpt><trkpt lat="45.565806281899654" lon="10.509153416039128"><ele>226.5</ele><time>2026-03-28T17:14:34Z</time></trkpt><trkpt lat="45.56569433866244" lon="10.509069925946822"><ele>231.0</ele><time>2026-03-28T17:14:35Z</time></trkpt><trkpt lat="45.56554529461684" lon="10.508963692805915"><ele>231.0</ele><time>2026-03-28T17:14:36Z</time></trkpt><trkpt lat="45.56541001179113" lon="10.508793177939783"><ele>231.0</ele><time>2026-03-28T17:14:37Z</time></trkpt><trkpt lat="45.56531803293536" lon="10.508616055606359"><ele>231.0</ele><time>2026-03-28T17:14:38Z</time></trkpt><trkpt lat="45.565249290958846" lon="10.508399169627515"><ele>232.0</ele><time>2026-03-28T17:14:39Z</time></trkpt><trkpt lat="45.56519456522631" lon="10.508166812381777"><ele>233.0</ele><time>2026-03-28T17:14:40Z</time></trkpt><trkpt lat="45.56512988541124" lon="10.507907557981644"><ele>234.0</ele><time>2026-03-28T17:14:41Z</time></trkpt><trkpt lat="45.565064524620176" lon="10.507643646553136"><ele>234.0</ele><time>2026-03-28T17:14:42Z</time></trkpt><trkpt lat="45.5649857111751" lon="10.507378696268479"><ele>234.0</ele><time>2026-03-28T17:14:43Z</time></trkpt><trkpt lat="45.564922424137414" lon="10.507105645273917"><ele>234.0</ele><time>2026-03-28T17:14:44Z</time></trkpt><trkpt lat="45.564856093156344" lon="10.50683317322255"><ele>234.0</ele><time>2026-03-28T17:14:45Z</time></trkpt><trkpt lat="45.564792350046986" lon="10.506571902954656"><ele>234.0</ele><time>2026-03-28T17:14:46Z</time></trkpt><trkpt lat="45.56473527456691" lon="10.506331005291727"><ele>234.0</ele><time>2026-03-28T17:14:47Z</time></trkpt><trkpt lat="45.56467858005112" lon="10.506103217177678"><ele>234.0</ele><time>2026-03-28T17:14:48Z</time></trkpt><trkpt lat="45.56461586239925" lon="10.50588085852598"><ele>234.0</ele><time>2026-03-28T17:14:49Z</time></trkpt><trkpt lat="45.56453098722642" lon="10.505661187498724"><ele>234.0</ele><time>2026-03-28T17:14:50Z</time></trkpt><trkpt lat="45.564412974168846" lon="10.505464703649977"><ele>234.0</ele><time>2026-03-28T17:14:51Z</time></trkpt><trkpt lat="45.564264253038296" lon="10.505301543763396"><ele>234.0</ele><time>2026-03-28T17:14:52Z</time></trkpt><trkpt lat="45.56409935613491" lon="10.50514748145703"><ele>234.0</ele><time>2026-03-28T17:14:53Z</time></trkpt><trkpt lat="45.56393326786002" lon="10.504986275512412"><ele>234.0</ele><time>2026-03-28T17:14:54Z</time></trkpt><trkpt lat="45.56379734157666" lon="10.50477575432654"><ele>234.0</ele><time>2026-03-28T17:14:55Z</time></trkpt><trkpt lat="45.56364711857229" lon="10.504568593247136"><ele>234.0</ele><time>2026-03-28T17:14:56Z</time></trkpt><trkpt lat="45.563497840501" lon="10.504358773772948"><ele>235.66666666666669</ele><time>2026-03-28T17:14:57Z</time></trkpt><trkpt lat="45.56334711241958" lon="10.504151536140736"><ele>237.33333333333334</ele><time>2026-03-28T17:14:58Z</time></trkpt><trkpt lat="45.56319592237934" lon="10.50395005739689"><ele>239.0</ele><time>2026-03-28T17:14:59Z</time></trkpt><trkpt lat="45.563035395530996" lon="10.503753569290062"><ele>239.33333333333334</ele><time>2026-03-28T17:15:00Z</time></trkpt><trkpt lat="45.56286962698957" lon="10.503578911367713"><ele>239.66666666666669</ele><time>2026-03-28T17:15:01Z</time></trkpt><trkpt lat="45.56271345413081" lon="10.503415413920623"><ele>240.0</ele><time>2026-03-28T17:15:02Z</time></trkpt><trkpt lat="45.56255762976154" lon="10.503252436112128"><ele>240.0</ele><time>2026-03-28T17:15:03Z</time></trkpt><trkpt lat="45.562394218259016" lon="10.50310492248045"><ele>240.0</ele><time>2026-03-28T17:15:04Z</time></trkpt><trkpt lat="45.56225401395825" lon="10.502964674823225"><ele>240.0</ele><time>2026-03-28T17:15:05Z</time></trkpt><trkpt lat="45.56209176168876" lon="10.502839504219239"><ele>239.66666666666669</ele><time>2026-03-28T17:15:06Z</time></trkpt><trkpt lat="45.56193274017439" lon="10.50274559218097"><ele>239.33333333333334</ele><time>2026-03-28T17:15:07Z</time></trkpt><trkpt lat="45.56178581088096" lon="10.502661722694514"><ele>239.0</ele><time>2026-03-28T17:15:08Z</time></trkpt><trkpt lat="45.56164976212398" lon="10.502581695260968"><ele>239.0</ele><time>2026-03-28T17:15:09Z</time></trkpt><trkpt lat="45.56151902291803" lon="10.502531321576177"><ele>239.0</ele><time>2026-03-28T17:15:10Z</time></trkpt><trkpt lat="45.56138307229525" lon="10.50253201036303"><ele>239.0</ele><time>2026-03-28T17:15:11Z</time></trkpt><trkpt lat="45.561237129887154" lon="10.502582622271937"><ele>239.0</ele><time>2026-03-28T17:15:12Z</time></trkpt><trkpt lat="45.56109326067619" lon="10.502671532330924"><ele>237.33333333333334</ele><time>2026-03-28T17:15:13Z</time></trkpt><trkpt lat="45.560967132701975" lon="10.50280278840736"><ele>235.66666666666669</ele><time>2026-03-28T17:15:14Z</time></trkpt><trkpt lat="45.56085317421585" lon="10.502971541050496"><ele>234.0</ele><time>2026-03-28T17:15:15Z</time></trkpt><trkpt lat="45.56074826692072" lon="10.503144058634112"><ele>234.0</ele><time>2026-03-28T17:15:16Z</time></trkpt><trkpt lat="45.56064073177234" lon="10.50326871713427"><ele>234.0</ele><time>2026-03-28T17:15:17Z</time></trkpt><trkpt lat="45.56050591223188" lon="10.50332410119499"><ele>234.0</ele><time>2026-03-28T17:15:18Z</time></trkpt><trkpt lat="45.560365820721" lon="10.503357260471034"><ele>234.0</ele><time>2026-03-28T17:15:19Z</time></trkpt><trkpt lat="45.56021096161615" lon="10.503344978347892"><ele>234.0</ele><time>2026-03-28T17:15:20Z</time></trkpt><trkpt lat="45.56004145572408" lon="10.503308586311313"><ele>234.0</ele><time>2026-03-28T17:15:21Z</time></trkpt><trkpt lat="45.559872606483886" lon="10.50327097066641"><ele>234.0</ele><time>2026-03-28T17:15:22Z</time></trkpt><trkpt lat="45.55972488235073" lon="10.503226018559891"><ele>234.0</ele><time>2026-03-28T17:15:23Z</time></trkpt><trkpt lat="45.5595894665886" lon="10.50314510906101"><ele>234.0</ele><time>2026-03-28T17:15:24Z</time></trkpt><trkpt lat="45.559467701702765" lon="10.50302708237132"><ele>234.0</ele><time>2026-03-28T17:15:25Z</time></trkpt><trkpt lat="45.55937211491053" lon="10.5028884326496"><ele>234.0</ele><time>2026-03-28T17:15:26Z</time></trkpt><trkpt lat="45.55925545693092" lon="10.502691189859597"><ele>233.66666666666669</ele><time>2026-03-28T17:15:27Z</time></trkpt><trkpt lat="45.559123224625814" lon="10.502496235746184"><ele>233.33333333333334</ele><time>2026-03-28T17:15:28Z</time></trkpt><trkpt lat="45.55900995223395" lon="10.50229979377919"><ele>233.0</ele><time>2026-03-28T17:15:29Z</time></trkpt><trkpt lat="45.558899009989744" lon="10.502112050059434"><ele>232.75</ele><time>2026-03-28T17:15:30Z</time></trkpt><trkpt lat="45.55879871202267" lon="10.501943977004728"><ele>232.5</ele><time>2026-03-28T17:15:31Z</time></trkpt><trkpt lat="45.558705691648726" lon="10.501796135567359"><ele>232.25</ele><time>2026-03-28T17:15:32Z</time></trkpt><trkpt lat="45.55862484801054" lon="10.501671612754883"><ele>232.0</ele><time>2026-03-28T17:15:33Z</time></trkpt><trkpt lat="45.55855211972371" lon="10.50158683466115"><ele>232.0</ele><time>2026-03-28T17:15:34Z</time></trkpt><trkpt lat="45.558500418952654" lon="10.501474886925678"><ele>232.0</ele><time>2026-03-28T17:15:36Z</time></trkpt><trkpt lat="45.55858320604508" lon="10.501357549650502"><ele>232.0</ele><time>2026-03-28T17:15:38Z</time></trkpt><trkpt lat="45.558637423333636" lon="10.501273116000831"><ele>232.0</ele><time>2026-03-28T17:15:39Z</time></trkpt><trkpt lat="45.558707913075004" lon="10.501182244506934"><ele>232.0</ele><time>2026-03-28T17:15:40Z</time></trkpt><trkpt lat="45.5587745803728" lon="10.501080147391482"><ele>234.2</ele><time>2026-03-28T17:15:41Z</time></trkpt><trkpt lat="45.5588509802592" lon="10.500954610391332"><ele>236.39999999999998</ele><time>2026-03-28T17:15:42Z</time></trkpt><trkpt lat="45.558927637062254" lon="10.50083424855132"><ele>238.60000000000002</ele><time>2026-03-28T17:15:43Z</time></trkpt><trkpt lat="45.558983553340575" lon="10.50072946541168"><ele>240.8</ele><time>2026-03-28T17:15:44Z</time></trkpt><trkpt lat="45.55905909170499" lon="10.500605309569156"><ele>243.0</ele><time>2026-03-28T17:15:45Z</time></trkpt><trkpt lat="45.55914769498925" lon="10.500498368198562"><ele>242.0</ele><time>2026-03-28T17:15:46Z</time></trkpt><trkpt lat="45.559209960863576" lon="10.500356837409377"><ele>241.0</ele><time>2026-03-28T17:15:47Z</time></trkpt><trkpt lat="45.55927720292771" lon="10.500249170245757"><ele>240.0</ele><time>2026-03-28T17:15:48Z</time></trkpt><trkpt lat="45.559339686305165" lon="10.500145806781045"><ele>239.0</ele><time>2026-03-28T17:15:49Z</time></trkpt><trkpt lat="45.55937645650687" lon="10.499997067064983"><ele>238.0</ele><time>2026-03-28T17:15:50Z</time></trkpt><trkpt lat="45.55939722124154" lon="10.499832909487708"><ele>237.99999999999997</ele><time>2026-03-28T17:15:51Z</time></trkpt><trkpt lat="45.55941196363909" lon="10.49967019542648"><ele>238.0</ele><time>2026-03-28T17:15:52Z</time></trkpt><trkpt lat="45.55942991063022" lon="10.499525283698686"><ele>238.0</ele><time>2026-03-28T17:15:53Z</time></trkpt><trkpt lat="45.559440348449975" lon="10.499410034889435"><ele>238.0</ele><time>2026-03-28T17:15:54Z</time></trkpt><trkpt lat="45.55940759212832" lon="10.499312746270139"><ele>237.99999999999997</ele><time>2026-03-28T17:15:56Z</time></trkpt><trkpt lat="45.559371747277105" lon="10.499226070567804"><ele>238.0</ele><time>2026-03-28T17:15:57Z</time></trkpt><trkpt lat="45.559304593695856" lon="10.499132730513164"><ele>238.4</ele><time>2026-03-28T17:15:58Z</time></trkpt><trkpt lat="45.55924329016244" lon="10.499006708956175"><ele>238.8</ele><time>2026-03-28T17:15:59Z</time></trkpt><trkpt lat="45.55919290220457" lon="10.498894075464829"><ele>239.2</ele><time>2026-03-28T17:16:00Z</time></trkpt><trkpt lat="45.55913826553881" lon="10.498802483533343"><ele>239.6</ele><time>2026-03-28T17:16:01Z</time></trkpt><trkpt lat="45.55908996761577" lon="10.498694611288716"><ele>240.0</ele><time>2026-03-28T17:16:02Z</time></trkpt><trkpt lat="45.55904567246783" lon="10.498587504588599"><ele>241.4</ele><time>2026-03-28T17:16:03Z</time></trkpt><trkpt lat="45.55900370470874" lon="10.498486025598899"><ele>242.8</ele><time>2026-03-28T17:16:04Z</time></trkpt><trkpt lat="45.558951941426585" lon="10.498360860804928"><ele>244.2</ele><time>2026-03-28T17:16:05Z</time></trkpt><trkpt lat="45.55882865461393" lon="10.498322173373849"><ele>245.6</ele><time>2026-03-28T17:16:06Z</time></trkpt><trkpt lat="45.55877659996832" lon="10.498222022524525"><ele>247.0</ele><time>2026-03-28T17:16:07Z</time></trkpt><trkpt lat="45.55872140806307" lon="10.498092678630698"><ele>246.83333333333331</ele><time>2026-03-28T17:16:08Z</time></trkpt><trkpt lat="45.55869460457942" lon="10.497982515722734"><ele>246.66666666666666</ele><time>2026-03-28T17:16:09Z</time></trkpt><trkpt lat="45.55867674276542" lon="10.497883228734581"><ele>246.5</ele><time>2026-03-28T17:16:10Z</time></trkpt><trkpt lat="45.55866787675987" lon="10.497770945040863"><ele>246.33333333333331</ele><time>2026-03-28T17:16:11Z</time></trkpt><trkpt lat="45.55867549047438" lon="10.497639348960432"><ele>246.16666666666666</ele><time>2026-03-28T17:16:12Z</time></trkpt><trkpt lat="45.55868873262753" lon="10.497501428918264"><ele>246.0</ele><time>2026-03-28T17:16:13Z</time></trkpt><trkpt lat="45.558687342322074" lon="10.49739730546129"><ele>246.0</ele><time>2026-03-28T17:16:14Z</time></trkpt><trkpt lat="45.55866172884145" lon="10.497243381261748"><ele>246.00000000000003</ele><time>2026-03-28T17:16:15Z</time></trkpt><trkpt lat="45.55863331005906" lon="10.497058510222276"><ele>246.00000000000003</ele><time>2026-03-28T17:16:16Z</time></trkpt><trkpt lat="45.558609550192486" lon="10.496896939009188"><ele>246.0</ele><time>2026-03-28T17:16:17Z</time></trkpt><trkpt lat="45.558586794686626" lon="10.496774479027746"><ele>246.0</ele><time>2026-03-28T17:16:18Z</time></trkpt><trkpt lat="45.55857213000721" lon="10.49666147056737"><ele>247.4</ele><time>2026-03-28T17:16:19Z</time></trkpt><trkpt lat="45.55855480535508" lon="10.496562964245415"><ele>248.8</ele><time>2026-03-28T17:16:20Z</time></trkpt><trkpt lat="45.55849925894003" lon="10.496457874680916"><ele>250.20000000000002</ele><time>2026-03-28T17:16:21Z</time></trkpt><trkpt lat="45.558431059949605" lon="10.496355793376818"><ele>251.60000000000002</ele><time>2026-03-28T17:16:22Z</time></trkpt><trkpt lat="45.55835578097464" lon="10.496252001468232"><ele>253.0</ele><time>2026-03-28T17:16:23Z</time></trkpt><trkpt lat="45.558276699131824" lon="10.496170506014492"><ele>253.99999999999997</ele><time>2026-03-28T17:16:24Z</time></trkpt><trkpt lat="45.55819790258133" lon="10.496104481022398"><ele>255.0</ele><time>2026-03-28T17:16:25Z</time></trkpt><trkpt lat="45.55813064917586" lon="10.496053547855118"><ele>256.0</ele><time>2026-03-28T17:16:26Z</time></trkpt><trkpt lat="45.558061959989935" lon="10.496002373874573"><ele>257.0</ele><time>2026-03-28T17:16:27Z</time></trkpt><trkpt lat="45.5580027241298" lon="10.495926647729238"><ele>258.0</ele><time>2026-03-28T17:16:28Z</time></trkpt><trkpt lat="45.5579357534692" lon="10.495832133942669"><ele>259.0</ele><time>2026-03-28T17:16:29Z</time></trkpt><trkpt lat="45.557861692106265" lon="10.495713219691657"><ele>259.0</ele><time>2026-03-28T17:16:31Z</time></trkpt><trkpt lat="45.557842391043" lon="10.495580992534451"><ele>259.0</ele><time>2026-03-28T17:16:32Z</time></trkpt><trkpt lat="45.55782091405866" lon="10.495476429782066"><ele>259.0</ele><time>2026-03-28T17:16:33Z</time></trkpt><trkpt lat="45.55777518846044" lon="10.495367051352588"><ele>259.0</ele><time>2026-03-28T17:16:34Z</time></trkpt><trkpt lat="45.55770249142242" lon="10.495208720449018"><ele>259.0</ele><time>2026-03-28T17:16:35Z</time></trkpt><trkpt lat="45.55760227008837" lon="10.495062821277708"><ele>259.4</ele><time>2026-03-28T17:16:36Z</time></trkpt><trkpt lat="45.55753654410965" lon="10.49489058212937"><ele>259.79999999999995</ele><time>2026-03-28T17:16:37Z</time></trkpt><trkpt lat="45.55747473926016" lon="10.49475132052113"><ele>260.20000000000005</ele><time>2026-03-28T17:16:38Z</time></trkpt><trkpt lat="45.55742049433321" lon="10.494617161954134"><ele>260.6</ele><time>2026-03-28T17:16:39Z</time></trkpt><trkpt lat="45.55736876318951" lon="10.494516826498757"><ele>261.0</ele><time>2026-03-28T17:16:40Z</time></trkpt><trkpt lat="45.5573318673439" lon="10.494413962334212"><ele>262.40000000000003</ele><time>2026-03-28T17:16:41Z</time></trkpt><trkpt lat="45.55730174157407" lon="10.494317083081988"><ele>263.8</ele><time>2026-03-28T17:16:42Z</time></trkpt><trkpt lat="45.557245596253956" lon="10.494157371491472"><ele>265.20000000000005</ele><time>2026-03-28T17:16:44Z</time></trkpt><trkpt lat="45.55721808349857" lon="10.494042918349477"><ele>266.6</ele><time>2026-03-28T17:16:45Z</time></trkpt><trkpt lat="45.557193504552096" lon="10.49393224072465"><ele>268.0</ele><time>2026-03-28T17:16:46Z</time></trkpt><trkpt lat="45.55715953263918" lon="10.49381941140799"><ele>268.5</ele><time>2026-03-28T17:16:47Z</time></trkpt><trkpt lat="45.55712078516764" lon="10.49371052561934"><ele>269.0</ele><time>2026-03-28T17:16:48Z</time></trkpt><trkpt lat="45.55706725068781" lon="10.493611339771562"><ele>269.5</ele><time>2026-03-28T17:16:49Z</time></trkpt><trkpt lat="45.55701881830768" lon="10.493532244374869"><ele>270.0</ele><time>2026-03-28T17:16:50Z</time></trkpt><trkpt lat="45.55698642848379" lon="10.493364458000537"><ele>270.5</ele><time>2026-03-28T17:16:52Z</time></trkpt><trkpt lat="45.556999500764434" lon="10.493263274657586"><ele>271.0</ele><time>2026-03-28T17:16:53Z</time></trkpt><trkpt lat="45.55701338180136" lon="10.493145501525232"><ele>269.6</ele><time>2026-03-28T17:16:54Z</time></trkpt><trkpt lat="45.55695039462862" lon="10.492990975807572"><ele>268.20000000000005</ele><time>2026-03-28T17:16:56Z</time></trkpt><trkpt lat="45.55689355274996" lon="10.492898830883153"><ele>266.79999999999995</ele><time>2026-03-28T17:16:57Z</time></trkpt><trkpt lat="45.55683801002966" lon="10.492814527775208"><ele>265.4</ele><time>2026-03-28T17:16:58Z</time></trkpt><trkpt lat="45.55680019898109" lon="10.49272049656994"><ele>264.0</ele><time>2026-03-28T17:17:00Z</time></trkpt><trkpt lat="45.556891387645976" lon="10.492693461220435"><ele>264.0</ele><time>2026-03-28T17:17:03Z</time></trkpt><trkpt lat="45.556963428579586" lon="10.492746397880932"><ele>264.0</ele><time>2026-03-28T17:17:04Z</time></trkpt><trkpt lat="45.557046647644924" lon="10.49281794000703"><ele>264.0</ele><time>2026-03-28T17:17:05Z</time></trkpt><trkpt lat="45.55713266848109" lon="10.492854676742573"><ele>264.0</ele><time>2026-03-28T17:17:06Z</time></trkpt><trkpt lat="45.55724238580341" lon="10.492884316522314"><ele>264.0</ele><time>2026-03-28T17:17:07Z</time></trkpt><trkpt lat="45.55735192928016" lon="10.492917485933122"><ele>265.4</ele><time>2026-03-28T17:17:08Z</time></trkpt><trkpt lat="45.55741439105998" lon="10.492945300013183"><ele>266.79999999999995</ele><time>2026-03-28T17:17:09Z</time></trkpt><trkpt lat="45.55744045108544" lon="10.49310198292654"><ele>268.20000000000005</ele><time>2026-03-28T17:17:11Z</time></trkpt><trkpt lat="45.55746758585665" lon="10.493245470020199"><ele>269.6</ele><time>2026-03-28T17:17:12Z</time></trkpt><trkpt lat="45.55748827278748" lon="10.493426535760488"><ele>271.0</ele><time>2026-03-28T17:17:13Z</time></trkpt><trkpt lat="45.557523800394" lon="10.493622257103654"><ele>270.40000000000003</ele><time>2026-03-28T17:17:14Z</time></trkpt><trkpt lat="45.55756443702357" lon="10.493785977981096"><ele>269.8</ele><time>2026-03-28T17:17:15Z</time></trkpt><trkpt lat="45.55758554487874" lon="10.493925068760428"><ele>269.20000000000005</ele><time>2026-03-28T17:17:16Z</time></trkpt><trkpt lat="45.557610419466805" lon="10.49404662158718"><ele>268.6</ele><time>2026-03-28T17:17:17Z</time></trkpt><trkpt lat="45.557649429361376" lon="10.49416323620859"><ele>268.0</ele><time>2026-03-28T17:17:18Z</time></trkpt><trkpt lat="45.55769891227896" lon="10.494277952150988"><ele>268.0</ele><time>2026-03-28T17:17:19Z</time></trkpt><trkpt lat="45.55776890152317" lon="10.494394325222189"><ele>268.0</ele><time>2026-03-28T17:17:20Z</time></trkpt><trkpt lat="45.557851480053245" lon="10.494512966880446"><ele>268.0</ele><time>2026-03-28T17:17:21Z</time></trkpt><trkpt lat="45.557945920615985" lon="10.494636044054722"><ele>268.0</ele><time>2026-03-28T17:17:22Z</time></trkpt><trkpt lat="45.558002701934534" lon="10.494713501344942"><ele>268.0</ele><time>2026-03-28T17:17:23Z</time></trkpt><trkpt lat="45.558118511795264" lon="10.494744332151821"><ele>270.0</ele><time>2026-03-28T17:17:25Z</time></trkpt><trkpt lat="45.55820795319418" lon="10.4947129939916"><ele>272.0</ele><time>2026-03-28T17:17:26Z</time></trkpt><trkpt lat="45.55833583151015" lon="10.494678241123491"><ele>274.0</ele><time>2026-03-28T17:17:27Z</time></trkpt><trkpt lat="45.55847527986183" lon="10.494653601846148"><ele>276.0</ele><time>2026-03-28T17:17:28Z</time></trkpt><trkpt lat="45.55859844878902" lon="10.49464247674594"><ele>278.25</ele><time>2026-03-28T17:17:29Z</time></trkpt><trkpt lat="45.558711268515836" lon="10.494624808668393"><ele>280.5</ele><time>2026-03-28T17:17:30Z</time></trkpt><trkpt lat="45.55882100099787" lon="10.494631169692827"><ele>282.75</ele><time>2026-03-28T17:17:31Z</time></trkpt><trkpt lat="45.55893297902708" lon="10.494609937228132"><ele>285.0</ele><time>2026-03-28T17:17:32Z</time></trkpt><trkpt lat="45.55905577860816" lon="10.494600103293399"><ele>285.0</ele><time>2026-03-28T17:17:33Z</time></trkpt><trkpt lat="45.55916659996336" lon="10.494596879406119"><ele>285.0</ele><time>2026-03-28T17:17:34Z</time></trkpt><trkpt lat="45.559275777934104" lon="10.49457715047252"><ele>285.0</ele><time>2026-03-28T17:17:35Z</time></trkpt><trkpt lat="45.559408176185705" lon="10.494568288515799"><ele>285.0</ele><time>2026-03-28T17:17:36Z</time></trkpt><trkpt lat="45.55954418574802" lon="10.494472063852989"><ele>284.4</ele><time>2026-03-28T17:17:37Z</time></trkpt><trkpt lat="45.559674378696954" lon="10.494438965881152"><ele>283.8</ele><time>2026-03-28T17:17:38Z</time></trkpt><trkpt lat="45.559784965490884" lon="10.494424828739293"><ele>283.2</ele><time>2026-03-28T17:17:39Z</time></trkpt><trkpt lat="45.55986829335657" lon="10.494432534832438"><ele>282.6</ele><time>2026-03-28T17:17:40Z</time></trkpt><trkpt lat="45.55994018866104" lon="10.494438984462718"><ele>282.0</ele><time>2026-03-28T17:17:42Z</time></trkpt><trkpt lat="45.560021749294926" lon="10.494173466098099"><ele>282.0</ele><time>2026-03-28T17:17:45Z</time></trkpt><trkpt lat="45.560037653471625" lon="10.494082765244348"><ele>282.0</ele><time>2026-03-28T17:17:46Z</time></trkpt><trkpt lat="45.56003325678932" lon="10.493967323674394"><ele>282.0</ele><time>2026-03-28T17:17:47Z</time></trkpt><trkpt lat="45.56002582584406" lon="10.493822405462176"><ele>282.0</ele><time>2026-03-28T17:17:48Z</time></trkpt><trkpt lat="45.56002800310368" lon="10.493709122873772"><ele>282.0</ele><time>2026-03-28T17:17:49Z</time></trkpt><trkpt lat="45.56004961089263" lon="10.493573959197057"><ele>282.0</ele><time>2026-03-28T17:17:50Z</time></trkpt><trkpt lat="45.56009033727876" lon="10.493437141846552"><ele>281.8</ele><time>2026-03-28T17:17:51Z</time></trkpt><trkpt lat="45.5601299755927" lon="10.49332594492453"><ele>281.6</ele><time>2026-03-28T17:17:52Z</time></trkpt><trkpt lat="45.56018357129881" lon="10.493229986577983"><ele>281.40000000000003</ele><time>2026-03-28T17:17:53Z</time></trkpt><trkpt lat="45.56025731438188" lon="10.493112484121527"><ele>281.2</ele><time>2026-03-28T17:17:54Z</time></trkpt><trkpt lat="45.56034473949955" lon="10.492959806979187"><ele>281.0</ele><time>2026-03-28T17:17:55Z</time></trkpt><trkpt lat="45.56041998951418" lon="10.492819817831533"><ele>279.5</ele><time>2026-03-28T17:17:56Z</time></trkpt><trkpt lat="45.560492479250605" lon="10.492669971590763"><ele>278.0</ele><time>2026-03-28T17:17:57Z</time></trkpt><trkpt lat="45.560569980058844" lon="10.49253863013283"><ele>276.5</ele><time>2026-03-28T17:17:58Z</time></trkpt><trkpt lat="45.56066287485965" lon="10.49240350485634"><ele>275.0</ele><time>2026-03-28T17:17:59Z</time></trkpt><trkpt lat="45.56076465244638" lon="10.4922728248732"><ele>275.0</ele><time>2026-03-28T17:18:00Z</time></trkpt><trkpt lat="45.56085560217121" lon="10.492168760614165"><ele>275.0</ele><time>2026-03-28T17:18:01Z</time></trkpt><trkpt lat="45.56092449418015" lon="10.492087334948495"><ele>275.0</ele><time>2026-03-28T17:18:02Z</time></trkpt><trkpt lat="45.56099488442907" lon="10.491968787606504"><ele>275.0</ele><time>2026-03-28T17:18:04Z</time></trkpt><trkpt lat="45.56102201106544" lon="10.491886527154028"><ele>275.0</ele><time>2026-03-28T17:18:05Z</time></trkpt><trkpt lat="45.56106377910882" lon="10.491789479913226"><ele>275.4</ele><time>2026-03-28T17:18:06Z</time></trkpt><trkpt lat="45.56113014372195" lon="10.491725772242221"><ele>275.8</ele><time>2026-03-28T17:18:07Z</time></trkpt><trkpt lat="45.56121659693195" lon="10.491650189723027"><ele>276.2</ele><time>2026-03-28T17:18:08Z</time></trkpt><trkpt lat="45.56131030596645" lon="10.49159763046721"><ele>276.6</ele><time>2026-03-28T17:18:09Z</time></trkpt><trkpt lat="45.56141788156775" lon="10.491560251372618"><ele>277.0</ele><time>2026-03-28T17:18:10Z</time></trkpt><trkpt lat="45.56154504942517" lon="10.49152766475423"><ele>279.0</ele><time>2026-03-28T17:18:11Z</time></trkpt><trkpt lat="45.56169064909663" lon="10.49149082962845"><ele>281.0</ele><time>2026-03-28T17:18:12Z</time></trkpt><trkpt lat="45.56183679649532" lon="10.49145798366021"><ele>283.0</ele><time>2026-03-28T17:18:13Z</time></trkpt><trkpt lat="45.561979565581495" lon="10.491411905412486"><ele>285.0</ele><time>2026-03-28T17:18:14Z</time></trkpt><trkpt lat="45.56211690643998" lon="10.491368318919333"><ele>286.25</ele><time>2026-03-28T17:18:15Z</time></trkpt><trkpt lat="45.56226396897936" lon="10.491317373545547"><ele>287.5</ele><time>2026-03-28T17:18:16Z</time></trkpt><trkpt lat="45.562398846327795" lon="10.491273461495835"><ele>288.75</ele><time>2026-03-28T17:18:17Z</time></trkpt><trkpt lat="45.56250251475378" lon="10.491231713561968"><ele>290.0</ele><time>2026-03-28T17:18:18Z</time></trkpt><trkpt lat="45.562593216379" lon="10.491184943577052"><ele>290.0</ele><time>2026-03-28T17:18:19Z</time></trkpt><trkpt lat="45.56266348355916" lon="10.49116191707246"><ele>290.0</ele><time>2026-03-28T17:18:20Z</time></trkpt><trkpt lat="45.56273411996082" lon="10.49115243153146"><ele>290.0</ele><time>2026-03-28T17:18:21Z</time></trkpt><trkpt lat="45.562797725085616" lon="10.491130648025473"><ele>290.0</ele><time>2026-03-28T17:18:22Z</time></trkpt><trkpt lat="45.562895542597104" lon="10.491083373286402"><ele>290.0</ele><time>2026-03-28T17:18:24Z</time></trkpt><trkpt lat="45.562974376837374" lon="10.491026212753797"><ele>290.0</ele><time>2026-03-28T17:18:25Z</time></trkpt><trkpt lat="45.56306939313128" lon="10.490963424466438"><ele>290.33333333333337</ele><time>2026-03-28T17:18:26Z</time></trkpt><trkpt lat="45.56315652255957" lon="10.49091699746702"><ele>290.6666666666667</ele><time>2026-03-28T17:18:27Z</time></trkpt><trkpt lat="45.56324883831679" lon="10.490874164595654"><ele>291.0</ele><time>2026-03-28T17:18:28Z</time></trkpt><trkpt lat="45.56331228063223" lon="10.490843699347465"><ele>291.3333333333333</ele><time>2026-03-28T17:18:29Z</time></trkpt><trkpt lat="45.56336634983745" lon="10.490792219840692"><ele>291.66666666666663</ele><time>2026-03-28T17:18:30Z</time></trkpt><trkpt lat="45.56348258026794" lon="10.490767789912802"><ele>292.0</ele><time>2026-03-28T17:18:32Z</time></trkpt><trkpt lat="45.56356946205123" lon="10.490787018606913"><ele>292.0</ele><time>2026-03-28T17:18:33Z</time></trkpt><trkpt lat="45.563670420144234" lon="10.490794205845186"><ele>292.0</ele><time>2026-03-28T17:18:34Z</time></trkpt><trkpt lat="45.56376494124955" lon="10.490796373538009"><ele>292.0</ele><time>2026-03-28T17:18:35Z</time></trkpt><trkpt lat="45.563862522170254" lon="10.490811068306826"><ele>292.0</ele><time>2026-03-28T17:18:36Z</time></trkpt><trkpt lat="45.56396511061852" lon="10.490838764783907"><ele>292.0</ele><time>2026-03-28T17:18:37Z</time></trkpt><trkpt lat="45.56405101116396" lon="10.49086754281351"><ele>291.66666666666663</ele><time>2026-03-28T17:18:38Z</time></trkpt><trkpt lat="45.56414363161957" lon="10.490894268123467"><ele>291.3333333333333</ele><time>2026-03-28T17:18:40Z</time></trkpt><trkpt lat="45.564188578004035" lon="10.490822220694103"><ele>291.0</ele><time>2026-03-28T17:18:42Z</time></trkpt><trkpt lat="45.56422513189063" lon="10.490731283468211"><ele>290.6666666666667</ele><time>2026-03-28T17:18:43Z</time></trkpt><trkpt lat="45.56425357594778" lon="10.490612609024883"><ele>290.33333333333337</ele><time>2026-03-28T17:18:44Z</time></trkpt><trkpt lat="45.56432409576672" lon="10.490481116162933"><ele>290.0</ele><time>2026-03-28T17:18:45Z</time></trkpt><trkpt lat="45.564389479491986" lon="10.490336457340172"><ele>290.0</ele><time>2026-03-28T17:18:46Z</time></trkpt><trkpt lat="45.56444555055769" lon="10.490198124273652"><ele>290.0</ele><time>2026-03-28T17:18:47Z</time></trkpt><trkpt lat="45.564492754058016" lon="10.490077679343425"><ele>290.0</ele><time>2026-03-28T17:18:48Z</time></trkpt><trkpt lat="45.56454156074805" lon="10.48996459644984"><ele>290.0</ele><time>2026-03-28T17:18:49Z</time></trkpt><trkpt lat="45.56459947333063" lon="10.489868710247967"><ele>290.0</ele><time>2026-03-28T17:18:50Z</time></trkpt><trkpt lat="45.56466952365701" lon="10.489781007381277"><ele>290.2</ele><time>2026-03-28T17:18:51Z</time></trkpt><trkpt lat="45.56473741136813" lon="10.4896700848058"><ele>290.4</ele><time>2026-03-28T17:18:52Z</time></trkpt><trkpt lat="45.564826064515465" lon="10.489604588003026"><ele>290.6</ele><time>2026-03-28T17:18:53Z</time></trkpt><trkpt lat="45.56490668677027" lon="10.489517655056309"><ele>290.8</ele><time>2026-03-28T17:18:54Z</time></trkpt><trkpt lat="45.56496143370252" lon="10.489429863290429"><ele>291.0</ele><time>2026-03-28T17:18:55Z</time></trkpt><trkpt lat="45.565027447603015" lon="10.489353495974619"><ele>290.8333333333333</ele><time>2026-03-28T17:18:56Z</time></trkpt><trkpt lat="45.56508691643879" lon="10.48928526605754"><ele>290.6666666666667</ele><time>2026-03-28T17:18:57Z</time></trkpt><trkpt lat="45.56515667522385" lon="10.489212392580455"><ele>290.5</ele><time>2026-03-28T17:18:58Z</time></trkpt><trkpt lat="45.565220069295144" lon="10.48916049034143"><ele>290.33333333333337</ele><time>2026-03-28T17:18:59Z</time></trkpt><trkpt lat="45.565295263891954" lon="10.489109979184752"><ele>290.1666666666667</ele><time>2026-03-28T17:19:00Z</time></trkpt><trkpt lat="45.5653614591422" lon="10.489071286414529"><ele>290.0</ele><time>2026-03-28T17:19:01Z</time></trkpt><trkpt lat="45.5654465409224" lon="10.489013555781105"><ele>290.0</ele><time>2026-03-28T17:19:03Z</time></trkpt><trkpt lat="45.56552436565235" lon="10.489037890936656"><ele>290.0</ele><time>2026-03-28T17:19:05Z</time></trkpt><trkpt lat="45.56558051658961" lon="10.48914757233945"><ele>290.0</ele><time>2026-03-28T17:19:07Z</time></trkpt><trkpt lat="45.5656298456373" lon="10.489240262176915"><ele>290.0</ele><time>2026-03-28T17:19:08Z</time></trkpt><trkpt lat="45.56568725650341" lon="10.489339698169864"><ele>290.0</ele><time>2026-03-28T17:19:09Z</time></trkpt><trkpt lat="45.565749632138306" lon="10.489440413417245"><ele>290.0</ele><time>2026-03-28T17:19:10Z</time></trkpt><trkpt lat="45.56581974800849" lon="10.489562803774742"><ele>290.6</ele><time>2026-03-28T17:19:11Z</time></trkpt><trkpt lat="45.56588478470088" lon="10.48970667200402"><ele>291.2</ele><time>2026-03-28T17:19:12Z</time></trkpt><trkpt lat="45.56593916209301" lon="10.489812991104676"><ele>291.8</ele><time>2026-03-28T17:19:13Z</time></trkpt><trkpt lat="45.56597104927121" lon="10.489921240046423"><ele>292.4</ele><time>2026-03-28T17:19:14Z</time></trkpt><trkpt lat="45.566001669018355" lon="10.490039199273335"><ele>293.0</ele><time>2026-03-28T17:19:15Z</time></trkpt><trkpt lat="45.56603607258448" lon="10.490168114876099"><ele>293.0</ele><time>2026-03-28T17:19:16Z</time></trkpt><trkpt lat="45.566075894787794" lon="10.490299748802622"><ele>293.0</ele><time>2026-03-28T17:19:17Z</time></trkpt><trkpt lat="45.5661163291508" lon="10.490423880391361"><ele>293.0</ele><time>2026-03-28T17:19:18Z</time></trkpt><trkpt lat="45.56615982099767" lon="10.490524634232697"><ele>293.0</ele><time>2026-03-28T17:19:19Z</time></trkpt><trkpt lat="45.566203615825" lon="10.490625926906148"><ele>293.0</ele><time>2026-03-28T17:19:20Z</time></trkpt><trkpt lat="45.56626888119069" lon="10.490719715087323"><ele>293.2</ele><time>2026-03-28T17:19:21Z</time></trkpt><trkpt lat="45.56634287137962" lon="10.490833190820505"><ele>293.4</ele><time>2026-03-28T17:19:22Z</time></trkpt><trkpt lat="45.566415422190374" lon="10.490929366493702"><ele>293.59999999999997</ele><time>2026-03-28T17:19:23Z</time></trkpt><trkpt lat="45.566483259117994" lon="10.491016976626714"><ele>293.8</ele><time>2026-03-28T17:19:24Z</time></trkpt><trkpt lat="45.56655742741387" lon="10.491070792287186"><ele>294.0</ele><time>2026-03-28T17:19:25Z</time></trkpt><trkpt lat="45.566661287723" lon="10.491130951990195"><ele>294.0</ele><time>2026-03-28T17:19:26Z</time></trkpt><trkpt lat="45.566756075554814" lon="10.491189536233893"><ele>294.0</ele><time>2026-03-28T17:19:27Z</time></trkpt><trkpt lat="45.56684433449836" lon="10.491226789566925"><ele>294.0</ele><time>2026-03-28T17:19:28Z</time></trkpt><trkpt lat="45.56693036490097" lon="10.491248117895571"><ele>294.0</ele><time>2026-03-28T17:19:29Z</time></trkpt><trkpt lat="45.56702357846454" lon="10.49125692849946"><ele>294.0</ele><time>2026-03-28T17:19:30Z</time></trkpt><trkpt lat="45.567121766667384" lon="10.49124659791577"><ele>294.5</ele><time>2026-03-28T17:19:31Z</time></trkpt><trkpt lat="45.56721749959132" lon="10.491233979826152"><ele>295.0</ele><time>2026-03-28T17:19:32Z</time></trkpt><trkpt lat="45.5672819280186" lon="10.491233944169531"><ele>295.5</ele><time>2026-03-28T17:19:33Z</time></trkpt><trkpt lat="45.56735850362182" lon="10.491252827249662"><ele>296.0</ele><time>2026-03-28T17:19:35Z</time></trkpt><trkpt lat="45.56742509661453" lon="10.491299378594631"><ele>296.5</ele><time>2026-03-28T17:19:38Z</time></trkpt><trkpt lat="45.56745597336707" lon="10.491388197339925"><ele>297.0</ele><time>2026-03-28T17:19:40Z</time></trkpt><trkpt lat="45.56747900983072" lon="10.491483839545417"><ele>297.0</ele><time>2026-03-28T17:19:41Z</time></trkpt><trkpt lat="45.567517469415264" lon="10.491589119367982"><ele>297.0</ele><time>2026-03-28T17:19:42Z</time></trkpt><trkpt lat="45.56754395810118" lon="10.491671524079482"><ele>297.0</ele><time>2026-03-28T17:19:43Z</time></trkpt><trkpt lat="45.56757350493289" lon="10.491782605588837"><ele>297.0</ele><time>2026-03-28T17:19:44Z</time></trkpt><trkpt lat="45.56761863370481" lon="10.491884490279181"><ele>297.0</ele><time>2026-03-28T17:19:45Z</time></trkpt><trkpt lat="45.56766614625423" lon="10.491961978126811"><ele>297.0</ele><time>2026-03-28T17:19:46Z</time></trkpt><trkpt lat="45.56771988180393" lon="10.492030001354657"><ele>297.0</ele><time>2026-03-28T17:19:47Z</time></trkpt><trkpt lat="45.567778623857386" lon="10.492084336278854"><ele>297.0</ele><time>2026-03-28T17:19:48Z</time></trkpt><trkpt lat="45.56787410883925" lon="10.492162955671292"><ele>297.0</ele><time>2026-03-28T17:19:50Z</time></trkpt><trkpt lat="45.567928711778194" lon="10.49221442103623"><ele>297.0</ele><time>2026-03-28T17:19:52Z</time></trkpt><trkpt lat="45.567871729222276" lon="10.492357809085412"><ele>297.0</ele><time>2026-03-28T17:19:53Z</time></trkpt><trkpt lat="45.56786718897161" lon="10.492472504560299"><ele>297.0</ele><time>2026-03-28T17:19:54Z</time></trkpt><trkpt lat="45.567862299194005" lon="10.49257321660958"><ele>296.8</ele><time>2026-03-28T17:19:55Z</time></trkpt><trkpt lat="45.56786673040717" lon="10.492757859196654"><ele>296.6</ele><time>2026-03-28T17:19:57Z</time></trkpt><trkpt lat="45.56784458663826" lon="10.49285400489586"><ele>296.40000000000003</ele><time>2026-03-28T17:19:58Z</time></trkpt><trkpt lat="45.56783407883299" lon="10.493001176202045"><ele>296.2</ele><time>2026-03-28T17:20:00Z</time></trkpt><trkpt lat="45.567827064997196" lon="10.49309941140998"><ele>296.0</ele><time>2026-03-28T17:20:03Z</time></trkpt><trkpt lat="45.56781542961993" lon="10.493265122213197"><ele>296.0</ele><time>2026-03-28T17:20:08Z</time></trkpt><trkpt lat="45.56781959334878" lon="10.493399001296655"><ele>296.0</ele><time>2026-03-28T17:20:09Z</time></trkpt><trkpt lat="45.567804933323146" lon="10.493497562485386"><ele>296.0</ele><time>2026-03-28T17:20:10Z</time></trkpt><trkpt lat="45.56779408038196" lon="10.493587546046738"><ele>296.0</ele><time>2026-03-28T17:20:11Z</time></trkpt><trkpt lat="45.56778658651857" lon="10.493716625183128"><ele>296.0</ele><time>2026-03-28T17:20:13Z</time></trkpt><trkpt lat="45.56778615164242" lon="10.493806950911411"><ele>296.0</ele><time>2026-03-28T17:20:15Z</time></trkpt><trkpt lat="45.567787329103545" lon="10.493900071465253"><ele>296.0</ele><time>2026-03-28T17:20:16Z</time></trkpt><trkpt lat="45.56779193412029" lon="10.494025121030742"><ele>295.83333333333337</ele><time>2026-03-28T17:20:17Z</time></trkpt><trkpt lat="45.567798948534666" lon="10.494154749768477"><ele>295.6666666666667</ele><time>2026-03-28T17:20:18Z</time></trkpt><trkpt lat="45.567804287656394" lon="10.494253418479873"><ele>295.5</ele><time>2026-03-28T17:20:19Z</time></trkpt><trkpt lat="45.567809663500206" lon="10.49435276579782"><ele>295.3333333333333</ele><time>2026-03-28T17:20:20Z</time></trkpt><trkpt lat="45.56781544791245" lon="10.494459663488344"><ele>295.16666666666663</ele><time>2026-03-28T17:20:21Z</time></trkpt><trkpt lat="45.567817937482516" lon="10.494577713032669"><ele>295.0</ele><time>2026-03-28T17:20:22Z</time></trkpt><trkpt lat="45.56781916771003" lon="10.49469825339073"><ele>293.4</ele><time>2026-03-28T17:20:23Z</time></trkpt><trkpt lat="45.56779625849286" lon="10.494855696684583"><ele>291.8</ele><time>2026-03-28T17:20:24Z</time></trkpt><trkpt lat="45.56773016659293" lon="10.495025050994894"><ele>290.2</ele><time>2026-03-28T17:20:25Z</time></trkpt><trkpt lat="45.567664105365296" lon="10.495145053383704"><ele>288.6</ele><time>2026-03-28T17:20:26Z</time></trkpt><trkpt lat="45.56762503488156" lon="10.495265792014054"><ele>287.0</ele><time>2026-03-28T17:20:27Z</time></trkpt><trkpt lat="45.56759889518456" lon="10.495411042064276"><ele>285.5</ele><time>2026-03-28T17:20:28Z</time></trkpt><trkpt lat="45.567566744855846" lon="10.495535911239758"><ele>284.0</ele><time>2026-03-28T17:20:29Z</time></trkpt><trkpt lat="45.56755483566976" lon="10.495640414640357"><ele>282.5</ele><time>2026-03-28T17:20:30Z</time></trkpt><trkpt lat="45.567544211806045" lon="10.495738543242068"><ele>281.0</ele><time>2026-03-28T17:20:31Z</time></trkpt><trkpt lat="45.56753063116251" lon="10.495869685008536"><ele>279.5</ele><time>2026-03-28T17:20:32Z</time></trkpt><trkpt lat="45.56754935712562" lon="10.495994372954613"><ele>278.0</ele><time>2026-03-28T17:20:33Z</time></trkpt><trkpt lat="45.56756253376562" lon="10.496089822435678"><ele>278.0</ele><time>2026-03-28T17:20:34Z</time></trkpt><trkpt lat="45.567575655664335" lon="10.496180877453133"><ele>278.0</ele><time>2026-03-28T17:20:36Z</time></trkpt><trkpt lat="45.5677143041338" lon="10.496152510815687"><ele>278.0</ele><time>2026-03-28T17:20:38Z</time></trkpt><trkpt lat="45.56781366499321" lon="10.496105804891927"><ele>278.0</ele><time>2026-03-28T17:20:39Z</time></trkpt><trkpt lat="45.567919316363806" lon="10.49604746479556"><ele>278.0</ele><time>2026-03-28T17:20:40Z</time></trkpt><trkpt lat="45.56802359403653" lon="10.495987374472556"><ele>279.8</ele><time>2026-03-28T17:20:41Z</time></trkpt><trkpt lat="45.568101318047276" lon="10.495925957540994"><ele>281.6</ele><time>2026-03-28T17:20:42Z</time></trkpt><trkpt lat="45.56814950641552" lon="10.495850927441763"><ele>283.4</ele><time>2026-03-28T17:20:43Z</time></trkpt><trkpt lat="45.56818890930212" lon="10.49573460735537"><ele>285.2</ele><time>2026-03-28T17:20:44Z</time></trkpt><trkpt lat="45.56822766388562" lon="10.49561609275919"><ele>287.0</ele><time>2026-03-28T17:20:45Z</time></trkpt><trkpt lat="45.568270551800076" lon="10.49547084793631"><ele>286.0</ele><time>2026-03-28T17:20:46Z</time></trkpt><trkpt lat="45.56831194100929" lon="10.495320304679492"><ele>285.0</ele><time>2026-03-28T17:20:47Z</time></trkpt><trkpt lat="45.56835082964631" lon="10.495170206424145"><ele>284.0</ele><time>2026-03-28T17:20:48Z</time></trkpt><trkpt lat="45.568393275154406" lon="10.495035117102605"><ele>283.0</ele><time>2026-03-28T17:20:49Z</time></trkpt><trkpt lat="45.56842678144385" lon="10.494940888821157"><ele>282.0</ele><time>2026-03-28T17:20:50Z</time></trkpt><trkpt lat="45.56850694624615" lon="10.494839995020152"><ele>282.0</ele><time>2026-03-28T17:20:52Z</time></trkpt><trkpt lat="45.56857511000645" lon="10.49480828213034"><ele>282.0</ele><time>2026-03-28T17:20:53Z</time></trkpt><trkpt lat="45.56865755915712" lon="10.494743069195083"><ele>282.0</ele><time>2026-03-28T17:20:54Z</time></trkpt><trkpt lat="45.56876399582964" lon="10.494697060349397"><ele>282.0</ele><time>2026-03-28T17:20:55Z</time></trkpt><trkpt lat="45.56886185027552" lon="10.494646908761903"><ele>282.0</ele><time>2026-03-28T17:20:56Z</time></trkpt><trkpt lat="45.5689639154862" lon="10.494604767193703"><ele>283.0</ele><time>2026-03-28T17:20:57Z</time></trkpt><trkpt lat="45.56904693579824" lon="10.494569853580122"><ele>284.0</ele><time>2026-03-28T17:20:58Z</time></trkpt><trkpt lat="45.56912524949133" lon="10.494525379184662"><ele>285.0</ele><time>2026-03-28T17:20:59Z</time></trkpt><trkpt lat="45.56919524546718" lon="10.494482856878246"><ele>286.0</ele><time>2026-03-28T17:21:00Z</time></trkpt><trkpt lat="45.569229558771696" lon="10.494375920998818"><ele>287.0</ele><time>2026-03-28T17:21:01Z</time></trkpt><trkpt lat="45.569266752010215" lon="10.494288483056078"><ele>288.0</ele><time>2026-03-28T17:21:02Z</time></trkpt><trkpt lat="45.56930298555173" lon="10.49421412400614"><ele>288.0</ele><time>2026-03-28T17:21:03Z</time></trkpt><trkpt lat="45.5694045811929" lon="10.494164451796781"><ele>288.0</ele><time>2026-03-28T17:21:05Z</time></trkpt><trkpt lat="45.56949093739875" lon="10.494168449810362"><ele>288.0</ele><time>2026-03-28T17:21:06Z</time></trkpt><trkpt lat="45.569583067685414" lon="10.494167114359144"><ele>288.0</ele><time>2026-03-28T17:21:07Z</time></trkpt><trkpt lat="45.569676491771894" lon="10.494155785777158"><ele>288.0</ele><time>2026-03-28T17:21:08Z</time></trkpt><trkpt lat="45.56976883403498" lon="10.494136720622128"><ele>288.3333333333333</ele><time>2026-03-28T17:21:09Z</time></trkpt><trkpt lat="45.56984493303285" lon="10.494106372220967"><ele>288.6666666666667</ele><time>2026-03-28T17:21:10Z</time></trkpt><trkpt lat="45.56990442829846" lon="10.494071018572393"><ele>289.0</ele><time>2026-03-28T17:21:11Z</time></trkpt><trkpt lat="45.569984937571924" lon="10.494045177649825"><ele>289.33333333333337</ele><time>2026-03-28T17:21:13Z</time></trkpt><trkpt lat="45.570038187825915" lon="10.49410277254771"><ele>289.6666666666667</ele><time>2026-03-28T17:21:15Z</time></trkpt><trkpt lat="45.570099972878005" lon="10.49424932685277"><ele>290.0</ele><time>2026-03-28T17:21:17Z</time></trkpt><trkpt lat="45.570127682374185" lon="10.494358669146104"><ele>290.0</ele><time>2026-03-28T17:21:18Z</time></trkpt><trkpt lat="45.57015008235805" lon="10.494471697180558"><ele>290.0</ele><time>2026-03-28T17:21:19Z</time></trkpt><trkpt lat="45.57018047564848" lon="10.494593651856844"><ele>290.0</ele><time>2026-03-28T17:21:20Z</time></trkpt><trkpt lat="45.570218924938686" lon="10.494682202303254"><ele>290.0</ele><time>2026-03-28T17:21:21Z</time></trkpt><trkpt lat="45.57027834038421" lon="10.494764751426825"><ele>290.0</ele><time>2026-03-28T17:21:22Z</time></trkpt><trkpt lat="45.5703837503483" lon="10.49479503933879"><ele>290.0</ele><time>2026-03-28T17:21:23Z</time></trkpt><trkpt lat="45.570507085405" lon="10.494848957399702"><ele>291.0</ele><time>2026-03-28T17:21:24Z</time></trkpt><trkpt lat="45.57064749361133" lon="10.494923562529326"><ele>292.0</ele><time>2026-03-28T17:21:25Z</time></trkpt><trkpt lat="45.57079504433069" lon="10.495006828843593"><ele>293.0</ele><time>2026-03-28T17:21:26Z</time></trkpt><trkpt lat="45.57094931371365" lon="10.495075557425892"><ele>293.0</ele><time>2026-03-28T17:21:27Z</time></trkpt><trkpt lat="45.571085234839366" lon="10.495132570593883"><ele>293.0</ele><time>2026-03-28T17:21:28Z</time></trkpt><trkpt lat="45.57119829828053" lon="10.495177021201684"><ele>293.0</ele><time>2026-03-28T17:21:29Z</time></trkpt><trkpt lat="45.57129014478814" lon="10.495215600998003"><ele>293.0</ele><time>2026-03-28T17:21:30Z</time></trkpt><trkpt lat="45.571370190943185" lon="10.495259384555979"><ele>293.0</ele><time>2026-03-28T17:21:31Z</time></trkpt><trkpt lat="45.57144885453993" lon="10.495322376913608"><ele>293.6666666666667</ele><time>2026-03-28T17:21:32Z</time></trkpt><trkpt lat="45.57151749988859" lon="10.495391683864126"><ele>294.33333333333337</ele><time>2026-03-28T17:21:33Z</time></trkpt><trkpt lat="45.571570925143995" lon="10.49546787306712"><ele>295.0</ele><time>2026-03-28T17:21:34Z</time></trkpt><trkpt lat="45.571616382676595" lon="10.49556055440058"><ele>295.6666666666667</ele><time>2026-03-28T17:21:35Z</time></trkpt><trkpt lat="45.57164960669548" lon="10.495655693404064"><ele>296.3333333333333</ele><time>2026-03-28T17:21:36Z</time></trkpt><trkpt lat="45.57166611679664" lon="10.495771165466122"><ele>297.0</ele><time>2026-03-28T17:21:37Z</time></trkpt><trkpt lat="45.57167595494054" lon="10.49590694353556"><ele>297.0</ele><time>2026-03-28T17:21:38Z</time></trkpt><trkpt lat="45.57168639767356" lon="10.496058870727193"><ele>297.0</ele><time>2026-03-28T17:21:39Z</time></trkpt><trkpt lat="45.57171459112949" lon="10.496233024414602"><ele>297.0</ele><time>2026-03-28T17:21:40Z</time></trkpt><trkpt lat="45.571764197243255" lon="10.496415085690249"><ele>297.0</ele><time>2026-03-28T17:21:41Z</time></trkpt><trkpt lat="45.57182047390082" lon="10.496605147072467"><ele>298.0</ele><time>2026-03-28T17:21:42Z</time></trkpt><trkpt lat="45.57188217848976" lon="10.496790254648136"><ele>299.0</ele><time>2026-03-28T17:21:43Z</time></trkpt><trkpt lat="45.57193568490601" lon="10.496956906660117"><ele>300.0</ele><time>2026-03-28T17:21:44Z</time></trkpt><trkpt lat="45.57198739162852" lon="10.497101923998326"><ele>301.0</ele><time>2026-03-28T17:21:45Z</time></trkpt><trkpt lat="45.572010838151606" lon="10.49721780186883"><ele>298.8</ele><time>2026-03-28T17:21:46Z</time></trkpt><trkpt lat="45.57204589457136" lon="10.497376857373213"><ele>296.6</ele><time>2026-03-28T17:21:48Z</time></trkpt><trkpt lat="45.57204162658805" lon="10.497554755229256"><ele>294.4</ele><time>2026-03-28T17:21:50Z</time></trkpt><trkpt lat="45.572039053733725" lon="10.497657955168307"><ele>292.2</ele><time>2026-03-28T17:21:51Z</time></trkpt><trkpt lat="45.572028282739375" lon="10.497790379722394"><ele>290.0</ele><time>2026-03-28T17:21:52Z</time></trkpt><trkpt lat="45.57200983612451" lon="10.497918628004822"><ele>290.0</ele><time>2026-03-28T17:21:53Z</time></trkpt><trkpt lat="45.57198376301771" lon="10.498047738719901"><ele>290.0</ele><time>2026-03-28T17:21:54Z</time></trkpt><trkpt lat="45.57197696700719" lon="10.498168692446907"><ele>290.0</ele><time>2026-03-28T17:21:55Z</time></trkpt><trkpt lat="45.57199160758281" lon="10.498284144120834"><ele>290.0</ele><time>2026-03-28T17:21:56Z</time></trkpt><trkpt lat="45.572014284065844" lon="10.4984025664613"><ele>290.0</ele><time>2026-03-28T17:21:57Z</time></trkpt><trkpt lat="45.57205073178307" lon="10.498519468955227"><ele>290.0</ele><time>2026-03-28T17:21:58Z</time></trkpt><trkpt lat="45.572072177428815" lon="10.498626547278803"><ele>288.83333333333337</ele><time>2026-03-28T17:21:59Z</time></trkpt><trkpt lat="45.57209782078186" lon="10.498730783627472"><ele>287.6666666666667</ele><time>2026-03-28T17:22:00Z</time></trkpt><trkpt lat="45.57212510217588" lon="10.498849459549646"><ele>286.5</ele><time>2026-03-28T17:22:01Z</time></trkpt><trkpt lat="45.57214599946142" lon="10.498955169180872"><ele>285.3333333333333</ele><time>2026-03-28T17:22:02Z</time></trkpt><trkpt lat="45.57216720528975" lon="10.499060657419438"><ele>284.16666666666663</ele><time>2026-03-28T17:22:03Z</time></trkpt><trkpt lat="45.572170469020186" lon="10.499233313118978"><ele>283.0</ele><time>2026-03-28T17:22:05Z</time></trkpt><trkpt lat="45.572167516292424" lon="10.499368831033943"><ele>283.0</ele><time>2026-03-28T17:22:07Z</time></trkpt><trkpt lat="45.57226032155032" lon="10.499231379581953"><ele>283.0</ele><time>2026-03-28T17:22:16Z</time></trkpt><trkpt lat="45.57227172436874" lon="10.49908342288243"><ele>283.0</ele><time>2026-03-28T17:22:17Z</time></trkpt><trkpt lat="45.57226904303423" lon="10.498922615160234"><ele>283.0</ele><time>2026-03-28T17:22:18Z</time></trkpt><trkpt lat="45.57230078403078" lon="10.498741533863601"><ele>283.0</ele><time>2026-03-28T17:22:19Z</time></trkpt><trkpt lat="45.57231856674384" lon="10.49856443311528"><ele>283.0</ele><time>2026-03-28T17:22:20Z</time></trkpt><trkpt lat="45.57234199452401" lon="10.498383040311406"><ele>283.0</ele><time>2026-03-28T17:22:21Z</time></trkpt><trkpt lat="45.57238497800043" lon="10.498206588623459"><ele>283.0</ele><time>2026-03-28T17:22:22Z</time></trkpt><trkpt lat="45.57245259624824" lon="10.498029330546863"><ele>284.5</ele><time>2026-03-28T17:22:23Z</time></trkpt><trkpt lat="45.5725149557827" lon="10.497836377337142"><ele>286.0</ele><time>2026-03-28T17:22:24Z</time></trkpt><trkpt lat="45.57259773062537" lon="10.497658907168805"><ele>287.5</ele><time>2026-03-28T17:22:25Z</time></trkpt><trkpt lat="45.5726622965911" lon="10.497478047263488"><ele>289.0</ele><time>2026-03-28T17:22:26Z</time></trkpt><trkpt lat="45.57271020684357" lon="10.497290298177154"><ele>289.0</ele><time>2026-03-28T17:22:27Z</time></trkpt><trkpt lat="45.572748013313536" lon="10.49712339557299"><ele>289.0</ele><time>2026-03-28T17:22:28Z</time></trkpt><trkpt lat="45.572769656233355" lon="10.496961655995811"><ele>289.0</ele><time>2026-03-28T17:22:29Z</time></trkpt><trkpt lat="45.572781074124215" lon="10.496785452729467"><ele>289.0</ele><time>2026-03-28T17:22:30Z</time></trkpt><trkpt lat="45.572772985121276" lon="10.496598761911615"><ele>289.25</ele><time>2026-03-28T17:22:31Z</time></trkpt><trkpt lat="45.572760153619384" lon="10.4964079966187"><ele>289.5</ele><time>2026-03-28T17:22:32Z</time></trkpt><trkpt lat="45.572748359937755" lon="10.49622527079964"><ele>289.75</ele><time>2026-03-28T17:22:33Z</time></trkpt><trkpt lat="45.572731170761045" lon="10.496065221993906"><ele>290.0</ele><time>2026-03-28T17:22:34Z</time></trkpt><trkpt lat="45.57269820586644" lon="10.495916111894006"><ele>290.75</ele><time>2026-03-28T17:22:35Z</time></trkpt><trkpt lat="45.572663642614486" lon="10.49576526005963"><ele>291.5</ele><time>2026-03-28T17:22:36Z</time></trkpt><trkpt lat="45.57265940320702" lon="10.495610852052387"><ele>292.25</ele><time>2026-03-28T17:22:37Z</time></trkpt><trkpt lat="45.57265899209164" lon="10.495448814927073"><ele>293.0</ele><time>2026-03-28T17:22:38Z</time></trkpt><trkpt lat="45.57270036673466" lon="10.495286432561473"><ele>292.5</ele><time>2026-03-28T17:22:39Z</time></trkpt><trkpt lat="45.57276043530613" lon="10.495128598427993"><ele>292.0</ele><time>2026-03-28T17:22:40Z</time></trkpt><trkpt lat="45.57282796966845" lon="10.494965176827298"><ele>291.5</ele><time>2026-03-28T17:22:41Z</time></trkpt><trkpt lat="45.572929436323605" lon="10.494835033833585"><ele>291.0</ele><time>2026-03-28T17:22:42Z</time></trkpt><trkpt lat="45.573041266093746" lon="10.494709998864503"><ele>295.25</ele><time>2026-03-28T17:22:43Z</time></trkpt><trkpt lat="45.573149391106426" lon="10.494575031988036"><ele>299.5</ele><time>2026-03-28T17:22:44Z</time></trkpt><trkpt lat="45.57326145222671" lon="10.494439868578953"><ele>303.75</ele><time>2026-03-28T17:22:45Z</time></trkpt><trkpt lat="45.57336303229379" lon="10.494315400751741"><ele>308.0</ele><time>2026-03-28T17:22:46Z</time></trkpt><trkpt lat="45.573441164257936" lon="10.494175770981597"><ele>308.0</ele><time>2026-03-28T17:22:47Z</time></trkpt><trkpt lat="45.573504282747514" lon="10.49399957887871"><ele>308.0</ele><time>2026-03-28T17:22:48Z</time></trkpt><trkpt lat="45.57356443189891" lon="10.4938225261999"><ele>308.0</ele><time>2026-03-28T17:22:49Z</time></trkpt><trkpt lat="45.57362062819301" lon="10.493667331520669"><ele>308.0</ele><time>2026-03-28T17:22:50Z</time></trkpt><trkpt lat="45.57367257973813" lon="10.49353082228348"><ele>308.25</ele><time>2026-03-28T17:22:51Z</time></trkpt><trkpt lat="45.573708374668925" lon="10.493399147639263"><ele>308.5</ele><time>2026-03-28T17:22:52Z</time></trkpt><trkpt lat="45.57372658398078" lon="10.493229226367507"><ele>308.75</ele><time>2026-03-28T17:22:53Z</time></trkpt><trkpt lat="45.57372274882781" lon="10.49303617283793"><ele>309.0</ele><time>2026-03-28T17:22:54Z</time></trkpt><trkpt lat="45.57372842054378" lon="10.492837835472889"><ele>309.0</ele><time>2026-03-28T17:22:55Z</time></trkpt><trkpt lat="45.573768766241336" lon="10.492676913871916"><ele>309.0</ele><time>2026-03-28T17:22:56Z</time></trkpt><trkpt lat="45.573811500649356" lon="10.492546196023332"><ele>309.0</ele><time>2026-03-28T17:22:57Z</time></trkpt><trkpt lat="45.57388067623445" lon="10.492442901545749"><ele>309.0</ele><time>2026-03-28T17:22:58Z</time></trkpt><trkpt lat="45.573989325515605" lon="10.492361059538931"><ele>309.0</ele><time>2026-03-28T17:22:59Z</time></trkpt><trkpt lat="45.574112497594" lon="10.492303313850536"><ele>309.0</ele><time>2026-03-28T17:23:00Z</time></trkpt><trkpt lat="45.5742274870161" lon="10.492268971080316"><ele>309.0</ele><time>2026-03-28T17:23:01Z</time></trkpt><trkpt lat="45.57431978550791" lon="10.492266691974937"><ele>309.0</ele><time>2026-03-28T17:23:02Z</time></trkpt><trkpt lat="45.57438402193763" lon="10.492229704193806"><ele>309.0</ele><time>2026-03-28T17:23:03Z</time></trkpt><trkpt lat="45.57444626713557" lon="10.492038615468596"><ele>309.0</ele><time>2026-03-28T17:23:05Z</time></trkpt><trkpt lat="45.57443294440662" lon="10.491883308006962"><ele>309.5</ele><time>2026-03-28T17:23:06Z</time></trkpt><trkpt lat="45.574403793675785" lon="10.491720248103885"><ele>310.0</ele><time>2026-03-28T17:23:07Z</time></trkpt><trkpt lat="45.574386910021026" lon="10.491561570124233"><ele>310.5</ele><time>2026-03-28T17:23:08Z</time></trkpt><trkpt lat="45.574375273013814" lon="10.491402765906251"><ele>311.0</ele><time>2026-03-28T17:23:09Z</time></trkpt><trkpt lat="45.57437306658922" lon="10.49123431044509"><ele>311.0</ele><time>2026-03-28T17:23:10Z</time></trkpt><trkpt lat="45.57439450988445" lon="10.49106565680165"><ele>311.0</ele><time>2026-03-28T17:23:11Z</time></trkpt><trkpt lat="45.574433795082" lon="10.490908921461479"><ele>311.0</ele><time>2026-03-28T17:23:12Z</time></trkpt><trkpt lat="45.57446080239888" lon="10.490795639740144"><ele>311.0</ele><time>2026-03-28T17:23:13Z</time></trkpt><trkpt lat="45.57447298109754" lon="10.490690612529502"><ele>311.0</ele><time>2026-03-28T17:23:14Z</time></trkpt><trkpt lat="45.574474244412265" lon="10.490557571339188"><ele>311.75</ele><time>2026-03-28T17:23:15Z</time></trkpt><trkpt lat="45.574459003751" lon="10.49040374475072"><ele>312.5</ele><time>2026-03-28T17:23:16Z</time></trkpt><trkpt lat="45.574455323122564" lon="10.490216411300224"><ele>313.25</ele><time>2026-03-28T17:23:17Z</time></trkpt><trkpt lat="45.57446918487005" lon="10.490014088026166"><ele>314.0</ele><time>2026-03-28T17:23:18Z</time></trkpt><trkpt lat="45.57446774441145" lon="10.489842874241548"><ele>314.0</ele><time>2026-03-28T17:23:19Z</time></trkpt><trkpt lat="45.57447343721102" lon="10.489702595549513"><ele>314.0</ele><time>2026-03-28T17:23:20Z</time></trkpt><trkpt lat="45.57449794309443" lon="10.48960920619232"><ele>314.0</ele><time>2026-03-28T17:23:21Z</time></trkpt><trkpt lat="45.574531112040674" lon="10.489513116664495"><ele>314.0</ele><time>2026-03-28T17:23:22Z</time></trkpt><trkpt lat="45.57463966771259" lon="10.489457563478746"><ele>314.0</ele><time>2026-03-28T17:23:23Z</time></trkpt><trkpt lat="45.57473740050841" lon="10.489328692706952"><ele>315.0</ele><time>2026-03-28T17:23:24Z</time></trkpt><trkpt lat="45.57482287055298" lon="10.48916991993485"><ele>316.0</ele><time>2026-03-28T17:23:25Z</time></trkpt><trkpt lat="45.5749119485674" lon="10.489023342802598"><ele>317.0</ele><time>2026-03-28T17:23:26Z</time></trkpt><trkpt lat="45.575016305877504" lon="10.488908023110417"><ele>318.0</ele><time>2026-03-28T17:23:27Z</time></trkpt><trkpt lat="45.575149820547686" lon="10.48881251156627"><ele>318.5</ele><time>2026-03-28T17:23:28Z</time></trkpt><trkpt lat="45.575289050828495" lon="10.48872597125102"><ele>319.0</ele><time>2026-03-28T17:23:29Z</time></trkpt><trkpt lat="45.57540340149718" lon="10.488648778881295"><ele>319.5</ele><time>2026-03-28T17:23:30Z</time></trkpt><trkpt lat="45.57548016814135" lon="10.488565423510625"><ele>320.0</ele><time>2026-03-28T17:23:31Z</time></trkpt><trkpt lat="45.57552966987415" lon="10.488464578503125"><ele>320.0</ele><time>2026-03-28T17:23:32Z</time></trkpt><trkpt lat="45.575546500949216" lon="10.488358823382004"><ele>320.0</ele><time>2026-03-28T17:23:33Z</time></trkpt><trkpt lat="45.57554755067012" lon="10.488242315989687"><ele>320.0</ele><time>2026-03-28T17:23:34Z</time></trkpt><trkpt lat="45.57552913426877" lon="10.48813413391086"><ele>320.0</ele><time>2026-03-28T17:23:35Z</time></trkpt><trkpt lat="45.57552935257419" lon="10.488024926174838"><ele>320.0</ele><time>2026-03-28T17:23:37Z</time></trkpt><trkpt lat="45.57552990578038" lon="10.487855447175786"><ele>320.0</ele><time>2026-03-28T17:23:42Z</time></trkpt><trkpt lat="45.57554748445238" lon="10.487731065557073"><ele>319.5</ele><time>2026-03-28T17:23:43Z</time></trkpt><trkpt lat="45.57555960040587" lon="10.487549270559398"><ele>319.0</ele><time>2026-03-28T17:23:44Z</time></trkpt><trkpt lat="45.57557666091467" lon="10.487363716856835"><ele>318.5</ele><time>2026-03-28T17:23:45Z</time></trkpt><trkpt lat="45.57558620900233" lon="10.487160527544566"><ele>318.0</ele><time>2026-03-28T17:23:46Z</time></trkpt><trkpt lat="45.575589835864726" lon="10.486976467391846"><ele>316.75</ele><time>2026-03-28T17:23:47Z</time></trkpt><trkpt lat="45.575587996841406" lon="10.486797140604953"><ele>315.5</ele><time>2026-03-28T17:23:48Z</time></trkpt><trkpt lat="45.57558025107722" lon="10.486631608423748"><ele>314.25</ele><time>2026-03-28T17:23:49Z</time></trkpt><trkpt lat="45.57556732012867" lon="10.486466888895304"><ele>313.0</ele><time>2026-03-28T17:23:50Z</time></trkpt><trkpt lat="45.57556311503742" lon="10.486315145582195"><ele>312.2</ele><time>2026-03-28T17:23:51Z</time></trkpt><trkpt lat="45.5755371113983" lon="10.486167424658273"><ele>311.4</ele><time>2026-03-28T17:23:52Z</time></trkpt><trkpt lat="45.57550181357232" lon="10.486019653806107"><ele>310.59999999999997</ele><time>2026-03-28T17:23:53Z</time></trkpt><trkpt lat="45.57545974987238" lon="10.485880371489841"><ele>309.8</ele><time>2026-03-28T17:23:54Z</time></trkpt><trkpt lat="45.575414902153206" lon="10.48575454049473"><ele>309.0</ele><time>2026-03-28T17:23:55Z</time></trkpt><trkpt lat="45.57536815377343" lon="10.485636026374248"><ele>309.0</ele><time>2026-03-28T17:23:56Z</time></trkpt><trkpt lat="45.57537908946217" lon="10.485511134655436"><ele>309.0</ele><time>2026-03-28T17:23:57Z</time></trkpt><trkpt lat="45.57538100388133" lon="10.485388356755614"><ele>309.0</ele><time>2026-03-28T17:23:58Z</time></trkpt><trkpt lat="45.575428019415384" lon="10.485244684690233"><ele>309.0</ele><time>2026-03-28T17:23:59Z</time></trkpt><trkpt lat="45.575484020851015" lon="10.485076406832254"><ele>309.0</ele><time>2026-03-28T17:24:00Z</time></trkpt><trkpt lat="45.57553835794731" lon="10.484878507720229"><ele>307.0</ele><time>2026-03-28T17:24:01Z</time></trkpt><trkpt lat="45.575575857409234" lon="10.484667275842106"><ele>305.0</ele><time>2026-03-28T17:24:02Z</time></trkpt><trkpt lat="45.57559679117638" lon="10.484448063766013"><ele>303.0</ele><time>2026-03-28T17:24:03Z</time></trkpt><trkpt lat="45.57562213157521" lon="10.484242557217552"><ele>301.0</ele><time>2026-03-28T17:24:04Z</time></trkpt><trkpt lat="45.57565972429866" lon="10.484051636847319"><ele>299.0</ele><time>2026-03-28T17:24:05Z</time></trkpt><trkpt lat="45.5757052758375" lon="10.483868062247728"><ele>297.0</ele><time>2026-03-28T17:24:06Z</time></trkpt><trkpt lat="45.57574816894083" lon="10.483690381239832"><ele>295.0</ele><time>2026-03-28T17:24:07Z</time></trkpt><trkpt lat="45.575776897142795" lon="10.48352481438892"><ele>293.8</ele><time>2026-03-28T17:24:08Z</time></trkpt><trkpt lat="45.57579730562502" lon="10.483372428916782"><ele>292.6</ele><time>2026-03-28T17:24:09Z</time></trkpt><trkpt lat="45.57581090672939" lon="10.483220008689493"><ele>291.4</ele><time>2026-03-28T17:24:10Z</time></trkpt><trkpt lat="45.57582112221135" lon="10.483068260468796"><ele>290.2</ele><time>2026-03-28T17:24:11Z</time></trkpt><trkpt lat="45.57582617788638" lon="10.482922460576953"><ele>289.0</ele><time>2026-03-28T17:24:12Z</time></trkpt><trkpt lat="45.57583044457741" lon="10.482787584309898"><ele>288.4</ele><time>2026-03-28T17:24:13Z</time></trkpt><trkpt lat="45.57583246144467" lon="10.482664682894496"><ele>287.79999999999995</ele><time>2026-03-28T17:24:14Z</time></trkpt><trkpt lat="45.57583196706406" lon="10.482568325987849"><ele>287.20000000000005</ele><time>2026-03-28T17:24:15Z</time></trkpt><trkpt lat="45.57582364763841" lon="10.482469247693041"><ele>286.6</ele><time>2026-03-28T17:24:20Z</time></trkpt><trkpt lat="45.57567284582741" lon="10.482492513978514"><ele>286.0</ele><time>2026-03-28T17:24:21Z</time></trkpt><trkpt lat="45.575559703263984" lon="10.48250959888946"><ele>286.0</ele><time>2026-03-28T17:24:22Z</time></trkpt><trkpt lat="45.57543461755294" lon="10.482536035031613"><ele>286.0</ele><time>2026-03-28T17:24:23Z</time></trkpt><trkpt lat="45.57530265438273" lon="10.482563924781232"><ele>286.0</ele><time>2026-03-28T17:24:24Z</time></trkpt><trkpt lat="45.57515486128524" lon="10.482595160048328"><ele>286.0</ele><time>2026-03-28T17:24:25Z</time></trkpt><trkpt lat="45.57500594888827" lon="10.482632204650242"><ele>287.3333333333333</ele><time>2026-03-28T17:24:26Z</time></trkpt><trkpt lat="45.574851784123425" lon="10.482654661918852"><ele>288.6666666666667</ele><time>2026-03-28T17:24:27Z</time></trkpt><trkpt lat="45.57469452689002" lon="10.482663695761497"><ele>290.0</ele><time>2026-03-28T17:24:28Z</time></trkpt><trkpt lat="45.574533024876686" lon="10.48264111401182"><ele>289.33333333333337</ele><time>2026-03-28T17:24:29Z</time></trkpt><trkpt lat="45.57436427472229" lon="10.482633703325785"><ele>288.6666666666667</ele><time>2026-03-28T17:24:30Z</time></trkpt><trkpt lat="45.574198184284036" lon="10.482643841422808"><ele>288.0</ele><time>2026-03-28T17:24:31Z</time></trkpt><trkpt lat="45.57402331531572" lon="10.482631410734625"><ele>288.0</ele><time>2026-03-28T17:24:32Z</time></trkpt><trkpt lat="45.5738433815438" lon="10.482624074876526"><ele>288.0</ele><time>2026-03-28T17:24:33Z</time></trkpt><trkpt lat="45.57366800645327" lon="10.482602178370467"><ele>288.0</ele><time>2026-03-28T17:24:34Z</time></trkpt><trkpt lat="45.57348369869321" lon="10.482591332143565"><ele>289.3333333333333</ele><time>2026-03-28T17:24:35Z</time></trkpt><trkpt lat="45.573327442874614" lon="10.482582136723392"><ele>290.66666666666663</ele><time>2026-03-28T17:24:36Z</time></trkpt><trkpt lat="45.57317281873239" lon="10.482573037324697"><ele>292.0</ele><time>2026-03-28T17:24:37Z</time></trkpt><trkpt lat="45.573020677634325" lon="10.482574689472932"><ele>292.0</ele><time>2026-03-28T17:24:38Z</time></trkpt><trkpt lat="45.57287748811664" lon="10.482577796658669"><ele>292.0</ele><time>2026-03-28T17:24:39Z</time></trkpt><trkpt lat="45.57274594698818" lon="10.482571985660996"><ele>292.0</ele><time>2026-03-28T17:24:40Z</time></trkpt><trkpt lat="45.57261664048481" lon="10.482564307352568"><ele>292.0</ele><time>2026-03-28T17:24:41Z</time></trkpt><trkpt lat="45.5724836941277" lon="10.482552143602149"><ele>293.5</ele><time>2026-03-28T17:24:42Z</time></trkpt><trkpt lat="45.57234436282213" lon="10.482516551247537"><ele>295.0</ele><time>2026-03-28T17:24:43Z</time></trkpt><trkpt lat="45.572200021196565" lon="10.482512806433615"><ele>296.5</ele><time>2026-03-28T17:24:44Z</time></trkpt><trkpt lat="45.57205510437417" lon="10.482533347791302"><ele>298.0</ele><time>2026-03-28T17:24:45Z</time></trkpt><trkpt lat="45.571913231427644" lon="10.482524965815209"><ele>298.5</ele><time>2026-03-28T17:24:46Z</time></trkpt><trkpt lat="45.57176799131856" lon="10.482518834472298"><ele>299.0</ele><time>2026-03-28T17:24:47Z</time></trkpt><trkpt lat="45.57163641829024" lon="10.482513944495171"><ele>299.5</ele><time>2026-03-28T17:24:48Z</time></trkpt><trkpt lat="45.57148402576792" lon="10.482506776049231"><ele>300.0</ele><time>2026-03-28T17:24:49Z</time></trkpt><trkpt lat="45.57132369272253" lon="10.482495553397255"><ele>301.6666666666667</ele><time>2026-03-28T17:24:50Z</time></trkpt><trkpt lat="45.57115721934229" lon="10.482483900914954"><ele>303.33333333333337</ele><time>2026-03-28T17:24:51Z</time></trkpt><trkpt lat="45.570990160653025" lon="10.482471643530753"><ele>305.0</ele><time>2026-03-28T17:24:52Z</time></trkpt><trkpt lat="45.57081287617366" lon="10.482451773830396"><ele>305.0</ele><time>2026-03-28T17:24:53Z</time></trkpt><trkpt lat="45.57063428845252" lon="10.482429315519582"><ele>305.0</ele><time>2026-03-28T17:24:54Z</time></trkpt><trkpt lat="45.57046947595542" lon="10.482400609808526"><ele>305.0</ele><time>2026-03-28T17:24:55Z</time></trkpt><trkpt lat="45.57030371721221" lon="10.482363965363199"><ele>307.0</ele><time>2026-03-28T17:24:56Z</time></trkpt><trkpt lat="45.57013442808988" lon="10.482321867131757"><ele>309.0</ele><time>2026-03-28T17:24:57Z</time></trkpt><trkpt lat="45.56995897588413" lon="10.48227515548619"><ele>311.0</ele><time>2026-03-28T17:24:58Z</time></trkpt><trkpt lat="45.56978583202899" lon="10.482249066826064"><ele>311.0</ele><time>2026-03-28T17:24:59Z</time></trkpt><trkpt lat="45.56960847773136" lon="10.482197020439752"><ele>311.0</ele><time>2026-03-28T17:25:00Z</time></trkpt><trkpt lat="45.56942866302453" lon="10.482144003998089"><ele>311.0</ele><time>2026-03-28T17:25:01Z</time></trkpt><trkpt lat="45.569244304763465" lon="10.482092241363343"><ele>312.33333333333337</ele><time>2026-03-28T17:25:02Z</time></trkpt><trkpt lat="45.56905116015058" lon="10.482038168805621"><ele>313.6666666666667</ele><time>2026-03-28T17:25:03Z</time></trkpt><trkpt lat="45.56885667413897" lon="10.481960562859362"><ele>315.0</ele><time>2026-03-28T17:25:04Z</time></trkpt><trkpt lat="45.568655245721494" lon="10.481901939796352"><ele>316.0</ele><time>2026-03-28T17:25:05Z</time></trkpt><trkpt lat="45.56845385882062" lon="10.481843328827933"><ele>317.0</ele><time>2026-03-28T17:25:06Z</time></trkpt><trkpt lat="45.56825416888001" lon="10.481783502828378"><ele>318.0</ele><time>2026-03-28T17:25:07Z</time></trkpt><trkpt lat="45.56805092701373" lon="10.481742741285387"><ele>320.0</ele><time>2026-03-28T17:25:08Z</time></trkpt><trkpt lat="45.567851354801704" lon="10.481675161987216"><ele>322.0</ele><time>2026-03-28T17:25:09Z</time></trkpt><trkpt lat="45.56765609859661" lon="10.481617392409428"><ele>324.0</ele><time>2026-03-28T17:25:10Z</time></trkpt><trkpt lat="45.56746013547783" lon="10.481564858026603"><ele>324.0</ele><time>2026-03-28T17:25:11Z</time></trkpt><trkpt lat="45.56726198345" lon="10.481527657950181"><ele>324.0</ele><time>2026-03-28T17:25:12Z</time></trkpt><trkpt lat="45.56705488244023" lon="10.481501771997952"><ele>324.0</ele><time>2026-03-28T17:25:13Z</time></trkpt><trkpt lat="45.56684302296951" lon="10.481493103882974"><ele>323.0</ele><time>2026-03-28T17:25:14Z</time></trkpt><trkpt lat="45.566627978037886" lon="10.481497299613359"><ele>322.0</ele><time>2026-03-28T17:25:15Z</time></trkpt><trkpt lat="45.56641072718645" lon="10.481513426456857"><ele>321.0</ele><time>2026-03-28T17:25:16Z</time></trkpt><trkpt lat="45.56619588115177" lon="10.481544500490276"><ele>321.3333333333333</ele><time>2026-03-28T17:25:17Z</time></trkpt><trkpt lat="45.56598530117022" lon="10.481593675536972"><ele>321.66666666666663</ele><time>2026-03-28T17:25:18Z</time></trkpt><trkpt lat="45.565768099352674" lon="10.481659164554815"><ele>322.0</ele><time>2026-03-28T17:25:19Z</time></trkpt><trkpt lat="45.56555916903756" lon="10.481737931798802"><ele>321.3333333333333</ele><time>2026-03-28T17:25:20Z</time></trkpt><trkpt lat="45.56533777578997" lon="10.481794568475149"><ele>320.6666666666667</ele><time>2026-03-28T17:25:21Z</time></trkpt><trkpt lat="45.56512403181228" lon="10.481876134040943"><ele>320.0</ele><time>2026-03-28T17:25:22Z</time></trkpt><trkpt lat="45.56491093841733" lon="10.481984013724963"><ele>320.0</ele><time>2026-03-28T17:25:23Z</time></trkpt><trkpt lat="45.56469682950747" lon="10.48206285376465"><ele>320.0</ele><time>2026-03-28T17:25:24Z</time></trkpt><trkpt lat="45.564480465567605" lon="10.4821397136381"><ele>320.0</ele><time>2026-03-28T17:25:25Z</time></trkpt><trkpt lat="45.564265851807924" lon="10.482185176013775"><ele>321.33333333333337</ele><time>2026-03-28T17:25:26Z</time></trkpt><trkpt lat="45.5640520328141" lon="10.48224082650995"><ele>322.6666666666667</ele><time>2026-03-28T17:25:27Z</time></trkpt><trkpt lat="45.5638378605111" lon="10.482317507428897"><ele>324.0</ele><time>2026-03-28T17:25:28Z</time></trkpt><trkpt lat="45.56362176410597" lon="10.482366394674006"><ele>324.0</ele><time>2026-03-28T17:25:29Z</time></trkpt><trkpt lat="45.56340530799902" lon="10.482414302851282"><ele>324.0</ele><time>2026-03-28T17:25:30Z</time></trkpt><trkpt lat="45.56318732107876" lon="10.482463720540563"><ele>324.0</ele><time>2026-03-28T17:25:31Z</time></trkpt><trkpt lat="45.56296666864952" lon="10.482514419337912"><ele>324.3333333333333</ele><time>2026-03-28T17:25:32Z</time></trkpt><trkpt lat="45.56275276207164" lon="10.482564891172423"><ele>324.66666666666663</ele><time>2026-03-28T17:25:33Z</time></trkpt><trkpt lat="45.56253984649442" lon="10.482613415226316"><ele>325.0</ele><time>2026-03-28T17:25:34Z</time></trkpt><trkpt lat="45.5623510970386" lon="10.482659833955735"><ele>325.0</ele><time>2026-03-28T17:25:35Z</time></trkpt><trkpt lat="45.56216990756305" lon="10.482699308174572"><ele>325.0</ele><time>2026-03-28T17:25:36Z</time></trkpt><trkpt lat="45.562004652199626" lon="10.482741000873059"><ele>325.0</ele><time>2026-03-28T17:25:37Z</time></trkpt><trkpt lat="45.561853218712685" lon="10.482781089058324"><ele>324.8</ele><time>2026-03-28T17:25:38Z</time></trkpt><trkpt lat="45.561714402441716" lon="10.482815145150223"><ele>324.6</ele><time>2026-03-28T17:25:39Z</time></trkpt><trkpt lat="45.5616049474618" lon="10.482838333566992"><ele>324.4</ele><time>2026-03-28T17:25:40Z</time></trkpt><trkpt lat="45.56151251185354" lon="10.482846207263732"><ele>324.2</ele><time>2026-03-28T17:25:41Z</time></trkpt><trkpt lat="45.561425051710756" lon="10.482817894505674"><ele>324.0</ele><time>2026-03-28T17:25:42Z</time></trkpt><trkpt lat="45.561329635391566" lon="10.482738077139292"><ele>324.0</ele><time>2026-03-28T17:25:43Z</time></trkpt><trkpt lat="45.56122751695284" lon="10.48272679603624"><ele>324.0</ele><time>2026-03-28T17:25:44Z</time></trkpt><trkpt lat="45.56116618251231" lon="10.482439797522154"><ele>324.0</ele><time>2026-03-28T17:25:45Z</time></trkpt><trkpt lat="45.561102638362335" lon="10.482227823578008"><ele>323.6666666666667</ele><time>2026-03-28T17:25:46Z</time></trkpt><trkpt lat="45.561041755508285" lon="10.482016475438352"><ele>323.33333333333337</ele><time>2026-03-28T17:25:47Z</time></trkpt><trkpt lat="45.56096597731415" lon="10.481794930883908"><ele>323.0</ele><time>2026-03-28T17:25:48Z</time></trkpt><trkpt lat="45.56088256918572" lon="10.48160999490461"><ele>323.0</ele><time>2026-03-28T17:25:49Z</time></trkpt><trkpt lat="45.56078323896329" lon="10.48145203864941"><ele>323.0</ele><time>2026-03-28T17:25:50Z</time></trkpt><trkpt lat="45.5606495347457" lon="10.481308968849483"><ele>323.0</ele><time>2026-03-28T17:25:51Z</time></trkpt><trkpt lat="45.56049336844675" lon="10.481196233728552"><ele>327.6666666666667</ele><time>2026-03-28T17:25:52Z</time></trkpt><trkpt lat="45.56032315546501" lon="10.481111237099437"><ele>332.3333333333333</ele><time>2026-03-28T17:25:53Z</time></trkpt><trkpt lat="45.560146839815935" lon="10.481036894288529"><ele>337.0</ele><time>2026-03-28T17:25:54Z</time></trkpt><trkpt lat="45.559998087429726" lon="10.48096445044077"><ele>337.0</ele><time>2026-03-28T17:25:55Z</time></trkpt><trkpt lat="45.55988350510562" lon="10.480890023838395"><ele>337.0</ele><time>2026-03-28T17:25:56Z</time></trkpt><trkpt lat="45.559790382122955" lon="10.480800720443943"><ele>337.0</ele><time>2026-03-28T17:25:57Z</time></trkpt><trkpt lat="45.559735459697215" lon="10.480679311964115"><ele>337.0</ele><time>2026-03-28T17:25:58Z</time></trkpt><trkpt lat="45.55970015890693" lon="10.480512352184295"><ele>339.25</ele><time>2026-03-28T17:25:59Z</time></trkpt><trkpt lat="45.55969073184844" lon="10.480331435746953"><ele>341.5</ele><time>2026-03-28T17:26:00Z</time></trkpt><trkpt lat="45.559691743026896" lon="10.480151757358863"><ele>343.75</ele><time>2026-03-28T17:26:01Z</time></trkpt><trkpt lat="45.55968466590754" lon="10.479982599865341"><ele>346.0</ele><time>2026-03-28T17:26:02Z</time></trkpt><trkpt lat="45.559679705915464" lon="10.479823108051198"><ele>346.0</ele><time>2026-03-28T17:26:03Z</time></trkpt><trkpt lat="45.55967338858823" lon="10.4796566954685"><ele>346.0</ele><time>2026-03-28T17:26:04Z</time></trkpt><trkpt lat="45.559681144998365" lon="10.47950630540397"><ele>346.0</ele><time>2026-03-28T17:26:05Z</time></trkpt><trkpt lat="45.55970662389836" lon="10.479358573376"><ele>346.0</ele><time>2026-03-28T17:26:06Z</time></trkpt><trkpt lat="45.55975184932721" lon="10.479200137966144"><ele>346.0</ele><time>2026-03-28T17:26:07Z</time></trkpt><trkpt lat="45.55980772442126" lon="10.479027081254689"><ele>345.0</ele><time>2026-03-28T17:26:08Z</time></trkpt><trkpt lat="45.559861429404016" lon="10.478853733719754"><ele>344.0</ele><time>2026-03-28T17:26:09Z</time></trkpt><trkpt lat="45.55991560967171" lon="10.478681226787497"><ele>343.0</ele><time>2026-03-28T17:26:10Z</time></trkpt><trkpt lat="45.55996134687537" lon="10.47851044602582"><ele>342.0</ele><time>2026-03-28T17:26:11Z</time></trkpt><trkpt lat="45.55999395777063" lon="10.478351233985574"><ele>341.0</ele><time>2026-03-28T17:26:12Z</time></trkpt><trkpt lat="45.56001290762356" lon="10.478191644935174"><ele>340.0</ele><time>2026-03-28T17:26:13Z</time></trkpt><trkpt lat="45.56001775442436" lon="10.478024120685232"><ele>339.0</ele><time>2026-03-28T17:26:14Z</time></trkpt><trkpt lat="45.56001306821813" lon="10.477835625553997"><ele>338.0</ele><time>2026-03-28T17:26:15Z</time></trkpt><trkpt lat="45.56000924696585" lon="10.477654332779496"><ele>337.5</ele><time>2026-03-28T17:26:16Z</time></trkpt><trkpt lat="45.56000310581449" lon="10.477474960048559"><ele>337.0</ele><time>2026-03-28T17:26:17Z</time></trkpt><trkpt lat="45.56000005545708" lon="10.477301057372271"><ele>336.5</ele><time>2026-03-28T17:26:18Z</time></trkpt><trkpt lat="45.559992800168345" lon="10.47712805090298"><ele>336.0</ele><time>2026-03-28T17:26:19Z</time></trkpt><trkpt lat="45.559983336897716" lon="10.476957350302317"><ele>334.6</ele><time>2026-03-28T17:26:20Z</time></trkpt><trkpt lat="45.55999198576022" lon="10.476812249980858"><ele>333.20000000000005</ele><time>2026-03-28T17:26:21Z</time></trkpt><trkpt lat="45.560016446962145" lon="10.476684545385934"><ele>331.79999999999995</ele><time>2026-03-28T17:26:22Z</time></trkpt><trkpt lat="45.5600620924774" lon="10.476553924046586"><ele>330.4</ele><time>2026-03-28T17:26:23Z</time></trkpt><trkpt lat="45.560124580838846" lon="10.476405283616876"><ele>329.0</ele><time>2026-03-28T17:26:24Z</time></trkpt><trkpt lat="45.56019760984916" lon="10.47624790293449"><ele>326.75</ele><time>2026-03-28T17:26:25Z</time></trkpt><trkpt lat="45.56027553100175" lon="10.476096570154024"><ele>324.5</ele><time>2026-03-28T17:26:26Z</time></trkpt><trkpt lat="45.560355042033336" lon="10.475947075319823"><ele>322.25</ele><time>2026-03-28T17:26:27Z</time></trkpt><trkpt lat="45.5604332734905" lon="10.47580696943027"><ele>320.0</ele><time>2026-03-28T17:26:28Z</time></trkpt><trkpt lat="45.56050388218354" lon="10.475667414587265"><ele>320.0</ele><time>2026-03-28T17:26:29Z</time></trkpt><trkpt lat="45.56056964327346" lon="10.475530798820941"><ele>320.0</ele><time>2026-03-28T17:26:30Z</time></trkpt><trkpt lat="45.56062877425399" lon="10.475385542780382"><ele>320.0</ele><time>2026-03-28T17:26:31Z</time></trkpt><trkpt lat="45.56068056975146" lon="10.475256211481314"><ele>320.0</ele><time>2026-03-28T17:26:32Z</time></trkpt><trkpt lat="45.56072908562168" lon="10.475145250397718"><ele>320.0</ele><time>2026-03-28T17:26:33Z</time></trkpt><trkpt lat="45.5607675117251" lon="10.475043979637727"><ele>318.42857142857144</ele><time>2026-03-28T17:26:34Z</time></trkpt><trkpt lat="45.56080483048599" lon="10.474956847371724"><ele>316.8571428571429</ele><time>2026-03-28T17:26:35Z</time></trkpt><trkpt lat="45.56082161807474" lon="10.474862498239766"><ele>315.28571428571433</ele><time>2026-03-28T17:26:36Z</time></trkpt><trkpt lat="45.56081504432938" lon="10.474765264575021"><ele>313.7142857142857</ele><time>2026-03-28T17:26:37Z</time></trkpt><trkpt lat="45.56078088526221" lon="10.474674573257818"><ele>312.14285714285717</ele><time>2026-03-28T17:26:38Z</time></trkpt><trkpt lat="45.560720600648224" lon="10.474600804674917"><ele>310.5714285714286</ele><time>2026-03-28T17:26:39Z</time></trkpt><trkpt lat="45.560640563799616" lon="10.474548177666389"><ele>309.0</ele><time>2026-03-28T17:26:40Z</time></trkpt><trkpt lat="45.56054578272328" lon="10.474524488725205"><ele>307.6666666666667</ele><time>2026-03-28T17:26:41Z</time></trkpt><trkpt lat="45.56045035546814" lon="10.474513005573723"><ele>306.3333333333333</ele><time>2026-03-28T17:26:42Z</time></trkpt><trkpt lat="45.560368072130814" lon="10.474503141985556"><ele>305.0</ele><time>2026-03-28T17:26:43Z</time></trkpt><trkpt lat="45.56030107499984" lon="10.474487890627115"><ele>303.66666666666663</ele><time>2026-03-28T17:26:44Z</time></trkpt><trkpt lat="45.56023227782359" lon="10.474460886186003"><ele>302.3333333333333</ele><time>2026-03-28T17:26:45Z</time></trkpt><trkpt lat="45.560169287105694" lon="10.474416423542484"><ele>301.0</ele><time>2026-03-28T17:26:46Z</time></trkpt><trkpt lat="45.56011442234622" lon="10.474337385360116"><ele>300.25</ele><time>2026-03-28T17:26:47Z</time></trkpt><trkpt lat="45.56008837858069" lon="10.474204477717118"><ele>299.5</ele><time>2026-03-28T17:26:48Z</time></trkpt><trkpt lat="45.56006143933557" lon="10.47402739756614"><ele>298.75</ele><time>2026-03-28T17:26:49Z</time></trkpt><trkpt lat="45.560010204874494" lon="10.473846424452882"><ele>298.0</ele><time>2026-03-28T17:26:50Z</time></trkpt><trkpt lat="45.55996138665309" lon="10.473667868166032"><ele>297.0</ele><time>2026-03-28T17:26:51Z</time></trkpt><trkpt lat="45.55991184167668" lon="10.473480294049924"><ele>296.0</ele><time>2026-03-28T17:26:52Z</time></trkpt><trkpt lat="45.55984976540643" lon="10.473299340715979"><ele>295.0</ele><time>2026-03-28T17:26:53Z</time></trkpt><trkpt lat="45.55980287397421" lon="10.473102435785547"><ele>294.0</ele><time>2026-03-28T17:26:54Z</time></trkpt><trkpt lat="45.559752053520114" lon="10.472908236119588"><ele>293.5</ele><time>2026-03-28T17:26:55Z</time></trkpt><trkpt lat="45.559682872767205" lon="10.472719093742052"><ele>293.0</ele><time>2026-03-28T17:26:56Z</time></trkpt><trkpt lat="45.559624707560296" lon="10.47253651807391"><ele>292.5</ele><time>2026-03-28T17:26:57Z</time></trkpt><trkpt lat="45.559576496024306" lon="10.472365331435961"><ele>292.0</ele><time>2026-03-28T17:26:58Z</time></trkpt><trkpt lat="45.559541668566155" lon="10.472197560690898"><ele>291.66666666666663</ele><time>2026-03-28T17:26:59Z</time></trkpt><trkpt lat="45.55952500357288" lon="10.472039211336341"><ele>291.3333333333333</ele><time>2026-03-28T17:27:00Z</time></trkpt><trkpt lat="45.559520372123245" lon="10.471893744360134"><ele>291.0</ele><time>2026-03-28T17:27:01Z</time></trkpt><trkpt lat="45.55951098661934" lon="10.471769497114307"><ele>290.6666666666667</ele><time>2026-03-28T17:27:02Z</time></trkpt><trkpt lat="45.55947339571453" lon="10.471692325493146"><ele>290.33333333333337</ele><time>2026-03-28T17:27:03Z</time></trkpt><trkpt lat="45.559420825870504" lon="10.471623465002226"><ele>290.0</ele><time>2026-03-28T17:27:04Z</time></trkpt><trkpt lat="45.559323743835655" lon="10.471596940765176"><ele>290.0</ele><time>2026-03-28T17:27:05Z</time></trkpt><trkpt lat="45.55921354906677" lon="10.471593404352387"><ele>290.0</ele><time>2026-03-28T17:27:06Z</time></trkpt><trkpt lat="45.559126613264645" lon="10.471534934363348"><ele>290.0</ele><time>2026-03-28T17:27:07Z</time></trkpt><trkpt lat="45.559050316974535" lon="10.471434052091837"><ele>290.0</ele><time>2026-03-28T17:27:08Z</time></trkpt><trkpt lat="45.55895100378749" lon="10.471320155138397"><ele>290.0</ele><time>2026-03-28T17:27:09Z</time></trkpt><trkpt lat="45.558842633877845" lon="10.471223577188972"><ele>289.4</ele><time>2026-03-28T17:27:10Z</time></trkpt><trkpt lat="45.558741149266126" lon="10.471107070191673"><ele>288.8</ele><time>2026-03-28T17:27:11Z</time></trkpt><trkpt lat="45.558654816352956" lon="10.471010913456885"><ele>288.2</ele><time>2026-03-28T17:27:12Z</time></trkpt><trkpt lat="45.55858818282754" lon="10.470934358188503"><ele>287.6</ele><time>2026-03-28T17:27:13Z</time></trkpt><trkpt lat="45.55853561177712" lon="10.470854672515033"><ele>287.0</ele><time>2026-03-28T17:27:14Z</time></trkpt><trkpt lat="45.558505215402135" lon="10.470774511885383"><ele>286.6666666666667</ele><time>2026-03-28T17:27:15Z</time></trkpt><trkpt lat="45.55850076418801" lon="10.470671562579213"><ele>286.33333333333337</ele><time>2026-03-28T17:27:16Z</time></trkpt><trkpt lat="45.55849602275284" lon="10.470574399572218"><ele>286.0</ele><time>2026-03-28T17:27:17Z</time></trkpt><trkpt lat="45.558454311192605" lon="10.470481535754182"><ele>285.6666666666667</ele><time>2026-03-28T17:27:18Z</time></trkpt><trkpt lat="45.55836270896232" lon="10.470430796597945"><ele>285.3333333333333</ele><time>2026-03-28T17:27:19Z</time></trkpt><trkpt lat="45.558242233665226" lon="10.470384516698191"><ele>285.0</ele><time>2026-03-28T17:27:20Z</time></trkpt><trkpt lat="45.5581044756039" lon="10.470337903871366"><ele>285.0</ele><time>2026-03-28T17:27:21Z</time></trkpt><trkpt lat="45.55795103401815" lon="10.47030659738891"><ele>285.0</ele><time>2026-03-28T17:27:22Z</time></trkpt><trkpt lat="45.55778198378093" lon="10.470291252596043"><ele>285.0</ele><time>2026-03-28T17:27:23Z</time></trkpt><trkpt lat="45.55760655909675" lon="10.470263035100155"><ele>284.0</ele><time>2026-03-28T17:27:24Z</time></trkpt><trkpt lat="45.55743402657063" lon="10.470231890319912"><ele>283.0</ele><time>2026-03-28T17:27:25Z</time></trkpt><trkpt lat="45.557280835644804" lon="10.470200052689774"><ele>282.0</ele><time>2026-03-28T17:27:26Z</time></trkpt><trkpt lat="45.557143338290714" lon="10.470167836281613"><ele>281.75</ele><time>2026-03-28T17:27:27Z</time></trkpt><trkpt lat="45.55701210937722" lon="10.470118514107712"><ele>281.5</ele><time>2026-03-28T17:27:28Z</time></trkpt><trkpt lat="45.556874535573456" lon="10.470045886931464"><ele>281.25</ele><time>2026-03-28T17:27:29Z</time></trkpt><trkpt lat="45.55673276200215" lon="10.469949861953015"><ele>281.0</ele><time>2026-03-28T17:27:30Z</time></trkpt><trkpt lat="45.55660134219231" lon="10.469808141073754"><ele>281.0</ele><time>2026-03-28T17:27:31Z</time></trkpt><trkpt lat="45.55645053195299" lon="10.469693852026081"><ele>281.0</ele><time>2026-03-28T17:27:32Z</time></trkpt><trkpt lat="45.55630587210519" lon="10.469550435631323"><ele>281.0</ele><time>2026-03-28T17:27:33Z</time></trkpt><trkpt lat="45.55616187654354" lon="10.469401770651459"><ele>279.0</ele><time>2026-03-28T17:27:34Z</time></trkpt><trkpt lat="45.55601900951764" lon="10.469239066439412"><ele>277.0</ele><time>2026-03-28T17:27:35Z</time></trkpt><trkpt lat="45.55590429598095" lon="10.469057593837315"><ele>275.0</ele><time>2026-03-28T17:27:36Z</time></trkpt><trkpt lat="45.5557815090189" lon="10.468921732639286"><ele>275.0</ele><time>2026-03-28T17:27:37Z</time></trkpt><trkpt lat="45.555664367716304" lon="10.468790649841727"><ele>275.0</ele><time>2026-03-28T17:27:38Z</time></trkpt><trkpt lat="45.555527514798996" lon="10.46868476403352"><ele>275.0</ele><time>2026-03-28T17:27:39Z</time></trkpt><trkpt lat="45.55536044670619" lon="10.4686065489563"><ele>273.33333333333337</ele><time>2026-03-28T17:27:40Z</time></trkpt><trkpt lat="45.55518533556354" lon="10.4685337531673"><ele>271.6666666666667</ele><time>2026-03-28T17:27:41Z</time></trkpt><trkpt lat="45.55499690715169" lon="10.468450241937882"><ele>270.0</ele><time>2026-03-28T17:27:42Z</time></trkpt><trkpt lat="45.554810758056846" lon="10.468340221577686"><ele>270.0</ele><time>2026-03-28T17:27:43Z</time></trkpt><trkpt lat="45.554624787710274" lon="10.468255425747412"><ele>270.0</ele><time>2026-03-28T17:27:44Z</time></trkpt><trkpt lat="45.55444836082556" lon="10.468175399501341"><ele>270.0</ele><time>2026-03-28T17:27:45Z</time></trkpt><trkpt lat="45.554274426756685" lon="10.468096397439439"><ele>268.3333333333333</ele><time>2026-03-28T17:27:46Z</time></trkpt><trkpt lat="45.55409999546596" lon="10.46803818867192"><ele>266.66666666666663</ele><time>2026-03-28T17:27:47Z</time></trkpt><trkpt lat="45.553925793682836" lon="10.467973604373547"><ele>265.0</ele><time>2026-03-28T17:27:48Z</time></trkpt><trkpt lat="45.55374249863723" lon="10.467928161196314"><ele>262.3333333333333</ele><time>2026-03-28T17:27:49Z</time></trkpt><trkpt lat="45.553544810350445" lon="10.467905140396827"><ele>259.6666666666667</ele><time>2026-03-28T17:27:50Z</time></trkpt><trkpt lat="45.5533478536026" lon="10.467900855016326"><ele>257.0</ele><time>2026-03-28T17:27:51Z</time></trkpt><trkpt lat="45.55313932335539" lon="10.467906294279057"><ele>257.0</ele><time>2026-03-28T17:27:52Z</time></trkpt><trkpt lat="45.55292267846464" lon="10.467921124007466"><ele>257.0</ele><time>2026-03-28T17:27:53Z</time></trkpt><trkpt lat="45.552706754302754" lon="10.467935870049194"><ele>257.0</ele><time>2026-03-28T17:27:54Z</time></trkpt><trkpt lat="45.552493394744324" lon="10.467950274048725"><ele>258.0</ele><time>2026-03-28T17:27:55Z</time></trkpt><trkpt lat="45.552286944440105" lon="10.46796266733565"><ele>259.0</ele><time>2026-03-28T17:27:56Z</time></trkpt><trkpt lat="45.55210067122149" lon="10.467949468098526"><ele>260.0</ele><time>2026-03-28T17:27:57Z</time></trkpt><trkpt lat="45.55192808953032" lon="10.46795519517749"><ele>259.0</ele><time>2026-03-28T17:27:58Z</time></trkpt><trkpt lat="45.551762000184084" lon="10.46794099147422"><ele>258.0</ele><time>2026-03-28T17:27:59Z</time></trkpt><trkpt lat="45.55158854436943" lon="10.467897125028456"><ele>257.0</ele><time>2026-03-28T17:28:00Z</time></trkpt><trkpt lat="45.55142473474255" lon="10.46782302776967"><ele>257.0</ele><time>2026-03-28T17:28:01Z</time></trkpt><trkpt lat="45.551266529718525" lon="10.46771052441365"><ele>257.0</ele><time>2026-03-28T17:28:02Z</time></trkpt><trkpt lat="45.55112810413521" lon="10.4675800056225"><ele>257.0</ele><time>2026-03-28T17:28:03Z</time></trkpt><trkpt lat="45.551016706703905" lon="10.467456222066627"><ele>257.8</ele><time>2026-03-28T17:28:04Z</time></trkpt><trkpt lat="45.550916697154484" lon="10.467342354702488"><ele>258.6</ele><time>2026-03-28T17:28:05Z</time></trkpt><trkpt lat="45.55081923855875" lon="10.467261383128339"><ele>259.40000000000003</ele><time>2026-03-28T17:28:06Z</time></trkpt><trkpt lat="45.550740988846236" lon="10.467164642745908"><ele>260.2</ele><time>2026-03-28T17:28:07Z</time></trkpt><trkpt lat="45.55066520196619" lon="10.46708243367931"><ele>261.0</ele><time>2026-03-28T17:28:08Z</time></trkpt><trkpt lat="45.550594004670415" lon="10.467005442032116"><ele>261.0</ele><time>2026-03-28T17:28:09Z</time></trkpt><trkpt lat="45.55052413375621" lon="10.466938838413183"><ele>261.0</ele><time>2026-03-28T17:28:10Z</time></trkpt><trkpt lat="45.550441562344766" lon="10.466881186406406"><ele>261.0</ele><time>2026-03-28T17:28:11Z</time></trkpt><trkpt lat="45.550358401465594" lon="10.466853403585104"><ele>261.0</ele><time>2026-03-28T17:28:12Z</time></trkpt><trkpt lat="45.55027536471732" lon="10.4668596365902"><ele>261.0</ele><time>2026-03-28T17:28:13Z</time></trkpt><trkpt lat="45.550196095625125" lon="10.466920095392792"><ele>261.0</ele><time>2026-03-28T17:28:14Z</time></trkpt><trkpt lat="45.55013717789931" lon="10.467020934358315"><ele>262.2</ele><time>2026-03-28T17:28:15Z</time></trkpt><trkpt lat="45.550089380550816" lon="10.467158323069862"><ele>263.40000000000003</ele><time>2026-03-28T17:28:16Z</time></trkpt><trkpt lat="45.5500432346865" lon="10.467283641780948"><ele>264.6</ele><time>2026-03-28T17:28:17Z</time></trkpt><trkpt lat="45.549986602174776" lon="10.467373554487686"><ele>265.8</ele><time>2026-03-28T17:28:18Z</time></trkpt><trkpt lat="45.54992789224305" lon="10.46746174819222"><ele>267.0</ele><time>2026-03-28T17:28:19Z</time></trkpt><trkpt lat="45.54986175999663" lon="10.467552709348073"><ele>267.0</ele><time>2026-03-28T17:28:20Z</time></trkpt><trkpt lat="45.54979443391876" lon="10.467632501893343"><ele>267.0</ele><time>2026-03-28T17:28:21Z</time></trkpt><trkpt lat="45.5497359743835" lon="10.467726672317015"><ele>267.0</ele><time>2026-03-28T17:28:22Z</time></trkpt><trkpt lat="45.54966683563674" lon="10.467791558852955"><ele>267.0</ele><time>2026-03-28T17:28:23Z</time></trkpt><trkpt lat="45.549590661197904" lon="10.467851569200084"><ele>267.0</ele><time>2026-03-28T17:28:24Z</time></trkpt><trkpt lat="45.549510318180566" lon="10.467893358967084"><ele>267.0</ele><time>2026-03-28T17:28:25Z</time></trkpt><trkpt lat="45.54942732927042" lon="10.467901854886042"><ele>267.0</ele><time>2026-03-28T17:28:26Z</time></trkpt><trkpt lat="45.54932990908408" lon="10.4678827928601"><ele>267.0</ele><time>2026-03-28T17:28:27Z</time></trkpt><trkpt lat="45.54922050631132" lon="10.467792065005758"><ele>267.0</ele><time>2026-03-28T17:28:28Z</time></trkpt><trkpt lat="45.54910256358271" lon="10.467709437442993"><ele>267.0</ele><time>2026-03-28T17:28:29Z</time></trkpt><trkpt lat="45.5489841816723" lon="10.46763003183314"><ele>267.0</ele><time>2026-03-28T17:28:30Z</time></trkpt><trkpt lat="45.54885680199614" lon="10.467544590907222"><ele>267.0</ele><time>2026-03-28T17:28:31Z</time></trkpt><trkpt lat="45.548721960843096" lon="10.46745414514118"><ele>267.0</ele><time>2026-03-28T17:28:32Z</time></trkpt><trkpt lat="45.548587933642075" lon="10.467364613295215"><ele>267.0</ele><time>2026-03-28T17:28:33Z</time></trkpt><trkpt lat="45.54846158180649" lon="10.46727855425216"><ele>266.5</ele><time>2026-03-28T17:28:34Z</time></trkpt><trkpt lat="45.5483394356263" lon="10.467196644455154"><ele>266.0</ele><time>2026-03-28T17:28:35Z</time></trkpt><trkpt lat="45.5482147308887" lon="10.467133683282993"><ele>265.5</ele><time>2026-03-28T17:28:36Z</time></trkpt><trkpt lat="45.5481186820633" lon="10.467069889273256"><ele>265.0</ele><time>2026-03-28T17:28:37Z</time></trkpt><trkpt lat="45.548005573403536" lon="10.466983555256956"><ele>264.5</ele><time>2026-03-28T17:28:38Z</time></trkpt><trkpt lat="45.54788050519824" lon="10.466902841417394"><ele>264.0</ele><time>2026-03-28T17:28:39Z</time></trkpt><trkpt lat="45.547763540109784" lon="10.466812476754411"><ele>263.5</ele><time>2026-03-28T17:28:40Z</time></trkpt><trkpt lat="45.5476739143971" lon="10.466687830386691"><ele>263.0</ele><time>2026-03-28T17:28:41Z</time></trkpt><trkpt lat="45.54757327637911" lon="10.466577783932436"><ele>261.75</ele><time>2026-03-28T17:28:42Z</time></trkpt><trkpt lat="45.547504054082225" lon="10.466445753975394"><ele>260.5</ele><time>2026-03-28T17:28:43Z</time></trkpt><trkpt lat="45.54745328405698" lon="10.466308701234611"><ele>259.25</ele><time>2026-03-28T17:28:44Z</time></trkpt><trkpt lat="45.547417028657655" lon="10.466164673190464"><ele>258.0</ele><time>2026-03-28T17:28:45Z</time></trkpt><trkpt lat="45.54741247972152" lon="10.465992949380626"><ele>257.6666666666667</ele><time>2026-03-28T17:28:46Z</time></trkpt><trkpt lat="45.54737515383323" lon="10.465808357528251"><ele>257.33333333333337</ele><time>2026-03-28T17:28:47Z</time></trkpt><trkpt lat="45.54736866924751" lon="10.465589858994894"><ele>257.0</ele><time>2026-03-28T17:28:48Z</time></trkpt><trkpt lat="45.547383974148254" lon="10.465355289710953"><ele>256.6666666666667</ele><time>2026-03-28T17:28:49Z</time></trkpt><trkpt lat="45.54741211091067" lon="10.465112363585716"><ele>256.3333333333333</ele><time>2026-03-28T17:28:50Z</time></trkpt><trkpt lat="45.54744947495628" lon="10.464871030474526"><ele>256.0</ele><time>2026-03-28T17:28:51Z</time></trkpt><trkpt lat="45.547476155320716" lon="10.464621557485675"><ele>256.3333333333333</ele><time>2026-03-28T17:28:52Z</time></trkpt><trkpt lat="45.547499629084236" lon="10.464367128620989"><ele>256.6666666666667</ele><time>2026-03-28T17:28:53Z</time></trkpt><trkpt lat="45.547524411432875" lon="10.464104509511946"><ele>257.0</ele><time>2026-03-28T17:28:54Z</time></trkpt><trkpt lat="45.54754901526864" lon="10.46382932834409"><ele>256.0</ele><time>2026-03-28T17:28:55Z</time></trkpt><trkpt lat="45.547574098833906" lon="10.463549262419985"><ele>255.0</ele><time>2026-03-28T17:28:56Z</time></trkpt><trkpt lat="45.54760237530534" lon="10.463267150804228"><ele>254.0</ele><time>2026-03-28T17:28:57Z</time></trkpt><trkpt lat="45.54763132035909" lon="10.462984756630558"><ele>252.66666666666669</ele><time>2026-03-28T17:28:58Z</time></trkpt><trkpt lat="45.54766108433139" lon="10.462695903235952"><ele>251.33333333333331</ele><time>2026-03-28T17:28:59Z</time></trkpt><trkpt lat="45.54769064981932" lon="10.462406257808619"><ele>250.0</ele><time>2026-03-28T17:29:00Z</time></trkpt><trkpt lat="45.547718708178735" lon="10.462103550336149"><ele>249.0</ele><time>2026-03-28T17:29:01Z</time></trkpt><trkpt lat="45.54774595224215" lon="10.461820825625612"><ele>248.0</ele><time>2026-03-28T17:29:02Z</time></trkpt><trkpt lat="45.547769421448656" lon="10.461554625212797"><ele>247.0</ele><time>2026-03-28T17:29:03Z</time></trkpt><trkpt lat="45.54780260171817" lon="10.461295445660811"><ele>247.0</ele><time>2026-03-28T17:29:04Z</time></trkpt><trkpt lat="45.54785741594862" lon="10.461032757328736"><ele>247.0</ele><time>2026-03-28T17:29:05Z</time></trkpt><trkpt lat="45.547930872151674" lon="10.460783715959007"><ele>247.0</ele><time>2026-03-28T17:29:06Z</time></trkpt><trkpt lat="45.54801525240207" lon="10.460561153044482"><ele>246.5</ele><time>2026-03-28T17:29:07Z</time></trkpt><trkpt lat="45.548092994086566" lon="10.460366753657024"><ele>246.0</ele><time>2026-03-28T17:29:08Z</time></trkpt><trkpt lat="45.54816032756893" lon="10.460189683755171"><ele>245.5</ele><time>2026-03-28T17:29:09Z</time></trkpt><trkpt lat="45.548212737205" lon="10.460030314414423"><ele>245.0</ele><time>2026-03-28T17:29:10Z</time></trkpt><trkpt lat="45.5482657222905" lon="10.459898037531897"><ele>245.00000000000003</ele><time>2026-03-28T17:29:11Z</time></trkpt><trkpt lat="45.54829418192508" lon="10.459811969466765"><ele>245.0</ele><time>2026-03-28T17:29:12Z</time></trkpt><trkpt lat="45.548349574859586" lon="10.459684297150982"><ele>245.0</ele><time>2026-03-28T17:29:14Z</time></trkpt><trkpt lat="45.54839520140356" lon="10.459607063408814"><ele>245.0</ele><time>2026-03-28T17:29:15Z</time></trkpt><trkpt lat="45.54844787917406" lon="10.459524893691926"><ele>245.00000000000003</ele><time>2026-03-28T17:29:16Z</time></trkpt><trkpt lat="45.54848803676787" lon="10.459432251025202"><ele>245.0</ele><time>2026-03-28T17:29:17Z</time></trkpt><trkpt lat="45.54850538831401" lon="10.459311656371886"><ele>245.0</ele><time>2026-03-28T17:29:18Z</time></trkpt><trkpt lat="45.54847784274882" lon="10.459204697518144"><ele>245.0</ele><time>2026-03-28T17:29:19Z</time></trkpt><trkpt lat="45.54841844840343" lon="10.45910448261386"><ele>245.0</ele><time>2026-03-28T17:29:20Z</time></trkpt><trkpt lat="45.548339693909845" lon="10.459007799790664"><ele>245.0</ele><time>2026-03-28T17:29:21Z</time></trkpt><trkpt lat="45.54826952017495" lon="10.458892684792835"><ele>245.0</ele><time>2026-03-28T17:29:22Z</time></trkpt><trkpt lat="45.548218530453276" lon="10.458750156350922"><ele>244.0</ele><time>2026-03-28T17:29:23Z</time></trkpt><trkpt lat="45.54817774694673" lon="10.458589821960464"><ele>243.0</ele><time>2026-03-28T17:29:24Z</time></trkpt><trkpt lat="45.54811930363334" lon="10.458441376500806"><ele>242.0</ele><time>2026-03-28T17:29:25Z</time></trkpt><trkpt lat="45.5480213246746" lon="10.458309362535857"><ele>241.0</ele><time>2026-03-28T17:29:26Z</time></trkpt><trkpt lat="45.54790971509218" lon="10.458163411345405"><ele>240.66666666666666</ele><time>2026-03-28T17:29:27Z</time></trkpt><trkpt lat="45.54779298168681" lon="10.45801042164971"><ele>240.33333333333331</ele><time>2026-03-28T17:29:28Z</time></trkpt><trkpt lat="45.54767653511464" lon="10.457859062392792"><ele>240.0</ele><time>2026-03-28T17:29:29Z</time></trkpt><trkpt lat="45.54755911152802" lon="10.457706433293597"><ele>240.0</ele><time>2026-03-28T17:29:30Z</time></trkpt><trkpt lat="45.54744231699955" lon="10.457552610780732"><ele>240.0</ele><time>2026-03-28T17:29:31Z</time></trkpt><trkpt lat="45.547327083514965" lon="10.457401073419028"><ele>240.0</ele><time>2026-03-28T17:29:32Z</time></trkpt><trkpt lat="45.54720880899493" lon="10.457245536969461"><ele>240.25</ele><time>2026-03-28T17:29:33Z</time></trkpt><trkpt lat="45.54710404303703" lon="10.457098397789789"><ele>240.5</ele><time>2026-03-28T17:29:34Z</time></trkpt><trkpt lat="45.547003015025126" lon="10.456934003501255"><ele>240.75</ele><time>2026-03-28T17:29:35Z</time></trkpt><trkpt lat="45.54692377085886" lon="10.456753968607858"><ele>241.0</ele><time>2026-03-28T17:29:36Z</time></trkpt><trkpt lat="45.54686700271782" lon="10.456555898029944"><ele>240.66666666666666</ele><time>2026-03-28T17:29:37Z</time></trkpt><trkpt lat="45.54682864088524" lon="10.456320355966682"><ele>240.33333333333331</ele><time>2026-03-28T17:29:38Z</time></trkpt><trkpt lat="45.54679841787276" lon="10.45605736556443"><ele>240.0</ele><time>2026-03-28T17:29:39Z</time></trkpt><trkpt lat="45.54677228899189" lon="10.45574203873622"><ele>240.0</ele><time>2026-03-28T17:29:40Z</time></trkpt><trkpt lat="45.54674324237679" lon="10.455373857445954"><ele>240.0</ele><time>2026-03-28T17:29:41Z</time></trkpt><trkpt lat="45.5467126869698" lon="10.455003134057037"><ele>240.0</ele><time>2026-03-28T17:29:42Z</time></trkpt><trkpt lat="45.546673567183916" lon="10.454658779990691"><ele>240.0</ele><time>2026-03-28T17:29:43Z</time></trkpt><trkpt lat="45.5466498815033" lon="10.454336593479127"><ele>239.33333333333331</ele><time>2026-03-28T17:29:44Z</time></trkpt><trkpt lat="45.546621811517156" lon="10.454023898012403"><ele>238.66666666666666</ele><time>2026-03-28T17:29:45Z</time></trkpt><trkpt lat="45.546590211389244" lon="10.45372745534144"><ele>238.0</ele><time>2026-03-28T17:29:46Z</time></trkpt><trkpt lat="45.546555285175295" lon="10.453444004298014"><ele>237.66666666666666</ele><time>2026-03-28T17:29:47Z</time></trkpt><trkpt lat="45.546506565491924" lon="10.453173220569685"><ele>237.33333333333331</ele><time>2026-03-28T17:29:48Z</time></trkpt><trkpt lat="45.546434439710865" lon="10.452903161396849"><ele>237.0</ele><time>2026-03-28T17:29:49Z</time></trkpt><trkpt lat="45.546338469856295" lon="10.452629167387478"><ele>236.33333333333331</ele><time>2026-03-28T17:29:50Z</time></trkpt><trkpt lat="45.54622718408704" lon="10.452359167428344"><ele>235.66666666666666</ele><time>2026-03-28T17:29:51Z</time></trkpt><trkpt lat="45.54610816173788" lon="10.452097902527255"><ele>235.0</ele><time>2026-03-28T17:29:52Z</time></trkpt><trkpt lat="45.54598981806803" lon="10.451829920228906"><ele>235.0</ele><time>2026-03-28T17:29:53Z</time></trkpt><trkpt lat="45.54587267524057" lon="10.451548251699696"><ele>235.0</ele><time>2026-03-28T17:29:54Z</time></trkpt><trkpt lat="45.5457540242784" lon="10.451267461436048"><ele>235.0</ele><time>2026-03-28T17:29:55Z</time></trkpt><trkpt lat="45.54563512215144" lon="10.450984505381102"><ele>235.0</ele><time>2026-03-28T17:29:56Z</time></trkpt><trkpt lat="45.54551307632729" lon="10.450700212141182"><ele>234.0</ele><time>2026-03-28T17:29:57Z</time></trkpt><trkpt lat="45.545391033644414" lon="10.45041697362512"><ele>233.0</ele><time>2026-03-28T17:29:58Z</time></trkpt><trkpt lat="45.54526565947221" lon="10.450133328886004"><ele>233.0</ele><time>2026-03-28T17:29:59Z</time></trkpt><trkpt lat="45.54514048882478" lon="10.449848939513899"><ele>233.0</ele><time>2026-03-28T17:30:00Z</time></trkpt><trkpt lat="45.54501385653787" lon="10.449562412634325"><ele>232.5</ele><time>2026-03-28T17:30:01Z</time></trkpt><trkpt lat="45.54490610858201" lon="10.449259997968417"><ele>232.0</ele><time>2026-03-28T17:30:02Z</time></trkpt><trkpt lat="45.544784151849434" lon="10.448970289197522"><ele>231.0</ele><time>2026-03-28T17:30:03Z</time></trkpt><trkpt lat="45.54466016018613" lon="10.448679700649087"><ele>230.0</ele><time>2026-03-28T17:30:04Z</time></trkpt><trkpt lat="45.544520530067906" lon="10.448403669143547"><ele>229.5</ele><time>2026-03-28T17:30:05Z</time></trkpt><trkpt lat="45.54439620004104" lon="10.448111980647315"><ele>229.0</ele><time>2026-03-28T17:30:06Z</time></trkpt><trkpt lat="45.54427772284086" lon="10.447826742130834"><ele>229.0</ele><time>2026-03-28T17:30:07Z</time></trkpt><trkpt lat="45.54416145860355" lon="10.447558696034404"><ele>229.0</ele><time>2026-03-28T17:30:08Z</time></trkpt><trkpt lat="45.544049598644484" lon="10.447299792901198"><ele>229.0</ele><time>2026-03-28T17:30:09Z</time></trkpt><trkpt lat="45.543937154963025" lon="10.44703738587081"><ele>229.0</ele><time>2026-03-28T17:30:10Z</time></trkpt><trkpt lat="45.54382376659742" lon="10.4467734695405"><ele>229.0</ele><time>2026-03-28T17:30:11Z</time></trkpt><trkpt lat="45.54370833980095" lon="10.446506842121272"><ele>229.0</ele><time>2026-03-28T17:30:12Z</time></trkpt><trkpt lat="45.54359221950996" lon="10.4462393497122"><ele>229.0</ele><time>2026-03-28T17:30:13Z</time></trkpt><trkpt lat="45.54347792484416" lon="10.445975519975155"><ele>229.0</ele><time>2026-03-28T17:30:14Z</time></trkpt><trkpt lat="45.5433733204746" lon="10.44573019790356"><ele>229.0</ele><time>2026-03-28T17:30:15Z</time></trkpt><trkpt lat="45.5432745858078" lon="10.445495670891201"><ele>229.66666666666666</ele><time>2026-03-28T17:30:16Z</time></trkpt><trkpt lat="45.543188245977795" lon="10.445249281487529"><ele>230.33333333333331</ele><time>2026-03-28T17:30:17Z</time></trkpt><trkpt lat="45.543088730106014" lon="10.44501684239248"><ele>231.0</ele><time>2026-03-28T17:30:18Z</time></trkpt><trkpt lat="45.54298785494417" lon="10.444824860124513"><ele>229.33333333333331</ele><time>2026-03-28T17:30:19Z</time></trkpt><trkpt lat="45.54289586666791" lon="10.444612316766682"><ele>227.66666666666666</ele><time>2026-03-28T17:30:20Z</time></trkpt><trkpt lat="45.5428025589553" lon="10.44439441417535"><ele>226.0</ele><time>2026-03-28T17:30:21Z</time></trkpt><trkpt lat="45.542714294877165" lon="10.444195226523924"><ele>226.0</ele><time>2026-03-28T17:30:22Z</time></trkpt><trkpt lat="45.5426314977845" lon="10.444022882336427"><ele>226.0</ele><time>2026-03-28T17:30:23Z</time></trkpt><trkpt lat="45.54253637447464" lon="10.44388100728751"><ele>226.0</ele><time>2026-03-28T17:30:24Z</time></trkpt><trkpt lat="45.54242591225268" lon="10.443760094399028"><ele>226.0</ele><time>2026-03-28T17:30:25Z</time></trkpt><trkpt lat="45.542305141288445" lon="10.443671989326065"><ele>224.0</ele><time>2026-03-28T17:30:26Z</time></trkpt><trkpt lat="45.542186891400725" lon="10.443612830466053"><ele>222.00000000000003</ele><time>2026-03-28T17:30:27Z</time></trkpt><trkpt lat="45.54207442405152" lon="10.443577121130472"><ele>220.00000000000003</ele><time>2026-03-28T17:30:28Z</time></trkpt><trkpt lat="45.54199465769218" lon="10.4435339416476"><ele>218.0</ele><time>2026-03-28T17:30:29Z</time></trkpt><trkpt lat="45.54191471356343" lon="10.443512118468602"><ele>216.0</ele><time>2026-03-28T17:30:30Z</time></trkpt><trkpt lat="45.54184482094129" lon="10.443487731688442"><ele>216.0</ele><time>2026-03-28T17:30:31Z</time></trkpt><trkpt lat="45.54176514916877" lon="10.443459932803899"><ele>216.0</ele><time>2026-03-28T17:30:33Z</time></trkpt><trkpt lat="45.54171443089388" lon="10.443713551364992"><ele>216.0</ele><time>2026-03-28T17:30:35Z</time></trkpt><trkpt lat="45.54169739795031" lon="10.443837431452758"><ele>216.0</ele><time>2026-03-28T17:30:36Z</time></trkpt><trkpt lat="45.54166859647391" lon="10.44399787065626"><ele>217.75</ele><time>2026-03-28T17:30:37Z</time></trkpt><trkpt lat="45.54163266465114" lon="10.444161680903655"><ele>219.5</ele><time>2026-03-28T17:30:38Z</time></trkpt><trkpt lat="45.541592924432095" lon="10.444327801388255"><ele>221.25</ele><time>2026-03-28T17:30:39Z</time></trkpt><trkpt lat="45.54152955780143" lon="10.44449180254933"><ele>223.0</ele><time>2026-03-28T17:30:40Z</time></trkpt><trkpt lat="45.541479579504106" lon="10.444663542997882"><ele>223.5</ele><time>2026-03-28T17:30:41Z</time></trkpt><trkpt lat="45.5414422472577" lon="10.444850614576264"><ele>224.0</ele><time>2026-03-28T17:30:42Z</time></trkpt><trkpt lat="45.54138355528959" lon="10.445017561624022"><ele>224.5</ele><time>2026-03-28T17:30:43Z</time></trkpt><trkpt lat="45.54133264878452" lon="10.445195092291506"><ele>225.0</ele><time>2026-03-28T17:30:44Z</time></trkpt><trkpt lat="45.541289760525224" lon="10.445367432478124"><ele>224.8</ele><time>2026-03-28T17:30:45Z</time></trkpt><trkpt lat="45.54125095529398" lon="10.44551456991468"><ele>224.6</ele><time>2026-03-28T17:30:46Z</time></trkpt><trkpt lat="45.541216196049035" lon="10.445621839481394"><ele>224.39999999999998</ele><time>2026-03-28T17:30:47Z</time></trkpt><trkpt lat="45.54117625736229" lon="10.445710235553225"><ele>224.2</ele><time>2026-03-28T17:30:48Z</time></trkpt><trkpt lat="45.541120506195774" lon="10.445773540674526"><ele>224.0</ele><time>2026-03-28T17:30:49Z</time></trkpt><trkpt lat="45.54099166243396" lon="10.44579788066936"><ele>224.0</ele><time>2026-03-28T17:30:51Z</time></trkpt><trkpt lat="45.54089635925143" lon="10.445742448418672"><ele>224.0</ele><time>2026-03-28T17:30:52Z</time></trkpt><trkpt lat="45.54077330267473" lon="10.445698712135913"><ele>224.0</ele><time>2026-03-28T17:30:53Z</time></trkpt><trkpt lat="45.540644538644194" lon="10.445652947324493"><ele>224.0</ele><time>2026-03-28T17:30:54Z</time></trkpt><trkpt lat="45.54051378184362" lon="10.445606474253927"><ele>223.5</ele><time>2026-03-28T17:30:55Z</time></trkpt><trkpt lat="45.54037614508385" lon="10.445556727225984"><ele>223.0</ele><time>2026-03-28T17:30:56Z</time></trkpt><trkpt lat="45.54022979465441" lon="10.445503656787572"><ele>222.5</ele><time>2026-03-28T17:30:57Z</time></trkpt><trkpt lat="45.540082295244886" lon="10.445450167680814"><ele>222.0</ele><time>2026-03-28T17:30:58Z</time></trkpt><trkpt lat="45.53993459206516" lon="10.445418814243338"><ele>221.75</ele><time>2026-03-28T17:30:59Z</time></trkpt><trkpt lat="45.5398041331319" lon="10.445360707021814"><ele>221.5</ele><time>2026-03-28T17:31:00Z</time></trkpt><trkpt lat="45.5396821242031" lon="10.44532120907283"><ele>221.25</ele><time>2026-03-28T17:31:01Z</time></trkpt><trkpt lat="45.5395559334896" lon="10.445277166750698"><ele>221.0</ele><time>2026-03-28T17:31:02Z</time></trkpt><trkpt lat="45.53942597353371" lon="10.445240730941507"><ele>220.60000000000002</ele><time>2026-03-28T17:31:03Z</time></trkpt><trkpt lat="45.53930105926165" lon="10.445194604801662"><ele>220.20000000000002</ele><time>2026-03-28T17:31:04Z</time></trkpt><trkpt lat="45.53918913897109" lon="10.445146472735926"><ele>219.79999999999998</ele><time>2026-03-28T17:31:05Z</time></trkpt><trkpt lat="45.53910023198494" lon="10.445114975858106"><ele>219.39999999999998</ele><time>2026-03-28T17:31:06Z</time></trkpt><trkpt lat="45.53902651285933" lon="10.445070772404298"><ele>219.0</ele><time>2026-03-28T17:31:07Z</time></trkpt><trkpt lat="45.53895615841744" lon="10.445007329533627"><ele>219.0</ele><time>2026-03-28T17:31:08Z</time></trkpt><trkpt lat="45.53887475156862" lon="10.44494658452969"><ele>218.99999999999997</ele><time>2026-03-28T17:31:09Z</time></trkpt><trkpt lat="45.53877057404127" lon="10.444936622486038"><ele>218.99999999999997</ele><time>2026-03-28T17:31:10Z</time></trkpt><trkpt lat="45.53865417454153" lon="10.444950162588576"><ele>219.0</ele><time>2026-03-28T17:31:11Z</time></trkpt><trkpt lat="45.5385224525601" lon="10.444906315950817"><ele>219.0</ele><time>2026-03-28T17:31:12Z</time></trkpt><trkpt lat="45.53837879790845" lon="10.44487435319654"><ele>219.66666666666669</ele><time>2026-03-28T17:31:13Z</time></trkpt><trkpt lat="45.53822213238588" lon="10.444810789624933"><ele>220.33333333333334</ele><time>2026-03-28T17:31:14Z</time></trkpt><trkpt lat="45.53806994073032" lon="10.444757949796074"><ele>221.0</ele><time>2026-03-28T17:31:15Z</time></trkpt><trkpt lat="45.53791953824797" lon="10.44470590512458"><ele>221.33333333333334</ele><time>2026-03-28T17:31:16Z</time></trkpt><trkpt lat="45.537770765938255" lon="10.44465347578435"><ele>221.66666666666669</ele><time>2026-03-28T17:31:17Z</time></trkpt><trkpt lat="45.53761520001587" lon="10.44460260156666"><ele>222.0</ele><time>2026-03-28T17:31:18Z</time></trkpt><trkpt lat="45.53745081190315" lon="10.444545535280096"><ele>220.66666666666669</ele><time>2026-03-28T17:31:19Z</time></trkpt><trkpt lat="45.53728202132756" lon="10.44448670467129"><ele>219.33333333333334</ele><time>2026-03-28T17:31:20Z</time></trkpt><trkpt lat="45.537113314603815" lon="10.444398884334412"><ele>218.0</ele><time>2026-03-28T17:31:21Z</time></trkpt><trkpt lat="45.53693342884175" lon="10.444374650119894"><ele>217.33333333333334</ele><time>2026-03-28T17:31:22Z</time></trkpt><trkpt lat="45.53676339947399" lon="10.444343936166335"><ele>216.66666666666669</ele><time>2026-03-28T17:31:23Z</time></trkpt><trkpt lat="45.536587808188955" lon="10.44433579841926"><ele>216.0</ele><time>2026-03-28T17:31:24Z</time></trkpt><trkpt lat="45.53641411869324" lon="10.444344471492968"><ele>216.0</ele><time>2026-03-28T17:31:25Z</time></trkpt><trkpt lat="45.53623564451044" lon="10.444363474944316"><ele>216.0</ele><time>2026-03-28T17:31:26Z</time></trkpt><trkpt lat="45.53605251665985" lon="10.444386007928932"><ele>216.0</ele><time>2026-03-28T17:31:27Z</time></trkpt><trkpt lat="45.53586788477322" lon="10.444406899235386"><ele>214.66666666666669</ele><time>2026-03-28T17:31:28Z</time></trkpt><trkpt lat="45.53568009992248" lon="10.444420720371674"><ele>213.33333333333334</ele><time>2026-03-28T17:31:29Z</time></trkpt><trkpt lat="45.53550271947843" lon="10.444421824443634"><ele>212.0</ele><time>2026-03-28T17:31:30Z</time></trkpt><trkpt lat="45.535323767009956" lon="10.444412521260956"><ele>211.66666666666669</ele><time>2026-03-28T17:31:31Z</time></trkpt><trkpt lat="45.53514432926851" lon="10.444381371691037"><ele>211.33333333333331</ele><time>2026-03-28T17:31:32Z</time></trkpt><trkpt lat="45.53496960984494" lon="10.444315975094632"><ele>211.0</ele><time>2026-03-28T17:31:33Z</time></trkpt><trkpt lat="45.5347956127394" lon="10.444220747537171"><ele>211.0</ele><time>2026-03-28T17:31:34Z</time></trkpt><trkpt lat="45.534628235199605" lon="10.44411276273004"><ele>211.0</ele><time>2026-03-28T17:31:35Z</time></trkpt><trkpt lat="45.53445475337689" lon="10.444015511302297"><ele>211.0</ele><time>2026-03-28T17:31:36Z</time></trkpt><trkpt lat="45.53427671270631" lon="10.443946028408964"><ele>211.0</ele><time>2026-03-28T17:31:37Z</time></trkpt><trkpt lat="45.534095503235854" lon="10.443917963334949"><ele>211.0</ele><time>2026-03-28T17:31:38Z</time></trkpt><trkpt lat="45.533916382006325" lon="10.443908186227578"><ele>211.0</ele><time>2026-03-28T17:31:39Z</time></trkpt><trkpt lat="45.53374020767083" lon="10.44390799568407"><ele>210.66666666666666</ele><time>2026-03-28T17:31:40Z</time></trkpt><trkpt lat="45.53355114820462" lon="10.443905747874208"><ele>210.33333333333331</ele><time>2026-03-28T17:31:41Z</time></trkpt><trkpt lat="45.533369469840885" lon="10.443900496142568"><ele>210.0</ele><time>2026-03-28T17:31:42Z</time></trkpt><trkpt lat="45.53318275371069" lon="10.443893541728784"><ele>210.0</ele><time>2026-03-28T17:31:43Z</time></trkpt><trkpt lat="45.5329968214676" lon="10.443880452377353"><ele>210.0</ele><time>2026-03-28T17:31:44Z</time></trkpt><trkpt lat="45.53280972845625" lon="10.443871682687384"><ele>210.0</ele><time>2026-03-28T17:31:45Z</time></trkpt><trkpt lat="45.532624716843095" lon="10.443855210965523"><ele>210.33333333333331</ele><time>2026-03-28T17:31:46Z</time></trkpt><trkpt lat="45.53244173977191" lon="10.443836522206185"><ele>210.66666666666666</ele><time>2026-03-28T17:31:47Z</time></trkpt><trkpt lat="45.532244402148535" lon="10.443803905114335"><ele>211.0</ele><time>2026-03-28T17:31:48Z</time></trkpt><trkpt lat="45.532058611238035" lon="10.44376137964386"><ele>210.33333333333331</ele><time>2026-03-28T17:31:49Z</time></trkpt><trkpt lat="45.53187131728143" lon="10.443718054772352"><ele>209.66666666666669</ele><time>2026-03-28T17:31:50Z</time></trkpt><trkpt lat="45.53168602128336" lon="10.443684369094727"><ele>209.0</ele><time>2026-03-28T17:31:51Z</time></trkpt><trkpt lat="45.5315056715389" lon="10.443645179233071"><ele>209.0</ele><time>2026-03-28T17:31:52Z</time></trkpt><trkpt lat="45.53132520293652" lon="10.4436042890258"><ele>209.0</ele><time>2026-03-28T17:31:53Z</time></trkpt><trkpt lat="45.531165225156066" lon="10.443562691616886"><ele>209.0</ele><time>2026-03-28T17:31:54Z</time></trkpt><trkpt lat="45.531034414107125" lon="10.443499242412507"><ele>209.0</ele><time>2026-03-28T17:31:55Z</time></trkpt><trkpt lat="45.53092866354505" lon="10.443460155723967"><ele>209.0</ele><time>2026-03-28T17:31:56Z</time></trkpt><trkpt lat="45.53084368378434" lon="10.44343196730622"><ele>209.0</ele><time>2026-03-28T17:31:57Z</time></trkpt><trkpt lat="45.53078087763579" lon="10.443344018268442"><ele>209.0</ele><time>2026-03-28T17:31:58Z</time></trkpt><trkpt lat="45.53072191535864" lon="10.443229002779509"><ele>209.0</ele><time>2026-03-28T17:31:59Z</time></trkpt><trkpt lat="45.53066540107024" lon="10.443129816303253"><ele>209.00000000000003</ele><time>2026-03-28T17:32:00Z</time></trkpt><trkpt lat="45.53059778825868" lon="10.443075627403095"><ele>209.0</ele><time>2026-03-28T17:32:01Z</time></trkpt><trkpt lat="45.53051921728986" lon="10.443094280593023"><ele>209.0</ele><time>2026-03-28T17:32:02Z</time></trkpt><trkpt lat="45.530445000494815" lon="10.443163362810779"><ele>209.0</ele><time>2026-03-28T17:32:03Z</time></trkpt><trkpt lat="45.530395448069015" lon="10.443272827436857"><ele>209.00000000000003</ele><time>2026-03-28T17:32:04Z</time></trkpt><trkpt lat="45.53038910847356" lon="10.443394362031986"><ele>209.0</ele><time>2026-03-28T17:32:05Z</time></trkpt><trkpt lat="45.530415011621365" lon="10.443528280315034"><ele>209.0</ele><time>2026-03-28T17:32:06Z</time></trkpt><trkpt lat="45.53047263743573" lon="10.443657179570145"><ele>209.0</ele><time>2026-03-28T17:32:07Z</time></trkpt><trkpt lat="45.530523520841385" lon="10.443809729286734"><ele>209.0</ele><time>2026-03-28T17:32:08Z</time></trkpt><trkpt lat="45.53054008521869" lon="10.443973157014081"><ele>209.0</ele><time>2026-03-28T17:32:09Z</time></trkpt><trkpt lat="45.530528710469305" lon="10.444146766376566"><ele>209.0</ele><time>2026-03-28T17:32:10Z</time></trkpt><trkpt lat="45.530496523372335" lon="10.444343521057936"><ele>209.0</ele><time>2026-03-28T17:32:11Z</time></trkpt><trkpt lat="45.530451154455754" lon="10.4445574073753"><ele>209.0</ele><time>2026-03-28T17:32:12Z</time></trkpt><trkpt lat="45.53040283973666" lon="10.444801270054572"><ele>210.33333333333334</ele><time>2026-03-28T17:32:13Z</time></trkpt><trkpt lat="45.53035587527767" lon="10.445051229273954"><ele>211.66666666666669</ele><time>2026-03-28T17:32:14Z</time></trkpt><trkpt lat="45.530307933265085" lon="10.445313352236523"><ele>213.0</ele><time>2026-03-28T17:32:15Z</time></trkpt><trkpt lat="45.530255296635914" lon="10.445596344349102"><ele>213.0</ele><time>2026-03-28T17:32:16Z</time></trkpt><trkpt lat="45.53020274612836" lon="10.445875386311199"><ele>213.0</ele><time>2026-03-28T17:32:17Z</time></trkpt><trkpt lat="45.53014894839172" lon="10.446144390129705"><ele>213.0</ele><time>2026-03-28T17:32:18Z</time></trkpt><trkpt lat="45.53008717175404" lon="10.446395700960126"><ele>212.66666666666669</ele><time>2026-03-28T17:32:19Z</time></trkpt><trkpt lat="45.53001978299677" lon="10.446638362749274"><ele>212.33333333333334</ele><time>2026-03-28T17:32:20Z</time></trkpt><trkpt lat="45.52996000050635" lon="10.446838409445192"><ele>212.0</ele><time>2026-03-28T17:32:21Z</time></trkpt><trkpt lat="45.529893477053335" lon="10.447005878169477"><ele>211.5</ele><time>2026-03-28T17:32:22Z</time></trkpt><trkpt lat="45.52979434854127" lon="10.447133239260761"><ele>211.0</ele><time>2026-03-28T17:32:23Z</time></trkpt><trkpt lat="45.52967572129727" lon="10.447244937816356"><ele>210.5</ele><time>2026-03-28T17:32:24Z</time></trkpt><trkpt lat="45.5295365326224" lon="10.447369488473889"><ele>210.0</ele><time>2026-03-28T17:32:25Z</time></trkpt><trkpt lat="45.52938956676376" lon="10.447499057371102"><ele>211.33333333333331</ele><time>2026-03-28T17:32:26Z</time></trkpt><trkpt lat="45.52923751574712" lon="10.447630430351618"><ele>212.66666666666666</ele><time>2026-03-28T17:32:27Z</time></trkpt><trkpt lat="45.529089710603955" lon="10.44778441189509"><ele>214.0</ele><time>2026-03-28T17:32:28Z</time></trkpt><trkpt lat="45.52893812565331" lon="10.447905657937904"><ele>212.0</ele><time>2026-03-28T17:32:29Z</time></trkpt><trkpt lat="45.528812298309624" lon="10.448048814966235"><ele>210.0</ele><time>2026-03-28T17:32:30Z</time></trkpt><trkpt lat="45.52869958085479" lon="10.448229492087789"><ele>208.0</ele><time>2026-03-28T17:32:31Z</time></trkpt><trkpt lat="45.52861326421409" lon="10.44842166753296"><ele>208.0</ele><time>2026-03-28T17:32:32Z</time></trkpt><trkpt lat="45.52856096178282" lon="10.44862325820629"><ele>208.0</ele><time>2026-03-28T17:32:33Z</time></trkpt><trkpt lat="45.52853091687358" lon="10.44884391183604"><ele>208.0</ele><time>2026-03-28T17:32:34Z</time></trkpt><trkpt lat="45.528518962298854" lon="10.449075186103727"><ele>208.0</ele><time>2026-03-28T17:32:35Z</time></trkpt><trkpt lat="45.52852568727321" lon="10.449315404753104"><ele>208.0</ele><time>2026-03-28T17:32:36Z</time></trkpt><trkpt lat="45.52854248572162" lon="10.449545059003007"><ele>208.0</ele><time>2026-03-28T17:32:37Z</time></trkpt><trkpt lat="45.52855537161289" lon="10.449768610883647"><ele>208.0</ele><time>2026-03-28T17:32:38Z</time></trkpt><trkpt lat="45.528552956237924" lon="10.449977680169763"><ele>208.0</ele><time>2026-03-28T17:32:39Z</time></trkpt><trkpt lat="45.52853766408746" lon="10.450182296945387"><ele>208.0</ele><time>2026-03-28T17:32:40Z</time></trkpt><trkpt lat="45.52850548193666" lon="10.4503912781259"><ele>208.0</ele><time>2026-03-28T17:32:41Z</time></trkpt><trkpt lat="45.52845021063322" lon="10.450599782851235"><ele>208.0</ele><time>2026-03-28T17:32:42Z</time></trkpt><trkpt lat="45.528380426757444" lon="10.450791344143042"><ele>208.0</ele><time>2026-03-28T17:32:43Z</time></trkpt><trkpt lat="45.528291445502774" lon="10.45097756731813"><ele>208.0</ele><time>2026-03-28T17:32:44Z</time></trkpt><trkpt lat="45.52817777391738" lon="10.451126475027879"><ele>208.0</ele><time>2026-03-28T17:32:45Z</time></trkpt><trkpt lat="45.528066705023264" lon="10.451271180264708"><ele>208.0</ele><time>2026-03-28T17:32:46Z</time></trkpt><trkpt lat="45.52795092502963" lon="10.45141504749419"><ele>208.0</ele><time>2026-03-28T17:32:47Z</time></trkpt><trkpt lat="45.527841426471845" lon="10.451550238612965"><ele>208.0</ele><time>2026-03-28T17:32:48Z</time></trkpt><trkpt lat="45.527750119317254" lon="10.451696169172303"><ele>208.0</ele><time>2026-03-28T17:32:49Z</time></trkpt><trkpt lat="45.52764941499731" lon="10.451826687935391"><ele>208.0</ele><time>2026-03-28T17:32:50Z</time></trkpt><trkpt lat="45.52755341931857" lon="10.451973607086831"><ele>208.0</ele><time>2026-03-28T17:32:51Z</time></trkpt><trkpt lat="45.527468352078564" lon="10.45213821721283"><ele>208.0</ele><time>2026-03-28T17:32:52Z</time></trkpt><trkpt lat="45.52738689396522" lon="10.452315172355075"><ele>207.5</ele><time>2026-03-28T17:32:53Z</time></trkpt><trkpt lat="45.527298253592924" lon="10.452475504586193"><ele>207.0</ele><time>2026-03-28T17:32:54Z</time></trkpt><trkpt lat="45.527224508001105" lon="10.45263962240443"><ele>206.5</ele><time>2026-03-28T17:32:55Z</time></trkpt><trkpt lat="45.52715752415183" lon="10.452788276880463"><ele>206.0</ele><time>2026-03-28T17:32:56Z</time></trkpt><trkpt lat="45.52709607537183" lon="10.452921411789285"><ele>206.0</ele><time>2026-03-28T17:32:57Z</time></trkpt><trkpt lat="45.527040942062364" lon="10.45303453116724"><ele>206.0</ele><time>2026-03-28T17:32:58Z</time></trkpt><trkpt lat="45.526984804189084" lon="10.453146647730305"><ele>206.0</ele><time>2026-03-28T17:32:59Z</time></trkpt><trkpt lat="45.526928509883426" lon="10.45325358977664"><ele>206.0</ele><time>2026-03-28T17:33:00Z</time></trkpt><trkpt lat="45.52686503934416" lon="10.45336733523028"><ele>206.0</ele><time>2026-03-28T17:33:01Z</time></trkpt><trkpt lat="45.52679185347721" lon="10.453483203920374"><ele>206.0</ele><time>2026-03-28T17:33:02Z</time></trkpt><trkpt lat="45.52672254192456" lon="10.453626275186824"><ele>206.0</ele><time>2026-03-28T17:33:03Z</time></trkpt><trkpt lat="45.526631657904446" lon="10.453754671918608"><ele>206.0</ele><time>2026-03-28T17:33:04Z</time></trkpt><trkpt lat="45.526546956103644" lon="10.453882400309876"><ele>206.0</ele><time>2026-03-28T17:33:05Z</time></trkpt><trkpt lat="45.52647528687241" lon="10.454024574012161"><ele>205.75</ele><time>2026-03-28T17:33:06Z</time></trkpt><trkpt lat="45.526414154638054" lon="10.454186395243568"><ele>205.5</ele><time>2026-03-28T17:33:07Z</time></trkpt><trkpt lat="45.52635365436891" lon="10.454359940927514"><ele>205.25</ele><time>2026-03-28T17:33:08Z</time></trkpt><trkpt lat="45.526288679147015" lon="10.454549559076735"><ele>205.0</ele><time>2026-03-28T17:33:09Z</time></trkpt><trkpt lat="45.5262224031067" lon="10.45473794632706"><ele>205.0</ele><time>2026-03-28T17:33:10Z</time></trkpt><trkpt lat="45.52615406172033" lon="10.454920129193944"><ele>205.0</ele><time>2026-03-28T17:33:11Z</time></trkpt><trkpt lat="45.526086708751066" lon="10.455104892968903"><ele>205.0</ele><time>2026-03-28T17:33:12Z</time></trkpt><trkpt lat="45.52601809823412" lon="10.455291113042573"><ele>205.0</ele><time>2026-03-28T17:33:13Z</time></trkpt><trkpt lat="45.52594879730396" lon="10.455481260502154"><ele>205.0</ele><time>2026-03-28T17:33:14Z</time></trkpt><trkpt lat="45.5258849018126" lon="10.455674159215038"><ele>205.0</ele><time>2026-03-28T17:33:15Z</time></trkpt><trkpt lat="45.525813566610196" lon="10.45586327571953"><ele>205.0</ele><time>2026-03-28T17:33:16Z</time></trkpt><trkpt lat="45.525744688024346" lon="10.456053041009302"><ele>205.0</ele><time>2026-03-28T17:33:17Z</time></trkpt><trkpt lat="45.52567343544086" lon="10.45624198466789"><ele>205.0</ele><time>2026-03-28T17:33:18Z</time></trkpt><trkpt lat="45.525604149057735" lon="10.456413448508647"><ele>205.0</ele><time>2026-03-28T17:33:19Z</time></trkpt><trkpt lat="45.52553341538194" lon="10.456568326417255"><ele>205.0</ele><time>2026-03-28T17:33:20Z</time></trkpt><trkpt lat="45.52545644788536" lon="10.45671549773087"><ele>204.6</ele><time>2026-03-28T17:33:21Z</time></trkpt><trkpt lat="45.52538903796656" lon="10.456847624979316"><ele>204.2</ele><time>2026-03-28T17:33:22Z</time></trkpt><trkpt lat="45.52532261500605" lon="10.456968253929087"><ele>203.8</ele><time>2026-03-28T17:33:23Z</time></trkpt><trkpt lat="45.52526479214264" lon="10.457080436546505"><ele>203.4</ele><time>2026-03-28T17:33:24Z</time></trkpt><trkpt lat="45.52520822604809" lon="10.457197136802625"><ele>203.0</ele><time>2026-03-28T17:33:25Z</time></trkpt><trkpt lat="45.525146763036645" lon="10.457331765581003"><ele>203.0</ele><time>2026-03-28T17:33:26Z</time></trkpt><trkpt lat="45.5250840955764" lon="10.457474920459006"><ele>203.0</ele><time>2026-03-28T17:33:27Z</time></trkpt><trkpt lat="45.52500320689952" lon="10.457629391464812"><ele>203.0</ele><time>2026-03-28T17:33:28Z</time></trkpt><trkpt lat="45.52492413263746" lon="10.457789568044362"><ele>203.0</ele><time>2026-03-28T17:33:29Z</time></trkpt><trkpt lat="45.524832722002316" lon="10.457934378892324"><ele>203.0</ele><time>2026-03-28T17:33:30Z</time></trkpt><trkpt lat="45.52477351759001" lon="10.458110398579043"><ele>203.0</ele><time>2026-03-28T17:33:31Z</time></trkpt><trkpt lat="45.524700720950804" lon="10.458264027019133"><ele>203.0</ele><time>2026-03-28T17:33:32Z</time></trkpt><trkpt lat="45.52463440981566" lon="10.458419875660807"><ele>203.0</ele><time>2026-03-28T17:33:33Z</time></trkpt><trkpt lat="45.52457414873384" lon="10.458569735205526"><ele>202.5</ele><time>2026-03-28T17:33:34Z</time></trkpt><trkpt lat="45.52450915086892" lon="10.458731813863556"><ele>202.0</ele><time>2026-03-28T17:33:35Z</time></trkpt><trkpt lat="45.524438252909576" lon="10.45889977109907"><ele>201.5</ele><time>2026-03-28T17:33:36Z</time></trkpt><trkpt lat="45.524366651839436" lon="10.459076699755002"><ele>201.0</ele><time>2026-03-28T17:33:37Z</time></trkpt><trkpt lat="45.52429710112771" lon="10.45923737965959"><ele>201.0</ele><time>2026-03-28T17:33:38Z</time></trkpt><trkpt lat="45.52421256859261" lon="10.45936567341634"><ele>201.0</ele><time>2026-03-28T17:33:39Z</time></trkpt><trkpt lat="45.52411975779021" lon="10.459498418671467"><ele>201.0</ele><time>2026-03-28T17:33:40Z</time></trkpt><trkpt lat="45.524023128943426" lon="10.45963821459426"><ele>201.0</ele><time>2026-03-28T17:33:41Z</time></trkpt><trkpt lat="45.523896988026344" lon="10.459696081130684"><ele>201.0</ele><time>2026-03-28T17:33:42Z</time></trkpt><trkpt lat="45.52378070068257" lon="10.459746499524694"><ele>201.0</ele><time>2026-03-28T17:33:43Z</time></trkpt><trkpt lat="45.52365923626132" lon="10.45978350991749"><ele>201.0</ele><time>2026-03-28T17:33:44Z</time></trkpt><trkpt lat="45.52354262970485" lon="10.459830457637162"><ele>201.0</ele><time>2026-03-28T17:33:45Z</time></trkpt><trkpt lat="45.523441721409974" lon="10.459849317917955"><ele>200.83333333333334</ele><time>2026-03-28T17:33:46Z</time></trkpt><trkpt lat="45.52336720707503" lon="10.459859643303952"><ele>200.66666666666669</ele><time>2026-03-28T17:33:47Z</time></trkpt><trkpt lat="45.52330248549321" lon="10.459876842087716"><ele>200.5</ele><time>2026-03-28T17:33:48Z</time></trkpt><trkpt lat="45.523231497353706" lon="10.459902194940184"><ele>200.33333333333334</ele><time>2026-03-28T17:33:49Z</time></trkpt><trkpt lat="45.523126819109365" lon="10.459938594800027"><ele>200.16666666666669</ele><time>2026-03-28T17:33:50Z</time></trkpt><trkpt lat="45.52302083742921" lon="10.45996722475987"><ele>200.0</ele><time>2026-03-28T17:33:51Z</time></trkpt><trkpt lat="45.522926234883606" lon="10.459989068939256"><ele>200.25</ele><time>2026-03-28T17:33:52Z</time></trkpt><trkpt lat="45.522821183731914" lon="10.459976960257872"><ele>200.5</ele><time>2026-03-28T17:33:53Z</time></trkpt><trkpt lat="45.52271107399839" lon="10.459986735747613"><ele>200.75</ele><time>2026-03-28T17:33:54Z</time></trkpt><trkpt lat="45.52258861033632" lon="10.460023631236188"><ele>201.0</ele><time>2026-03-28T17:33:55Z</time></trkpt><trkpt lat="45.52247714227598" lon="10.46004131194423"><ele>201.0</ele><time>2026-03-28T17:33:56Z</time></trkpt><trkpt lat="45.522367105882935" lon="10.460036236322209"><ele>201.0</ele><time>2026-03-28T17:33:57Z</time></trkpt><trkpt lat="45.52227721850135" lon="10.460051041307054"><ele>201.0</ele><time>2026-03-28T17:33:58Z</time></trkpt><trkpt lat="45.522213737508004" lon="10.460084343599322"><ele>201.0</ele><time>2026-03-28T17:33:59Z</time></trkpt><trkpt lat="45.52209359984797" lon="10.460102385542687"><ele>201.0</ele><time>2026-03-28T17:34:01Z</time></trkpt><trkpt lat="45.522031907197444" lon="10.460123868176927"><ele>201.0</ele><time>2026-03-28T17:34:02Z</time></trkpt><trkpt lat="45.5219464074049" lon="10.460059641056752"><ele>201.0</ele><time>2026-03-28T17:34:04Z</time></trkpt><trkpt lat="45.52192793604506" lon="10.459941717370482"><ele>201.0</ele><time>2026-03-28T17:34:06Z</time></trkpt><trkpt lat="45.52191710082968" lon="10.459827064733966"><ele>201.0</ele><time>2026-03-28T17:34:10Z</time></trkpt><trkpt lat="45.52173431596156" lon="10.459762276401813"><ele>201.0</ele><time>2026-03-28T17:34:11Z</time></trkpt><trkpt lat="45.52160844018162" lon="10.459650365886663"><ele>201.0</ele><time>2026-03-28T17:34:12Z</time></trkpt><trkpt lat="45.52145883643983" lon="10.459579289403376"><ele>201.0</ele><time>2026-03-28T17:34:13Z</time></trkpt><trkpt lat="45.52131824628852" lon="10.459466016702857"><ele>200.33333333333331</ele><time>2026-03-28T17:34:14Z</time></trkpt><trkpt lat="45.52116519823841" lon="10.459395599701024"><ele>199.66666666666666</ele><time>2026-03-28T17:34:15Z</time></trkpt><trkpt lat="45.52101788680283" lon="10.45928004010657"><ele>199.0</ele><time>2026-03-28T17:34:16Z</time></trkpt><trkpt lat="45.52087220516288" lon="10.45918559532819"><ele>199.0</ele><time>2026-03-28T17:34:17Z</time></trkpt><trkpt lat="45.52073688704157" lon="10.459090950946031"><ele>199.0</ele><time>2026-03-28T17:34:18Z</time></trkpt><trkpt lat="45.52060721424373" lon="10.458994927283483"><ele>199.0</ele><time>2026-03-28T17:34:19Z</time></trkpt><trkpt lat="45.52047979744364" lon="10.45891777439213"><ele>199.0</ele><time>2026-03-28T17:34:20Z</time></trkpt><trkpt lat="45.52036708816626" lon="10.458795345485779"><ele>198.25</ele><time>2026-03-28T17:34:21Z</time></trkpt><trkpt lat="45.5202530397207" lon="10.458672141490409"><ele>197.5</ele><time>2026-03-28T17:34:22Z</time></trkpt><trkpt lat="45.52011433914931" lon="10.458555862466124"><ele>196.75</ele><time>2026-03-28T17:34:23Z</time></trkpt><trkpt lat="45.51998793568349" lon="10.45847133077058"><ele>196.0</ele><time>2026-03-28T17:34:24Z</time></trkpt><trkpt lat="45.5198558246999" lon="10.458386515419152"><ele>196.0</ele><time>2026-03-28T17:34:25Z</time></trkpt><trkpt lat="45.51970668961133" lon="10.458327311672596"><ele>196.0</ele><time>2026-03-28T17:34:26Z</time></trkpt><trkpt lat="45.519591959589825" lon="10.458291503254017"><ele>196.0</ele><time>2026-03-28T17:34:27Z</time></trkpt><trkpt lat="45.519490355699055" lon="10.458261015756891"><ele>196.0</ele><time>2026-03-28T17:34:28Z</time></trkpt><trkpt lat="45.51936753285896" lon="10.458226314887899"><ele>195.5</ele><time>2026-03-28T17:34:29Z</time></trkpt><trkpt lat="45.51922037528339" lon="10.45823279675939"><ele>195.0</ele><time>2026-03-28T17:34:30Z</time></trkpt><trkpt lat="45.51908323120575" lon="10.458196302054173"><ele>194.5</ele><time>2026-03-28T17:34:31Z</time></trkpt><trkpt lat="45.5189910841846" lon="10.458159400883863"><ele>194.0</ele><time>2026-03-28T17:34:32Z</time></trkpt><trkpt lat="45.51890801757654" lon="10.458127407781582"><ele>194.0</ele><time>2026-03-28T17:34:33Z</time></trkpt><trkpt lat="45.518810977000605" lon="10.458089657998691"><ele>194.0</ele><time>2026-03-28T17:34:34Z</time></trkpt><trkpt lat="45.518734253044876" lon="10.458059811581842"><ele>194.0</ele><time>2026-03-28T17:34:35Z</time></trkpt><trkpt lat="45.51865321623576" lon="10.458028287402723"><ele>194.0</ele><time>2026-03-28T17:34:36Z</time></trkpt><trkpt lat="45.518555224383455" lon="10.457990167578362"><ele>194.0</ele><time>2026-03-28T17:34:37Z</time></trkpt><trkpt lat="45.518438772783114" lon="10.4579448666839"><ele>193.75</ele><time>2026-03-28T17:34:38Z</time></trkpt><trkpt lat="45.518297981407905" lon="10.457890097378526"><ele>193.5</ele><time>2026-03-28T17:34:39Z</time></trkpt><trkpt lat="45.518168514039914" lon="10.457841263852764"><ele>193.25</ele><time>2026-03-28T17:34:40Z</time></trkpt><trkpt lat="45.51804924808866" lon="10.457814147338725"><ele>193.0</ele><time>2026-03-28T17:34:41Z</time></trkpt><trkpt lat="45.51793616386554" lon="10.457767436610556"><ele>192.5</ele><time>2026-03-28T17:34:42Z</time></trkpt><trkpt lat="45.517814355084084" lon="10.457726832427337"><ele>192.0</ele><time>2026-03-28T17:34:43Z</time></trkpt><trkpt lat="45.51767393872647" lon="10.457688767113495"><ele>191.5</ele><time>2026-03-28T17:34:44Z</time></trkpt><trkpt lat="45.517523307303016" lon="10.457645815788966"><ele>191.0</ele><time>2026-03-28T17:34:45Z</time></trkpt><trkpt lat="45.517395752152176" lon="10.457594358968633"><ele>191.0</ele><time>2026-03-28T17:34:46Z</time></trkpt><trkpt lat="45.51727574141565" lon="10.457522387604467"><ele>191.0</ele><time>2026-03-28T17:34:47Z</time></trkpt><trkpt lat="45.51714622436453" lon="10.457477508483391"><ele>191.0</ele><time>2026-03-28T17:34:48Z</time></trkpt><trkpt lat="45.517017870795094" lon="10.45739866148214"><ele>191.0</ele><time>2026-03-28T17:34:49Z</time></trkpt><trkpt lat="45.51689445385191" lon="10.457314532402913"><ele>191.0</ele><time>2026-03-28T17:34:50Z</time></trkpt><trkpt lat="45.51676779782084" lon="10.45725587414888"><ele>191.0</ele><time>2026-03-28T17:34:51Z</time></trkpt><trkpt lat="45.516650716702934" lon="10.457214806726302"><ele>191.0</ele><time>2026-03-28T17:34:52Z</time></trkpt><trkpt lat="45.51656437935538" lon="10.457155946080892"><ele>191.0</ele><time>2026-03-28T17:34:53Z</time></trkpt><trkpt lat="45.51646593575071" lon="10.457107131041324"><ele>190.60000000000002</ele><time>2026-03-28T17:34:54Z</time></trkpt><trkpt lat="45.516356339730955" lon="10.457055680331013"><ele>190.2</ele><time>2026-03-28T17:34:55Z</time></trkpt><trkpt lat="45.51624791810504" lon="10.45702494288509"><ele>189.8</ele><time>2026-03-28T17:34:56Z</time></trkpt><trkpt lat="45.51615789178537" lon="10.456948800724627"><ele>189.39999999999998</ele><time>2026-03-28T17:34:57Z</time></trkpt><trkpt lat="45.516067775146" lon="10.45689322535729"><ele>189.0</ele><time>2026-03-28T17:34:58Z</time></trkpt><trkpt lat="45.51598474169932" lon="10.456837391409582"><ele>189.0</ele><time>2026-03-28T17:34:59Z</time></trkpt><trkpt lat="45.51589085932503" lon="10.45676628935575"><ele>189.0</ele><time>2026-03-28T17:35:00Z</time></trkpt><trkpt lat="45.51580197649692" lon="10.456686422470701"><ele>189.0</ele><time>2026-03-28T17:35:01Z</time></trkpt><trkpt lat="45.51570344896649" lon="10.456594470803193"><ele>189.0</ele><time>2026-03-28T17:35:02Z</time></trkpt><trkpt lat="45.515605805161776" lon="10.456533247489785"><ele>189.0</ele><time>2026-03-28T17:35:03Z</time></trkpt><trkpt lat="45.51553550818441" lon="10.456466101046447"><ele>189.0</ele><time>2026-03-28T17:35:04Z</time></trkpt><trkpt lat="45.51546645156254" lon="10.456406580646874"><ele>189.0</ele><time>2026-03-28T17:35:05Z</time></trkpt><trkpt lat="45.51540944921694" lon="10.456351466359749"><ele>189.0</ele><time>2026-03-28T17:35:06Z</time></trkpt><trkpt lat="45.51535565512792" lon="10.456298438217091"><ele>189.0</ele><time>2026-03-28T17:35:07Z</time></trkpt><trkpt lat="45.51529004097616" lon="10.456299597689194"><ele>189.0</ele><time>2026-03-28T17:35:08Z</time></trkpt><trkpt lat="45.51520760428617" lon="10.456241558498851"><ele>189.0</ele><time>2026-03-28T17:35:09Z</time></trkpt><trkpt lat="45.51514241197458" lon="10.456220501269335"><ele>189.0</ele><time>2026-03-28T17:35:10Z</time></trkpt><trkpt lat="45.515057795382454" lon="10.456207816238377"><ele>188.79999999999998</ele><time>2026-03-28T17:35:11Z</time></trkpt><trkpt lat="45.5149693774642" lon="10.456228074547605"><ele>188.6</ele><time>2026-03-28T17:35:12Z</time></trkpt><trkpt lat="45.51487604812989" lon="10.456188518967034"><ele>188.4</ele><time>2026-03-28T17:35:13Z</time></trkpt><trkpt lat="45.514799285818185" lon="10.456160532918712"><ele>188.2</ele><time>2026-03-28T17:35:14Z</time></trkpt><trkpt lat="45.514710181245995" lon="10.45611532424264"><ele>188.0</ele><time>2026-03-28T17:35:15Z</time></trkpt><trkpt lat="45.51460385237851" lon="10.456054894165954"><ele>187.60000000000002</ele><time>2026-03-28T17:35:16Z</time></trkpt><trkpt lat="45.51450337481401" lon="10.45601940183752"><ele>187.20000000000002</ele><time>2026-03-28T17:35:17Z</time></trkpt><trkpt lat="45.514402482496784" lon="10.455967743391765"><ele>186.8</ele><time>2026-03-28T17:35:18Z</time></trkpt><trkpt lat="45.51431525586345" lon="10.455908564651544"><ele>186.4</ele><time>2026-03-28T17:35:19Z</time></trkpt><trkpt lat="45.51422236969991" lon="10.45588252984835"><ele>186.0</ele><time>2026-03-28T17:35:20Z</time></trkpt><trkpt lat="45.514142145227254" lon="10.455828970378205"><ele>186.0</ele><time>2026-03-28T17:35:21Z</time></trkpt><trkpt lat="45.51404749817676" lon="10.455785477459813"><ele>186.0</ele><time>2026-03-28T17:35:22Z</time></trkpt><trkpt lat="45.51394992883986" lon="10.455739168406792"><ele>186.0</ele><time>2026-03-28T17:35:23Z</time></trkpt><trkpt lat="45.51383407109084" lon="10.455698384705006"><ele>186.0</ele><time>2026-03-28T17:35:24Z</time></trkpt><trkpt lat="45.513718852657014" lon="10.455630823672784"><ele>186.0</ele><time>2026-03-28T17:35:25Z</time></trkpt><trkpt lat="45.51357765030497" lon="10.455537339720898"><ele>185.75</ele><time>2026-03-28T17:35:26Z</time></trkpt><trkpt lat="45.51344946292483" lon="10.455423968514623"><ele>185.5</ele><time>2026-03-28T17:35:27Z</time></trkpt><trkpt lat="45.51333672803408" lon="10.455338247878068"><ele>185.25</ele><time>2026-03-28T17:35:28Z</time></trkpt><trkpt lat="45.51322718798209" lon="10.455262377016231"><ele>185.0</ele><time>2026-03-28T17:35:29Z</time></trkpt><trkpt lat="45.51309796799853" lon="10.45519131011105"><ele>185.0</ele><time>2026-03-28T17:35:30Z</time></trkpt><trkpt lat="45.51297576542722" lon="10.455137855106843"><ele>185.0</ele><time>2026-03-28T17:35:31Z</time></trkpt><trkpt lat="45.512856769983244" lon="10.455114052103598"><ele>185.0</ele><time>2026-03-28T17:35:32Z</time></trkpt><trkpt lat="45.51272344187281" lon="10.455119367211308"><ele>185.0</ele><time>2026-03-28T17:35:33Z</time></trkpt><trkpt lat="45.512595312641665" lon="10.455183144456642"><ele>185.0</ele><time>2026-03-28T17:35:34Z</time></trkpt><trkpt lat="45.51247132207341" lon="10.45525805022451"><ele>185.0</ele><time>2026-03-28T17:35:35Z</time></trkpt><trkpt lat="45.51234225778814" lon="10.45529730463559"><ele>185.0</ele><time>2026-03-28T17:35:36Z</time></trkpt><trkpt lat="45.51223380986037" lon="10.455318372346657"><ele>185.0</ele><time>2026-03-28T17:35:37Z</time></trkpt><trkpt lat="45.51214045692792" lon="10.455484381511424"><ele>185.0</ele><time>2026-03-28T17:35:38Z</time></trkpt><trkpt lat="45.51202861065623" lon="10.455583675350525"><ele>185.0</ele><time>2026-03-28T17:35:39Z</time></trkpt><trkpt lat="45.51193647607659" lon="10.455697124013465"><ele>185.0</ele><time>2026-03-28T17:35:40Z</time></trkpt><trkpt lat="45.511847885948" lon="10.455798577720355"><ele>185.0</ele><time>2026-03-28T17:35:41Z</time></trkpt><trkpt lat="45.511753147248996" lon="10.455911158745103"><ele>185.0</ele><time>2026-03-28T17:35:42Z</time></trkpt><trkpt lat="45.51165939887105" lon="10.456025954396965"><ele>185.0</ele><time>2026-03-28T17:35:43Z</time></trkpt><trkpt lat="45.51158270453336" lon="10.456125279843356"><ele>185.0</ele><time>2026-03-28T17:35:44Z</time></trkpt><trkpt lat="45.511505988990386" lon="10.456224632731422"><ele>185.0</ele><time>2026-03-28T17:35:45Z</time></trkpt><trkpt lat="45.51142394361015" lon="10.456330888222805"><ele>185.0</ele><time>2026-03-28T17:35:46Z</time></trkpt><trkpt lat="45.51134336722833" lon="10.456433908496665"><ele>185.0</ele><time>2026-03-28T17:35:47Z</time></trkpt><trkpt lat="45.51125768219529" lon="10.456542152319074"><ele>185.0</ele><time>2026-03-28T17:35:48Z</time></trkpt><trkpt lat="45.51116977452179" lon="10.456651412530602"><ele>185.0</ele><time>2026-03-28T17:35:49Z</time></trkpt><trkpt lat="45.5110848329848" lon="10.45675698626193"><ele>185.0</ele><time>2026-03-28T17:35:50Z</time></trkpt><trkpt lat="45.511015525929785" lon="10.456843129246277"><ele>185.0</ele><time>2026-03-28T17:35:51Z</time></trkpt><trkpt lat="45.51095680244746" lon="10.456916116678459"><ele>185.0</ele><time>2026-03-28T17:35:52Z</time></trkpt><trkpt lat="45.51089286058541" lon="10.456995589816987"><ele>185.0</ele><time>2026-03-28T17:35:53Z</time></trkpt><trkpt lat="45.510816038768894" lon="10.457091071541708"><ele>185.0</ele><time>2026-03-28T17:35:54Z</time></trkpt><trkpt lat="45.51074606603191" lon="10.457177875755827"><ele>185.0</ele><time>2026-03-28T17:35:55Z</time></trkpt><trkpt lat="45.51067837097894" lon="10.45725976757815"><ele>185.0</ele><time>2026-03-28T17:35:56Z</time></trkpt><trkpt lat="45.51059810254449" lon="10.457356867605437"><ele>185.0</ele><time>2026-03-28T17:35:57Z</time></trkpt><trkpt lat="45.51049142815881" lon="10.457496898208019"><ele>185.0</ele><time>2026-03-28T17:35:58Z</time></trkpt><trkpt lat="45.510391825313334" lon="10.457671508589764"><ele>185.0</ele><time>2026-03-28T17:35:59Z</time></trkpt><trkpt lat="45.510262538785355" lon="10.457836329809805"><ele>184.66666666666666</ele><time>2026-03-28T17:36:00Z</time></trkpt><trkpt lat="45.51012563675984" lon="10.458051743760672"><ele>184.33333333333334</ele><time>2026-03-28T17:36:01Z</time></trkpt><trkpt lat="45.50998152609506" lon="10.458306333553029"><ele>184.0</ele><time>2026-03-28T17:36:02Z</time></trkpt><trkpt lat="45.50983618566383" lon="10.458558460228472"><ele>184.0</ele><time>2026-03-28T17:36:03Z</time></trkpt><trkpt lat="45.50967122572911" lon="10.458810927808878"><ele>184.0</ele><time>2026-03-28T17:36:04Z</time></trkpt><trkpt lat="45.50952157845455" lon="10.45907753358877"><ele>184.0</ele><time>2026-03-28T17:36:05Z</time></trkpt><trkpt lat="45.50939385973002" lon="10.459318653830259"><ele>184.0</ele><time>2026-03-28T17:36:06Z</time></trkpt><trkpt lat="45.509273160577415" lon="10.459561671684185"><ele>184.0</ele><time>2026-03-28T17:36:07Z</time></trkpt><trkpt lat="45.50915804741192" lon="10.459800275903591"><ele>184.0</ele><time>2026-03-28T17:36:08Z</time></trkpt><trkpt lat="45.50902950315482" lon="10.46005579833423"><ele>184.0</ele><time>2026-03-28T17:36:09Z</time></trkpt><trkpt lat="45.50891016601319" lon="10.46029056109961"><ele>184.0</ele><time>2026-03-28T17:36:10Z</time></trkpt><trkpt lat="45.508799854739344" lon="10.46049734457534"><ele>184.0</ele><time>2026-03-28T17:36:11Z</time></trkpt><trkpt lat="45.50868237726546" lon="10.460695003892077"><ele>184.0</ele><time>2026-03-28T17:36:12Z</time></trkpt><trkpt lat="45.50856702867488" lon="10.460881894959416"><ele>184.0</ele><time>2026-03-28T17:36:13Z</time></trkpt><trkpt lat="45.50845442932189" lon="10.461045681657264"><ele>184.0</ele><time>2026-03-28T17:36:14Z</time></trkpt><trkpt lat="45.508350109066484" lon="10.461189341434388"><ele>184.0</ele><time>2026-03-28T17:36:15Z</time></trkpt><trkpt lat="45.50826633688902" lon="10.461312484401095"><ele>184.0</ele><time>2026-03-28T17:36:16Z</time></trkpt><trkpt lat="45.50820428149219" lon="10.461432313796982"><ele>184.0</ele><time>2026-03-28T17:36:17Z</time></trkpt><trkpt lat="45.508161214565924" lon="10.461574394690762"><ele>184.5</ele><time>2026-03-28T17:36:18Z</time></trkpt><trkpt lat="45.50816201822344" lon="10.461759723855916"><ele>185.0</ele><time>2026-03-28T17:36:19Z</time></trkpt><trkpt lat="45.508169379051395" lon="10.461965288891204"><ele>185.5</ele><time>2026-03-28T17:36:20Z</time></trkpt><trkpt lat="45.508196256290134" lon="10.46219834182153"><ele>186.0</ele><time>2026-03-28T17:36:21Z</time></trkpt><trkpt lat="45.50823281524715" lon="10.462461356256583"><ele>186.66666666666666</ele><time>2026-03-28T17:36:22Z</time></trkpt><trkpt lat="45.50826298629032" lon="10.462709648370966"><ele>187.33333333333331</ele><time>2026-03-28T17:36:23Z</time></trkpt><trkpt lat="45.508285838427064" lon="10.462921480941445"><ele>188.0</ele><time>2026-03-28T17:36:24Z</time></trkpt><trkpt lat="45.50828854864251" lon="10.463106560351557"><ele>188.0</ele><time>2026-03-28T17:36:25Z</time></trkpt><trkpt lat="45.5083042043767" lon="10.46325535579245"><ele>188.0</ele><time>2026-03-28T17:36:26Z</time></trkpt><trkpt lat="45.508316998919135" lon="10.463389024025037"><ele>188.0</ele><time>2026-03-28T17:36:27Z</time></trkpt><trkpt lat="45.50832595592863" lon="10.463489617966303"><ele>188.0</ele><time>2026-03-28T17:36:28Z</time></trkpt><trkpt lat="45.508260507072045" lon="10.463627630103343"><ele>188.0</ele><time>2026-03-28T17:36:32Z</time></trkpt><trkpt lat="45.50816112261" lon="10.463373189340075"><ele>188.0</ele><time>2026-03-28T17:36:36Z</time></trkpt><trkpt lat="45.50809832507999" lon="10.463279710812499"><ele>188.0</ele><time>2026-03-28T17:36:38Z</time></trkpt><trkpt lat="45.50799579807124" lon="10.463238559562992"><ele>188.0</ele><time>2026-03-28T17:36:40Z</time></trkpt><trkpt lat="45.507881699060746" lon="10.463254020121758"><ele>188.0</ele><time>2026-03-28T17:36:42Z</time></trkpt><trkpt lat="45.50781754525045" lon="10.463272893326788"><ele>188.0</ele><time>2026-03-28T17:36:43Z</time></trkpt><trkpt lat="45.50771257023061" lon="10.463298634227533"><ele>187.0</ele><time>2026-03-28T17:36:45Z</time></trkpt><trkpt lat="45.507631916355734" lon="10.463309569525977"><ele>186.0</ele><time>2026-03-28T17:36:47Z</time></trkpt><trkpt lat="45.507550139409574" lon="10.463332506544356"><ele>185.0</ele><time>2026-03-28T17:36:49Z</time></trkpt><trkpt lat="45.50747959953375" lon="10.463347887746982"><ele>184.0</ele><time>2026-03-28T17:36:51Z</time></trkpt><trkpt lat="45.507410989250765" lon="10.463399865977552"><ele>183.0</ele><time>2026-03-28T17:36:54Z</time></trkpt><trkpt lat="45.50734464073753" lon="10.46343179826025"><ele>182.0</ele><time>2026-03-28T17:37:48Z</time></trkpt><trkpt lat="45.50729036489678" lon="10.463489018856103"><ele>182.0</ele><time>2026-03-28T17:37:54Z</time></trkpt><trkpt lat="45.507243465205434" lon="10.463559687787921"><ele>182.0</ele><time>2026-03-28T17:37:58Z</time></trkpt><trkpt lat="45.5072840979255" lon="10.463468325703111"><ele>182.0</ele><time>2026-03-28T17:38:58Z</time></trkpt><trkpt lat="45.50730963432101" lon="10.463383427343818"><ele>182.0</ele><time>2026-03-28T17:39:06Z</time></trkpt><trkpt lat="45.507342654555835" lon="10.463302634896422"><ele>182.0</ele><time>2026-03-28T17:39:15Z</time></trkpt><trkpt lat="45.50740413387281" lon="10.46328253777935"><ele>182.0</ele><time>2026-03-28T18:12:13Z</time></trkpt><trkpt lat="45.50742258430079" lon="10.463191685992793"><ele>182.0</ele><time>2026-03-28T18:12:22Z</time></trkpt><trkpt lat="45.507441585875895" lon="10.46309425574715"><ele>182.0</ele><time>2026-03-28T18:12:28Z</time></trkpt><trkpt lat="45.507506025773615" lon="10.46306771331011"><ele>182.0</ele><time>2026-03-28T18:12:33Z</time></trkpt><trkpt lat="45.50746371596749" lon="10.463145865757085"><ele>182.0</ele><time>2026-03-28T18:13:33Z</time></trkpt><trkpt lat="45.50744805096849" lon="10.463241946182405"><ele>182.0</ele><time>2026-03-28T18:13:40Z</time></trkpt><trkpt lat="45.50739481110009" lon="10.46329210393253"><ele>182.0</ele><time>2026-03-28T18:13:47Z</time></trkpt></trkseg></trk></gpx>